<?xml version='1.0' encoding='UTF-8'?><gpx version="1.1" creator="JPX - https://github.com/jenetics/jpx" xmlns="http://www.topografix.com/GPX/1/1"><trk><trkseg><trkpt lat="42.362320980114646" lon="14.070049521925268"><ele>150.0</ele><time>2026-04-18T07:35:06.998Z</time></trkpt><trkpt lat="42.36226587192685" lon="14.070094770643475"><ele>150.0</ele><time>2026-04-18T07:36:28.999Z</time></trkpt><trkpt lat="42.362209876765895" lon="14.07001754773861"><ele>150.0</ele><time>2026-04-18T07:36:30.999Z</time></trkpt><trkpt lat="42.362187962490665" lon="14.06989839557232"><ele>150.0</ele><time>2026-04-18T07:36:33.999Z</time></trkpt><trkpt lat="42.36222050991475" lon="14.069769012913751"><ele>150.0</ele><time>2026-04-18T07:36:35.999Z</time></trkpt><trkpt lat="42.36230114552883" lon="14.069640440313893"><ele>150.0</ele><time>2026-04-18T07:36:37.999Z</time></trkpt><trkpt lat="42.36235060784589" lon="14.069562541144293"><ele>150.0</ele><time>2026-04-18T07:36:38.999Z</time></trkpt><trkpt lat="42.36243016560864" lon="14.06948338811242"><ele>150.0</ele><time>2026-04-18T07:36:40.999Z</time></trkpt><trkpt lat="42.36251986252528" lon="14.069366881370579"><ele>150.0</ele><time>2026-04-18T07:36:42.999Z</time></trkpt><trkpt lat="42.36258343805767" lon="14.069285908322964"><ele>150.0</ele><time>2026-04-18T07:36:43.999Z</time></trkpt><trkpt lat="42.36263669739" lon="14.069218074532476"><ele>150.0</ele><time>2026-04-18T07:36:44.999Z</time></trkpt><trkpt lat="42.362715483587344" lon="14.069117728381988"><ele>150.0</ele><time>2026-04-18T07:36:46.999Z</time></trkpt><trkpt lat="42.362763698277384" lon="14.069056319713539"><ele>150.0</ele><time>2026-04-18T07:36:48.999Z</time></trkpt><trkpt lat="42.36281522376669" lon="14.068990693814067"><ele>150.0</ele><time>2026-04-18T07:36:52.999Z</time></trkpt><trkpt lat="42.36276004901199" lon="14.068817365798665"><ele>150.0</ele><time>2026-04-18T07:36:55.999Z</time></trkpt><trkpt lat="42.36268575331278" lon="14.068726425024261"><ele>149.0</ele><time>2026-04-18T07:36:56.999Z</time></trkpt><trkpt lat="42.362586849720294" lon="14.068615562179536"><ele>148.0</ele><time>2026-04-18T07:36:57.999Z</time></trkpt><trkpt lat="42.36246587330027" lon="14.06848063862742"><ele>147.0</ele><time>2026-04-18T07:36:58.999Z</time></trkpt><trkpt lat="42.36236389782029" lon="14.068364002794334"><ele>146.0</ele><time>2026-04-18T07:36:59.999Z</time></trkpt><trkpt lat="42.36227090753143" lon="14.068257048271482"><ele>146.0</ele><time>2026-04-18T07:37:00.999Z</time></trkpt><trkpt lat="42.36217561695074" lon="14.068132941097943"><ele>146.0</ele><time>2026-04-18T07:37:01.999Z</time></trkpt><trkpt lat="42.36208823431443" lon="14.068007522348507"><ele>146.0</ele><time>2026-04-18T07:37:02.999Z</time></trkpt><trkpt lat="42.36199116241088" lon="14.067895072239653"><ele>146.0</ele><time>2026-04-18T07:37:03.999Z</time></trkpt><trkpt lat="42.36191775078372" lon="14.067797823787945"><ele>146.0</ele><time>2026-04-18T07:37:04.999Z</time></trkpt><trkpt lat="42.36183018330172" lon="14.067670010833796"><ele>146.0</ele><time>2026-04-18T07:37:05.999Z</time></trkpt><trkpt lat="42.36172582863227" lon="14.067587602131109"><ele>146.0</ele><time>2026-04-18T07:37:06.999Z</time></trkpt><trkpt lat="42.36161381006541" lon="14.067530226385353"><ele>146.0</ele><time>2026-04-18T07:37:07.999Z</time></trkpt><trkpt lat="42.36151009716904" lon="14.067450170838121"><ele>144.25</ele><time>2026-04-18T07:37:08.999Z</time></trkpt><trkpt lat="42.361374329466685" lon="14.067404083910187"><ele>142.5</ele><time>2026-04-18T07:37:09.999Z</time></trkpt><trkpt lat="42.36124573637036" lon="14.067416125266819"><ele>140.75</ele><time>2026-04-18T07:37:10.998Z</time></trkpt><trkpt lat="42.3611324690287" lon="14.067347869049359"><ele>139.0</ele><time>2026-04-18T07:37:11.998Z</time></trkpt><trkpt lat="42.36101633158286" lon="14.067264511743893"><ele>138.25</ele><time>2026-04-18T07:37:12.998Z</time></trkpt><trkpt lat="42.36094153300891" lon="14.067172405713745"><ele>137.5</ele><time>2026-04-18T07:37:13.998Z</time></trkpt><trkpt lat="42.360892351983146" lon="14.066968109709498"><ele>136.75</ele><time>2026-04-18T07:37:14.998Z</time></trkpt><trkpt lat="42.36081316381709" lon="14.066796967211934"><ele>136.0</ele><time>2026-04-18T07:37:15.998Z</time></trkpt><trkpt lat="42.360742239667594" lon="14.066662405142946"><ele>135.75</ele><time>2026-04-18T07:37:16.998Z</time></trkpt><trkpt lat="42.36064537045049" lon="14.066554306763342"><ele>135.5</ele><time>2026-04-18T07:37:17.998Z</time></trkpt><trkpt lat="42.36052871655461" lon="14.066471851241701"><ele>135.25</ele><time>2026-04-18T07:37:19Z</time></trkpt><trkpt lat="42.36040551656138" lon="14.066460916724491"><ele>135.0</ele><time>2026-04-18T07:37:20Z</time></trkpt><trkpt lat="42.36028462783833" lon="14.06648293878641"><ele>134.0</ele><time>2026-04-18T07:37:21Z</time></trkpt><trkpt lat="42.36014270879305" lon="14.06647667366342"><ele>133.0</ele><time>2026-04-18T07:37:22Z</time></trkpt><trkpt lat="42.3600336346372" lon="14.066419642790889"><ele>132.0</ele><time>2026-04-18T07:37:23Z</time></trkpt><trkpt lat="42.3599012317185" lon="14.066341597192556"><ele>131.0</ele><time>2026-04-18T07:37:24Z</time></trkpt><trkpt lat="42.35982938426511" lon="14.06620663057212"><ele>131.0</ele><time>2026-04-18T07:37:25Z</time></trkpt><trkpt lat="42.359749305334965" lon="14.066059758199723"><ele>131.0</ele><time>2026-04-18T07:37:26Z</time></trkpt><trkpt lat="42.35966614258404" lon="14.065891515154286"><ele>131.0</ele><time>2026-04-18T07:37:27Z</time></trkpt><trkpt lat="42.359587996971115" lon="14.065734987840772"><ele>131.0</ele><time>2026-04-18T07:37:28Z</time></trkpt><trkpt lat="42.359506122305476" lon="14.065578754724866"><ele>129.25</ele><time>2026-04-18T07:37:29Z</time></trkpt><trkpt lat="42.35940919713756" lon="14.065405760167847"><ele>127.5</ele><time>2026-04-18T07:37:30Z</time></trkpt><trkpt lat="42.359309593631465" lon="14.065272228555196"><ele>125.75</ele><time>2026-04-18T07:37:31Z</time></trkpt><trkpt lat="42.35920598521342" lon="14.065131005312798"><ele>124.0</ele><time>2026-04-18T07:37:32Z</time></trkpt><trkpt lat="42.359099275484944" lon="14.0650051563767"><ele>123.33333333333334</ele><time>2026-04-18T07:37:33Z</time></trkpt><trkpt lat="42.35897149950029" lon="14.064849820857884"><ele>122.66666666666666</ele><time>2026-04-18T07:37:34Z</time></trkpt><trkpt lat="42.35886779666783" lon="14.064708504347891"><ele>122.0</ele><time>2026-04-18T07:37:35Z</time></trkpt><trkpt lat="42.35879384922453" lon="14.064557336318229"><ele>121.5</ele><time>2026-04-18T07:37:36Z</time></trkpt><trkpt lat="42.358703754792266" lon="14.064398379550754"><ele>121.0</ele><time>2026-04-18T07:37:37Z</time></trkpt><trkpt lat="42.35861403344656" lon="14.064257867719503"><ele>120.5</ele><time>2026-04-18T07:37:38Z</time></trkpt><trkpt lat="42.35854826881303" lon="14.064130095328055"><ele>120.0</ele><time>2026-04-18T07:37:39Z</time></trkpt><trkpt lat="42.358463860143644" lon="14.064005720885412"><ele>117.25</ele><time>2026-04-18T07:37:40Z</time></trkpt><trkpt lat="42.35831899474697" lon="14.063887055590728"><ele>114.5</ele><time>2026-04-18T07:37:41Z</time></trkpt><trkpt lat="42.358186773716184" lon="14.063868915216547"><ele>111.75</ele><time>2026-04-18T07:37:42Z</time></trkpt><trkpt lat="42.35805966032385" lon="14.063863985605348"><ele>109.0</ele><time>2026-04-18T07:37:43Z</time></trkpt><trkpt lat="42.35790772899661" lon="14.063941215271841"><ele>108.0</ele><time>2026-04-18T07:37:44Z</time></trkpt><trkpt lat="42.35777155651736" lon="14.063924013938353"><ele>107.0</ele><time>2026-04-18T07:37:45Z</time></trkpt><trkpt lat="42.35763430774558" lon="14.06389223859416"><ele>106.0</ele><time>2026-04-18T07:37:46Z</time></trkpt><trkpt lat="42.3575320492297" lon="14.063771420184308"><ele>105.0</ele><time>2026-04-18T07:37:47Z</time></trkpt><trkpt lat="42.35739598889148" lon="14.063725281405627"><ele>105.0</ele><time>2026-04-18T07:37:48Z</time></trkpt><trkpt lat="42.357251775345624" lon="14.06365740131669"><ele>105.0</ele><time>2026-04-18T07:37:49Z</time></trkpt><trkpt lat="42.35715264658144" lon="14.063590870512154"><ele>105.0</ele><time>2026-04-18T07:37:50Z</time></trkpt><trkpt lat="42.3570470664397" lon="14.063514477647104"><ele>105.0</ele><time>2026-04-18T07:37:51Z</time></trkpt><trkpt lat="42.35692283932393" lon="14.063478283590303"><ele>103.75</ele><time>2026-04-18T07:37:52Z</time></trkpt><trkpt lat="42.356809186234194" lon="14.063459707318087"><ele>102.5</ele><time>2026-04-18T07:37:53Z</time></trkpt><trkpt lat="42.3566671207837" lon="14.063480544660498"><ele>101.25</ele><time>2026-04-18T07:37:54Z</time></trkpt><trkpt lat="42.35650785216685" lon="14.063527555732923"><ele>100.0</ele><time>2026-04-18T07:37:55Z</time></trkpt><trkpt lat="42.35633158673258" lon="14.063604518694989"><ele>97.33333333333334</ele><time>2026-04-18T07:37:56Z</time></trkpt><trkpt lat="42.356174602398916" lon="14.063718835634432"><ele>94.66666666666667</ele><time>2026-04-18T07:37:57Z</time></trkpt><trkpt lat="42.35603068592187" lon="14.063801568162054"><ele>92.0</ele><time>2026-04-18T07:37:58Z</time></trkpt><trkpt lat="42.35588500361617" lon="14.063794054719706"><ele>92.0</ele><time>2026-04-18T07:37:59Z</time></trkpt><trkpt lat="42.35580274011946" lon="14.063794155980734"><ele>92.0</ele><time>2026-04-18T07:38:00Z</time></trkpt><trkpt lat="42.35570653015593" lon="14.063770041688395"><ele>92.0</ele><time>2026-04-18T07:38:01Z</time></trkpt><trkpt lat="42.35562089118943" lon="14.063695997881025"><ele>92.0</ele><time>2026-04-18T07:38:02Z</time></trkpt><trkpt lat="42.35554508801046" lon="14.063569400259516"><ele>92.0</ele><time>2026-04-18T07:38:03Z</time></trkpt><trkpt lat="42.355570424642366" lon="14.06340116596308"><ele>92.0</ele><time>2026-04-18T07:38:04Z</time></trkpt><trkpt lat="42.35554386159537" lon="14.063261837607644"><ele>92.0</ele><time>2026-04-18T07:38:05Z</time></trkpt><trkpt lat="42.35550520799719" lon="14.063108356503019"><ele>92.0</ele><time>2026-04-18T07:38:06Z</time></trkpt><trkpt lat="42.35545623877672" lon="14.062946394759924"><ele>92.0</ele><time>2026-04-18T07:38:07Z</time></trkpt><trkpt lat="42.35540868097038" lon="14.062823566486642"><ele>91.33333333333334</ele><time>2026-04-18T07:38:08Z</time></trkpt><trkpt lat="42.35533064912857" lon="14.06264693905309"><ele>90.66666666666667</ele><time>2026-04-18T07:38:09Z</time></trkpt><trkpt lat="42.35522832057385" lon="14.062481484157024"><ele>90.0</ele><time>2026-04-18T07:38:10Z</time></trkpt><trkpt lat="42.35513580891539" lon="14.062317768153406"><ele>90.0</ele><time>2026-04-18T07:38:11Z</time></trkpt><trkpt lat="42.35504246240971" lon="14.062167812772085"><ele>90.0</ele><time>2026-04-18T07:38:12Z</time></trkpt><trkpt lat="42.35496481011504" lon="14.061998517965353"><ele>90.0</ele><time>2026-04-18T07:38:13Z</time></trkpt><trkpt lat="42.35487232577617" lon="14.061890300438252"><ele>90.0</ele><time>2026-04-18T07:38:14Z</time></trkpt><trkpt lat="42.35478360910308" lon="14.06176802391905"><ele>89.25</ele><time>2026-04-18T07:38:15Z</time></trkpt><trkpt lat="42.35469980866301" lon="14.061655061674237"><ele>88.5</ele><time>2026-04-18T07:38:15.999Z</time></trkpt><trkpt lat="42.354618895418746" lon="14.061526186851781"><ele>87.75</ele><time>2026-04-18T07:38:16.999Z</time></trkpt><trkpt lat="42.35453498524194" lon="14.061393695967181"><ele>87.0</ele><time>2026-04-18T07:38:17.999Z</time></trkpt><trkpt lat="42.3544502531126" lon="14.061252997235593"><ele>88.75</ele><time>2026-04-18T07:38:18.999Z</time></trkpt><trkpt lat="42.35437060236737" lon="14.061106978188027"><ele>90.5</ele><time>2026-04-18T07:38:19.999Z</time></trkpt><trkpt lat="42.354291845439285" lon="14.060981658394654"><ele>92.25</ele><time>2026-04-18T07:38:20.999Z</time></trkpt><trkpt lat="42.35420973942804" lon="14.060848724304288"><ele>94.0</ele><time>2026-04-18T07:38:21.999Z</time></trkpt><trkpt lat="42.354128834174105" lon="14.060722463891501"><ele>93.5</ele><time>2026-04-18T07:38:22.999Z</time></trkpt><trkpt lat="42.354035703866714" lon="14.060588814108877"><ele>93.0</ele><time>2026-04-18T07:38:23.999Z</time></trkpt><trkpt lat="42.35394455800076" lon="14.060447402141914"><ele>92.5</ele><time>2026-04-18T07:38:24.999Z</time></trkpt><trkpt lat="42.35386714931112" lon="14.060316452306191"><ele>92.0</ele><time>2026-04-18T07:38:25.999Z</time></trkpt><trkpt lat="42.35378865888765" lon="14.060189987019005"><ele>92.0</ele><time>2026-04-18T07:38:26.999Z</time></trkpt><trkpt lat="42.35371310082968" lon="14.060040809146178"><ele>92.0</ele><time>2026-04-18T07:38:27.999Z</time></trkpt><trkpt lat="42.35363354504958" lon="14.059894556608725"><ele>92.0</ele><time>2026-04-18T07:38:28.999Z</time></trkpt><trkpt lat="42.35355197153387" lon="14.05975426316081"><ele>92.0</ele><time>2026-04-18T07:38:29.999Z</time></trkpt><trkpt lat="42.35351343697815" lon="14.059590487757855"><ele>92.25</ele><time>2026-04-18T07:38:30.999Z</time></trkpt><trkpt lat="42.353476449878976" lon="14.059435532239096"><ele>92.5</ele><time>2026-04-18T07:38:31.999Z</time></trkpt><trkpt lat="42.35345333084711" lon="14.059261687569583"><ele>92.75</ele><time>2026-04-18T07:38:32.999Z</time></trkpt><trkpt lat="42.35343460363329" lon="14.059077163899191"><ele>93.0</ele><time>2026-04-18T07:38:33.999Z</time></trkpt><trkpt lat="42.35341729477802" lon="14.05889453844237"><ele>93.0</ele><time>2026-04-18T07:38:34.999Z</time></trkpt><trkpt lat="42.353403225024174" lon="14.058741452566547"><ele>93.0</ele><time>2026-04-18T07:38:35.999Z</time></trkpt><trkpt lat="42.35338683094005" lon="14.058579932699262"><ele>93.0</ele><time>2026-04-18T07:38:36.999Z</time></trkpt><trkpt lat="42.35337144322595" lon="14.058433125522017"><ele>93.0</ele><time>2026-04-18T07:38:37.999Z</time></trkpt><trkpt lat="42.35335599194605" lon="14.058285712060881"><ele>92.80000000000001</ele><time>2026-04-18T07:38:38.999Z</time></trkpt><trkpt lat="42.35334035718823" lon="14.058136547917659"><ele>92.6</ele><time>2026-04-18T07:38:39.999Z</time></trkpt><trkpt lat="42.353324154841566" lon="14.05797611480086"><ele>92.4</ele><time>2026-04-18T07:38:40.999Z</time></trkpt><trkpt lat="42.35330893700773" lon="14.057826606114435"><ele>92.19999999999999</ele><time>2026-04-18T07:38:41.999Z</time></trkpt><trkpt lat="42.353296660416824" lon="14.057705295748677"><ele>92.0</ele><time>2026-04-18T07:38:42.999Z</time></trkpt><trkpt lat="42.353283257341445" lon="14.0575739017776"><ele>91.6</ele><time>2026-04-18T07:38:43.999Z</time></trkpt><trkpt lat="42.3532688134994" lon="14.057433063521884"><ele>91.19999999999999</ele><time>2026-04-18T07:38:44.999Z</time></trkpt><trkpt lat="42.35325551375394" lon="14.057304880496579"><ele>90.8</ele><time>2026-04-18T07:38:45.999Z</time></trkpt><trkpt lat="42.35323021470654" lon="14.057176975477118"><ele>90.4</ele><time>2026-04-18T07:38:46.999Z</time></trkpt><trkpt lat="42.353228112640046" lon="14.057050231862275"><ele>90.0</ele><time>2026-04-18T07:38:47.999Z</time></trkpt><trkpt lat="42.35322488771849" lon="14.056946074679324"><ele>90.0</ele><time>2026-04-18T07:38:48.999Z</time></trkpt><trkpt lat="42.35322806067452" lon="14.056837578837357"><ele>90.0</ele><time>2026-04-18T07:38:49.999Z</time></trkpt><trkpt lat="42.353201439417425" lon="14.056713664747893"><ele>90.0</ele><time>2026-04-18T07:38:51.999Z</time></trkpt><trkpt lat="42.35327373503541" lon="14.056682843815427"><ele>90.0</ele><time>2026-04-18T07:38:57.999Z</time></trkpt><trkpt lat="42.353280861911166" lon="14.056797383827892"><ele>90.0</ele><time>2026-04-18T07:39:02.999Z</time></trkpt><trkpt lat="42.353231348018156" lon="14.056863770461327"><ele>90.0</ele><time>2026-04-18T07:39:04.999Z</time></trkpt><trkpt lat="42.35324921598979" lon="14.056965025834957"><ele>90.0</ele><time>2026-04-18T07:39:10.999Z</time></trkpt><trkpt lat="42.35325276231618" lon="14.057050471556874"><ele>90.0</ele><time>2026-04-18T07:39:13.999Z</time></trkpt><trkpt lat="42.35327137732674" lon="14.057171949925754"><ele>90.0</ele><time>2026-04-18T07:39:16.999Z</time></trkpt><trkpt lat="42.35326702209069" lon="14.057283042107906"><ele>90.0</ele><time>2026-04-18T07:39:20.999Z</time></trkpt><trkpt lat="42.35329674538333" lon="14.057383362340492"><ele>90.0</ele><time>2026-04-18T07:39:22.999Z</time></trkpt><trkpt lat="42.353335290415345" lon="14.057460123628859"><ele>90.0</ele><time>2026-04-18T07:39:25Z</time></trkpt><trkpt lat="42.353389472233744" lon="14.0575813953179"><ele>90.0</ele><time>2026-04-18T07:39:28Z</time></trkpt><trkpt lat="42.35345780995414" lon="14.057556696032899"><ele>90.0</ele><time>2026-04-18T07:39:33Z</time></trkpt><trkpt lat="42.353535983983285" lon="14.057531601997885"><ele>90.0</ele><time>2026-04-18T07:40:19Z</time></trkpt><trkpt lat="42.35358346704936" lon="14.0574670500613"><ele>90.0</ele><time>2026-04-18T07:40:23Z</time></trkpt><trkpt lat="42.353670317861564" lon="14.05736555859591"><ele>90.0</ele><time>2026-04-18T07:40:25Z</time></trkpt><trkpt lat="42.35376083221846" lon="14.057292954641046"><ele>90.0</ele><time>2026-04-18T07:40:26.999Z</time></trkpt><trkpt lat="42.35389503773482" lon="14.057354390181606"><ele>90.2</ele><time>2026-04-18T07:40:29.999Z</time></trkpt><trkpt lat="42.35406855100951" lon="14.057351354372203"><ele>90.4</ele><time>2026-04-18T07:40:35.999Z</time></trkpt><trkpt lat="42.354130388244435" lon="14.057322975518828"><ele>90.6</ele><time>2026-04-18T07:40:38.999Z</time></trkpt><trkpt lat="42.354158609390524" lon="14.057244436773685"><ele>90.8</ele><time>2026-04-18T07:40:41.999Z</time></trkpt><trkpt lat="42.35422144852866" lon="14.057195578280753"><ele>91.0</ele><time>2026-04-18T07:40:45.999Z</time></trkpt><trkpt lat="42.35428548586393" lon="14.057136235829573"><ele>91.0</ele><time>2026-04-18T07:40:48.999Z</time></trkpt><trkpt lat="42.35435443078105" lon="14.057114974952228"><ele>91.0</ele><time>2026-04-18T07:40:51.999Z</time></trkpt><trkpt lat="42.35443000262561" lon="14.057089998853016"><ele>91.0</ele><time>2026-04-18T07:41:08.999Z</time></trkpt><trkpt lat="42.35443391406306" lon="14.056986964681178"><ele>91.0</ele><time>2026-04-18T07:42:48.999Z</time></trkpt><trkpt lat="42.354492877904924" lon="14.056948103610594"><ele>91.0</ele><time>2026-04-18T07:43:15.999Z</time></trkpt><trkpt lat="42.35453304750884" lon="14.056881932006677"><ele>91.0</ele><time>2026-04-18T07:43:29.999Z</time></trkpt><trkpt lat="42.35455550603993" lon="14.056786057402748"><ele>91.0</ele><time>2026-04-18T07:44:05Z</time></trkpt><trkpt lat="42.35459471543684" lon="14.05671022615117"><ele>91.0</ele><time>2026-04-18T07:44:10Z</time></trkpt><trkpt lat="42.3546381630027" lon="14.056639945379507"><ele>91.0</ele><time>2026-04-18T07:44:12Z</time></trkpt><trkpt lat="42.354718578638625" lon="14.056495454140032"><ele>91.0</ele><time>2026-04-18T07:44:14Z</time></trkpt><trkpt lat="42.35476807985876" lon="14.05641887387156"><ele>91.0</ele><time>2026-04-18T07:44:15Z</time></trkpt><trkpt lat="42.35482987925258" lon="14.056320030847651"><ele>91.0</ele><time>2026-04-18T07:44:17Z</time></trkpt><trkpt lat="42.35490024968286" lon="14.056273894839618"><ele>91.33333333333333</ele><time>2026-04-18T07:44:19Z</time></trkpt><trkpt lat="42.35493052785096" lon="14.056192176205647"><ele>91.66666666666666</ele><time>2026-04-18T07:44:21Z</time></trkpt><trkpt lat="42.35500999087796" lon="14.056088321298647"><ele>92.0</ele><time>2026-04-18T07:44:23Z</time></trkpt><trkpt lat="42.35503740962469" lon="14.056000083432062"><ele>92.33333333333333</ele><time>2026-04-18T07:44:25Z</time></trkpt><trkpt lat="42.355115805615206" lon="14.055939348948655"><ele>92.66666666666667</ele><time>2026-04-18T07:44:27.999Z</time></trkpt><trkpt lat="42.35518321966521" lon="14.055856235674849"><ele>93.0</ele><time>2026-04-18T07:44:30.999Z</time></trkpt><trkpt lat="42.35525843336487" lon="14.05582909056056"><ele>93.16666666666667</ele><time>2026-04-18T07:44:36.999Z</time></trkpt><trkpt lat="42.35531351503346" lon="14.055773378488785"><ele>93.33333333333333</ele><time>2026-04-18T07:44:55.999Z</time></trkpt><trkpt lat="42.35535617180875" lon="14.055684539517195"><ele>93.5</ele><time>2026-04-18T07:45:06.999Z</time></trkpt><trkpt lat="42.35540199680843" lon="14.055615329223313"><ele>93.66666666666666</ele><time>2026-04-18T07:45:11.999Z</time></trkpt><trkpt lat="42.35541180071116" lon="14.055502214142871"><ele>93.83333333333333</ele><time>2026-04-18T07:45:14.999Z</time></trkpt><trkpt lat="42.35535032753667" lon="14.055442712831432"><ele>94.0</ele><time>2026-04-18T07:45:20.999Z</time></trkpt><trkpt lat="42.35532428354805" lon="14.055328635486667"><ele>94.0</ele><time>2026-04-18T07:45:24.999Z</time></trkpt><trkpt lat="42.35530491915425" lon="14.055233416541746"><ele>94.0</ele><time>2026-04-18T07:45:27.999Z</time></trkpt><trkpt lat="42.3553834520081" lon="14.055136598469739"><ele>94.0</ele><time>2026-04-18T07:45:30.999Z</time></trkpt><trkpt lat="42.35536744161047" lon="14.05502968110349"><ele>94.0</ele><time>2026-04-18T07:45:34.999Z</time></trkpt><trkpt lat="42.355341613918604" lon="14.054917137619048"><ele>94.0</ele><time>2026-04-18T07:45:38.999Z</time></trkpt><trkpt lat="42.355315837916436" lon="14.054825442725189"><ele>94.0</ele><time>2026-04-18T07:45:40.998Z</time></trkpt><trkpt lat="42.35527709106615" lon="14.054710387219595"><ele>94.16666666666666</ele><time>2026-04-18T07:45:45Z</time></trkpt><trkpt lat="42.355221232175936" lon="14.054607033307358"><ele>94.33333333333333</ele><time>2026-04-18T07:45:49Z</time></trkpt><trkpt lat="42.35517142240109" lon="14.054538195148771"><ele>94.5</ele><time>2026-04-18T07:45:52Z</time></trkpt><trkpt lat="42.35514629668788" lon="14.054447574133642"><ele>94.66666666666667</ele><time>2026-04-18T07:45:54Z</time></trkpt><trkpt lat="42.35510844363233" lon="14.054358468263866"><ele>94.83333333333334</ele><time>2026-04-18T07:45:55Z</time></trkpt><trkpt lat="42.35510366906537" lon="14.054263632389747"><ele>95.0</ele><time>2026-04-18T07:45:56Z</time></trkpt><trkpt lat="42.3550843442915" lon="14.054169698503038"><ele>95.16666666666667</ele><time>2026-04-18T07:45:57Z</time></trkpt><trkpt lat="42.35501303064904" lon="14.054071943496762"><ele>95.33333333333334</ele><time>2026-04-18T07:45:59Z</time></trkpt><trkpt lat="42.35493238273068" lon="14.054016033891111"><ele>95.5</ele><time>2026-04-18T07:46:01Z</time></trkpt><trkpt lat="42.354881178914084" lon="14.053950593494168"><ele>95.66666666666667</ele><time>2026-04-18T07:46:03Z</time></trkpt><trkpt lat="42.35480414749316" lon="14.053891135769875"><ele>95.83333333333333</ele><time>2026-04-18T07:46:06Z</time></trkpt><trkpt lat="42.35474233572531" lon="14.053842019721191"><ele>96.0</ele><time>2026-04-18T07:46:08Z</time></trkpt><trkpt lat="42.35472481252853" lon="14.053755515609405"><ele>96.5</ele><time>2026-04-18T07:46:11Z</time></trkpt><trkpt lat="42.35467206447839" lon="14.05362372945493"><ele>97.0</ele><time>2026-04-18T07:46:15Z</time></trkpt><trkpt lat="42.35466340362223" lon="14.053533537040565"><ele>97.5</ele><time>2026-04-18T07:46:18Z</time></trkpt><trkpt lat="42.35461350357056" lon="14.053474398594421"><ele>98.0</ele><time>2026-04-18T07:46:20Z</time></trkpt><trkpt lat="42.35460178923821" lon="14.053327855298697"><ele>98.5</ele><time>2026-04-18T07:46:23Z</time></trkpt><trkpt lat="42.35459439403133" lon="14.053238987005914"><ele>99.0</ele><time>2026-04-18T07:46:26Z</time></trkpt><trkpt lat="42.354565925096836" lon="14.05315151333434"><ele>99.33333333333333</ele><time>2026-04-18T07:47:18.999Z</time></trkpt><trkpt lat="42.35450865031405" lon="14.053073420631833"><ele>99.66666666666666</ele><time>2026-04-18T07:47:20.999Z</time></trkpt><trkpt lat="42.35449462155115" lon="14.052989621400366"><ele>100.0</ele><time>2026-04-18T07:47:22.999Z</time></trkpt><trkpt lat="42.354474219475264" lon="14.052873848043678"><ele>100.33333333333333</ele><time>2026-04-18T07:47:24.999Z</time></trkpt><trkpt lat="42.35446155990145" lon="14.05273930752721"><ele>100.66666666666666</ele><time>2026-04-18T07:47:26.999Z</time></trkpt><trkpt lat="42.35445983544539" lon="14.052651711577932"><ele>101.0</ele><time>2026-04-18T07:47:28.999Z</time></trkpt><trkpt lat="42.35449037128503" lon="14.052573768314145"><ele>100.99999999999999</ele><time>2026-04-18T07:47:30.999Z</time></trkpt><trkpt lat="42.35445812607258" lon="14.052472963401836"><ele>101.0</ele><time>2026-04-18T07:47:33.999Z</time></trkpt><trkpt lat="42.354449575612115" lon="14.052371732127064"><ele>101.0</ele><time>2026-04-18T07:47:36.999Z</time></trkpt><trkpt lat="42.3544376704195" lon="14.052263288917255"><ele>101.0</ele><time>2026-04-18T07:47:39.999Z</time></trkpt><trkpt lat="42.35446465896307" lon="14.052185134737975"><ele>100.99999999999999</ele><time>2026-04-18T07:47:41.999Z</time></trkpt><trkpt lat="42.354430344223296" lon="14.052079540522813"><ele>101.0</ele><time>2026-04-18T07:47:43.999Z</time></trkpt><trkpt lat="42.35437544746841" lon="14.051979627415568"><ele>102.0</ele><time>2026-04-18T07:47:45.999Z</time></trkpt><trkpt lat="42.354294876404346" lon="14.051870757441518"><ele>103.0</ele><time>2026-04-18T07:47:50Z</time></trkpt><trkpt lat="42.35426929729211" lon="14.051783191546802"><ele>104.0</ele><time>2026-04-18T07:47:51Z</time></trkpt><trkpt lat="42.35422686289619" lon="14.051611878707513"><ele>105.0</ele><time>2026-04-18T07:47:53Z</time></trkpt><trkpt lat="42.35421780738314" lon="14.051500503225629"><ele>106.0</ele><time>2026-04-18T07:47:55Z</time></trkpt><trkpt lat="42.3542476019799" lon="14.051337508200293"><ele>106.33333333333334</ele><time>2026-04-18T07:47:57Z</time></trkpt><trkpt lat="42.35425622057269" lon="14.051246889828532"><ele>106.66666666666667</ele><time>2026-04-18T07:47:58Z</time></trkpt><trkpt lat="42.354289592172734" lon="14.051129531064186"><ele>107.0</ele><time>2026-04-18T07:48:00Z</time></trkpt><trkpt lat="42.354282993568184" lon="14.051040037840993"><ele>107.33333333333334</ele><time>2026-04-18T07:48:02Z</time></trkpt><trkpt lat="42.354281284062054" lon="14.05120507310514"><ele>107.66666666666667</ele><time>2026-04-18T07:49:04.999Z</time></trkpt><trkpt lat="42.35426005109459" lon="14.0513094117634"><ele>108.0</ele><time>2026-04-18T07:49:05.999Z</time></trkpt><trkpt lat="42.3542383916438" lon="14.051415935088043"><ele>108.0</ele><time>2026-04-18T07:49:06.999Z</time></trkpt><trkpt lat="42.35422943999998" lon="14.051514367631702"><ele>108.0</ele><time>2026-04-18T07:49:07.999Z</time></trkpt><trkpt lat="42.354233184189354" lon="14.051675096568522"><ele>108.0</ele><time>2026-04-18T07:49:09.999Z</time></trkpt><trkpt lat="42.354251628954955" lon="14.051774059427604"><ele>108.0</ele><time>2026-04-18T07:49:10.999Z</time></trkpt><trkpt lat="42.35428463863177" lon="14.051881810896221"><ele>108.0</ele><time>2026-04-18T07:49:11.999Z</time></trkpt><trkpt lat="42.35431536038554" lon="14.051974579532702"><ele>108.0</ele><time>2026-04-18T07:49:12.999Z</time></trkpt><trkpt lat="42.35435684072425" lon="14.052069635869685"><ele>107.66666666666667</ele><time>2026-04-18T07:49:16.999Z</time></trkpt><trkpt lat="42.354448841220886" lon="14.052133042497859"><ele>107.33333333333334</ele><time>2026-04-18T07:49:18.999Z</time></trkpt><trkpt lat="42.35447535277089" lon="14.052236551802299"><ele>107.0</ele><time>2026-04-18T07:49:20.999Z</time></trkpt><trkpt lat="42.35447667397685" lon="14.052352735280689"><ele>106.66666666666667</ele><time>2026-04-18T07:49:23.999Z</time></trkpt><trkpt lat="42.35449341120525" lon="14.052465583051479"><ele>106.33333333333334</ele><time>2026-04-18T07:49:26.999Z</time></trkpt><trkpt lat="42.354488371846145" lon="14.052573253548653"><ele>106.0</ele><time>2026-04-18T07:49:28.999Z</time></trkpt><trkpt lat="42.354501230709836" lon="14.052662228747563"><ele>105.16666666666667</ele><time>2026-04-18T07:49:30.999Z</time></trkpt><trkpt lat="42.35449826575831" lon="14.052760888576632"><ele>104.33333333333334</ele><time>2026-04-18T07:49:33.999Z</time></trkpt><trkpt lat="42.354510769866295" lon="14.052887629460885"><ele>103.5</ele><time>2026-04-18T07:49:36.999Z</time></trkpt><trkpt lat="42.354530511178844" lon="14.053016145159107"><ele>102.66666666666666</ele><time>2026-04-18T07:49:38.999Z</time></trkpt><trkpt lat="42.35455017537917" lon="14.053101335003113"><ele>101.83333333333333</ele><time>2026-04-18T07:49:40.999Z</time></trkpt><trkpt lat="42.354618818218526" lon="14.053144130245835"><ele>101.0</ele><time>2026-04-18T07:49:43.999Z</time></trkpt><trkpt lat="42.35470325822828" lon="14.053120951417922"><ele>101.0</ele><time>2026-04-18T07:49:45.999Z</time></trkpt><trkpt lat="42.35460965880344" lon="14.053119735887854"><ele>101.0</ele><time>2026-04-18T07:50:10Z</time></trkpt><trkpt lat="42.354512543131555" lon="14.053109572257018"><ele>101.0</ele><time>2026-04-18T07:50:12Z</time></trkpt><trkpt lat="42.35440131605875" lon="14.0531507329558"><ele>101.0</ele><time>2026-04-18T07:50:14Z</time></trkpt><trkpt lat="42.35431600458811" lon="14.053222090715263"><ele>101.0</ele><time>2026-04-18T07:50:15Z</time></trkpt><trkpt lat="42.35425650930667" lon="14.053306027920298"><ele>101.16666666666666</ele><time>2026-04-18T07:50:16Z</time></trkpt><trkpt lat="42.35420552249631" lon="14.05337778667984"><ele>101.33333333333333</ele><time>2026-04-18T07:50:17Z</time></trkpt><trkpt lat="42.35414458666643" lon="14.053427159677627"><ele>101.5</ele><time>2026-04-18T07:50:18Z</time></trkpt><trkpt lat="42.35404005893139" lon="14.053464771590196"><ele>101.66666666666666</ele><time>2026-04-18T07:50:20Z</time></trkpt><trkpt lat="42.353973197118165" lon="14.053462430354237"><ele>101.83333333333333</ele><time>2026-04-18T07:50:21Z</time></trkpt><trkpt lat="42.353897862892794" lon="14.053458628737275"><ele>102.0</ele><time>2026-04-18T07:50:22Z</time></trkpt><trkpt lat="42.353818571243565" lon="14.053481057353137"><ele>102.0</ele><time>2026-04-18T07:50:23Z</time></trkpt><trkpt lat="42.35373071127671" lon="14.053492381362547"><ele>102.0</ele><time>2026-04-18T07:50:24Z</time></trkpt><trkpt lat="42.35365884251299" lon="14.053504674623301"><ele>102.0</ele><time>2026-04-18T07:50:25Z</time></trkpt><trkpt lat="42.35354679835981" lon="14.053499934728007"><ele>102.0</ele><time>2026-04-18T07:50:26Z</time></trkpt><trkpt lat="42.35344597740372" lon="14.053467024938024"><ele>102.0</ele><time>2026-04-18T07:50:27Z</time></trkpt><trkpt lat="42.35334902329024" lon="14.053417524074916"><ele>102.0</ele><time>2026-04-18T07:50:28Z</time></trkpt><trkpt lat="42.3532787599068" lon="14.05337600696374"><ele>102.0</ele><time>2026-04-18T07:50:29Z</time></trkpt><trkpt lat="42.35321562716473" lon="14.053326250358557"><ele>102.0</ele><time>2026-04-18T07:50:30Z</time></trkpt><trkpt lat="42.35315390825615" lon="14.053264857617803"><ele>102.0</ele><time>2026-04-18T07:50:31Z</time></trkpt><trkpt lat="42.35309323382599" lon="14.053196423526387"><ele>102.0</ele><time>2026-04-18T07:50:32Z</time></trkpt><trkpt lat="42.35302517344709" lon="14.053080183769847"><ele>102.0</ele><time>2026-04-18T07:50:33Z</time></trkpt><trkpt lat="42.35295966584889" lon="14.052899806402467"><ele>102.0</ele><time>2026-04-18T07:50:34Z</time></trkpt><trkpt lat="42.35290582940611" lon="14.052729117809239"><ele>102.0</ele><time>2026-04-18T07:50:35Z</time></trkpt><trkpt lat="42.35286975031304" lon="14.052540844995006"><ele>102.0</ele><time>2026-04-18T07:50:36Z</time></trkpt><trkpt lat="42.352855629121095" lon="14.052346925686768"><ele>102.0</ele><time>2026-04-18T07:50:37Z</time></trkpt><trkpt lat="42.35288815307079" lon="14.052177883569675"><ele>103.25</ele><time>2026-04-18T07:50:38Z</time></trkpt><trkpt lat="42.35293334155656" lon="14.05199971761575"><ele>104.5</ele><time>2026-04-18T07:50:39Z</time></trkpt><trkpt lat="42.35297555962841" lon="14.0517906695891"><ele>105.75</ele><time>2026-04-18T07:50:40Z</time></trkpt><trkpt lat="42.35301067350922" lon="14.051617719931816"><ele>107.0</ele><time>2026-04-18T07:50:41Z</time></trkpt><trkpt lat="42.35304724200645" lon="14.051428714347445"><ele>108.0</ele><time>2026-04-18T07:50:42Z</time></trkpt><trkpt lat="42.353062952724414" lon="14.051251863681687"><ele>109.0</ele><time>2026-04-18T07:50:43Z</time></trkpt><trkpt lat="42.35307841674378" lon="14.05106153884121"><ele>110.0</ele><time>2026-04-18T07:50:44Z</time></trkpt><trkpt lat="42.353097030426994" lon="14.050864913882863"><ele>111.0</ele><time>2026-04-18T07:50:45Z</time></trkpt><trkpt lat="42.35311338765145" lon="14.050661102413496"><ele>111.5</ele><time>2026-04-18T07:50:46Z</time></trkpt><trkpt lat="42.35315572844515" lon="14.050462698920171"><ele>112.0</ele><time>2026-04-18T07:50:47Z</time></trkpt><trkpt lat="42.35321457142595" lon="14.05028412448776"><ele>112.5</ele><time>2026-04-18T07:50:48Z</time></trkpt><trkpt lat="42.35323016742358" lon="14.050102827920673"><ele>113.0</ele><time>2026-04-18T07:50:49Z</time></trkpt><trkpt lat="42.35322536273384" lon="14.049915119870622"><ele>114.25</ele><time>2026-04-18T07:50:50Z</time></trkpt><trkpt lat="42.353195596601445" lon="14.04973278947707"><ele>115.5</ele><time>2026-04-18T07:50:51Z</time></trkpt><trkpt lat="42.35316990996724" lon="14.049552768184894"><ele>116.75</ele><time>2026-04-18T07:50:52Z</time></trkpt><trkpt lat="42.353118600562865" lon="14.049402489379318"><ele>118.0</ele><time>2026-04-18T07:50:53Z</time></trkpt><trkpt lat="42.35309633162633" lon="14.049271730784564"><ele>118.0</ele><time>2026-04-18T07:50:54Z</time></trkpt><trkpt lat="42.35308478847603" lon="14.049139256947612"><ele>118.00000000000001</ele><time>2026-04-18T07:50:55Z</time></trkpt><trkpt lat="42.35309291317518" lon="14.048993905083158"><ele>118.00000000000001</ele><time>2026-04-18T07:50:56Z</time></trkpt><trkpt lat="42.35310268486418" lon="14.048844456714232"><ele>118.0</ele><time>2026-04-18T07:50:57Z</time></trkpt><trkpt lat="42.353097653331325" lon="14.0487012494782"><ele>118.0</ele><time>2026-04-18T07:50:58Z</time></trkpt><trkpt lat="42.35308059963367" lon="14.048559851211026"><ele>118.2</ele><time>2026-04-18T07:50:59Z</time></trkpt><trkpt lat="42.35305383563211" lon="14.04842709829975"><ele>118.4</ele><time>2026-04-18T07:51:00Z</time></trkpt><trkpt lat="42.353021479363605" lon="14.048293869154147"><ele>118.60000000000001</ele><time>2026-04-18T07:51:01Z</time></trkpt><trkpt lat="42.352985487924165" lon="14.048152315746405"><ele>118.80000000000001</ele><time>2026-04-18T07:51:02Z</time></trkpt><trkpt lat="42.35295884927411" lon="14.048020155852589"><ele>119.0</ele><time>2026-04-18T07:51:02.999Z</time></trkpt><trkpt lat="42.35295161655976" lon="14.047903460440386"><ele>119.0</ele><time>2026-04-18T07:51:03.999Z</time></trkpt><trkpt lat="42.35297528836152" lon="14.047779062705212"><ele>119.0</ele><time>2026-04-18T07:51:04.999Z</time></trkpt><trkpt lat="42.353019364892376" lon="14.047665269373674"><ele>119.0</ele><time>2026-04-18T07:51:05.999Z</time></trkpt><trkpt lat="42.353085836058135" lon="14.047548253126683"><ele>119.0</ele><time>2026-04-18T07:51:06.999Z</time></trkpt><trkpt lat="42.35316841956857" lon="14.04741870335088"><ele>119.0</ele><time>2026-04-18T07:51:07.999Z</time></trkpt><trkpt lat="42.35323777597127" lon="14.047285990474144"><ele>119.0</ele><time>2026-04-18T07:51:08.999Z</time></trkpt><trkpt lat="42.35329481992203" lon="14.047145358684006"><ele>119.0</ele><time>2026-04-18T07:51:09.999Z</time></trkpt><trkpt lat="42.353346088325786" lon="14.047004247609117"><ele>119.0</ele><time>2026-04-18T07:51:10.999Z</time></trkpt><trkpt lat="42.353385554508215" lon="14.046847610575407"><ele>119.0</ele><time>2026-04-18T07:51:11.999Z</time></trkpt><trkpt lat="42.35343568408949" lon="14.046683883563617"><ele>118.25</ele><time>2026-04-18T07:51:12.999Z</time></trkpt><trkpt lat="42.35349189314461" lon="14.046513343317232"><ele>117.5</ele><time>2026-04-18T07:51:13.999Z</time></trkpt><trkpt lat="42.35353777158237" lon="14.046351096141109"><ele>116.75</ele><time>2026-04-18T07:51:14.999Z</time></trkpt><trkpt lat="42.353568760657076" lon="14.046203408169493"><ele>116.0</ele><time>2026-04-18T07:51:15.999Z</time></trkpt><trkpt lat="42.353580389744224" lon="14.046057612144491"><ele>115.99999999999999</ele><time>2026-04-18T07:51:16.999Z</time></trkpt><trkpt lat="42.35361032248577" lon="14.045923129409411"><ele>116.0</ele><time>2026-04-18T07:51:17.999Z</time></trkpt><trkpt lat="42.35362562324761" lon="14.045808882505945"><ele>116.0</ele><time>2026-04-18T07:51:18.999Z</time></trkpt><trkpt lat="42.35362636669794" lon="14.045709021970636"><ele>116.0</ele><time>2026-04-18T07:51:19.999Z</time></trkpt><trkpt lat="42.35363915067964" lon="14.045621813845969"><ele>115.99999999999999</ele><time>2026-04-18T07:51:20.999Z</time></trkpt><trkpt lat="42.35364526249754" lon="14.04552161059602"><ele>116.0</ele><time>2026-04-18T07:51:21.999Z</time></trkpt><trkpt lat="42.353641496274406" lon="14.045419151609472"><ele>116.66666666666666</ele><time>2026-04-18T07:51:22.999Z</time></trkpt><trkpt lat="42.353660398332664" lon="14.045307044431256"><ele>117.33333333333333</ele><time>2026-04-18T07:51:23.999Z</time></trkpt><trkpt lat="42.35365421923943" lon="14.045214783622933"><ele>118.0</ele><time>2026-04-18T07:51:24.999Z</time></trkpt><trkpt lat="42.35365656645023" lon="14.045099687121592"><ele>118.66666666666666</ele><time>2026-04-18T07:51:25.999Z</time></trkpt><trkpt lat="42.35364519980764" lon="14.044964790066885"><ele>119.33333333333333</ele><time>2026-04-18T07:51:26.999Z</time></trkpt><trkpt lat="42.35363222435659" lon="14.04483449267516"><ele>120.0</ele><time>2026-04-18T07:51:27.999Z</time></trkpt><trkpt lat="42.3536136263738" lon="14.044703514945368"><ele>121.0</ele><time>2026-04-18T07:51:28.999Z</time></trkpt><trkpt lat="42.35360181265883" lon="14.044570813558627"><ele>122.0</ele><time>2026-04-18T07:51:29.999Z</time></trkpt><trkpt lat="42.35359495848678" lon="14.044430727327281"><ele>123.0</ele><time>2026-04-18T07:51:30.999Z</time></trkpt><trkpt lat="42.35359321993266" lon="14.044281912950325"><ele>124.0</ele><time>2026-04-18T07:51:31.999Z</time></trkpt><trkpt lat="42.353635031091414" lon="14.044143034187176"><ele>125.0</ele><time>2026-04-18T07:51:32.999Z</time></trkpt><trkpt lat="42.35367057377568" lon="14.043995701135895"><ele>126.0</ele><time>2026-04-18T07:51:33.999Z</time></trkpt><trkpt lat="42.35369309277793" lon="14.043844487365922"><ele>127.0</ele><time>2026-04-18T07:51:34.999Z</time></trkpt><trkpt lat="42.35372963130724" lon="14.043704810224993"><ele>128.0</ele><time>2026-04-18T07:51:35.999Z</time></trkpt><trkpt lat="42.3537796320652" lon="14.043564501596121"><ele>129.0</ele><time>2026-04-18T07:51:36.999Z</time></trkpt><trkpt lat="42.35381887224423" lon="14.04340935163019"><ele>129.75</ele><time>2026-04-18T07:51:37.999Z</time></trkpt><trkpt lat="42.35385850439674" lon="14.043258013411371"><ele>130.5</ele><time>2026-04-18T07:51:38.999Z</time></trkpt><trkpt lat="42.353896087649645" lon="14.043096653487114"><ele>131.25</ele><time>2026-04-18T07:51:39.999Z</time></trkpt><trkpt lat="42.3539140100069" lon="14.042937112798768"><ele>132.0</ele><time>2026-04-18T07:51:40.999Z</time></trkpt><trkpt lat="42.35396206500296" lon="14.042793656477967"><ele>132.0</ele><time>2026-04-18T07:51:41.999Z</time></trkpt><trkpt lat="42.35399280414366" lon="14.042642941924784"><ele>132.0</ele><time>2026-04-18T07:51:42.999Z</time></trkpt><trkpt lat="42.35401863053876" lon="14.042499461808772"><ele>132.0</ele><time>2026-04-18T07:51:43.999Z</time></trkpt><trkpt lat="42.35404529275585" lon="14.042351336404762"><ele>132.0</ele><time>2026-04-18T07:51:44.999Z</time></trkpt><trkpt lat="42.354067458476536" lon="14.042201294674449"><ele>132.0</ele><time>2026-04-18T07:51:45.999Z</time></trkpt><trkpt lat="42.354089976983" lon="14.04204986235317"><ele>132.0</ele><time>2026-04-18T07:51:46.999Z</time></trkpt><trkpt lat="42.35410173993337" lon="14.041897483946382"><ele>132.0</ele><time>2026-04-18T07:51:47.999Z</time></trkpt><trkpt lat="42.354128660646495" lon="14.041734264306013"><ele>132.0</ele><time>2026-04-18T07:51:48.999Z</time></trkpt><trkpt lat="42.35416089544616" lon="14.041549456202208"><ele>132.75</ele><time>2026-04-18T07:51:49.999Z</time></trkpt><trkpt lat="42.35418782528156" lon="14.041376511445906"><ele>133.5</ele><time>2026-04-18T07:51:50.999Z</time></trkpt><trkpt lat="42.35421840780157" lon="14.041204714936026"><ele>134.25</ele><time>2026-04-18T07:51:51.999Z</time></trkpt><trkpt lat="42.35424322944297" lon="14.041041747089594"><ele>135.0</ele><time>2026-04-18T07:51:52.999Z</time></trkpt><trkpt lat="42.35426511699567" lon="14.040894801114646"><ele>136.25</ele><time>2026-04-18T07:51:53.999Z</time></trkpt><trkpt lat="42.35429249565993" lon="14.040748986794984"><ele>137.5</ele><time>2026-04-18T07:51:54.999Z</time></trkpt><trkpt lat="42.35431838772263" lon="14.040593646584126"><ele>138.75</ele><time>2026-04-18T07:51:55.999Z</time></trkpt><trkpt lat="42.354343247653034" lon="14.040429975224644"><ele>140.0</ele><time>2026-04-18T07:51:56.999Z</time></trkpt><trkpt lat="42.35437235855939" lon="14.040253460687987"><ele>140.0</ele><time>2026-04-18T07:51:58Z</time></trkpt><trkpt lat="42.354404223883435" lon="14.040073998418007"><ele>140.0</ele><time>2026-04-18T07:51:59Z</time></trkpt><trkpt lat="42.354436469720895" lon="14.03989626262015"><ele>140.0</ele><time>2026-04-18T07:52:00Z</time></trkpt><trkpt lat="42.354469588545925" lon="14.039718600251867"><ele>140.0</ele><time>2026-04-18T07:52:01Z</time></trkpt><trkpt lat="42.354495369699066" lon="14.039545346454338"><ele>140.25</ele><time>2026-04-18T07:52:02Z</time></trkpt><trkpt lat="42.35451583127796" lon="14.039373810220907"><ele>140.5</ele><time>2026-04-18T07:52:03Z</time></trkpt><trkpt lat="42.354545147938865" lon="14.039202525417846"><ele>140.75</ele><time>2026-04-18T07:52:04Z</time></trkpt><trkpt lat="42.35457318597995" lon="14.039044441706094"><ele>141.0</ele><time>2026-04-18T07:52:05Z</time></trkpt><trkpt lat="42.35459741063122" lon="14.038892933179232"><ele>140.25</ele><time>2026-04-18T07:52:06Z</time></trkpt><trkpt lat="42.354622009091855" lon="14.038727743901848"><ele>139.5</ele><time>2026-04-18T07:52:07Z</time></trkpt><trkpt lat="42.35464987335866" lon="14.038566462046628"><ele>138.75</ele><time>2026-04-18T07:52:08Z</time></trkpt><trkpt lat="42.35467593945132" lon="14.038406455993679"><ele>138.0</ele><time>2026-04-18T07:52:09Z</time></trkpt><trkpt lat="42.35470168156483" lon="14.0382512767413"><ele>136.8</ele><time>2026-04-18T07:52:10Z</time></trkpt><trkpt lat="42.354722798771874" lon="14.038122174352944"><ele>135.60000000000002</ele><time>2026-04-18T07:52:11Z</time></trkpt><trkpt lat="42.35473785289661" lon="14.037999831242605"><ele>134.39999999999998</ele><time>2026-04-18T07:52:12Z</time></trkpt><trkpt lat="42.35476007111513" lon="14.037876868257964"><ele>133.2</ele><time>2026-04-18T07:52:13Z</time></trkpt><trkpt lat="42.354778084265305" lon="14.037758017448917"><ele>132.0</ele><time>2026-04-18T07:52:14Z</time></trkpt><trkpt lat="42.35479809543314" lon="14.037644669548948"><ele>132.0</ele><time>2026-04-18T07:52:15Z</time></trkpt><trkpt lat="42.35480956942099" lon="14.037533023043876"><ele>132.0</ele><time>2026-04-18T07:52:16Z</time></trkpt><trkpt lat="42.35482585635355" lon="14.03742729456277"><ele>132.0</ele><time>2026-04-18T07:52:17Z</time></trkpt><trkpt lat="42.354845481894934" lon="14.03732244565769"><ele>132.0</ele><time>2026-04-18T07:52:18Z</time></trkpt><trkpt lat="42.35485522790274" lon="14.037228586706583"><ele>132.0</ele><time>2026-04-18T07:52:19Z</time></trkpt><trkpt lat="42.35486545831365" lon="14.037138045183521"><ele>132.0</ele><time>2026-04-18T07:52:20Z</time></trkpt><trkpt lat="42.35487997903134" lon="14.03703758431269"><ele>132.2</ele><time>2026-04-18T07:52:21Z</time></trkpt><trkpt lat="42.35488638416752" lon="14.036934949312345"><ele>132.39999999999998</ele><time>2026-04-18T07:52:22Z</time></trkpt><trkpt lat="42.354888837260596" lon="14.036819123820083"><ele>132.60000000000002</ele><time>2026-04-18T07:52:23Z</time></trkpt><trkpt lat="42.35489191789292" lon="14.036694732359631"><ele>132.8</ele><time>2026-04-18T07:52:24Z</time></trkpt><trkpt lat="42.35489248943718" lon="14.036559113344676"><ele>133.0</ele><time>2026-04-18T07:52:25Z</time></trkpt><trkpt lat="42.354882039306084" lon="14.036419717565824"><ele>133.25</ele><time>2026-04-18T07:52:26Z</time></trkpt><trkpt lat="42.354877613489805" lon="14.036272789917536"><ele>133.5</ele><time>2026-04-18T07:52:27Z</time></trkpt><trkpt lat="42.354874824798564" lon="14.036122889799582"><ele>133.75</ele><time>2026-04-18T07:52:28Z</time></trkpt><trkpt lat="42.354872608221186" lon="14.035960023840415"><ele>134.0</ele><time>2026-04-18T07:52:29Z</time></trkpt><trkpt lat="42.354870476333915" lon="14.035794861570233"><ele>134.75</ele><time>2026-04-18T07:52:30Z</time></trkpt><trkpt lat="42.35487264652811" lon="14.035614884529695"><ele>135.5</ele><time>2026-04-18T07:52:31Z</time></trkpt><trkpt lat="42.35486873260115" lon="14.03542742828594"><ele>136.25</ele><time>2026-04-18T07:52:32Z</time></trkpt><trkpt lat="42.35486550809681" lon="14.035237808352669"><ele>137.0</ele><time>2026-04-18T07:52:33Z</time></trkpt><trkpt lat="42.35486602577154" lon="14.035046317394857"><ele>137.25</ele><time>2026-04-18T07:52:34Z</time></trkpt><trkpt lat="42.35486571528601" lon="14.034851950459368"><ele>137.5</ele><time>2026-04-18T07:52:35Z</time></trkpt><trkpt lat="42.35486001767085" lon="14.034656047224995"><ele>137.75</ele><time>2026-04-18T07:52:36Z</time></trkpt><trkpt lat="42.35485621822972" lon="14.03446049027082"><ele>138.0</ele><time>2026-04-18T07:52:37Z</time></trkpt><trkpt lat="42.354854037017724" lon="14.034269122873205"><ele>138.0</ele><time>2026-04-18T07:52:38Z</time></trkpt><trkpt lat="42.3548505527997" lon="14.03407266474716"><ele>138.0</ele><time>2026-04-18T07:52:39Z</time></trkpt><trkpt lat="42.35484800583198" lon="14.033868493938527"><ele>138.0</ele><time>2026-04-18T07:52:40Z</time></trkpt><trkpt lat="42.35484475470453" lon="14.033665108180193"><ele>138.0</ele><time>2026-04-18T07:52:41Z</time></trkpt><trkpt lat="42.354841356807846" lon="14.033486236620668"><ele>138.0</ele><time>2026-04-18T07:52:42Z</time></trkpt><trkpt lat="42.354841976681556" lon="14.033314581905172"><ele>138.0</ele><time>2026-04-18T07:52:43Z</time></trkpt><trkpt lat="42.354843218018615" lon="14.033150230977345"><ele>138.0</ele><time>2026-04-18T07:52:44Z</time></trkpt><trkpt lat="42.354839518929474" lon="14.032976336863218"><ele>138.0</ele><time>2026-04-18T07:52:45Z</time></trkpt><trkpt lat="42.354836080419894" lon="14.032805832237985"><ele>138.25</ele><time>2026-04-18T07:52:46Z</time></trkpt><trkpt lat="42.35483525592151" lon="14.032623553232094"><ele>138.5</ele><time>2026-04-18T07:52:47Z</time></trkpt><trkpt lat="42.35483494753455" lon="14.032446697187552"><ele>138.75</ele><time>2026-04-18T07:52:48Z</time></trkpt><trkpt lat="42.354835679148664" lon="14.032261619032031"><ele>139.0</ele><time>2026-04-18T07:52:49Z</time></trkpt><trkpt lat="42.35483624368992" lon="14.032068714134194"><ele>139.0</ele><time>2026-04-18T07:52:50Z</time></trkpt><trkpt lat="42.354833502794065" lon="14.0318781811049"><ele>139.0</ele><time>2026-04-18T07:52:51Z</time></trkpt><trkpt lat="42.35482641993511" lon="14.031690786538125"><ele>139.0</ele><time>2026-04-18T07:52:52Z</time></trkpt><trkpt lat="42.354820343708006" lon="14.03151303602717"><ele>139.0</ele><time>2026-04-18T07:52:53Z</time></trkpt><trkpt lat="42.354821384554185" lon="14.03134777284138"><ele>139.0</ele><time>2026-04-18T07:52:54Z</time></trkpt><trkpt lat="42.35482454295283" lon="14.031196106215797"><ele>139.0</ele><time>2026-04-18T07:52:55Z</time></trkpt><trkpt lat="42.35482641501374" lon="14.031033533992552"><ele>139.0</ele><time>2026-04-18T07:52:56Z</time></trkpt><trkpt lat="42.35482130845593" lon="14.030860746258547"><ele>139.0</ele><time>2026-04-18T07:52:57Z</time></trkpt><trkpt lat="42.35481695325493" lon="14.030692665400041"><ele>139.5</ele><time>2026-04-18T07:52:58Z</time></trkpt><trkpt lat="42.35481870541635" lon="14.030519141241529"><ele>140.0</ele><time>2026-04-18T07:52:59Z</time></trkpt><trkpt lat="42.354814799177966" lon="14.030345719204277"><ele>140.5</ele><time>2026-04-18T07:53:00Z</time></trkpt><trkpt lat="42.35481345815815" lon="14.03016815881802"><ele>141.0</ele><time>2026-04-18T07:53:01Z</time></trkpt><trkpt lat="42.35480621689578" lon="14.029995297840019"><ele>142.0</ele><time>2026-04-18T07:53:02Z</time></trkpt><trkpt lat="42.35480748593107" lon="14.029818280332439"><ele>143.0</ele><time>2026-04-18T07:53:03Z</time></trkpt><trkpt lat="42.35481057223568" lon="14.02964097172648"><ele>144.0</ele><time>2026-04-18T07:53:03.999Z</time></trkpt><trkpt lat="42.3548110009946" lon="14.029467973090982"><ele>145.0</ele><time>2026-04-18T07:53:04.999Z</time></trkpt><trkpt lat="42.35480738189007" lon="14.029289638567905"><ele>144.75</ele><time>2026-04-18T07:53:05.999Z</time></trkpt><trkpt lat="42.35480486681572" lon="14.029105734113518"><ele>144.5</ele><time>2026-04-18T07:53:06.999Z</time></trkpt><trkpt lat="42.35480232445535" lon="14.028922523976714"><ele>144.25</ele><time>2026-04-18T07:53:07.999Z</time></trkpt><trkpt lat="42.35480228372237" lon="14.02873959033746"><ele>144.0</ele><time>2026-04-18T07:53:08.999Z</time></trkpt><trkpt lat="42.354802909030234" lon="14.028555246939293"><ele>144.0</ele><time>2026-04-18T07:53:09.999Z</time></trkpt><trkpt lat="42.35480276085764" lon="14.028370449382347"><ele>144.0</ele><time>2026-04-18T07:53:10.999Z</time></trkpt><trkpt lat="42.35480027568275" lon="14.028192163118614"><ele>144.0</ele><time>2026-04-18T07:53:11.999Z</time></trkpt><trkpt lat="42.35479574244725" lon="14.028014413686297"><ele>144.0</ele><time>2026-04-18T07:53:12.999Z</time></trkpt><trkpt lat="42.354791957897554" lon="14.027846431694881"><ele>144.25</ele><time>2026-04-18T07:53:13.999Z</time></trkpt><trkpt lat="42.35479103713178" lon="14.02768730963659"><ele>144.5</ele><time>2026-04-18T07:53:14.999Z</time></trkpt><trkpt lat="42.354792029430264" lon="14.027521697275139"><ele>144.75</ele><time>2026-04-18T07:53:15.999Z</time></trkpt><trkpt lat="42.354789072496274" lon="14.027352983373504"><ele>145.0</ele><time>2026-04-18T07:53:16.999Z</time></trkpt><trkpt lat="42.35478443265232" lon="14.027184210077795"><ele>145.4</ele><time>2026-04-18T07:53:17.999Z</time></trkpt><trkpt lat="42.35477933333168" lon="14.027022511633339"><ele>145.8</ele><time>2026-04-18T07:53:18.999Z</time></trkpt><trkpt lat="42.354775835449615" lon="14.026873343771475"><ele>146.2</ele><time>2026-04-18T07:53:19.999Z</time></trkpt><trkpt lat="42.35477657510069" lon="14.026738826598843"><ele>146.6</ele><time>2026-04-18T07:53:20.999Z</time></trkpt><trkpt lat="42.35477332054442" lon="14.026640275287537"><ele>147.0</ele><time>2026-04-18T07:53:21.999Z</time></trkpt><trkpt lat="42.35477367189293" lon="14.026548305139059"><ele>147.0</ele><time>2026-04-18T07:53:22.999Z</time></trkpt><trkpt lat="42.35477564847393" lon="14.026459529204718"><ele>147.0</ele><time>2026-04-18T07:53:23.999Z</time></trkpt><trkpt lat="42.35477239185803" lon="14.02637351305571"><ele>147.0</ele><time>2026-04-18T07:53:24.999Z</time></trkpt><trkpt lat="42.35477674531702" lon="14.026274869885649"><ele>147.0</ele><time>2026-04-18T07:53:25.999Z</time></trkpt><trkpt lat="42.354771988472116" lon="14.026167824771548"><ele>147.0</ele><time>2026-04-18T07:53:26.999Z</time></trkpt><trkpt lat="42.35477235336031" lon="14.026054112424085"><ele>147.0</ele><time>2026-04-18T07:53:27.999Z</time></trkpt><trkpt lat="42.35477031551484" lon="14.025943119415324"><ele>147.0</ele><time>2026-04-18T07:53:28.999Z</time></trkpt><trkpt lat="42.354767738289354" lon="14.025834546901676"><ele>147.33333333333334</ele><time>2026-04-18T07:53:29.999Z</time></trkpt><trkpt lat="42.35476725397965" lon="14.02572592020355"><ele>147.66666666666666</ele><time>2026-04-18T07:53:30.999Z</time></trkpt><trkpt lat="42.35476562834587" lon="14.025633098895455"><ele>148.0</ele><time>2026-04-18T07:53:31.999Z</time></trkpt><trkpt lat="42.35476686697941" lon="14.025459859304505"><ele>148.33333333333331</ele><time>2026-04-18T07:53:33.999Z</time></trkpt><trkpt lat="42.354766625922764" lon="14.025354159187707"><ele>148.66666666666666</ele><time>2026-04-18T07:53:34.999Z</time></trkpt><trkpt lat="42.35476785298529" lon="14.025236425231059"><ele>149.0</ele><time>2026-04-18T07:53:35.999Z</time></trkpt><trkpt lat="42.354767448377544" lon="14.025117402028332"><ele>149.0</ele><time>2026-04-18T07:53:36.999Z</time></trkpt><trkpt lat="42.354789711489495" lon="14.024994468942408"><ele>149.0</ele><time>2026-04-18T07:53:37.999Z</time></trkpt><trkpt lat="42.35479832038411" lon="14.024861874922331"><ele>150.0</ele><time>2026-04-18T07:53:38.999Z</time></trkpt></trkseg><trkseg><trkpt lat="42.35473008660054" lon="14.021934706901988"><ele>154.0</ele><time>2026-04-18T08:07:11.998Z</time></trkpt><trkpt lat="42.354725780542914" lon="14.022038951768561"><ele>154.0</ele><time>2026-04-18T08:07:58.999Z</time></trkpt><trkpt lat="42.35474715572616" lon="14.022119630239418"><ele>154.0</ele><time>2026-04-18T08:08:54.999Z</time></trkpt><trkpt lat="42.354813441084524" lon="14.022158023919886"><ele>154.0</ele><time>2026-04-18T08:08:56.999Z</time></trkpt><trkpt lat="42.35488309689029" lon="14.022119362654438"><ele>154.0</ele><time>2026-04-18T08:08:58.999Z</time></trkpt><trkpt lat="42.354899428551526" lon="14.02201213109248"><ele>154.0</ele><time>2026-04-18T08:09:00.999Z</time></trkpt><trkpt lat="42.35490199755294" lon="14.021870031128348"><ele>154.0</ele><time>2026-04-18T08:09:02.999Z</time></trkpt><trkpt lat="42.35493518240361" lon="14.021761309826859"><ele>154.0</ele><time>2026-04-18T08:09:04.999Z</time></trkpt><trkpt lat="42.35496383496982" lon="14.021677339492356"><ele>154.0</ele><time>2026-04-18T08:09:08.999Z</time></trkpt><trkpt lat="42.35502488682882" lon="14.021529504046796"><ele>154.0</ele><time>2026-04-18T08:09:11.999Z</time></trkpt><trkpt lat="42.35504336307119" lon="14.021424930242251"><ele>154.0</ele><time>2026-04-18T08:09:12.999Z</time></trkpt><trkpt lat="42.35505431909624" lon="14.021304139708658"><ele>154.4</ele><time>2026-04-18T08:09:13.999Z</time></trkpt><trkpt lat="42.35505542354334" lon="14.021183124534673"><ele>154.8</ele><time>2026-04-18T08:09:14.999Z</time></trkpt><trkpt lat="42.3550608931162" lon="14.021047938339047"><ele>155.2</ele><time>2026-04-18T08:09:15.999Z</time></trkpt><trkpt lat="42.35507965208827" lon="14.02089967973391"><ele>155.6</ele><time>2026-04-18T08:09:16.999Z</time></trkpt><trkpt lat="42.35509533590712" lon="14.020738711487493"><ele>156.0</ele><time>2026-04-18T08:09:17.999Z</time></trkpt><trkpt lat="42.355107117433725" lon="14.020576387045342"><ele>156.0</ele><time>2026-04-18T08:09:18.999Z</time></trkpt><trkpt lat="42.35511719437718" lon="14.02040985722186"><ele>156.0</ele><time>2026-04-18T08:09:19.999Z</time></trkpt><trkpt lat="42.3551281857891" lon="14.020239985716865"><ele>156.0</ele><time>2026-04-18T08:09:20.999Z</time></trkpt><trkpt lat="42.35514073033288" lon="14.020059525559866"><ele>156.0</ele><time>2026-04-18T08:09:21.999Z</time></trkpt><trkpt lat="42.355154657728036" lon="14.019879600853995"><ele>156.75</ele><time>2026-04-18T08:09:22.999Z</time></trkpt><trkpt lat="42.35516707970267" lon="14.01970587603634"><ele>157.5</ele><time>2026-04-18T08:09:23.999Z</time></trkpt><trkpt lat="42.3551826756415" lon="14.019530741778064"><ele>158.25</ele><time>2026-04-18T08:09:24.999Z</time></trkpt><trkpt lat="42.355197343250765" lon="14.019357470129226"><ele>159.0</ele><time>2026-04-18T08:09:25.999Z</time></trkpt><trkpt lat="42.35520890981267" lon="14.019181437614664"><ele>159.75</ele><time>2026-04-18T08:09:26.999Z</time></trkpt><trkpt lat="42.35522280894535" lon="14.019010127458857"><ele>160.5</ele><time>2026-04-18T08:09:27.999Z</time></trkpt><trkpt lat="42.355237144369454" lon="14.01884210034816"><ele>161.25</ele><time>2026-04-18T08:09:28.999Z</time></trkpt><trkpt lat="42.355250965609926" lon="14.01867903745387"><ele>162.0</ele><time>2026-04-18T08:09:29.999Z</time></trkpt><trkpt lat="42.35525785874271" lon="14.018535206474956"><ele>162.0</ele><time>2026-04-18T08:09:30.999Z</time></trkpt><trkpt lat="42.35526549864373" lon="14.01839895494192"><ele>162.0</ele><time>2026-04-18T08:09:31.999Z</time></trkpt><trkpt lat="42.35527982489724" lon="14.018264177097935"><ele>162.0</ele><time>2026-04-18T08:09:32.999Z</time></trkpt><trkpt lat="42.35529468834718" lon="14.0181410244208"><ele>162.0</ele><time>2026-04-18T08:09:33.999Z</time></trkpt><trkpt lat="42.35530547979015" lon="14.017988104067546"><ele>162.0</ele><time>2026-04-18T08:09:34.999Z</time></trkpt><trkpt lat="42.35531794787681" lon="14.017838566536977"><ele>162.75</ele><time>2026-04-18T08:09:35.999Z</time></trkpt><trkpt lat="42.35533570327177" lon="14.017685162078227"><ele>163.5</ele><time>2026-04-18T08:09:36.999Z</time></trkpt><trkpt lat="42.35535495217499" lon="14.017503704413976"><ele>164.25</ele><time>2026-04-18T08:09:37.999Z</time></trkpt><trkpt lat="42.355379168219656" lon="14.01732158523956"><ele>165.0</ele><time>2026-04-18T08:09:38.999Z</time></trkpt><trkpt lat="42.355418757702694" lon="14.01714509429925"><ele>165.25</ele><time>2026-04-18T08:09:39.999Z</time></trkpt><trkpt lat="42.355474102920795" lon="14.01697054977439"><ele>165.5</ele><time>2026-04-18T08:09:40.999Z</time></trkpt><trkpt lat="42.35553066206183" lon="14.01680113196132"><ele>165.75</ele><time>2026-04-18T08:09:41.999Z</time></trkpt><trkpt lat="42.355587550625266" lon="14.016627293751764"><ele>166.0</ele><time>2026-04-18T08:09:42.999Z</time></trkpt><trkpt lat="42.35564144150064" lon="14.016458622698543"><ele>166.5</ele><time>2026-04-18T08:09:43.999Z</time></trkpt><trkpt lat="42.35570123232825" lon="14.016281372521101"><ele>167.0</ele><time>2026-04-18T08:09:44.999Z</time></trkpt><trkpt lat="42.3557535867952" lon="14.016107704019557"><ele>167.5</ele><time>2026-04-18T08:09:45.999Z</time></trkpt><trkpt lat="42.35580466688547" lon="14.015932849553046"><ele>168.0</ele><time>2026-04-18T08:09:46.999Z</time></trkpt><trkpt lat="42.35586016960099" lon="14.015757325711212"><ele>168.75</ele><time>2026-04-18T08:09:47.999Z</time></trkpt><trkpt lat="42.35592304706651" lon="14.015585633003687"><ele>169.5</ele><time>2026-04-18T08:09:48.999Z</time></trkpt><trkpt lat="42.35598528563079" lon="14.015413954328995"><ele>170.25</ele><time>2026-04-18T08:09:49.999Z</time></trkpt><trkpt lat="42.35604204682744" lon="14.015242450711236"><ele>171.0</ele><time>2026-04-18T08:09:50.999Z</time></trkpt><trkpt lat="42.35609063917117" lon="14.015052836232657"><ele>171.0</ele><time>2026-04-18T08:09:51.999Z</time></trkpt><trkpt lat="42.356153969584696" lon="14.014832729934593"><ele>171.0</ele><time>2026-04-18T08:09:52.999Z</time></trkpt><trkpt lat="42.35622443930435" lon="14.014613445059036"><ele>171.0</ele><time>2026-04-18T08:09:53.999Z</time></trkpt><trkpt lat="42.35629478541257" lon="14.014392128388792"><ele>171.0</ele><time>2026-04-18T08:09:54.999Z</time></trkpt><trkpt lat="42.356363275838056" lon="14.014178478204153"><ele>171.0</ele><time>2026-04-18T08:09:55.999Z</time></trkpt><trkpt lat="42.356432017389636" lon="14.013964881499046"><ele>171.0</ele><time>2026-04-18T08:09:56.999Z</time></trkpt><trkpt lat="42.356500711134316" lon="14.013746032629168"><ele>169.0</ele><time>2026-04-18T08:09:57.999Z</time></trkpt><trkpt lat="42.3565697054058" lon="14.013533002766264"><ele>167.0</ele><time>2026-04-18T08:09:58.999Z</time></trkpt><trkpt lat="42.356630194760285" lon="14.013327371938676"><ele>165.0</ele><time>2026-04-18T08:09:59.999Z</time></trkpt><trkpt lat="42.35669233505704" lon="14.01312555808097"><ele>164.33333333333334</ele><time>2026-04-18T08:10:00.999Z</time></trkpt><trkpt lat="42.35675998866522" lon="14.012930052420984"><ele>163.66666666666669</ele><time>2026-04-18T08:10:01.999Z</time></trkpt><trkpt lat="42.35682093063555" lon="14.012740019718647"><ele>163.0</ele><time>2026-04-18T08:10:02.999Z</time></trkpt><trkpt lat="42.35688288185183" lon="14.012551378088109"><ele>164.66666666666669</ele><time>2026-04-18T08:10:03.999Z</time></trkpt><trkpt lat="42.35694420463996" lon="14.01235635969187"><ele>166.33333333333334</ele><time>2026-04-18T08:10:04.999Z</time></trkpt><trkpt lat="42.357005617349635" lon="14.012165400098235"><ele>168.0</ele><time>2026-04-18T08:10:05.999Z</time></trkpt><trkpt lat="42.357065677262625" lon="14.011980897818567"><ele>168.0</ele><time>2026-04-18T08:10:06.999Z</time></trkpt><trkpt lat="42.35712094837841" lon="14.011802963633864"><ele>168.0</ele><time>2026-04-18T08:10:07.999Z</time></trkpt><trkpt lat="42.357179863189195" lon="14.011620394604854"><ele>168.0</ele><time>2026-04-18T08:10:08.999Z</time></trkpt><trkpt lat="42.35723780574481" lon="14.01144761662419"><ele>168.0</ele><time>2026-04-18T08:10:09.999Z</time></trkpt><trkpt lat="42.3572912924839" lon="14.011272420012775"><ele>168.75</ele><time>2026-04-18T08:10:10.999Z</time></trkpt><trkpt lat="42.35734685632134" lon="14.011097863977675"><ele>169.5</ele><time>2026-04-18T08:10:11.999Z</time></trkpt><trkpt lat="42.357404113682726" lon="14.01093070327794"><ele>170.25</ele><time>2026-04-18T08:10:12.999Z</time></trkpt><trkpt lat="42.35745458534224" lon="14.01076096061814"><ele>171.0</ele><time>2026-04-18T08:10:13.999Z</time></trkpt><trkpt lat="42.357509290795356" lon="14.010576578464484"><ele>172.0</ele><time>2026-04-18T08:10:14.999Z</time></trkpt><trkpt lat="42.35757203626361" lon="14.010387532364508"><ele>173.0</ele><time>2026-04-18T08:10:15.999Z</time></trkpt><trkpt lat="42.35763767118943" lon="14.010195746167643"><ele>174.0</ele><time>2026-04-18T08:10:16.999Z</time></trkpt><trkpt lat="42.35770135726242" lon="14.009997252654523"><ele>174.66666666666666</ele><time>2026-04-18T08:10:17.999Z</time></trkpt><trkpt lat="42.35776327501413" lon="14.009807036822847"><ele>175.33333333333331</ele><time>2026-04-18T08:10:18.999Z</time></trkpt><trkpt lat="42.3578256970367" lon="14.009623463786967"><ele>176.0</ele><time>2026-04-18T08:10:19.999Z</time></trkpt><trkpt lat="42.35788618215494" lon="14.009432855011445"><ele>176.0</ele><time>2026-04-18T08:10:20.999Z</time></trkpt><trkpt lat="42.35794864255108" lon="14.009237096744778"><ele>176.0</ele><time>2026-04-18T08:10:21.999Z</time></trkpt><trkpt lat="42.35800849679686" lon="14.009047441139591"><ele>176.0</ele><time>2026-04-18T08:10:22.999Z</time></trkpt><trkpt lat="42.35806392102738" lon="14.008876484638508"><ele>176.0</ele><time>2026-04-18T08:10:23.999Z</time></trkpt><trkpt lat="42.358113625626174" lon="14.008718765159982"><ele>176.0</ele><time>2026-04-18T08:10:24.999Z</time></trkpt><trkpt lat="42.35815839940351" lon="14.008572234265484"><ele>176.0</ele><time>2026-04-18T08:10:25.999Z</time></trkpt><trkpt lat="42.35819611172759" lon="14.008393679244582"><ele>176.0</ele><time>2026-04-18T08:10:26.999Z</time></trkpt><trkpt lat="42.35820985753035" lon="14.008184640903918"><ele>176.0</ele><time>2026-04-18T08:10:27.999Z</time></trkpt><trkpt lat="42.35819546673711" lon="14.007959572451929"><ele>176.0</ele><time>2026-04-18T08:10:28.999Z</time></trkpt><trkpt lat="42.35817066923234" lon="14.007739319461848"><ele>176.0</ele><time>2026-04-18T08:10:29.999Z</time></trkpt><trkpt lat="42.358146645885554" lon="14.007533258859734"><ele>176.0</ele><time>2026-04-18T08:10:30.999Z</time></trkpt><trkpt lat="42.35812293226736" lon="14.00731629183909"><ele>176.0</ele><time>2026-04-18T08:10:31.999Z</time></trkpt><trkpt lat="42.35810101612888" lon="14.00710123077994"><ele>176.0</ele><time>2026-04-18T08:10:32.999Z</time></trkpt><trkpt lat="42.358080842715964" lon="14.006881424513766"><ele>176.0</ele><time>2026-04-18T08:10:33.999Z</time></trkpt><trkpt lat="42.358063667752546" lon="14.006654853586129"><ele>176.66666666666666</ele><time>2026-04-18T08:10:34.999Z</time></trkpt><trkpt lat="42.3580441824212" lon="14.006411876506096"><ele>177.33333333333334</ele><time>2026-04-18T08:10:35.999Z</time></trkpt><trkpt lat="42.35802435331907" lon="14.006155665588732"><ele>178.0</ele><time>2026-04-18T08:10:36.999Z</time></trkpt><trkpt lat="42.35799983973936" lon="14.00590294244069"><ele>179.66666666666669</ele><time>2026-04-18T08:10:37.999Z</time></trkpt><trkpt lat="42.357979929638326" lon="14.005650586232038"><ele>181.33333333333334</ele><time>2026-04-18T08:10:38.999Z</time></trkpt><trkpt lat="42.35795631315851" lon="14.005399512121391"><ele>183.0</ele><time>2026-04-18T08:10:39.999Z</time></trkpt><trkpt lat="42.35793243113268" lon="14.005154265064933"><ele>183.33333333333334</ele><time>2026-04-18T08:10:40.999Z</time></trkpt><trkpt lat="42.357905769527655" lon="14.004910157412569"><ele>183.66666666666669</ele><time>2026-04-18T08:10:41.999Z</time></trkpt><trkpt lat="42.35787612922" lon="14.004667377309989"><ele>184.0</ele><time>2026-04-18T08:10:42.999Z</time></trkpt><trkpt lat="42.357851494866786" lon="14.004414718165622"><ele>184.33333333333334</ele><time>2026-04-18T08:10:43.999Z</time></trkpt><trkpt lat="42.35782928984115" lon="14.00416003474194"><ele>184.66666666666666</ele><time>2026-04-18T08:10:44.999Z</time></trkpt><trkpt lat="42.35781131236282" lon="14.003908081043964"><ele>185.0</ele><time>2026-04-18T08:10:45.999Z</time></trkpt><trkpt lat="42.35778892033265" lon="14.003659660407255"><ele>185.0</ele><time>2026-04-18T08:10:46.999Z</time></trkpt><trkpt lat="42.35775979023756" lon="14.003412556570959"><ele>185.0</ele><time>2026-04-18T08:10:47.999Z</time></trkpt><trkpt lat="42.357728886403365" lon="14.003155043908606"><ele>185.0</ele><time>2026-04-18T08:10:48.999Z</time></trkpt><trkpt lat="42.357706264007795" lon="14.002907649399058"><ele>186.0</ele><time>2026-04-18T08:10:49.999Z</time></trkpt><trkpt lat="42.35768873279063" lon="14.002658473730321"><ele>187.0</ele><time>2026-04-18T08:10:50.999Z</time></trkpt><trkpt lat="42.35765192210271" lon="14.002383924517714"><ele>188.0</ele><time>2026-04-18T08:10:51.999Z</time></trkpt><trkpt lat="42.357626935934036" lon="14.002122324014884"><ele>188.33333333333331</ele><time>2026-04-18T08:10:52.999Z</time></trkpt><trkpt lat="42.357605914142496" lon="14.001870097108432"><ele>188.66666666666666</ele><time>2026-04-18T08:10:53.999Z</time></trkpt><trkpt lat="42.35757850081193" lon="14.001610201883063"><ele>189.0</ele><time>2026-04-18T08:10:54.999Z</time></trkpt><trkpt lat="42.357551369673324" lon="14.001329341162934"><ele>189.0</ele><time>2026-04-18T08:10:55.999Z</time></trkpt><trkpt lat="42.35752826626636" lon="14.001052728574244"><ele>189.0</ele><time>2026-04-18T08:10:56.999Z</time></trkpt><trkpt lat="42.357505651949374" lon="14.000783566392421"><ele>189.0</ele><time>2026-04-18T08:10:57.999Z</time></trkpt><trkpt lat="42.357480266252615" lon="14.00051735053484"><ele>189.0</ele><time>2026-04-18T08:10:58.999Z</time></trkpt><trkpt lat="42.3574533401472" lon="14.000256688150817"><ele>189.0</ele><time>2026-04-18T08:10:59.999Z</time></trkpt><trkpt lat="42.357430201117715" lon="13.999994520429913"><ele>189.0</ele><time>2026-04-18T08:11:00.999Z</time></trkpt><trkpt lat="42.35741450633209" lon="13.999746745091377"><ele>189.0</ele><time>2026-04-18T08:11:01.999Z</time></trkpt><trkpt lat="42.35738827273912" lon="13.999485871155974"><ele>189.0</ele><time>2026-04-18T08:11:02.999Z</time></trkpt><trkpt lat="42.35736030843163" lon="13.999230641690007"><ele>189.0</ele><time>2026-04-18T08:11:03.999Z</time></trkpt><trkpt lat="42.35733118107302" lon="13.998985950514879"><ele>188.66666666666666</ele><time>2026-04-18T08:11:04.999Z</time></trkpt><trkpt lat="42.35730640513826" lon="13.998745560426215"><ele>188.33333333333331</ele><time>2026-04-18T08:11:05.999Z</time></trkpt><trkpt lat="42.35728478618343" lon="13.998501310359417"><ele>188.0</ele><time>2026-04-18T08:11:06.999Z</time></trkpt><trkpt lat="42.357259718432196" lon="13.998238805965226"><ele>188.0</ele><time>2026-04-18T08:11:07.999Z</time></trkpt><trkpt lat="42.357235197945705" lon="13.997965770626303"><ele>188.0</ele><time>2026-04-18T08:11:08.999Z</time></trkpt><trkpt lat="42.35720922860197" lon="13.997696113840773"><ele>188.0</ele><time>2026-04-18T08:11:09.999Z</time></trkpt><trkpt lat="42.35718222859015" lon="13.997438322823427"><ele>189.66666666666666</ele><time>2026-04-18T08:11:10.999Z</time></trkpt><trkpt lat="42.35715776337004" lon="13.997181268113842"><ele>191.33333333333331</ele><time>2026-04-18T08:11:11.999Z</time></trkpt><trkpt lat="42.35713242539242" lon="13.996931444450372"><ele>193.0</ele><time>2026-04-18T08:11:12.999Z</time></trkpt><trkpt lat="42.357108522924584" lon="13.99668462709481"><ele>193.0</ele><time>2026-04-18T08:11:13.999Z</time></trkpt><trkpt lat="42.357084605577235" lon="13.996439926924927"><ele>193.0</ele><time>2026-04-18T08:11:14.999Z</time></trkpt><trkpt lat="42.35705550454709" lon="13.996203506947323"><ele>193.0</ele><time>2026-04-18T08:11:15.999Z</time></trkpt><trkpt lat="42.35703045770603" lon="13.995950725040153"><ele>193.66666666666666</ele><time>2026-04-18T08:11:16.999Z</time></trkpt><trkpt lat="42.35700958987584" lon="13.99569592320004"><ele>194.33333333333331</ele><time>2026-04-18T08:11:17.999Z</time></trkpt><trkpt lat="42.35698964323707" lon="13.995442222129038"><ele>195.0</ele><time>2026-04-18T08:11:18.999Z</time></trkpt><trkpt lat="42.35696353130618" lon="13.995194168437575"><ele>195.0</ele><time>2026-04-18T08:11:19.999Z</time></trkpt><trkpt lat="42.35694602360139" lon="13.99494695782418"><ele>195.0</ele><time>2026-04-18T08:11:20.999Z</time></trkpt><trkpt lat="42.35693009150327" lon="13.994698812722122"><ele>195.0</ele><time>2026-04-18T08:11:21.999Z</time></trkpt><trkpt lat="42.35691931873245" lon="13.994450522645083"><ele>195.0</ele><time>2026-04-18T08:11:22.999Z</time></trkpt><trkpt lat="42.35693080039841" lon="13.994196205120584"><ele>195.0</ele><time>2026-04-18T08:11:23.999Z</time></trkpt><trkpt lat="42.356954413864386" lon="13.99394322967518"><ele>195.0</ele><time>2026-04-18T08:11:24.999Z</time></trkpt><trkpt lat="42.35698333118906" lon="13.993686648465227"><ele>195.33333333333331</ele><time>2026-04-18T08:11:25.999Z</time></trkpt><trkpt lat="42.3570117044311" lon="13.993438617327998"><ele>195.66666666666666</ele><time>2026-04-18T08:11:26.999Z</time></trkpt><trkpt lat="42.357040610448124" lon="13.993195424177157"><ele>196.0</ele><time>2026-04-18T08:11:27.999Z</time></trkpt><trkpt lat="42.35707359240621" lon="13.992952103146472"><ele>196.33333333333331</ele><time>2026-04-18T08:11:28.999Z</time></trkpt><trkpt lat="42.35710798460711" lon="13.992704777179187"><ele>196.66666666666669</ele><time>2026-04-18T08:11:29.999Z</time></trkpt><trkpt lat="42.357146150358545" lon="13.992452284140008"><ele>197.0</ele><time>2026-04-18T08:11:30.999Z</time></trkpt><trkpt lat="42.35718239758401" lon="13.992201990268956"><ele>196.33333333333334</ele><time>2026-04-18T08:11:31.999Z</time></trkpt><trkpt lat="42.35722827331099" lon="13.9919575163816"><ele>195.66666666666669</ele><time>2026-04-18T08:11:32.999Z</time></trkpt><trkpt lat="42.35728964238402" lon="13.991709387327772"><ele>195.0</ele><time>2026-04-18T08:11:33.999Z</time></trkpt><trkpt lat="42.357358620369546" lon="13.991463974970713"><ele>193.0</ele><time>2026-04-18T08:11:34.999Z</time></trkpt><trkpt lat="42.3574348509315" lon="13.99122379076521"><ele>191.0</ele><time>2026-04-18T08:11:35.999Z</time></trkpt><trkpt lat="42.35751107757608" lon="13.990988289517352"><ele>189.0</ele><time>2026-04-18T08:11:36.999Z</time></trkpt><trkpt lat="42.35758906393759" lon="13.99075573732279"><ele>186.33333333333334</ele><time>2026-04-18T08:11:37.999Z</time></trkpt><trkpt lat="42.35766163786743" lon="13.990525690963736"><ele>183.66666666666669</ele><time>2026-04-18T08:11:38.999Z</time></trkpt><trkpt lat="42.357732626456844" lon="13.990301636649336"><ele>181.0</ele><time>2026-04-18T08:11:39.999Z</time></trkpt><trkpt lat="42.35780551463065" lon="13.990072062088508"><ele>180.0</ele><time>2026-04-18T08:11:40.999Z</time></trkpt><trkpt lat="42.357877662863224" lon="13.989841543737137"><ele>179.0</ele><time>2026-04-18T08:11:41.999Z</time></trkpt><trkpt lat="42.357949149292445" lon="13.989599647897942"><ele>178.0</ele><time>2026-04-18T08:11:42.999Z</time></trkpt><trkpt lat="42.35800713873654" lon="13.989352113108028"><ele>183.33333333333334</ele><time>2026-04-18T08:11:43.999Z</time></trkpt><trkpt lat="42.35804578228585" lon="13.989096293123369"><ele>188.66666666666669</ele><time>2026-04-18T08:11:44.999Z</time></trkpt><trkpt lat="42.35806857925304" lon="13.988834276351295"><ele>194.0</ele><time>2026-04-18T08:11:45.999Z</time></trkpt><trkpt lat="42.35807973925887" lon="13.988574100542989"><ele>194.66666666666669</ele><time>2026-04-18T08:11:46.999Z</time></trkpt><trkpt lat="42.35808856074951" lon="13.988335362742621"><ele>195.33333333333331</ele><time>2026-04-18T08:11:47.999Z</time></trkpt><trkpt lat="42.358104319919356" lon="13.988093193230625"><ele>196.0</ele><time>2026-04-18T08:11:48.999Z</time></trkpt><trkpt lat="42.35811899388512" lon="13.987845890795613"><ele>196.0</ele><time>2026-04-18T08:11:49.999Z</time></trkpt><trkpt lat="42.3581290594174" lon="13.98759075958798"><ele>196.0</ele><time>2026-04-18T08:11:50.999Z</time></trkpt><trkpt lat="42.35813117339676" lon="13.987335332937725"><ele>196.0</ele><time>2026-04-18T08:11:51.999Z</time></trkpt><trkpt lat="42.3581272774543" lon="13.987081227596356"><ele>197.33333333333331</ele><time>2026-04-18T08:11:52.999Z</time></trkpt><trkpt lat="42.35811554311938" lon="13.986833136389881"><ele>198.66666666666669</ele><time>2026-04-18T08:11:53.999Z</time></trkpt><trkpt lat="42.3580962831375" lon="13.986586787894687"><ele>200.0</ele><time>2026-04-18T08:11:54.999Z</time></trkpt><trkpt lat="42.358069859240594" lon="13.986345936212603"><ele>200.66666666666669</ele><time>2026-04-18T08:11:55.999Z</time></trkpt><trkpt lat="42.35803882176256" lon="13.986100724637074"><ele>201.33333333333331</ele><time>2026-04-18T08:11:56.999Z</time></trkpt><trkpt lat="42.35800380322552" lon="13.985853824455093"><ele>202.0</ele><time>2026-04-18T08:11:57.999Z</time></trkpt><trkpt lat="42.35796527498296" lon="13.985604400077456"><ele>199.66666666666666</ele><time>2026-04-18T08:11:58.999Z</time></trkpt><trkpt lat="42.35793361255257" lon="13.985359173985287"><ele>197.33333333333331</ele><time>2026-04-18T08:11:59.999Z</time></trkpt><trkpt lat="42.35790415108724" lon="13.98510941285671"><ele>195.0</ele><time>2026-04-18T08:12:00.999Z</time></trkpt><trkpt lat="42.35786942740303" lon="13.984862615866051"><ele>195.0</ele><time>2026-04-18T08:12:01.999Z</time></trkpt><trkpt lat="42.35783459244478" lon="13.984613154910507"><ele>195.0</ele><time>2026-04-18T08:12:02.999Z</time></trkpt><trkpt lat="42.35780009058275" lon="13.984366569640155"><ele>195.0</ele><time>2026-04-18T08:12:03.999Z</time></trkpt><trkpt lat="42.35776372603472" lon="13.984118790684409"><ele>197.0</ele><time>2026-04-18T08:12:04.999Z</time></trkpt><trkpt lat="42.35772648130101" lon="13.983861108255963"><ele>199.0</ele><time>2026-04-18T08:12:05.999Z</time></trkpt><trkpt lat="42.35769041272132" lon="13.983593307866213"><ele>201.0</ele><time>2026-04-18T08:12:06.999Z</time></trkpt><trkpt lat="42.357652698532895" lon="13.983332347863005"><ele>202.66666666666669</ele><time>2026-04-18T08:12:07.999Z</time></trkpt><trkpt lat="42.35760420029435" lon="13.983083166635344"><ele>204.33333333333334</ele><time>2026-04-18T08:12:08.999Z</time></trkpt><trkpt lat="42.3575442688026" lon="13.982838296878462"><ele>206.0</ele><time>2026-04-18T08:12:09.999Z</time></trkpt><trkpt lat="42.35747469637089" lon="13.98260184639769"><ele>206.0</ele><time>2026-04-18T08:12:10.999Z</time></trkpt><trkpt lat="42.35739863891582" lon="13.98236743644449"><ele>206.0</ele><time>2026-04-18T08:12:11.999Z</time></trkpt><trkpt lat="42.357311058923216" lon="13.982134984215294"><ele>206.0</ele><time>2026-04-18T08:12:12.999Z</time></trkpt><trkpt lat="42.35721103811656" lon="13.981902975630312"><ele>206.66666666666669</ele><time>2026-04-18T08:12:13.999Z</time></trkpt><trkpt lat="42.35710284303207" lon="13.981681659712779"><ele>207.33333333333331</ele><time>2026-04-18T08:12:14.999Z</time></trkpt><trkpt lat="42.356989090496015" lon="13.98146720709992"><ele>208.0</ele><time>2026-04-18T08:12:15.999Z</time></trkpt><trkpt lat="42.35686664401471" lon="13.981250988086224"><ele>208.0</ele><time>2026-04-18T08:12:16.999Z</time></trkpt><trkpt lat="42.356745994503534" lon="13.98102291020974"><ele>208.0</ele><time>2026-04-18T08:12:17.999Z</time></trkpt><trkpt lat="42.35662598691483" lon="13.980792298880614"><ele>208.0</ele><time>2026-04-18T08:12:18.999Z</time></trkpt><trkpt lat="42.356511307872566" lon="13.980577011733036"><ele>206.66666666666666</ele><time>2026-04-18T08:12:19.999Z</time></trkpt><trkpt lat="42.356403945636806" lon="13.98037529065532"><ele>205.33333333333331</ele><time>2026-04-18T08:12:20.999Z</time></trkpt><trkpt lat="42.35630664980877" lon="13.98017840211871"><ele>204.0</ele><time>2026-04-18T08:12:21.999Z</time></trkpt><trkpt lat="42.35621384154482" lon="13.979980100485786"><ele>207.33333333333331</ele><time>2026-04-18T08:12:22.999Z</time></trkpt><trkpt lat="42.3561263083142" lon="13.979797912285918"><ele>210.66666666666666</ele><time>2026-04-18T08:12:23.999Z</time></trkpt><trkpt lat="42.35604304545974" lon="13.979628581400139"><ele>214.0</ele><time>2026-04-18T08:12:24.999Z</time></trkpt><trkpt lat="42.355961748019624" lon="13.979461864672789"><ele>214.0</ele><time>2026-04-18T08:12:25.999Z</time></trkpt><trkpt lat="42.355885158562856" lon="13.979293826667917"><ele>214.0</ele><time>2026-04-18T08:12:26.999Z</time></trkpt><trkpt lat="42.35581144104185" lon="13.97912797083644"><ele>214.0</ele><time>2026-04-18T08:12:27.999Z</time></trkpt><trkpt lat="42.35574067972164" lon="13.978977471108113"><ele>214.0</ele><time>2026-04-18T08:12:28.999Z</time></trkpt><trkpt lat="42.355670280320126" lon="13.97882880473249"><ele>213.79999999999998</ele><time>2026-04-18T08:12:29.999Z</time></trkpt><trkpt lat="42.35560299285046" lon="13.978684974217053"><ele>213.59999999999997</ele><time>2026-04-18T08:12:30.999Z</time></trkpt><trkpt lat="42.35554527981224" lon="13.978566669367968"><ele>213.4</ele><time>2026-04-18T08:12:31.999Z</time></trkpt><trkpt lat="42.355515805797495" lon="13.978470723567765"><ele>213.2</ele><time>2026-04-18T08:12:32.999Z</time></trkpt><trkpt lat="42.35551557650876" lon="13.978385465701589"><ele>213.0</ele><time>2026-04-18T08:12:33.999Z</time></trkpt><trkpt lat="42.35560759639137" lon="13.978318149058957"><ele>214.2</ele><time>2026-04-18T08:12:35.999Z</time></trkpt><trkpt lat="42.35567443040383" lon="13.978246482166746"><ele>215.4</ele><time>2026-04-18T08:12:36.999Z</time></trkpt><trkpt lat="42.35576673218153" lon="13.978225859232124"><ele>216.59999999999997</ele><time>2026-04-18T08:12:37.999Z</time></trkpt><trkpt lat="42.355848445190574" lon="13.97818123799639"><ele>217.79999999999998</ele><time>2026-04-18T08:12:38.999Z</time></trkpt><trkpt lat="42.355937646189936" lon="13.978150683716583"><ele>219.0</ele><time>2026-04-18T08:12:39.999Z</time></trkpt><trkpt lat="42.35602981316369" lon="13.978140831412889"><ele>219.0</ele><time>2026-04-18T08:12:40.999Z</time></trkpt><trkpt lat="42.35612608579757" lon="13.978132079414998"><ele>219.0</ele><time>2026-04-18T08:12:41.999Z</time></trkpt><trkpt lat="42.3562124890939" lon="13.978198413713281"><ele>219.0</ele><time>2026-04-18T08:12:42.999Z</time></trkpt><trkpt lat="42.356332833393886" lon="13.978036593597883"><ele>219.0</ele><time>2026-04-18T08:12:43.999Z</time></trkpt><trkpt lat="42.356427226084655" lon="13.97801453217388"><ele>218.66666666666666</ele><time>2026-04-18T08:12:44.999Z</time></trkpt><trkpt lat="42.356518482033486" lon="13.977989857297226"><ele>218.33333333333331</ele><time>2026-04-18T08:12:45.999Z</time></trkpt><trkpt lat="42.356606051195776" lon="13.977965587621547"><ele>218.0</ele><time>2026-04-18T08:12:46.999Z</time></trkpt><trkpt lat="42.356680057564716" lon="13.977951010415019"><ele>217.66666666666666</ele><time>2026-04-18T08:12:47.999Z</time></trkpt><trkpt lat="42.35675019158753" lon="13.977941496298374"><ele>217.33333333333331</ele><time>2026-04-18T08:12:48.999Z</time></trkpt><trkpt lat="42.35681324224993" lon="13.977941664393953"><ele>217.0</ele><time>2026-04-18T08:12:49.999Z</time></trkpt><trkpt lat="42.356891813467875" lon="13.978005350059448"><ele>217.0</ele><time>2026-04-18T08:12:51.999Z</time></trkpt><trkpt lat="42.35696182260463" lon="13.97812105682091"><ele>217.0</ele><time>2026-04-18T08:12:53.999Z</time></trkpt><trkpt lat="42.35704660694401" lon="13.97818294818867"><ele>217.0</ele><time>2026-04-18T08:12:55.999Z</time></trkpt><trkpt lat="42.35713480255472" lon="13.97817965965499"><ele>217.0</ele><time>2026-04-18T08:12:58Z</time></trkpt><trkpt lat="42.35721798871204" lon="13.978157805663068"><ele>217.0</ele><time>2026-04-18T08:13:00Z</time></trkpt><trkpt lat="42.357298174381604" lon="13.978158769546779"><ele>213.99999999999997</ele><time>2026-04-18T08:13:02Z</time></trkpt><trkpt lat="42.35738056522582" lon="13.978160346696102"><ele>211.0</ele><time>2026-04-18T08:13:04Z</time></trkpt><trkpt lat="42.357467615089135" lon="13.978168593013985"><ele>208.0</ele><time>2026-04-18T08:13:06Z</time></trkpt><trkpt lat="42.357577577974524" lon="13.978184804270564"><ele>205.0</ele><time>2026-04-18T08:13:08Z</time></trkpt><trkpt lat="42.3576426611395" lon="13.978193364039305"><ele>201.99999999999997</ele><time>2026-04-18T08:13:09Z</time></trkpt><trkpt lat="42.35770985268253" lon="13.978206067931957"><ele>199.0</ele><time>2026-04-18T08:13:10Z</time></trkpt><trkpt lat="42.35777560122261" lon="13.978218582505368"><ele>198.99999999999997</ele><time>2026-04-18T08:13:11Z</time></trkpt><trkpt lat="42.357844616668054" lon="13.978224779973008"><ele>199.0</ele><time>2026-04-18T08:13:12Z</time></trkpt><trkpt lat="42.35793875379014" lon="13.97822066696201"><ele>199.0</ele><time>2026-04-18T08:13:14Z</time></trkpt><trkpt lat="42.35799969997325" lon="13.97816416453904"><ele>199.0</ele><time>2026-04-18T08:13:16Z</time></trkpt><trkpt lat="42.35804235690964" lon="13.978030022519238"><ele>198.99999999999997</ele><time>2026-04-18T08:13:18Z</time></trkpt><trkpt lat="42.35802348762368" lon="13.977895235262187"><ele>199.0</ele><time>2026-04-18T08:13:20Z</time></trkpt><trkpt lat="42.357989842605626" lon="13.977739505117572"><ele>198.99999999999997</ele><time>2026-04-18T08:13:22Z</time></trkpt><trkpt lat="42.35798409582968" lon="13.97764684373123"><ele>199.0</ele><time>2026-04-18T08:13:23Z</time></trkpt><trkpt lat="42.35798075092348" lon="13.977532112182386"><ele>199.0</ele><time>2026-04-18T08:13:24Z</time></trkpt><trkpt lat="42.357973309973055" lon="13.977419489338677"><ele>199.0</ele><time>2026-04-18T08:13:25Z</time></trkpt><trkpt lat="42.357967834605724" lon="13.977304719874386"><ele>198.99999999999997</ele><time>2026-04-18T08:13:26Z</time></trkpt><trkpt lat="42.35796226615728" lon="13.977174386579561"><ele>199.0</ele><time>2026-04-18T08:13:27Z</time></trkpt><trkpt lat="42.357959531424584" lon="13.977050651813371"><ele>198.83333333333331</ele><time>2026-04-18T08:13:28Z</time></trkpt><trkpt lat="42.35795440346224" lon="13.976935191438399"><ele>198.66666666666666</ele><time>2026-04-18T08:13:29Z</time></trkpt><trkpt lat="42.357951177141" lon="13.976823346774378"><ele>198.5</ele><time>2026-04-18T08:13:30Z</time></trkpt><trkpt lat="42.357945398550015" lon="13.976709370564647"><ele>198.33333333333331</ele><time>2026-04-18T08:13:31Z</time></trkpt><trkpt lat="42.35794733945849" lon="13.976595262135826"><ele>198.16666666666666</ele><time>2026-04-18T08:13:32Z</time></trkpt><trkpt lat="42.35794459451003" lon="13.976469038725618"><ele>198.0</ele><time>2026-04-18T08:13:33Z</time></trkpt><trkpt lat="42.35794739012253" lon="13.97634777780883"><ele>198.0</ele><time>2026-04-18T08:13:34Z</time></trkpt><trkpt lat="42.35795601021874" lon="13.976257459742861"><ele>198.0</ele><time>2026-04-18T08:13:35Z</time></trkpt><trkpt lat="42.35797503694183" lon="13.976168270566399"><ele>198.0</ele><time>2026-04-18T08:13:36Z</time></trkpt><trkpt lat="42.35800026163504" lon="13.976058841077379"><ele>198.0</ele><time>2026-04-18T08:13:37Z</time></trkpt><trkpt lat="42.358026660735156" lon="13.975944484007885"><ele>198.0</ele><time>2026-04-18T08:13:38Z</time></trkpt><trkpt lat="42.3580579677634" lon="13.975824767339178"><ele>198.0</ele><time>2026-04-18T08:13:39Z</time></trkpt><trkpt lat="42.35809286441909" lon="13.975727640359915"><ele>195.66666666666666</ele><time>2026-04-18T08:13:40Z</time></trkpt><trkpt lat="42.358129440420385" lon="13.975653706365508"><ele>193.33333333333334</ele><time>2026-04-18T08:13:41Z</time></trkpt><trkpt lat="42.358174984886105" lon="13.975503395370538"><ele>191.0</ele><time>2026-04-18T08:13:43Z</time></trkpt><trkpt lat="42.3581938703176" lon="13.975412538372701"><ele>188.66666666666669</ele><time>2026-04-18T08:13:44Z</time></trkpt><trkpt lat="42.35821321366505" lon="13.975313458856137"><ele>186.33333333333334</ele><time>2026-04-18T08:13:45Z</time></trkpt><trkpt lat="42.35823607752619" lon="13.975178173918971"><ele>184.0</ele><time>2026-04-18T08:13:47Z</time></trkpt><trkpt lat="42.35826766131375" lon="13.975040850320994"><ele>185.2</ele><time>2026-04-18T08:13:49Z</time></trkpt><trkpt lat="42.35828775100213" lon="13.97493125393015"><ele>186.39999999999998</ele><time>2026-04-18T08:13:51Z</time></trkpt><trkpt lat="42.358278038498575" lon="13.974814791539124"><ele>187.6</ele><time>2026-04-18T08:13:54Z</time></trkpt><trkpt lat="42.35819975047137" lon="13.974666774144136"><ele>188.8</ele><time>2026-04-18T08:13:56Z</time></trkpt><trkpt lat="42.35815924908075" lon="13.974557755981248"><ele>190.0</ele><time>2026-04-18T08:13:57Z</time></trkpt><trkpt lat="42.35811573929931" lon="13.974452839186094"><ele>190.0</ele><time>2026-04-18T08:13:58Z</time></trkpt><trkpt lat="42.35806799692775" lon="13.974349650277546"><ele>190.0</ele><time>2026-04-18T08:13:59Z</time></trkpt><trkpt lat="42.35802189789969" lon="13.974238797276325"><ele>190.0</ele><time>2026-04-18T08:14:00Z</time></trkpt><trkpt lat="42.357988515056206" lon="13.974099623836679"><ele>190.0</ele><time>2026-04-18T08:14:01Z</time></trkpt><trkpt lat="42.35796111140616" lon="13.973986858894724"><ele>190.0</ele><time>2026-04-18T08:14:02Z</time></trkpt><trkpt lat="42.35786715615724" lon="13.973846484727755"><ele>195.0</ele><time>2026-04-18T08:14:04Z</time></trkpt><trkpt lat="42.357796865889206" lon="13.97376361556336"><ele>200.0</ele><time>2026-04-18T08:14:05Z</time></trkpt><trkpt lat="42.35773596313386" lon="13.973688920999015"><ele>205.0</ele><time>2026-04-18T08:14:06Z</time></trkpt><trkpt lat="42.35766859842553" lon="13.973586744737426"><ele>210.0</ele><time>2026-04-18T08:14:07Z</time></trkpt><trkpt lat="42.35758479217121" lon="13.97347847051276"><ele>215.0</ele><time>2026-04-18T08:14:08Z</time></trkpt><trkpt lat="42.357509913472875" lon="13.973380254974943"><ele>214.83333333333334</ele><time>2026-04-18T08:14:09Z</time></trkpt><trkpt lat="42.357437416345" lon="13.973287036957304"><ele>214.66666666666669</ele><time>2026-04-18T08:14:10Z</time></trkpt><trkpt lat="42.35737808121798" lon="13.973198902096499"><ele>214.5</ele><time>2026-04-18T08:14:11Z</time></trkpt><trkpt lat="42.35732654697524" lon="13.97312941278255"><ele>214.33333333333331</ele><time>2026-04-18T08:14:12Z</time></trkpt><trkpt lat="42.35727007095454" lon="13.973051054322267"><ele>214.16666666666666</ele><time>2026-04-18T08:14:13Z</time></trkpt><trkpt lat="42.35721235560967" lon="13.972961520844803"><ele>214.0</ele><time>2026-04-18T08:14:14Z</time></trkpt><trkpt lat="42.35716116904479" lon="13.972878184912842"><ele>216.2</ele><time>2026-04-18T08:14:15Z</time></trkpt><trkpt lat="42.35712948693621" lon="13.97279118820176"><ele>218.39999999999998</ele><time>2026-04-18T08:14:17Z</time></trkpt><trkpt lat="42.35713222096756" lon="13.97263041511045"><ele>220.6</ele><time>2026-04-18T08:14:19Z</time></trkpt><trkpt lat="42.35712397467039" lon="13.972508641993503"><ele>222.8</ele><time>2026-04-18T08:14:20Z</time></trkpt><trkpt lat="42.357106304283" lon="13.972367323839071"><ele>225.0</ele><time>2026-04-18T08:14:20.999Z</time></trkpt><trkpt lat="42.357092457523905" lon="13.972231946960695"><ele>225.0</ele><time>2026-04-18T08:14:21.999Z</time></trkpt><trkpt lat="42.35708333106449" lon="13.972108293285942"><ele>225.0</ele><time>2026-04-18T08:14:22.999Z</time></trkpt><trkpt lat="42.35707167727974" lon="13.972000388995644"><ele>225.0</ele><time>2026-04-18T08:14:23.999Z</time></trkpt><trkpt lat="42.357065893963586" lon="13.971913014343412"><ele>225.0</ele><time>2026-04-18T08:14:24.999Z</time></trkpt><trkpt lat="42.35704851139824" lon="13.971753953877018"><ele>225.0</ele><time>2026-04-18T08:14:26.999Z</time></trkpt><trkpt lat="42.357035717666925" lon="13.97166656087453"><ele>225.0</ele><time>2026-04-18T08:14:27.999Z</time></trkpt><trkpt lat="42.357020408440164" lon="13.971578278225874"><ele>225.0</ele><time>2026-04-18T08:14:28.999Z</time></trkpt><trkpt lat="42.357001708327054" lon="13.971427124658742"><ele>225.0</ele><time>2026-04-18T08:14:30.999Z</time></trkpt><trkpt lat="42.35699411554989" lon="13.971310779970167"><ele>225.0</ele><time>2026-04-18T08:14:32.999Z</time></trkpt><trkpt lat="42.356991749302765" lon="13.971203246039675"><ele>225.0</ele><time>2026-04-18T08:14:34.999Z</time></trkpt><trkpt lat="42.35697217849299" lon="13.971089417203247"><ele>225.0</ele><time>2026-04-18T08:14:36.999Z</time></trkpt><trkpt lat="42.356920832140084" lon="13.97095909109124"><ele>225.0</ele><time>2026-04-18T08:14:38.999Z</time></trkpt><trkpt lat="42.35688277305918" lon="13.970879669719666"><ele>225.0</ele><time>2026-04-18T08:14:39.999Z</time></trkpt><trkpt lat="42.35684141374521" lon="13.970787053381855"><ele>225.0</ele><time>2026-04-18T08:14:40.999Z</time></trkpt><trkpt lat="42.3567994114371" lon="13.970688591931696"><ele>225.0</ele><time>2026-04-18T08:14:41.999Z</time></trkpt><trkpt lat="42.356758423376654" lon="13.970594355863987"><ele>225.0</ele><time>2026-04-18T08:14:42.999Z</time></trkpt><trkpt lat="42.35671854201667" lon="13.970498791241672"><ele>225.0</ele><time>2026-04-18T08:14:43.999Z</time></trkpt><trkpt lat="42.35667111028222" lon="13.970388222284852"><ele>224.33333333333334</ele><time>2026-04-18T08:14:44.999Z</time></trkpt><trkpt lat="42.35663051758839" lon="13.970272505699766"><ele>223.66666666666669</ele><time>2026-04-18T08:14:45.999Z</time></trkpt><trkpt lat="42.35659428946475" lon="13.970171381385047"><ele>223.0</ele><time>2026-04-18T08:14:46.999Z</time></trkpt><trkpt lat="42.35656472409625" lon="13.97005513897258"><ele>222.33333333333334</ele><time>2026-04-18T08:14:47.999Z</time></trkpt><trkpt lat="42.35654681752834" lon="13.969933682698763"><ele>221.66666666666669</ele><time>2026-04-18T08:14:48.999Z</time></trkpt><trkpt lat="42.356530010115506" lon="13.96981910834221"><ele>221.0</ele><time>2026-04-18T08:14:49.999Z</time></trkpt><trkpt lat="42.35653443722553" lon="13.969701317788898"><ele>218.33333333333334</ele><time>2026-04-18T08:14:50.999Z</time></trkpt><trkpt lat="42.35654055341258" lon="13.969581016759026"><ele>215.66666666666669</ele><time>2026-04-18T08:14:51.999Z</time></trkpt><trkpt lat="42.35654820123018" lon="13.969461033801247"><ele>213.0</ele><time>2026-04-18T08:14:52.999Z</time></trkpt><trkpt lat="42.35655707039007" lon="13.969343580996266"><ele>210.33333333333331</ele><time>2026-04-18T08:14:53.999Z</time></trkpt><trkpt lat="42.356571335879956" lon="13.969238880489105"><ele>207.66666666666666</ele><time>2026-04-18T08:14:54.999Z</time></trkpt><trkpt lat="42.35658878166706" lon="13.96913919929003"><ele>205.0</ele><time>2026-04-18T08:14:55.999Z</time></trkpt><trkpt lat="42.356610437124374" lon="13.969047646941421"><ele>203.66666666666666</ele><time>2026-04-18T08:14:56.999Z</time></trkpt><trkpt lat="42.35664167620479" lon="13.968968399250967"><ele>202.33333333333331</ele><time>2026-04-18T08:14:57.999Z</time></trkpt><trkpt lat="42.356690218493966" lon="13.968888591496393"><ele>201.0</ele><time>2026-04-18T08:14:58.999Z</time></trkpt><trkpt lat="42.35674162957507" lon="13.968806386506936"><ele>199.66666666666669</ele><time>2026-04-18T08:14:59.999Z</time></trkpt><trkpt lat="42.35680909595001" lon="13.968694038201276"><ele>198.33333333333334</ele><time>2026-04-18T08:15:01.999Z</time></trkpt><trkpt lat="42.35685321557145" lon="13.968611990912411"><ele>197.0</ele><time>2026-04-18T08:15:04Z</time></trkpt><trkpt lat="42.35688591275156" lon="13.96850462687263"><ele>197.00000000000003</ele><time>2026-04-18T08:15:07Z</time></trkpt><trkpt lat="42.356963930644206" lon="13.9684196863899"><ele>197.0</ele><time>2026-04-18T08:15:09Z</time></trkpt><trkpt lat="42.3570316509175" lon="13.968407565399568"><ele>197.0</ele><time>2026-04-18T08:15:10Z</time></trkpt><trkpt lat="42.35710535964942" lon="13.96841263274213"><ele>197.0</ele><time>2026-04-18T08:15:12Z</time></trkpt><trkpt lat="42.35717051760407" lon="13.968365082056351"><ele>197.00000000000003</ele><time>2026-04-18T08:15:16Z</time></trkpt><trkpt lat="42.35719337290203" lon="13.968284171636041"><ele>197.0</ele><time>2026-04-18T08:15:21Z</time></trkpt><trkpt lat="42.35720870317932" lon="13.96811994237661"><ele>196.50000000000003</ele><time>2026-04-18T08:15:23Z</time></trkpt><trkpt lat="42.35722289790566" lon="13.96801122264099"><ele>196.0</ele><time>2026-04-18T08:15:24Z</time></trkpt><trkpt lat="42.35723750776497" lon="13.967887479505483"><ele>195.5</ele><time>2026-04-18T08:15:25Z</time></trkpt><trkpt lat="42.35725051706338" lon="13.96778872463776"><ele>195.0</ele><time>2026-04-18T08:15:26Z</time></trkpt><trkpt lat="42.357264019113956" lon="13.96769655430048"><ele>194.50000000000003</ele><time>2026-04-18T08:15:27Z</time></trkpt><trkpt lat="42.357273786781235" lon="13.967597591226392"><ele>194.0</ele><time>2026-04-18T08:15:28Z</time></trkpt><trkpt lat="42.35728930775523" lon="13.96750933169003"><ele>194.0</ele><time>2026-04-18T08:15:29Z</time></trkpt><trkpt lat="42.35730422535305" lon="13.967345791842387"><ele>194.0</ele><time>2026-04-18T08:15:31Z</time></trkpt><trkpt lat="42.35730788306631" lon="13.96725496708923"><ele>194.0</ele><time>2026-04-18T08:15:32Z</time></trkpt><trkpt lat="42.35731119912276" lon="13.967098411935078"><ele>194.0</ele><time>2026-04-18T08:15:34Z</time></trkpt><trkpt lat="42.35730837244014" lon="13.96695831980689"><ele>194.0</ele><time>2026-04-18T08:15:36Z</time></trkpt><trkpt lat="42.357304201204116" lon="13.966790372604027"><ele>194.00000000000003</ele><time>2026-04-18T08:15:38Z</time></trkpt><trkpt lat="42.35730695423825" lon="13.966695666426089"><ele>194.0</ele><time>2026-04-18T08:15:39Z</time></trkpt><trkpt lat="42.35731773908522" lon="13.96660482767367"><ele>194.0</ele><time>2026-04-18T08:15:40Z</time></trkpt><trkpt lat="42.357333268593756" lon="13.96650399044968"><ele>194.0</ele><time>2026-04-18T08:15:41Z</time></trkpt><trkpt lat="42.357355129310115" lon="13.966383519039418"><ele>194.00000000000003</ele><time>2026-04-18T08:15:42Z</time></trkpt><trkpt lat="42.35738329212246" lon="13.96625803561403"><ele>194.0</ele><time>2026-04-18T08:15:43Z</time></trkpt><trkpt lat="42.35741615393072" lon="13.966126853051005"><ele>194.79999999999998</ele><time>2026-04-18T08:15:44Z</time></trkpt><trkpt lat="42.357450401631" lon="13.965988879487584"><ele>195.6</ele><time>2026-04-18T08:15:45Z</time></trkpt><trkpt lat="42.357486962226226" lon="13.96586081653884"><ele>196.4</ele><time>2026-04-18T08:15:46Z</time></trkpt><trkpt lat="42.35752457234901" lon="13.965738387950076"><ele>197.2</ele><time>2026-04-18T08:15:47Z</time></trkpt><trkpt lat="42.357573725275735" lon="13.965593729816351"><ele>198.0</ele><time>2026-04-18T08:15:48Z</time></trkpt><trkpt lat="42.35762761653647" lon="13.965451921172688"><ele>199.0</ele><time>2026-04-18T08:15:49Z</time></trkpt><trkpt lat="42.357671348719286" lon="13.965349807681788"><ele>200.0</ele><time>2026-04-18T08:15:50Z</time></trkpt><trkpt lat="42.35770579587278" lon="13.96526463175738"><ele>201.0</ele><time>2026-04-18T08:15:51Z</time></trkpt><trkpt lat="42.357738700229" lon="13.965181657160516"><ele>202.0</ele><time>2026-04-18T08:15:52Z</time></trkpt><trkpt lat="42.35777329064986" lon="13.965105225685377"><ele>203.0</ele><time>2026-04-18T08:15:53Z</time></trkpt><trkpt lat="42.3578083210458" lon="13.96502677693522"><ele>204.0</ele><time>2026-04-18T08:15:54Z</time></trkpt><trkpt lat="42.357902471484465" lon="13.964931138073057"><ele>203.33333333333334</ele><time>2026-04-18T08:15:56Z</time></trkpt><trkpt lat="42.35797085604431" lon="13.964907131410161"><ele>202.66666666666669</ele><time>2026-04-18T08:15:57Z</time></trkpt><trkpt lat="42.35804236499292" lon="13.964886425802495"><ele>202.0</ele><time>2026-04-18T08:15:58Z</time></trkpt><trkpt lat="42.358105541778095" lon="13.964863111124842"><ele>201.33333333333334</ele><time>2026-04-18T08:15:59Z</time></trkpt><trkpt lat="42.358169543917235" lon="13.964828700465862"><ele>200.66666666666669</ele><time>2026-04-18T08:16:00Z</time></trkpt><trkpt lat="42.35826208967401" lon="13.96476895951305"><ele>200.0</ele><time>2026-04-18T08:16:02Z</time></trkpt><trkpt lat="42.35834764414006" lon="13.964692622839422"><ele>200.00000000000003</ele><time>2026-04-18T08:16:04Z</time></trkpt><trkpt lat="42.35842753290181" lon="13.964641764115086"><ele>200.0</ele><time>2026-04-18T08:16:06Z</time></trkpt><trkpt lat="42.35851872816602" lon="13.964564333292534"><ele>200.0</ele><time>2026-04-18T08:16:08Z</time></trkpt><trkpt lat="42.35857248984721" lon="13.964519012404617"><ele>200.0</ele><time>2026-04-18T08:16:09Z</time></trkpt><trkpt lat="42.35863102045368" lon="13.964485689975561"><ele>200.00000000000003</ele><time>2026-04-18T08:16:10Z</time></trkpt><trkpt lat="42.358747336207635" lon="13.964475542399859"><ele>200.0</ele><time>2026-04-18T08:16:12Z</time></trkpt><trkpt lat="42.3588743733967" lon="13.964510827783084"><ele>199.33333333333334</ele><time>2026-04-18T08:16:14Z</time></trkpt><trkpt lat="42.358938291115884" lon="13.964539283293611"><ele>198.66666666666669</ele><time>2026-04-18T08:16:15Z</time></trkpt><trkpt lat="42.359013369953615" lon="13.964562757719396"><ele>198.0</ele><time>2026-04-18T08:16:16Z</time></trkpt><trkpt lat="42.359085725737366" lon="13.964576385491426"><ele>197.33333333333331</ele><time>2026-04-18T08:16:17Z</time></trkpt><trkpt lat="42.35917179486496" lon="13.96458922459558"><ele>196.66666666666666</ele><time>2026-04-18T08:16:19Z</time></trkpt><trkpt lat="42.35923523169854" lon="13.964546334980612"><ele>196.0</ele><time>2026-04-18T08:16:21Z</time></trkpt><trkpt lat="42.359278477712884" lon="13.964381943226075"><ele>196.0</ele><time>2026-04-18T08:16:23Z</time></trkpt><trkpt lat="42.359299357193514" lon="13.964289488651595"><ele>196.0</ele><time>2026-04-18T08:16:24Z</time></trkpt><trkpt lat="42.35932523637501" lon="13.964180977473973"><ele>196.0</ele><time>2026-04-18T08:16:25Z</time></trkpt><trkpt lat="42.35935792145891" lon="13.96406267529241"><ele>196.0</ele><time>2026-04-18T08:16:26Z</time></trkpt><trkpt lat="42.359397334190426" lon="13.963942790058095"><ele>196.0</ele><time>2026-04-18T08:16:27Z</time></trkpt><trkpt lat="42.35945176720068" lon="13.963811527969016"><ele>195.99999999999997</ele><time>2026-04-18T08:16:28Z</time></trkpt><trkpt lat="42.35950319768653" lon="13.963697921547007"><ele>196.0</ele><time>2026-04-18T08:16:29Z</time></trkpt><trkpt lat="42.3595428841395" lon="13.963601695289357"><ele>196.0</ele><time>2026-04-18T08:16:30Z</time></trkpt><trkpt lat="42.35957936100484" lon="13.963520479731523"><ele>196.0</ele><time>2026-04-18T08:16:30.999Z</time></trkpt><trkpt lat="42.35961064957096" lon="13.963444370951347"><ele>195.99999999999997</ele><time>2026-04-18T08:16:31.999Z</time></trkpt><trkpt lat="42.35964662554697" lon="13.963371537542917"><ele>196.0</ele><time>2026-04-18T08:16:32.999Z</time></trkpt><trkpt lat="42.35969643300946" lon="13.963283272785675"><ele>196.16666666666666</ele><time>2026-04-18T08:16:33.999Z</time></trkpt><trkpt lat="42.35973732106966" lon="13.963206945067311"><ele>196.33333333333331</ele><time>2026-04-18T08:16:34.999Z</time></trkpt><trkpt lat="42.359786156295016" lon="13.963121898535562"><ele>196.5</ele><time>2026-04-18T08:16:35.999Z</time></trkpt><trkpt lat="42.359840541851476" lon="13.96302853148157"><ele>196.66666666666669</ele><time>2026-04-18T08:16:36.999Z</time></trkpt><trkpt lat="42.35989944483519" lon="13.962949733464344"><ele>196.83333333333334</ele><time>2026-04-18T08:16:37.999Z</time></trkpt><trkpt lat="42.35994852549474" lon="13.962879961548321"><ele>197.0</ele><time>2026-04-18T08:16:38.999Z</time></trkpt><trkpt lat="42.360003621910195" lon="13.962811764820879"><ele>197.00000000000003</ele><time>2026-04-18T08:16:39.999Z</time></trkpt><trkpt lat="42.36004696003352" lon="13.962748377960084"><ele>197.0</ele><time>2026-04-18T08:16:40.999Z</time></trkpt><trkpt lat="42.36010465044188" lon="13.962662030999965"><ele>197.0</ele><time>2026-04-18T08:16:42.999Z</time></trkpt><trkpt lat="42.36016664099932" lon="13.96260581873274"><ele>197.0</ele><time>2026-04-18T08:16:46.999Z</time></trkpt><trkpt lat="42.36020937576649" lon="13.96253980648968"><ele>197.00000000000003</ele><time>2026-04-18T08:16:48.999Z</time></trkpt><trkpt lat="42.36028496179262" lon="13.962383047473127"><ele>197.0</ele><time>2026-04-18T08:16:50.999Z</time></trkpt><trkpt lat="42.360350094288414" lon="13.96227856768135"><ele>197.50000000000003</ele><time>2026-04-18T08:16:51.999Z</time></trkpt><trkpt lat="42.360413271557725" lon="13.96217517558368"><ele>198.0</ele><time>2026-04-18T08:16:52.999Z</time></trkpt><trkpt lat="42.360470490539285" lon="13.962080794162524"><ele>198.5</ele><time>2026-04-18T08:16:53.999Z</time></trkpt><trkpt lat="42.36051932239968" lon="13.962007126400657"><ele>199.0</ele><time>2026-04-18T08:16:54.999Z</time></trkpt><trkpt lat="42.36055781117907" lon="13.96193682970296"><ele>199.50000000000003</ele><time>2026-04-18T08:16:55.999Z</time></trkpt><trkpt lat="42.36062015340749" lon="13.961825650197037"><ele>200.0</ele><time>2026-04-18T08:16:57.999Z</time></trkpt><trkpt lat="42.360677640084894" lon="13.96177239413563"><ele>200.50000000000003</ele><time>2026-04-18T08:16:59.999Z</time></trkpt><trkpt lat="42.36070883677821" lon="13.961669160019758"><ele>201.0</ele><time>2026-04-18T08:17:20Z</time></trkpt><trkpt lat="42.360749979708906" lon="13.961515543621918"><ele>201.5</ele><time>2026-04-18T08:17:22Z</time></trkpt><trkpt lat="42.360758052127444" lon="13.961419060043669"><ele>202.0</ele><time>2026-04-18T08:17:23Z</time></trkpt><trkpt lat="42.36077652676303" lon="13.96133256649465"><ele>202.50000000000003</ele><time>2026-04-18T08:17:24Z</time></trkpt><trkpt lat="42.36079773447589" lon="13.961234232427888"><ele>203.0</ele><time>2026-04-18T08:17:25Z</time></trkpt><trkpt lat="42.36081565163164" lon="13.961114903157394"><ele>203.00000000000003</ele><time>2026-04-18T08:17:26Z</time></trkpt><trkpt lat="42.36084751330485" lon="13.96101415833845"><ele>203.0</ele><time>2026-04-18T08:17:27Z</time></trkpt><trkpt lat="42.36088067964565" lon="13.960896629469662"><ele>203.0</ele><time>2026-04-18T08:17:28Z</time></trkpt><trkpt lat="42.36092349299564" lon="13.960783225434668"><ele>203.0</ele><time>2026-04-18T08:17:29Z</time></trkpt><trkpt lat="42.36096195854862" lon="13.96068409703314"><ele>203.00000000000003</ele><time>2026-04-18T08:17:30Z</time></trkpt><trkpt lat="42.361000932900886" lon="13.960584860657484"><ele>203.0</ele><time>2026-04-18T08:17:31Z</time></trkpt><trkpt lat="42.36103642571297" lon="13.96050897637106"><ele>202.8</ele><time>2026-04-18T08:17:32Z</time></trkpt><trkpt lat="42.36110149755089" lon="13.960419522539395"><ele>202.60000000000002</ele><time>2026-04-18T08:17:34Z</time></trkpt><trkpt lat="42.36112156907292" lon="13.960240257218603"><ele>202.39999999999998</ele><time>2026-04-18T08:17:36Z</time></trkpt><trkpt lat="42.36111371095591" lon="13.960113201620109"><ele>202.2</ele><time>2026-04-18T08:17:37Z</time></trkpt><trkpt lat="42.36110072588887" lon="13.959980149763297"><ele>202.0</ele><time>2026-04-18T08:17:38Z</time></trkpt><trkpt lat="42.36106702347859" lon="13.959836511431217"><ele>202.5</ele><time>2026-04-18T08:17:39Z</time></trkpt><trkpt lat="42.361028736033035" lon="13.95969047509283"><ele>203.0</ele><time>2026-04-18T08:17:40Z</time></trkpt><trkpt lat="42.36097107366432" lon="13.95956502932209"><ele>203.5</ele><time>2026-04-18T08:17:41Z</time></trkpt><trkpt lat="42.36091881114063" lon="13.959417576834586"><ele>204.0</ele><time>2026-04-18T08:17:42Z</time></trkpt><trkpt lat="42.36084211454842" lon="13.95925754923134"><ele>204.33333333333331</ele><time>2026-04-18T08:17:43Z</time></trkpt><trkpt lat="42.3607385428445" lon="13.959094641567578"><ele>204.66666666666666</ele><time>2026-04-18T08:17:44Z</time></trkpt><trkpt lat="42.36062019981011" lon="13.958925358532737"><ele>205.0</ele><time>2026-04-18T08:17:45Z</time></trkpt><trkpt lat="42.36050880556247" lon="13.958800509064996"><ele>205.0</ele><time>2026-04-18T08:17:46Z</time></trkpt><trkpt lat="42.36040621459945" lon="13.958687480421514"><ele>205.0</ele><time>2026-04-18T08:17:47Z</time></trkpt><trkpt lat="42.3603065923064" lon="13.958583617743113"><ele>205.0</ele><time>2026-04-18T08:17:48Z</time></trkpt><trkpt lat="42.36021773182391" lon="13.958462167069223"><ele>205.0</ele><time>2026-04-18T08:17:49Z</time></trkpt><trkpt lat="42.360136213729014" lon="13.95834234894159"><ele>205.2</ele><time>2026-04-18T08:17:50Z</time></trkpt><trkpt lat="42.36006026799101" lon="13.958238086768507"><ele>205.4</ele><time>2026-04-18T08:17:51Z</time></trkpt><trkpt lat="42.359975325011334" lon="13.958158341545849"><ele>205.60000000000002</ele><time>2026-04-18T08:17:52Z</time></trkpt><trkpt lat="42.35987163285437" lon="13.958095432540304"><ele>205.8</ele><time>2026-04-18T08:17:53Z</time></trkpt><trkpt lat="42.359776095034086" lon="13.958051280343998"><ele>206.0</ele><time>2026-04-18T08:17:54Z</time></trkpt><trkpt lat="42.35969222186479" lon="13.957992433305812"><ele>207.16666666666669</ele><time>2026-04-18T08:17:55Z</time></trkpt><trkpt lat="42.35961820933502" lon="13.957922274231901"><ele>208.33333333333334</ele><time>2026-04-18T08:17:56Z</time></trkpt><trkpt lat="42.35953603506439" lon="13.957850733468526"><ele>209.5</ele><time>2026-04-18T08:17:58Z</time></trkpt><trkpt lat="42.35959340641165" lon="13.957788960202867"><ele>210.66666666666669</ele><time>2026-04-18T08:18:00Z</time></trkpt><trkpt lat="42.359520776347345" lon="13.957767001144191"><ele>211.83333333333334</ele><time>2026-04-18T08:18:01Z</time></trkpt><trkpt lat="42.35954592603459" lon="13.957675225285547"><ele>213.0</ele><time>2026-04-18T08:18:04Z</time></trkpt><trkpt lat="42.35958036859205" lon="13.957582030971347"><ele>212.5</ele><time>2026-04-18T08:18:06Z</time></trkpt><trkpt lat="42.35963251500952" lon="13.957462446473423"><ele>212.0</ele><time>2026-04-18T08:18:09Z</time></trkpt><trkpt lat="42.35969756627198" lon="13.957411327427284"><ele>211.5</ele><time>2026-04-18T08:18:12Z</time></trkpt><trkpt lat="42.35960601106624" lon="13.957360385102268"><ele>211.0</ele><time>2026-04-18T08:18:15Z</time></trkpt><trkpt lat="42.3595194782945" lon="13.957320549913131"><ele>210.5</ele><time>2026-04-18T08:18:17Z</time></trkpt><trkpt lat="42.359497759623416" lon="13.957238742205028"><ele>210.0</ele><time>2026-04-18T08:18:20.999Z</time></trkpt><trkpt lat="42.359501301734134" lon="13.95707952507239"><ele>210.0</ele><time>2026-04-18T08:18:27.999Z</time></trkpt><trkpt lat="42.35946640248199" lon="13.956994731762832"><ele>210.0</ele><time>2026-04-18T08:18:36.999Z</time></trkpt><trkpt lat="42.359454810277654" lon="13.956898152487073"><ele>210.0</ele><time>2026-04-18T08:19:19Z</time></trkpt><trkpt lat="42.35946618893565" lon="13.956805807748902"><ele>210.0</ele><time>2026-04-18T08:19:21Z</time></trkpt><trkpt lat="42.35944972603098" lon="13.95672175728694"><ele>210.0</ele><time>2026-04-18T08:19:23Z</time></trkpt><trkpt lat="42.359453769769175" lon="13.956573184731926"><ele>210.0</ele><time>2026-04-18T08:19:25Z</time></trkpt><trkpt lat="42.359422270916674" lon="13.95646245135857"><ele>209.2</ele><time>2026-04-18T08:19:26Z</time></trkpt><trkpt lat="42.35936879935937" lon="13.956317167338401"><ele>208.4</ele><time>2026-04-18T08:19:27Z</time></trkpt><trkpt lat="42.35930953193113" lon="13.956159291354973"><ele>207.60000000000002</ele><time>2026-04-18T08:19:28Z</time></trkpt><trkpt lat="42.359247647037776" lon="13.956036489674828"><ele>206.8</ele><time>2026-04-18T08:19:29Z</time></trkpt><trkpt lat="42.35918823591771" lon="13.95595360637384"><ele>206.0</ele><time>2026-04-18T08:19:30Z</time></trkpt><trkpt lat="42.35911599122368" lon="13.95588456623194"><ele>206.20000000000002</ele><time>2026-04-18T08:19:31Z</time></trkpt><trkpt lat="42.359064399114445" lon="13.955817434145501"><ele>206.4</ele><time>2026-04-18T08:19:32Z</time></trkpt><trkpt lat="42.35901074591136" lon="13.955722194583377"><ele>206.6</ele><time>2026-04-18T08:19:33Z</time></trkpt><trkpt lat="42.3589471558413" lon="13.95558347552961"><ele>206.8</ele><time>2026-04-18T08:19:34Z</time></trkpt><trkpt lat="42.35888198052979" lon="13.955446247212803"><ele>207.0</ele><time>2026-04-18T08:19:35Z</time></trkpt><trkpt lat="42.35883191277535" lon="13.955332111331987"><ele>207.2</ele><time>2026-04-18T08:19:36Z</time></trkpt><trkpt lat="42.35878250882262" lon="13.955230657124641"><ele>207.39999999999998</ele><time>2026-04-18T08:19:37Z</time></trkpt><trkpt lat="42.35873137067005" lon="13.955118510059272"><ele>207.60000000000002</ele><time>2026-04-18T08:19:38Z</time></trkpt><trkpt lat="42.3586734211678" lon="13.955009187504965"><ele>207.8</ele><time>2026-04-18T08:19:39Z</time></trkpt><trkpt lat="42.35861118454193" lon="13.95488844859365"><ele>208.0</ele><time>2026-04-18T08:19:40Z</time></trkpt><trkpt lat="42.358544787136" lon="13.954770864923162"><ele>208.60000000000002</ele><time>2026-04-18T08:19:41Z</time></trkpt><trkpt lat="42.35847972221479" lon="13.954643286035312"><ele>209.20000000000002</ele><time>2026-04-18T08:19:42Z</time></trkpt><trkpt lat="42.35841415230919" lon="13.954517019983156"><ele>209.8</ele><time>2026-04-18T08:19:43Z</time></trkpt><trkpt lat="42.35836088186196" lon="13.954413111673102"><ele>210.4</ele><time>2026-04-18T08:19:44Z</time></trkpt><trkpt lat="42.35831716146477" lon="13.95433884354646"><ele>211.0</ele><time>2026-04-18T08:19:45Z</time></trkpt><trkpt lat="42.35824089578226" lon="13.95424908248515"><ele>211.4</ele><time>2026-04-18T08:19:47Z</time></trkpt><trkpt lat="42.358164747875456" lon="13.95415137686908"><ele>211.8</ele><time>2026-04-18T08:20:08Z</time></trkpt><trkpt lat="42.3581323670441" lon="13.954055930018482"><ele>212.20000000000002</ele><time>2026-04-18T08:20:10Z</time></trkpt><trkpt lat="42.35817098143316" lon="13.953931031776055"><ele>212.60000000000002</ele><time>2026-04-18T08:20:12Z</time></trkpt><trkpt lat="42.358228246666066" lon="13.95384863424796"><ele>213.0</ele><time>2026-04-18T08:20:13Z</time></trkpt><trkpt lat="42.35831291002445" lon="13.953743480556339"><ele>213.0</ele><time>2026-04-18T08:20:14Z</time></trkpt><trkpt lat="42.35838372326041" lon="13.953651216670748"><ele>213.0</ele><time>2026-04-18T08:20:15Z</time></trkpt><trkpt lat="42.35842761754347" lon="13.95357514940774"><ele>213.0</ele><time>2026-04-18T08:20:15.999Z</time></trkpt><trkpt lat="42.35844544067998" lon="13.95347412091585"><ele>213.0</ele><time>2026-04-18T08:20:17.999Z</time></trkpt><trkpt lat="42.35844356952381" lon="13.95338299478205"><ele>213.0</ele><time>2026-04-18T08:20:18.999Z</time></trkpt><trkpt lat="42.35845753188922" lon="13.953271871878012"><ele>213.0</ele><time>2026-04-18T08:20:19.999Z</time></trkpt><trkpt lat="42.35851506378166" lon="13.95315110259621"><ele>214.0</ele><time>2026-04-18T08:20:20.999Z</time></trkpt><trkpt lat="42.35861187627697" lon="13.95300319333121"><ele>215.0</ele><time>2026-04-18T08:20:21.999Z</time></trkpt><trkpt lat="42.35870329481735" lon="13.952842223214882"><ele>216.0</ele><time>2026-04-18T08:20:22.999Z</time></trkpt><trkpt lat="42.358765761581736" lon="13.952674441671537"><ele>217.0</ele><time>2026-04-18T08:20:23.999Z</time></trkpt><trkpt lat="42.358813133197515" lon="13.952506395762233"><ele>218.0</ele><time>2026-04-18T08:20:24.999Z</time></trkpt><trkpt lat="42.35885957057514" lon="13.952349562722429"><ele>219.0</ele><time>2026-04-18T08:20:25.999Z</time></trkpt><trkpt lat="42.358907423626924" lon="13.952206985361178"><ele>220.0</ele><time>2026-04-18T08:20:26.999Z</time></trkpt><trkpt lat="42.358971880237796" lon="13.952073874705714"><ele>221.0</ele><time>2026-04-18T08:20:27.999Z</time></trkpt><trkpt lat="42.35904553265501" lon="13.951974491009345"><ele>222.5</ele><time>2026-04-18T08:20:28.999Z</time></trkpt><trkpt lat="42.35913164601944" lon="13.9519229543412"><ele>224.0</ele><time>2026-04-18T08:20:29.999Z</time></trkpt><trkpt lat="42.35923900639587" lon="13.951899932293419"><ele>225.5</ele><time>2026-04-18T08:20:30.999Z</time></trkpt><trkpt lat="42.359369460283844" lon="13.951895055394855"><ele>227.0</ele><time>2026-04-18T08:20:31.999Z</time></trkpt><trkpt lat="42.35949084014881" lon="13.951903385170892"><ele>227.0</ele><time>2026-04-18T08:20:32.999Z</time></trkpt><trkpt lat="42.35959608599699" lon="13.951918900516109"><ele>227.0</ele><time>2026-04-18T08:20:33.999Z</time></trkpt><trkpt lat="42.35970236450466" lon="13.951936590118642"><ele>227.0</ele><time>2026-04-18T08:20:34.999Z</time></trkpt><trkpt lat="42.35980610902083" lon="13.951954252391038"><ele>227.0</ele><time>2026-04-18T08:20:35.999Z</time></trkpt><trkpt lat="42.35991271169945" lon="13.951938497008571"><ele>227.0</ele><time>2026-04-18T08:20:36.999Z</time></trkpt><trkpt lat="42.360012025080714" lon="13.951886319646913"><ele>229.0</ele><time>2026-04-18T08:20:37.999Z</time></trkpt><trkpt lat="42.36011392777954" lon="13.951815643877651"><ele>231.0</ele><time>2026-04-18T08:20:38.999Z</time></trkpt><trkpt lat="42.36021861656652" lon="13.951743860137002"><ele>233.0</ele><time>2026-04-18T08:20:39.999Z</time></trkpt><trkpt lat="42.360338585134365" lon="13.951664392418095"><ele>235.0</ele><time>2026-04-18T08:20:40.999Z</time></trkpt><trkpt lat="42.360459757177125" lon="13.951572241573562"><ele>239.0</ele><time>2026-04-18T08:20:41.999Z</time></trkpt><trkpt lat="42.3605724720961" lon="13.95146434684902"><ele>243.0</ele><time>2026-04-18T08:20:42.999Z</time></trkpt><trkpt lat="42.360680975475475" lon="13.951353425760551"><ele>247.0</ele><time>2026-04-18T08:20:43.999Z</time></trkpt><trkpt lat="42.360779150584506" lon="13.951242768956568"><ele>251.0</ele><time>2026-04-18T08:20:44.999Z</time></trkpt><trkpt lat="42.360864667507734" lon="13.951134132904144"><ele>251.0</ele><time>2026-04-18T08:20:45.999Z</time></trkpt><trkpt lat="42.36093956173325" lon="13.951027631115794"><ele>251.00000000000003</ele><time>2026-04-18T08:20:46.999Z</time></trkpt><trkpt lat="42.361019689023244" lon="13.95089562363"><ele>251.00000000000003</ele><time>2026-04-18T08:20:47.999Z</time></trkpt><trkpt lat="42.3610773703133" lon="13.95075785377949"><ele>251.0</ele><time>2026-04-18T08:20:48.999Z</time></trkpt><trkpt lat="42.3611104144522" lon="13.950634961878437"><ele>251.0</ele><time>2026-04-18T08:20:49.999Z</time></trkpt><trkpt lat="42.36112759010742" lon="13.950540478493124"><ele>251.0</ele><time>2026-04-18T08:20:50.999Z</time></trkpt><trkpt lat="42.36114168282815" lon="13.950456818335764"><ele>251.00000000000003</ele><time>2026-04-18T08:20:51.999Z</time></trkpt><trkpt lat="42.36117351196596" lon="13.950314931644277"><ele>251.00000000000003</ele><time>2026-04-18T08:20:53.999Z</time></trkpt><trkpt lat="42.36116866450031" lon="13.950163075066895"><ele>251.0</ele><time>2026-04-18T08:20:55.999Z</time></trkpt><trkpt lat="42.361120014126485" lon="13.95005230773502"><ele>251.0</ele><time>2026-04-18T08:20:56.999Z</time></trkpt><trkpt lat="42.36105999373984" lon="13.949900361916262"><ele>251.5</ele><time>2026-04-18T08:20:57.999Z</time></trkpt><trkpt lat="42.361008084598545" lon="13.949745755231604"><ele>252.0</ele><time>2026-04-18T08:20:58.999Z</time></trkpt><trkpt lat="42.36099579099096" lon="13.949586622687182"><ele>252.5</ele><time>2026-04-18T08:20:59.999Z</time></trkpt><trkpt lat="42.36097800465437" lon="13.9494199100444"><ele>253.0</ele><time>2026-04-18T08:21:00.999Z</time></trkpt><trkpt lat="42.36094596866329" lon="13.949289283144422"><ele>253.2</ele><time>2026-04-18T08:21:01.999Z</time></trkpt><trkpt lat="42.36090525126794" lon="13.949163464787734"><ele>253.4</ele><time>2026-04-18T08:21:02.999Z</time></trkpt><trkpt lat="42.36087686297596" lon="13.949034435621726"><ele>253.59999999999997</ele><time>2026-04-18T08:21:03.999Z</time></trkpt><trkpt lat="42.360855010915124" lon="13.948909467665196"><ele>253.79999999999998</ele><time>2026-04-18T08:21:04.999Z</time></trkpt><trkpt lat="42.36080742035763" lon="13.948790054522165"><ele>254.0</ele><time>2026-04-18T08:21:05.999Z</time></trkpt><trkpt lat="42.36073838969613" lon="13.948651783841276"><ele>254.0</ele><time>2026-04-18T08:21:06.999Z</time></trkpt><trkpt lat="42.360630805297355" lon="13.948485686863982"><ele>254.0</ele><time>2026-04-18T08:21:07.999Z</time></trkpt><trkpt lat="42.360527647200136" lon="13.948318094665064"><ele>254.0</ele><time>2026-04-18T08:21:08.999Z</time></trkpt><trkpt lat="42.360451885960686" lon="13.948160758534518"><ele>251.25</ele><time>2026-04-18T08:21:09.999Z</time></trkpt><trkpt lat="42.360383115754416" lon="13.948025282603512"><ele>248.5</ele><time>2026-04-18T08:21:10.999Z</time></trkpt><trkpt lat="42.360295560176546" lon="13.947916122821917"><ele>245.75</ele><time>2026-04-18T08:21:11.999Z</time></trkpt><trkpt lat="42.36018048346474" lon="13.947843200023211"><ele>243.0</ele><time>2026-04-18T08:21:12.999Z</time></trkpt><trkpt lat="42.36004489282329" lon="13.947808910812464"><ele>243.0</ele><time>2026-04-18T08:21:13.999Z</time></trkpt><trkpt lat="42.35991995581435" lon="13.94780519177819"><ele>243.0</ele><time>2026-04-18T08:21:14.999Z</time></trkpt><trkpt lat="42.359804161784595" lon="13.947820198689632"><ele>243.0</ele><time>2026-04-18T08:21:15.999Z</time></trkpt><trkpt lat="42.359692073616" lon="13.947827606286646"><ele>243.0</ele><time>2026-04-18T08:21:16.999Z</time></trkpt><trkpt lat="42.359574323987715" lon="13.947821243650294"><ele>241.5</ele><time>2026-04-18T08:21:17.999Z</time></trkpt><trkpt lat="42.35945364872097" lon="13.94781617795862"><ele>240.0</ele><time>2026-04-18T08:21:18.999Z</time></trkpt><trkpt lat="42.35933160107371" lon="13.947809336771895"><ele>238.5</ele><time>2026-04-18T08:21:20Z</time></trkpt><trkpt lat="42.35921223144767" lon="13.947781557139152"><ele>237.0</ele><time>2026-04-18T08:21:21Z</time></trkpt><trkpt lat="42.359105498427084" lon="13.94773048737134"><ele>237.0</ele><time>2026-04-18T08:21:22Z</time></trkpt><trkpt lat="42.35902246486887" lon="13.947642535478765"><ele>237.0</ele><time>2026-04-18T08:21:23Z</time></trkpt><trkpt lat="42.35896035345794" lon="13.947512923401133"><ele>237.0</ele><time>2026-04-18T08:21:24Z</time></trkpt><trkpt lat="42.358913621590986" lon="13.947370034531295"><ele>237.0</ele><time>2026-04-18T08:21:25Z</time></trkpt><trkpt lat="42.358858525674286" lon="13.94722765857902"><ele>235.5</ele><time>2026-04-18T08:21:26Z</time></trkpt><trkpt lat="42.35879730001532" lon="13.947104106971029"><ele>234.0</ele><time>2026-04-18T08:21:27Z</time></trkpt><trkpt lat="42.358738317562114" lon="13.946971344109645"><ele>232.5</ele><time>2026-04-18T08:21:28Z</time></trkpt><trkpt lat="42.35869780527817" lon="13.946824772242708"><ele>231.0</ele><time>2026-04-18T08:21:29Z</time></trkpt><trkpt lat="42.3586806027545" lon="13.946669295307625"><ele>231.0</ele><time>2026-04-18T08:21:30Z</time></trkpt><trkpt lat="42.35866249611875" lon="13.946512619613808"><ele>231.00000000000003</ele><time>2026-04-18T08:21:31Z</time></trkpt><trkpt lat="42.35861837034261" lon="13.946384215896588"><ele>231.00000000000003</ele><time>2026-04-18T08:21:32Z</time></trkpt><trkpt lat="42.358541897846195" lon="13.946277639065524"><ele>231.0</ele><time>2026-04-18T08:21:33Z</time></trkpt><trkpt lat="42.35847201912292" lon="13.946181602361744"><ele>231.0</ele><time>2026-04-18T08:21:34Z</time></trkpt><trkpt lat="42.35842342343554" lon="13.946078749783318"><ele>231.0</ele><time>2026-04-18T08:21:35Z</time></trkpt><trkpt lat="42.358389423122546" lon="13.945963476930794"><ele>231.00000000000003</ele><time>2026-04-18T08:21:36Z</time></trkpt><trkpt lat="42.35836316172759" lon="13.945836595827192"><ele>231.00000000000003</ele><time>2026-04-18T08:21:37Z</time></trkpt><trkpt lat="42.35833520573356" lon="13.945703575385991"><ele>231.0</ele><time>2026-04-18T08:21:38Z</time></trkpt><trkpt lat="42.35831906150579" lon="13.945563220259853"><ele>231.0</ele><time>2026-04-18T08:21:39Z</time></trkpt><trkpt lat="42.358300989923784" lon="13.945412750038521"><ele>231.5</ele><time>2026-04-18T08:21:40Z</time></trkpt><trkpt lat="42.35826637818265" lon="13.945259419728137"><ele>232.0</ele><time>2026-04-18T08:21:41Z</time></trkpt><trkpt lat="42.35820512689051" lon="13.945123890674818"><ele>232.5</ele><time>2026-04-18T08:21:42Z</time></trkpt><trkpt lat="42.35812536668659" lon="13.945009575485367"><ele>233.0</ele><time>2026-04-18T08:21:43Z</time></trkpt><trkpt lat="42.3580447363278" lon="13.944899463194872"><ele>231.60000000000002</ele><time>2026-04-18T08:21:44Z</time></trkpt><trkpt lat="42.35797424374377" lon="13.94479723896476"><ele>230.20000000000002</ele><time>2026-04-18T08:21:45Z</time></trkpt><trkpt lat="42.35791360442307" lon="13.944693363340537"><ele>228.8</ele><time>2026-04-18T08:21:46Z</time></trkpt><trkpt lat="42.35786266525405" lon="13.944602957917567"><ele>227.4</ele><time>2026-04-18T08:21:47Z</time></trkpt><trkpt lat="42.357815488410644" lon="13.944502023820236"><ele>226.0</ele><time>2026-04-18T08:21:48Z</time></trkpt><trkpt lat="42.35776869148461" lon="13.944379453425185"><ele>226.0</ele><time>2026-04-18T08:21:49Z</time></trkpt><trkpt lat="42.35773611656255" lon="13.944239487044772"><ele>226.00000000000003</ele><time>2026-04-18T08:21:50Z</time></trkpt><trkpt lat="42.35773243122403" lon="13.9440971314609"><ele>226.00000000000003</ele><time>2026-04-18T08:21:51Z</time></trkpt><trkpt lat="42.357754777670216" lon="13.943968709301407"><ele>226.0</ele><time>2026-04-18T08:21:52Z</time></trkpt><trkpt lat="42.35778522556356" lon="13.943864859770976"><ele>226.0</ele><time>2026-04-18T08:21:53Z</time></trkpt><trkpt lat="42.35781961367563" lon="13.94378783701312"><ele>226.0</ele><time>2026-04-18T08:21:54Z</time></trkpt><trkpt lat="42.35788351812683" lon="13.943648989697971"><ele>226.00000000000003</ele><time>2026-04-18T08:21:56Z</time></trkpt><trkpt lat="42.35792751815107" lon="13.943493387034533"><ele>226.00000000000003</ele><time>2026-04-18T08:21:58Z</time></trkpt><trkpt lat="42.35793510809656" lon="13.943407019059451"><ele>226.0</ele><time>2026-04-18T08:21:59Z</time></trkpt><trkpt lat="42.35792007348243" lon="13.943301063553786"><ele>226.0</ele><time>2026-04-18T08:22:00Z</time></trkpt><trkpt lat="42.35789201483793" lon="13.943148061639656"><ele>226.0</ele><time>2026-04-18T08:22:01Z</time></trkpt><trkpt lat="42.35787650972236" lon="13.942969114898338"><ele>226.0</ele><time>2026-04-18T08:22:02Z</time></trkpt><trkpt lat="42.357868003929184" lon="13.942784531639159"><ele>226.0</ele><time>2026-04-18T08:22:03Z</time></trkpt><trkpt lat="42.35784713063607" lon="13.942612462311006"><ele>226.0</ele><time>2026-04-18T08:22:04Z</time></trkpt><trkpt lat="42.35783898318094" lon="13.942437495774943"><ele>226.25</ele><time>2026-04-18T08:22:05Z</time></trkpt><trkpt lat="42.357865266020596" lon="13.942240598534939"><ele>226.5</ele><time>2026-04-18T08:22:06Z</time></trkpt><trkpt lat="42.35791256092652" lon="13.94204805797224"><ele>226.75</ele><time>2026-04-18T08:22:07Z</time></trkpt><trkpt lat="42.357958240819386" lon="13.941854622283875"><ele>227.0</ele><time>2026-04-18T08:22:08Z</time></trkpt><trkpt lat="42.357989893591025" lon="13.941636941522749"><ele>227.0</ele><time>2026-04-18T08:22:09Z</time></trkpt><trkpt lat="42.35802091184361" lon="13.94142596002552"><ele>227.0</ele><time>2026-04-18T08:22:10Z</time></trkpt><trkpt lat="42.358049030806434" lon="13.94123551782637"><ele>227.0</ele><time>2026-04-18T08:22:11Z</time></trkpt><trkpt lat="42.35806797061361" lon="13.941043976541717"><ele>227.0</ele><time>2026-04-18T08:22:12Z</time></trkpt><trkpt lat="42.35808457151498" lon="13.940852346047883"><ele>229.33333333333334</ele><time>2026-04-18T08:22:13Z</time></trkpt><trkpt lat="42.35809573753168" lon="13.940648266651554"><ele>231.66666666666669</ele><time>2026-04-18T08:22:13.999Z</time></trkpt><trkpt lat="42.358102573028944" lon="13.940441141715121"><ele>234.0</ele><time>2026-04-18T08:22:14.999Z</time></trkpt><trkpt lat="42.35809941665816" lon="13.940234587907641"><ele>234.25</ele><time>2026-04-18T08:22:15.999Z</time></trkpt><trkpt lat="42.35810284367842" lon="13.940045578140028"><ele>234.5</ele><time>2026-04-18T08:22:16.999Z</time></trkpt><trkpt lat="42.358107158169794" lon="13.939874624031411"><ele>234.75</ele><time>2026-04-18T08:22:17.999Z</time></trkpt><trkpt lat="42.358121553642654" lon="13.93970592266029"><ele>235.0</ele><time>2026-04-18T08:22:18.999Z</time></trkpt><trkpt lat="42.35813237076811" lon="13.93952661424247"><ele>235.0</ele><time>2026-04-18T08:22:19.999Z</time></trkpt><trkpt lat="42.358145134435105" lon="13.939344072636885"><ele>235.0</ele><time>2026-04-18T08:22:20.999Z</time></trkpt><trkpt lat="42.35819665516611" lon="13.939154782110355"><ele>235.0</ele><time>2026-04-18T08:22:21.999Z</time></trkpt><trkpt lat="42.35825446655812" lon="13.93896891271859"><ele>235.0</ele><time>2026-04-18T08:22:22.999Z</time></trkpt><trkpt lat="42.35828914482011" lon="13.938764968148638"><ele>234.75</ele><time>2026-04-18T08:22:23.999Z</time></trkpt><trkpt lat="42.35829607068074" lon="13.938562631202053"><ele>234.5</ele><time>2026-04-18T08:22:24.999Z</time></trkpt><trkpt lat="42.35828627425213" lon="13.938375274817897"><ele>234.25</ele><time>2026-04-18T08:22:25.999Z</time></trkpt><trkpt lat="42.35827265207925" lon="13.938199611449168"><ele>234.0</ele><time>2026-04-18T08:22:26.999Z</time></trkpt><trkpt lat="42.358273736156924" lon="13.93800347320827"><ele>234.0</ele><time>2026-04-18T08:22:27.999Z</time></trkpt><trkpt lat="42.35830317090282" lon="13.937812808954472"><ele>234.0</ele><time>2026-04-18T08:22:28.999Z</time></trkpt><trkpt lat="42.35836705316231" lon="13.937635856260565"><ele>234.0</ele><time>2026-04-18T08:22:29.999Z</time></trkpt><trkpt lat="42.35841411276476" lon="13.937457284175766"><ele>234.0</ele><time>2026-04-18T08:22:30.999Z</time></trkpt><trkpt lat="42.35841402810183" lon="13.937249070902437"><ele>234.25</ele><time>2026-04-18T08:22:31.999Z</time></trkpt><trkpt lat="42.358381932405145" lon="13.93704133384972"><ele>234.5</ele><time>2026-04-18T08:22:32.999Z</time></trkpt><trkpt lat="42.35834577368253" lon="13.93685388119418"><ele>234.75</ele><time>2026-04-18T08:22:33.999Z</time></trkpt><trkpt lat="42.35832461383153" lon="13.936686026406027"><ele>235.0</ele><time>2026-04-18T08:22:34.999Z</time></trkpt><trkpt lat="42.35829923773343" lon="13.936519668420164"><ele>235.5</ele><time>2026-04-18T08:22:35.999Z</time></trkpt><trkpt lat="42.35828646707185" lon="13.936361705475159"><ele>236.0</ele><time>2026-04-18T08:22:36.999Z</time></trkpt><trkpt lat="42.358302874728004" lon="13.936208768532147"><ele>236.5</ele><time>2026-04-18T08:22:37.999Z</time></trkpt><trkpt lat="42.35835006189203" lon="13.93606109401993"><ele>237.0</ele><time>2026-04-18T08:22:38.999Z</time></trkpt><trkpt lat="42.35841419494929" lon="13.93593151691703"><ele>237.0</ele><time>2026-04-18T08:22:39.999Z</time></trkpt><trkpt lat="42.35846884849324" lon="13.93579892125591"><ele>237.0</ele><time>2026-04-18T08:22:40.999Z</time></trkpt><trkpt lat="42.358500799006116" lon="13.935665898971212"><ele>237.0</ele><time>2026-04-18T08:22:41.999Z</time></trkpt><trkpt lat="42.358523951075625" lon="13.93555055805078"><ele>237.0</ele><time>2026-04-18T08:22:42.999Z</time></trkpt><trkpt lat="42.35852399658135" lon="13.935446106761793"><ele>237.0</ele><time>2026-04-18T08:22:43.999Z</time></trkpt><trkpt lat="42.35849092278113" lon="13.935351567456292"><ele>237.0</ele><time>2026-04-18T08:22:44.999Z</time></trkpt><trkpt lat="42.35843076082075" lon="13.935267472324611"><ele>237.0</ele><time>2026-04-18T08:22:45.999Z</time></trkpt><trkpt lat="42.358363266315834" lon="13.935208759652145"><ele>237.0</ele><time>2026-04-18T08:22:46.999Z</time></trkpt><trkpt lat="42.358303658679596" lon="13.935160993405919"><ele>237.0</ele><time>2026-04-18T08:22:47.999Z</time></trkpt><trkpt lat="42.35823930409821" lon="13.93509650656847"><ele>237.0</ele><time>2026-04-18T08:22:48.999Z</time></trkpt><trkpt lat="42.35817227110311" lon="13.93501614429278"><ele>237.0</ele><time>2026-04-18T08:22:51.999Z</time></trkpt><trkpt lat="42.35811538293347" lon="13.934975860098376"><ele>237.16666666666666</ele><time>2026-04-18T08:22:53.999Z</time></trkpt><trkpt lat="42.358040095641144" lon="13.934930331266878"><ele>237.33333333333331</ele><time>2026-04-18T08:22:56.999Z</time></trkpt><trkpt lat="42.35792845839298" lon="13.934859674430088"><ele>237.5</ele><time>2026-04-18T08:22:58.999Z</time></trkpt><trkpt lat="42.35786061899676" lon="13.934826489079443"><ele>237.66666666666666</ele><time>2026-04-18T08:22:59.999Z</time></trkpt><trkpt lat="42.35779347440337" lon="13.934802151588407"><ele>237.83333333333331</ele><time>2026-04-18T08:23:00.999Z</time></trkpt><trkpt lat="42.3577275988894" lon="13.934787236727669"><ele>238.0</ele><time>2026-04-18T08:23:01.999Z</time></trkpt><trkpt lat="42.35761525245138" lon="13.934746655050024"><ele>238.0</ele><time>2026-04-18T08:23:03.999Z</time></trkpt><trkpt lat="42.35754176681815" lon="13.93472409506373"><ele>238.0</ele><time>2026-04-18T08:23:04.999Z</time></trkpt><trkpt lat="42.357468837118766" lon="13.93470369736879"><ele>238.0</ele><time>2026-04-18T08:23:05.999Z</time></trkpt><trkpt lat="42.35735354245958" lon="13.934654363981755"><ele>238.0</ele><time>2026-04-18T08:23:07.999Z</time></trkpt><trkpt lat="42.3572956498583" lon="13.934616742813995"><ele>238.0</ele><time>2026-04-18T08:23:08.999Z</time></trkpt><trkpt lat="42.35719182861307" lon="13.934540798087774"><ele>238.8</ele><time>2026-04-18T08:23:10.999Z</time></trkpt><trkpt lat="42.357111178242626" lon="13.934428277743502"><ele>239.60000000000002</ele><time>2026-04-18T08:23:12.999Z</time></trkpt><trkpt lat="42.35706236515467" lon="13.934277122111533"><ele>240.39999999999998</ele><time>2026-04-18T08:23:14.999Z</time></trkpt><trkpt lat="42.3570559180889" lon="13.934191006661592"><ele>241.2</ele><time>2026-04-18T08:23:15.999Z</time></trkpt><trkpt lat="42.35705278218544" lon="13.934087573366748"><ele>242.0</ele><time>2026-04-18T08:23:16.999Z</time></trkpt><trkpt lat="42.35704998009469" lon="13.933975381199492"><ele>242.0</ele><time>2026-04-18T08:23:17.999Z</time></trkpt><trkpt lat="42.35706853498351" lon="13.93385150953203"><ele>242.0</ele><time>2026-04-18T08:23:18.999Z</time></trkpt><trkpt lat="42.35709749864401" lon="13.933700581945294"><ele>242.0</ele><time>2026-04-18T08:23:19.999Z</time></trkpt><trkpt lat="42.357144522014764" lon="13.933527679160067"><ele>242.0</ele><time>2026-04-18T08:23:20.999Z</time></trkpt><trkpt lat="42.35720204318404" lon="13.93332125442243"><ele>245.33333333333334</ele><time>2026-04-18T08:23:21.999Z</time></trkpt><trkpt lat="42.35726558635494" lon="13.933106938837385"><ele>248.66666666666669</ele><time>2026-04-18T08:23:22.999Z</time></trkpt><trkpt lat="42.357333884575795" lon="13.932926366653696"><ele>252.0</ele><time>2026-04-18T08:23:23.999Z</time></trkpt><trkpt lat="42.35743309067271" lon="13.932770303424233"><ele>252.0</ele><time>2026-04-18T08:23:24.999Z</time></trkpt><trkpt lat="42.3575442325713" lon="13.932632097642712"><ele>252.0</ele><time>2026-04-18T08:23:26Z</time></trkpt><trkpt lat="42.3576253988841" lon="13.932506202455466"><ele>252.0</ele><time>2026-04-18T08:23:27Z</time></trkpt><trkpt lat="42.35765290500835" lon="13.932365662719807"><ele>252.0</ele><time>2026-04-18T08:23:28Z</time></trkpt><trkpt lat="42.357641203503746" lon="13.932205528170774"><ele>252.6</ele><time>2026-04-18T08:23:29Z</time></trkpt><trkpt lat="42.35759077290708" lon="13.932042577205461"><ele>253.2</ele><time>2026-04-18T08:23:30Z</time></trkpt><trkpt lat="42.357518610374285" lon="13.93188708248007"><ele>253.8</ele><time>2026-04-18T08:23:31Z</time></trkpt><trkpt lat="42.35748546550403" lon="13.931758882084083"><ele>254.4</ele><time>2026-04-18T08:23:32Z</time></trkpt><trkpt lat="42.35749289853034" lon="13.931658066196837"><ele>255.0</ele><time>2026-04-18T08:23:33Z</time></trkpt><trkpt lat="42.357514293414866" lon="13.931569892293302"><ele>256.8</ele><time>2026-04-18T08:23:34Z</time></trkpt><trkpt lat="42.35754142901567" lon="13.931484849786196"><ele>258.6</ele><time>2026-04-18T08:23:35Z</time></trkpt><trkpt lat="42.35756359009633" lon="13.93136549496108"><ele>260.4</ele><time>2026-04-18T08:23:36Z</time></trkpt><trkpt lat="42.35756470485307" lon="13.931225419931542"><ele>262.2</ele><time>2026-04-18T08:23:37Z</time></trkpt><trkpt lat="42.35754900465279" lon="13.93108009418333"><ele>264.0</ele><time>2026-04-18T08:23:38Z</time></trkpt><trkpt lat="42.357511358632856" lon="13.93093697291347"><ele>262.25</ele><time>2026-04-18T08:23:39Z</time></trkpt><trkpt lat="42.357442939884706" lon="13.930824722918185"><ele>260.5</ele><time>2026-04-18T08:23:40Z</time></trkpt><trkpt lat="42.35735443729141" lon="13.93073651591852"><ele>258.75</ele><time>2026-04-18T08:23:41Z</time></trkpt><trkpt lat="42.35722849550357" lon="13.930650433794563"><ele>257.0</ele><time>2026-04-18T08:23:42Z</time></trkpt><trkpt lat="42.35709444639334" lon="13.930565113096769"><ele>257.0</ele><time>2026-04-18T08:23:43Z</time></trkpt><trkpt lat="42.35697259197028" lon="13.930522302115467"><ele>257.0</ele><time>2026-04-18T08:23:44Z</time></trkpt><trkpt lat="42.35688698137324" lon="13.930478844435877"><ele>257.0</ele><time>2026-04-18T08:23:45Z</time></trkpt><trkpt lat="42.35683182190101" lon="13.930426278016409"><ele>257.0</ele><time>2026-04-18T08:23:46Z</time></trkpt><trkpt lat="42.356807210713804" lon="13.930253261940729"><ele>257.0</ele><time>2026-04-18T08:23:48Z</time></trkpt><trkpt lat="42.356790872071656" lon="13.930161669713854"><ele>260.2</ele><time>2026-04-18T08:23:49Z</time></trkpt><trkpt lat="42.35679904608451" lon="13.929974754951925"><ele>263.4</ele><time>2026-04-18T08:23:51Z</time></trkpt><trkpt lat="42.35679184310912" lon="13.929874266586545"><ele>266.6</ele><time>2026-04-18T08:23:52Z</time></trkpt><trkpt lat="42.35678362415266" lon="13.92976973771233"><ele>269.8</ele><time>2026-04-18T08:23:53Z</time></trkpt><trkpt lat="42.35678250459026" lon="13.929662166518781"><ele>273.0</ele><time>2026-04-18T08:23:54Z</time></trkpt><trkpt lat="42.35678261872451" lon="13.929545847521227"><ele>273.0</ele><time>2026-04-18T08:23:55Z</time></trkpt><trkpt lat="42.356772281638456" lon="13.929441106048895"><ele>273.0</ele><time>2026-04-18T08:23:56Z</time></trkpt><trkpt lat="42.35675479375933" lon="13.929316100437168"><ele>273.0</ele><time>2026-04-18T08:23:57Z</time></trkpt><trkpt lat="42.3567406770426" lon="13.929211092071743"><ele>273.0</ele><time>2026-04-18T08:23:58Z</time></trkpt><trkpt lat="42.356726586680004" lon="13.929086492699248"><ele>273.0</ele><time>2026-04-18T08:23:59Z</time></trkpt><trkpt lat="42.35672084388041" lon="13.928939217943276"><ele>275.75</ele><time>2026-04-18T08:24:00Z</time></trkpt><trkpt lat="42.356710186253366" lon="13.928773924420797"><ele>278.5</ele><time>2026-04-18T08:24:01Z</time></trkpt><trkpt lat="42.35670124949324" lon="13.92860102419272"><ele>281.25</ele><time>2026-04-18T08:24:02Z</time></trkpt><trkpt lat="42.35668660617511" lon="13.92842274607583"><ele>284.0</ele><time>2026-04-18T08:24:03Z</time></trkpt><trkpt lat="42.35665868736148" lon="13.92825609497662"><ele>286.75</ele><time>2026-04-18T08:24:04Z</time></trkpt><trkpt lat="42.35661694738183" lon="13.928092874616574"><ele>289.5</ele><time>2026-04-18T08:24:05Z</time></trkpt><trkpt lat="42.35656673677425" lon="13.927923562335224"><ele>292.25</ele><time>2026-04-18T08:24:06Z</time></trkpt><trkpt lat="42.35651400778001" lon="13.927755495598964"><ele>295.0</ele><time>2026-04-18T08:24:07Z</time></trkpt><trkpt lat="42.35646871397393" lon="13.927599261413011"><ele>295.0</ele><time>2026-04-18T08:24:08Z</time></trkpt><trkpt lat="42.35642373324131" lon="13.927439618322358"><ele>295.0</ele><time>2026-04-18T08:24:09Z</time></trkpt><trkpt lat="42.356376067325314" lon="13.92728045195328"><ele>295.0</ele><time>2026-04-18T08:24:10Z</time></trkpt><trkpt lat="42.35632977630668" lon="13.92711025142705"><ele>295.0</ele><time>2026-04-18T08:24:10.999Z</time></trkpt><trkpt lat="42.3562889315862" lon="13.926930290631375"><ele>295.0</ele><time>2026-04-18T08:24:11.999Z</time></trkpt><trkpt lat="42.35624546296124" lon="13.926758355354295"><ele>295.0</ele><time>2026-04-18T08:24:12.999Z</time></trkpt><trkpt lat="42.356192603703455" lon="13.926580199084315"><ele>295.0</ele><time>2026-04-18T08:24:13.999Z</time></trkpt><trkpt lat="42.35614537506543" lon="13.926393329253717"><ele>295.0</ele><time>2026-04-18T08:24:14.999Z</time></trkpt><trkpt lat="42.356099929043836" lon="13.92620788296565"><ele>295.75</ele><time>2026-04-18T08:24:15.999Z</time></trkpt><trkpt lat="42.356057587988566" lon="13.926031906068282"><ele>296.5</ele><time>2026-04-18T08:24:16.999Z</time></trkpt><trkpt lat="42.35601783207466" lon="13.925877271208268"><ele>297.25</ele><time>2026-04-18T08:24:17.999Z</time></trkpt><trkpt lat="42.35597844204455" lon="13.92573172444779"><ele>298.0</ele><time>2026-04-18T08:24:18.999Z</time></trkpt><trkpt lat="42.35594230133263" lon="13.925582105111616"><ele>299.5</ele><time>2026-04-18T08:24:19.999Z</time></trkpt><trkpt lat="42.35590858087788" lon="13.925426161674222"><ele>301.0</ele><time>2026-04-18T08:24:20.999Z</time></trkpt><trkpt lat="42.35587079098725" lon="13.925278218281683"><ele>302.5</ele><time>2026-04-18T08:24:21.999Z</time></trkpt><trkpt lat="42.35583006303513" lon="13.925131725942093"><ele>304.0</ele><time>2026-04-18T08:24:22.999Z</time></trkpt><trkpt lat="42.355804373632346" lon="13.924981818511007"><ele>304.8</ele><time>2026-04-18T08:24:23.999Z</time></trkpt><trkpt lat="42.35579902954815" lon="13.924836755105677"><ele>305.59999999999997</ele><time>2026-04-18T08:24:24.999Z</time></trkpt><trkpt lat="42.35579788411003" lon="13.924693611448856"><ele>306.4</ele><time>2026-04-18T08:24:25.999Z</time></trkpt><trkpt lat="42.35579262863429" lon="13.92456012586695"><ele>307.2</ele><time>2026-04-18T08:24:26.999Z</time></trkpt><trkpt lat="42.35579626122547" lon="13.924443341081542"><ele>308.0</ele><time>2026-04-18T08:24:27.999Z</time></trkpt><trkpt lat="42.35580249984763" lon="13.92433558602394"><ele>308.0</ele><time>2026-04-18T08:24:28.999Z</time></trkpt><trkpt lat="42.355807998921726" lon="13.924235423943369"><ele>308.0</ele><time>2026-04-18T08:24:29.999Z</time></trkpt><trkpt lat="42.35581427332353" lon="13.92414617115765"><ele>308.0</ele><time>2026-04-18T08:24:30.999Z</time></trkpt><trkpt lat="42.35581888963762" lon="13.92403792877319"><ele>308.0</ele><time>2026-04-18T08:24:32.999Z</time></trkpt><trkpt lat="42.35574083122305" lon="13.924023382519458"><ele>308.0</ele><time>2026-04-18T08:24:41.999Z</time></trkpt><trkpt lat="42.35566033741648" lon="13.92405321231898"><ele>308.0</ele><time>2026-04-18T08:24:44.999Z</time></trkpt><trkpt lat="42.35559744910336" lon="13.92408709267387"><ele>303.5</ele><time>2026-04-18T08:24:46.999Z</time></trkpt><trkpt lat="42.35548769896197" lon="13.924131528073419"><ele>299.0</ele><time>2026-04-18T08:24:48.999Z</time></trkpt><trkpt lat="42.35538365876921" lon="13.924195995016376"><ele>294.5</ele><time>2026-04-18T08:24:50.999Z</time></trkpt><trkpt lat="42.35527765020551" lon="13.92426617439794"><ele>290.0</ele><time>2026-04-18T08:24:52.999Z</time></trkpt><trkpt lat="42.35517264147074" lon="13.924336258190024"><ele>289.33333333333337</ele><time>2026-04-18T08:24:54.999Z</time></trkpt><trkpt lat="42.35507733868814" lon="13.92436595054546"><ele>288.6666666666667</ele><time>2026-04-18T08:24:56.999Z</time></trkpt><trkpt lat="42.35497897491438" lon="13.92440836474807"><ele>288.0</ele><time>2026-04-18T08:24:58.999Z</time></trkpt><trkpt lat="42.354922275093756" lon="13.924447218638267"><ele>287.3333333333333</ele><time>2026-04-18T08:24:59.999Z</time></trkpt><trkpt lat="42.35484201751844" lon="13.924503012566262"><ele>286.66666666666663</ele><time>2026-04-18T08:25:01.999Z</time></trkpt><trkpt lat="42.35477112235318" lon="13.924500335730833"><ele>286.0</ele><time>2026-04-18T08:25:03.999Z</time></trkpt><trkpt lat="42.35467003144233" lon="13.924513162487449"><ele>282.5</ele><time>2026-04-18T08:25:05.999Z</time></trkpt><trkpt lat="42.35459990269549" lon="13.924580873778366"><ele>279.0</ele><time>2026-04-18T08:25:08.999Z</time></trkpt><trkpt lat="42.35453282944711" lon="13.924620505293591"><ele>275.5</ele><time>2026-04-18T08:25:10.999Z</time></trkpt><trkpt lat="42.354457221221786" lon="13.924658333762046"><ele>272.0</ele><time>2026-04-18T08:25:13.999Z</time></trkpt><trkpt lat="42.354453922827176" lon="13.924753839876825"><ele>268.5</ele><time>2026-04-18T08:25:18Z</time></trkpt><trkpt lat="42.354474425256434" lon="13.92483511818751"><ele>265.0</ele><time>2026-04-18T08:25:23Z</time></trkpt><trkpt lat="42.35448628141765" lon="13.92493829837493"><ele>264.99999999999994</ele><time>2026-04-18T08:25:42.001Z</time></trkpt><trkpt lat="42.35447160402551" lon="13.925025064329533"><ele>265.0</ele><time>2026-04-18T08:25:50.001Z</time></trkpt><trkpt lat="42.35446399457602" lon="13.925109627686764"><ele>265.0</ele><time>2026-04-18T08:25:57.001Z</time></trkpt><trkpt lat="42.35441626146055" lon="13.925179684199104"><ele>265.0</ele><time>2026-04-18T08:26:01.001Z</time></trkpt><trkpt lat="42.354353933832684" lon="13.925160595993779"><ele>265.0</ele><time>2026-04-18T08:26:05.001Z</time></trkpt><trkpt lat="42.35427883943383" lon="13.925106210495743"><ele>264.99999999999994</ele><time>2026-04-18T08:26:08Z</time></trkpt><trkpt lat="42.35419925292267" lon="13.92504810821719"><ele>265.0</ele><time>2026-04-18T08:26:09Z</time></trkpt><trkpt lat="42.35408638269701" lon="13.9250160983594"><ele>265.0</ele><time>2026-04-18T08:26:11Z</time></trkpt><trkpt lat="42.353995345172905" lon="13.924998014654365"><ele>265.0</ele><time>2026-04-18T08:26:13Z</time></trkpt><trkpt lat="42.3539421490213" lon="13.924935985844593"><ele>265.0</ele><time>2026-04-18T08:26:15Z</time></trkpt><trkpt lat="42.353908048670675" lon="13.924862403025195"><ele>265.0</ele><time>2026-04-18T08:26:17Z</time></trkpt><trkpt lat="42.35386485109928" lon="13.924790292078212"><ele>265.0</ele><time>2026-04-18T08:26:19Z</time></trkpt><trkpt lat="42.35380581614761" lon="13.924743565045189"><ele>265.0</ele><time>2026-04-18T08:26:22Z</time></trkpt><trkpt lat="42.35386757244453" lon="13.924836137143398"><ele>265.0</ele><time>2026-04-18T08:28:34Z</time></trkpt><trkpt lat="42.35392293783206" lon="13.924917444557304"><ele>265.0</ele><time>2026-04-18T08:28:36Z</time></trkpt><trkpt lat="42.35396483697356" lon="13.924982349714918"><ele>265.0</ele><time>2026-04-18T08:28:39Z</time></trkpt><trkpt lat="42.35405414699124" lon="13.925024572223327"><ele>265.0</ele><time>2026-04-18T08:28:41Z</time></trkpt><trkpt lat="42.354132332660484" lon="13.925020782960237"><ele>265.0</ele><time>2026-04-18T08:28:43Z</time></trkpt><trkpt lat="42.354232990672045" lon="13.925078694377543"><ele>265.0</ele><time>2026-04-18T08:28:50Z</time></trkpt><trkpt lat="42.35430186414256" lon="13.925125889194161"><ele>265.0</ele><time>2026-04-18T08:28:52Z</time></trkpt><trkpt lat="42.35442329569063" lon="13.925174532087922"><ele>265.0</ele><time>2026-04-18T08:29:33.999Z</time></trkpt><trkpt lat="42.354459228824844" lon="13.925101927214751"><ele>265.0</ele><time>2026-04-18T08:29:35.999Z</time></trkpt><trkpt lat="42.35448012653582" lon="13.925004524710658"><ele>265.0</ele><time>2026-04-18T08:29:39.999Z</time></trkpt><trkpt lat="42.354463438471" lon="13.924900452688412"><ele>265.0</ele><time>2026-04-18T08:29:42.999Z</time></trkpt><trkpt lat="42.35444210690391" lon="13.924784048053635"><ele>265.0</ele><time>2026-04-18T08:29:45.001Z</time></trkpt><trkpt lat="42.35450167116006" lon="13.924715698038268"><ele>265.0</ele><time>2026-04-18T08:29:48.001Z</time></trkpt><trkpt lat="42.354571297898076" lon="13.924672746611737"><ele>265.0</ele><time>2026-04-18T08:29:50.001Z</time></trkpt><trkpt lat="42.354660207751174" lon="13.924586662135951"><ele>265.0</ele><time>2026-04-18T08:29:52.001Z</time></trkpt><trkpt lat="42.354717641272586" lon="13.924541760683379"><ele>265.0</ele><time>2026-04-18T08:29:53.001Z</time></trkpt><trkpt lat="42.35481889343071" lon="13.924523549451544"><ele>265.0</ele><time>2026-04-18T08:29:55.001Z</time></trkpt><trkpt lat="42.354881242849" lon="13.924504977951466"><ele>265.0</ele><time>2026-04-18T08:29:57.001Z</time></trkpt><trkpt lat="42.35497507546757" lon="13.924422833079678"><ele>268.5</ele><time>2026-04-18T08:29:59.001Z</time></trkpt><trkpt lat="42.355082552460054" lon="13.924378403052406"><ele>272.0</ele><time>2026-04-18T08:30:01.001Z</time></trkpt><trkpt lat="42.35514968322024" lon="13.924352003636495"><ele>275.5</ele><time>2026-04-18T08:30:02.001Z</time></trkpt><trkpt lat="42.355216814596076" lon="13.92432081993264"><ele>279.0</ele><time>2026-04-18T08:30:03.001Z</time></trkpt><trkpt lat="42.35527832607625" lon="13.924277843330616"><ele>282.5</ele><time>2026-04-18T08:30:04.001Z</time></trkpt><trkpt lat="42.35533656941653" lon="13.924232111511973"><ele>286.0</ele><time>2026-04-18T08:30:05.001Z</time></trkpt><trkpt lat="42.35540121213135" lon="13.924174821375171"><ele>286.66666666666663</ele><time>2026-04-18T08:30:06.001Z</time></trkpt><trkpt lat="42.35546217948996" lon="13.924135216460595"><ele>287.3333333333333</ele><time>2026-04-18T08:30:07.001Z</time></trkpt><trkpt lat="42.35557453638001" lon="13.924101216594723"><ele>288.0</ele><time>2026-04-18T08:30:09.001Z</time></trkpt><trkpt lat="42.35563838373877" lon="13.924084192611973"><ele>288.6666666666667</ele><time>2026-04-18T08:30:10.001Z</time></trkpt><trkpt lat="42.35569974542619" lon="13.924052638758646"><ele>289.33333333333337</ele><time>2026-04-18T08:30:11.001Z</time></trkpt><trkpt lat="42.35577807823157" lon="13.924012317922035"><ele>290.0</ele><time>2026-04-18T08:30:13.001Z</time></trkpt><trkpt lat="42.3558233139708" lon="13.923925664810078"><ele>294.0</ele><time>2026-04-18T08:30:20Z</time></trkpt><trkpt lat="42.35581994192239" lon="13.923835542857772"><ele>298.0</ele><time>2026-04-18T08:30:21Z</time></trkpt><trkpt lat="42.35583061961305" lon="13.92369009597824"><ele>302.0</ele><time>2026-04-18T08:30:22Z</time></trkpt><trkpt lat="42.35583571269908" lon="13.923526180091939"><ele>306.0</ele><time>2026-04-18T08:30:23Z</time></trkpt><trkpt lat="42.355836677562" lon="13.923364844263967"><ele>310.0</ele><time>2026-04-18T08:30:24Z</time></trkpt><trkpt lat="42.35582238954248" lon="13.923225153994986"><ele>310.8</ele><time>2026-04-18T08:30:25Z</time></trkpt><trkpt lat="42.35576958593677" lon="13.923107676795999"><ele>311.6</ele><time>2026-04-18T08:30:26Z</time></trkpt><trkpt lat="42.355706484485864" lon="13.922998469769162"><ele>312.4</ele><time>2026-04-18T08:30:27Z</time></trkpt><trkpt lat="42.355646114437235" lon="13.9228881988839"><ele>313.2</ele><time>2026-04-18T08:30:28Z</time></trkpt><trkpt lat="42.35558278963937" lon="13.92277644991959"><ele>314.0</ele><time>2026-04-18T08:30:29Z</time></trkpt><trkpt lat="42.35550188415903" lon="13.922658556920057"><ele>313.25</ele><time>2026-04-18T08:30:30Z</time></trkpt><trkpt lat="42.35542617393016" lon="13.922526216816415"><ele>312.5</ele><time>2026-04-18T08:30:31Z</time></trkpt><trkpt lat="42.355358525402416" lon="13.922388282826875"><ele>311.75</ele><time>2026-04-18T08:30:32Z</time></trkpt><trkpt lat="42.35529230869009" lon="13.922256303156082"><ele>311.0</ele><time>2026-04-18T08:30:33Z</time></trkpt><trkpt lat="42.35522719032916" lon="13.922118854045008"><ele>311.0</ele><time>2026-04-18T08:30:34Z</time></trkpt><trkpt lat="42.35514325243365" lon="13.921996743936903"><ele>311.0</ele><time>2026-04-18T08:30:35Z</time></trkpt><trkpt lat="42.35506471235854" lon="13.921892718565223"><ele>311.0</ele><time>2026-04-18T08:30:36Z</time></trkpt><trkpt lat="42.35501938191739" lon="13.921794127539414"><ele>311.0</ele><time>2026-04-18T08:30:37Z</time></trkpt><trkpt lat="42.354969137176944" lon="13.921697764238107"><ele>311.0</ele><time>2026-04-18T08:30:38Z</time></trkpt><trkpt lat="42.35491492966179" lon="13.92157817483586"><ele>310.5</ele><time>2026-04-18T08:30:39Z</time></trkpt><trkpt lat="42.354871154496934" lon="13.92146218331617"><ele>310.0</ele><time>2026-04-18T08:30:40Z</time></trkpt><trkpt lat="42.35483565840014" lon="13.921361956996972"><ele>309.5</ele><time>2026-04-18T08:30:41Z</time></trkpt><trkpt lat="42.35480082914116" lon="13.921273725862907"><ele>309.0</ele><time>2026-04-18T08:30:42Z</time></trkpt><trkpt lat="42.35476680850645" lon="13.921188818061301"><ele>308.5</ele><time>2026-04-18T08:30:43Z</time></trkpt><trkpt lat="42.35473472895963" lon="13.921097622362812"><ele>308.0</ele><time>2026-04-18T08:30:44Z</time></trkpt><trkpt lat="42.35470057564405" lon="13.920996024521171"><ele>308.0</ele><time>2026-04-18T08:30:45Z</time></trkpt><trkpt lat="42.354673462852105" lon="13.920916665999401"><ele>308.0</ele><time>2026-04-18T08:30:46Z</time></trkpt><trkpt lat="42.354640399847526" lon="13.920772326030676"><ele>308.0</ele><time>2026-04-18T08:30:48Z</time></trkpt><trkpt lat="42.354624439773296" lon="13.920685677361995"><ele>308.0</ele><time>2026-04-18T08:30:49Z</time></trkpt><trkpt lat="42.354612095585225" lon="13.920598672258356"><ele>308.0</ele><time>2026-04-18T08:30:50Z</time></trkpt><trkpt lat="42.35460067179889" lon="13.920506178161546"><ele>308.0</ele><time>2026-04-18T08:30:51Z</time></trkpt><trkpt lat="42.35459326105009" lon="13.920403885157526"><ele>310.4</ele><time>2026-04-18T08:30:52Z</time></trkpt><trkpt lat="42.35459312983413" lon="13.92029205488344"><ele>312.8</ele><time>2026-04-18T08:30:53Z</time></trkpt><trkpt lat="42.354593344259115" lon="13.920165156427547"><ele>315.2</ele><time>2026-04-18T08:30:54Z</time></trkpt><trkpt lat="42.35459736225708" lon="13.920031010722036"><ele>317.6</ele><time>2026-04-18T08:30:55Z</time></trkpt><trkpt lat="42.35460240190219" lon="13.919897426235915"><ele>320.0</ele><time>2026-04-18T08:30:56Z</time></trkpt><trkpt lat="42.354601717847025" lon="13.919741358353628"><ele>321.0</ele><time>2026-04-18T08:30:57Z</time></trkpt><trkpt lat="42.35459813163849" lon="13.919557359825616"><ele>322.0</ele><time>2026-04-18T08:30:58Z</time></trkpt><trkpt lat="42.354596070207485" lon="13.91937109831125"><ele>323.0</ele><time>2026-04-18T08:30:59Z</time></trkpt><trkpt lat="42.35459237213254" lon="13.919188653739067"><ele>324.0</ele><time>2026-04-18T08:31:00Z</time></trkpt><trkpt lat="42.35459150686291" lon="13.919004117535598"><ele>324.75</ele><time>2026-04-18T08:31:01Z</time></trkpt><trkpt lat="42.35459256530379" lon="13.918809977918787"><ele>325.5</ele><time>2026-04-18T08:31:02Z</time></trkpt><trkpt lat="42.354594099240536" lon="13.91863135659329"><ele>326.25</ele><time>2026-04-18T08:31:03Z</time></trkpt><trkpt lat="42.35459117636879" lon="13.918440527320458"><ele>327.0</ele><time>2026-04-18T08:31:04Z</time></trkpt><trkpt lat="42.35458199911169" lon="13.918230789690561"><ele>328.6666666666667</ele><time>2026-04-18T08:31:05Z</time></trkpt><trkpt lat="42.35456467185012" lon="13.918019012546045"><ele>330.33333333333337</ele><time>2026-04-18T08:31:06Z</time></trkpt><trkpt lat="42.35454516821214" lon="13.917806854925578"><ele>332.0</ele><time>2026-04-18T08:31:07Z</time></trkpt><trkpt lat="42.35452221967858" lon="13.917603108175387"><ele>332.5</ele><time>2026-04-18T08:31:08Z</time></trkpt><trkpt lat="42.3545029099772" lon="13.917421282822344"><ele>333.0</ele><time>2026-04-18T08:31:09Z</time></trkpt><trkpt lat="42.35448288932954" lon="13.917269582988336"><ele>333.5</ele><time>2026-04-18T08:31:10Z</time></trkpt><trkpt lat="42.354465815680456" lon="13.917128034211794"><ele>334.0</ele><time>2026-04-18T08:31:11Z</time></trkpt><trkpt lat="42.35444764470112" lon="13.916977076969438"><ele>334.0</ele><time>2026-04-18T08:31:12Z</time></trkpt><trkpt lat="42.35442383613044" lon="13.9168062325727"><ele>334.0</ele><time>2026-04-18T08:31:13Z</time></trkpt><trkpt lat="42.35437305447683" lon="13.916642569436592"><ele>334.0</ele><time>2026-04-18T08:31:14Z</time></trkpt><trkpt lat="42.35430062480733" lon="13.916484394927554"><ele>334.0</ele><time>2026-04-18T08:31:15Z</time></trkpt><trkpt lat="42.35419006131651" lon="13.916356778607554"><ele>334.0</ele><time>2026-04-18T08:31:16Z</time></trkpt><trkpt lat="42.35409725648051" lon="13.916220937104322"><ele>334.0</ele><time>2026-04-18T08:31:17Z</time></trkpt><trkpt lat="42.353998533244635" lon="13.916111256580507"><ele>334.0</ele><time>2026-04-18T08:31:18Z</time></trkpt><trkpt lat="42.35390083228363" lon="13.916005901177753"><ele>334.0</ele><time>2026-04-18T08:31:19Z</time></trkpt><trkpt lat="42.35381099594551" lon="13.915896193075753"><ele>334.0</ele><time>2026-04-18T08:31:20Z</time></trkpt><trkpt lat="42.35371763373744" lon="13.915796598943158"><ele>334.0</ele><time>2026-04-18T08:31:21Z</time></trkpt><trkpt lat="42.35364518130472" lon="13.915674229168545"><ele>334.0</ele><time>2026-04-18T08:31:22Z</time></trkpt><trkpt lat="42.35358252947607" lon="13.915537520345827"><ele>334.0</ele><time>2026-04-18T08:31:23Z</time></trkpt><trkpt lat="42.35352858696244" lon="13.915387690800928"><ele>334.0</ele><time>2026-04-18T08:31:24Z</time></trkpt><trkpt lat="42.353478389402504" lon="13.91524120852294"><ele>334.0</ele><time>2026-04-18T08:31:25Z</time></trkpt><trkpt lat="42.353431051345424" lon="13.91509409384177"><ele>334.0</ele><time>2026-04-18T08:31:26Z</time></trkpt><trkpt lat="42.35339042860613" lon="13.914954080783568"><ele>334.0</ele><time>2026-04-18T08:31:27Z</time></trkpt><trkpt lat="42.353347302937756" lon="13.914802580979549"><ele>334.75</ele><time>2026-04-18T08:31:28Z</time></trkpt><trkpt lat="42.35329700145312" lon="13.914640005162346"><ele>335.5</ele><time>2026-04-18T08:31:29Z</time></trkpt><trkpt lat="42.353239265122674" lon="13.91448213235663"><ele>336.25</ele><time>2026-04-18T08:31:30Z</time></trkpt><trkpt lat="42.35318199237237" lon="13.91433290203703"><ele>337.0</ele><time>2026-04-18T08:31:31Z</time></trkpt><trkpt lat="42.353128284203635" lon="13.914183448668553"><ele>338.0</ele><time>2026-04-18T08:31:32Z</time></trkpt><trkpt lat="42.353074448074565" lon="13.914034738291505"><ele>339.0</ele><time>2026-04-18T08:31:33Z</time></trkpt><trkpt lat="42.35301465107035" lon="13.913882296343402"><ele>340.0</ele><time>2026-04-18T08:31:34Z</time></trkpt><trkpt lat="42.352954459896175" lon="13.91372897549002"><ele>341.0</ele><time>2026-04-18T08:31:35Z</time></trkpt><trkpt lat="42.35289707426678" lon="13.913570848426371"><ele>340.0</ele><time>2026-04-18T08:31:36Z</time></trkpt><trkpt lat="42.352851319573304" lon="13.913418308241962"><ele>339.0</ele><time>2026-04-18T08:31:36.999Z</time></trkpt><trkpt lat="42.35282252179099" lon="13.913271777678395"><ele>338.0</ele><time>2026-04-18T08:31:37.999Z</time></trkpt><trkpt lat="42.3528175679517" lon="13.913121526007979"><ele>337.0</ele><time>2026-04-18T08:31:38.999Z</time></trkpt><trkpt lat="42.35284113992646" lon="13.912967597351033"><ele>337.0</ele><time>2026-04-18T08:31:39.999Z</time></trkpt><trkpt lat="42.35287299535761" lon="13.912826026292224"><ele>337.0</ele><time>2026-04-18T08:31:40.999Z</time></trkpt><trkpt lat="42.352910279637314" lon="13.912679639730786"><ele>337.0</ele><time>2026-04-18T08:31:41.999Z</time></trkpt><trkpt lat="42.35294554254782" lon="13.912510735634084"><ele>337.0</ele><time>2026-04-18T08:31:42.999Z</time></trkpt><trkpt lat="42.35297778762458" lon="13.912322109449738"><ele>338.5</ele><time>2026-04-18T08:31:43.999Z</time></trkpt><trkpt lat="42.352999344612925" lon="13.91211901285243"><ele>340.0</ele><time>2026-04-18T08:31:44.999Z</time></trkpt><trkpt lat="42.353018149337814" lon="13.911926572301004"><ele>341.5</ele><time>2026-04-18T08:31:45.999Z</time></trkpt><trkpt lat="42.35303743402444" lon="13.911739299912298"><ele>343.0</ele><time>2026-04-18T08:31:46.999Z</time></trkpt><trkpt lat="42.35305622185065" lon="13.91155173942785"><ele>345.25</ele><time>2026-04-18T08:31:47.999Z</time></trkpt><trkpt lat="42.353077907735646" lon="13.911373802797522"><ele>347.5</ele><time>2026-04-18T08:31:48.999Z</time></trkpt><trkpt lat="42.35310183841374" lon="13.911201644388752"><ele>349.75</ele><time>2026-04-18T08:31:50.001Z</time></trkpt><trkpt lat="42.35312801001171" lon="13.911028159393444"><ele>352.0</ele><time>2026-04-18T08:31:51.001Z</time></trkpt><trkpt lat="42.35316482206466" lon="13.91085348988855"><ele>353.3333333333333</ele><time>2026-04-18T08:31:52.001Z</time></trkpt><trkpt lat="42.35321792620601" lon="13.910669264164389"><ele>354.6666666666667</ele><time>2026-04-18T08:31:53.001Z</time></trkpt><trkpt lat="42.35329509334421" lon="13.910481416664766"><ele>356.0</ele><time>2026-04-18T08:31:54.001Z</time></trkpt><trkpt lat="42.35339191526459" lon="13.910303034200831"><ele>356.0</ele><time>2026-04-18T08:31:55.001Z</time></trkpt><trkpt lat="42.35348208495394" lon="13.910120280959037"><ele>356.0</ele><time>2026-04-18T08:31:56.001Z</time></trkpt><trkpt lat="42.35355727670215" lon="13.909949120168639"><ele>356.0</ele><time>2026-04-18T08:31:57.001Z</time></trkpt><trkpt lat="42.353628120467846" lon="13.909779348022084"><ele>357.25</ele><time>2026-04-18T08:31:58.001Z</time></trkpt><trkpt lat="42.35370398871283" lon="13.909603839641822"><ele>358.5</ele><time>2026-04-18T08:31:59.001Z</time></trkpt><trkpt lat="42.353784266276534" lon="13.909445490709704"><ele>359.75</ele><time>2026-04-18T08:32:00.001Z</time></trkpt><trkpt lat="42.35385657287856" lon="13.909281559216579"><ele>361.0</ele><time>2026-04-18T08:32:01.001Z</time></trkpt><trkpt lat="42.35392840094567" lon="13.909132631583171"><ele>363.75</ele><time>2026-04-18T08:32:02.001Z</time></trkpt><trkpt lat="42.35400285894889" lon="13.908971921265406"><ele>366.5</ele><time>2026-04-18T08:32:03.001Z</time></trkpt><trkpt lat="42.35407268775295" lon="13.90881575873521"><ele>369.25</ele><time>2026-04-18T08:32:04.001Z</time></trkpt><trkpt lat="42.35414243256674" lon="13.908664706003195"><ele>372.0</ele><time>2026-04-18T08:32:05.001Z</time></trkpt><trkpt lat="42.354210734139826" lon="13.908513360253538"><ele>373.40000000000003</ele><time>2026-04-18T08:32:06.001Z</time></trkpt><trkpt lat="42.35427498703927" lon="13.908374039989747"><ele>374.8</ele><time>2026-04-18T08:32:07.001Z</time></trkpt><trkpt lat="42.35432512251485" lon="13.908241584228227"><ele>376.2</ele><time>2026-04-18T08:32:08.001Z</time></trkpt><trkpt lat="42.354351217887256" lon="13.908109668591793"><ele>377.6</ele><time>2026-04-18T08:32:09.001Z</time></trkpt><trkpt lat="42.354359363921155" lon="13.907956509648788"><ele>379.0</ele><time>2026-04-18T08:32:10.001Z</time></trkpt><trkpt lat="42.354351908804176" lon="13.90779555472713"><ele>379.0</ele><time>2026-04-18T08:32:11.001Z</time></trkpt><trkpt lat="42.3543170932869" lon="13.907629094326335"><ele>379.0</ele><time>2026-04-18T08:32:12.001Z</time></trkpt><trkpt lat="42.35426057811965" lon="13.907456744726986"><ele>379.0</ele><time>2026-04-18T08:32:13.001Z</time></trkpt><trkpt lat="42.35419633764405" lon="13.907267216718733"><ele>379.0</ele><time>2026-04-18T08:32:14.001Z</time></trkpt><trkpt lat="42.35413060143199" lon="13.90707221053902"><ele>380.66666666666663</ele><time>2026-04-18T08:32:15.001Z</time></trkpt><trkpt lat="42.35406738908361" lon="13.906881736825296"><ele>382.3333333333333</ele><time>2026-04-18T08:32:16Z</time></trkpt><trkpt lat="42.3540070044632" lon="13.906689299947166"><ele>384.0</ele><time>2026-04-18T08:32:17Z</time></trkpt><trkpt lat="42.35393564122581" lon="13.906493323369995"><ele>385.0</ele><time>2026-04-18T08:32:18Z</time></trkpt><trkpt lat="42.35386747726028" lon="13.90631040803894"><ele>386.0</ele><time>2026-04-18T08:32:19Z</time></trkpt><trkpt lat="42.353794328388055" lon="13.906137662999061"><ele>387.0</ele><time>2026-04-18T08:32:20Z</time></trkpt><trkpt lat="42.3537032052609" lon="13.905968477909443"><ele>389.66666666666663</ele><time>2026-04-18T08:32:21Z</time></trkpt><trkpt lat="42.35360200659056" lon="13.905799472298746"><ele>392.3333333333333</ele><time>2026-04-18T08:32:22Z</time></trkpt><trkpt lat="42.353496567970694" lon="13.905639101719766"><ele>395.0</ele><time>2026-04-18T08:32:23Z</time></trkpt><trkpt lat="42.35339459443653" lon="13.905484836693567"><ele>395.0</ele><time>2026-04-18T08:32:24Z</time></trkpt><trkpt lat="42.35329816286118" lon="13.905322300756431"><ele>395.0</ele><time>2026-04-18T08:32:25Z</time></trkpt><trkpt lat="42.353208865151394" lon="13.905161144535056"><ele>395.0</ele><time>2026-04-18T08:32:26Z</time></trkpt><trkpt lat="42.35310310108145" lon="13.905004394171675"><ele>395.66666666666663</ele><time>2026-04-18T08:32:27Z</time></trkpt><trkpt lat="42.35299021856176" lon="13.904852662823712"><ele>396.33333333333337</ele><time>2026-04-18T08:32:28Z</time></trkpt><trkpt lat="42.35289595917352" lon="13.904694880336502"><ele>397.0</ele><time>2026-04-18T08:32:29Z</time></trkpt><trkpt lat="42.352810141360564" lon="13.904536638485286"><ele>397.0</ele><time>2026-04-18T08:32:30Z</time></trkpt><trkpt lat="42.352720465262465" lon="13.904398683457083"><ele>397.0</ele><time>2026-04-18T08:32:31Z</time></trkpt><trkpt lat="42.352639540847285" lon="13.904273891312672"><ele>397.0</ele><time>2026-04-18T08:32:32Z</time></trkpt><trkpt lat="42.352573695329596" lon="13.904162049063919"><ele>397.0</ele><time>2026-04-18T08:32:33Z</time></trkpt><trkpt lat="42.35250968795427" lon="13.90405280246818"><ele>398.0</ele><time>2026-04-18T08:32:34Z</time></trkpt><trkpt lat="42.352453770365244" lon="13.903939216826313"><ele>399.0</ele><time>2026-04-18T08:32:35Z</time></trkpt><trkpt lat="42.35241667634171" lon="13.903822403518369"><ele>400.0</ele><time>2026-04-18T08:32:36Z</time></trkpt><trkpt lat="42.35240278276739" lon="13.903702044354464"><ele>401.0</ele><time>2026-04-18T08:32:37Z</time></trkpt><trkpt lat="42.35239949692988" lon="13.90358388510299"><ele>402.0</ele><time>2026-04-18T08:32:38Z</time></trkpt><trkpt lat="42.35239274443682" lon="13.903474991722668"><ele>402.0</ele><time>2026-04-18T08:32:39Z</time></trkpt><trkpt lat="42.352379422452906" lon="13.903349462091622"><ele>402.0</ele><time>2026-04-18T08:32:40Z</time></trkpt><trkpt lat="42.35235421391702" lon="13.90321887079665"><ele>402.0</ele><time>2026-04-18T08:32:41Z</time></trkpt><trkpt lat="42.35234772928774" lon="13.903094298858624"><ele>402.0</ele><time>2026-04-18T08:32:42Z</time></trkpt><trkpt lat="42.35233535798069" lon="13.902960211841762"><ele>402.0</ele><time>2026-04-18T08:32:43Z</time></trkpt><trkpt lat="42.35231935844279" lon="13.902813520159254"><ele>402.0</ele><time>2026-04-18T08:32:44Z</time></trkpt><trkpt lat="42.35230342101906" lon="13.90267058745583"><ele>402.0</ele><time>2026-04-18T08:32:45Z</time></trkpt><trkpt lat="42.35229079194574" lon="13.902539316967149"><ele>402.0</ele><time>2026-04-18T08:32:46Z</time></trkpt><trkpt lat="42.352273853022396" lon="13.902399271951346"><ele>402.0</ele><time>2026-04-18T08:32:47Z</time></trkpt><trkpt lat="42.35225551515991" lon="13.902269051786055"><ele>402.0</ele><time>2026-04-18T08:32:48Z</time></trkpt><trkpt lat="42.35224383802544" lon="13.902129897824098"><ele>401.6</ele><time>2026-04-18T08:32:49Z</time></trkpt><trkpt lat="42.352230101781615" lon="13.901999406303794"><ele>401.20000000000005</ele><time>2026-04-18T08:32:50Z</time></trkpt><trkpt lat="42.3522016569747" lon="13.901871429300575"><ele>400.8</ele><time>2026-04-18T08:32:51Z</time></trkpt><trkpt lat="42.35216303363511" lon="13.901731780162367"><ele>400.4</ele><time>2026-04-18T08:32:52Z</time></trkpt><trkpt lat="42.35212266677647" lon="13.901605170569727"><ele>400.0</ele><time>2026-04-18T08:32:53Z</time></trkpt><trkpt lat="42.352099949529034" lon="13.901466379866072"><ele>398.0</ele><time>2026-04-18T08:32:54Z</time></trkpt><trkpt lat="42.35206769840668" lon="13.901313529894114"><ele>396.0</ele><time>2026-04-18T08:32:55Z</time></trkpt><trkpt lat="42.352030567631836" lon="13.901154663946324"><ele>394.0</ele><time>2026-04-18T08:32:56Z</time></trkpt><trkpt lat="42.35201470043014" lon="13.900974423822943"><ele>392.0</ele><time>2026-04-18T08:32:57Z</time></trkpt><trkpt lat="42.352024598057376" lon="13.90075826491825"><ele>391.0</ele><time>2026-04-18T08:32:58Z</time></trkpt><trkpt lat="42.3520510453656" lon="13.900514448665435"><ele>390.0</ele><time>2026-04-18T08:32:59Z</time></trkpt><trkpt lat="42.35208749599359" lon="13.900251482075678"><ele>389.0</ele><time>2026-04-18T08:33:00Z</time></trkpt><trkpt lat="42.35211961156699" lon="13.899999371699312"><ele>388.25</ele><time>2026-04-18T08:33:01Z</time></trkpt><trkpt lat="42.352142002296844" lon="13.899781118025041"><ele>387.5</ele><time>2026-04-18T08:33:02Z</time></trkpt><trkpt lat="42.352164052542534" lon="13.899575239840928"><ele>386.75</ele><time>2026-04-18T08:33:03Z</time></trkpt><trkpt lat="42.35217203482938" lon="13.899414649913846"><ele>386.0</ele><time>2026-04-18T08:33:04Z</time></trkpt><trkpt lat="42.35218295935373" lon="13.899278112395894"><ele>386.16666666666663</ele><time>2026-04-18T08:33:05Z</time></trkpt><trkpt lat="42.35220303109478" lon="13.899154952260862"><ele>386.3333333333333</ele><time>2026-04-18T08:33:06Z</time></trkpt><trkpt lat="42.35221986668728" lon="13.89905983657485"><ele>386.5</ele><time>2026-04-18T08:33:07Z</time></trkpt><trkpt lat="42.352175631792235" lon="13.898972524302302"><ele>386.66666666666663</ele><time>2026-04-18T08:33:45.999Z</time></trkpt><trkpt lat="42.352107898555836" lon="13.89896764351825"><ele>386.8333333333333</ele><time>2026-04-18T08:33:46.999Z</time></trkpt><trkpt lat="42.35201748478556" lon="13.898935489361591"><ele>387.0</ele><time>2026-04-18T08:33:47.999Z</time></trkpt><trkpt lat="42.35190693840933" lon="13.89887394998302"><ele>387.0</ele><time>2026-04-18T08:33:48.999Z</time></trkpt><trkpt lat="42.35179997446975" lon="13.898809646600935"><ele>387.0</ele><time>2026-04-18T08:33:49.999Z</time></trkpt><trkpt lat="42.35170873577178" lon="13.898728391830025"><ele>387.0</ele><time>2026-04-18T08:33:50.999Z</time></trkpt><trkpt lat="42.351627637510965" lon="13.89870449474719"><ele>387.0</ele><time>2026-04-18T08:33:51.999Z</time></trkpt><trkpt lat="42.35155245890147" lon="13.89864584794035"><ele>387.0</ele><time>2026-04-18T08:33:52.999Z</time></trkpt><trkpt lat="42.35147051010493" lon="13.898586634858992"><ele>387.0</ele><time>2026-04-18T08:33:53.999Z</time></trkpt><trkpt lat="42.35140984551848" lon="13.898536032688442"><ele>387.0</ele><time>2026-04-18T08:33:54.999Z</time></trkpt><trkpt lat="42.351337697695044" lon="13.89849484574089"><ele>387.0</ele><time>2026-04-18T08:33:56.001Z</time></trkpt><trkpt lat="42.351284991493856" lon="13.898427721410195"><ele>387.0</ele><time>2026-04-18T08:33:57.001Z</time></trkpt><trkpt lat="42.35122698841001" lon="13.898360023800407"><ele>387.0</ele><time>2026-04-18T08:33:58.001Z</time></trkpt><trkpt lat="42.35117000316491" lon="13.89827146723263"><ele>387.0</ele><time>2026-04-18T08:33:59.001Z</time></trkpt><trkpt lat="42.35111561759604" lon="13.898201545152844"><ele>386.6666666666667</ele><time>2026-04-18T08:34:00.001Z</time></trkpt><trkpt lat="42.35105942077384" lon="13.898113276144905"><ele>386.33333333333337</ele><time>2026-04-18T08:34:01.001Z</time></trkpt><trkpt lat="42.351034069044026" lon="13.898032883855937"><ele>386.0</ele><time>2026-04-18T08:34:02.001Z</time></trkpt><trkpt lat="42.350974286763524" lon="13.897955354798217"><ele>385.6666666666667</ele><time>2026-04-18T08:34:03.001Z</time></trkpt><trkpt lat="42.35086600303971" lon="13.89786993892354"><ele>385.33333333333337</ele><time>2026-04-18T08:34:05.001Z</time></trkpt><trkpt lat="42.350812945621975" lon="13.897804862414084"><ele>385.0</ele><time>2026-04-18T08:34:06.001Z</time></trkpt><trkpt lat="42.35076700003774" lon="13.897745464101002"><ele>385.0</ele><time>2026-04-18T08:34:07.001Z</time></trkpt><trkpt lat="42.350689141639016" lon="13.897660027761654"><ele>385.0</ele><time>2026-04-18T08:34:09.001Z</time></trkpt><trkpt lat="42.350605680880854" lon="13.897657771866484"><ele>385.0</ele><time>2026-04-18T08:34:11.001Z</time></trkpt><trkpt lat="42.35054953702366" lon="13.897713117150738"><ele>385.0</ele><time>2026-04-18T08:34:12.001Z</time></trkpt><trkpt lat="42.35047517240539" lon="13.897830294863143"><ele>385.0</ele><time>2026-04-18T08:34:13.001Z</time></trkpt><trkpt lat="42.35039401299122" lon="13.89795390297114"><ele>383.0</ele><time>2026-04-18T08:34:14.001Z</time></trkpt><trkpt lat="42.35028924000728" lon="13.89806075163176"><ele>381.0</ele><time>2026-04-18T08:34:15.001Z</time></trkpt><trkpt lat="42.350185519390685" lon="13.89816659703926"><ele>379.0</ele><time>2026-04-18T08:34:16.001Z</time></trkpt><trkpt lat="42.35009351224697" lon="13.898278854607849"><ele>377.0</ele><time>2026-04-18T08:34:17Z</time></trkpt><trkpt lat="42.35000441814252" lon="13.898382485713517"><ele>375.6</ele><time>2026-04-18T08:34:18Z</time></trkpt><trkpt lat="42.34991656841388" lon="13.898479530866927"><ele>374.20000000000005</ele><time>2026-04-18T08:34:19Z</time></trkpt><trkpt lat="42.34982993212223" lon="13.89857691698558"><ele>372.8</ele><time>2026-04-18T08:34:20Z</time></trkpt><trkpt lat="42.349747278477366" lon="13.898672264121277"><ele>371.4</ele><time>2026-04-18T08:34:21Z</time></trkpt><trkpt lat="42.349660329842244" lon="13.898749638006334"><ele>370.0</ele><time>2026-04-18T08:34:22Z</time></trkpt><trkpt lat="42.34956297941276" lon="13.898817019283921"><ele>367.6</ele><time>2026-04-18T08:34:23Z</time></trkpt><trkpt lat="42.34946428838274" lon="13.898847932138306"><ele>365.2</ele><time>2026-04-18T08:34:24Z</time></trkpt><trkpt lat="42.34935748962709" lon="13.898851354284744"><ele>362.79999999999995</ele><time>2026-04-18T08:34:25Z</time></trkpt><trkpt lat="42.3492521928654" lon="13.898817568803471"><ele>360.4</ele><time>2026-04-18T08:34:26Z</time></trkpt><trkpt lat="42.34915732308695" lon="13.898749096412395"><ele>358.0</ele><time>2026-04-18T08:34:27Z</time></trkpt><trkpt lat="42.34906640573724" lon="13.898692724696964"><ele>358.0</ele><time>2026-04-18T08:34:28Z</time></trkpt><trkpt lat="42.3489888690931" lon="13.898684605921764"><ele>358.0</ele><time>2026-04-18T08:34:29Z</time></trkpt><trkpt lat="42.34888933248267" lon="13.898662804241857"><ele>358.0</ele><time>2026-04-18T08:34:31Z</time></trkpt><trkpt lat="42.34882230502943" lon="13.898522777615309"><ele>358.0</ele><time>2026-04-18T08:34:33Z</time></trkpt><trkpt lat="42.34882901192" lon="13.8984137781475"><ele>358.0</ele><time>2026-04-18T08:34:34Z</time></trkpt><trkpt lat="42.348839713607795" lon="13.89830646103487"><ele>359.2</ele><time>2026-04-18T08:34:35Z</time></trkpt><trkpt lat="42.348866559191606" lon="13.898199290006621"><ele>360.4</ele><time>2026-04-18T08:34:36Z</time></trkpt><trkpt lat="42.34889822798806" lon="13.898053839720722"><ele>361.59999999999997</ele><time>2026-04-18T08:34:37Z</time></trkpt><trkpt lat="42.348928785480055" lon="13.897890738283653"><ele>362.79999999999995</ele><time>2026-04-18T08:34:38Z</time></trkpt><trkpt lat="42.34895279245525" lon="13.897725200880068"><ele>364.0</ele><time>2026-04-18T08:34:39Z</time></trkpt><trkpt lat="42.34900366898175" lon="13.897576559964879"><ele>364.0</ele><time>2026-04-18T08:34:40Z</time></trkpt><trkpt lat="42.34907279035303" lon="13.897443671491544"><ele>364.0</ele><time>2026-04-18T08:34:41Z</time></trkpt><trkpt lat="42.349122215110356" lon="13.89731407773399"><ele>364.0</ele><time>2026-04-18T08:34:42Z</time></trkpt><trkpt lat="42.34914848352854" lon="13.897170481513953"><ele>364.0</ele><time>2026-04-18T08:34:43Z</time></trkpt><trkpt lat="42.34917545136921" lon="13.897036880915039"><ele>364.0</ele><time>2026-04-18T08:34:44Z</time></trkpt><trkpt lat="42.349192657234546" lon="13.896910527333901"><ele>364.0</ele><time>2026-04-18T08:34:45Z</time></trkpt><trkpt lat="42.34919196668388" lon="13.896795460906871"><ele>364.0</ele><time>2026-04-18T08:34:46Z</time></trkpt><trkpt lat="42.34917732620637" lon="13.896692133493692"><ele>364.0</ele><time>2026-04-18T08:34:47Z</time></trkpt><trkpt lat="42.34912861265021" lon="13.896593251204854"><ele>364.0</ele><time>2026-04-18T08:34:48Z</time></trkpt><trkpt lat="42.349068593877504" lon="13.89649894924974"><ele>364.0</ele><time>2026-04-18T08:34:49Z</time></trkpt><trkpt lat="42.3490187067136" lon="13.896405490106657"><ele>364.0</ele><time>2026-04-18T08:34:50Z</time></trkpt><trkpt lat="42.348985314164516" lon="13.896298606563859"><ele>364.14285714285717</ele><time>2026-04-18T08:34:51Z</time></trkpt><trkpt lat="42.34895606945055" lon="13.896202016898444"><ele>364.2857142857143</ele><time>2026-04-18T08:34:52Z</time></trkpt><trkpt lat="42.34894153171444" lon="13.896099895897922"><ele>364.42857142857144</ele><time>2026-04-18T08:34:53Z</time></trkpt><trkpt lat="42.34892643963242" lon="13.895998808657632"><ele>364.57142857142856</ele><time>2026-04-18T08:34:54Z</time></trkpt><trkpt lat="42.34890684830508" lon="13.895895096031"><ele>364.7142857142857</ele><time>2026-04-18T08:34:55Z</time></trkpt><trkpt lat="42.34888751604667" lon="13.895799530067277"><ele>364.8571428571429</ele><time>2026-04-18T08:34:56Z</time></trkpt><trkpt lat="42.34886357926473" lon="13.89571571152632"><ele>365.0</ele><time>2026-04-18T08:34:57Z</time></trkpt><trkpt lat="42.34883515182045" lon="13.895638279247827"><ele>362.5</ele><time>2026-04-18T08:34:58Z</time></trkpt><trkpt lat="42.3488054814327" lon="13.895561824533868"><ele>360.0</ele><time>2026-04-18T08:34:59Z</time></trkpt><trkpt lat="42.34874392303708" lon="13.89550345255235"><ele>357.5</ele><time>2026-04-18T08:35:00Z</time></trkpt><trkpt lat="42.3486538599142" lon="13.895466666472315"><ele>355.0</ele><time>2026-04-18T08:35:01Z</time></trkpt><trkpt lat="42.34855055020202" lon="13.89546357824123"><ele>352.5</ele><time>2026-04-18T08:35:02Z</time></trkpt><trkpt lat="42.348457921559024" lon="13.895473075943505"><ele>350.0</ele><time>2026-04-18T08:35:03Z</time></trkpt><trkpt lat="42.34836203126854" lon="13.895506968690182"><ele>350.0</ele><time>2026-04-18T08:35:04Z</time></trkpt><trkpt lat="42.34828213950878" lon="13.895593088183855"><ele>350.0</ele><time>2026-04-18T08:35:05Z</time></trkpt><trkpt lat="42.348226828810105" lon="13.895719236958204"><ele>350.0</ele><time>2026-04-18T08:35:06Z</time></trkpt><trkpt lat="42.34819454552123" lon="13.89584336883614"><ele>350.0</ele><time>2026-04-18T08:35:07Z</time></trkpt><trkpt lat="42.348158691704064" lon="13.895962439030262"><ele>350.0</ele><time>2026-04-18T08:35:08Z</time></trkpt><trkpt lat="42.34811053926925" lon="13.896031581291508"><ele>344.8</ele><time>2026-04-18T08:35:09Z</time></trkpt><trkpt lat="42.34801689438406" lon="13.896104010768367"><ele>339.6</ele><time>2026-04-18T08:35:10Z</time></trkpt><trkpt lat="42.347921036256736" lon="13.896125373779283"><ele>334.4</ele><time>2026-04-18T08:35:11Z</time></trkpt><trkpt lat="42.34781698098664" lon="13.896134732049491"><ele>329.2</ele><time>2026-04-18T08:35:12Z</time></trkpt><trkpt lat="42.347725257908714" lon="13.896118880416184"><ele>324.0</ele><time>2026-04-18T08:35:13Z</time></trkpt><trkpt lat="42.347633383388526" lon="13.896093932314871"><ele>324.0</ele><time>2026-04-18T08:35:14Z</time></trkpt><trkpt lat="42.3475456052053" lon="13.896067016325615"><ele>324.0</ele><time>2026-04-18T08:35:15Z</time></trkpt><trkpt lat="42.34746053737235" lon="13.896024468397792"><ele>324.0</ele><time>2026-04-18T08:35:16Z</time></trkpt><trkpt lat="42.3473790415419" lon="13.895982861729008"><ele>324.0</ele><time>2026-04-18T08:35:17Z</time></trkpt><trkpt lat="42.347295330753745" lon="13.89593403431241"><ele>324.0</ele><time>2026-04-18T08:35:18Z</time></trkpt><trkpt lat="42.34720899834514" lon="13.89590113474789"><ele>324.0</ele><time>2026-04-18T08:35:19Z</time></trkpt><trkpt lat="42.34711920603437" lon="13.89587456228902"><ele>323.5</ele><time>2026-04-18T08:35:20Z</time></trkpt><trkpt lat="42.347031584471736" lon="13.895869375088802"><ele>323.0</ele><time>2026-04-18T08:35:21Z</time></trkpt><trkpt lat="42.346946625194654" lon="13.895880084597428"><ele>322.5</ele><time>2026-04-18T08:35:22Z</time></trkpt><trkpt lat="42.34686186525177" lon="13.895890000047519"><ele>322.0</ele><time>2026-04-18T08:35:23Z</time></trkpt><trkpt lat="42.346783631008925" lon="13.895897804286626"><ele>321.5</ele><time>2026-04-18T08:35:24Z</time></trkpt><trkpt lat="42.34670962416524" lon="13.895925609874991"><ele>321.0</ele><time>2026-04-18T08:35:25Z</time></trkpt><trkpt lat="42.346638640318695" lon="13.895968407839206"><ele>321.0</ele><time>2026-04-18T08:35:26Z</time></trkpt><trkpt lat="42.34657745220828" lon="13.89600491341127"><ele>321.0</ele><time>2026-04-18T08:35:27Z</time></trkpt><trkpt lat="42.34645299429678" lon="13.89597668111675"><ele>321.0</ele><time>2026-04-18T08:35:29Z</time></trkpt><trkpt lat="42.34640887625122" lon="13.895905797670629"><ele>321.0</ele><time>2026-04-18T08:35:29.999Z</time></trkpt><trkpt lat="42.3463825643042" lon="13.89580843335947"><ele>321.0</ele><time>2026-04-18T08:35:30.999Z</time></trkpt><trkpt lat="42.34636286333452" lon="13.895677354030969"><ele>321.0</ele><time>2026-04-18T08:35:31.999Z</time></trkpt><trkpt lat="42.34632329315631" lon="13.89552791024039"><ele>321.5</ele><time>2026-04-18T08:35:32.999Z</time></trkpt><trkpt lat="42.346301890685915" lon="13.895387904384748"><ele>322.0</ele><time>2026-04-18T08:35:33.999Z</time></trkpt><trkpt lat="42.3462852940012" lon="13.895241210833005"><ele>322.5</ele><time>2026-04-18T08:35:34.999Z</time></trkpt><trkpt lat="42.34626047943322" lon="13.895078131560219"><ele>323.0</ele><time>2026-04-18T08:35:35.999Z</time></trkpt><trkpt lat="42.346229822225304" lon="13.89490832557107"><ele>323.0</ele><time>2026-04-18T08:35:36.999Z</time></trkpt><trkpt lat="42.3462111906972" lon="13.894706310042535"><ele>323.0</ele><time>2026-04-18T08:35:37.999Z</time></trkpt><trkpt lat="42.34619617751065" lon="13.894514469384037"><ele>323.0</ele><time>2026-04-18T08:35:38.999Z</time></trkpt><trkpt lat="42.346183777837" lon="13.894329407184161"><ele>323.0</ele><time>2026-04-18T08:35:39.999Z</time></trkpt><trkpt lat="42.346164155282764" lon="13.894157493129272"><ele>323.5</ele><time>2026-04-18T08:35:40.999Z</time></trkpt><trkpt lat="42.346139540441044" lon="13.894004345641873"><ele>324.0</ele><time>2026-04-18T08:35:41.999Z</time></trkpt><trkpt lat="42.3461128451765" lon="13.893851444834421"><ele>324.5</ele><time>2026-04-18T08:35:42.999Z</time></trkpt><trkpt lat="42.34609233446076" lon="13.893686162326674"><ele>325.0</ele><time>2026-04-18T08:35:43.999Z</time></trkpt><trkpt lat="42.34607186766467" lon="13.893504027007708"><ele>325.8</ele><time>2026-04-18T08:35:44.999Z</time></trkpt><trkpt lat="42.34604460484436" lon="13.893344249406818"><ele>326.6</ele><time>2026-04-18T08:35:45.999Z</time></trkpt><trkpt lat="42.346037992266155" lon="13.893211206217575"><ele>327.4</ele><time>2026-04-18T08:35:46.999Z</time></trkpt><trkpt lat="42.34602546388104" lon="13.893080677674726"><ele>328.2</ele><time>2026-04-18T08:35:47.999Z</time></trkpt><trkpt lat="42.345998611429216" lon="13.89296992588005"><ele>329.0</ele><time>2026-04-18T08:35:48.999Z</time></trkpt><trkpt lat="42.345964966487934" lon="13.892874728301397"><ele>329.0</ele><time>2026-04-18T08:35:49.999Z</time></trkpt><trkpt lat="42.34591745667698" lon="13.892804731450505"><ele>329.0</ele><time>2026-04-18T08:35:50.999Z</time></trkpt><trkpt lat="42.34587507790032" lon="13.89271287809806"><ele>329.0</ele><time>2026-04-18T08:35:51.999Z</time></trkpt><trkpt lat="42.34585096042645" lon="13.892604017231607"><ele>329.0</ele><time>2026-04-18T08:35:52.999Z</time></trkpt><trkpt lat="42.34581383845299" lon="13.892502462395665"><ele>329.0</ele><time>2026-04-18T08:35:53.999Z</time></trkpt><trkpt lat="42.345778050866464" lon="13.89238352212147"><ele>329.0</ele><time>2026-04-18T08:35:54.999Z</time></trkpt><trkpt lat="42.34574976927678" lon="13.892261834040985"><ele>329.5</ele><time>2026-04-18T08:35:55.999Z</time></trkpt><trkpt lat="42.3457245121472" lon="13.892157023029936"><ele>330.0</ele><time>2026-04-18T08:35:56.999Z</time></trkpt><trkpt lat="42.345692286378615" lon="13.892078492065732"><ele>330.5</ele><time>2026-04-18T08:35:57.999Z</time></trkpt><trkpt lat="42.34561798748914" lon="13.89197123049775"><ele>331.0</ele><time>2026-04-18T08:35:59.999Z</time></trkpt><trkpt lat="42.34558348815825" lon="13.891867397946287"><ele>331.5</ele><time>2026-04-18T08:36:02.001Z</time></trkpt><trkpt lat="42.34557570120187" lon="13.891776625985102"><ele>332.0</ele><time>2026-04-18T08:36:20Z</time></trkpt><trkpt lat="42.3455238255695" lon="13.891707753426276"><ele>332.40000000000003</ele><time>2026-04-18T08:36:39Z</time></trkpt><trkpt lat="42.34544156240265" lon="13.89160751469065"><ele>332.8</ele><time>2026-04-18T08:36:45Z</time></trkpt><trkpt lat="42.34538770070051" lon="13.891541643698375"><ele>333.2</ele><time>2026-04-18T08:36:46Z</time></trkpt><trkpt lat="42.345272082940575" lon="13.891433095881906"><ele>333.6</ele><time>2026-04-18T08:36:48Z</time></trkpt><trkpt lat="42.345202290324586" lon="13.891343041033254"><ele>334.0</ele><time>2026-04-18T08:36:49Z</time></trkpt><trkpt lat="42.34513715940986" lon="13.89125471211072"><ele>334.0</ele><time>2026-04-18T08:36:50Z</time></trkpt><trkpt lat="42.345079903240006" lon="13.891191262294349"><ele>334.0</ele><time>2026-04-18T08:36:51Z</time></trkpt><trkpt lat="42.34503775158444" lon="13.891121809184284"><ele>334.0</ele><time>2026-04-18T08:36:52Z</time></trkpt><trkpt lat="42.34498865755779" lon="13.891065029549578"><ele>334.0</ele><time>2026-04-18T08:36:53Z</time></trkpt><trkpt lat="42.34491383203738" lon="13.891034830577818"><ele>334.0</ele><time>2026-04-18T08:36:55Z</time></trkpt><trkpt lat="42.344822473178326" lon="13.89100848121355"><ele>334.0</ele><time>2026-04-18T08:36:57Z</time></trkpt><trkpt lat="42.3447466083047" lon="13.89100140989694"><ele>334.8333333333333</ele><time>2026-04-18T08:36:59Z</time></trkpt><trkpt lat="42.344676363885746" lon="13.890946290504699"><ele>335.66666666666663</ele><time>2026-04-18T08:37:09Z</time></trkpt><trkpt lat="42.344598602505755" lon="13.890920771814722"><ele>336.5</ele><time>2026-04-18T08:37:12Z</time></trkpt><trkpt lat="42.34453509372588" lon="13.890872926483771"><ele>337.3333333333333</ele><time>2026-04-18T08:37:15Z</time></trkpt><trkpt lat="42.34448398937429" lon="13.89077210414672"><ele>338.1666666666667</ele><time>2026-04-18T08:37:17Z</time></trkpt><trkpt lat="42.344438097453576" lon="13.89070639856515"><ele>339.0</ele><time>2026-04-18T08:37:19Z</time></trkpt><trkpt lat="42.34414798397906" lon="13.89021659480972"><ele>339.0</ele><time>2026-04-18T08:37:23Z</time></trkpt><trkpt lat="42.34408569061629" lon="13.890093979675255"><ele>339.0</ele><time>2026-04-18T08:37:25Z</time></trkpt><trkpt lat="42.34402755859835" lon="13.88996309063613"><ele>339.0</ele><time>2026-04-18T08:37:27Z</time></trkpt><trkpt lat="42.34398397403425" lon="13.889759435489369"><ele>339.0</ele><time>2026-04-18T08:37:29Z</time></trkpt><trkpt lat="42.3439537890988" lon="13.889658452145591"><ele>339.85714285714283</ele><time>2026-04-18T08:37:29.999Z</time></trkpt><trkpt lat="42.343920990836146" lon="13.889572863145956"><ele>340.7142857142857</ele><time>2026-04-18T08:37:30.999Z</time></trkpt><trkpt lat="42.34389885985351" lon="13.889490626997544"><ele>341.57142857142856</ele><time>2026-04-18T08:37:31.999Z</time></trkpt><trkpt lat="42.3438713197885" lon="13.889408914962901"><ele>342.42857142857144</ele><time>2026-04-18T08:37:32.999Z</time></trkpt><trkpt lat="42.3438355013715" lon="13.8893314484159"><ele>343.2857142857143</ele><time>2026-04-18T08:37:33.999Z</time></trkpt><trkpt lat="42.34378673676071" lon="13.889258649316272"><ele>344.14285714285717</ele><time>2026-04-18T08:37:34.999Z</time></trkpt><trkpt lat="42.343735735857464" lon="13.889198076416724"><ele>345.0</ele><time>2026-04-18T08:37:35.999Z</time></trkpt><trkpt lat="42.343669631777736" lon="13.889071791211938"><ele>346.6666666666667</ele><time>2026-04-18T08:37:37.999Z</time></trkpt><trkpt lat="42.34362987112885" lon="13.88893379639882"><ele>348.3333333333333</ele><time>2026-04-18T08:37:39.999Z</time></trkpt><trkpt lat="42.34361265225205" lon="13.888835264177436"><ele>350.0</ele><time>2026-04-18T08:37:40.999Z</time></trkpt><trkpt lat="42.34359053299582" lon="13.888712018518856"><ele>351.66666666666663</ele><time>2026-04-18T08:37:42.999Z</time></trkpt><trkpt lat="42.3435850411857" lon="13.888613996841727"><ele>353.3333333333333</ele><time>2026-04-18T08:38:13.001Z</time></trkpt><trkpt lat="42.34352326185999" lon="13.8885888196827"><ele>355.0</ele><time>2026-04-18T08:38:22Z</time></trkpt><trkpt lat="42.343458515663144" lon="13.888628810654392"><ele>355.0</ele><time>2026-04-18T08:38:25Z</time></trkpt><trkpt lat="42.34336880274402" lon="13.88866715097081"><ele>355.0</ele><time>2026-04-18T08:38:28Z</time></trkpt><trkpt lat="42.34328954033616" lon="13.888653113065"><ele>355.0</ele><time>2026-04-18T08:38:30Z</time></trkpt><trkpt lat="42.343251486891965" lon="13.888577026422691"><ele>355.0</ele><time>2026-04-18T08:38:32Z</time></trkpt><trkpt lat="42.34321076046987" lon="13.888489575322856"><ele>355.0</ele><time>2026-04-18T08:38:52Z</time></trkpt><trkpt lat="42.343151897738245" lon="13.888400085106168"><ele>355.0</ele><time>2026-04-18T08:38:55Z</time></trkpt><trkpt lat="42.3430962761585" lon="13.888211559325244"><ele>354.16666666666663</ele><time>2026-04-18T08:38:57Z</time></trkpt><trkpt lat="42.343084469754835" lon="13.888097699537639"><ele>353.3333333333333</ele><time>2026-04-18T08:38:58Z</time></trkpt><trkpt lat="42.343045561804" lon="13.88799948215187"><ele>352.5</ele><time>2026-04-18T08:39:05Z</time></trkpt><trkpt lat="42.34300392575301" lon="13.887901563821302"><ele>351.6666666666667</ele><time>2026-04-18T08:39:08Z</time></trkpt><trkpt lat="42.34294348197109" lon="13.887798576516266"><ele>350.83333333333337</ele><time>2026-04-18T08:39:11Z</time></trkpt><trkpt lat="42.342862740757944" lon="13.88775814234872"><ele>350.0</ele><time>2026-04-18T08:39:14Z</time></trkpt><trkpt lat="42.34283049507028" lon="13.88765707801428"><ele>350.57142857142856</ele><time>2026-04-18T08:39:21Z</time></trkpt><trkpt lat="42.34281016962101" lon="13.887575712659356"><ele>351.1428571428571</ele><time>2026-04-18T08:39:23Z</time></trkpt><trkpt lat="42.342787073762565" lon="13.887495048040885"><ele>351.7142857142857</ele><time>2026-04-18T08:39:25Z</time></trkpt><trkpt lat="42.342742548302475" lon="13.887397546961788"><ele>352.2857142857143</ele><time>2026-04-18T08:39:28.999Z</time></trkpt><trkpt lat="42.342691848747016" lon="13.88732672336595"><ele>352.85714285714283</ele><time>2026-04-18T08:39:30.999Z</time></trkpt><trkpt lat="42.34265238938586" lon="13.887249934846455"><ele>353.42857142857144</ele><time>2026-04-18T08:39:31.999Z</time></trkpt><trkpt lat="42.34262609722062" lon="13.887130929853253"><ele>354.0</ele><time>2026-04-18T08:39:33.999Z</time></trkpt><trkpt lat="42.34262521900385" lon="13.887041428883078"><ele>354.0</ele><time>2026-04-18T08:39:36.999Z</time></trkpt><trkpt lat="42.34263020392444" lon="13.88690935693414"><ele>354.0</ele><time>2026-04-18T08:39:38.999Z</time></trkpt><trkpt lat="42.34263586959578" lon="13.886783572175075"><ele>354.0</ele><time>2026-04-18T08:39:41.999Z</time></trkpt><trkpt lat="42.34261712597538" lon="13.886662967305721"><ele>354.0</ele><time>2026-04-18T08:39:44.999Z</time></trkpt><trkpt lat="42.34258879171383" lon="13.886566486306252"><ele>354.0</ele><time>2026-04-18T08:39:47.999Z</time></trkpt><trkpt lat="42.342561635301315" lon="13.88646542595105"><ele>354.0</ele><time>2026-04-18T08:39:58.999Z</time></trkpt><trkpt lat="42.34248464977636" lon="13.886412577412376"><ele>354.0</ele><time>2026-04-18T08:40:01.999Z</time></trkpt><trkpt lat="42.34241665887475" lon="13.886409403287635"><ele>354.0</ele><time>2026-04-18T08:40:03.999Z</time></trkpt><trkpt lat="42.34237395218284" lon="13.886329372339066"><ele>354.0</ele><time>2026-04-18T08:40:08.999Z</time></trkpt><trkpt lat="42.3423206431927" lon="13.886248974133887"><ele>354.0</ele><time>2026-04-18T08:40:10.999Z</time></trkpt><trkpt lat="42.34225004830336" lon="13.886191338893026"><ele>354.0</ele><time>2026-04-18T08:40:16Z</time></trkpt><trkpt lat="42.34217713583434" lon="13.886160776743925"><ele>354.0</ele><time>2026-04-18T08:40:19Z</time></trkpt><trkpt lat="42.34210858875104" lon="13.886126029443194"><ele>354.2</ele><time>2026-04-18T08:40:22Z</time></trkpt><trkpt lat="42.34204388842281" lon="13.886037436217116"><ele>354.4</ele><time>2026-04-18T08:40:25Z</time></trkpt><trkpt lat="42.34200400202601" lon="13.885960209982322"><ele>354.6</ele><time>2026-04-18T08:40:27Z</time></trkpt><trkpt lat="42.34193867679252" lon="13.885814928096465"><ele>354.8</ele><time>2026-04-18T08:40:29Z</time></trkpt><trkpt lat="42.34189907282135" lon="13.8857010110968"><ele>355.0</ele><time>2026-04-18T08:40:31Z</time></trkpt><trkpt lat="42.341804935204564" lon="13.88564508221832"><ele>355.0</ele><time>2026-04-18T08:40:34Z</time></trkpt><trkpt lat="42.341726807878906" lon="13.885656734344082"><ele>355.0</ele><time>2026-04-18T08:40:36Z</time></trkpt><trkpt lat="42.34167052082943" lon="13.885603394010992"><ele>355.0</ele><time>2026-04-18T08:40:38Z</time></trkpt><trkpt lat="42.34159971791027" lon="13.885530830322962"><ele>355.0</ele><time>2026-04-18T08:40:40Z</time></trkpt><trkpt lat="42.341543833361165" lon="13.88548982025883"><ele>355.0</ele><time>2026-04-18T08:40:46Z</time></trkpt><trkpt lat="42.34147714006179" lon="13.885476686960459"><ele>355.0</ele><time>2026-04-18T08:41:02.999Z</time></trkpt><trkpt lat="42.341458845603576" lon="13.885560739843735"><ele>355.0</ele><time>2026-04-18T08:41:11.999Z</time></trkpt><trkpt lat="42.34137312833893" lon="13.885590596239078"><ele>356.0</ele><time>2026-04-18T08:41:19.999Z</time></trkpt><trkpt lat="42.341309968510565" lon="13.88556274680998"><ele>357.0</ele><time>2026-04-18T08:41:22.999Z</time></trkpt><trkpt lat="42.34124861203358" lon="13.885512926883306"><ele>358.0</ele><time>2026-04-18T08:41:29.999Z</time></trkpt><trkpt lat="42.34119038627584" lon="13.885474323354364"><ele>359.0</ele><time>2026-04-18T08:41:32.999Z</time></trkpt><trkpt lat="42.341138725082466" lon="13.885419403153165"><ele>360.0</ele><time>2026-04-18T08:41:35.999Z</time></trkpt><trkpt lat="42.34105420169735" lon="13.885360767567473"><ele>361.0</ele><time>2026-04-18T08:41:38.999Z</time></trkpt><trkpt lat="42.34098408761227" lon="13.885271879728759"><ele>361.0</ele><time>2026-04-18T08:41:40.999Z</time></trkpt><trkpt lat="42.34090618329926" lon="13.88524736781085"><ele>361.0</ele><time>2026-04-18T08:41:43.999Z</time></trkpt><trkpt lat="42.340830143184306" lon="13.885215827158486"><ele>361.0</ele><time>2026-04-18T08:41:47.999Z</time></trkpt><trkpt lat="42.3407421998119" lon="13.885258606845733"><ele>361.0</ele><time>2026-04-18T08:41:50.999Z</time></trkpt><trkpt lat="42.34066937608028" lon="13.885283781035117"><ele>361.0</ele><time>2026-04-18T08:41:53.998Z</time></trkpt><trkpt lat="42.34058018978276" lon="13.885242989796822"><ele>361.0</ele><time>2026-04-18T08:41:56.998Z</time></trkpt><trkpt lat="42.34053519720461" lon="13.88511763097528"><ele>360.3333333333333</ele><time>2026-04-18T08:42:00.998Z</time></trkpt><trkpt lat="42.340549747039375" lon="13.88503253367867"><ele>359.66666666666663</ele><time>2026-04-18T08:42:01.998Z</time></trkpt><trkpt lat="42.34056698197373" lon="13.884915668916078"><ele>359.0</ele><time>2026-04-18T08:42:03.998Z</time></trkpt><trkpt lat="42.34057195831185" lon="13.884811932825926"><ele>358.3333333333333</ele><time>2026-04-18T08:42:05.998Z</time></trkpt><trkpt lat="42.34059917254154" lon="13.88467113888274"><ele>357.6666666666667</ele><time>2026-04-18T08:42:08.998Z</time></trkpt><trkpt lat="42.34060928745309" lon="13.884569619211142"><ele>357.0</ele><time>2026-04-18T08:42:11.998Z</time></trkpt><trkpt lat="42.3406559856139" lon="13.884465566729917"><ele>357.0</ele><time>2026-04-18T08:42:14.998Z</time></trkpt><trkpt lat="42.340687377076414" lon="13.884388741767738"><ele>357.0</ele><time>2026-04-18T08:42:18Z</time></trkpt><trkpt lat="42.34075072833434" lon="13.884353068906906"><ele>357.0</ele><time>2026-04-18T08:42:24Z</time></trkpt><trkpt lat="42.34072598376519" lon="13.884273561858802"><ele>357.0</ele><time>2026-04-18T08:44:23Z</time></trkpt><trkpt lat="42.34077783254315" lon="13.88432515092649"><ele>357.0</ele><time>2026-04-18T08:45:03Z</time></trkpt><trkpt lat="42.34083279290626" lon="13.884278767437022"><ele>357.0</ele><time>2026-04-18T08:49:25Z</time></trkpt><trkpt lat="42.34090070028786" lon="13.88422771700752"><ele>357.0</ele><time>2026-04-18T08:49:55.999Z</time></trkpt><trkpt lat="42.34096867564876" lon="13.88411833907281"><ele>357.8333333333333</ele><time>2026-04-18T08:49:57.999Z</time></trkpt><trkpt lat="42.34099365206538" lon="13.884017538639315"><ele>358.6666666666667</ele><time>2026-04-18T08:49:59.999Z</time></trkpt><trkpt lat="42.34097999330729" lon="13.883920723352302"><ele>359.5</ele><time>2026-04-18T08:50:11.999Z</time></trkpt><trkpt lat="42.34093201753969" lon="13.883860429115659"><ele>360.33333333333337</ele><time>2026-04-18T08:50:17.999Z</time></trkpt><trkpt lat="42.34085827873352" lon="13.883791907874842"><ele>361.1666666666667</ele><time>2026-04-18T08:50:22.999Z</time></trkpt><trkpt lat="42.34079020664362" lon="13.88374144611636"><ele>362.0</ele><time>2026-04-18T08:50:25.999Z</time></trkpt><trkpt lat="42.340758023863" lon="13.883662343841772"><ele>362.0</ele><time>2026-04-18T08:50:28.999Z</time></trkpt><trkpt lat="42.34072121457812" lon="13.883551737151684"><ele>362.0</ele><time>2026-04-18T08:50:31.999Z</time></trkpt><trkpt lat="42.34069459961091" lon="13.883469193547416"><ele>362.0</ele><time>2026-04-18T08:50:35.999Z</time></trkpt><trkpt lat="42.340659065091266" lon="13.883387675684403"><ele>362.0</ele><time>2026-04-18T08:50:38.999Z</time></trkpt><trkpt lat="42.34061246262566" lon="13.883311212257766"><ele>362.0</ele><time>2026-04-18T08:50:41Z</time></trkpt><trkpt lat="42.34057354689646" lon="13.883237151499662"><ele>362.0</ele><time>2026-04-18T08:50:56Z</time></trkpt><trkpt lat="42.340535554062484" lon="13.883145761161815"><ele>362.0</ele><time>2026-04-18T08:50:59Z</time></trkpt><trkpt lat="42.340496167714186" lon="13.88307064928058"><ele>362.6666666666667</ele><time>2026-04-18T08:51:04Z</time></trkpt><trkpt lat="42.34045093468728" lon="13.882968909799724"><ele>363.33333333333337</ele><time>2026-04-18T08:51:07Z</time></trkpt><trkpt lat="42.340420021736804" lon="13.882856848405682"><ele>364.0</ele><time>2026-04-18T08:51:10Z</time></trkpt><trkpt lat="42.34038186429863" lon="13.88275026008969"><ele>364.6666666666667</ele><time>2026-04-18T08:51:14Z</time></trkpt><trkpt lat="42.34031737004485" lon="13.882672598984458"><ele>365.3333333333333</ele><time>2026-04-18T08:51:18Z</time></trkpt><trkpt lat="42.340262196539925" lon="13.882575576124232"><ele>366.0</ele><time>2026-04-18T08:51:22Z</time></trkpt><trkpt lat="42.34022342459513" lon="13.882477639099235"><ele>366.0</ele><time>2026-04-18T08:51:24Z</time></trkpt><trkpt lat="42.34017447765625" lon="13.882355415249927"><ele>366.0</ele><time>2026-04-18T08:51:26Z</time></trkpt><trkpt lat="42.34013654537457" lon="13.882255600157958"><ele>366.0</ele><time>2026-04-18T08:51:28Z</time></trkpt><trkpt lat="42.34010099349335" lon="13.882170244163111"><ele>366.0</ele><time>2026-04-18T08:51:29Z</time></trkpt><trkpt lat="42.34006396109369" lon="13.882068198673366"><ele>366.0</ele><time>2026-04-18T08:51:30Z</time></trkpt><trkpt lat="42.340003784962235" lon="13.881887414437122"><ele>366.0</ele><time>2026-04-18T08:51:32Z</time></trkpt><trkpt lat="42.33997480709513" lon="13.881775168989204"><ele>366.0</ele><time>2026-04-18T08:51:33Z</time></trkpt><trkpt lat="42.33995931002919" lon="13.881682460294488"><ele>366.0</ele><time>2026-04-18T08:51:34Z</time></trkpt><trkpt lat="42.339920237299786" lon="13.88159385962859"><ele>366.0</ele><time>2026-04-18T08:51:36Z</time></trkpt><trkpt lat="42.339853459300635" lon="13.881546867759056"><ele>366.0</ele><time>2026-04-18T08:51:39Z</time></trkpt><trkpt lat="42.339791363992575" lon="13.88151856075356"><ele>366.0</ele><time>2026-04-18T08:51:40Z</time></trkpt><trkpt lat="42.339724257169955" lon="13.881433539984542"><ele>366.8</ele><time>2026-04-18T08:51:42Z</time></trkpt><trkpt lat="42.33969512434023" lon="13.881284759131987"><ele>367.6</ele><time>2026-04-18T08:51:44Z</time></trkpt><trkpt lat="42.33967332007397" lon="13.881144543267887"><ele>368.4</ele><time>2026-04-18T08:51:45Z</time></trkpt><trkpt lat="42.33965329147037" lon="13.88101997951033"><ele>369.2</ele><time>2026-04-18T08:51:46Z</time></trkpt><trkpt lat="42.339631113282074" lon="13.88092625612579"><ele>370.0</ele><time>2026-04-18T08:51:47Z</time></trkpt><trkpt lat="42.339591979336134" lon="13.880855769141277"><ele>372.5</ele><time>2026-04-18T08:51:48Z</time></trkpt><trkpt lat="42.33953629652144" lon="13.880798628697303"><ele>375.0</ele><time>2026-04-18T08:51:49Z</time></trkpt><trkpt lat="42.3394893258545" lon="13.880737109535499"><ele>377.5</ele><time>2026-04-18T08:51:51Z</time></trkpt><trkpt lat="42.33947708897397" lon="13.88062672974407"><ele>380.0</ele><time>2026-04-18T08:51:53Z</time></trkpt><trkpt lat="42.33947997210406" lon="13.880474141524541"><ele>382.50000000000006</ele><time>2026-04-18T08:51:55Z</time></trkpt><trkpt lat="42.33943761629808" lon="13.880341058199681"><ele>385.0</ele><time>2026-04-18T08:51:57Z</time></trkpt><trkpt lat="42.33941788180224" lon="13.880252424434298"><ele>385.00000000000006</ele><time>2026-04-18T08:51:58Z</time></trkpt><trkpt lat="42.339382941461345" lon="13.880152493809462"><ele>385.0</ele><time>2026-04-18T08:51:59.999Z</time></trkpt><trkpt lat="42.33932758802909" lon="13.880078890891745"><ele>385.0</ele><time>2026-04-18T08:52:01.999Z</time></trkpt><trkpt lat="42.33927024310667" lon="13.880032972463608"><ele>385.0</ele><time>2026-04-18T08:52:02.999Z</time></trkpt><trkpt lat="42.33920527084624" lon="13.879977710735247"><ele>385.00000000000006</ele><time>2026-04-18T08:52:03.999Z</time></trkpt><trkpt lat="42.33911889191524" lon="13.879853962261947"><ele>385.0</ele><time>2026-04-18T08:52:05.999Z</time></trkpt><trkpt lat="42.33904404037333" lon="13.879803190741201"><ele>384.50000000000006</ele><time>2026-04-18T08:52:06.999Z</time></trkpt><trkpt lat="42.33896611085266" lon="13.879743895958708"><ele>384.0</ele><time>2026-04-18T08:52:07.999Z</time></trkpt><trkpt lat="42.33889740381374" lon="13.879691590090758"><ele>383.5</ele><time>2026-04-18T08:52:08.999Z</time></trkpt><trkpt lat="42.338841871390294" lon="13.879640014331878"><ele>383.0</ele><time>2026-04-18T08:52:09.999Z</time></trkpt><trkpt lat="42.338760761711605" lon="13.879535160231866"><ele>382.5</ele><time>2026-04-18T08:52:11.999Z</time></trkpt><trkpt lat="42.33870802565914" lon="13.879476317613781"><ele>382.0</ele><time>2026-04-18T08:52:12.999Z</time></trkpt><trkpt lat="42.338645243761924" lon="13.87933949285682"><ele>385.16666666666663</ele><time>2026-04-18T08:52:14.999Z</time></trkpt><trkpt lat="42.33863426831504" lon="13.879252943664063"><ele>388.3333333333333</ele><time>2026-04-18T08:52:15.999Z</time></trkpt><trkpt lat="42.33861435887714" lon="13.879151140663847"><ele>391.5</ele><time>2026-04-18T08:52:16.999Z</time></trkpt><trkpt lat="42.33858172264789" lon="13.879023802077697"><ele>394.66666666666663</ele><time>2026-04-18T08:52:17.999Z</time></trkpt><trkpt lat="42.33854345262409" lon="13.878885189736994"><ele>397.8333333333333</ele><time>2026-04-18T08:52:18.999Z</time></trkpt><trkpt lat="42.3385277605216" lon="13.878790020158895"><ele>401.0</ele><time>2026-04-18T08:52:19.999Z</time></trkpt><trkpt lat="42.338487605219" lon="13.878687040584627"><ele>401.0</ele><time>2026-04-18T08:52:21.999Z</time></trkpt><trkpt lat="42.338422156890005" lon="13.878676914787729"><ele>401.0</ele><time>2026-04-18T08:52:22.999Z</time></trkpt><trkpt lat="42.33834754914982" lon="13.87865413599655"><ele>401.0</ele><time>2026-04-18T08:52:23.999Z</time></trkpt><trkpt lat="42.338269025885616" lon="13.87859882400356"><ele>401.0</ele><time>2026-04-18T08:52:24.999Z</time></trkpt><trkpt lat="42.33821518356035" lon="13.878532599670676"><ele>401.0</ele><time>2026-04-18T08:52:25.999Z</time></trkpt><trkpt lat="42.33817560904855" lon="13.878462459332573"><ele>401.0</ele><time>2026-04-18T08:52:26.999Z</time></trkpt><trkpt lat="42.33814016014143" lon="13.878387847332226"><ele>401.0</ele><time>2026-04-18T08:52:27.999Z</time></trkpt><trkpt lat="42.33808644670667" lon="13.87832000831167"><ele>402.4</ele><time>2026-04-18T08:52:28.999Z</time></trkpt><trkpt lat="42.33799440566009" lon="13.878292638074708"><ele>403.8</ele><time>2026-04-18T08:52:29.999Z</time></trkpt><trkpt lat="42.33787614012805" lon="13.878275741188071"><ele>405.2</ele><time>2026-04-18T08:52:30.999Z</time></trkpt><trkpt lat="42.337783855708246" lon="13.878239145063707"><ele>406.59999999999997</ele><time>2026-04-18T08:52:31.999Z</time></trkpt><trkpt lat="42.33772167356831" lon="13.878200082422318"><ele>408.0</ele><time>2026-04-18T08:52:32.999Z</time></trkpt><trkpt lat="42.337638432925814" lon="13.878164475348433"><ele>408.0</ele><time>2026-04-18T08:52:34.999Z</time></trkpt><trkpt lat="42.33765045465366" lon="13.878072904797236"><ele>408.0</ele><time>2026-04-18T08:52:40.999Z</time></trkpt><trkpt lat="42.337769460414194" lon="13.878050932144742"><ele>408.0</ele><time>2026-04-18T08:52:42.999Z</time></trkpt><trkpt lat="42.337850771975006" lon="13.878012819291998"><ele>408.0</ele><time>2026-04-18T08:52:43.999Z</time></trkpt><trkpt lat="42.33793476218326" lon="13.877981148616568"><ele>408.0</ele><time>2026-04-18T08:52:44.999Z</time></trkpt><trkpt lat="42.338012726123615" lon="13.878015362187408"><ele>408.0</ele><time>2026-04-18T08:52:46Z</time></trkpt><trkpt lat="42.338106713805445" lon="13.878065158767326"><ele>409.6666666666667</ele><time>2026-04-18T08:52:47Z</time></trkpt><trkpt lat="42.338170134506605" lon="13.878073944938945"><ele>411.33333333333337</ele><time>2026-04-18T08:52:48Z</time></trkpt><trkpt lat="42.33826393840408" lon="13.878021322371758"><ele>413.0</ele><time>2026-04-18T08:52:50Z</time></trkpt><trkpt lat="42.33831521990434" lon="13.877934623633623"><ele>414.6666666666667</ele><time>2026-04-18T08:52:51Z</time></trkpt><trkpt lat="42.33835948356302" lon="13.877848187376117"><ele>416.33333333333337</ele><time>2026-04-18T08:52:52Z</time></trkpt><trkpt lat="42.338296538773925" lon="13.877801768235123"><ele>418.0</ele><time>2026-04-18T08:52:57Z</time></trkpt><trkpt lat="42.33820455459855" lon="13.87785490441387"><ele>418.0</ele><time>2026-04-18T08:52:59Z</time></trkpt><trkpt lat="42.33807737690141" lon="13.87778594024093"><ele>418.0</ele><time>2026-04-18T08:53:01Z</time></trkpt><trkpt lat="42.33797924697491" lon="13.877724625621035"><ele>418.0</ele><time>2026-04-18T08:53:02Z</time></trkpt><trkpt lat="42.33787084278515" lon="13.877659912770863"><ele>418.0</ele><time>2026-04-18T08:53:03Z</time></trkpt><trkpt lat="42.337791122930476" lon="13.877583230482301"><ele>420.79999999999995</ele><time>2026-04-18T08:53:04Z</time></trkpt><trkpt lat="42.33772844104648" lon="13.87748448193024"><ele>423.6</ele><time>2026-04-18T08:53:05Z</time></trkpt><trkpt lat="42.33767719979868" lon="13.877377953161043"><ele>426.40000000000003</ele><time>2026-04-18T08:53:06Z</time></trkpt><trkpt lat="42.33763211891275" lon="13.877252599699553"><ele>429.20000000000005</ele><time>2026-04-18T08:53:07Z</time></trkpt><trkpt lat="42.33759975678326" lon="13.877157120768372"><ele>432.0</ele><time>2026-04-18T08:53:08Z</time></trkpt><trkpt lat="42.33758105273072" lon="13.877046000123404"><ele>432.0</ele><time>2026-04-18T08:53:09Z</time></trkpt><trkpt lat="42.337566361752636" lon="13.876927034345348"><ele>432.00000000000006</ele><time>2026-04-18T08:53:10Z</time></trkpt><trkpt lat="42.33753005451925" lon="13.876777912448206"><ele>432.00000000000006</ele><time>2026-04-18T08:53:11Z</time></trkpt><trkpt lat="42.337530126696" lon="13.876622487884607"><ele>432.0</ele><time>2026-04-18T08:53:12Z</time></trkpt><trkpt lat="42.33753207803287" lon="13.876493452269276"><ele>432.0</ele><time>2026-04-18T08:53:13Z</time></trkpt><trkpt lat="42.33754009160338" lon="13.876387682805802"><ele>434.20000000000005</ele><time>2026-04-18T08:53:14Z</time></trkpt><trkpt lat="42.3375490952838" lon="13.876297574524507"><ele>436.40000000000003</ele><time>2026-04-18T08:53:15Z</time></trkpt><trkpt lat="42.33753276703062" lon="13.876120321914732"><ele>438.59999999999997</ele><time>2026-04-18T08:53:17Z</time></trkpt><trkpt lat="42.337499490878265" lon="13.87602026293281"><ele>440.79999999999995</ele><time>2026-04-18T08:53:18Z</time></trkpt><trkpt lat="42.3374504348808" lon="13.875914204278175"><ele>443.0</ele><time>2026-04-18T08:53:19Z</time></trkpt><trkpt lat="42.337385380599194" lon="13.875840346320498"><ele>442.66666666666663</ele><time>2026-04-18T08:53:20Z</time></trkpt><trkpt lat="42.337322257361876" lon="13.87579638254401"><ele>442.3333333333333</ele><time>2026-04-18T08:53:21Z</time></trkpt><trkpt lat="42.337245119875625" lon="13.87576716955443"><ele>442.0</ele><time>2026-04-18T08:53:22Z</time></trkpt><trkpt lat="42.33716419063989" lon="13.875741440311513"><ele>441.66666666666663</ele><time>2026-04-18T08:53:23Z</time></trkpt><trkpt lat="42.3370692478422" lon="13.87567287045834"><ele>441.3333333333333</ele><time>2026-04-18T08:53:25Z</time></trkpt><trkpt lat="42.33702448464101" lon="13.875563607755558"><ele>441.0</ele><time>2026-04-18T08:53:27Z</time></trkpt><trkpt lat="42.33698220271819" lon="13.875476228227695"><ele>441.0</ele><time>2026-04-18T08:53:28Z</time></trkpt><trkpt lat="42.33693123143461" lon="13.875387113641317"><ele>441.0</ele><time>2026-04-18T08:53:29Z</time></trkpt><trkpt lat="42.33688929428573" lon="13.875298388807753"><ele>441.0</ele><time>2026-04-18T08:53:30Z</time></trkpt><trkpt lat="42.3368574395522" lon="13.875198173801165"><ele>441.0</ele><time>2026-04-18T08:53:31Z</time></trkpt><trkpt lat="42.33681762238639" lon="13.8751040864044"><ele>441.0</ele><time>2026-04-18T08:53:32Z</time></trkpt><trkpt lat="42.33678024849722" lon="13.875003996434511"><ele>441.0</ele><time>2026-04-18T08:53:33Z</time></trkpt><trkpt lat="42.33674767400859" lon="13.87489411940668"><ele>446.25</ele><time>2026-04-18T08:53:34Z</time></trkpt><trkpt lat="42.3367185804194" lon="13.874783527316875"><ele>451.5</ele><time>2026-04-18T08:53:35Z</time></trkpt><trkpt lat="42.336695264412526" lon="13.874648920732618"><ele>456.75</ele><time>2026-04-18T08:53:36Z</time></trkpt><trkpt lat="42.33666639672191" lon="13.874478498557169"><ele>462.0</ele><time>2026-04-18T08:53:37Z</time></trkpt><trkpt lat="42.33662413399062" lon="13.874282166088994"><ele>465.5</ele><time>2026-04-18T08:53:38Z</time></trkpt><trkpt lat="42.33657564781788" lon="13.87409348345227"><ele>469.0</ele><time>2026-04-18T08:53:39Z</time></trkpt><trkpt lat="42.336547088051404" lon="13.873948643092088"><ele>472.5</ele><time>2026-04-18T08:53:40Z</time></trkpt><trkpt lat="42.33652707444501" lon="13.873821214148116"><ele>476.0</ele><time>2026-04-18T08:53:41Z</time></trkpt><trkpt lat="42.33652234334162" lon="13.873670960155131"><ele>476.0</ele><time>2026-04-18T08:53:42Z</time></trkpt><trkpt lat="42.33649953591816" lon="13.873542073163895"><ele>476.0</ele><time>2026-04-18T08:53:43Z</time></trkpt><trkpt lat="42.33645167318769" lon="13.873372577610748"><ele>476.0</ele><time>2026-04-18T08:53:44Z</time></trkpt><trkpt lat="42.33638015714117" lon="13.873216078915545"><ele>476.0</ele><time>2026-04-18T08:53:45Z</time></trkpt><trkpt lat="42.33631797699757" lon="13.873064414491944"><ele>476.99999999999994</ele><time>2026-04-18T08:53:46Z</time></trkpt><trkpt lat="42.336271506599594" lon="13.87296332158422"><ele>478.0</ele><time>2026-04-18T08:53:47Z</time></trkpt><trkpt lat="42.336222014891185" lon="13.87290248930966"><ele>479.0</ele><time>2026-04-18T08:53:48Z</time></trkpt><trkpt lat="42.3361501985367" lon="13.872837468151312"><ele>480.0</ele><time>2026-04-18T08:53:49Z</time></trkpt><trkpt lat="42.336074845857155" lon="13.872763426900312"><ele>480.99999999999994</ele><time>2026-04-18T08:53:50Z</time></trkpt><trkpt lat="42.33602109667037" lon="13.872712685734687"><ele>482.0</ele><time>2026-04-18T08:53:51Z</time></trkpt><trkpt lat="42.33591556883041" lon="13.872609378809495"><ele>486.40000000000003</ele><time>2026-04-18T08:53:53Z</time></trkpt><trkpt lat="42.335850772805365" lon="13.872525856036495"><ele>490.80000000000007</ele><time>2026-04-18T08:53:54Z</time></trkpt><trkpt lat="42.33580263845282" lon="13.872434044628044"><ele>495.2</ele><time>2026-04-18T08:53:55Z</time></trkpt><trkpt lat="42.335783626547446" lon="13.872267208902747"><ele>499.6</ele><time>2026-04-18T08:53:57Z</time></trkpt><trkpt lat="42.33580704612063" lon="13.87214808546701"><ele>504.0</ele><time>2026-04-18T08:53:58Z</time></trkpt><trkpt lat="42.33584755974839" lon="13.872015758892157"><ele>504.0</ele><time>2026-04-18T08:53:59Z</time></trkpt><trkpt lat="42.33588381925102" lon="13.871855886640988"><ele>504.0</ele><time>2026-04-18T08:54:00Z</time></trkpt><trkpt lat="42.33590795789621" lon="13.871738990693188"><ele>504.0</ele><time>2026-04-18T08:54:01Z</time></trkpt><trkpt lat="42.33593256174034" lon="13.871644277133578"><ele>504.0</ele><time>2026-04-18T08:54:02Z</time></trkpt><trkpt lat="42.3359633117658" lon="13.871565883710508"><ele>504.0</ele><time>2026-04-18T08:54:02.999Z</time></trkpt><trkpt lat="42.33599034027164" lon="13.871466226197974"><ele>504.0</ele><time>2026-04-18T08:54:03.999Z</time></trkpt><trkpt lat="42.33601999851439" lon="13.871338624440376"><ele>505.79999999999995</ele><time>2026-04-18T08:54:04.999Z</time></trkpt><trkpt lat="42.33604090560413" lon="13.87121450132354"><ele>507.59999999999997</ele><time>2026-04-18T08:54:05.999Z</time></trkpt><trkpt lat="42.33605421297006" lon="13.871101637487396"><ele>509.4</ele><time>2026-04-18T08:54:06.999Z</time></trkpt><trkpt lat="42.33606235059405" lon="13.870972324860265"><ele>511.2</ele><time>2026-04-18T08:54:07.999Z</time></trkpt><trkpt lat="42.336065636644584" lon="13.870841015535792"><ele>513.0</ele><time>2026-04-18T08:54:08.999Z</time></trkpt><trkpt lat="42.33607410237445" lon="13.87072503277463"><ele>513.8333333333334</ele><time>2026-04-18T08:54:09.999Z</time></trkpt><trkpt lat="42.33608466972681" lon="13.870613031694726"><ele>514.6666666666666</ele><time>2026-04-18T08:54:10.999Z</time></trkpt><trkpt lat="42.33611850841269" lon="13.870495375245772"><ele>515.5</ele><time>2026-04-18T08:54:12.999Z</time></trkpt><trkpt lat="42.33614209502154" lon="13.870400988639613"><ele>516.3333333333333</ele><time>2026-04-18T08:54:14.999Z</time></trkpt><trkpt lat="42.336171769393765" lon="13.87030040865917"><ele>517.1666666666666</ele><time>2026-04-18T08:54:16.999Z</time></trkpt><trkpt lat="42.33615802191195" lon="13.870192591106965"><ele>518.0</ele><time>2026-04-18T08:54:18.999Z</time></trkpt><trkpt lat="42.336119045582265" lon="13.870108290825376"><ele>519.3333333333333</ele><time>2026-04-18T08:54:19.999Z</time></trkpt><trkpt lat="42.33607806393367" lon="13.870035936826232"><ele>520.6666666666666</ele><time>2026-04-18T08:54:20.999Z</time></trkpt><trkpt lat="42.33609969150333" lon="13.869910909433154"><ele>522.0</ele><time>2026-04-18T08:54:22.999Z</time></trkpt><trkpt lat="42.33613329409742" lon="13.869838246956077"><ele>523.3333333333334</ele><time>2026-04-18T08:54:23.999Z</time></trkpt><trkpt lat="42.336176415454" lon="13.86976746010288"><ele>524.6666666666667</ele><time>2026-04-18T08:54:24.999Z</time></trkpt><trkpt lat="42.33624742753508" lon="13.869627344549013"><ele>526.0</ele><time>2026-04-18T08:54:26.999Z</time></trkpt><trkpt lat="42.33622331956776" lon="13.869468741371758"><ele>526.0</ele><time>2026-04-18T08:54:28.999Z</time></trkpt><trkpt lat="42.33617948273368" lon="13.869407005043735"><ele>526.0</ele><time>2026-04-18T08:54:29.999Z</time></trkpt><trkpt lat="42.33609674196433" lon="13.869329554943532"><ele>526.0</ele><time>2026-04-18T08:54:31.999Z</time></trkpt><trkpt lat="42.3360342053629" lon="13.869242473441725"><ele>526.0</ele><time>2026-04-18T08:54:32.999Z</time></trkpt><trkpt lat="42.335920701289496" lon="13.869112382098423"><ele>526.0</ele><time>2026-04-18T08:54:33.999Z</time></trkpt><trkpt lat="42.335792999396624" lon="13.869012049618247"><ele>525.2</ele><time>2026-04-18T08:54:34.999Z</time></trkpt><trkpt lat="42.33570804908867" lon="13.86890771717152"><ele>524.4000000000001</ele><time>2026-04-18T08:54:35.999Z</time></trkpt><trkpt lat="42.335615833280364" lon="13.868820238683513"><ele>523.6</ele><time>2026-04-18T08:54:36.999Z</time></trkpt><trkpt lat="42.335530952148645" lon="13.868738546875258"><ele>522.8000000000001</ele><time>2026-04-18T08:54:37.999Z</time></trkpt><trkpt lat="42.335464118796324" lon="13.86863718039223"><ele>522.0</ele><time>2026-04-18T08:54:38.999Z</time></trkpt><trkpt lat="42.33539722532108" lon="13.868562635573067"><ele>522.0</ele><time>2026-04-18T08:54:39.999Z</time></trkpt><trkpt lat="42.33532039108144" lon="13.868511887858771"><ele>522.0</ele><time>2026-04-18T08:54:40.999Z</time></trkpt><trkpt lat="42.33524748414524" lon="13.868452808385978"><ele>522.0</ele><time>2026-04-18T08:54:41.999Z</time></trkpt><trkpt lat="42.33518413613657" lon="13.868353848102622"><ele>522.0</ele><time>2026-04-18T08:54:42.999Z</time></trkpt><trkpt lat="42.335126204141474" lon="13.868248317705186"><ele>522.0</ele><time>2026-04-18T08:54:43.999Z</time></trkpt><trkpt lat="42.33501685528796" lon="13.86818808865894"><ele>521.1666666666666</ele><time>2026-04-18T08:54:44.999Z</time></trkpt><trkpt lat="42.334936142433065" lon="13.868123168984397"><ele>520.3333333333334</ele><time>2026-04-18T08:54:45.999Z</time></trkpt><trkpt lat="42.334868267841564" lon="13.868055405570638"><ele>519.5</ele><time>2026-04-18T08:54:46.999Z</time></trkpt><trkpt lat="42.3348142138963" lon="13.867983863374304"><ele>518.6666666666667</ele><time>2026-04-18T08:54:47.999Z</time></trkpt><trkpt lat="42.33475545259249" lon="13.867905749111962"><ele>517.8333333333334</ele><time>2026-04-18T08:54:48.999Z</time></trkpt><trkpt lat="42.33469956710899" lon="13.867836339575396"><ele>517.0</ele><time>2026-04-18T08:54:49.999Z</time></trkpt><trkpt lat="42.33463058131914" lon="13.867737732540128"><ele>517.0</ele><time>2026-04-18T08:54:50.999Z</time></trkpt><trkpt lat="42.33457186323108" lon="13.867619643719985"><ele>517.0</ele><time>2026-04-18T08:54:52Z</time></trkpt><trkpt lat="42.334521998312205" lon="13.86750855604759"><ele>517.0</ele><time>2026-04-18T08:54:53Z</time></trkpt><trkpt lat="42.3344593888625" lon="13.867406264182817"><ele>517.0</ele><time>2026-04-18T08:54:54Z</time></trkpt><trkpt lat="42.33440509229069" lon="13.86730976083277"><ele>517.0</ele><time>2026-04-18T08:54:55Z</time></trkpt><trkpt lat="42.33434765125875" lon="13.86720001456473"><ele>519.6</ele><time>2026-04-18T08:54:56Z</time></trkpt><trkpt lat="42.33429430521217" lon="13.867089419109794"><ele>522.2</ele><time>2026-04-18T08:54:57Z</time></trkpt><trkpt lat="42.3342374061102" lon="13.866990635995148"><ele>524.8</ele><time>2026-04-18T08:54:58Z</time></trkpt><trkpt lat="42.334183362894414" lon="13.866890558800915"><ele>527.4</ele><time>2026-04-18T08:54:59Z</time></trkpt><trkpt lat="42.334132174398675" lon="13.866788905600044"><ele>530.0</ele><time>2026-04-18T08:55:00Z</time></trkpt><trkpt lat="42.33408092384576" lon="13.866685787603073"><ele>532.0</ele><time>2026-04-18T08:55:01Z</time></trkpt><trkpt lat="42.334039544988215" lon="13.866584260702393"><ele>534.0</ele><time>2026-04-18T08:55:02Z</time></trkpt><trkpt lat="42.33400470435918" lon="13.866487206527651"><ele>536.0</ele><time>2026-04-18T08:55:03Z</time></trkpt><trkpt lat="42.33396204275766" lon="13.866388161454449"><ele>538.0</ele><time>2026-04-18T08:55:04Z</time></trkpt><trkpt lat="42.33391764879296" lon="13.866282088337764"><ele>540.0</ele><time>2026-04-18T08:55:05Z</time></trkpt><trkpt lat="42.33387963077337" lon="13.866165914935493"><ele>542.0</ele><time>2026-04-18T08:55:06Z</time></trkpt><trkpt lat="42.33385199285532" lon="13.866062728136233"><ele>537.0</ele><time>2026-04-18T08:55:07Z</time></trkpt><trkpt lat="42.333832550210964" lon="13.865963916459116"><ele>532.0</ele><time>2026-04-18T08:55:08Z</time></trkpt><trkpt lat="42.33381342728507" lon="13.865852023473424"><ele>527.0</ele><time>2026-04-18T08:55:09Z</time></trkpt><trkpt lat="42.33378612310408" lon="13.865734211232313"><ele>522.0</ele><time>2026-04-18T08:55:10Z</time></trkpt><trkpt lat="42.33376885375307" lon="13.865597336416988"><ele>517.0</ele><time>2026-04-18T08:55:11Z</time></trkpt><trkpt lat="42.333751030449335" lon="13.865461945832077"><ele>517.0</ele><time>2026-04-18T08:55:12Z</time></trkpt><trkpt lat="42.33374143105098" lon="13.865312431327558"><ele>517.0</ele><time>2026-04-18T08:55:13Z</time></trkpt><trkpt lat="42.33375100437675" lon="13.865156346261914"><ele>517.0</ele><time>2026-04-18T08:55:14Z</time></trkpt><trkpt lat="42.333775296818686" lon="13.864996691161576"><ele>517.0</ele><time>2026-04-18T08:55:15Z</time></trkpt><trkpt lat="42.33381307002629" lon="13.864828074831108"><ele>518.75</ele><time>2026-04-18T08:55:16Z</time></trkpt><trkpt lat="42.33383837170823" lon="13.864664883181867"><ele>520.5</ele><time>2026-04-18T08:55:17Z</time></trkpt><trkpt lat="42.333833589267265" lon="13.864495003780057"><ele>522.25</ele><time>2026-04-18T08:55:18Z</time></trkpt><trkpt lat="42.33378574218555" lon="13.864332587196444"><ele>524.0</ele><time>2026-04-18T08:55:19Z</time></trkpt><trkpt lat="42.333709611545935" lon="13.864175393568669"><ele>524.75</ele><time>2026-04-18T08:55:20Z</time></trkpt><trkpt lat="42.33364180580432" lon="13.86403076298088"><ele>525.5</ele><time>2026-04-18T08:55:21Z</time></trkpt><trkpt lat="42.333593883068126" lon="13.86388012346385"><ele>526.25</ele><time>2026-04-18T08:55:22Z</time></trkpt><trkpt lat="42.33358590300516" lon="13.863714010412075"><ele>527.0</ele><time>2026-04-18T08:55:23Z</time></trkpt><trkpt lat="42.33358094010956" lon="13.8635282687119"><ele>527.25</ele><time>2026-04-18T08:55:24Z</time></trkpt><trkpt lat="42.333588663122654" lon="13.863343718929588"><ele>527.5</ele><time>2026-04-18T08:55:25Z</time></trkpt><trkpt lat="42.33358017879419" lon="13.863198007079008"><ele>527.75</ele><time>2026-04-18T08:55:26Z</time></trkpt><trkpt lat="42.33355832118263" lon="13.863057128025865"><ele>528.0</ele><time>2026-04-18T08:55:27Z</time></trkpt><trkpt lat="42.333528090994236" lon="13.862874926528843"><ele>528.0</ele><time>2026-04-18T08:55:28Z</time></trkpt><trkpt lat="42.33350747781553" lon="13.862661903830897"><ele>528.0</ele><time>2026-04-18T08:55:29Z</time></trkpt><trkpt lat="42.33351349885004" lon="13.862450603376486"><ele>528.0</ele><time>2026-04-18T08:55:30Z</time></trkpt><trkpt lat="42.333544292189316" lon="13.86226211081334"><ele>528.25</ele><time>2026-04-18T08:55:31Z</time></trkpt><trkpt lat="42.33358921062467" lon="13.862093465759491"><ele>528.5</ele><time>2026-04-18T08:55:32Z</time></trkpt><trkpt lat="42.333646310323694" lon="13.86193478424311"><ele>528.75</ele><time>2026-04-18T08:55:33Z</time></trkpt><trkpt lat="42.33371611613791" lon="13.861805329656406"><ele>529.0</ele><time>2026-04-18T08:55:34Z</time></trkpt><trkpt lat="42.33380481795241" lon="13.861714604981545"><ele>531.25</ele><time>2026-04-18T08:55:35Z</time></trkpt><trkpt lat="42.333915849514085" lon="13.861645830709756"><ele>533.5</ele><time>2026-04-18T08:55:36Z</time></trkpt><trkpt lat="42.33404591300912" lon="13.861602434531685"><ele>535.75</ele><time>2026-04-18T08:55:37Z</time></trkpt><trkpt lat="42.33416438873501" lon="13.861570774971849"><ele>538.0</ele><time>2026-04-18T08:55:38Z</time></trkpt><trkpt lat="42.33425756213817" lon="13.861500824605086"><ele>538.0</ele><time>2026-04-18T08:55:39Z</time></trkpt><trkpt lat="42.33432772293309" lon="13.861399497943653"><ele>538.0</ele><time>2026-04-18T08:55:40Z</time></trkpt><trkpt lat="42.33437276443882" lon="13.86127590211332"><ele>538.0</ele><time>2026-04-18T08:55:41Z</time></trkpt><trkpt lat="42.33438355386881" lon="13.861159027105307"><ele>538.0</ele><time>2026-04-18T08:55:42Z</time></trkpt><trkpt lat="42.334381392184746" lon="13.861047001658859"><ele>538.0</ele><time>2026-04-18T08:55:43Z</time></trkpt><trkpt lat="42.33435252733159" lon="13.860929287352908"><ele>537.6</ele><time>2026-04-18T08:55:44Z</time></trkpt><trkpt lat="42.33432546829213" lon="13.860819762392993"><ele>537.1999999999999</ele><time>2026-04-18T08:55:45Z</time></trkpt><trkpt lat="42.33430709965812" lon="13.86071332241427"><ele>536.8</ele><time>2026-04-18T08:55:46Z</time></trkpt><trkpt lat="42.3342841546812" lon="13.860610111925368"><ele>536.4</ele><time>2026-04-18T08:55:47Z</time></trkpt><trkpt lat="42.33422569976243" lon="13.860514882575883"><ele>536.0</ele><time>2026-04-18T08:55:48Z</time></trkpt><trkpt lat="42.33412839016677" lon="13.86043257735038"><ele>536.0</ele><time>2026-04-18T08:55:49Z</time></trkpt><trkpt lat="42.334004498903404" lon="13.860372261882906"><ele>536.0</ele><time>2026-04-18T08:55:50Z</time></trkpt><trkpt lat="42.333855126359516" lon="13.860314377765555"><ele>536.0</ele><time>2026-04-18T08:55:51Z</time></trkpt><trkpt lat="42.3337510916958" lon="13.860231961151916"><ele>536.0</ele><time>2026-04-18T08:55:52Z</time></trkpt><trkpt lat="42.33367761600882" lon="13.860121104796407"><ele>535.0</ele><time>2026-04-18T08:55:53Z</time></trkpt><trkpt lat="42.33363014317459" lon="13.85998033714486"><ele>534.0</ele><time>2026-04-18T08:55:54Z</time></trkpt><trkpt lat="42.333601485727606" lon="13.859819954333707"><ele>533.0</ele><time>2026-04-18T08:55:55Z</time></trkpt><trkpt lat="42.33359340552537" lon="13.859639628046576"><ele>532.0</ele><time>2026-04-18T08:55:56Z</time></trkpt><trkpt lat="42.33356088252364" lon="13.859475268521566"><ele>532.0</ele><time>2026-04-18T08:55:57Z</time></trkpt><trkpt lat="42.333515802684126" lon="13.859320224846718"><ele>532.0</ele><time>2026-04-18T08:55:58Z</time></trkpt><trkpt lat="42.333489731667605" lon="13.859160472247668"><ele>532.0</ele><time>2026-04-18T08:55:59Z</time></trkpt><trkpt lat="42.333467904677086" lon="13.859015691557083"><ele>532.0</ele><time>2026-04-18T08:56:00Z</time></trkpt><trkpt lat="42.33345646456019" lon="13.858882248548618"><ele>532.75</ele><time>2026-04-18T08:56:01Z</time></trkpt><trkpt lat="42.3334519085703" lon="13.858739166999031"><ele>533.5</ele><time>2026-04-18T08:56:01.999Z</time></trkpt><trkpt lat="42.333464135832116" lon="13.85858570438436"><ele>534.25</ele><time>2026-04-18T08:56:02.999Z</time></trkpt><trkpt lat="42.33348795617039" lon="13.858418606107097"><ele>535.0</ele><time>2026-04-18T08:56:03.999Z</time></trkpt><trkpt lat="42.33352748309506" lon="13.858255471756848"><ele>535.0</ele><time>2026-04-18T08:56:04.999Z</time></trkpt><trkpt lat="42.333573236776765" lon="13.858118864420732"><ele>535.0</ele><time>2026-04-18T08:56:05.999Z</time></trkpt><trkpt lat="42.33361715796905" lon="13.857980541170727"><ele>535.0</ele><time>2026-04-18T08:56:06.999Z</time></trkpt><trkpt lat="42.333651445921966" lon="13.857830611110092"><ele>535.0</ele><time>2026-04-18T08:56:07.999Z</time></trkpt><trkpt lat="42.333676614416746" lon="13.85766570920743"><ele>535.5</ele><time>2026-04-18T08:56:08.999Z</time></trkpt><trkpt lat="42.333672417922934" lon="13.857482949451878"><ele>536.0</ele><time>2026-04-18T08:56:09.999Z</time></trkpt><trkpt lat="42.33364545925415" lon="13.857300965223699"><ele>536.5</ele><time>2026-04-18T08:56:10.999Z</time></trkpt><trkpt lat="42.333592818893905" lon="13.85713941209085"><ele>537.0</ele><time>2026-04-18T08:56:11.999Z</time></trkpt><trkpt lat="42.33353367074578" lon="13.856985283355497"><ele>537.0</ele><time>2026-04-18T08:56:12.999Z</time></trkpt><trkpt lat="42.33347504204853" lon="13.856828317002392"><ele>537.0</ele><time>2026-04-18T08:56:13.999Z</time></trkpt><trkpt lat="42.333414164240885" lon="13.856668212728316"><ele>537.0</ele><time>2026-04-18T08:56:14.999Z</time></trkpt><trkpt lat="42.333379372021824" lon="13.85649939714297"><ele>537.0</ele><time>2026-04-18T08:56:15.999Z</time></trkpt><trkpt lat="42.33336509332641" lon="13.856348907031471"><ele>538.25</ele><time>2026-04-18T08:56:16.999Z</time></trkpt><trkpt lat="42.333386539572025" lon="13.856195405243215"><ele>539.5</ele><time>2026-04-18T08:56:17.999Z</time></trkpt><trkpt lat="42.33342899520961" lon="13.85603453076263"><ele>540.75</ele><time>2026-04-18T08:56:18.999Z</time></trkpt><trkpt lat="42.33345857177614" lon="13.855876910499099"><ele>542.0</ele><time>2026-04-18T08:56:19.999Z</time></trkpt><trkpt lat="42.33344501695394" lon="13.85570023917466"><ele>543.75</ele><time>2026-04-18T08:56:20.999Z</time></trkpt><trkpt lat="42.33341042459987" lon="13.855509211072162"><ele>545.5</ele><time>2026-04-18T08:56:21.999Z</time></trkpt><trkpt lat="42.33338966283725" lon="13.855320917915797"><ele>547.25</ele><time>2026-04-18T08:56:22.999Z</time></trkpt><trkpt lat="42.33340472315949" lon="13.855130231269705"><ele>549.0</ele><time>2026-04-18T08:56:23.999Z</time></trkpt><trkpt lat="42.33345854405958" lon="13.854941291024"><ele>549.5</ele><time>2026-04-18T08:56:24.999Z</time></trkpt><trkpt lat="42.3335113463879" lon="13.854767675388034"><ele>550.0</ele><time>2026-04-18T08:56:25.999Z</time></trkpt><trkpt lat="42.33355832170267" lon="13.854606022283322"><ele>550.5</ele><time>2026-04-18T08:56:26.999Z</time></trkpt><trkpt lat="42.33360213772415" lon="13.854440886613718"><ele>551.0</ele><time>2026-04-18T08:56:27.999Z</time></trkpt><trkpt lat="42.33365127559692" lon="13.854279583608239"><ele>551.0</ele><time>2026-04-18T08:56:28.999Z</time></trkpt><trkpt lat="42.33369664397396" lon="13.85411884104347"><ele>551.0</ele><time>2026-04-18T08:56:29.999Z</time></trkpt><trkpt lat="42.33376772964537" lon="13.853965748977345"><ele>551.0</ele><time>2026-04-18T08:56:30.999Z</time></trkpt><trkpt lat="42.333858987417386" lon="13.853821938936694"><ele>551.0</ele><time>2026-04-18T08:56:31.999Z</time></trkpt><trkpt lat="42.33396233048517" lon="13.85369476109535"><ele>556.0</ele><time>2026-04-18T08:56:32.999Z</time></trkpt><trkpt lat="42.3340576637324" lon="13.85355368276133"><ele>561.0</ele><time>2026-04-18T08:56:33.999Z</time></trkpt><trkpt lat="42.334142485732436" lon="13.85339588733727"><ele>566.0</ele><time>2026-04-18T08:56:34.999Z</time></trkpt><trkpt lat="42.33421883800005" lon="13.853233064208158"><ele>571.0</ele><time>2026-04-18T08:56:35.999Z</time></trkpt><trkpt lat="42.33428282095154" lon="13.853065468144717"><ele>571.0</ele><time>2026-04-18T08:56:36.999Z</time></trkpt><trkpt lat="42.33433882942777" lon="13.852903675896409"><ele>571.0</ele><time>2026-04-18T08:56:37.999Z</time></trkpt><trkpt lat="42.334400872488835" lon="13.852747530047045"><ele>571.0</ele><time>2026-04-18T08:56:38.999Z</time></trkpt><trkpt lat="42.33446291349478" lon="13.852600797137498"><ele>571.0</ele><time>2026-04-18T08:56:39.999Z</time></trkpt><trkpt lat="42.33452286725065" lon="13.852462944813542"><ele>572.2</ele><time>2026-04-18T08:56:40.999Z</time></trkpt><trkpt lat="42.33457268817394" lon="13.852323577515234"><ele>573.4000000000001</ele><time>2026-04-18T08:56:41.999Z</time></trkpt><trkpt lat="42.33461283482282" lon="13.852187916793296"><ele>574.6</ele><time>2026-04-18T08:56:42.999Z</time></trkpt><trkpt lat="42.33466784789396" lon="13.852071592167732"><ele>575.8000000000001</ele><time>2026-04-18T08:56:43.999Z</time></trkpt><trkpt lat="42.33474740071154" lon="13.851979130088552"><ele>577.0</ele><time>2026-04-18T08:56:44.999Z</time></trkpt><trkpt lat="42.334829095894754" lon="13.85189193110983"><ele>577.0</ele><time>2026-04-18T08:56:45.999Z</time></trkpt><trkpt lat="42.334913572250336" lon="13.851802975888399"><ele>577.0</ele><time>2026-04-18T08:56:46.999Z</time></trkpt><trkpt lat="42.33499253182444" lon="13.851719415538136"><ele>577.0</ele><time>2026-04-18T08:56:47.999Z</time></trkpt><trkpt lat="42.33506333943018" lon="13.851649635045975"><ele>577.0</ele><time>2026-04-18T08:56:48.999Z</time></trkpt><trkpt lat="42.33512933088648" lon="13.851601802331102"><ele>577.0</ele><time>2026-04-18T08:56:49.999Z</time></trkpt><trkpt lat="42.33514928641243" lon="13.851503037634322"><ele>577.0</ele><time>2026-04-18T08:56:50.999Z</time></trkpt><trkpt lat="42.3352085442812" lon="13.851392792169323"><ele>577.4</ele><time>2026-04-18T08:56:52.999Z</time></trkpt><trkpt lat="42.335283285744666" lon="13.851279054076242"><ele>577.8000000000001</ele><time>2026-04-18T08:56:54.999Z</time></trkpt><trkpt lat="42.33538527057962" lon="13.851193800960148"><ele>578.2</ele><time>2026-04-18T08:56:56.999Z</time></trkpt><trkpt lat="42.33543636826121" lon="13.851143675877651"><ele>578.6</ele><time>2026-04-18T08:56:58Z</time></trkpt><trkpt lat="42.33550271452081" lon="13.85109880475878"><ele>579.0</ele><time>2026-04-18T08:56:59Z</time></trkpt><trkpt lat="42.33557656318105" lon="13.85105149282683"><ele>579.0</ele><time>2026-04-18T08:57:00Z</time></trkpt><trkpt lat="42.33565092994407" lon="13.851016139399249"><ele>579.0</ele><time>2026-04-18T08:57:01Z</time></trkpt><trkpt lat="42.33572515091875" lon="13.850987325268438"><ele>579.0</ele><time>2026-04-18T08:57:02Z</time></trkpt><trkpt lat="42.33580824671385" lon="13.850893598629776"><ele>579.0</ele><time>2026-04-18T08:57:04Z</time></trkpt><trkpt lat="42.33582390117541" lon="13.850795637663094"><ele>579.0</ele><time>2026-04-18T08:57:05Z</time></trkpt><trkpt lat="42.33581625600704" lon="13.850693498965443"><ele>579.0</ele><time>2026-04-18T08:57:06Z</time></trkpt><trkpt lat="42.33580361043723" lon="13.850598242541405"><ele>577.8</ele><time>2026-04-18T08:57:07Z</time></trkpt><trkpt lat="42.33579901537281" lon="13.850459706391367"><ele>576.5999999999999</ele><time>2026-04-18T08:57:09Z</time></trkpt><trkpt lat="42.335799599107574" lon="13.85037260568918"><ele>575.4</ele><time>2026-04-18T08:57:13Z</time></trkpt><trkpt lat="42.33580484042808" lon="13.850264060802472"><ele>574.1999999999999</ele><time>2026-04-18T08:57:37Z</time></trkpt><trkpt lat="42.335829210517765" lon="13.85012389532852"><ele>573.0</ele><time>2026-04-18T08:57:39Z</time></trkpt><trkpt lat="42.33591813829331" lon="13.850017666843504"><ele>573.0</ele><time>2026-04-18T08:57:41Z</time></trkpt><trkpt lat="42.3360156807084" lon="13.849922494340221"><ele>573.0</ele><time>2026-04-18T08:57:43Z</time></trkpt><trkpt lat="42.3360891606513" lon="13.849815167458056"><ele>573.0</ele><time>2026-04-18T08:57:45Z</time></trkpt><trkpt lat="42.336079843374634" lon="13.849723218394288"><ele>573.0</ele><time>2026-04-18T08:57:46Z</time></trkpt><trkpt lat="42.33608616833229" lon="13.849592861009747"><ele>573.0</ele><time>2026-04-18T08:57:48Z</time></trkpt><trkpt lat="42.33609853297774" lon="13.849460897668601"><ele>573.0</ele><time>2026-04-18T08:57:50Z</time></trkpt><trkpt lat="42.33609315139514" lon="13.849364683566769"><ele>573.0</ele><time>2026-04-18T08:57:51Z</time></trkpt><trkpt lat="42.336120373205574" lon="13.849253945469016"><ele>573.0</ele><time>2026-04-18T08:57:52Z</time></trkpt><trkpt lat="42.33614040197919" lon="13.849154825391867"><ele>573.0</ele><time>2026-04-18T08:57:53Z</time></trkpt><trkpt lat="42.33615338323321" lon="13.849061048335862"><ele>573.0</ele><time>2026-04-18T08:57:54Z</time></trkpt><trkpt lat="42.33618325235245" lon="13.84896538093722"><ele>573.0</ele><time>2026-04-18T08:57:55Z</time></trkpt><trkpt lat="42.33620925378399" lon="13.848869524662316"><ele>575.25</ele><time>2026-04-18T08:57:56Z</time></trkpt><trkpt lat="42.336233545705525" lon="13.848774704893636"><ele>577.5</ele><time>2026-04-18T08:57:57Z</time></trkpt><trkpt lat="42.33625533930252" lon="13.848693983559112"><ele>579.75</ele><time>2026-04-18T08:57:58Z</time></trkpt><trkpt lat="42.336270496997265" lon="13.848607472619445"><ele>582.0</ele><time>2026-04-18T08:57:59Z</time></trkpt><trkpt lat="42.33627401402939" lon="13.848246202126894"><ele>583.5</ele><time>2026-04-18T08:58:03Z</time></trkpt><trkpt lat="42.336281447606986" lon="13.848126015546617"><ele>585.0</ele><time>2026-04-18T08:58:05Z</time></trkpt><trkpt lat="42.33631992487679" lon="13.847984332751636"><ele>586.5</ele><time>2026-04-18T08:58:07Z</time></trkpt><trkpt lat="42.33627466421913" lon="13.847910951093844"><ele>588.0</ele><time>2026-04-18T08:58:54.999Z</time></trkpt><trkpt lat="42.33627586235394" lon="13.847822921956233"><ele>589.5</ele><time>2026-04-18T08:59:26Z</time></trkpt><trkpt lat="42.33630307264337" lon="13.847698740498915"><ele>591.0</ele><time>2026-04-18T08:59:28Z</time></trkpt><trkpt lat="42.33631482986982" lon="13.84754065996541"><ele>594.1666666666666</ele><time>2026-04-18T08:59:30Z</time></trkpt><trkpt lat="42.336305377075945" lon="13.84739222578815"><ele>597.3333333333334</ele><time>2026-04-18T08:59:32Z</time></trkpt><trkpt lat="42.336300625086515" lon="13.847235293144266"><ele>600.5</ele><time>2026-04-18T08:59:34Z</time></trkpt><trkpt lat="42.3362887341475" lon="13.84714703717878"><ele>603.6666666666667</ele><time>2026-04-18T08:59:35Z</time></trkpt><trkpt lat="42.3362851968541" lon="13.847061459602664"><ele>606.8333333333334</ele><time>2026-04-18T08:59:36Z</time></trkpt><trkpt lat="42.33629130736956" lon="13.846972594173925"><ele>610.0</ele><time>2026-04-18T08:59:37Z</time></trkpt><trkpt lat="42.33628526168304" lon="13.846858642831245"><ele>614.0</ele><time>2026-04-18T08:59:38Z</time></trkpt><trkpt lat="42.33628734229167" lon="13.846735277938976"><ele>618.0</ele><time>2026-04-18T08:59:39Z</time></trkpt><trkpt lat="42.33628225737032" lon="13.846614288834953"><ele>622.0</ele><time>2026-04-18T08:59:40Z</time></trkpt><trkpt lat="42.33628195381846" lon="13.846494037716177"><ele>626.0</ele><time>2026-04-18T08:59:41Z</time></trkpt><trkpt lat="42.336278418585316" lon="13.846400382415268"><ele>630.0</ele><time>2026-04-18T08:59:42Z</time></trkpt><trkpt lat="42.33626579180648" lon="13.846304152182407"><ele>634.0</ele><time>2026-04-18T08:59:43Z</time></trkpt><trkpt lat="42.336265983712856" lon="13.84618925060346"><ele>634.0</ele><time>2026-04-18T08:59:45Z</time></trkpt><trkpt lat="42.336310038105175" lon="13.846109249304346"><ele>634.0</ele><time>2026-04-18T08:59:48Z</time></trkpt><trkpt lat="42.336276543093526" lon="13.845960764387915"><ele>634.0</ele><time>2026-04-18T08:59:52Z</time></trkpt><trkpt lat="42.33627520898036" lon="13.845838023167145"><ele>634.0</ele><time>2026-04-18T08:59:54Z</time></trkpt><trkpt lat="42.336219188714715" lon="13.845727405924661"><ele>634.0</ele><time>2026-04-18T08:59:56Z</time></trkpt><trkpt lat="42.3362078185743" lon="13.845639978778543"><ele>634.0</ele><time>2026-04-18T09:00:00Z</time></trkpt><trkpt lat="42.336301629277706" lon="13.845557323254924"><ele>638.4</ele><time>2026-04-18T09:00:04Z</time></trkpt><trkpt lat="42.33639155985888" lon="13.845480273510088"><ele>642.8</ele><time>2026-04-18T09:00:06Z</time></trkpt><trkpt lat="42.33642748137433" lon="13.845309458160113"><ele>647.1999999999999</ele><time>2026-04-18T09:00:08Z</time></trkpt><trkpt lat="42.336447178574666" lon="13.845207162391283"><ele>651.5999999999999</ele><time>2026-04-18T09:00:09Z</time></trkpt><trkpt lat="42.33645397070641" lon="13.845090183393566"><ele>656.0</ele><time>2026-04-18T09:00:10Z</time></trkpt><trkpt lat="42.336459560487334" lon="13.844983203857455"><ele>658.0</ele><time>2026-04-18T09:00:11Z</time></trkpt><trkpt lat="42.33645827666698" lon="13.844871759774188"><ele>660.0</ele><time>2026-04-18T09:00:12Z</time></trkpt><trkpt lat="42.33645613420948" lon="13.844771175727285"><ele>662.0</ele><time>2026-04-18T09:00:13Z</time></trkpt><trkpt lat="42.3364565173678" lon="13.84468137910442"><ele>664.0</ele><time>2026-04-18T09:00:14Z</time></trkpt><trkpt lat="42.336471121027785" lon="13.844542356597776"><ele>666.0</ele><time>2026-04-18T09:00:16Z</time></trkpt><trkpt lat="42.33648767573662" lon="13.844400276989843"><ele>668.0</ele><time>2026-04-18T09:00:17.999Z</time></trkpt><trkpt lat="42.336497322601595" lon="13.844281269187217"><ele>670.5999999999999</ele><time>2026-04-18T09:00:19.999Z</time></trkpt><trkpt lat="42.336512355560124" lon="13.844159207903289"><ele>673.1999999999999</ele><time>2026-04-18T09:00:20.999Z</time></trkpt><trkpt lat="42.33653180520696" lon="13.844059100020564"><ele>675.8</ele><time>2026-04-18T09:00:21.999Z</time></trkpt><trkpt lat="42.336589136673624" lon="13.843905565203144"><ele>678.4</ele><time>2026-04-18T09:00:22.999Z</time></trkpt><trkpt lat="42.33662212482616" lon="13.84377431533399"><ele>681.0</ele><time>2026-04-18T09:00:24.999Z</time></trkpt><trkpt lat="42.336644056755546" lon="13.843631804877914"><ele>682.5999999999999</ele><time>2026-04-18T09:00:26.999Z</time></trkpt><trkpt lat="42.336641963110814" lon="13.843463755033584"><ele>684.2</ele><time>2026-04-18T09:00:28.999Z</time></trkpt><trkpt lat="42.336652038139064" lon="13.84336671385081"><ele>685.8</ele><time>2026-04-18T09:00:30.999Z</time></trkpt><trkpt lat="42.33662533804544" lon="13.84319852470522"><ele>687.4000000000001</ele><time>2026-04-18T09:00:32.999Z</time></trkpt><trkpt lat="42.33659450710855" lon="13.843077768629806"><ele>689.0</ele><time>2026-04-18T09:00:33.999Z</time></trkpt><trkpt lat="42.33657024040325" lon="13.842985609758239"><ele>689.0</ele><time>2026-04-18T09:00:34.999Z</time></trkpt><trkpt lat="42.3365632053852" lon="13.842886871095788"><ele>689.0</ele><time>2026-04-18T09:00:35.999Z</time></trkpt><trkpt lat="42.33657039818849" lon="13.842771932700284"><ele>689.0</ele><time>2026-04-18T09:00:36.999Z</time></trkpt><trkpt lat="42.336572662634545" lon="13.842647263872752"><ele>689.0</ele><time>2026-04-18T09:00:37.999Z</time></trkpt><trkpt lat="42.33657236411842" lon="13.842558080571475"><ele>689.0</ele><time>2026-04-18T09:00:38.999Z</time></trkpt><trkpt lat="42.33657724144313" lon="13.842430884105003"><ele>689.0</ele><time>2026-04-18T09:00:40.999Z</time></trkpt><trkpt lat="42.336597990607096" lon="13.842340679146057"><ele>690.3333333333333</ele><time>2026-04-18T09:00:41.999Z</time></trkpt><trkpt lat="42.33663299234723" lon="13.84221177858544"><ele>691.6666666666666</ele><time>2026-04-18T09:00:42.999Z</time></trkpt><trkpt lat="42.336647661283564" lon="13.842113768658512"><ele>693.0</ele><time>2026-04-18T09:00:43.999Z</time></trkpt><trkpt lat="42.33664721702777" lon="13.8419755257333"><ele>694.3333333333334</ele><time>2026-04-18T09:00:47.999Z</time></trkpt><trkpt lat="42.33662140157133" lon="13.841884777680288"><ele>695.6666666666667</ele><time>2026-04-18T09:00:48.999Z</time></trkpt><trkpt lat="42.336580833682405" lon="13.841788115864542"><ele>697.0</ele><time>2026-04-18T09:00:50.999Z</time></trkpt><trkpt lat="42.336591779079654" lon="13.841670356572711"><ele>697.8333333333334</ele><time>2026-04-18T09:00:52.999Z</time></trkpt><trkpt lat="42.33658685930041" lon="13.841537761456532"><ele>698.6666666666667</ele><time>2026-04-18T09:00:53.999Z</time></trkpt><trkpt lat="42.336573429274985" lon="13.841420237362772"><ele>699.5</ele><time>2026-04-18T09:00:54.999Z</time></trkpt><trkpt lat="42.336553988202645" lon="13.841315398779916"><ele>700.3333333333334</ele><time>2026-04-18T09:00:55.999Z</time></trkpt><trkpt lat="42.3365197691807" lon="13.841227650227012"><ele>701.1666666666666</ele><time>2026-04-18T09:00:56.999Z</time></trkpt><trkpt lat="42.33647148429577" lon="13.84115654643524"><ele>702.0</ele><time>2026-04-18T09:00:57.999Z</time></trkpt><trkpt lat="42.336428525423194" lon="13.841072368312672"><ele>705.7142857142858</ele><time>2026-04-18T09:01:01.999Z</time></trkpt><trkpt lat="42.336374693408565" lon="13.840988586524787"><ele>709.4285714285714</ele><time>2026-04-18T09:01:03.999Z</time></trkpt><trkpt lat="42.33634876060158" lon="13.84090634296413"><ele>713.1428571428571</ele><time>2026-04-18T09:01:07.999Z</time></trkpt><trkpt lat="42.33632095735421" lon="13.840808621674269"><ele>716.8571428571429</ele><time>2026-04-18T09:01:10Z</time></trkpt><trkpt lat="42.336285307202196" lon="13.840711776684296"><ele>720.5714285714286</ele><time>2026-04-18T09:01:12Z</time></trkpt><trkpt lat="42.33624124000452" lon="13.840646656879741"><ele>724.2857142857143</ele><time>2026-04-18T09:02:10Z</time></trkpt><trkpt lat="42.336186333447245" lon="13.840594554570744"><ele>728.0</ele><time>2026-04-18T09:04:15Z</time></trkpt><trkpt lat="42.3361386328584" lon="13.840537361918502"><ele>728.3333333333333</ele><time>2026-04-18T09:04:23.999Z</time></trkpt><trkpt lat="42.33607524069729" lon="13.840502623264056"><ele>728.6666666666666</ele><time>2026-04-18T09:05:17.999Z</time></trkpt><trkpt lat="42.33616937557722" lon="13.840524253218172"><ele>729.0</ele><time>2026-04-18T09:09:59Z</time></trkpt><trkpt lat="42.33622596815779" lon="13.840563663151837"><ele>729.3333333333334</ele><time>2026-04-18T09:10:09Z</time></trkpt><trkpt lat="42.336142665627406" lon="13.840554576919088"><ele>729.6666666666667</ele><time>2026-04-18T09:12:34Z</time></trkpt><trkpt lat="42.33607250992602" lon="13.84047797153737"><ele>730.0</ele><time>2026-04-18T09:14:12.998Z</time></trkpt><trkpt lat="42.33600933845559" lon="13.840487690936206"><ele>730.0</ele><time>2026-04-18T09:16:11Z</time></trkpt><trkpt lat="42.335973910135436" lon="13.840410051802227"><ele>730.0</ele><time>2026-04-18T09:19:37.999Z</time></trkpt><trkpt lat="42.33592679841979" lon="13.840344715902953"><ele>730.0</ele><time>2026-04-18T09:20:07Z</time></trkpt><trkpt lat="42.33584421736227" lon="13.840272925085412"><ele>730.0</ele><time>2026-04-18T09:20:41Z</time></trkpt><trkpt lat="42.33585348946317" lon="13.840123414068213"><ele>730.0</ele><time>2026-04-18T09:23:22.999Z</time></trkpt><trkpt lat="42.335836544125584" lon="13.84003491601791"><ele>730.0</ele><time>2026-04-18T09:28:56Z</time></trkpt><trkpt lat="42.33583516168521" lon="13.839923574966708"><ele>731.2</ele><time>2026-04-18T09:28:58Z</time></trkpt><trkpt lat="42.33584492848018" lon="13.839828777877495"><ele>732.4</ele><time>2026-04-18T09:29:00Z</time></trkpt><trkpt lat="42.3358481978342" lon="13.839714803612445"><ele>733.5999999999999</ele><time>2026-04-18T09:29:02Z</time></trkpt><trkpt lat="42.33581827264578" lon="13.83956305567772"><ele>734.8</ele><time>2026-04-18T09:29:03.999Z</time></trkpt><trkpt lat="42.335794780413224" lon="13.839445062969205"><ele>736.0</ele><time>2026-04-18T09:29:05.999Z</time></trkpt><trkpt lat="42.3357872775947" lon="13.839315408550178"><ele>737.6666666666667</ele><time>2026-04-18T09:29:07.999Z</time></trkpt><trkpt lat="42.335797527594956" lon="13.839205607871857"><ele>739.3333333333334</ele><time>2026-04-18T09:29:09.999Z</time></trkpt><trkpt lat="42.33580759765607" lon="13.839101687664257"><ele>741.0</ele><time>2026-04-18T09:29:11.999Z</time></trkpt><trkpt lat="42.33580472086631" lon="13.838997364930874"><ele>742.6666666666666</ele><time>2026-04-18T09:29:14.999Z</time></trkpt><trkpt lat="42.33581388585019" lon="13.838893433187122"><ele>744.3333333333333</ele><time>2026-04-18T09:29:18.999Z</time></trkpt><trkpt lat="42.3358096210062" lon="13.838747817170049"><ele>746.0</ele><time>2026-04-18T09:29:20.999Z</time></trkpt><trkpt lat="42.335835407610126" lon="13.83863449954744"><ele>746.0</ele><time>2026-04-18T09:29:22.999Z</time></trkpt><trkpt lat="42.33588898380251" lon="13.838516836493739"><ele>746.0</ele><time>2026-04-18T09:29:49.999Z</time></trkpt><trkpt lat="42.33594939012366" lon="13.838375344798719"><ele>746.0</ele><time>2026-04-18T09:29:51.999Z</time></trkpt><trkpt lat="42.33599082495372" lon="13.838293339766206"><ele>746.0</ele><time>2026-04-18T09:29:52.999Z</time></trkpt><trkpt lat="42.336022619624444" lon="13.838189946873339"><ele>746.0</ele><time>2026-04-18T09:29:53.999Z</time></trkpt><trkpt lat="42.33604716072465" lon="13.838093804271011"><ele>748.5999999999999</ele><time>2026-04-18T09:29:54.999Z</time></trkpt><trkpt lat="42.336055950798105" lon="13.838003022492426"><ele>751.2</ele><time>2026-04-18T09:29:55.999Z</time></trkpt><trkpt lat="42.336036202104" lon="13.837899593846654"><ele>753.8</ele><time>2026-04-18T09:29:56.999Z</time></trkpt><trkpt lat="42.33594745465515" lon="13.837792441531805"><ele>756.4000000000001</ele><time>2026-04-18T09:29:57.999Z</time></trkpt><trkpt lat="42.33593070542844" lon="13.837667539097888"><ele>759.0</ele><time>2026-04-18T09:29:58.999Z</time></trkpt><trkpt lat="42.335920692517554" lon="13.83754516716689"><ele>761.4000000000001</ele><time>2026-04-18T09:29:59.999Z</time></trkpt><trkpt lat="42.33590552744834" lon="13.837439093368753"><ele>763.8</ele><time>2026-04-18T09:30:00.999Z</time></trkpt><trkpt lat="42.33588918750105" lon="13.837345135388544"><ele>766.2</ele><time>2026-04-18T09:30:01.999Z</time></trkpt><trkpt lat="42.33587066288967" lon="13.83721697911929"><ele>768.5999999999999</ele><time>2026-04-18T09:30:02.999Z</time></trkpt><trkpt lat="42.33586518508767" lon="13.83703918114348"><ele>771.0</ele><time>2026-04-18T09:30:03.999Z</time></trkpt><trkpt lat="42.33584952783241" lon="13.83686153536822"><ele>771.4</ele><time>2026-04-18T09:30:04.999Z</time></trkpt><trkpt lat="42.33583575333296" lon="13.836710910722365"><ele>771.8</ele><time>2026-04-18T09:30:05.999Z</time></trkpt><trkpt lat="42.335830269394336" lon="13.836570511264283"><ele>772.1999999999999</ele><time>2026-04-18T09:30:06.999Z</time></trkpt><trkpt lat="42.33582139563733" lon="13.8364625842435"><ele>772.5999999999999</ele><time>2026-04-18T09:30:07.999Z</time></trkpt><trkpt lat="42.335796455637386" lon="13.836329060041708"><ele>773.0</ele><time>2026-04-18T09:30:08.999Z</time></trkpt><trkpt lat="42.33575946176033" lon="13.836178682690086"><ele>773.0</ele><time>2026-04-18T09:30:09.999Z</time></trkpt><trkpt lat="42.335729096726524" lon="13.836017001954254"><ele>773.0</ele><time>2026-04-18T09:30:10.999Z</time></trkpt><trkpt lat="42.335709456063796" lon="13.835850431687533"><ele>773.0</ele><time>2026-04-18T09:30:11.999Z</time></trkpt><trkpt lat="42.33570250380686" lon="13.83567904853692"><ele>773.0</ele><time>2026-04-18T09:30:12.999Z</time></trkpt><trkpt lat="42.335696172244134" lon="13.835513417442915"><ele>774.0</ele><time>2026-04-18T09:30:13.999Z</time></trkpt><trkpt lat="42.33568714786478" lon="13.835398617029053"><ele>775.0</ele><time>2026-04-18T09:30:14.998Z</time></trkpt><trkpt lat="42.33567376768505" lon="13.835286180583136"><ele>776.0</ele><time>2026-04-18T09:30:15.998Z</time></trkpt><trkpt lat="42.33566562899322" lon="13.835186438846915"><ele>777.0</ele><time>2026-04-18T09:30:16.998Z</time></trkpt><trkpt lat="42.33567550387138" lon="13.835094645707683"><ele>778.0</ele><time>2026-04-18T09:30:17.998Z</time></trkpt><trkpt lat="42.33569615388873" lon="13.835008688315984"><ele>779.0</ele><time>2026-04-18T09:30:18.998Z</time></trkpt><trkpt lat="42.33573607334361" lon="13.834940420896777"><ele>780.0</ele><time>2026-04-18T09:30:19.998Z</time></trkpt><trkpt lat="42.33578354777702" lon="13.83485261332959"><ele>782.0</ele><time>2026-04-18T09:30:20.998Z</time></trkpt><trkpt lat="42.33585183139484" lon="13.834705514683883"><ele>784.0</ele><time>2026-04-18T09:30:21.998Z</time></trkpt><trkpt lat="42.33591476390175" lon="13.834544366354462"><ele>786.0</ele><time>2026-04-18T09:30:22.998Z</time></trkpt><trkpt lat="42.33596117101877" lon="13.83442405973022"><ele>788.0</ele><time>2026-04-18T09:30:23.998Z</time></trkpt><trkpt lat="42.33604582113703" lon="13.83437497837807"><ele>789.2</ele><time>2026-04-18T09:30:24.998Z</time></trkpt><trkpt lat="42.33614041258803" lon="13.834303369080791"><ele>790.4</ele><time>2026-04-18T09:30:25.998Z</time></trkpt><trkpt lat="42.33622728124754" lon="13.834236874568083"><ele>791.6</ele><time>2026-04-18T09:30:26.998Z</time></trkpt><trkpt lat="42.33634165604751" lon="13.834158936970898"><ele>792.8000000000001</ele><time>2026-04-18T09:30:27.998Z</time></trkpt><trkpt lat="42.336434893840696" lon="13.834096924509138"><ele>794.0</ele><time>2026-04-18T09:30:28.998Z</time></trkpt><trkpt lat="42.3364875180172" lon="13.834048567987253"><ele>794.0</ele><time>2026-04-18T09:30:30Z</time></trkpt><trkpt lat="42.3365042726655" lon="13.83395013119757"><ele>794.0</ele><time>2026-04-18T09:30:32Z</time></trkpt><trkpt lat="42.336445226762415" lon="13.833873794525894"><ele>794.0</ele><time>2026-04-18T09:30:34Z</time></trkpt><trkpt lat="42.33633777929131" lon="13.833891449215123"><ele>794.0</ele><time>2026-04-18T09:30:36Z</time></trkpt><trkpt lat="42.33620376749661" lon="13.83393620358209"><ele>794.0</ele><time>2026-04-18T09:30:38Z</time></trkpt><trkpt lat="42.33611183989081" lon="13.833990430286446"><ele>796.0</ele><time>2026-04-18T09:30:39Z</time></trkpt><trkpt lat="42.335992793480074" lon="13.834013340085956"><ele>798.0</ele><time>2026-04-18T09:30:40Z</time></trkpt><trkpt lat="42.33586189629236" lon="13.834008686291034"><ele>800.0</ele><time>2026-04-18T09:30:41Z</time></trkpt><trkpt lat="42.33570527316023" lon="13.833987044216395"><ele>802.0</ele><time>2026-04-18T09:30:42Z</time></trkpt><trkpt lat="42.335562748854265" lon="13.833943985015805"><ele>802.0</ele><time>2026-04-18T09:30:43Z</time></trkpt><trkpt lat="42.33544290071902" lon="13.83389727820188"><ele>802.0</ele><time>2026-04-18T09:30:44Z</time></trkpt><trkpt lat="42.33537640041197" lon="13.833852379288752"><ele>802.0</ele><time>2026-04-18T09:30:45Z</time></trkpt><trkpt lat="42.335371680438904" lon="13.833745957343247"><ele>802.0</ele><time>2026-04-18T09:30:47Z</time></trkpt><trkpt lat="42.335482642588325" lon="13.833668387664499"><ele>802.0</ele><time>2026-04-18T09:30:49Z</time></trkpt><trkpt lat="42.3355748595756" lon="13.833654803815396"><ele>802.0</ele><time>2026-04-18T09:30:50Z</time></trkpt><trkpt lat="42.33569915863474" lon="13.833627208584296"><ele>802.0</ele><time>2026-04-18T09:30:51Z</time></trkpt><trkpt lat="42.335817172526404" lon="13.833597794725796"><ele>802.0</ele><time>2026-04-18T09:30:52Z</time></trkpt><trkpt lat="42.335908458961036" lon="13.833586319568838"><ele>802.0</ele><time>2026-04-18T09:30:53Z</time></trkpt><trkpt lat="42.33597305601433" lon="13.833542200709118"><ele>802.0</ele><time>2026-04-18T09:30:54Z</time></trkpt><trkpt lat="42.33603221400094" lon="13.833420737534167"><ele>805.6</ele><time>2026-04-18T09:30:55Z</time></trkpt><trkpt lat="42.33610892777122" lon="13.833333560583966"><ele>809.2</ele><time>2026-04-18T09:30:56Z</time></trkpt><trkpt lat="42.336180303769964" lon="13.833255181111431"><ele>812.8</ele><time>2026-04-18T09:30:57Z</time></trkpt><trkpt lat="42.336265016896235" lon="13.833168951848709"><ele>816.4</ele><time>2026-04-18T09:30:58Z</time></trkpt><trkpt lat="42.33634099075814" lon="13.833099315881746"><ele>820.0</ele><time>2026-04-18T09:30:59Z</time></trkpt><trkpt lat="42.336397857969985" lon="13.833055650637455"><ele>819.9999999999999</ele><time>2026-04-18T09:31:00Z</time></trkpt><trkpt lat="42.33645737790415" lon="13.833006036619743"><ele>820.0</ele><time>2026-04-18T09:31:01Z</time></trkpt><trkpt lat="42.3365221519839" lon="13.832934861281004"><ele>820.0</ele><time>2026-04-18T09:31:02Z</time></trkpt><trkpt lat="42.336586690152835" lon="13.832819635941286"><ele>820.0</ele><time>2026-04-18T09:31:03Z</time></trkpt><trkpt lat="42.336635682804605" lon="13.832709091475335"><ele>819.9999999999999</ele><time>2026-04-18T09:31:04Z</time></trkpt><trkpt lat="42.33666202758737" lon="13.832600951632188"><ele>820.0</ele><time>2026-04-18T09:31:05Z</time></trkpt><trkpt lat="42.33667672886453" lon="13.8324724767954"><ele>821.6</ele><time>2026-04-18T09:31:07Z</time></trkpt><trkpt lat="42.336643491791044" lon="13.832393973255444"><ele>823.2</ele><time>2026-04-18T09:31:08.999Z</time></trkpt><trkpt lat="42.3365635549311" lon="13.83243016070496"><ele>824.8</ele><time>2026-04-18T09:31:09.999Z</time></trkpt><trkpt lat="42.33645132347056" lon="13.832524023261579"><ele>826.4</ele><time>2026-04-18T09:31:11.999Z</time></trkpt><trkpt lat="42.33633496620557" lon="13.83263726158056"><ele>828.0</ele><time>2026-04-18T09:31:12.999Z</time></trkpt><trkpt lat="42.336210812028455" lon="13.832744901521751"><ele>828.0</ele><time>2026-04-18T09:31:13.999Z</time></trkpt><trkpt lat="42.33610188947069" lon="13.83281432040344"><ele>828.0</ele><time>2026-04-18T09:31:14.999Z</time></trkpt><trkpt lat="42.33598212173963" lon="13.832869775163456"><ele>828.0</ele><time>2026-04-18T09:31:15.999Z</time></trkpt><trkpt lat="42.33591617051585" lon="13.832899284940064"><ele>828.0</ele><time>2026-04-18T09:31:16.999Z</time></trkpt><trkpt lat="42.33580412006052" lon="13.8328989440978"><ele>828.0</ele><time>2026-04-18T09:31:17.999Z</time></trkpt><trkpt lat="42.33568474976835" lon="13.832863611846735"><ele>831.6666666666667</ele><time>2026-04-18T09:31:18.999Z</time></trkpt><trkpt lat="42.33555228268246" lon="13.832719590104041"><ele>835.3333333333334</ele><time>2026-04-18T09:31:19.999Z</time></trkpt><trkpt lat="42.335396993647585" lon="13.832672786815152"><ele>839.0</ele><time>2026-04-18T09:31:20.999Z</time></trkpt><trkpt lat="42.335270606598876" lon="13.8326398329334"><ele>844.4000000000001</ele><time>2026-04-18T09:31:21.999Z</time></trkpt><trkpt lat="42.335166500796966" lon="13.832619088006744"><ele>849.8</ele><time>2026-04-18T09:31:22.999Z</time></trkpt><trkpt lat="42.335049309511604" lon="13.832612868671585"><ele>855.1999999999999</ele><time>2026-04-18T09:31:23.999Z</time></trkpt><trkpt lat="42.33493640122515" lon="13.832626648260772"><ele>860.5999999999999</ele><time>2026-04-18T09:31:24.999Z</time></trkpt><trkpt lat="42.33483497715509" lon="13.83263301887251"><ele>866.0</ele><time>2026-04-18T09:31:25.999Z</time></trkpt><trkpt lat="42.33473974165381" lon="13.8326361814602"><ele>863.25</ele><time>2026-04-18T09:31:26.999Z</time></trkpt><trkpt lat="42.33462765795325" lon="13.832648543626979"><ele>860.5</ele><time>2026-04-18T09:31:27.999Z</time></trkpt><trkpt lat="42.33449703861181" lon="13.83270458971652"><ele>857.75</ele><time>2026-04-18T09:31:28.999Z</time></trkpt><trkpt lat="42.33438004076893" lon="13.832778821979888"><ele>855.0</ele><time>2026-04-18T09:31:29.999Z</time></trkpt><trkpt lat="42.33428811317037" lon="13.832857823419316"><ele>855.0</ele><time>2026-04-18T09:31:30.999Z</time></trkpt><trkpt lat="42.33420421366504" lon="13.832930661264287"><ele>855.0</ele><time>2026-04-18T09:31:31.999Z</time></trkpt><trkpt lat="42.33413055145769" lon="13.832984337527687"><ele>855.0</ele><time>2026-04-18T09:31:32.999Z</time></trkpt><trkpt lat="42.33406972117608" lon="13.833071360932182"><ele>855.0</ele><time>2026-04-18T09:31:33.999Z</time></trkpt><trkpt lat="42.3340864248634" lon="13.833273498690447"><ele>855.0</ele><time>2026-04-18T09:31:34.999Z</time></trkpt><trkpt lat="42.334069746104056" lon="13.833417918049493"><ele>854.0</ele><time>2026-04-18T09:31:35.999Z</time></trkpt><trkpt lat="42.33406754205701" lon="13.833581640341555"><ele>853.0</ele><time>2026-04-18T09:31:36.999Z</time></trkpt><trkpt lat="42.33406877232007" lon="13.833743326043045"><ele>852.0</ele><time>2026-04-18T09:31:37.999Z</time></trkpt><trkpt lat="42.334061142032986" lon="13.833885319058789"><ele>851.0</ele><time>2026-04-18T09:31:38.999Z</time></trkpt><trkpt lat="42.33402603324005" lon="13.834012160805846"><ele>850.0</ele><time>2026-04-18T09:31:39.999Z</time></trkpt><trkpt lat="42.33397336840464" lon="13.834145984846032"><ele>850.0</ele><time>2026-04-18T09:31:40.999Z</time></trkpt><trkpt lat="42.33390772452992" lon="13.834286975844496"><ele>850.0</ele><time>2026-04-18T09:31:41.999Z</time></trkpt><trkpt lat="42.33383898956729" lon="13.834423136353786"><ele>850.0</ele><time>2026-04-18T09:31:42.999Z</time></trkpt><trkpt lat="42.33378123238676" lon="13.834546275684218"><ele>850.0</ele><time>2026-04-18T09:31:43.999Z</time></trkpt><trkpt lat="42.33373836785268" lon="13.834663410198836"><ele>850.0</ele><time>2026-04-18T09:31:44.999Z</time></trkpt><trkpt lat="42.33372426602288" lon="13.834783796573634"><ele>853.6</ele><time>2026-04-18T09:31:45.999Z</time></trkpt><trkpt lat="42.33373753241487" lon="13.834912217610524"><ele>857.2</ele><time>2026-04-18T09:31:46.999Z</time></trkpt><trkpt lat="42.33375744095779" lon="13.835049408319968"><ele>860.8</ele><time>2026-04-18T09:31:47.999Z</time></trkpt><trkpt lat="42.33376847030634" lon="13.835174559882148"><ele>864.4</ele><time>2026-04-18T09:31:48.999Z</time></trkpt><trkpt lat="42.333754041916634" lon="13.835296035840663"><ele>868.0</ele><time>2026-04-18T09:31:49.999Z</time></trkpt><trkpt lat="42.33371489008517" lon="13.835403946650255"><ele>868.0</ele><time>2026-04-18T09:31:50.999Z</time></trkpt><trkpt lat="42.33366753384911" lon="13.83549479272786"><ele>868.0</ele><time>2026-04-18T09:31:51.999Z</time></trkpt><trkpt lat="42.33359970761781" lon="13.835564475328985"><ele>868.0</ele><time>2026-04-18T09:31:52.999Z</time></trkpt><trkpt lat="42.33351826920068" lon="13.835621575379529"><ele>868.0</ele><time>2026-04-18T09:31:53.999Z</time></trkpt><trkpt lat="42.33342464116968" lon="13.8356604161334"><ele>868.0</ele><time>2026-04-18T09:31:54.999Z</time></trkpt><trkpt lat="42.333331590467466" lon="13.835708295574255"><ele>868.0</ele><time>2026-04-18T09:31:55.999Z</time></trkpt><trkpt lat="42.33324142223893" lon="13.835761908772612"><ele>868.0</ele><time>2026-04-18T09:31:56.999Z</time></trkpt><trkpt lat="42.33314839832762" lon="13.835832176707797"><ele>868.0</ele><time>2026-04-18T09:31:57.999Z</time></trkpt><trkpt lat="42.333048887114735" lon="13.83591262076292"><ele>868.0</ele><time>2026-04-18T09:31:58.999Z</time></trkpt><trkpt lat="42.33293607130781" lon="13.835992740453088"><ele>868.0</ele><time>2026-04-18T09:31:59.999Z</time></trkpt><trkpt lat="42.33278547763647" lon="13.836088132290707"><ele>871.0</ele><time>2026-04-18T09:32:00.999Z</time></trkpt><trkpt lat="42.332667588492754" lon="13.836162229858111"><ele>874.0</ele><time>2026-04-18T09:32:01.999Z</time></trkpt><trkpt lat="42.332560731141264" lon="13.836281264562754"><ele>877.0</ele><time>2026-04-18T09:32:02.999Z</time></trkpt><trkpt lat="42.332469130105274" lon="13.836395276241978"><ele>880.0</ele><time>2026-04-18T09:32:03.999Z</time></trkpt><trkpt lat="42.33238769973968" lon="13.836509855326003"><ele>880.0</ele><time>2026-04-18T09:32:04.999Z</time></trkpt><trkpt lat="42.33232358373999" lon="13.836611807093622"><ele>880.0</ele><time>2026-04-18T09:32:05.999Z</time></trkpt><trkpt lat="42.33226430749781" lon="13.836718706234066"><ele>880.0</ele><time>2026-04-18T09:32:06.999Z</time></trkpt><trkpt lat="42.33220820862598" lon="13.836854463292728"><ele>880.0</ele><time>2026-04-18T09:32:07.999Z</time></trkpt><trkpt lat="42.33216150827119" lon="13.836996797480387"><ele>880.0</ele><time>2026-04-18T09:32:08.999Z</time></trkpt><trkpt lat="42.33211877742921" lon="13.837122850193653"><ele>881.0</ele><time>2026-04-18T09:32:09.999Z</time></trkpt><trkpt lat="42.33208351521663" lon="13.837258439445353"><ele>882.0</ele><time>2026-04-18T09:32:10.999Z</time></trkpt><trkpt lat="42.33205522701772" lon="13.837410108235352"><ele>883.0</ele><time>2026-04-18T09:32:11.999Z</time></trkpt><trkpt lat="42.33202946127987" lon="13.83756252014316"><ele>884.0</ele><time>2026-04-18T09:32:12.999Z</time></trkpt><trkpt lat="42.3320086831352" lon="13.837701954504407"><ele>885.0</ele><time>2026-04-18T09:32:13.999Z</time></trkpt><trkpt lat="42.33199629442392" lon="13.837810900584664"><ele>885.0</ele><time>2026-04-18T09:32:14.999Z</time></trkpt><trkpt lat="42.3319222044679" lon="13.837945285535259"><ele>885.0</ele><time>2026-04-18T09:32:16.999Z</time></trkpt><trkpt lat="42.331839820121374" lon="13.838027460729736"><ele>885.0</ele><time>2026-04-18T09:32:17.999Z</time></trkpt><trkpt lat="42.33175163489541" lon="13.838080759593828"><ele>885.0</ele><time>2026-04-18T09:32:18.999Z</time></trkpt><trkpt lat="42.33167139987955" lon="13.838119236625914"><ele>885.0</ele><time>2026-04-18T09:32:19.998Z</time></trkpt><trkpt lat="42.33160622193233" lon="13.83813152728555"><ele>885.0</ele><time>2026-04-18T09:32:20.998Z</time></trkpt><trkpt lat="42.331541726250386" lon="13.838141688830227"><ele>885.0</ele><time>2026-04-18T09:32:21.998Z</time></trkpt><trkpt lat="42.331473947325094" lon="13.838085545881597"><ele>885.0</ele><time>2026-04-18T09:32:22.998Z</time></trkpt><trkpt lat="42.331394212159914" lon="13.83806604384512"><ele>885.0</ele><time>2026-04-18T09:32:23.998Z</time></trkpt><trkpt lat="42.33125668907247" lon="13.83790809708818"><ele>885.0</ele><time>2026-04-18T09:32:24.998Z</time></trkpt><trkpt lat="42.331150451159054" lon="13.837814072819926"><ele>885.75</ele><time>2026-04-18T09:32:25.998Z</time></trkpt><trkpt lat="42.331058814918904" lon="13.837771025463756"><ele>886.5</ele><time>2026-04-18T09:32:26.998Z</time></trkpt><trkpt lat="42.33097559723235" lon="13.837783428640243"><ele>887.25</ele><time>2026-04-18T09:32:27.998Z</time></trkpt><trkpt lat="42.33083085531138" lon="13.837806973543127"><ele>888.0</ele><time>2026-04-18T09:32:28.998Z</time></trkpt><trkpt lat="42.33069829403626" lon="13.837809930559057"><ele>890.25</ele><time>2026-04-18T09:32:29.998Z</time></trkpt><trkpt lat="42.330553693151515" lon="13.837793136868335"><ele>892.5</ele><time>2026-04-18T09:32:30.998Z</time></trkpt><trkpt lat="42.3304259870262" lon="13.837773734907499"><ele>894.75</ele><time>2026-04-18T09:32:31.998Z</time></trkpt><trkpt lat="42.33031651838963" lon="13.837748879666767"><ele>897.0</ele><time>2026-04-18T09:32:32.998Z</time></trkpt><trkpt lat="42.33019104873237" lon="13.837704075937863"><ele>897.0</ele><time>2026-04-18T09:32:33.998Z</time></trkpt><trkpt lat="42.33006639526548" lon="13.837651034022327"><ele>897.0</ele><time>2026-04-18T09:32:34.998Z</time></trkpt><trkpt lat="42.32993400278749" lon="13.837590938057511"><ele>897.0</ele><time>2026-04-18T09:32:36Z</time></trkpt><trkpt lat="42.32984395147281" lon="13.837564652777104"><ele>897.0</ele><time>2026-04-18T09:32:37Z</time></trkpt><trkpt lat="42.329750982260734" lon="13.837579902317543"><ele>900.0</ele><time>2026-04-18T09:32:38Z</time></trkpt><trkpt lat="42.32967287403457" lon="13.837632536813278"><ele>903.0</ele><time>2026-04-18T09:32:39Z</time></trkpt><trkpt lat="42.3295701646777" lon="13.837715865031845"><ele>906.0</ele><time>2026-04-18T09:32:40Z</time></trkpt><trkpt lat="42.3294034531904" lon="13.837816904610978"><ele>909.0</ele><time>2026-04-18T09:32:41Z</time></trkpt><trkpt lat="42.32922081460247" lon="13.837894123560618"><ele>909.0</ele><time>2026-04-18T09:32:42Z</time></trkpt><trkpt lat="42.32904985358916" lon="13.837915062986829"><ele>909.0</ele><time>2026-04-18T09:32:43Z</time></trkpt><trkpt lat="42.3289346421703" lon="13.837881664011341"><ele>909.0</ele><time>2026-04-18T09:32:44Z</time></trkpt><trkpt lat="42.32877030569616" lon="13.837916663774408"><ele>909.5</ele><time>2026-04-18T09:32:45Z</time></trkpt><trkpt lat="42.32865071526517" lon="13.837915493840773"><ele>910.0</ele><time>2026-04-18T09:32:46Z</time></trkpt><trkpt lat="42.32851359865619" lon="13.837902544693963"><ele>910.5</ele><time>2026-04-18T09:32:47Z</time></trkpt><trkpt lat="42.32837151764305" lon="13.837863988709849"><ele>911.0</ele><time>2026-04-18T09:32:48Z</time></trkpt><trkpt lat="42.32820416216584" lon="13.837798823031891"><ele>909.75</ele><time>2026-04-18T09:32:49Z</time></trkpt><trkpt lat="42.32804949292259" lon="13.837703928464798"><ele>908.5</ele><time>2026-04-18T09:32:50Z</time></trkpt><trkpt lat="42.32792326633874" lon="13.837622726333063"><ele>907.25</ele><time>2026-04-18T09:32:51Z</time></trkpt><trkpt lat="42.327806027723724" lon="13.837543662964457"><ele>906.0</ele><time>2026-04-18T09:32:52Z</time></trkpt><trkpt lat="42.32770346342621" lon="13.837480798164226"><ele>912.0</ele><time>2026-04-18T09:32:53Z</time></trkpt><trkpt lat="42.327600052243675" lon="13.837441362708804"><ele>918.0</ele><time>2026-04-18T09:32:54Z</time></trkpt><trkpt lat="42.32749384775926" lon="13.83742855729557"><ele>924.0</ele><time>2026-04-18T09:32:55Z</time></trkpt><trkpt lat="42.32737708714052" lon="13.837440229561844"><ele>930.0</ele><time>2026-04-18T09:32:56Z</time></trkpt><trkpt lat="42.32723943444522" lon="13.837498833630828"><ele>933.0</ele><time>2026-04-18T09:32:57Z</time></trkpt><trkpt lat="42.32710198969965" lon="13.837549161219213"><ele>936.0</ele><time>2026-04-18T09:32:58Z</time></trkpt><trkpt lat="42.32695902849046" lon="13.837619372813561"><ele>939.0</ele><time>2026-04-18T09:32:59Z</time></trkpt><trkpt lat="42.32682172910444" lon="13.837658044241119"><ele>942.0</ele><time>2026-04-18T09:33:00Z</time></trkpt><trkpt lat="42.32667278898764" lon="13.837681550296963"><ele>936.6</ele><time>2026-04-18T09:33:01Z</time></trkpt><trkpt lat="42.32653226328909" lon="13.837687871922922"><ele>931.2</ele><time>2026-04-18T09:33:02Z</time></trkpt><trkpt lat="42.326420255614146" lon="13.837709908426248"><ele>925.8</ele><time>2026-04-18T09:33:03Z</time></trkpt><trkpt lat="42.326321748900554" lon="13.837735991394984"><ele>920.4</ele><time>2026-04-18T09:33:04Z</time></trkpt><trkpt lat="42.32623122548376" lon="13.837751207455153"><ele>915.0</ele><time>2026-04-18T09:33:05Z</time></trkpt><trkpt lat="42.326133530237215" lon="13.837760895378768"><ele>915.0</ele><time>2026-04-18T09:33:06Z</time></trkpt><trkpt lat="42.326045848527414" lon="13.837742861664882"><ele>915.0</ele><time>2026-04-18T09:33:07Z</time></trkpt><trkpt lat="42.325937919296905" lon="13.83770419076605"><ele>915.0</ele><time>2026-04-18T09:33:08Z</time></trkpt><trkpt lat="42.32583249072812" lon="13.837661194753334"><ele>915.0</ele><time>2026-04-18T09:33:09Z</time></trkpt><trkpt lat="42.325729363686456" lon="13.837614527360167"><ele>915.0</ele><time>2026-04-18T09:33:09.999Z</time></trkpt><trkpt lat="42.32560167829924" lon="13.837583346396958"><ele>918.75</ele><time>2026-04-18T09:33:10.999Z</time></trkpt><trkpt lat="42.32549508675487" lon="13.837590971869185"><ele>922.5</ele><time>2026-04-18T09:33:11.999Z</time></trkpt><trkpt lat="42.32534475200871" lon="13.837618960074991"><ele>926.25</ele><time>2026-04-18T09:33:12.999Z</time></trkpt><trkpt lat="42.32517505498473" lon="13.837698361550473"><ele>930.0</ele><time>2026-04-18T09:33:13.999Z</time></trkpt><trkpt lat="42.32507177146211" lon="13.837761831733888"><ele>930.0</ele><time>2026-04-18T09:33:14.999Z</time></trkpt><trkpt lat="42.32500407925045" lon="13.83783864165192"><ele>930.0</ele><time>2026-04-18T09:33:15.999Z</time></trkpt><trkpt lat="42.32490621894132" lon="13.837970330086767"><ele>930.0</ele><time>2026-04-18T09:33:16.999Z</time></trkpt><trkpt lat="42.32480664732628" lon="13.838082919635895"><ele>930.0</ele><time>2026-04-18T09:33:17.999Z</time></trkpt><trkpt lat="42.32469544066479" lon="13.838168989986363"><ele>930.0</ele><time>2026-04-18T09:33:18.999Z</time></trkpt><trkpt lat="42.324641280849825" lon="13.838221719796698"><ele>930.0</ele><time>2026-04-18T09:33:19.999Z</time></trkpt><trkpt lat="42.3245733038794" lon="13.83819535337822"><ele>930.0</ele><time>2026-04-18T09:33:22.999Z</time></trkpt><trkpt lat="42.32457079002917" lon="13.838104807822658"><ele>930.0</ele><time>2026-04-18T09:33:24.999Z</time></trkpt><trkpt lat="42.32467747515648" lon="13.83797187975527"><ele>930.0</ele><time>2026-04-18T09:33:26.999Z</time></trkpt><trkpt lat="42.324763282441204" lon="13.837893636950035"><ele>930.0</ele><time>2026-04-18T09:33:27.999Z</time></trkpt><trkpt lat="42.32482467205672" lon="13.837794478942126"><ele>930.0</ele><time>2026-04-18T09:33:28.999Z</time></trkpt><trkpt lat="42.32489982919414" lon="13.837642013891053"><ele>930.0</ele><time>2026-04-18T09:33:29.999Z</time></trkpt><trkpt lat="42.32499721318997" lon="13.837446867428454"><ele>930.0</ele><time>2026-04-18T09:33:30.999Z</time></trkpt><trkpt lat="42.32511176317663" lon="13.837281818074153"><ele>937.0</ele><time>2026-04-18T09:33:31.999Z</time></trkpt><trkpt lat="42.325206889496506" lon="13.837131207589243"><ele>944.0</ele><time>2026-04-18T09:33:32.999Z</time></trkpt><trkpt lat="42.325289321492704" lon="13.837032824830484"><ele>951.0</ele><time>2026-04-18T09:33:33.999Z</time></trkpt><trkpt lat="42.325385361748374" lon="13.836903867487305"><ele>958.0</ele><time>2026-04-18T09:33:34.999Z</time></trkpt><trkpt lat="42.32551412533562" lon="13.836813549150525"><ele>962.25</ele><time>2026-04-18T09:33:35.999Z</time></trkpt><trkpt lat="42.32565536012793" lon="13.836777567243184"><ele>966.5</ele><time>2026-04-18T09:33:36.999Z</time></trkpt><trkpt lat="42.32577170910071" lon="13.83671316165907"><ele>970.75</ele><time>2026-04-18T09:33:37.999Z</time></trkpt><trkpt lat="42.3259287468286" lon="13.83667905443894"><ele>975.0</ele><time>2026-04-18T09:33:38.999Z</time></trkpt><trkpt lat="42.326069265392924" lon="13.836633732825081"><ele>975.0</ele><time>2026-04-18T09:33:39.999Z</time></trkpt><trkpt lat="42.32621027969652" lon="13.836611937296418"><ele>975.0</ele><time>2026-04-18T09:33:40.999Z</time></trkpt><trkpt lat="42.326313391950414" lon="13.836617317031045"><ele>975.0</ele><time>2026-04-18T09:33:41.999Z</time></trkpt><trkpt lat="42.32637885745125" lon="13.83661369466817"><ele>975.0</ele><time>2026-04-18T09:33:42.999Z</time></trkpt><trkpt lat="42.32650562964074" lon="13.836522895891688"><ele>973.8</ele><time>2026-04-18T09:33:44.999Z</time></trkpt><trkpt lat="42.326591417393225" lon="13.836455927556726"><ele>972.6</ele><time>2026-04-18T09:33:45.999Z</time></trkpt><trkpt lat="42.3266700918538" lon="13.836410306838667"><ele>971.4000000000001</ele><time>2026-04-18T09:33:46.999Z</time></trkpt><trkpt lat="42.32674481948057" lon="13.836404021078167"><ele>970.2</ele><time>2026-04-18T09:33:47.999Z</time></trkpt><trkpt lat="42.3268486219963" lon="13.83642541763171"><ele>969.0</ele><time>2026-04-18T09:33:49.999Z</time></trkpt><trkpt lat="42.326937852384155" lon="13.836397155690385"><ele>969.0</ele><time>2026-04-18T09:33:51.999Z</time></trkpt><trkpt lat="42.327018847153916" lon="13.836323679140579"><ele>969.0</ele><time>2026-04-18T09:33:53.999Z</time></trkpt><trkpt lat="42.32706751179857" lon="13.836249868878154"><ele>969.0</ele><time>2026-04-18T09:33:54.999Z</time></trkpt><trkpt lat="42.327158455095116" lon="13.836205878131256"><ele>969.0</ele><time>2026-04-18T09:33:55.999Z</time></trkpt><trkpt lat="42.32716005218405" lon="13.83611679647551"><ele>969.0</ele><time>2026-04-18T09:33:56.999Z</time></trkpt><trkpt lat="42.327223125760376" lon="13.836095750287509"><ele>969.0</ele><time>2026-04-18T09:33:57.999Z</time></trkpt><trkpt lat="42.32728006759822" lon="13.83605020760376"><ele>969.0</ele><time>2026-04-18T09:33:59.999Z</time></trkpt><trkpt lat="42.327237000339885" lon="13.835961688600598"><ele>969.0</ele><time>2026-04-18T09:34:01.999Z</time></trkpt><trkpt lat="42.327141275166156" lon="13.836023145730282"><ele>969.0</ele><time>2026-04-18T09:34:03.999Z</time></trkpt><trkpt lat="42.327021389087214" lon="13.836175555320349"><ele>969.0</ele><time>2026-04-18T09:34:04.999Z</time></trkpt><trkpt lat="42.326914227936754" lon="13.836232597999793"><ele>969.0</ele><time>2026-04-18T09:34:05.999Z</time></trkpt><trkpt lat="42.32683457624814" lon="13.836255483054403"><ele>969.0000000000001</ele><time>2026-04-18T09:34:06.999Z</time></trkpt><trkpt lat="42.32676477272057" lon="13.83625052548248"><ele>969.0000000000001</ele><time>2026-04-18T09:34:07.999Z</time></trkpt><trkpt lat="42.32667621069746" lon="13.83621166849686"><ele>969.0</ele><time>2026-04-18T09:34:08.999Z</time></trkpt><trkpt lat="42.32656278882571" lon="13.836163215001116"><ele>969.0</ele><time>2026-04-18T09:34:09.999Z</time></trkpt><trkpt lat="42.326563943610275" lon="13.835966139062338"><ele>970.5</ele><time>2026-04-18T09:34:10.999Z</time></trkpt><trkpt lat="42.32643878697702" lon="13.835954518404717"><ele>972.0</ele><time>2026-04-18T09:34:11.999Z</time></trkpt><trkpt lat="42.326326426679685" lon="13.835965511484458"><ele>973.5</ele><time>2026-04-18T09:34:12.999Z</time></trkpt><trkpt lat="42.32622089961618" lon="13.835976655881126"><ele>975.0</ele><time>2026-04-18T09:34:13.999Z</time></trkpt><trkpt lat="42.326064401737945" lon="13.836021477166462"><ele>975.0</ele><time>2026-04-18T09:34:14.999Z</time></trkpt><trkpt lat="42.325953506531555" lon="13.836054260500962"><ele>975.0</ele><time>2026-04-18T09:34:15.999Z</time></trkpt><trkpt lat="42.325835701115025" lon="13.836067768975695"><ele>975.0</ele><time>2026-04-18T09:34:16.999Z</time></trkpt><trkpt lat="42.32572638269242" lon="13.83605229103145"><ele>975.0</ele><time>2026-04-18T09:34:17.999Z</time></trkpt><trkpt lat="42.32559815727956" lon="13.836037001732587"><ele>977.0</ele><time>2026-04-18T09:34:18.999Z</time></trkpt><trkpt lat="42.325436125201044" lon="13.836019436066982"><ele>979.0</ele><time>2026-04-18T09:34:19.999Z</time></trkpt><trkpt lat="42.32530457138385" lon="13.836029524096475"><ele>981.0</ele><time>2026-04-18T09:34:20.999Z</time></trkpt><trkpt lat="42.32517690914996" lon="13.836043339110086"><ele>983.0</ele><time>2026-04-18T09:34:21.998Z</time></trkpt><trkpt lat="42.325027884097246" lon="13.83605786717787"><ele>983.0</ele><time>2026-04-18T09:34:22.998Z</time></trkpt><trkpt lat="42.32486291726574" lon="13.836104530834517"><ele>983.0</ele><time>2026-04-18T09:34:23.998Z</time></trkpt><trkpt lat="42.32475682136866" lon="13.836142954330498"><ele>983.0</ele><time>2026-04-18T09:34:24.998Z</time></trkpt><trkpt lat="42.324657960285215" lon="13.836140813907518"><ele>983.0</ele><time>2026-04-18T09:34:25.998Z</time></trkpt><trkpt lat="42.32458108769971" lon="13.836036067128687"><ele>984.0</ele><time>2026-04-18T09:34:26.998Z</time></trkpt><trkpt lat="42.32449497226252" lon="13.83598184988216"><ele>985.0</ele><time>2026-04-18T09:34:27.998Z</time></trkpt><trkpt lat="42.32437505296524" lon="13.835911185373277"><ele>986.0</ele><time>2026-04-18T09:34:28.998Z</time></trkpt><trkpt lat="42.32421952348169" lon="13.835880789400033"><ele>987.0</ele><time>2026-04-18T09:34:29.998Z</time></trkpt><trkpt lat="42.32408757853436" lon="13.8358598377389"><ele>994.0</ele><time>2026-04-18T09:34:30.998Z</time></trkpt><trkpt lat="42.32396355052836" lon="13.835829528274568"><ele>1001.0</ele><time>2026-04-18T09:34:31.998Z</time></trkpt><trkpt lat="42.323830064194674" lon="13.835832416977032"><ele>1008.0</ele><time>2026-04-18T09:34:32.998Z</time></trkpt><trkpt lat="42.32369100928299" lon="13.835776327013162"><ele>1015.0</ele><time>2026-04-18T09:34:33.998Z</time></trkpt><trkpt lat="42.323555284537704" lon="13.835772041815094"><ele>1015.0</ele><time>2026-04-18T09:34:34.998Z</time></trkpt><trkpt lat="42.32339008382353" lon="13.835770112296247"><ele>1015.0</ele><time>2026-04-18T09:34:35.998Z</time></trkpt><trkpt lat="42.323244307659124" lon="13.835775737657125"><ele>1015.0</ele><time>2026-04-18T09:34:36.998Z</time></trkpt><trkpt lat="42.32312576024103" lon="13.83577466897428"><ele>1015.0</ele><time>2026-04-18T09:34:37.998Z</time></trkpt><trkpt lat="42.32302381646827" lon="13.835806858343087"><ele>1017.25</ele><time>2026-04-18T09:34:38.998Z</time></trkpt><trkpt lat="42.322903969005836" lon="13.83587593679552"><ele>1019.5</ele><time>2026-04-18T09:34:39.998Z</time></trkpt><trkpt lat="42.32280165872656" lon="13.835916223707368"><ele>1021.75</ele><time>2026-04-18T09:34:40.998Z</time></trkpt><trkpt lat="42.32267100012307" lon="13.835923796156182"><ele>1024.0</ele><time>2026-04-18T09:34:42Z</time></trkpt><trkpt lat="42.322523944245944" lon="13.835857032827377"><ele>1024.0</ele><time>2026-04-18T09:34:43Z</time></trkpt><trkpt lat="42.32237091029438" lon="13.835807366573505"><ele>1024.0</ele><time>2026-04-18T09:34:44Z</time></trkpt><trkpt lat="42.32222410293025" lon="13.835777529711963"><ele>1024.0</ele><time>2026-04-18T09:34:45Z</time></trkpt><trkpt lat="42.322095312448525" lon="13.835777611989434"><ele>1024.0</ele><time>2026-04-18T09:34:46Z</time></trkpt><trkpt lat="42.32197253398731" lon="13.83578020517434"><ele>1023.25</ele><time>2026-04-18T09:34:47Z</time></trkpt><trkpt lat="42.32186238603217" lon="13.835780777218568"><ele>1022.5</ele><time>2026-04-18T09:34:48Z</time></trkpt><trkpt lat="42.32177401165375" lon="13.835748117938829"><ele>1021.75</ele><time>2026-04-18T09:34:49Z</time></trkpt><trkpt lat="42.32164987580841" lon="13.835712803639591"><ele>1021.0</ele><time>2026-04-18T09:34:50Z</time></trkpt><trkpt lat="42.32150614271663" lon="13.835612522695"><ele>1018.0</ele><time>2026-04-18T09:34:51Z</time></trkpt><trkpt lat="42.32136174162994" lon="13.835508958576241"><ele>1015.0</ele><time>2026-04-18T09:34:52Z</time></trkpt><trkpt lat="42.32123309989481" lon="13.835442307756765"><ele>1012.0</ele><time>2026-04-18T09:34:53Z</time></trkpt><trkpt lat="42.32114528529826" lon="13.835388162824259"><ele>1009.0</ele><time>2026-04-18T09:34:54Z</time></trkpt><trkpt lat="42.321059051946015" lon="13.835290861750693"><ele>1008.9999999999999</ele><time>2026-04-18T09:34:55Z</time></trkpt><trkpt lat="42.32099548756024" lon="13.835155399674646"><ele>1009.0</ele><time>2026-04-18T09:34:56Z</time></trkpt><trkpt lat="42.32096649801927" lon="13.83507917445545"><ele>1009.0</ele><time>2026-04-18T09:34:57Z</time></trkpt><trkpt lat="42.32093442574853" lon="13.83500038213779"><ele>1009.0</ele><time>2026-04-18T09:34:58Z</time></trkpt><trkpt lat="42.32087828378673" lon="13.834911966976213"><ele>1008.9999999999999</ele><time>2026-04-18T09:34:59Z</time></trkpt><trkpt lat="42.32081092002485" lon="13.834843121945399"><ele>1009.0</ele><time>2026-04-18T09:35:00Z</time></trkpt><trkpt lat="42.320730026961016" lon="13.834762227562454"><ele>1015.8000000000001</ele><time>2026-04-18T09:35:01Z</time></trkpt><trkpt lat="42.32063456830677" lon="13.834681328746807"><ele>1022.6000000000001</ele><time>2026-04-18T09:35:02Z</time></trkpt><trkpt lat="42.32053737429882" lon="13.834654377715099"><ele>1029.4</ele><time>2026-04-18T09:35:03Z</time></trkpt><trkpt lat="42.32044744165212" lon="13.834637330317415"><ele>1036.2</ele><time>2026-04-18T09:35:04Z</time></trkpt><trkpt lat="42.32035656786249" lon="13.834650877851761"><ele>1043.0</ele><time>2026-04-18T09:35:05Z</time></trkpt><trkpt lat="42.32025364592306" lon="13.834685064841102"><ele>1043.0</ele><time>2026-04-18T09:35:06Z</time></trkpt><trkpt lat="42.32015253403167" lon="13.834705349906997"><ele>1043.0</ele><time>2026-04-18T09:35:07Z</time></trkpt><trkpt lat="42.32006349675135" lon="13.834692271566952"><ele>1043.0</ele><time>2026-04-18T09:35:08Z</time></trkpt><trkpt lat="42.319982405799564" lon="13.834622661027337"><ele>1043.0</ele><time>2026-04-18T09:35:09Z</time></trkpt><trkpt lat="42.319918138386356" lon="13.834534567505418"><ele>1043.0</ele><time>2026-04-18T09:35:10Z</time></trkpt><trkpt lat="42.31975161752763" lon="13.8343893232299"><ele>1047.25</ele><time>2026-04-18T09:35:11Z</time></trkpt><trkpt lat="42.31967925284289" lon="13.8342481453544"><ele>1051.5</ele><time>2026-04-18T09:35:12Z</time></trkpt><trkpt lat="42.31961428065595" lon="13.834136783314692"><ele>1055.75</ele><time>2026-04-18T09:35:13Z</time></trkpt><trkpt lat="42.319505927567725" lon="13.83411265396999"><ele>1060.0</ele><time>2026-04-18T09:35:15Z</time></trkpt><trkpt lat="42.31938593944428" lon="13.834121359255004"><ele>1060.0</ele><time>2026-04-18T09:35:15.999Z</time></trkpt><trkpt lat="42.31925047849325" lon="13.83411447556517"><ele>1060.0</ele><time>2026-04-18T09:35:16.999Z</time></trkpt><trkpt lat="42.31916652820462" lon="13.834072823356678"><ele>1060.0</ele><time>2026-04-18T09:35:17.999Z</time></trkpt><trkpt lat="42.319091918947755" lon="13.834012008373664"><ele>1060.0</ele><time>2026-04-18T09:35:18.999Z</time></trkpt><trkpt lat="42.3190119750427" lon="13.833923924865248"><ele>1060.0</ele><time>2026-04-18T09:35:19.999Z</time></trkpt><trkpt lat="42.318894821876306" lon="13.833798499189838"><ele>1057.3333333333333</ele><time>2026-04-18T09:35:20.999Z</time></trkpt><trkpt lat="42.31874560936395" lon="13.83369780979593"><ele>1054.6666666666667</ele><time>2026-04-18T09:35:21.999Z</time></trkpt><trkpt lat="42.318585576926495" lon="13.833610577797655"><ele>1052.0</ele><time>2026-04-18T09:35:22.999Z</time></trkpt><trkpt lat="42.31843368325638" lon="13.83353773886245"><ele>1052.0</ele><time>2026-04-18T09:35:23.999Z</time></trkpt><trkpt lat="42.31829648068827" lon="13.833512139681387"><ele>1052.0</ele><time>2026-04-18T09:35:24.999Z</time></trkpt><trkpt lat="42.31815807691217" lon="13.833499646828649"><ele>1052.0</ele><time>2026-04-18T09:35:25.999Z</time></trkpt><trkpt lat="42.318016293203" lon="13.833513717322544"><ele>1052.0</ele><time>2026-04-18T09:35:26.999Z</time></trkpt><trkpt lat="42.31787106145456" lon="13.833491217322532"><ele>1055.5</ele><time>2026-04-18T09:35:27.999Z</time></trkpt><trkpt lat="42.31768377798447" lon="13.833472581122875"><ele>1059.0</ele><time>2026-04-18T09:35:28.999Z</time></trkpt><trkpt lat="42.31754723689709" lon="13.833509530954046"><ele>1062.5</ele><time>2026-04-18T09:35:29.999Z</time></trkpt><trkpt lat="42.31743903498737" lon="13.833551315187647"><ele>1066.0</ele><time>2026-04-18T09:35:30.999Z</time></trkpt><trkpt lat="42.31733828127563" lon="13.833542843739147"><ele>1065.5</ele><time>2026-04-18T09:35:31.999Z</time></trkpt><trkpt lat="42.31720252217977" lon="13.833576068589801"><ele>1065.0</ele><time>2026-04-18T09:35:32.999Z</time></trkpt><trkpt lat="42.31704843417026" lon="13.833565107424382"><ele>1064.5</ele><time>2026-04-18T09:35:33.999Z</time></trkpt><trkpt lat="42.316895777935926" lon="13.833575801701254"><ele>1064.0</ele><time>2026-04-18T09:35:34.999Z</time></trkpt><trkpt lat="42.31678502516441" lon="13.833542534420642"><ele>1064.0</ele><time>2026-04-18T09:35:35.999Z</time></trkpt><trkpt lat="42.316702628192616" lon="13.83353272459721"><ele>1064.0</ele><time>2026-04-18T09:35:36.999Z</time></trkpt><trkpt lat="42.316628469552064" lon="13.833484303383257"><ele>1064.0</ele><time>2026-04-18T09:35:37.999Z</time></trkpt><trkpt lat="42.31651800348476" lon="13.83342687959171"><ele>1064.0</ele><time>2026-04-18T09:35:38.999Z</time></trkpt><trkpt lat="42.31638922613083" lon="13.833396285019411"><ele>1064.0</ele><time>2026-04-18T09:35:39.999Z</time></trkpt><trkpt lat="42.31626492515001" lon="13.833385513101264"><ele>1072.75</ele><time>2026-04-18T09:35:40.999Z</time></trkpt><trkpt lat="42.316150268213114" lon="13.833406669687188"><ele>1081.5</ele><time>2026-04-18T09:35:41.999Z</time></trkpt><trkpt lat="42.31604854498497" lon="13.833447782648426"><ele>1090.25</ele><time>2026-04-18T09:35:42.999Z</time></trkpt><trkpt lat="42.315940888190056" lon="13.833452159282933"><ele>1099.0</ele><time>2026-04-18T09:35:43.999Z</time></trkpt><trkpt lat="42.315801012558204" lon="13.833420651695612"><ele>1099.0</ele><time>2026-04-18T09:35:44.999Z</time></trkpt><trkpt lat="42.31566797695154" lon="13.833339665460615"><ele>1099.0</ele><time>2026-04-18T09:35:45.999Z</time></trkpt><trkpt lat="42.315551886785485" lon="13.833277302415466"><ele>1099.0</ele><time>2026-04-18T09:35:46.999Z</time></trkpt><trkpt lat="42.315449096017815" lon="13.833214318157625"><ele>1099.0</ele><time>2026-04-18T09:35:47.999Z</time></trkpt><trkpt lat="42.315340147081706" lon="13.833131933205125"><ele>1093.0</ele><time>2026-04-18T09:35:48.999Z</time></trkpt><trkpt lat="42.31520790624609" lon="13.833036659435049"><ele>1087.0</ele><time>2026-04-18T09:35:49.999Z</time></trkpt><trkpt lat="42.31505897114433" lon="13.83292706296409"><ele>1081.0</ele><time>2026-04-18T09:35:50.999Z</time></trkpt><trkpt lat="42.3149181314273" lon="13.832845564939621"><ele>1081.0</ele><time>2026-04-18T09:35:51.999Z</time></trkpt><trkpt lat="42.31479623855194" lon="13.832848867899465"><ele>1081.0</ele><time>2026-04-18T09:35:52.999Z</time></trkpt><trkpt lat="42.314660435601944" lon="13.83269920569307"><ele>1081.0</ele><time>2026-04-18T09:35:53.999Z</time></trkpt><trkpt lat="42.314569412080594" lon="13.832668209884648"><ele>1081.0</ele><time>2026-04-18T09:35:54.999Z</time></trkpt><trkpt lat="42.31447142167894" lon="13.832636260413128"><ele>1090.75</ele><time>2026-04-18T09:35:55.999Z</time></trkpt><trkpt lat="42.31436531669906" lon="13.832605849902583"><ele>1100.5</ele><time>2026-04-18T09:35:56.999Z</time></trkpt><trkpt lat="42.31419101480428" lon="13.832592041627011"><ele>1110.25</ele><time>2026-04-18T09:35:57.999Z</time></trkpt><trkpt lat="42.31403198960851" lon="13.832606874447256"><ele>1120.0</ele><time>2026-04-18T09:35:58.999Z</time></trkpt><trkpt lat="42.31390327597266" lon="13.832634687835414"><ele>1110.0</ele><time>2026-04-18T09:35:59.999Z</time></trkpt><trkpt lat="42.313783714406114" lon="13.832656330393668"><ele>1100.0</ele><time>2026-04-18T09:36:00.999Z</time></trkpt><trkpt lat="42.31366413203285" lon="13.832689030341816"><ele>1090.0</ele><time>2026-04-18T09:36:01.999Z</time></trkpt><trkpt lat="42.31353084009851" lon="13.832707713342801"><ele>1080.0</ele><time>2026-04-18T09:36:02.999Z</time></trkpt><trkpt lat="42.313356639902935" lon="13.832738490173627"><ele>1080.0</ele><time>2026-04-18T09:36:03.999Z</time></trkpt><trkpt lat="42.313216236190954" lon="13.832740985135928"><ele>1080.0</ele><time>2026-04-18T09:36:04.999Z</time></trkpt><trkpt lat="42.31308458569849" lon="13.83272363782288"><ele>1080.0</ele><time>2026-04-18T09:36:05.999Z</time></trkpt><trkpt lat="42.31296099798036" lon="13.83269939499166"><ele>1080.0</ele><time>2026-04-18T09:36:06.999Z</time></trkpt><trkpt lat="42.31286334649389" lon="13.832634116621795"><ele>1087.8</ele><time>2026-04-18T09:36:07.999Z</time></trkpt><trkpt lat="42.31276393425294" lon="13.832594738486746"><ele>1095.6</ele><time>2026-04-18T09:36:08.999Z</time></trkpt><trkpt lat="42.312656856730314" lon="13.832556815713277"><ele>1103.4</ele><time>2026-04-18T09:36:09.999Z</time></trkpt><trkpt lat="42.312547095689304" lon="13.832527338230214"><ele>1111.2</ele><time>2026-04-18T09:36:10.999Z</time></trkpt><trkpt lat="42.31244034934929" lon="13.832525377379582"><ele>1119.0</ele><time>2026-04-18T09:36:11.999Z</time></trkpt><trkpt lat="42.312330204522375" lon="13.832551368243163"><ele>1113.75</ele><time>2026-04-18T09:36:12.999Z</time></trkpt><trkpt lat="42.31220238292811" lon="13.832694152945777"><ele>1108.5</ele><time>2026-04-18T09:36:13.999Z</time></trkpt><trkpt lat="42.312070364577956" lon="13.832727246547718"><ele>1103.25</ele><time>2026-04-18T09:36:14.999Z</time></trkpt><trkpt lat="42.31194039019978" lon="13.83272684391214"><ele>1098.0</ele><time>2026-04-18T09:36:15.999Z</time></trkpt><trkpt lat="42.31182891221295" lon="13.83273782016132"><ele>1098.0</ele><time>2026-04-18T09:36:16.999Z</time></trkpt><trkpt lat="42.31174795822831" lon="13.8327621417158"><ele>1098.0</ele><time>2026-04-18T09:36:17.999Z</time></trkpt><trkpt lat="42.31166569817979" lon="13.832810475033416"><ele>1098.0</ele><time>2026-04-18T09:36:18.999Z</time></trkpt><trkpt lat="42.31158750034538" lon="13.832887435878666"><ele>1098.0</ele><time>2026-04-18T09:36:19.999Z</time></trkpt><trkpt lat="42.3115169296016" lon="13.832985106639207"><ele>1098.0</ele><time>2026-04-18T09:36:20.999Z</time></trkpt><trkpt lat="42.31145354679779" lon="13.83308645168778"><ele>1099.0</ele><time>2026-04-18T09:36:21.999Z</time></trkpt><trkpt lat="42.31136965028758" lon="13.833155895150817"><ele>1100.0</ele><time>2026-04-18T09:36:22.999Z</time></trkpt><trkpt lat="42.31126765483335" lon="13.833239717017252"><ele>1101.0</ele><time>2026-04-18T09:36:23.999Z</time></trkpt><trkpt lat="42.311144165101034" lon="13.83329456940146"><ele>1102.0</ele><time>2026-04-18T09:36:24.999Z</time></trkpt><trkpt lat="42.31107658774966" lon="13.833307781727171"><ele>1103.0</ele><time>2026-04-18T09:36:25.999Z</time></trkpt><trkpt lat="42.310997674742744" lon="13.83330857616966"><ele>1103.0</ele><time>2026-04-18T09:36:26.999Z</time></trkpt><trkpt lat="42.310907334026496" lon="13.833263385576403"><ele>1103.0</ele><time>2026-04-18T09:36:27.999Z</time></trkpt><trkpt lat="42.31078186621324" lon="13.83322486619254"><ele>1103.0</ele><time>2026-04-18T09:36:28.998Z</time></trkpt><trkpt lat="42.31067701767954" lon="13.83316136040995"><ele>1103.0</ele><time>2026-04-18T09:36:29.998Z</time></trkpt><trkpt lat="42.310560912509565" lon="13.833076133079466"><ele>1101.0</ele><time>2026-04-18T09:36:30.998Z</time></trkpt><trkpt lat="42.31052808078601" lon="13.832944952683421"><ele>1099.0</ele><time>2026-04-18T09:36:31.998Z</time></trkpt><trkpt lat="42.310372174452574" lon="13.83290831205117"><ele>1097.0</ele><time>2026-04-18T09:36:32.998Z</time></trkpt><trkpt lat="42.310260483973494" lon="13.832867877701302"><ele>1095.0</ele><time>2026-04-18T09:36:33.998Z</time></trkpt><trkpt lat="42.310174573143996" lon="13.832852700128509"><ele>1095.0</ele><time>2026-04-18T09:36:34.998Z</time></trkpt><trkpt lat="42.3100851353634" lon="13.832829631034302"><ele>1095.0</ele><time>2026-04-18T09:36:35.998Z</time></trkpt><trkpt lat="42.30993925217771" lon="13.83282783681113"><ele>1095.0</ele><time>2026-04-18T09:36:36.998Z</time></trkpt><trkpt lat="42.30986598960713" lon="13.832839668823683"><ele>1095.0</ele><time>2026-04-18T09:36:38.998Z</time></trkpt><trkpt lat="42.30981385144612" lon="13.832740740913225"><ele>1095.0</ele><time>2026-04-18T09:36:39.998Z</time></trkpt><trkpt lat="42.30974559622583" lon="13.83268147696066"><ele>1099.0</ele><time>2026-04-18T09:36:40.998Z</time></trkpt><trkpt lat="42.30963874730442" lon="13.832594230930027"><ele>1103.0</ele><time>2026-04-18T09:36:41.998Z</time></trkpt><trkpt lat="42.309524837701915" lon="13.832488590825054"><ele>1107.0</ele><time>2026-04-18T09:36:42.998Z</time></trkpt><trkpt lat="42.309413205502096" lon="13.832420377378838"><ele>1111.0</ele><time>2026-04-18T09:36:43.998Z</time></trkpt><trkpt lat="42.30928520585358" lon="13.832399383839721"><ele>1111.0</ele><time>2026-04-18T09:36:44.998Z</time></trkpt><trkpt lat="42.30915298832595" lon="13.832389817572404"><ele>1111.0</ele><time>2026-04-18T09:36:45.998Z</time></trkpt><trkpt lat="42.30904525508645" lon="13.832359396161843"><ele>1111.0</ele><time>2026-04-18T09:36:46.998Z</time></trkpt><trkpt lat="42.30896778636708" lon="13.832340350148355"><ele>1111.0</ele><time>2026-04-18T09:36:48Z</time></trkpt><trkpt lat="42.30890404850463" lon="13.832294105112155"><ele>1111.0</ele><time>2026-04-18T09:36:49Z</time></trkpt><trkpt lat="42.308839765121505" lon="13.832260199027175"><ele>1110.2</ele><time>2026-04-18T09:36:51Z</time></trkpt><trkpt lat="42.308756777643445" lon="13.832231828083572"><ele>1109.3999999999999</ele><time>2026-04-18T09:36:52Z</time></trkpt><trkpt lat="42.30865979367816" lon="13.832252264241589"><ele>1108.6</ele><time>2026-04-18T09:36:53Z</time></trkpt><trkpt lat="42.30856091607768" lon="13.832273477917187"><ele>1107.8</ele><time>2026-04-18T09:36:54Z</time></trkpt><trkpt lat="42.3084304942849" lon="13.83231212374611"><ele>1107.0</ele><time>2026-04-18T09:36:56Z</time></trkpt><trkpt lat="42.308315120771" lon="13.832270309904617"><ele>1107.0</ele><time>2026-04-18T09:36:57Z</time></trkpt><trkpt lat="42.30818267020877" lon="13.832232436530342"><ele>1107.0</ele><time>2026-04-18T09:36:58Z</time></trkpt><trkpt lat="42.30805612556462" lon="13.832206032635263"><ele>1107.0</ele><time>2026-04-18T09:36:59Z</time></trkpt><trkpt lat="42.30789513618478" lon="13.832171250454916"><ele>1107.0</ele><time>2026-04-18T09:37:00Z</time></trkpt><trkpt lat="42.30772294654503" lon="13.832124517736148"><ele>1106.75</ele><time>2026-04-18T09:37:01Z</time></trkpt><trkpt lat="42.30757959942186" lon="13.832111379417242"><ele>1106.5</ele><time>2026-04-18T09:37:02Z</time></trkpt><trkpt lat="42.30744322143684" lon="13.832139831354855"><ele>1106.25</ele><time>2026-04-18T09:37:03Z</time></trkpt><trkpt lat="42.30730300887245" lon="13.832185805170564"><ele>1106.0</ele><time>2026-04-18T09:37:04Z</time></trkpt><trkpt lat="42.307184891316666" lon="13.832256825713285"><ele>1106.0</ele><time>2026-04-18T09:37:05Z</time></trkpt><trkpt lat="42.307117639746394" lon="13.832297504622087"><ele>1106.0</ele><time>2026-04-18T09:37:06Z</time></trkpt><trkpt lat="42.30699348930061" lon="13.832296311024798"><ele>1106.0</ele><time>2026-04-18T09:37:08Z</time></trkpt><trkpt lat="42.30691486094393" lon="13.832157422771735"><ele>1106.0</ele><time>2026-04-18T09:37:10Z</time></trkpt><trkpt lat="42.30684460109594" lon="13.832064023123031"><ele>1106.0</ele><time>2026-04-18T09:37:11Z</time></trkpt><trkpt lat="42.30678250840685" lon="13.831973820076543"><ele>1106.0</ele><time>2026-04-18T09:37:12Z</time></trkpt><trkpt lat="42.30671046876929" lon="13.831904902735515"><ele>1106.0</ele><time>2026-04-18T09:37:13Z</time></trkpt><trkpt lat="42.30659708543724" lon="13.831885080366655"><ele>1106.0</ele><time>2026-04-18T09:37:14Z</time></trkpt><trkpt lat="42.30648118373242" lon="13.831868242254926"><ele>1106.0</ele><time>2026-04-18T09:37:15Z</time></trkpt><trkpt lat="42.306361412119315" lon="13.831889583009582"><ele>1106.0</ele><time>2026-04-18T09:37:16Z</time></trkpt><trkpt lat="42.306221521565774" lon="13.831927628200736"><ele>1105.0</ele><time>2026-04-18T09:37:17Z</time></trkpt><trkpt lat="42.30610220057458" lon="13.83194038231102"><ele>1104.0</ele><time>2026-04-18T09:37:18Z</time></trkpt><trkpt lat="42.30598997170831" lon="13.83193428615319"><ele>1103.0</ele><time>2026-04-18T09:37:19Z</time></trkpt><trkpt lat="42.30590388708549" lon="13.8319294525192"><ele>1102.0</ele><time>2026-04-18T09:37:20Z</time></trkpt><trkpt lat="42.305813695899175" lon="13.831942941508453"><ele>1101.0</ele><time>2026-04-18T09:37:21Z</time></trkpt><trkpt lat="42.305725533488015" lon="13.831927426260455"><ele>1101.0</ele><time>2026-04-18T09:37:22Z</time></trkpt><trkpt lat="42.305617395482436" lon="13.831901676299676"><ele>1101.0</ele><time>2026-04-18T09:37:22.999Z</time></trkpt><trkpt lat="42.30547284306459" lon="13.831866771022481"><ele>1101.0</ele><time>2026-04-18T09:37:23.999Z</time></trkpt><trkpt lat="42.30531948373304" lon="13.831834021514528"><ele>1101.0</ele><time>2026-04-18T09:37:24.999Z</time></trkpt><trkpt lat="42.30518541458393" lon="13.831837852974605"><ele>1100.0</ele><time>2026-04-18T09:37:25.999Z</time></trkpt><trkpt lat="42.30505596341124" lon="13.831851062137572"><ele>1099.0</ele><time>2026-04-18T09:37:26.999Z</time></trkpt><trkpt lat="42.30495442152472" lon="13.831835041466844"><ele>1098.0</ele><time>2026-04-18T09:37:27.999Z</time></trkpt><trkpt lat="42.30476166653795" lon="13.83181545448222"><ele>1097.0</ele><time>2026-04-18T09:37:29.999Z</time></trkpt><trkpt lat="42.30459812138297" lon="13.831737590454663"><ele>1102.6</ele><time>2026-04-18T09:37:30.999Z</time></trkpt><trkpt lat="42.304472588973525" lon="13.831692366577162"><ele>1108.2</ele><time>2026-04-18T09:37:31.999Z</time></trkpt><trkpt lat="42.30439053015969" lon="13.831663713313281"><ele>1113.8</ele><time>2026-04-18T09:37:32.999Z</time></trkpt><trkpt lat="42.30431184977111" lon="13.831640207297426"><ele>1119.4</ele><time>2026-04-18T09:37:33.999Z</time></trkpt><trkpt lat="42.304193417946315" lon="13.831639637412389"><ele>1125.0</ele><time>2026-04-18T09:37:35.999Z</time></trkpt><trkpt lat="42.304135742729564" lon="13.831680736704588"><ele>1125.0</ele><time>2026-04-18T09:37:36.999Z</time></trkpt><trkpt lat="42.30404897958064" lon="13.831748839400296"><ele>1125.0</ele><time>2026-04-18T09:37:37.999Z</time></trkpt><trkpt lat="42.303957411015716" lon="13.831806378704256"><ele>1125.0</ele><time>2026-04-18T09:37:38.999Z</time></trkpt><trkpt lat="42.30385679299409" lon="13.831839167652468"><ele>1125.0</ele><time>2026-04-18T09:37:39.999Z</time></trkpt><trkpt lat="42.30376210902183" lon="13.831855033582624"><ele>1125.0</ele><time>2026-04-18T09:37:40.999Z</time></trkpt><trkpt lat="42.30366629070234" lon="13.831880446415383"><ele>1121.3333333333333</ele><time>2026-04-18T09:37:41.999Z</time></trkpt><trkpt lat="42.30356983024135" lon="13.831937640850965"><ele>1117.6666666666667</ele><time>2026-04-18T09:37:42.999Z</time></trkpt><trkpt lat="42.303481469283916" lon="13.831962242160463"><ele>1114.0</ele><time>2026-04-18T09:37:43.999Z</time></trkpt><trkpt lat="42.303401217155766" lon="13.831986270623128"><ele>1110.3333333333335</ele><time>2026-04-18T09:37:44.999Z</time></trkpt><trkpt lat="42.30332105924667" lon="13.832025942786034"><ele>1106.6666666666667</ele><time>2026-04-18T09:37:45.999Z</time></trkpt><trkpt lat="42.30324363550818" lon="13.832058307109358"><ele>1103.0</ele><time>2026-04-18T09:37:46.999Z</time></trkpt><trkpt lat="42.303174256982416" lon="13.832096096229254"><ele>1103.0</ele><time>2026-04-18T09:37:47.999Z</time></trkpt><trkpt lat="42.30311247090923" lon="13.832218717888015"><ele>1103.0</ele><time>2026-04-18T09:37:49.999Z</time></trkpt><trkpt lat="42.303176553599755" lon="13.832359965540054"><ele>1103.0</ele><time>2026-04-18T09:37:51.999Z</time></trkpt><trkpt lat="42.30325255200346" lon="13.83237378135595"><ele>1103.0</ele><time>2026-04-18T09:37:52.999Z</time></trkpt><trkpt lat="42.30333918357199" lon="13.832349973776822"><ele>1103.0</ele><time>2026-04-18T09:37:53.999Z</time></trkpt><trkpt lat="42.303424711981826" lon="13.832314804196686"><ele>1103.0</ele><time>2026-04-18T09:37:54.999Z</time></trkpt><trkpt lat="42.30350655928153" lon="13.832292465784235"><ele>1103.0</ele><time>2026-04-18T09:37:55.999Z</time></trkpt><trkpt lat="42.303581641181125" lon="13.83228143782284"><ele>1103.0</ele><time>2026-04-18T09:37:56.999Z</time></trkpt><trkpt lat="42.303651571902925" lon="13.83227376082443"><ele>1103.0</ele><time>2026-04-18T09:37:57.999Z</time></trkpt><trkpt lat="42.30371701821801" lon="13.832274175857107"><ele>1103.0</ele><time>2026-04-18T09:37:58.999Z</time></trkpt><trkpt lat="42.303803972987964" lon="13.832274055906565"><ele>1103.0</ele><time>2026-04-18T09:37:59.999Z</time></trkpt><trkpt lat="42.30389903163191" lon="13.832273018533058"><ele>1101.8</ele><time>2026-04-18T09:38:00.999Z</time></trkpt><trkpt lat="42.30400011569735" lon="13.832274914018399"><ele>1100.6</ele><time>2026-04-18T09:38:01.999Z</time></trkpt><trkpt lat="42.30410706076378" lon="13.832279931879995"><ele>1099.4</ele><time>2026-04-18T09:38:02.999Z</time></trkpt><trkpt lat="42.304210452901955" lon="13.8322811973085"><ele>1098.2</ele><time>2026-04-18T09:38:03.999Z</time></trkpt><trkpt lat="42.30431150500755" lon="13.83229106123821"><ele>1097.0</ele><time>2026-04-18T09:38:04.999Z</time></trkpt><trkpt lat="42.30441269447394" lon="13.832317845396627"><ele>1097.0</ele><time>2026-04-18T09:38:05.999Z</time></trkpt><trkpt lat="42.3045151619687" lon="13.832357978265552"><ele>1097.0</ele><time>2026-04-18T09:38:06.999Z</time></trkpt><trkpt lat="42.304616690200035" lon="13.832401403127946"><ele>1097.0</ele><time>2026-04-18T09:38:07.999Z</time></trkpt><trkpt lat="42.304721667095976" lon="13.832453369374063"><ele>1097.0</ele><time>2026-04-18T09:38:08.999Z</time></trkpt><trkpt lat="42.304828400089285" lon="13.832509616482106"><ele>1097.0</ele><time>2026-04-18T09:38:09.999Z</time></trkpt><trkpt lat="42.30493933917781" lon="13.832569284547523"><ele>1097.0</ele><time>2026-04-18T09:38:10.999Z</time></trkpt><trkpt lat="42.30504205406582" lon="13.832629233518979"><ele>1097.0</ele><time>2026-04-18T09:38:11.999Z</time></trkpt><trkpt lat="42.30513628283699" lon="13.83267686606348"><ele>1097.0</ele><time>2026-04-18T09:38:12.999Z</time></trkpt><trkpt lat="42.305226561931036" lon="13.832730552155313"><ele>1097.0</ele><time>2026-04-18T09:38:13.999Z</time></trkpt><trkpt lat="42.30530823842572" lon="13.832789691699135"><ele>1097.0</ele><time>2026-04-18T09:38:14.999Z</time></trkpt><trkpt lat="42.30538409848957" lon="13.832853522979669"><ele>1093.5</ele><time>2026-04-18T09:38:15.999Z</time></trkpt><trkpt lat="42.30546360309871" lon="13.832917713840134"><ele>1090.0</ele><time>2026-04-18T09:38:16.999Z</time></trkpt><trkpt lat="42.305548270056384" lon="13.832979424397944"><ele>1086.5</ele><time>2026-04-18T09:38:17.999Z</time></trkpt><trkpt lat="42.305624013442234" lon="13.833039370530862"><ele>1083.0</ele><time>2026-04-18T09:38:18.999Z</time></trkpt><trkpt lat="42.3056861556842" lon="13.833090738965165"><ele>1079.5</ele><time>2026-04-18T09:38:21.999Z</time></trkpt><trkpt lat="42.305727065530256" lon="13.83319217910608"><ele>1076.0</ele><time>2026-04-18T09:38:24.999Z</time></trkpt><trkpt lat="42.305803812727" lon="13.833307149991587"><ele>1076.0</ele><time>2026-04-18T09:38:26.999Z</time></trkpt><trkpt lat="42.30585373474412" lon="13.83336025509114"><ele>1076.0</ele><time>2026-04-18T09:38:27.999Z</time></trkpt><trkpt lat="42.30591060250662" lon="13.833469748785307"><ele>1076.0</ele><time>2026-04-18T09:38:29.999Z</time></trkpt><trkpt lat="42.3059207379821" lon="13.83365144562184"><ele>1076.0</ele><time>2026-04-18T09:38:31.999Z</time></trkpt><trkpt lat="42.30593745512057" lon="13.83373802982466"><ele>1076.0</ele><time>2026-04-18T09:38:32.999Z</time></trkpt><trkpt lat="42.30601168652453" lon="13.833822132140726"><ele>1074.5</ele><time>2026-04-18T09:38:34.999Z</time></trkpt><trkpt lat="42.30608437171931" lon="13.83385105146967"><ele>1073.0</ele><time>2026-04-18T09:38:35.998Z</time></trkpt><trkpt lat="42.30617937695574" lon="13.833881001342247"><ele>1071.5</ele><time>2026-04-18T09:38:36.998Z</time></trkpt><trkpt lat="42.30627787797669" lon="13.833902494861173"><ele>1070.0</ele><time>2026-04-18T09:38:37.998Z</time></trkpt><trkpt lat="42.30634777225579" lon="13.833940994838937"><ele>1068.5</ele><time>2026-04-18T09:38:38.998Z</time></trkpt><trkpt lat="42.30640237538779" lon="13.83399470219091"><ele>1067.0</ele><time>2026-04-18T09:38:39.998Z</time></trkpt><trkpt lat="42.30645890943424" lon="13.834057393217778"><ele>1067.0</ele><time>2026-04-18T09:38:40.998Z</time></trkpt><trkpt lat="42.30653124289692" lon="13.834132187302867"><ele>1067.0</ele><time>2026-04-18T09:38:42.998Z</time></trkpt><trkpt lat="42.30656694545726" lon="13.834283113056888"><ele>1067.0</ele><time>2026-04-18T09:38:44.998Z</time></trkpt><trkpt lat="42.30655060966798" lon="13.834392174072107"><ele>1067.0</ele><time>2026-04-18T09:38:46.998Z</time></trkpt><trkpt lat="42.30648564622115" lon="13.834451740784012"><ele>1067.0</ele><time>2026-04-18T09:38:48.998Z</time></trkpt><trkpt lat="42.306387539795246" lon="13.834415791429102"><ele>1062.6666666666667</ele><time>2026-04-18T09:38:50.998Z</time></trkpt><trkpt lat="42.306320351932015" lon="13.834382299702767"><ele>1058.3333333333335</ele><time>2026-04-18T09:38:51.998Z</time></trkpt><trkpt lat="42.30624476733628" lon="13.834398745171574"><ele>1054.0</ele><time>2026-04-18T09:38:54Z</time></trkpt><trkpt lat="42.30620728959901" lon="13.83452582002784"><ele>1049.6666666666667</ele><time>2026-04-18T09:38:56Z</time></trkpt><trkpt lat="42.30623752395042" lon="13.834621294892909"><ele>1045.3333333333333</ele><time>2026-04-18T09:38:57Z</time></trkpt><trkpt lat="42.306294305286485" lon="13.834710579208265"><ele>1041.0</ele><time>2026-04-18T09:38:58Z</time></trkpt><trkpt lat="42.30636835902381" lon="13.834835415076956"><ele>1041.0</ele><time>2026-04-18T09:39:00Z</time></trkpt><trkpt lat="42.30634167166627" lon="13.834956397182788"><ele>1041.0</ele><time>2026-04-18T09:39:02Z</time></trkpt><trkpt lat="42.30622894491474" lon="13.83498929421552"><ele>1041.0</ele><time>2026-04-18T09:39:04Z</time></trkpt><trkpt lat="42.30616203124754" lon="13.834971473302652"><ele>1041.0</ele><time>2026-04-18T09:39:05Z</time></trkpt><trkpt lat="42.30608875484902" lon="13.834937348315714"><ele>1041.0</ele><time>2026-04-18T09:39:06Z</time></trkpt><trkpt lat="42.30600571799595" lon="13.83489414270196"><ele>1041.0</ele><time>2026-04-18T09:39:07Z</time></trkpt><trkpt lat="42.3059264412379" lon="13.834855924128112"><ele>1041.0</ele><time>2026-04-18T09:39:08Z</time></trkpt><trkpt lat="42.305857691040956" lon="13.834843269942603"><ele>1041.0</ele><time>2026-04-18T09:39:09Z</time></trkpt><trkpt lat="42.305783176355284" lon="13.834853298862717"><ele>1041.0</ele><time>2026-04-18T09:39:11Z</time></trkpt><trkpt lat="42.30576914906614" lon="13.83494258610611"><ele>1041.0</ele><time>2026-04-18T09:39:13Z</time></trkpt><trkpt lat="42.30583039703627" lon="13.835080567064129"><ele>1041.0</ele><time>2026-04-18T09:39:15Z</time></trkpt><trkpt lat="42.30588930469229" lon="13.835112179360928"><ele>1041.0</ele><time>2026-04-18T09:39:16Z</time></trkpt><trkpt lat="42.30594375401223" lon="13.83515546613424"><ele>1038.3333333333333</ele><time>2026-04-18T09:39:17Z</time></trkpt><trkpt lat="42.30600615383273" lon="13.835281644007424"><ele>1035.6666666666667</ele><time>2026-04-18T09:39:19Z</time></trkpt><trkpt lat="42.30600943150312" lon="13.835385925733556"><ele>1033.0</ele><time>2026-04-18T09:39:20Z</time></trkpt><trkpt lat="42.306016759869024" lon="13.835485183153711"><ele>1030.3333333333335</ele><time>2026-04-18T09:39:21Z</time></trkpt><trkpt lat="42.30601839998896" lon="13.835575372181403"><ele>1027.6666666666667</ele><time>2026-04-18T09:39:22Z</time></trkpt><trkpt lat="42.306015896499574" lon="13.835663750077583"><ele>1025.0</ele><time>2026-04-18T09:39:23Z</time></trkpt><trkpt lat="42.30603073721942" lon="13.835772886719841"><ele>1025.0</ele><time>2026-04-18T09:39:25Z</time></trkpt><trkpt lat="42.30602683143561" lon="13.83588824445502"><ele>1025.0</ele><time>2026-04-18T09:39:27Z</time></trkpt><trkpt lat="42.30600609425801" lon="13.8359964840101"><ele>1025.0</ele><time>2026-04-18T09:39:28.999Z</time></trkpt><trkpt lat="42.30599745544005" lon="13.836092851326944"><ele>1025.0</ele><time>2026-04-18T09:39:30.999Z</time></trkpt><trkpt lat="42.30597359277665" lon="13.836188344063679"><ele>1025.0</ele><time>2026-04-18T09:39:34.999Z</time></trkpt><trkpt lat="42.30593411525898" lon="13.83629053888679"><ele>1025.0</ele><time>2026-04-18T09:39:38.999Z</time></trkpt><trkpt lat="42.305901682678126" lon="13.836375183759907"><ele>1023.0000000000001</ele><time>2026-04-18T09:39:40.999Z</time></trkpt><trkpt lat="42.305856099134765" lon="13.836463563670348"><ele>1021.0</ele><time>2026-04-18T09:39:43.999Z</time></trkpt><trkpt lat="42.30582215707391" lon="13.836564757644934"><ele>1019.0</ele><time>2026-04-18T09:39:47.999Z</time></trkpt><trkpt lat="42.30580179629759" lon="13.836653986861569"><ele>1017.0</ele><time>2026-04-18T09:39:50.999Z</time></trkpt><trkpt lat="42.30578837267522" lon="13.836762515534229"><ele>1015.0000000000001</ele><time>2026-04-18T09:39:53.999Z</time></trkpt><trkpt lat="42.30575864750638" lon="13.836869547403243"><ele>1013.0</ele><time>2026-04-18T09:39:56.999Z</time></trkpt><trkpt lat="42.305739742403254" lon="13.836952237954879"><ele>1011.1666666666667</ele><time>2026-04-18T09:40:01.999Z</time></trkpt><trkpt lat="42.30571150898331" lon="13.837035770912845"><ele>1009.3333333333334</ele><time>2026-04-18T09:40:23.999Z</time></trkpt><trkpt lat="42.30568080952249" lon="13.837119581153507"><ele>1007.5</ele><time>2026-04-18T09:40:41.998Z</time></trkpt><trkpt lat="42.305656396495685" lon="13.83720480605443"><ele>1005.6666666666667</ele><time>2026-04-18T09:40:49.998Z</time></trkpt><trkpt lat="42.305651614526234" lon="13.837297429551912"><ele>1003.8333333333334</ele><time>2026-04-18T09:40:51.998Z</time></trkpt><trkpt lat="42.305636473027455" lon="13.837438607852297"><ele>1002.0</ele><time>2026-04-18T09:40:54.998Z</time></trkpt><trkpt lat="42.30562828327458" lon="13.83755034458749"><ele>999.8333333333334</ele><time>2026-04-18T09:40:57.998Z</time></trkpt><trkpt lat="42.30563344066763" lon="13.837663125997965"><ele>997.6666666666667</ele><time>2026-04-18T09:41:00Z</time></trkpt><trkpt lat="42.305644449407666" lon="13.837766509936696"><ele>995.5</ele><time>2026-04-18T09:41:02Z</time></trkpt><trkpt lat="42.30564865275539" lon="13.837877049580376"><ele>993.3333333333334</ele><time>2026-04-18T09:41:04Z</time></trkpt><trkpt lat="42.30565982628331" lon="13.838012841866615"><ele>991.1666666666667</ele><time>2026-04-18T09:41:06Z</time></trkpt><trkpt lat="42.305679202630415" lon="13.838131050021728"><ele>989.0</ele><time>2026-04-18T09:41:08Z</time></trkpt><trkpt lat="42.30571263678174" lon="13.838268566912806"><ele>989.0</ele><time>2026-04-18T09:41:10Z</time></trkpt><trkpt lat="42.30574089107552" lon="13.83841281570195"><ele>989.0</ele><time>2026-04-18T09:41:12Z</time></trkpt><trkpt lat="42.30580247383053" lon="13.83855069847581"><ele>989.0</ele><time>2026-04-18T09:41:14Z</time></trkpt><trkpt lat="42.30587807292579" lon="13.838676488633247"><ele>989.0</ele><time>2026-04-18T09:41:16Z</time></trkpt><trkpt lat="42.30596296077992" lon="13.838789880155204"><ele>985.4000000000001</ele><time>2026-04-18T09:41:18Z</time></trkpt><trkpt lat="42.306054102544095" lon="13.838851250192102"><ele>981.8000000000001</ele><time>2026-04-18T09:41:20Z</time></trkpt><trkpt lat="42.306149054767445" lon="13.838894614059969"><ele>978.1999999999999</ele><time>2026-04-18T09:41:22Z</time></trkpt><trkpt lat="42.30625796407388" lon="13.838888736431805"><ele>974.5999999999999</ele><time>2026-04-18T09:41:24Z</time></trkpt><trkpt lat="42.306379033211044" lon="13.8388526559623"><ele>971.0</ele><time>2026-04-18T09:41:26Z</time></trkpt><trkpt lat="42.30644069812791" lon="13.838830209694171"><ele>971.0</ele><time>2026-04-18T09:41:26.999Z</time></trkpt><trkpt lat="42.30650704555929" lon="13.83881256218145"><ele>971.0000000000001</ele><time>2026-04-18T09:41:27.999Z</time></trkpt><trkpt lat="42.30657022015259" lon="13.838794357536795"><ele>971.0</ele><time>2026-04-18T09:41:28.999Z</time></trkpt><trkpt lat="42.30663316885592" lon="13.838780778276362"><ele>971.0</ele><time>2026-04-18T09:41:29.999Z</time></trkpt><trkpt lat="42.30669849790984" lon="13.83876720321211"><ele>971.0000000000001</ele><time>2026-04-18T09:41:30.999Z</time></trkpt><trkpt lat="42.30676229325033" lon="13.838754591930204"><ele>971.0</ele><time>2026-04-18T09:41:31.999Z</time></trkpt><trkpt lat="42.306826204069274" lon="13.838746009406968"><ele>971.0</ele><time>2026-04-18T09:41:32.999Z</time></trkpt><trkpt lat="42.30693320773687" lon="13.838755568033552"><ele>971.0000000000001</ele><time>2026-04-18T09:41:34.999Z</time></trkpt><trkpt lat="42.30699539401357" lon="13.838797154314426"><ele>971.0</ele><time>2026-04-18T09:41:36.999Z</time></trkpt><trkpt lat="42.307006146729925" lon="13.83894001567065"><ele>971.0</ele><time>2026-04-18T09:41:39.999Z</time></trkpt><trkpt lat="42.30692802568151" lon="13.839023424580452"><ele>971.0</ele><time>2026-04-18T09:41:41.999Z</time></trkpt><trkpt lat="42.30686734778098" lon="13.839063469226526"><ele>971.0000000000001</ele><time>2026-04-18T09:41:42.999Z</time></trkpt><trkpt lat="42.306800538896056" lon="13.839106954557073"><ele>971.0</ele><time>2026-04-18T09:41:43.999Z</time></trkpt><trkpt lat="42.30673308522312" lon="13.839141493134107"><ele>971.0000000000001</ele><time>2026-04-18T09:41:44.999Z</time></trkpt><trkpt lat="42.30666490882674" lon="13.83917679377217"><ele>971.0</ele><time>2026-04-18T09:41:45.999Z</time></trkpt><trkpt lat="42.30658612267749" lon="13.839222827839034"><ele>971.0</ele><time>2026-04-18T09:41:47.999Z</time></trkpt><trkpt lat="42.30649732759395" lon="13.839264756920706"><ele>971.0</ele><time>2026-04-18T09:41:49.999Z</time></trkpt><trkpt lat="42.30647049670619" lon="13.839379469581122"><ele>971.0000000000001</ele><time>2026-04-18T09:41:51.999Z</time></trkpt><trkpt lat="42.30654817614339" lon="13.839449444153038"><ele>971.0</ele><time>2026-04-18T09:41:53.999Z</time></trkpt><trkpt lat="42.30668236607757" lon="13.839453499180026"><ele>967.1666666666667</ele><time>2026-04-18T09:41:55.999Z</time></trkpt><trkpt lat="42.306761579855724" lon="13.839446211968669"><ele>963.3333333333334</ele><time>2026-04-18T09:41:56.999Z</time></trkpt><trkpt lat="42.30684087664703" lon="13.83943924891246"><ele>959.5</ele><time>2026-04-18T09:41:57.999Z</time></trkpt><trkpt lat="42.306908720230645" lon="13.839429348961948"><ele>955.6666666666667</ele><time>2026-04-18T09:41:58.999Z</time></trkpt><trkpt lat="42.307013675764885" lon="13.839413014887814"><ele>951.8333333333334</ele><time>2026-04-18T09:42:00.999Z</time></trkpt><trkpt lat="42.30708973686165" lon="13.839423613051403"><ele>948.0</ele><time>2026-04-18T09:42:03.999Z</time></trkpt><trkpt lat="42.30709523847386" lon="13.83951692485513"><ele>948.0</ele><time>2026-04-18T09:42:05.999Z</time></trkpt><trkpt lat="42.307044611110506" lon="13.839587256022448"><ele>948.0</ele><time>2026-04-18T09:42:06.999Z</time></trkpt><trkpt lat="42.306965071620056" lon="13.839638844836045"><ele>948.0</ele><time>2026-04-18T09:42:07.999Z</time></trkpt><trkpt lat="42.30688639520352" lon="13.839676902814876"><ele>948.0</ele><time>2026-04-18T09:42:08.999Z</time></trkpt><trkpt lat="42.30681128596602" lon="13.839720353809707"><ele>948.0</ele><time>2026-04-18T09:42:09.999Z</time></trkpt><trkpt lat="42.306743136802275" lon="13.839781252715534"><ele>948.0</ele><time>2026-04-18T09:42:10.999Z</time></trkpt><trkpt lat="42.306678549075116" lon="13.839854819951924"><ele>948.0</ele><time>2026-04-18T09:42:11.999Z</time></trkpt><trkpt lat="42.306625217670764" lon="13.839948120964028"><ele>948.0</ele><time>2026-04-18T09:42:12.999Z</time></trkpt><trkpt lat="42.30659083499752" lon="13.84004343922033"><ele>948.0</ele><time>2026-04-18T09:42:13.999Z</time></trkpt><trkpt lat="42.30657607078048" lon="13.840168148371339"><ele>948.0</ele><time>2026-04-18T09:42:24.999Z</time></trkpt><trkpt lat="42.30656576028569" lon="13.840253047187916"><ele>948.0</ele><time>2026-04-18T09:42:25.999Z</time></trkpt><trkpt lat="42.30655321104312" lon="13.84036620374517"><ele>948.0</ele><time>2026-04-18T09:42:26.999Z</time></trkpt><trkpt lat="42.30654363323381" lon="13.840478275939493"><ele>944.8</ele><time>2026-04-18T09:42:27.999Z</time></trkpt><trkpt lat="42.3065293690608" lon="13.84059639069422"><ele>941.5999999999999</ele><time>2026-04-18T09:42:28.999Z</time></trkpt><trkpt lat="42.30650786117215" lon="13.840714086638638"><ele>938.4000000000001</ele><time>2026-04-18T09:42:29.999Z</time></trkpt><trkpt lat="42.306491315177226" lon="13.840834146536107"><ele>935.2</ele><time>2026-04-18T09:42:30.999Z</time></trkpt><trkpt lat="42.3064806042917" lon="13.840959710175024"><ele>932.0</ele><time>2026-04-18T09:42:31.999Z</time></trkpt><trkpt lat="42.30646708986325" lon="13.841089324263207"><ele>929.4000000000001</ele><time>2026-04-18T09:42:32.999Z</time></trkpt><trkpt lat="42.30645342405658" lon="13.841221984012373"><ele>926.8000000000001</ele><time>2026-04-18T09:42:33.999Z</time></trkpt><trkpt lat="42.3064479970116" lon="13.841359987803346"><ele>924.2</ele><time>2026-04-18T09:42:34.999Z</time></trkpt><trkpt lat="42.30644746911067" lon="13.8415008691564"><ele>921.6</ele><time>2026-04-18T09:42:35.999Z</time></trkpt><trkpt lat="42.30645035455461" lon="13.84164564074954"><ele>919.0</ele><time>2026-04-18T09:42:36.999Z</time></trkpt><trkpt lat="42.30645478971862" lon="13.841791824155035"><ele>918.6</ele><time>2026-04-18T09:42:37.999Z</time></trkpt><trkpt lat="42.30645922587213" lon="13.841935768206392"><ele>918.2</ele><time>2026-04-18T09:42:38.999Z</time></trkpt><trkpt lat="42.3064632452802" lon="13.842080340723198"><ele>917.8000000000001</ele><time>2026-04-18T09:42:39.999Z</time></trkpt><trkpt lat="42.30646701872768" lon="13.842229620487547"><ele>917.4000000000001</ele><time>2026-04-18T09:42:40.999Z</time></trkpt><trkpt lat="42.306499659752106" lon="13.842387187220442"><ele>917.0</ele><time>2026-04-18T09:42:41.998Z</time></trkpt><trkpt lat="42.30656168500424" lon="13.842556672547996"><ele>915.25</ele><time>2026-04-18T09:42:42.998Z</time></trkpt><trkpt lat="42.306635513180005" lon="13.842728028192605"><ele>913.5</ele><time>2026-04-18T09:42:43.998Z</time></trkpt><trkpt lat="42.30670760678828" lon="13.842906562466458"><ele>911.75</ele><time>2026-04-18T09:42:44.998Z</time></trkpt><trkpt lat="42.306769651183664" lon="13.843082653296161"><ele>910.0</ele><time>2026-04-18T09:42:45.998Z</time></trkpt><trkpt lat="42.30683204219905" lon="13.84325692833217"><ele>910.0</ele><time>2026-04-18T09:42:46.998Z</time></trkpt><trkpt lat="42.30689897149573" lon="13.843424093909931"><ele>910.0</ele><time>2026-04-18T09:42:47.998Z</time></trkpt><trkpt lat="42.30696928676578" lon="13.84359055040093"><ele>910.0</ele><time>2026-04-18T09:42:48.998Z</time></trkpt><trkpt lat="42.30703617742526" lon="13.843758586088072"><ele>910.0</ele><time>2026-04-18T09:42:49.998Z</time></trkpt><trkpt lat="42.307109541712954" lon="13.843918372659546"><ele>906.75</ele><time>2026-04-18T09:42:50.998Z</time></trkpt><trkpt lat="42.307185591866066" lon="13.844074903568128"><ele>903.5</ele><time>2026-04-18T09:42:51.998Z</time></trkpt><trkpt lat="42.30725992267059" lon="13.844230143912382"><ele>900.25</ele><time>2026-04-18T09:42:52.998Z</time></trkpt><trkpt lat="42.307328964750965" lon="13.844390302103088"><ele>897.0</ele><time>2026-04-18T09:42:53.998Z</time></trkpt><trkpt lat="42.307392592000305" lon="13.844557332973247"><ele>896.2</ele><time>2026-04-18T09:42:54.998Z</time></trkpt><trkpt lat="42.307447215068365" lon="13.844707106316129"><ele>895.4000000000001</ele><time>2026-04-18T09:42:55.998Z</time></trkpt><trkpt lat="42.30748785308577" lon="13.84481425349472"><ele>894.5999999999999</ele><time>2026-04-18T09:42:56.998Z</time></trkpt><trkpt lat="42.30753768956465" lon="13.844934908106168"><ele>893.8</ele><time>2026-04-18T09:42:58.998Z</time></trkpt><trkpt lat="42.307557014185434" lon="13.845053067754295"><ele>893.0</ele><time>2026-04-18T09:43:00.998Z</time></trkpt><trkpt lat="42.3075542450381" lon="13.845192427044768"><ele>891.1666666666667</ele><time>2026-04-18T09:43:02.998Z</time></trkpt><trkpt lat="42.30754760907177" lon="13.845283181353878"><ele>889.3333333333334</ele><time>2026-04-18T09:43:03.998Z</time></trkpt><trkpt lat="42.30754170089798" lon="13.845387623551035"><ele>887.5</ele><time>2026-04-18T09:43:05Z</time></trkpt><trkpt lat="42.30753501840573" lon="13.845502603472394"><ele>885.6666666666667</ele><time>2026-04-18T09:43:06Z</time></trkpt><trkpt lat="42.307530697405475" lon="13.84561034631786"><ele>883.8333333333334</ele><time>2026-04-18T09:43:07Z</time></trkpt><trkpt lat="42.3075227614077" lon="13.845714279629576"><ele>882.0</ele><time>2026-04-18T09:43:08Z</time></trkpt><trkpt lat="42.30751094515688" lon="13.845822091926264"><ele>882.0</ele><time>2026-04-18T09:43:09Z</time></trkpt><trkpt lat="42.307502376794304" lon="13.845932214875361"><ele>882.0</ele><time>2026-04-18T09:43:10Z</time></trkpt><trkpt lat="42.30749640667436" lon="13.846037172222282"><ele>882.0</ele><time>2026-04-18T09:43:11Z</time></trkpt><trkpt lat="42.30749984846518" lon="13.84612967331791"><ele>882.0</ele><time>2026-04-18T09:43:12Z</time></trkpt><trkpt lat="42.30753130530979" lon="13.84622590085472"><ele>882.0</ele><time>2026-04-18T09:43:13Z</time></trkpt><trkpt lat="42.30758934451111" lon="13.846309200996266"><ele>882.0</ele><time>2026-04-18T09:43:14Z</time></trkpt><trkpt lat="42.30766041500811" lon="13.846381348392239"><ele>879.6</ele><time>2026-04-18T09:43:15Z</time></trkpt><trkpt lat="42.30770302104182" lon="13.846463211529246"><ele>877.2</ele><time>2026-04-18T09:43:16Z</time></trkpt><trkpt lat="42.30771082211856" lon="13.846567189539208"><ele>874.8</ele><time>2026-04-18T09:43:17Z</time></trkpt><trkpt lat="42.30768246518558" lon="13.846688389525088"><ele>872.4</ele><time>2026-04-18T09:43:18Z</time></trkpt><trkpt lat="42.30762954020329" lon="13.846808652422833"><ele>870.0</ele><time>2026-04-18T09:43:19Z</time></trkpt><trkpt lat="42.30756732666469" lon="13.846933565916702"><ele>869.3333333333334</ele><time>2026-04-18T09:43:20Z</time></trkpt><trkpt lat="42.30752774942435" lon="13.847065043199681"><ele>868.6666666666667</ele><time>2026-04-18T09:43:21Z</time></trkpt><trkpt lat="42.307503183152875" lon="13.847168332563424"><ele>868.0</ele><time>2026-04-18T09:43:22Z</time></trkpt><trkpt lat="42.307485320002364" lon="13.84725144466423"><ele>867.3333333333334</ele><time>2026-04-18T09:43:23Z</time></trkpt><trkpt lat="42.30745571420147" lon="13.847334072231687"><ele>866.6666666666667</ele><time>2026-04-18T09:43:23.999Z</time></trkpt><trkpt lat="42.307396700928784" lon="13.847395986121287"><ele>866.0</ele><time>2026-04-18T09:43:24.999Z</time></trkpt><trkpt lat="42.307327982048285" lon="13.847449038046758"><ele>866.0</ele><time>2026-04-18T09:43:25.999Z</time></trkpt><trkpt lat="42.30726554510524" lon="13.847510607183496"><ele>865.9999999999999</ele><time>2026-04-18T09:43:26.999Z</time></trkpt><trkpt lat="42.307211579668056" lon="13.847554459871318"><ele>865.9999999999999</ele><time>2026-04-18T09:43:27.999Z</time></trkpt><trkpt lat="42.307125034242915" lon="13.847587547454818"><ele>866.0</ele><time>2026-04-18T09:43:29.999Z</time></trkpt><trkpt lat="42.307092724149165" lon="13.847729224047214"><ele>866.0</ele><time>2026-04-18T09:43:32.999Z</time></trkpt><trkpt lat="42.30715970692226" lon="13.847881201150324"><ele>865.0</ele><time>2026-04-18T09:43:34.999Z</time></trkpt><trkpt lat="42.30720330191555" lon="13.847981754649876"><ele>863.9999999999999</ele><time>2026-04-18T09:43:35.999Z</time></trkpt><trkpt lat="42.30725638671501" lon="13.84808663956304"><ele>862.9999999999999</ele><time>2026-04-18T09:43:36.999Z</time></trkpt><trkpt lat="42.307305739164676" lon="13.848194266280705"><ele>862.0</ele><time>2026-04-18T09:43:37.999Z</time></trkpt><trkpt lat="42.30735240659346" lon="13.84830326124409"><ele>861.0</ele><time>2026-04-18T09:43:38.999Z</time></trkpt><trkpt lat="42.30740111078385" lon="13.848401632526928"><ele>861.1666666666666</ele><time>2026-04-18T09:43:39.999Z</time></trkpt><trkpt lat="42.3074305553716" lon="13.848503341787952"><ele>861.3333333333333</ele><time>2026-04-18T09:43:40.999Z</time></trkpt><trkpt lat="42.30748013660348" lon="13.848580240862876"><ele>861.5</ele><time>2026-04-18T09:43:41.999Z</time></trkpt><trkpt lat="42.307528305323956" lon="13.848653762150493"><ele>861.6666666666666</ele><time>2026-04-18T09:43:42.999Z</time></trkpt><trkpt lat="42.307574539218386" lon="13.84872463023011"><ele>861.8333333333333</ele><time>2026-04-18T09:43:43.999Z</time></trkpt><trkpt lat="42.30763138040751" lon="13.84876703883937"><ele>862.0</ele><time>2026-04-18T09:43:44.999Z</time></trkpt><trkpt lat="42.307730508493044" lon="13.848795313753481"><ele>862.0</ele><time>2026-04-18T09:43:46.999Z</time></trkpt><trkpt lat="42.30779568294931" lon="13.848762703006818"><ele>862.0</ele><time>2026-04-18T09:43:48.999Z</time></trkpt><trkpt lat="42.30793991714449" lon="13.84864197249353"><ele>862.0</ele><time>2026-04-18T09:43:49.999Z</time></trkpt><trkpt lat="42.30778130743232" lon="13.848520946997803"><ele>862.0</ele><time>2026-04-18T09:44:07.999Z</time></trkpt><trkpt lat="42.3077275724615" lon="13.848620865080909"><ele>862.0</ele><time>2026-04-18T09:44:25.999Z</time></trkpt><trkpt lat="42.30765532920731" lon="13.848727702315852"><ele>862.0</ele><time>2026-04-18T09:44:27.999Z</time></trkpt><trkpt lat="42.30758635342953" lon="13.848705045666337"><ele>862.0</ele><time>2026-04-18T09:44:28.999Z</time></trkpt><trkpt lat="42.30752305455852" lon="13.848635881977001"><ele>862.0</ele><time>2026-04-18T09:44:29.999Z</time></trkpt><trkpt lat="42.307459828599114" lon="13.848546636776"><ele>862.0</ele><time>2026-04-18T09:44:30.999Z</time></trkpt><trkpt lat="42.30739111350924" lon="13.848421048110552"><ele>861.8</ele><time>2026-04-18T09:44:31.999Z</time></trkpt><trkpt lat="42.307338016995324" lon="13.848274452926601"><ele>861.6</ele><time>2026-04-18T09:44:32.999Z</time></trkpt><trkpt lat="42.307287927538816" lon="13.848148286337008"><ele>861.3999999999999</ele><time>2026-04-18T09:44:33.999Z</time></trkpt><trkpt lat="42.30723300658717" lon="13.848024922526786"><ele>861.1999999999999</ele><time>2026-04-18T09:44:34.999Z</time></trkpt><trkpt lat="42.30717368277618" lon="13.847902036632776"><ele>861.0</ele><time>2026-04-18T09:44:35.999Z</time></trkpt><trkpt lat="42.307119880968074" lon="13.847777718876184"><ele>859.4</ele><time>2026-04-18T09:44:36.999Z</time></trkpt><trkpt lat="42.30706889173964" lon="13.847654284677676"><ele>857.8</ele><time>2026-04-18T09:44:37.999Z</time></trkpt><trkpt lat="42.30701593460553" lon="13.847529280501622"><ele>856.1999999999999</ele><time>2026-04-18T09:44:38.999Z</time></trkpt><trkpt lat="42.30696338185138" lon="13.847410868981527"><ele>854.5999999999999</ele><time>2026-04-18T09:44:39.999Z</time></trkpt><trkpt lat="42.30692088701608" lon="13.847295780997356"><ele>853.0</ele><time>2026-04-18T09:44:40.998Z</time></trkpt><trkpt lat="42.306885583461515" lon="13.847182553743131"><ele>853.0</ele><time>2026-04-18T09:44:41.998Z</time></trkpt><trkpt lat="42.306858493425146" lon="13.847067847439313"><ele>853.0</ele><time>2026-04-18T09:44:42.998Z</time></trkpt><trkpt lat="42.30684099797254" lon="13.846942429679226"><ele>853.0</ele><time>2026-04-18T09:44:43.998Z</time></trkpt><trkpt lat="42.30681949312387" lon="13.84682342861472"><ele>853.0</ele><time>2026-04-18T09:44:44.998Z</time></trkpt><trkpt lat="42.30679619914223" lon="13.846701492233473"><ele>853.0</ele><time>2026-04-18T09:44:45.998Z</time></trkpt><trkpt lat="42.30677149499527" lon="13.846566480551033"><ele>854.2</ele><time>2026-04-18T09:44:46.998Z</time></trkpt><trkpt lat="42.306700171741724" lon="13.846470506954098"><ele>855.4</ele><time>2026-04-18T09:44:47.998Z</time></trkpt><trkpt lat="42.30662912852921" lon="13.846364714535573"><ele>856.6000000000001</ele><time>2026-04-18T09:44:48.998Z</time></trkpt><trkpt lat="42.306554858885896" lon="13.84627235634648"><ele>857.8000000000001</ele><time>2026-04-18T09:44:49.998Z</time></trkpt><trkpt lat="42.30647547019876" lon="13.84618675509125"><ele>859.0</ele><time>2026-04-18T09:44:50.998Z</time></trkpt><trkpt lat="42.30639141797871" lon="13.846103218537374"><ele>857.0</ele><time>2026-04-18T09:44:51.998Z</time></trkpt><trkpt lat="42.3063173928894" lon="13.846014940533012"><ele>855.0000000000001</ele><time>2026-04-18T09:44:52.998Z</time></trkpt><trkpt lat="42.30625074601751" lon="13.845915684623119"><ele>853.0</ele><time>2026-04-18T09:44:53.998Z</time></trkpt><trkpt lat="42.30618507189018" lon="13.845821211065056"><ele>851.0</ele><time>2026-04-18T09:44:54.998Z</time></trkpt><trkpt lat="42.30611172428964" lon="13.845714210866047"><ele>849.0</ele><time>2026-04-18T09:44:55.998Z</time></trkpt><trkpt lat="42.306045035475975" lon="13.845587792210194"><ele>849.0</ele><time>2026-04-18T09:44:56.998Z</time></trkpt><trkpt lat="42.30598845736429" lon="13.845434352756827"><ele>849.0</ele><time>2026-04-18T09:44:57.998Z</time></trkpt><trkpt lat="42.30594117148745" lon="13.845275310471415"><ele>849.0</ele><time>2026-04-18T09:44:58.998Z</time></trkpt><trkpt lat="42.30589347779961" lon="13.845104568718428"><ele>849.0</ele><time>2026-04-18T09:44:59.998Z</time></trkpt><trkpt lat="42.30584769888127" lon="13.844925726206247"><ele>852.0</ele><time>2026-04-18T09:45:00.998Z</time></trkpt><trkpt lat="42.30579851793956" lon="13.844749445700142"><ele>855.0</ele><time>2026-04-18T09:45:01.998Z</time></trkpt><trkpt lat="42.30574395294464" lon="13.844578034585046"><ele>858.0</ele><time>2026-04-18T09:45:02.998Z</time></trkpt><trkpt lat="42.305675684035116" lon="13.844420019323612"><ele>861.0</ele><time>2026-04-18T09:45:03.998Z</time></trkpt><trkpt lat="42.30558229785203" lon="13.844290866002508"><ele>859.3333333333333</ele><time>2026-04-18T09:45:04.998Z</time></trkpt><trkpt lat="42.305467157084415" lon="13.844170405397994"><ele>857.6666666666666</ele><time>2026-04-18T09:45:05.998Z</time></trkpt><trkpt lat="42.30533589224162" lon="13.844020882385616"><ele>856.0</ele><time>2026-04-18T09:45:06.998Z</time></trkpt><trkpt lat="42.305213902561086" lon="13.84385309183957"><ele>856.0</ele><time>2026-04-18T09:45:07.998Z</time></trkpt><trkpt lat="42.305098938391055" lon="13.843695752094172"><ele>856.0</ele><time>2026-04-18T09:45:08.998Z</time></trkpt><trkpt lat="42.304986500798115" lon="13.843554684070511"><ele>856.0</ele><time>2026-04-18T09:45:09.998Z</time></trkpt><trkpt lat="42.30487780894362" lon="13.843405088410973"><ele>853.0</ele><time>2026-04-18T09:45:10.999Z</time></trkpt><trkpt lat="42.30478304356211" lon="13.843228303737947"><ele>850.0</ele><time>2026-04-18T09:45:11.999Z</time></trkpt><trkpt lat="42.30471372298037" lon="13.84299789254957"><ele>847.0</ele><time>2026-04-18T09:45:12.999Z</time></trkpt><trkpt lat="42.30466491671811" lon="13.842724615986464"><ele>849.6666666666666</ele><time>2026-04-18T09:45:13.999Z</time></trkpt><trkpt lat="42.3046303034788" lon="13.84245138489916"><ele>852.3333333333333</ele><time>2026-04-18T09:45:14.999Z</time></trkpt><trkpt lat="42.30460164062818" lon="13.842244293999231"><ele>855.0</ele><time>2026-04-18T09:45:15.999Z</time></trkpt><trkpt lat="42.30457403497002" lon="13.842082226411211"><ele>855.0</ele><time>2026-04-18T09:45:16.999Z</time></trkpt><trkpt lat="42.3045601265907" lon="13.841919752160285"><ele>855.0</ele><time>2026-04-18T09:45:18Z</time></trkpt><trkpt lat="42.30456913234781" lon="13.841776234352128"><ele>855.0</ele><time>2026-04-18T09:45:19Z</time></trkpt><trkpt lat="42.304615009239484" lon="13.841652566435359"><ele>855.0</ele><time>2026-04-18T09:45:20Z</time></trkpt><trkpt lat="42.30469887897553" lon="13.841564377042394"><ele>855.0</ele><time>2026-04-18T09:45:21Z</time></trkpt><trkpt lat="42.304811838699" lon="13.841520095236929"><ele>861.0</ele><time>2026-04-18T09:45:22Z</time></trkpt><trkpt lat="42.30492454732546" lon="13.841489105496446"><ele>867.0</ele><time>2026-04-18T09:45:23Z</time></trkpt><trkpt lat="42.30498829953246" lon="13.841415780035602"><ele>873.0</ele><time>2026-04-18T09:45:24Z</time></trkpt><trkpt lat="42.30500808282891" lon="13.841278912656149"><ele>879.0</ele><time>2026-04-18T09:45:25Z</time></trkpt><trkpt lat="42.30498596465133" lon="13.841142112938655"><ele>885.0</ele><time>2026-04-18T09:45:26Z</time></trkpt><trkpt lat="42.30494768420339" lon="13.841029757891118"><ele>886.0</ele><time>2026-04-18T09:45:27Z</time></trkpt><trkpt lat="42.3049008465907" lon="13.840915549665548"><ele>887.0</ele><time>2026-04-18T09:45:27.999Z</time></trkpt><trkpt lat="42.30484197850678" lon="13.840810036271442"><ele>888.0</ele><time>2026-04-18T09:45:28.999Z</time></trkpt><trkpt lat="42.30475140852581" lon="13.840716654884858"><ele>889.0</ele><time>2026-04-18T09:45:29.999Z</time></trkpt><trkpt lat="42.30465397399198" lon="13.840628405191621"><ele>890.0</ele><time>2026-04-18T09:45:30.999Z</time></trkpt><trkpt lat="42.3045421827627" lon="13.840533763816289"><ele>889.5</ele><time>2026-04-18T09:45:31.999Z</time></trkpt><trkpt lat="42.30441137627763" lon="13.84040992059123"><ele>889.0</ele><time>2026-04-18T09:45:32.999Z</time></trkpt><trkpt lat="42.304302032066204" lon="13.840296999253207"><ele>888.5</ele><time>2026-04-18T09:45:33.999Z</time></trkpt><trkpt lat="42.30420370348421" lon="13.840197629788763"><ele>888.0</ele><time>2026-04-18T09:45:34.999Z</time></trkpt><trkpt lat="42.30410315799558" lon="13.840101302629458"><ele>888.0</ele><time>2026-04-18T09:45:35.999Z</time></trkpt><trkpt lat="42.30400217334363" lon="13.83999852604436"><ele>888.0</ele><time>2026-04-18T09:45:36.999Z</time></trkpt><trkpt lat="42.30391436695808" lon="13.839868808603187"><ele>888.0</ele><time>2026-04-18T09:45:37.999Z</time></trkpt><trkpt lat="42.303852481049674" lon="13.839718937135158"><ele>888.0</ele><time>2026-04-18T09:45:38.999Z</time></trkpt><trkpt lat="42.30380697075146" lon="13.839571267224489"><ele>889.8</ele><time>2026-04-18T09:45:39.999Z</time></trkpt><trkpt lat="42.30377764707558" lon="13.83943603207851"><ele>891.5999999999999</ele><time>2026-04-18T09:45:40.999Z</time></trkpt><trkpt lat="42.3037397331418" lon="13.839326899930901"><ele>893.4000000000001</ele><time>2026-04-18T09:45:41.999Z</time></trkpt><trkpt lat="42.303665426517654" lon="13.83926555843247"><ele>895.2</ele><time>2026-04-18T09:45:42.999Z</time></trkpt><trkpt lat="42.30356768307657" lon="13.83926011835151"><ele>897.0</ele><time>2026-04-18T09:45:43.999Z</time></trkpt><trkpt lat="42.30346311016324" lon="13.839316133047085"><ele>892.0</ele><time>2026-04-18T09:45:44.999Z</time></trkpt><trkpt lat="42.30337779329291" lon="13.839379104781766"><ele>887.0</ele><time>2026-04-18T09:45:45.999Z</time></trkpt><trkpt lat="42.30329662488975" lon="13.83941723435243"><ele>882.0</ele><time>2026-04-18T09:45:46.999Z</time></trkpt><trkpt lat="42.303207645309605" lon="13.839446056879572"><ele>877.0</ele><time>2026-04-18T09:45:47.999Z</time></trkpt><trkpt lat="42.30310698195745" lon="13.839468928721347"><ele>872.0</ele><time>2026-04-18T09:45:48.999Z</time></trkpt><trkpt lat="42.3030000332801" lon="13.839444316477845"><ele>870.0</ele><time>2026-04-18T09:45:49.999Z</time></trkpt><trkpt lat="42.30290742890882" lon="13.839355498639987"><ele>868.0</ele><time>2026-04-18T09:45:50.999Z</time></trkpt><trkpt lat="42.302843889701464" lon="13.839233088690214"><ele>866.0</ele><time>2026-04-18T09:45:51.999Z</time></trkpt><trkpt lat="42.30280521056152" lon="13.839095396514523"><ele>864.0</ele><time>2026-04-18T09:45:52.999Z</time></trkpt><trkpt lat="42.30276466540165" lon="13.838960673576288"><ele>862.0</ele><time>2026-04-18T09:45:53.999Z</time></trkpt><trkpt lat="42.302722095877336" lon="13.838838763588946"><ele>866.6</ele><time>2026-04-18T09:45:54.999Z</time></trkpt><trkpt lat="42.30267265427074" lon="13.838713094975697"><ele>871.2</ele><time>2026-04-18T09:45:55.999Z</time></trkpt><trkpt lat="42.302599757984396" lon="13.83862106045585"><ele>875.8</ele><time>2026-04-18T09:45:56.999Z</time></trkpt><trkpt lat="42.30250331516015" lon="13.838578932047552"><ele>880.4</ele><time>2026-04-18T09:45:57.999Z</time></trkpt><trkpt lat="42.30239294485512" lon="13.838609147018259"><ele>885.0</ele><time>2026-04-18T09:45:58.999Z</time></trkpt><trkpt lat="42.30229217132581" lon="13.838687637940044"><ele>886.5</ele><time>2026-04-18T09:45:59.999Z</time></trkpt><trkpt lat="42.302193845574266" lon="13.838768194014348"><ele>888.0</ele><time>2026-04-18T09:46:00.999Z</time></trkpt><trkpt lat="42.30207916198983" lon="13.83883144665825"><ele>889.5</ele><time>2026-04-18T09:46:01.999Z</time></trkpt><trkpt lat="42.30195192725414" lon="13.838868452932441"><ele>891.0</ele><time>2026-04-18T09:46:02.999Z</time></trkpt><trkpt lat="42.30182447520872" lon="13.838897956059915"><ele>891.0</ele><time>2026-04-18T09:46:03.999Z</time></trkpt><trkpt lat="42.301696590208714" lon="13.8389142224358"><ele>891.0</ele><time>2026-04-18T09:46:04.999Z</time></trkpt><trkpt lat="42.30157294010371" lon="13.838938929257152"><ele>891.0</ele><time>2026-04-18T09:46:05.999Z</time></trkpt><trkpt lat="42.301444919492894" lon="13.83890631965474"><ele>891.0</ele><time>2026-04-18T09:46:06.999Z</time></trkpt><trkpt lat="42.30131384369368" lon="13.83887521495027"><ele>891.6666666666667</ele><time>2026-04-18T09:46:07.999Z</time></trkpt><trkpt lat="42.3011762505988" lon="13.838828604296594"><ele>892.3333333333334</ele><time>2026-04-18T09:46:08.999Z</time></trkpt><trkpt lat="42.30101232115906" lon="13.838798356182105"><ele>893.0</ele><time>2026-04-18T09:46:09.999Z</time></trkpt><trkpt lat="42.30085766251182" lon="13.838720631915008"><ele>893.0</ele><time>2026-04-18T09:46:10.999Z</time></trkpt><trkpt lat="42.300720403849674" lon="13.838641365881445"><ele>893.0</ele><time>2026-04-18T09:46:11.999Z</time></trkpt><trkpt lat="42.30060104911172" lon="13.838593201486804"><ele>893.0</ele><time>2026-04-18T09:46:12.999Z</time></trkpt><trkpt lat="42.30048541457002" lon="13.838583996806728"><ele>893.0</ele><time>2026-04-18T09:46:13.999Z</time></trkpt><trkpt lat="42.30039717575863" lon="13.838653070187325"><ele>896.5</ele><time>2026-04-18T09:46:14.999Z</time></trkpt><trkpt lat="42.30029520463386" lon="13.838824063721217"><ele>900.0</ele><time>2026-04-18T09:46:15.999Z</time></trkpt><trkpt lat="42.30023398594128" lon="13.83897471718371"><ele>903.5</ele><time>2026-04-18T09:46:16.999Z</time></trkpt><trkpt lat="42.30017848639939" lon="13.839132422863415"><ele>907.0</ele><time>2026-04-18T09:46:17.999Z</time></trkpt><trkpt lat="42.3001159915689" lon="13.839290609444499"><ele>905.5</ele><time>2026-04-18T09:46:18.999Z</time></trkpt><trkpt lat="42.300034699086986" lon="13.839447430111267"><ele>904.0</ele><time>2026-04-18T09:46:19.999Z</time></trkpt><trkpt lat="42.29993975060798" lon="13.839579087627852"><ele>902.5</ele><time>2026-04-18T09:46:20.999Z</time></trkpt><trkpt lat="42.29983423814282" lon="13.83968321610655"><ele>901.0</ele><time>2026-04-18T09:46:21.999Z</time></trkpt><trkpt lat="42.29971628469223" lon="13.839762661270917"><ele>901.0</ele><time>2026-04-18T09:46:22.999Z</time></trkpt><trkpt lat="42.299587499940074" lon="13.839833204571814"><ele>901.0</ele><time>2026-04-18T09:46:23.999Z</time></trkpt><trkpt lat="42.299448354476866" lon="13.839894086334832"><ele>901.0</ele><time>2026-04-18T09:46:24.999Z</time></trkpt><trkpt lat="42.29930888327153" lon="13.83994970795859"><ele>901.0</ele><time>2026-04-18T09:46:25.999Z</time></trkpt><trkpt lat="42.29917782221895" lon="13.840008707150268"><ele>901.0</ele><time>2026-04-18T09:46:26.999Z</time></trkpt><trkpt lat="42.29906375950009" lon="13.84009146512248"><ele>901.0</ele><time>2026-04-18T09:46:27.999Z</time></trkpt><trkpt lat="42.29896914905229" lon="13.840193786812339"><ele>901.0</ele><time>2026-04-18T09:46:28.999Z</time></trkpt><trkpt lat="42.298890199243665" lon="13.840311154110138"><ele>901.0</ele><time>2026-04-18T09:46:29.999Z</time></trkpt><trkpt lat="42.29881915161903" lon="13.840437409200975"><ele>897.75</ele><time>2026-04-18T09:46:30.999Z</time></trkpt><trkpt lat="42.29873889960659" lon="13.84054334402675"><ele>894.5</ele><time>2026-04-18T09:46:31.999Z</time></trkpt><trkpt lat="42.29863558112343" lon="13.840601403059843"><ele>891.25</ele><time>2026-04-18T09:46:32.999Z</time></trkpt><trkpt lat="42.298516773235555" lon="13.840587598647186"><ele>888.0</ele><time>2026-04-18T09:46:33.999Z</time></trkpt><trkpt lat="42.298405001624154" lon="13.840518222344762"><ele>888.0</ele><time>2026-04-18T09:46:34.999Z</time></trkpt><trkpt lat="42.298310660211655" lon="13.840413935951823"><ele>888.0</ele><time>2026-04-18T09:46:35.999Z</time></trkpt><trkpt lat="42.298229341885" lon="13.840298036187653"><ele>888.0</ele><time>2026-04-18T09:46:36.999Z</time></trkpt><trkpt lat="42.298143510586584" lon="13.840196139396506"><ele>888.0</ele><time>2026-04-18T09:46:37.999Z</time></trkpt><trkpt lat="42.29805351984321" lon="13.840101797774166"><ele>887.25</ele><time>2026-04-18T09:46:38.999Z</time></trkpt><trkpt lat="42.29796472954541" lon="13.840005922862316"><ele>886.5</ele><time>2026-04-18T09:46:39.999Z</time></trkpt><trkpt lat="42.29787361249067" lon="13.839902843640195"><ele>885.75</ele><time>2026-04-18T09:46:40.999Z</time></trkpt><trkpt lat="42.29778197975693" lon="13.83979810526687"><ele>885.0</ele><time>2026-04-18T09:46:41.999Z</time></trkpt><trkpt lat="42.29768508444527" lon="13.839693900603287"><ele>885.0</ele><time>2026-04-18T09:46:42.999Z</time></trkpt><trkpt lat="42.29756793618159" lon="13.839606199684992"><ele>885.0</ele><time>2026-04-18T09:46:43.999Z</time></trkpt><trkpt lat="42.29743402939111" lon="13.839562890530265"><ele>885.0</ele><time>2026-04-18T09:46:44.999Z</time></trkpt><trkpt lat="42.29728884382583" lon="13.839570466995813"><ele>885.0</ele><time>2026-04-18T09:46:45.999Z</time></trkpt><trkpt lat="42.297156321033704" lon="13.839602496853091"><ele>882.0</ele><time>2026-04-18T09:46:46.999Z</time></trkpt><trkpt lat="42.29704424604827" lon="13.83962968791859"><ele>879.0</ele><time>2026-04-18T09:46:47.998Z</time></trkpt><trkpt lat="42.296944162956464" lon="13.83962990372125"><ele>876.0</ele><time>2026-04-18T09:46:48.998Z</time></trkpt><trkpt lat="42.29685345546562" lon="13.839613437744163"><ele>873.0</ele><time>2026-04-18T09:46:49.998Z</time></trkpt><trkpt lat="42.29676603426001" lon="13.839570727038376"><ele>870.0</ele><time>2026-04-18T09:46:50.998Z</time></trkpt><trkpt lat="42.296693317029835" lon="13.839501541267536"><ele>870.0</ele><time>2026-04-18T09:46:51.998Z</time></trkpt><trkpt lat="42.29662956065089" lon="13.839419776671036"><ele>870.0</ele><time>2026-04-18T09:46:52.998Z</time></trkpt><trkpt lat="42.29657392450288" lon="13.839331486241509"><ele>870.0</ele><time>2026-04-18T09:46:53.998Z</time></trkpt><trkpt lat="42.29651804591248" lon="13.839247822241562"><ele>870.0</ele><time>2026-04-18T09:46:54.998Z</time></trkpt><trkpt lat="42.29646368301551" lon="13.839164175692169"><ele>870.0</ele><time>2026-04-18T09:46:55.998Z</time></trkpt><trkpt lat="42.296414793745434" lon="13.839083439933404"><ele>870.0</ele><time>2026-04-18T09:46:56.998Z</time></trkpt><trkpt lat="42.29636591195697" lon="13.839009314357904"><ele>872.0</ele><time>2026-04-18T09:46:57.998Z</time></trkpt><trkpt lat="42.296315307930186" lon="13.83893153646366"><ele>874.0</ele><time>2026-04-18T09:46:58.998Z</time></trkpt><trkpt lat="42.29626311175253" lon="13.838848664833673"><ele>876.0</ele><time>2026-04-18T09:46:59.998Z</time></trkpt><trkpt lat="42.29620603271383" lon="13.838762708626547"><ele>878.0</ele><time>2026-04-18T09:47:00.998Z</time></trkpt><trkpt lat="42.296150652163576" lon="13.838683755714243"><ele>880.0</ele><time>2026-04-18T09:47:01.998Z</time></trkpt><trkpt lat="42.29610185813845" lon="13.838614995376933"><ele>882.0</ele><time>2026-04-18T09:47:02.998Z</time></trkpt><trkpt lat="42.29605919782494" lon="13.838551440338028"><ele>882.0</ele><time>2026-04-18T09:47:03.998Z</time></trkpt><trkpt lat="42.29600280098698" lon="13.838497778499775"><ele>882.0</ele><time>2026-04-18T09:47:04.998Z</time></trkpt><trkpt lat="42.29593533855587" lon="13.83845665897291"><ele>882.0</ele><time>2026-04-18T09:47:05.998Z</time></trkpt><trkpt lat="42.29586508958088" lon="13.838423868214514"><ele>882.0</ele><time>2026-04-18T09:47:06.998Z</time></trkpt><trkpt lat="42.29578553314309" lon="13.838410095427964"><ele>882.0</ele><time>2026-04-18T09:47:07.998Z</time></trkpt><trkpt lat="42.29569456480832" lon="13.838389292788571"><ele>882.0</ele><time>2026-04-18T09:47:08.998Z</time></trkpt><trkpt lat="42.295605582034895" lon="13.83844371264899"><ele>887.4000000000001</ele><time>2026-04-18T09:47:09.998Z</time></trkpt><trkpt lat="42.29551854617655" lon="13.838511618124839"><ele>892.8000000000001</ele><time>2026-04-18T09:47:10.998Z</time></trkpt><trkpt lat="42.29544355583695" lon="13.838608262253583"><ele>898.2</ele><time>2026-04-18T09:47:11.998Z</time></trkpt><trkpt lat="42.29538796092769" lon="13.838724154153077"><ele>903.6</ele><time>2026-04-18T09:47:12.998Z</time></trkpt><trkpt lat="42.29535917151911" lon="13.838846989415037"><ele>909.0</ele><time>2026-04-18T09:47:13.998Z</time></trkpt><trkpt lat="42.29533500390847" lon="13.838995253333696"><ele>909.0</ele><time>2026-04-18T09:47:14.998Z</time></trkpt><trkpt lat="42.295327244403715" lon="13.839146081047934"><ele>909.0000000000001</ele><time>2026-04-18T09:47:15.998Z</time></trkpt><trkpt lat="42.29532453908312" lon="13.839293468423614"><ele>909.0000000000001</ele><time>2026-04-18T09:47:16.999Z</time></trkpt><trkpt lat="42.295316891461056" lon="13.839439375768123"><ele>909.0</ele><time>2026-04-18T09:47:17.999Z</time></trkpt><trkpt lat="42.29531532653506" lon="13.839578552151314"><ele>909.0</ele><time>2026-04-18T09:47:18.999Z</time></trkpt><trkpt lat="42.29531571081696" lon="13.839704858751306"><ele>905.25</ele><time>2026-04-18T09:47:19.999Z</time></trkpt><trkpt lat="42.29529227169944" lon="13.839837057260402"><ele>901.5</ele><time>2026-04-18T09:47:20.999Z</time></trkpt><trkpt lat="42.29524443081465" lon="13.839966840732847"><ele>897.75</ele><time>2026-04-18T09:47:21.999Z</time></trkpt><trkpt lat="42.29515490652942" lon="13.840074695315632"><ele>894.0</ele><time>2026-04-18T09:47:22.999Z</time></trkpt><trkpt lat="42.295033492567974" lon="13.840109115624797"><ele>894.0</ele><time>2026-04-18T09:47:23.999Z</time></trkpt><trkpt lat="42.29493593862044" lon="13.840108207035053"><ele>894.0000000000001</ele><time>2026-04-18T09:47:24.999Z</time></trkpt><trkpt lat="42.29485173982457" lon="13.840077365972386"><ele>894.0000000000001</ele><time>2026-04-18T09:47:25.999Z</time></trkpt><trkpt lat="42.294758641723085" lon="13.84002252854572"><ele>894.0</ele><time>2026-04-18T09:47:27Z</time></trkpt><trkpt lat="42.29466417942376" lon="13.83995731728019"><ele>894.0</ele><time>2026-04-18T09:47:28Z</time></trkpt><trkpt lat="42.294561660835555" lon="13.839887578981282"><ele>893.25</ele><time>2026-04-18T09:47:29Z</time></trkpt><trkpt lat="42.294456977117484" lon="13.839816619153341"><ele>892.5</ele><time>2026-04-18T09:47:30Z</time></trkpt><trkpt lat="42.294347066841965" lon="13.839742116124368"><ele>891.75</ele><time>2026-04-18T09:47:31Z</time></trkpt><trkpt lat="42.29423032528654" lon="13.839704455293182"><ele>891.0</ele><time>2026-04-18T09:47:32Z</time></trkpt><trkpt lat="42.29412830835119" lon="13.839633291408374"><ele>891.0</ele><time>2026-04-18T09:47:33Z</time></trkpt><trkpt lat="42.29401300503712" lon="13.839561222119064"><ele>891.0</ele><time>2026-04-18T09:47:33.999Z</time></trkpt><trkpt lat="42.29390291160875" lon="13.839495339276674"><ele>891.0</ele><time>2026-04-18T09:47:34.999Z</time></trkpt><trkpt lat="42.29380987250835" lon="13.83942541580758"><ele>891.0</ele><time>2026-04-18T09:47:35.999Z</time></trkpt><trkpt lat="42.29372073874822" lon="13.83936280228668"><ele>891.8</ele><time>2026-04-18T09:47:36.999Z</time></trkpt><trkpt lat="42.293631654607964" lon="13.839308352804846"><ele>892.5999999999999</ele><time>2026-04-18T09:47:37.999Z</time></trkpt><trkpt lat="42.293542092336146" lon="13.839254233434126"><ele>893.4</ele><time>2026-04-18T09:47:38.999Z</time></trkpt><trkpt lat="42.29346125444081" lon="13.83919894143017"><ele>894.2</ele><time>2026-04-18T09:47:39.999Z</time></trkpt><trkpt lat="42.293378397745265" lon="13.839149534155835"><ele>895.0</ele><time>2026-04-18T09:47:41.999Z</time></trkpt><trkpt lat="42.293312494305106" lon="13.83910506048199"><ele>895.0</ele><time>2026-04-18T09:47:44.999Z</time></trkpt><trkpt lat="42.293403960676784" lon="13.839223636352289"><ele>895.0</ele><time>2026-04-18T09:47:51.999Z</time></trkpt><trkpt lat="42.293496842472315" lon="13.839274981060525"><ele>895.0</ele><time>2026-04-18T09:47:52.999Z</time></trkpt><trkpt lat="42.29359435266248" lon="13.83932680190438"><ele>895.0</ele><time>2026-04-18T09:47:53.999Z</time></trkpt><trkpt lat="42.29368905590559" lon="13.839387475311415"><ele>895.0</ele><time>2026-04-18T09:47:54.999Z</time></trkpt><trkpt lat="42.29378344091775" lon="13.839451017059128"><ele>894.2</ele><time>2026-04-18T09:47:55.999Z</time></trkpt><trkpt lat="42.293876850583395" lon="13.839508854401895"><ele>893.4</ele><time>2026-04-18T09:47:56.999Z</time></trkpt><trkpt lat="42.29396366291161" lon="13.839567708510037"><ele>892.5999999999999</ele><time>2026-04-18T09:47:57.999Z</time></trkpt><trkpt lat="42.294047142484054" lon="13.839624950110698"><ele>891.8</ele><time>2026-04-18T09:47:58.999Z</time></trkpt><trkpt lat="42.294125824737215" lon="13.839684526580658"><ele>891.0</ele><time>2026-04-18T09:47:59.999Z</time></trkpt><trkpt lat="42.29421175674705" lon="13.839731753282079"><ele>891.0</ele><time>2026-04-18T09:48:00.999Z</time></trkpt><trkpt lat="42.29429299144566" lon="13.839795218858276"><ele>890.9999999999999</ele><time>2026-04-18T09:48:01.999Z</time></trkpt><trkpt lat="42.294378196836455" lon="13.839858435455811"><ele>890.9999999999999</ele><time>2026-04-18T09:48:02.999Z</time></trkpt><trkpt lat="42.29447886636788" lon="13.839928776331313"><ele>891.0</ele><time>2026-04-18T09:48:03.999Z</time></trkpt><trkpt lat="42.29457902408233" lon="13.839988379727034"><ele>891.0</ele><time>2026-04-18T09:48:04.999Z</time></trkpt><trkpt lat="42.29468361668373" lon="13.840050209488702"><ele>891.5999999999999</ele><time>2026-04-18T09:48:05.999Z</time></trkpt><trkpt lat="42.294769170411094" lon="13.840100786365868"><ele>892.1999999999999</ele><time>2026-04-18T09:48:06.999Z</time></trkpt><trkpt lat="42.29482873343593" lon="13.840129930499415"><ele>892.8000000000001</ele><time>2026-04-18T09:48:07.999Z</time></trkpt><trkpt lat="42.294736731697526" lon="13.840346472526008"><ele>893.4000000000001</ele><time>2026-04-18T09:48:12.999Z</time></trkpt><trkpt lat="42.294729626939784" lon="13.84048055628023"><ele>894.0</ele><time>2026-04-18T09:48:15.999Z</time></trkpt><trkpt lat="42.294759221226954" lon="13.840582367827558"><ele>889.8000000000001</ele><time>2026-04-18T09:48:17.999Z</time></trkpt><trkpt lat="42.29483385924508" lon="13.84068248515588"><ele>885.6000000000001</ele><time>2026-04-18T09:48:19.999Z</time></trkpt><trkpt lat="42.29494030360923" lon="13.840788920260797"><ele>881.4</ele><time>2026-04-18T09:48:21.999Z</time></trkpt><trkpt lat="42.29501155865715" lon="13.840870132481763"><ele>877.2</ele><time>2026-04-18T09:48:23.999Z</time></trkpt><trkpt lat="42.295076446853564" lon="13.840960240446838"><ele>873.0</ele><time>2026-04-18T09:48:25.999Z</time></trkpt><trkpt lat="42.29509262371781" lon="13.841052972517025"><ele>869.4</ele><time>2026-04-18T09:48:27.999Z</time></trkpt><trkpt lat="42.29510893970506" lon="13.841174831569742"><ele>865.8</ele><time>2026-04-18T09:48:30.999Z</time></trkpt><trkpt lat="42.29512148904039" lon="13.841291106606455"><ele>862.2</ele><time>2026-04-18T09:48:33.999Z</time></trkpt><trkpt lat="42.2951295823626" lon="13.841494936121927"><ele>858.6</ele><time>2026-04-18T09:48:34.999Z</time></trkpt><trkpt lat="42.29507303782725" lon="13.84159476878403"><ele>855.0</ele><time>2026-04-18T09:48:36.999Z</time></trkpt><trkpt lat="42.295000416618535" lon="13.841685831534706"><ele>855.0</ele><time>2026-04-18T09:48:38.999Z</time></trkpt><trkpt lat="42.294913464851575" lon="13.841760319068277"><ele>855.0</ele><time>2026-04-18T09:48:40.999Z</time></trkpt><trkpt lat="42.29484905073115" lon="13.841809793706256"><ele>855.0</ele><time>2026-04-18T09:48:42.999Z</time></trkpt><trkpt lat="42.29482855102105" lon="13.841916255694287"><ele>855.0</ele><time>2026-04-18T09:48:48.999Z</time></trkpt><trkpt lat="42.294892870535584" lon="13.842047284707906"><ele>855.0</ele><time>2026-04-18T09:48:50.999Z</time></trkpt><trkpt lat="42.294932605134726" lon="13.842115432014257"><ele>855.0</ele><time>2026-04-18T09:48:51.999Z</time></trkpt><trkpt lat="42.2948756173457" lon="13.842160475942867"><ele>852.1666666666666</ele><time>2026-04-18T09:48:55.999Z</time></trkpt><trkpt lat="42.29488008429637" lon="13.84224921133855"><ele>849.3333333333333</ele><time>2026-04-18T09:48:57.998Z</time></trkpt><trkpt lat="42.294900984825674" lon="13.84235844848163"><ele>846.5</ele><time>2026-04-18T09:49:02.998Z</time></trkpt><trkpt lat="42.29492245460145" lon="13.84245295589406"><ele>843.6666666666666</ele><time>2026-04-18T09:49:04.998Z</time></trkpt><trkpt lat="42.29494464942727" lon="13.842551082922986"><ele>840.8333333333333</ele><time>2026-04-18T09:49:06.998Z</time></trkpt><trkpt lat="42.29497014020686" lon="13.842632122225233"><ele>838.0</ele><time>2026-04-18T09:49:08.998Z</time></trkpt><trkpt lat="42.29499642544849" lon="13.842752155031476"><ele>834.7142857142857</ele><time>2026-04-18T09:49:11.998Z</time></trkpt><trkpt lat="42.29499077593647" lon="13.842863872545658"><ele>831.4285714285714</ele><time>2026-04-18T09:49:13.998Z</time></trkpt><trkpt lat="42.29499219765265" lon="13.842955837959561"><ele>828.1428571428571</ele><time>2026-04-18T09:49:15.998Z</time></trkpt><trkpt lat="42.295042588753994" lon="13.843027120594009"><ele>824.8571428571429</ele><time>2026-04-18T09:49:17.998Z</time></trkpt><trkpt lat="42.295093226014856" lon="13.84310395151594"><ele>821.5714285714286</ele><time>2026-04-18T09:49:19.998Z</time></trkpt><trkpt lat="42.29512915405959" lon="13.843176758246875"><ele>818.2857142857142</ele><time>2026-04-18T09:49:21.998Z</time></trkpt><trkpt lat="42.295163977559234" lon="13.843270706611808"><ele>815.0</ele><time>2026-04-18T09:49:25Z</time></trkpt><trkpt lat="42.295202187694464" lon="13.843360139920634"><ele>815.0000000000001</ele><time>2026-04-18T09:49:28Z</time></trkpt><trkpt lat="42.29523996444127" lon="13.843459947338216"><ele>815.0</ele><time>2026-04-18T09:49:31Z</time></trkpt><trkpt lat="42.295255653253115" lon="13.843544928242807"><ele>815.0</ele><time>2026-04-18T09:49:35Z</time></trkpt><trkpt lat="42.295212284134685" lon="13.843624828759264"><ele>815.0</ele><time>2026-04-18T09:49:49.999Z</time></trkpt><trkpt lat="42.29512917124514" lon="13.843614281492457"><ele>815.0000000000001</ele><time>2026-04-18T09:49:53.999Z</time></trkpt><trkpt lat="42.29504656901734" lon="13.843612754813472"><ele>815.0</ele><time>2026-04-18T09:49:55.999Z</time></trkpt><trkpt lat="42.294969520930735" lon="13.843629942388585"><ele>810.6666666666667</ele><time>2026-04-18T09:49:58.999Z</time></trkpt><trkpt lat="42.294897311687265" lon="13.843695147538154"><ele>806.3333333333334</ele><time>2026-04-18T09:50:05.999Z</time></trkpt><trkpt lat="42.29486149402146" lon="13.843770303037545"><ele>802.0</ele><time>2026-04-18T09:50:08.999Z</time></trkpt><trkpt lat="42.29488868504844" lon="13.843889861708103"><ele>797.6666666666667</ele><time>2026-04-18T09:50:12.999Z</time></trkpt><trkpt lat="42.294928119021705" lon="13.843968778267055"><ele>793.3333333333334</ele><time>2026-04-18T09:50:14.999Z</time></trkpt><trkpt lat="42.29495216077733" lon="13.84405599572547"><ele>789.0</ele><time>2026-04-18T09:50:19.999Z</time></trkpt><trkpt lat="42.29499544019822" lon="13.844145048960907"><ele>789.0</ele><time>2026-04-18T09:50:22.999Z</time></trkpt><trkpt lat="42.2950294185381" lon="13.84425246098696"><ele>789.0</ele><time>2026-04-18T09:50:25.999Z</time></trkpt><trkpt lat="42.29504532850616" lon="13.844337811241477"><ele>789.0</ele><time>2026-04-18T09:50:27.999Z</time></trkpt><trkpt lat="42.29507370688808" lon="13.844451844854735"><ele>789.0</ele><time>2026-04-18T09:50:30.999Z</time></trkpt><trkpt lat="42.2951234442745" lon="13.84462535415824"><ele>789.0</ele><time>2026-04-18T09:50:32.999Z</time></trkpt><trkpt lat="42.29514983355377" lon="13.844721887470179"><ele>786.3333333333334</ele><time>2026-04-18T09:50:35.999Z</time></trkpt><trkpt lat="42.29515434260228" lon="13.844826887387383"><ele>783.6666666666667</ele><time>2026-04-18T09:50:38.999Z</time></trkpt><trkpt lat="42.295125544264636" lon="13.844930775231052"><ele>781.0</ele><time>2026-04-18T09:50:42.999Z</time></trkpt><trkpt lat="42.29504190045622" lon="13.844932698789416"><ele>778.3333333333334</ele><time>2026-04-18T09:50:49.999Z</time></trkpt><trkpt lat="42.294950335124724" lon="13.844858225469919"><ele>775.6666666666667</ele><time>2026-04-18T09:50:51.999Z</time></trkpt><trkpt lat="42.29489283291096" lon="13.844794923127038"><ele>773.0</ele><time>2026-04-18T09:50:53.999Z</time></trkpt><trkpt lat="42.29484805873006" lon="13.844729561448746"><ele>773.0</ele><time>2026-04-18T09:50:54.999Z</time></trkpt><trkpt lat="42.294791910292595" lon="13.844598679573659"><ele>773.0</ele><time>2026-04-18T09:50:56.999Z</time></trkpt><trkpt lat="42.29473609127866" lon="13.844556581794654"><ele>773.0</ele><time>2026-04-18T09:50:57.999Z</time></trkpt><trkpt lat="42.29461272911211" lon="13.844470330973328"><ele>773.0</ele><time>2026-04-18T09:50:59.999Z</time></trkpt><trkpt lat="42.29454097234049" lon="13.844410426871628"><ele>773.0</ele><time>2026-04-18T09:51:00.999Z</time></trkpt><trkpt lat="42.29447446095551" lon="13.844322695127346"><ele>772.2</ele><time>2026-04-18T09:51:01.999Z</time></trkpt><trkpt lat="42.29443297182036" lon="13.844255723081389"><ele>771.4</ele><time>2026-04-18T09:51:02.999Z</time></trkpt><trkpt lat="42.29440707608587" lon="13.844112770185829"><ele>770.6</ele><time>2026-04-18T09:51:04.998Z</time></trkpt><trkpt lat="42.294389147698936" lon="13.844009520965756"><ele>769.8000000000001</ele><time>2026-04-18T09:51:05.998Z</time></trkpt><trkpt lat="42.294363979807216" lon="13.843869545864983"><ele>769.0</ele><time>2026-04-18T09:51:06.998Z</time></trkpt><trkpt lat="42.29433717190894" lon="13.843749128868374"><ele>769.0</ele><time>2026-04-18T09:51:07.998Z</time></trkpt><trkpt lat="42.29430565308352" lon="13.843662143226275"><ele>769.0</ele><time>2026-04-18T09:51:08.998Z</time></trkpt><trkpt lat="42.294265223109036" lon="13.843586711075213"><ele>769.0</ele><time>2026-04-18T09:51:09.998Z</time></trkpt><trkpt lat="42.29415505208473" lon="13.843487385612582"><ele>769.0</ele><time>2026-04-18T09:51:11.998Z</time></trkpt><trkpt lat="42.2940857206073" lon="13.843451635927272"><ele>769.0</ele><time>2026-04-18T09:51:12.998Z</time></trkpt><trkpt lat="42.293999121963125" lon="13.84335747468893"><ele>769.8000000000001</ele><time>2026-04-18T09:51:14.998Z</time></trkpt><trkpt lat="42.293942353044" lon="13.843190404144659"><ele>770.6</ele><time>2026-04-18T09:51:16.998Z</time></trkpt><trkpt lat="42.293921893343615" lon="13.843098074611035"><ele>771.4</ele><time>2026-04-18T09:51:17.998Z</time></trkpt><trkpt lat="42.293854452712" lon="13.843014687300018"><ele>772.2</ele><time>2026-04-18T09:51:19.998Z</time></trkpt><trkpt lat="42.29374961449702" lon="13.843080921039414"><ele>773.0</ele><time>2026-04-18T09:51:21.998Z</time></trkpt><trkpt lat="42.29364911769709" lon="13.843082602865092"><ele>773.0000000000001</ele><time>2026-04-18T09:51:23.998Z</time></trkpt><trkpt lat="42.29353401249356" lon="13.843096853185335"><ele>773.0</ele><time>2026-04-18T09:51:25.998Z</time></trkpt><trkpt lat="42.29347194925438" lon="13.843113912470193"><ele>773.0</ele><time>2026-04-18T09:51:26.998Z</time></trkpt><trkpt lat="42.29340593476558" lon="13.843124672336993"><ele>773.0</ele><time>2026-04-18T09:51:27.998Z</time></trkpt><trkpt lat="42.293344647132976" lon="13.843145032446252"><ele>773.0000000000001</ele><time>2026-04-18T09:51:29Z</time></trkpt><trkpt lat="42.2932809532491" lon="13.843155854206703"><ele>773.0</ele><time>2026-04-18T09:51:30Z</time></trkpt><trkpt lat="42.29320028628874" lon="13.843129594117965"><ele>773.0</ele><time>2026-04-18T09:51:32Z</time></trkpt><trkpt lat="42.29310848542846" lon="13.843074984436658"><ele>773.0</ele><time>2026-04-18T09:51:34Z</time></trkpt><trkpt lat="42.29301566993841" lon="13.843041201495932"><ele>773.0</ele><time>2026-04-18T09:51:36Z</time></trkpt><trkpt lat="42.29294070261705" lon="13.842959924128815"><ele>773.0</ele><time>2026-04-18T09:51:38Z</time></trkpt><trkpt lat="42.292869857174054" lon="13.8428439793397"><ele>773.0</ele><time>2026-04-18T09:51:40Z</time></trkpt><trkpt lat="42.29282045581454" lon="13.842749768185431"><ele>771.8333333333334</ele><time>2026-04-18T09:51:42Z</time></trkpt><trkpt lat="42.29272434844481" lon="13.842677301171305"><ele>770.6666666666667</ele><time>2026-04-18T09:51:44Z</time></trkpt><trkpt lat="42.29265346143538" lon="13.84271053744129"><ele>769.5</ele><time>2026-04-18T09:51:46Z</time></trkpt><trkpt lat="42.29259725620972" lon="13.842824495445804"><ele>768.3333333333334</ele><time>2026-04-18T09:51:48Z</time></trkpt><trkpt lat="42.29257040991435" lon="13.842902713274155"><ele>767.1666666666667</ele><time>2026-04-18T09:51:49Z</time></trkpt><trkpt lat="42.29249324371871" lon="13.842940058239769"><ele>766.0</ele><time>2026-04-18T09:51:51Z</time></trkpt><trkpt lat="42.292425072296034" lon="13.842885000697786"><ele>766.0</ele><time>2026-04-18T09:51:53Z</time></trkpt><trkpt lat="42.29230664750105" lon="13.84278677327325"><ele>766.0</ele><time>2026-04-18T09:51:55Z</time></trkpt><trkpt lat="42.29223290177778" lon="13.842725567934785"><ele>766.0</ele><time>2026-04-18T09:51:55.999Z</time></trkpt><trkpt lat="42.2921046071119" lon="13.842668290294677"><ele>766.0</ele><time>2026-04-18T09:51:57.999Z</time></trkpt><trkpt lat="42.292029687575" lon="13.8426334771485"><ele>766.0</ele><time>2026-04-18T09:51:58.999Z</time></trkpt><trkpt lat="42.29195632157055" lon="13.842596682671898"><ele>766.5999999999999</ele><time>2026-04-18T09:51:59.999Z</time></trkpt><trkpt lat="42.29187458165572" lon="13.842556094719146"><ele>767.2</ele><time>2026-04-18T09:52:00.999Z</time></trkpt><trkpt lat="42.29178902619041" lon="13.842509178854312"><ele>767.8</ele><time>2026-04-18T09:52:01.999Z</time></trkpt><trkpt lat="42.29171839808522" lon="13.842484279243502"><ele>768.4000000000001</ele><time>2026-04-18T09:52:02.999Z</time></trkpt><trkpt lat="42.291589370458205" lon="13.842426474986166"><ele>769.0</ele><time>2026-04-18T09:52:04.999Z</time></trkpt><trkpt lat="42.291505480566464" lon="13.842383964906373"><ele>768.9999999999999</ele><time>2026-04-18T09:52:05.999Z</time></trkpt><trkpt lat="42.2914378105492" lon="13.842347845602683"><ele>769.0</ele><time>2026-04-18T09:52:06.999Z</time></trkpt><trkpt lat="42.29137316672289" lon="13.842313544759106"><ele>769.0</ele><time>2026-04-18T09:52:07.999Z</time></trkpt><trkpt lat="42.291324742400775" lon="13.842255662882023"><ele>769.0</ele><time>2026-04-18T09:52:09.999Z</time></trkpt><trkpt lat="42.29125471630164" lon="13.842382936271564"><ele>768.9999999999999</ele><time>2026-04-18T09:52:12.999Z</time></trkpt><trkpt lat="42.29120068730182" lon="13.842501657930255"><ele>769.0</ele><time>2026-04-18T09:52:13.999Z</time></trkpt><trkpt lat="42.29113211968794" lon="13.842585729759708"><ele>768.1666666666666</ele><time>2026-04-18T09:52:14.999Z</time></trkpt><trkpt lat="42.291084107242355" lon="13.842643051893312"><ele>767.3333333333333</ele><time>2026-04-18T09:52:15.999Z</time></trkpt><trkpt lat="42.29100681450195" lon="13.84259398328259"><ele>766.5</ele><time>2026-04-18T09:52:18.999Z</time></trkpt><trkpt lat="42.29091827011222" lon="13.84254991523401"><ele>765.6666666666666</ele><time>2026-04-18T09:52:20.999Z</time></trkpt><trkpt lat="42.29085306124075" lon="13.842509004386878"><ele>764.8333333333333</ele><time>2026-04-18T09:52:21.999Z</time></trkpt><trkpt lat="42.29076960274575" lon="13.842428638772343"><ele>764.0</ele><time>2026-04-18T09:52:23.999Z</time></trkpt><trkpt lat="42.29067921245344" lon="13.842310706643405"><ele>764.0</ele><time>2026-04-18T09:52:25.999Z</time></trkpt><trkpt lat="42.290614131144956" lon="13.84223717246194"><ele>764.0</ele><time>2026-04-18T09:52:26.999Z</time></trkpt><trkpt lat="42.290559815286" lon="13.84218797738777"><ele>764.0</ele><time>2026-04-18T09:52:27.999Z</time></trkpt><trkpt lat="42.290463290365416" lon="13.842170836322287"><ele>764.0</ele><time>2026-04-18T09:52:29.999Z</time></trkpt><trkpt lat="42.290351609392445" lon="13.842190113922937"><ele>764.0</ele><time>2026-04-18T09:52:31.999Z</time></trkpt><trkpt lat="42.29027628450148" lon="13.842215338480283"><ele>764.0</ele><time>2026-04-18T09:52:32.999Z</time></trkpt><trkpt lat="42.290199196225046" lon="13.842259495545814"><ele>763.3333333333333</ele><time>2026-04-18T09:52:33.999Z</time></trkpt><trkpt lat="42.29011113637116" lon="13.842365789421601"><ele>762.6666666666666</ele><time>2026-04-18T09:52:34.999Z</time></trkpt><trkpt lat="42.2900446174051" lon="13.842396191720137"><ele>762.0</ele><time>2026-04-18T09:52:35.999Z</time></trkpt><trkpt lat="42.28998718281588" lon="13.842433327577293"><ele>761.3333333333334</ele><time>2026-04-18T09:52:36.999Z</time></trkpt><trkpt lat="42.28987202422262" lon="13.842473650996766"><ele>760.6666666666667</ele><time>2026-04-18T09:52:38.999Z</time></trkpt><trkpt lat="42.28980618245312" lon="13.842477732525012"><ele>760.0</ele><time>2026-04-18T09:52:39.999Z</time></trkpt><trkpt lat="42.2897015464991" lon="13.842426591511128"><ele>759.8</ele><time>2026-04-18T09:52:41.999Z</time></trkpt><trkpt lat="42.28964038898433" lon="13.842388599072516"><ele>759.6</ele><time>2026-04-18T09:52:42.999Z</time></trkpt><trkpt lat="42.289537884265975" lon="13.842375795450225"><ele>759.4000000000001</ele><time>2026-04-18T09:52:44.999Z</time></trkpt><trkpt lat="42.28942091312221" lon="13.842378034625726"><ele>759.2</ele><time>2026-04-18T09:52:46.999Z</time></trkpt><trkpt lat="42.289285796386295" lon="13.842433295939186"><ele>759.0</ele><time>2026-04-18T09:52:48.999Z</time></trkpt><trkpt lat="42.289200146780026" lon="13.842452812205718"><ele>759.0</ele><time>2026-04-18T09:52:50.999Z</time></trkpt><trkpt lat="42.28916891519417" lon="13.842598503773823"><ele>759.0</ele><time>2026-04-18T09:52:52.999Z</time></trkpt><trkpt lat="42.289158768294925" lon="13.842700500662843"><ele>759.0</ele><time>2026-04-18T09:52:53.999Z</time></trkpt><trkpt lat="42.28909996879575" lon="13.842854697383284"><ele>759.0</ele><time>2026-04-18T09:52:55.999Z</time></trkpt><trkpt lat="42.289039345547444" lon="13.84298388749769"><ele>759.0</ele><time>2026-04-18T09:52:56.999Z</time></trkpt><trkpt lat="42.28901067425815" lon="13.843070830328054"><ele>758.2</ele><time>2026-04-18T09:52:57.999Z</time></trkpt><trkpt lat="42.28896794319855" lon="13.84313803664614"><ele>757.4000000000001</ele><time>2026-04-18T09:52:59.999Z</time></trkpt><trkpt lat="42.288859348090426" lon="13.843231009636566"><ele>756.6</ele><time>2026-04-18T09:53:01.999Z</time></trkpt><trkpt lat="42.288792469952895" lon="13.84330656785931"><ele>755.8</ele><time>2026-04-18T09:53:03.999Z</time></trkpt><trkpt lat="42.28872723694865" lon="13.843258748860135"><ele>755.0</ele><time>2026-04-18T09:53:05.999Z</time></trkpt><trkpt lat="42.288613109479385" lon="13.84320436808701"><ele>755.0</ele><time>2026-04-18T09:53:07.999Z</time></trkpt><trkpt lat="42.288528698217036" lon="13.843217661942932"><ele>755.0</ele><time>2026-04-18T09:53:09.999Z</time></trkpt><trkpt lat="42.28850407398742" lon="13.843356577708132"><ele>755.0</ele><time>2026-04-18T09:53:11.999Z</time></trkpt><trkpt lat="42.28848460608162" lon="13.843492105488481"><ele>755.0</ele><time>2026-04-18T09:53:13.999Z</time></trkpt><trkpt lat="42.288464916832446" lon="13.843584868534057"><ele>755.0</ele><time>2026-04-18T09:53:15.999Z</time></trkpt><trkpt lat="42.28838335001702" lon="13.843561205336231"><ele>755.0</ele><time>2026-04-18T09:53:19.998Z</time></trkpt><trkpt lat="42.28832902561299" lon="13.843516786887395"><ele>755.0</ele><time>2026-04-18T09:53:20.998Z</time></trkpt><trkpt lat="42.288248626588896" lon="13.843434949221427"><ele>755.0</ele><time>2026-04-18T09:53:21.998Z</time></trkpt><trkpt lat="42.28817440277837" lon="13.843317203846961"><ele>755.0</ele><time>2026-04-18T09:53:22.998Z</time></trkpt><trkpt lat="42.28813127879696" lon="13.843209357991578"><ele>755.0</ele><time>2026-04-18T09:53:23.998Z</time></trkpt><trkpt lat="42.28808784071329" lon="13.843088710791292"><ele>755.0</ele><time>2026-04-18T09:53:24.998Z</time></trkpt><trkpt lat="42.28805536962937" lon="13.842976638434472"><ele>756.8333333333333</ele><time>2026-04-18T09:53:25.998Z</time></trkpt><trkpt lat="42.288025533309224" lon="13.842900943673719"><ele>758.6666666666666</ele><time>2026-04-18T09:53:26.998Z</time></trkpt><trkpt lat="42.287987981417785" lon="13.84282036057702"><ele>760.5</ele><time>2026-04-18T09:53:27.998Z</time></trkpt><trkpt lat="42.28792590937423" lon="13.842745050809604"><ele>762.3333333333334</ele><time>2026-04-18T09:53:30.998Z</time></trkpt><trkpt lat="42.28792955091683" lon="13.842616114821073"><ele>764.1666666666667</ele><time>2026-04-18T09:53:32.998Z</time></trkpt><trkpt lat="42.28790931307428" lon="13.84251198698026"><ele>766.0</ele><time>2026-04-18T09:53:35Z</time></trkpt><trkpt lat="42.287857991698274" lon="13.842383748601042"><ele>768.5</ele><time>2026-04-18T09:53:37Z</time></trkpt><trkpt lat="42.28784145605614" lon="13.842240024983624"><ele>771.0</ele><time>2026-04-18T09:53:39Z</time></trkpt><trkpt lat="42.28777587710047" lon="13.842156641119553"><ele>773.5</ele><time>2026-04-18T09:53:41Z</time></trkpt><trkpt lat="42.28769743185493" lon="13.842107797774192"><ele>776.0</ele><time>2026-04-18T09:53:44Z</time></trkpt><trkpt lat="42.28765514145746" lon="13.842034677373562"><ele>778.4999999999999</ele><time>2026-04-18T09:53:47Z</time></trkpt><trkpt lat="42.28760768864006" lon="13.841954216962955"><ele>781.0</ele><time>2026-04-18T09:53:50Z</time></trkpt><trkpt lat="42.28751264941856" lon="13.841870684638387"><ele>780.9999999999999</ele><time>2026-04-18T09:53:54Z</time></trkpt><trkpt lat="42.287411402551236" lon="13.841815109163"><ele>781.0</ele><time>2026-04-18T09:53:56Z</time></trkpt><trkpt lat="42.287305209073665" lon="13.841863342727008"><ele>781.0</ele><time>2026-04-18T09:53:58Z</time></trkpt><trkpt lat="42.28722334933522" lon="13.84191057799586"><ele>781.0</ele><time>2026-04-18T09:53:59.999Z</time></trkpt><trkpt lat="42.287148159047945" lon="13.841911241132394"><ele>780.9999999999999</ele><time>2026-04-18T09:54:09.999Z</time></trkpt><trkpt lat="42.28708489412863" lon="13.841920530409057"><ele>781.0</ele><time>2026-04-18T09:54:10.999Z</time></trkpt><trkpt lat="42.287022249032965" lon="13.841981113857184"><ele>782.8333333333333</ele><time>2026-04-18T09:54:12.999Z</time></trkpt><trkpt lat="42.28694409645205" lon="13.841992227181148"><ele>784.6666666666666</ele><time>2026-04-18T09:54:15.999Z</time></trkpt><trkpt lat="42.28681967421681" lon="13.841912093621644"><ele>786.5</ele><time>2026-04-18T09:54:18.999Z</time></trkpt><trkpt lat="42.28675460797921" lon="13.841880134710353"><ele>788.3333333333333</ele><time>2026-04-18T09:54:19.999Z</time></trkpt><trkpt lat="42.286692193533916" lon="13.841839804466703"><ele>790.1666666666666</ele><time>2026-04-18T09:54:20.999Z</time></trkpt><trkpt lat="42.286638795129434" lon="13.841746728592604"><ele>792.0</ele><time>2026-04-18T09:54:22.999Z</time></trkpt><trkpt lat="42.28656518460349" lon="13.841783722471407"><ele>792.0</ele><time>2026-04-18T09:54:24.999Z</time></trkpt><trkpt lat="42.28651068239423" lon="13.8418264572521"><ele>792.0</ele><time>2026-04-18T09:54:27.999Z</time></trkpt><trkpt lat="42.28644994230803" lon="13.841881952431402"><ele>792.0</ele><time>2026-04-18T09:54:31.999Z</time></trkpt><trkpt lat="42.286374254198265" lon="13.841886723459622"><ele>792.0</ele><time>2026-04-18T09:54:35.999Z</time></trkpt><trkpt lat="42.28630799714772" lon="13.841861081983241"><ele>792.0</ele><time>2026-04-18T09:54:38.999Z</time></trkpt><trkpt lat="42.28624712861255" lon="13.84192202876951"><ele>792.0</ele><time>2026-04-18T09:54:41.999Z</time></trkpt><trkpt lat="42.286161166068965" lon="13.841972477907396"><ele>796.5</ele><time>2026-04-18T09:54:44.999Z</time></trkpt><trkpt lat="42.286128194016364" lon="13.842047524367853"><ele>801.0</ele><time>2026-04-18T09:54:48.999Z</time></trkpt><trkpt lat="42.286070758185744" lon="13.842086011115054"><ele>805.5</ele><time>2026-04-18T09:54:50.999Z</time></trkpt><trkpt lat="42.285996711325865" lon="13.842174059074452"><ele>810.0</ele><time>2026-04-18T09:54:52.999Z</time></trkpt><trkpt lat="42.285939116292646" lon="13.842228165331727"><ele>814.5</ele><time>2026-04-18T09:54:55.999Z</time></trkpt><trkpt lat="42.28582479810777" lon="13.842243226201248"><ele>819.0</ele><time>2026-04-18T09:54:58.999Z</time></trkpt><trkpt lat="42.28570989376675" lon="13.84230490385916"><ele>819.0</ele><time>2026-04-18T09:55:01.999Z</time></trkpt><trkpt lat="42.285639135367596" lon="13.842234269210895"><ele>819.0</ele><time>2026-04-18T09:55:03.999Z</time></trkpt><trkpt lat="42.28556236222787" lon="13.842270526973362"><ele>819.0</ele><time>2026-04-18T09:55:06.999Z</time></trkpt><trkpt lat="42.28524125800224" lon="13.84244801063092"><ele>821.5</ele><time>2026-04-18T09:55:09.999Z</time></trkpt><trkpt lat="42.28517243831534" lon="13.842537192263107"><ele>824.0</ele><time>2026-04-18T09:55:11.999Z</time></trkpt><trkpt lat="42.2851382773677" lon="13.842611736496407"><ele>826.5</ele><time>2026-04-18T09:55:13.999Z</time></trkpt><trkpt lat="42.28521091939221" lon="13.842602890868324"><ele>829.0</ele><time>2026-04-18T09:55:45Z</time></trkpt><trkpt lat="42.28516665583324" lon="13.842667534598815"><ele>831.5</ele><time>2026-04-18T09:55:49Z</time></trkpt><trkpt lat="42.28508057495248" lon="13.842697019010325"><ele>834.0</ele><time>2026-04-18T09:55:52Z</time></trkpt><trkpt lat="42.285032122948806" lon="13.842801899754187"><ele>834.0</ele><time>2026-04-18T09:55:54Z</time></trkpt><trkpt lat="42.28497761982652" lon="13.842855584242628"><ele>834.0</ele><time>2026-04-18T09:55:56Z</time></trkpt><trkpt lat="42.284923843771395" lon="13.842900840725859"><ele>834.0</ele><time>2026-04-18T09:55:59Z</time></trkpt><trkpt lat="42.28486470829915" lon="13.842971743089594"><ele>834.0</ele><time>2026-04-18T09:56:02Z</time></trkpt><trkpt lat="42.28480843404785" lon="13.843028334876799"><ele>834.0</ele><time>2026-04-18T09:56:03.999Z</time></trkpt><trkpt lat="42.284803805069444" lon="13.843143571036471"><ele>834.0</ele><time>2026-04-18T09:56:05.999Z</time></trkpt><trkpt lat="42.28480810394764" lon="13.843278049609163"><ele>833.2857142857143</ele><time>2026-04-18T09:56:07.999Z</time></trkpt><trkpt lat="42.28474522403038" lon="13.84333652362215"><ele>832.5714285714286</ele><time>2026-04-18T09:56:10.999Z</time></trkpt><trkpt lat="42.284659861684034" lon="13.843323986044544"><ele>831.8571428571429</ele><time>2026-04-18T09:56:12.999Z</time></trkpt><trkpt lat="42.284592819644224" lon="13.843326786022319"><ele>831.1428571428571</ele><time>2026-04-18T09:56:14.999Z</time></trkpt><trkpt lat="42.28454219790023" lon="13.843382245924017"><ele>830.4285714285713</ele><time>2026-04-18T09:56:15.999Z</time></trkpt><trkpt lat="42.28448711100919" lon="13.843425242700638"><ele>829.7142857142857</ele><time>2026-04-18T09:56:17.999Z</time></trkpt><trkpt lat="42.284427447840436" lon="13.843452844195955"><ele>829.0</ele><time>2026-04-18T09:56:19.999Z</time></trkpt><trkpt lat="42.28435765874886" lon="13.84347722264354"><ele>827.75</ele><time>2026-04-18T09:56:20.999Z</time></trkpt><trkpt lat="42.28422133278839" lon="13.84352385812908"><ele>826.5</ele><time>2026-04-18T09:56:21.999Z</time></trkpt><trkpt lat="42.2841062296134" lon="13.84353571943359"><ele>825.25</ele><time>2026-04-18T09:56:23.999Z</time></trkpt><trkpt lat="42.28402062818716" lon="13.843493477851743"><ele>824.0</ele><time>2026-04-18T09:56:25.999Z</time></trkpt><trkpt lat="42.28392951149011" lon="13.843377160713205"><ele>824.0000000000001</ele><time>2026-04-18T09:56:27.999Z</time></trkpt><trkpt lat="42.283859766550506" lon="13.84331036935411"><ele>824.0</ele><time>2026-04-18T09:56:28.999Z</time></trkpt><trkpt lat="42.283804690598906" lon="13.843264708283641"><ele>824.0</ele><time>2026-04-18T09:56:29.999Z</time></trkpt><trkpt lat="42.28369692645178" lon="13.84326871831956"><ele>824.0</ele><time>2026-04-18T09:56:31.999Z</time></trkpt><trkpt lat="42.283640663692175" lon="13.843310590069125"><ele>824.0000000000001</ele><time>2026-04-18T09:56:32.999Z</time></trkpt><trkpt lat="42.283540993392634" lon="13.843329416618786"><ele>824.0</ele><time>2026-04-18T09:56:34.999Z</time></trkpt><trkpt lat="42.2834278593374" lon="13.84337491523668"><ele>824.0</ele><time>2026-04-18T09:56:36.999Z</time></trkpt><trkpt lat="42.283330432982346" lon="13.843432745578568"><ele>824.0</ele><time>2026-04-18T09:56:38.999Z</time></trkpt><trkpt lat="42.28326274498715" lon="13.84345216942299"><ele>824.0</ele><time>2026-04-18T09:56:39.999Z</time></trkpt><trkpt lat="42.28312120086862" lon="13.84348811692806"><ele>824.0</ele><time>2026-04-18T09:56:41.999Z</time></trkpt><trkpt lat="42.283057897233455" lon="13.843512324452396"><ele>824.0</ele><time>2026-04-18T09:56:42.999Z</time></trkpt><trkpt lat="42.28298957547904" lon="13.84354633616492"><ele>820.5000000000001</ele><time>2026-04-18T09:56:43.999Z</time></trkpt><trkpt lat="42.28292718537471" lon="13.84359564570544"><ele>817.0</ele><time>2026-04-18T09:56:44.999Z</time></trkpt><trkpt lat="42.28286175817147" lon="13.84365828514553"><ele>813.5</ele><time>2026-04-18T09:56:45.999Z</time></trkpt><trkpt lat="42.282798377504456" lon="13.843700751075312"><ele>810.0</ele><time>2026-04-18T09:56:46.999Z</time></trkpt><trkpt lat="42.28272121054544" lon="13.84374676852458"><ele>806.5000000000001</ele><time>2026-04-18T09:56:47.999Z</time></trkpt><trkpt lat="42.28265023761494" lon="13.84378985158677"><ele>803.0</ele><time>2026-04-18T09:56:48.999Z</time></trkpt><trkpt lat="42.28255347725509" lon="13.843797952970615"><ele>803.0000000000001</ele><time>2026-04-18T09:56:50.999Z</time></trkpt><trkpt lat="42.28247870631524" lon="13.84382707582759"><ele>803.0</ele><time>2026-04-18T09:56:51.999Z</time></trkpt><trkpt lat="42.28241390922201" lon="13.843839994634802"><ele>803.0</ele><time>2026-04-18T09:56:52.999Z</time></trkpt><trkpt lat="42.28232111880487" lon="13.843845229721124"><ele>803.0</ele><time>2026-04-18T09:56:53.999Z</time></trkpt><trkpt lat="42.28224866908011" lon="13.843843751484162"><ele>803.0000000000001</ele><time>2026-04-18T09:56:54.999Z</time></trkpt><trkpt lat="42.28217012801595" lon="13.843806597701757"><ele>803.0</ele><time>2026-04-18T09:56:59.999Z</time></trkpt><trkpt lat="42.28208556111919" lon="13.843702930233242"><ele>803.6666666666667</ele><time>2026-04-18T09:57:04.999Z</time></trkpt><trkpt lat="42.281984579577816" lon="13.843711164100682"><ele>804.3333333333334</ele><time>2026-04-18T09:57:06.999Z</time></trkpt><trkpt lat="42.28193819307248" lon="13.843772711729642"><ele>805.0</ele><time>2026-04-18T09:57:07.999Z</time></trkpt><trkpt lat="42.281881400636934" lon="13.84384124087697"><ele>805.6666666666667</ele><time>2026-04-18T09:57:10.999Z</time></trkpt><trkpt lat="42.28180651259452" lon="13.843866061963068"><ele>806.3333333333334</ele><time>2026-04-18T09:57:12.999Z</time></trkpt><trkpt lat="42.28175527364603" lon="13.844013679144776"><ele>807.0</ele><time>2026-04-18T09:57:14.999Z</time></trkpt><trkpt lat="42.281698888968755" lon="13.844098066995155"><ele>807.0</ele><time>2026-04-18T09:57:17.999Z</time></trkpt><trkpt lat="42.28166675987972" lon="13.844200434234624"><ele>807.0</ele><time>2026-04-18T09:57:19.999Z</time></trkpt><trkpt lat="42.281626239479316" lon="13.844315500032062"><ele>807.0</ele><time>2026-04-18T09:57:21.998Z</time></trkpt><trkpt lat="42.281561116104186" lon="13.844442382561425"><ele>807.0</ele><time>2026-04-18T09:57:24.998Z</time></trkpt><trkpt lat="42.281481239949954" lon="13.844560810726"><ele>807.0</ele><time>2026-04-18T09:57:26.998Z</time></trkpt><trkpt lat="42.28141167623727" lon="13.844646701052763"><ele>803.4000000000001</ele><time>2026-04-18T09:57:28.998Z</time></trkpt><trkpt lat="42.28136133288852" lon="13.844740338116617"><ele>799.8000000000001</ele><time>2026-04-18T09:57:30.998Z</time></trkpt><trkpt lat="42.28127659985908" lon="13.844829415148148"><ele>796.2</ele><time>2026-04-18T09:57:32.998Z</time></trkpt><trkpt lat="42.28115964477291" lon="13.844859112002771"><ele>792.6</ele><time>2026-04-18T09:57:34.998Z</time></trkpt><trkpt lat="42.28105619238608" lon="13.844899667619082"><ele>789.0</ele><time>2026-04-18T09:57:36.998Z</time></trkpt><trkpt lat="42.28098352897595" lon="13.84498295280203"><ele>789.0</ele><time>2026-04-18T09:57:38.998Z</time></trkpt><trkpt lat="42.28091890350106" lon="13.845125150094082"><ele>789.0</ele><time>2026-04-18T09:57:40.998Z</time></trkpt><trkpt lat="42.280885583708056" lon="13.845207887479308"><ele>789.0</ele><time>2026-04-18T09:57:41.998Z</time></trkpt><trkpt lat="42.28083345636814" lon="13.845304884376189"><ele>789.0</ele><time>2026-04-18T09:57:42.998Z</time></trkpt><trkpt lat="42.28079472260109" lon="13.845375027898429"><ele>789.0</ele><time>2026-04-18T09:57:53Z</time></trkpt><trkpt lat="42.28073967188271" lon="13.845291352338577"><ele>789.0</ele><time>2026-04-18T09:58:31.999Z</time></trkpt><trkpt lat="42.280765681228175" lon="13.84519070538005"><ele>789.0</ele><time>2026-04-18T09:58:33.999Z</time></trkpt><trkpt lat="42.280748859847925" lon="13.845096927082562"><ele>789.0</ele><time>2026-04-18T09:58:59.999Z</time></trkpt><trkpt lat="42.28066618403871" lon="13.845060488614806"><ele>789.0</ele><time>2026-04-18T09:59:01.999Z</time></trkpt><trkpt lat="42.28058320109573" lon="13.844979802380843"><ele>789.0</ele><time>2026-04-18T09:59:05.999Z</time></trkpt><trkpt lat="42.280493709838645" lon="13.84492262520826"><ele>789.0</ele><time>2026-04-18T09:59:07.999Z</time></trkpt><trkpt lat="42.280398743325705" lon="13.84490641935224"><ele>792.1666666666666</ele><time>2026-04-18T09:59:09.999Z</time></trkpt><trkpt lat="42.280330713811175" lon="13.844862642894817"><ele>795.3333333333333</ele><time>2026-04-18T09:59:11.999Z</time></trkpt><trkpt lat="42.28018058381748" lon="13.844839287318997"><ele>798.5</ele><time>2026-04-18T09:59:13.999Z</time></trkpt><trkpt lat="42.280096457483076" lon="13.844815045759328"><ele>801.6666666666666</ele><time>2026-04-18T09:59:14.999Z</time></trkpt><trkpt lat="42.28003541623199" lon="13.844788024792491"><ele>804.8333333333333</ele><time>2026-04-18T09:59:16.999Z</time></trkpt><trkpt lat="42.2799653425084" lon="13.844782797845319"><ele>808.0</ele><time>2026-04-18T09:59:17.999Z</time></trkpt><trkpt lat="42.27988077062018" lon="13.844806410255858"><ele>807.9999999999999</ele><time>2026-04-18T09:59:19.999Z</time></trkpt><trkpt lat="42.279811777444955" lon="13.844808808280408"><ele>808.0</ele><time>2026-04-18T09:59:21.999Z</time></trkpt><trkpt lat="42.27972484904217" lon="13.844818799264702"><ele>808.0</ele><time>2026-04-18T09:59:22.999Z</time></trkpt><trkpt lat="42.27965614714644" lon="13.844851845223962"><ele>808.0</ele><time>2026-04-18T09:59:23.999Z</time></trkpt><trkpt lat="42.27957094444959" lon="13.844861687379646"><ele>807.9999999999999</ele><time>2026-04-18T09:59:24.999Z</time></trkpt><trkpt lat="42.279474896281165" lon="13.84487765023048"><ele>808.0</ele><time>2026-04-18T09:59:25.998Z</time></trkpt><trkpt lat="42.27939520155628" lon="13.844880618428578"><ele>811.9999999999999</ele><time>2026-04-18T09:59:26.998Z</time></trkpt><trkpt lat="42.27931260326988" lon="13.844909538261867"><ele>816.0</ele><time>2026-04-18T09:59:27.998Z</time></trkpt><trkpt lat="42.27923668291893" lon="13.844932927546099"><ele>820.0</ele><time>2026-04-18T09:59:28.998Z</time></trkpt><trkpt lat="42.2791735228431" lon="13.844939593515452"><ele>824.0</ele><time>2026-04-18T09:59:29.998Z</time></trkpt><trkpt lat="42.279095978993844" lon="13.844948187105809"><ele>827.9999999999999</ele><time>2026-04-18T09:59:30.998Z</time></trkpt><trkpt lat="42.27899334402532" lon="13.844962225115705"><ele>832.0</ele><time>2026-04-18T09:59:31.998Z</time></trkpt><trkpt lat="42.278911785490955" lon="13.844964263836479"><ele>836.8333333333333</ele><time>2026-04-18T09:59:32.998Z</time></trkpt><trkpt lat="42.278824751024814" lon="13.844971552918148"><ele>841.6666666666666</ele><time>2026-04-18T09:59:33.998Z</time></trkpt><trkpt lat="42.27875813168886" lon="13.8449742642611"><ele>846.5</ele><time>2026-04-18T09:59:34.998Z</time></trkpt><trkpt lat="42.27869291233919" lon="13.844968203670339"><ele>851.3333333333333</ele><time>2026-04-18T09:59:35.998Z</time></trkpt><trkpt lat="42.27862962714857" lon="13.844959873625609"><ele>856.1666666666666</ele><time>2026-04-18T09:59:36.998Z</time></trkpt><trkpt lat="42.27854604933089" lon="13.844983770975244"><ele>861.0</ele><time>2026-04-18T09:59:38.998Z</time></trkpt><trkpt lat="42.27844606861884" lon="13.845043521954896"><ele>861.0</ele><time>2026-04-18T09:59:40.998Z</time></trkpt><trkpt lat="42.27837531513946" lon="13.845050047092506"><ele>861.0</ele><time>2026-04-18T09:59:41.998Z</time></trkpt><trkpt lat="42.27829848558659" lon="13.845069790111719"><ele>861.0</ele><time>2026-04-18T09:59:42.998Z</time></trkpt><trkpt lat="42.27823690858425" lon="13.845093816158583"><ele>861.0</ele><time>2026-04-18T09:59:43.998Z</time></trkpt><trkpt lat="42.27816970667987" lon="13.845117892750382"><ele>861.0</ele><time>2026-04-18T09:59:44.998Z</time></trkpt><trkpt lat="42.278076051827206" lon="13.84513301588119"><ele>861.0</ele><time>2026-04-18T09:59:45.998Z</time></trkpt><trkpt lat="42.277997846521345" lon="13.845123444193428"><ele>865.25</ele><time>2026-04-18T09:59:46.998Z</time></trkpt><trkpt lat="42.27787551459907" lon="13.84507018239647"><ele>869.5</ele><time>2026-04-18T09:59:48.998Z</time></trkpt><trkpt lat="42.27777168377203" lon="13.844985669240545"><ele>873.75</ele><time>2026-04-18T09:59:58Z</time></trkpt><trkpt lat="42.27767912755216" lon="13.844869334277172"><ele>878.0</ele><time>2026-04-18T10:00:00Z</time></trkpt><trkpt lat="42.27755593650697" lon="13.844802686742273"><ele>878.0</ele><time>2026-04-18T10:00:02Z</time></trkpt><trkpt lat="42.277446988209036" lon="13.844825330355482"><ele>878.0</ele><time>2026-04-18T10:00:04Z</time></trkpt><trkpt lat="42.277311449027756" lon="13.844879823910517"><ele>878.0</ele><time>2026-04-18T10:00:06Z</time></trkpt><trkpt lat="42.27723075319816" lon="13.844856792339261"><ele>878.0</ele><time>2026-04-18T10:00:07Z</time></trkpt><trkpt lat="42.27714866435927" lon="13.84481030370577"><ele>878.0</ele><time>2026-04-18T10:00:09Z</time></trkpt><trkpt lat="42.27709964035222" lon="13.844633925331125"><ele>879.4</ele><time>2026-04-18T10:00:42.999Z</time></trkpt><trkpt lat="42.27706585489652" lon="13.844517073140256"><ele>880.8</ele><time>2026-04-18T10:00:43.999Z</time></trkpt><trkpt lat="42.277028585375675" lon="13.844400356155443"><ele>882.2</ele><time>2026-04-18T10:00:44.999Z</time></trkpt><trkpt lat="42.27698992343564" lon="13.844289366763563"><ele>883.6</ele><time>2026-04-18T10:00:45.999Z</time></trkpt><trkpt lat="42.27695791264788" lon="13.844191506322629"><ele>885.0</ele><time>2026-04-18T10:00:46.999Z</time></trkpt><trkpt lat="42.276917657125935" lon="13.84404879033441"><ele>885.0</ele><time>2026-04-18T10:00:48.999Z</time></trkpt><trkpt lat="42.27688723958557" lon="13.843949313363634"><ele>885.0</ele><time>2026-04-18T10:00:50.999Z</time></trkpt><trkpt lat="42.276811189122014" lon="13.843940285821398"><ele>885.0</ele><time>2026-04-18T10:00:52.999Z</time></trkpt><trkpt lat="42.27679425449293" lon="13.844063816385638"><ele>885.0</ele><time>2026-04-18T10:00:54.999Z</time></trkpt><trkpt lat="42.276814119711965" lon="13.844155199646519"><ele>885.0</ele><time>2026-04-18T10:00:55.999Z</time></trkpt><trkpt lat="42.27685203532533" lon="13.844291354529709"><ele>885.0</ele><time>2026-04-18T10:00:56.999Z</time></trkpt><trkpt lat="42.276874481326956" lon="13.844415580614353"><ele>885.0</ele><time>2026-04-18T10:00:57.999Z</time></trkpt><trkpt lat="42.27687646019831" lon="13.844520473235"><ele>885.0</ele><time>2026-04-18T10:00:58.999Z</time></trkpt><trkpt lat="42.276871620586235" lon="13.844606060959144"><ele>885.0</ele><time>2026-04-18T10:00:59.999Z</time></trkpt><trkpt lat="42.27682547244323" lon="13.844733684478793"><ele>885.0</ele><time>2026-04-18T10:01:01.999Z</time></trkpt><trkpt lat="42.27676772635536" lon="13.844793245090468"><ele>885.0</ele><time>2026-04-18T10:01:04.999Z</time></trkpt><trkpt lat="42.276654492850966" lon="13.844751083474485"><ele>885.0</ele><time>2026-04-18T10:01:07.999Z</time></trkpt><trkpt lat="42.27658136799931" lon="13.84471155806333"><ele>885.0</ele><time>2026-04-18T10:01:09.999Z</time></trkpt><trkpt lat="42.276487521586176" lon="13.844661712599049"><ele>885.0</ele><time>2026-04-18T10:01:11.999Z</time></trkpt><trkpt lat="42.27636974145921" lon="13.844574483460274"><ele>885.0</ele><time>2026-04-18T10:01:13.999Z</time></trkpt><trkpt lat="42.276302250031144" lon="13.844516736083268"><ele>885.0</ele><time>2026-04-18T10:01:14.999Z</time></trkpt><trkpt lat="42.27622661482546" lon="13.844476497819791"><ele>885.0</ele><time>2026-04-18T10:01:15.999Z</time></trkpt><trkpt lat="42.27615056484171" lon="13.84443980926318"><ele>887.7142857142857</ele><time>2026-04-18T10:01:16.999Z</time></trkpt><trkpt lat="42.27607876554689" lon="13.844419628109007"><ele>890.4285714285713</ele><time>2026-04-18T10:01:17.999Z</time></trkpt><trkpt lat="42.27600394259636" lon="13.844398429867516"><ele>893.1428571428571</ele><time>2026-04-18T10:01:18.999Z</time></trkpt><trkpt lat="42.27592946198496" lon="13.844393313748087"><ele>895.8571428571429</ele><time>2026-04-18T10:01:19.999Z</time></trkpt><trkpt lat="42.27584435889038" lon="13.844386788512605"><ele>898.5714285714286</ele><time>2026-04-18T10:01:20.999Z</time></trkpt><trkpt lat="42.27577917906547" lon="13.844371706270543"><ele>901.2857142857143</ele><time>2026-04-18T10:01:21.999Z</time></trkpt><trkpt lat="42.2757098027631" lon="13.844354421159393"><ele>904.0</ele><time>2026-04-18T10:01:22.999Z</time></trkpt><trkpt lat="42.27564461473299" lon="13.844352950652164"><ele>905.7142857142858</ele><time>2026-04-18T10:01:23.999Z</time></trkpt><trkpt lat="42.27557781381709" lon="13.84434947192919"><ele>907.4285714285713</ele><time>2026-04-18T10:01:24.999Z</time></trkpt><trkpt lat="42.2755017448656" lon="13.844346149376676"><ele>909.1428571428571</ele><time>2026-04-18T10:01:25.999Z</time></trkpt><trkpt lat="42.2754366498911" lon="13.844324532890418"><ele>910.8571428571429</ele><time>2026-04-18T10:01:26.999Z</time></trkpt><trkpt lat="42.2753787171168" lon="13.844282213181767"><ele>912.5714285714287</ele><time>2026-04-18T10:01:27.999Z</time></trkpt><trkpt lat="42.275330084015344" lon="13.844219107546659"><ele>914.2857142857142</ele><time>2026-04-18T10:01:28.999Z</time></trkpt><trkpt lat="42.27528464148556" lon="13.844135633125708"><ele>916.0</ele><time>2026-04-18T10:01:29.998Z</time></trkpt><trkpt lat="42.27524715177896" lon="13.844046722906072"><ele>918.4999999999999</ele><time>2026-04-18T10:01:30.998Z</time></trkpt><trkpt lat="42.27519550315692" lon="13.843953811768205"><ele>921.0</ele><time>2026-04-18T10:01:31.998Z</time></trkpt><trkpt lat="42.27515247717006" lon="13.843861018611834"><ele>923.5</ele><time>2026-04-18T10:01:32.998Z</time></trkpt><trkpt lat="42.27510228366806" lon="13.843773174639608"><ele>926.0</ele><time>2026-04-18T10:01:34.998Z</time></trkpt><trkpt lat="42.27511515655898" lon="13.843859473128514"><ele>928.4999999999999</ele><time>2026-04-18T10:02:14Z</time></trkpt><trkpt lat="42.275054312511536" lon="13.843766491381048"><ele>931.0</ele><time>2026-04-18T10:02:26.999Z</time></trkpt><trkpt lat="42.27501898470691" lon="13.84368082975804"><ele>930.9999999999999</ele><time>2026-04-18T10:02:47.999Z</time></trkpt><trkpt lat="42.274932945353335" lon="13.843678237001086"><ele>931.0</ele><time>2026-04-18T10:02:53.999Z</time></trkpt><trkpt lat="42.27486151403915" lon="13.843610808076926"><ele>931.0</ele><time>2026-04-18T10:03:34.998Z</time></trkpt><trkpt lat="42.274779815398865" lon="13.843612980734479"><ele>931.0</ele><time>2026-04-18T10:04:33Z</time></trkpt><trkpt lat="42.27472875231709" lon="13.843560516288232"><ele>930.9999999999999</ele><time>2026-04-18T10:04:42Z</time></trkpt><trkpt lat="42.27467491103071" lon="13.843513417822345"><ele>931.0</ele><time>2026-04-18T10:04:45Z</time></trkpt><trkpt lat="42.27475322328146" lon="13.843437116210188"><ele>935.75</ele><time>2026-04-18T10:04:48Z</time></trkpt><trkpt lat="42.2748067908481" lon="13.843290002123743"><ele>940.5</ele><time>2026-04-18T10:04:50Z</time></trkpt><trkpt lat="42.27482222792443" lon="13.843102958974248"><ele>945.25</ele><time>2026-04-18T10:04:52Z</time></trkpt><trkpt lat="42.27482328327188" lon="13.842955986487631"><ele>950.0</ele><time>2026-04-18T10:04:53Z</time></trkpt><trkpt lat="42.274813905392904" lon="13.842783437740856"><ele>950.0</ele><time>2026-04-18T10:04:54Z</time></trkpt><trkpt lat="42.274802135623645" lon="13.842653561691519"><ele>950.0</ele><time>2026-04-18T10:04:55Z</time></trkpt><trkpt lat="42.274788736809256" lon="13.842523761013613"><ele>950.0</ele><time>2026-04-18T10:04:57Z</time></trkpt><trkpt lat="42.274723211770755" lon="13.8423828694244"><ele>950.0</ele><time>2026-04-18T10:04:59Z</time></trkpt><trkpt lat="42.27468762236675" lon="13.842265829867308"><ele>950.0</ele><time>2026-04-18T10:05:00Z</time></trkpt><trkpt lat="42.2746670585281" lon="13.842134371312344"><ele>951.0000000000001</ele><time>2026-04-18T10:05:01Z</time></trkpt><trkpt lat="42.27468180488983" lon="13.842015924425636"><ele>952.0</ele><time>2026-04-18T10:05:04Z</time></trkpt><trkpt lat="42.27469097222968" lon="13.841890074475149"><ele>953.0</ele><time>2026-04-18T10:05:06Z</time></trkpt><trkpt lat="42.2747224855523" lon="13.841751918523313"><ele>954.0</ele><time>2026-04-18T10:05:08Z</time></trkpt><trkpt lat="42.27476766077734" lon="13.84167827406475"><ele>955.0000000000001</ele><time>2026-04-18T10:05:09Z</time></trkpt><trkpt lat="42.274810741474184" lon="13.841611014305819"><ele>956.0</ele><time>2026-04-18T10:05:10Z</time></trkpt><trkpt lat="42.27485710862648" lon="13.841516905416306"><ele>956.0</ele><time>2026-04-18T10:05:11Z</time></trkpt><trkpt lat="42.27490786520453" lon="13.841461720120783"><ele>955.9999999999999</ele><time>2026-04-18T10:05:12Z</time></trkpt><trkpt lat="42.2749753491929" lon="13.841358031040357"><ele>955.9999999999999</ele><time>2026-04-18T10:05:14Z</time></trkpt><trkpt lat="42.27507628103408" lon="13.841220786597392"><ele>956.0</ele><time>2026-04-18T10:05:16Z</time></trkpt><trkpt lat="42.27514736945656" lon="13.841130228382982"><ele>956.0</ele><time>2026-04-18T10:05:17Z</time></trkpt><trkpt lat="42.27522815378927" lon="13.841084815573657"><ele>956.0000000000001</ele><time>2026-04-18T10:05:18Z</time></trkpt><trkpt lat="42.275274256200106" lon="13.840979183646441"><ele>956.0</ele><time>2026-04-18T10:05:19Z</time></trkpt><trkpt lat="42.27529812951131" lon="13.84087908117246"><ele>956.0</ele><time>2026-04-18T10:05:20Z</time></trkpt><trkpt lat="42.27532107228275" lon="13.840790362822892"><ele>956.0</ele><time>2026-04-18T10:05:21Z</time></trkpt><trkpt lat="42.27536099300303" lon="13.840709839136458"><ele>956.0000000000001</ele><time>2026-04-18T10:05:22Z</time></trkpt><trkpt lat="42.27545513893441" lon="13.840645118402474"><ele>956.0</ele><time>2026-04-18T10:05:23Z</time></trkpt><trkpt lat="42.275570905681164" lon="13.840594639939962"><ele>954.4</ele><time>2026-04-18T10:05:24Z</time></trkpt><trkpt lat="42.27566784458322" lon="13.840559549692177"><ele>952.8</ele><time>2026-04-18T10:05:25Z</time></trkpt><trkpt lat="42.27574784541625" lon="13.840509766324395"><ele>951.1999999999999</ele><time>2026-04-18T10:05:26Z</time></trkpt><trkpt lat="42.27582368221726" lon="13.840421372557975"><ele>949.5999999999999</ele><time>2026-04-18T10:05:27Z</time></trkpt><trkpt lat="42.27589321238298" lon="13.840306880329315"><ele>948.0</ele><time>2026-04-18T10:05:28Z</time></trkpt><trkpt lat="42.27595124178401" lon="13.8401644124397"><ele>949.5</ele><time>2026-04-18T10:05:29Z</time></trkpt><trkpt lat="42.276014618238115" lon="13.839993249912196"><ele>951.0</ele><time>2026-04-18T10:05:30Z</time></trkpt><trkpt lat="42.276077933293" lon="13.839845059907315"><ele>952.5</ele><time>2026-04-18T10:05:31Z</time></trkpt><trkpt lat="42.2761420522141" lon="13.83971642256555"><ele>954.0</ele><time>2026-04-18T10:05:32Z</time></trkpt><trkpt lat="42.27621255167071" lon="13.839597591351783"><ele>954.0</ele><time>2026-04-18T10:05:33Z</time></trkpt><trkpt lat="42.276273764316244" lon="13.839497783156219"><ele>954.0000000000001</ele><time>2026-04-18T10:05:34Z</time></trkpt><trkpt lat="42.276325116172096" lon="13.839393114683716"><ele>954.0000000000001</ele><time>2026-04-18T10:05:35Z</time></trkpt><trkpt lat="42.276377999205714" lon="13.839284866779737"><ele>954.0</ele><time>2026-04-18T10:05:36Z</time></trkpt><trkpt lat="42.27643903316786" lon="13.839168189791222"><ele>954.0</ele><time>2026-04-18T10:05:37Z</time></trkpt><trkpt lat="42.27650617631072" lon="13.839057743258207"><ele>952.6</ele><time>2026-04-18T10:05:37.999Z</time></trkpt><trkpt lat="42.276569849278545" lon="13.838926965241763"><ele>951.2</ele><time>2026-04-18T10:05:38.999Z</time></trkpt><trkpt lat="42.27663303784449" lon="13.838806744206575"><ele>949.8000000000001</ele><time>2026-04-18T10:05:39.999Z</time></trkpt><trkpt lat="42.2766968457263" lon="13.838692289905872"><ele>948.4000000000001</ele><time>2026-04-18T10:05:40.999Z</time></trkpt><trkpt lat="42.27675460232041" lon="13.838590860401691"><ele>947.0</ele><time>2026-04-18T10:05:41.999Z</time></trkpt><trkpt lat="42.27681138322007" lon="13.838480302629701"><ele>945.8</ele><time>2026-04-18T10:05:42.999Z</time></trkpt><trkpt lat="42.276862183506154" lon="13.838375836566243"><ele>944.6</ele><time>2026-04-18T10:05:43.999Z</time></trkpt><trkpt lat="42.27690967301064" lon="13.838263122267517"><ele>943.3999999999999</ele><time>2026-04-18T10:05:44.999Z</time></trkpt><trkpt lat="42.27695977687202" lon="13.83814630115607"><ele>942.1999999999999</ele><time>2026-04-18T10:05:45.999Z</time></trkpt><trkpt lat="42.27701094108121" lon="13.838043567251805"><ele>941.0</ele><time>2026-04-18T10:05:46.999Z</time></trkpt><trkpt lat="42.277060225022545" lon="13.837956479824298"><ele>941.0</ele><time>2026-04-18T10:05:47.999Z</time></trkpt><trkpt lat="42.27710129568459" lon="13.837888056779175"><ele>940.9999999999999</ele><time>2026-04-18T10:05:48.999Z</time></trkpt><trkpt lat="42.277157973416706" lon="13.837829521870415"><ele>940.9999999999999</ele><time>2026-04-18T10:05:50.999Z</time></trkpt><trkpt lat="42.27724670307691" lon="13.837806270953227"><ele>941.0</ele><time>2026-04-18T10:05:53.999Z</time></trkpt><trkpt lat="42.27735312298174" lon="13.837793491644053"><ele>941.0</ele><time>2026-04-18T10:05:55.999Z</time></trkpt><trkpt lat="42.27746785093504" lon="13.837822326649624"><ele>941.0000000000001</ele><time>2026-04-18T10:05:57.999Z</time></trkpt><trkpt lat="42.277542531382466" lon="13.837786407553423"><ele>941.0</ele><time>2026-04-18T10:06:00.999Z</time></trkpt><trkpt lat="42.27759764917384" lon="13.837676189921192"><ele>941.0</ele><time>2026-04-18T10:06:02.999Z</time></trkpt><trkpt lat="42.27764451314848" lon="13.837527692181489"><ele>941.0</ele><time>2026-04-18T10:06:04.999Z</time></trkpt><trkpt lat="42.27766123498059" lon="13.837439766300902"><ele>941.0000000000001</ele><time>2026-04-18T10:06:05.999Z</time></trkpt><trkpt lat="42.277686681367186" lon="13.837347296253167"><ele>941.0</ele><time>2026-04-18T10:06:07.999Z</time></trkpt><trkpt lat="42.27778473001609" lon="13.837331682012044"><ele>938.5999999999999</ele><time>2026-04-18T10:06:10.001Z</time></trkpt><trkpt lat="42.27787963104813" lon="13.837371498929608"><ele>936.1999999999999</ele><time>2026-04-18T10:06:11.001Z</time></trkpt><trkpt lat="42.27797944126243" lon="13.837426557998935"><ele>933.8000000000001</ele><time>2026-04-18T10:06:12.001Z</time></trkpt><trkpt lat="42.27809427360443" lon="13.837476486382066"><ele>931.4000000000001</ele><time>2026-04-18T10:06:13.001Z</time></trkpt><trkpt lat="42.2782090911744" lon="13.837512234099071"><ele>929.0</ele><time>2026-04-18T10:06:14.001Z</time></trkpt><trkpt lat="42.27832507337926" lon="13.837503259142178"><ele>927.6</ele><time>2026-04-18T10:06:15.001Z</time></trkpt><trkpt lat="42.278436768457475" lon="13.83746675132063"><ele>926.2</ele><time>2026-04-18T10:06:16.001Z</time></trkpt><trkpt lat="42.278534630866766" lon="13.83741420887109"><ele>924.8000000000001</ele><time>2026-04-18T10:06:17.001Z</time></trkpt><trkpt lat="42.278600753398564" lon="13.837367448245768"><ele>923.4000000000001</ele><time>2026-04-18T10:06:18.001Z</time></trkpt><trkpt lat="42.27868668286953" lon="13.837290063883605"><ele>922.0</ele><time>2026-04-18T10:06:20.001Z</time></trkpt><trkpt lat="42.27873797458895" lon="13.837220114722038"><ele>921.9999999999999</ele><time>2026-04-18T10:06:21.001Z</time></trkpt><trkpt lat="42.278794393128706" lon="13.837139545205794"><ele>922.0</ele><time>2026-04-18T10:06:22.001Z</time></trkpt><trkpt lat="42.27885339515043" lon="13.837060900566133"><ele>922.0</ele><time>2026-04-18T10:06:23.001Z</time></trkpt><trkpt lat="42.27891745087118" lon="13.836996928293656"><ele>922.0</ele><time>2026-04-18T10:06:24.001Z</time></trkpt><trkpt lat="42.27898250252385" lon="13.83693911116968"><ele>921.9999999999999</ele><time>2026-04-18T10:06:25Z</time></trkpt><trkpt lat="42.279057747819344" lon="13.836883874818199"><ele>922.0</ele><time>2026-04-18T10:06:26Z</time></trkpt><trkpt lat="42.27915236016758" lon="13.836844777805398"><ele>921.75</ele><time>2026-04-18T10:06:27Z</time></trkpt><trkpt lat="42.27926384944376" lon="13.836819391664388"><ele>921.5</ele><time>2026-04-18T10:06:28Z</time></trkpt><trkpt lat="42.27939814468809" lon="13.836799030774841"><ele>921.25</ele><time>2026-04-18T10:06:29Z</time></trkpt><trkpt lat="42.27953696275534" lon="13.836780192810634"><ele>921.0</ele><time>2026-04-18T10:06:30Z</time></trkpt><trkpt lat="42.27965881060849" lon="13.836750104954849"><ele>919.25</ele><time>2026-04-18T10:06:31Z</time></trkpt><trkpt lat="42.27977626734165" lon="13.836714985501038"><ele>917.5</ele><time>2026-04-18T10:06:32Z</time></trkpt><trkpt lat="42.27989196030287" lon="13.836684092309152"><ele>915.75</ele><time>2026-04-18T10:06:33Z</time></trkpt><trkpt lat="42.28001399531931" lon="13.836666500752562"><ele>914.0</ele><time>2026-04-18T10:06:34Z</time></trkpt><trkpt lat="42.28015417414633" lon="13.83666037246581"><ele>914.0</ele><time>2026-04-18T10:06:35Z</time></trkpt><trkpt lat="42.28028958317224" lon="13.836659980512525"><ele>914.0</ele><time>2026-04-18T10:06:36Z</time></trkpt><trkpt lat="42.280419956884046" lon="13.836665119079333"><ele>914.0</ele><time>2026-04-18T10:06:37Z</time></trkpt><trkpt lat="42.28053973958241" lon="13.836673514617818"><ele>914.0</ele><time>2026-04-18T10:06:38Z</time></trkpt><trkpt lat="42.280651650893084" lon="13.836682980723177"><ele>913.4000000000001</ele><time>2026-04-18T10:06:39Z</time></trkpt><trkpt lat="42.28075783631135" lon="13.836689451738515"><ele>912.8000000000001</ele><time>2026-04-18T10:06:40Z</time></trkpt><trkpt lat="42.28085939394859" lon="13.83669908410669"><ele>912.1999999999999</ele><time>2026-04-18T10:06:41Z</time></trkpt><trkpt lat="42.280955668927035" lon="13.83670455518507"><ele>911.5999999999999</ele><time>2026-04-18T10:06:42Z</time></trkpt><trkpt lat="42.281052107653615" lon="13.836702703224061"><ele>911.0</ele><time>2026-04-18T10:06:43Z</time></trkpt><trkpt lat="42.281147159404064" lon="13.836689732453364"><ele>911.0000000000001</ele><time>2026-04-18T10:06:44Z</time></trkpt><trkpt lat="42.28123728170422" lon="13.836681764322313"><ele>911.0</ele><time>2026-04-18T10:06:45Z</time></trkpt><trkpt lat="42.28132002231528" lon="13.836687232974358"><ele>911.0</ele><time>2026-04-18T10:06:46Z</time></trkpt><trkpt lat="42.281401707732854" lon="13.83669499050798"><ele>911.0</ele><time>2026-04-18T10:06:47Z</time></trkpt><trkpt lat="42.2814892767633" lon="13.8366995374931"><ele>911.0000000000001</ele><time>2026-04-18T10:06:48Z</time></trkpt><trkpt lat="42.281586849585366" lon="13.836707120171306"><ele>911.0</ele><time>2026-04-18T10:06:49Z</time></trkpt><trkpt lat="42.281688126718166" lon="13.836705022168893"><ele>911.1999999999999</ele><time>2026-04-18T10:06:50Z</time></trkpt><trkpt lat="42.28178519018404" lon="13.8366928393412"><ele>911.3999999999999</ele><time>2026-04-18T10:06:51Z</time></trkpt><trkpt lat="42.281876315313646" lon="13.836679110803894"><ele>911.6</ele><time>2026-04-18T10:06:52Z</time></trkpt><trkpt lat="42.281945296681585" lon="13.83667030046723"><ele>911.8</ele><time>2026-04-18T10:06:53Z</time></trkpt><trkpt lat="42.28204803137638" lon="13.836660541718675"><ele>912.0</ele><time>2026-04-18T10:06:55Z</time></trkpt><trkpt lat="42.28216012137961" lon="13.83664631803518"><ele>913.0</ele><time>2026-04-18T10:06:57Z</time></trkpt><trkpt lat="42.28227215986608" lon="13.836667948419574"><ele>914.0</ele><time>2026-04-18T10:06:59Z</time></trkpt><trkpt lat="42.2823691646991" lon="13.836658666252209"><ele>915.0</ele><time>2026-04-18T10:07:01Z</time></trkpt><trkpt lat="42.28247263382505" lon="13.836632924567619"><ele>916.0</ele><time>2026-04-18T10:07:03Z</time></trkpt><trkpt lat="42.28259222554166" lon="13.836645040882308"><ele>917.0</ele><time>2026-04-18T10:07:05Z</time></trkpt><trkpt lat="42.282698840332124" lon="13.836623778057321"><ele>917.0000000000001</ele><time>2026-04-18T10:07:07Z</time></trkpt><trkpt lat="42.28280773424341" lon="13.836622528591297"><ele>917.0</ele><time>2026-04-18T10:07:09Z</time></trkpt><trkpt lat="42.28287466847228" lon="13.836635071392111"><ele>917.0</ele><time>2026-04-18T10:07:10Z</time></trkpt><trkpt lat="42.28294624246554" lon="13.836643958512056"><ele>917.0</ele><time>2026-04-18T10:07:11Z</time></trkpt><trkpt lat="42.28301007785455" lon="13.836650259836471"><ele>917.0000000000001</ele><time>2026-04-18T10:07:12Z</time></trkpt><trkpt lat="42.28311660965525" lon="13.836676063837338"><ele>917.0</ele><time>2026-04-18T10:07:14Z</time></trkpt><trkpt lat="42.28323280354286" lon="13.836692667400822"><ele>916.8333333333334</ele><time>2026-04-18T10:07:16Z</time></trkpt><trkpt lat="42.2833384284184" lon="13.83672475059106"><ele>916.6666666666667</ele><time>2026-04-18T10:07:18Z</time></trkpt><trkpt lat="42.28339973495231" lon="13.836747494987414"><ele>916.5</ele><time>2026-04-18T10:07:19Z</time></trkpt><trkpt lat="42.28346898703735" lon="13.836774055551674"><ele>916.3333333333333</ele><time>2026-04-18T10:07:20Z</time></trkpt><trkpt lat="42.28354393854946" lon="13.836788204417703"><ele>916.1666666666666</ele><time>2026-04-18T10:07:21Z</time></trkpt><trkpt lat="42.28361912138485" lon="13.836778720515603"><ele>916.0</ele><time>2026-04-18T10:07:22Z</time></trkpt><trkpt lat="42.283678266110805" lon="13.836809373254884"><ele>916.0</ele><time>2026-04-18T10:07:23Z</time></trkpt><trkpt lat="42.283792600436655" lon="13.83672247002457"><ele>915.9999999999999</ele><time>2026-04-18T10:07:25Z</time></trkpt><trkpt lat="42.2839226060724" lon="13.83671412421746"><ele>915.9999999999999</ele><time>2026-04-18T10:07:27Z</time></trkpt><trkpt lat="42.28399569493146" lon="13.836686830098909"><ele>916.0</ele><time>2026-04-18T10:07:28Z</time></trkpt><trkpt lat="42.284069007681026" lon="13.83665642991321"><ele>916.0</ele><time>2026-04-18T10:07:29Z</time></trkpt><trkpt lat="42.284138886460404" lon="13.836610841867666"><ele>914.9999999999999</ele><time>2026-04-18T10:07:30Z</time></trkpt><trkpt lat="42.28420306113356" lon="13.836540445240143"><ele>914.0</ele><time>2026-04-18T10:07:31Z</time></trkpt><trkpt lat="42.284263935761636" lon="13.836458127342507"><ele>913.0</ele><time>2026-04-18T10:07:32Z</time></trkpt><trkpt lat="42.28431749505403" lon="13.836380176833764"><ele>912.0</ele><time>2026-04-18T10:07:33Z</time></trkpt><trkpt lat="42.2843859777128" lon="13.836313177557685"><ele>910.9999999999999</ele><time>2026-04-18T10:07:34Z</time></trkpt><trkpt lat="42.284466834788006" lon="13.836254151733497"><ele>910.0</ele><time>2026-04-18T10:07:35Z</time></trkpt><trkpt lat="42.28455556447993" lon="13.836199773097144"><ele>910.0</ele><time>2026-04-18T10:07:36Z</time></trkpt><trkpt lat="42.28464938310479" lon="13.836157751723523"><ele>910.0</ele><time>2026-04-18T10:07:37Z</time></trkpt><trkpt lat="42.28474644715412" lon="13.836121542549824"><ele>910.0</ele><time>2026-04-18T10:07:38Z</time></trkpt><trkpt lat="42.28484264532351" lon="13.836096003007176"><ele>910.0</ele><time>2026-04-18T10:07:39Z</time></trkpt><trkpt lat="42.28494371303398" lon="13.836071828052225"><ele>910.0</ele><time>2026-04-18T10:07:40Z</time></trkpt><trkpt lat="42.28504885267584" lon="13.8360485484628"><ele>907.4999999999999</ele><time>2026-04-18T10:07:41Z</time></trkpt><trkpt lat="42.28513703167087" lon="13.83602692710042"><ele>905.0</ele><time>2026-04-18T10:07:42Z</time></trkpt><trkpt lat="42.2852019564107" lon="13.83601116307626"><ele>902.5</ele><time>2026-04-18T10:07:43Z</time></trkpt><trkpt lat="42.28526517456366" lon="13.835993232176818"><ele>900.0</ele><time>2026-04-18T10:07:44Z</time></trkpt><trkpt lat="42.28533279444036" lon="13.835979232903258"><ele>897.4999999999999</ele><time>2026-04-18T10:07:44.999Z</time></trkpt><trkpt lat="42.28539599687189" lon="13.835965964996412"><ele>895.0</ele><time>2026-04-18T10:07:45.999Z</time></trkpt><trkpt lat="42.28550114275329" lon="13.835940572946694"><ele>899.6</ele><time>2026-04-18T10:07:47.999Z</time></trkpt><trkpt lat="42.28560684016248" lon="13.835926767735241"><ele>904.2</ele><time>2026-04-18T10:07:49.999Z</time></trkpt><trkpt lat="42.285713612910634" lon="13.83591131774651"><ele>908.8</ele><time>2026-04-18T10:07:51.999Z</time></trkpt><trkpt lat="42.28582318401701" lon="13.83590226951805"><ele>913.4</ele><time>2026-04-18T10:07:53.999Z</time></trkpt><trkpt lat="42.28588875946714" lon="13.835889875076779"><ele>918.0</ele><time>2026-04-18T10:07:54.999Z</time></trkpt><trkpt lat="42.28595275547185" lon="13.835876550313142"><ele>918.0</ele><time>2026-04-18T10:07:55.999Z</time></trkpt><trkpt lat="42.28602124751509" lon="13.835870338849876"><ele>918.0</ele><time>2026-04-18T10:07:56.999Z</time></trkpt><trkpt lat="42.28609307544194" lon="13.835867253720107"><ele>918.0</ele><time>2026-04-18T10:07:57.999Z</time></trkpt><trkpt lat="42.286164131194376" lon="13.835866087280396"><ele>918.0</ele><time>2026-04-18T10:07:58.999Z</time></trkpt><trkpt lat="42.28623330397451" lon="13.835859488618604"><ele>918.0</ele><time>2026-04-18T10:07:59.999Z</time></trkpt><trkpt lat="42.286301611614384" lon="13.835853865886483"><ele>918.0</ele><time>2026-04-18T10:08:00.999Z</time></trkpt><trkpt lat="42.28637424304576" lon="13.835848786561847"><ele>918.0</ele><time>2026-04-18T10:08:01.999Z</time></trkpt><trkpt lat="42.28644817861659" lon="13.835842190847515"><ele>917.7142857142858</ele><time>2026-04-18T10:08:02.999Z</time></trkpt><trkpt lat="42.286522107898016" lon="13.835832174520759"><ele>917.4285714285713</ele><time>2026-04-18T10:08:03.999Z</time></trkpt><trkpt lat="42.28659490114231" lon="13.835820504340825"><ele>917.1428571428571</ele><time>2026-04-18T10:08:04.999Z</time></trkpt><trkpt lat="42.286671318979074" lon="13.835809838266602"><ele>916.8571428571429</ele><time>2026-04-18T10:08:05.999Z</time></trkpt><trkpt lat="42.28674522009461" lon="13.835797137034424"><ele>916.5714285714287</ele><time>2026-04-18T10:08:06.999Z</time></trkpt><trkpt lat="42.28681499007564" lon="13.835788101560048"><ele>916.2857142857142</ele><time>2026-04-18T10:08:07.999Z</time></trkpt><trkpt lat="42.28688521737166" lon="13.835774100605523"><ele>916.0</ele><time>2026-04-18T10:08:08.999Z</time></trkpt><trkpt lat="42.28696237175943" lon="13.835765124547702"><ele>915.9999999999999</ele><time>2026-04-18T10:08:09.999Z</time></trkpt><trkpt lat="42.28704397780974" lon="13.835746350700981"><ele>916.0</ele><time>2026-04-18T10:08:10.999Z</time></trkpt><trkpt lat="42.287134351256626" lon="13.835719171290004"><ele>916.0</ele><time>2026-04-18T10:08:11.999Z</time></trkpt><trkpt lat="42.28721708298856" lon="13.835699205450272"><ele>916.0</ele><time>2026-04-18T10:08:12.999Z</time></trkpt><trkpt lat="42.28728805745645" lon="13.835677811094163"><ele>915.9999999999999</ele><time>2026-04-18T10:08:13.999Z</time></trkpt><trkpt lat="42.28735617675157" lon="13.835663321227957"><ele>916.0</ele><time>2026-04-18T10:08:14.999Z</time></trkpt><trkpt lat="42.28742278777603" lon="13.835650286732378"><ele>915.4999999999999</ele><time>2026-04-18T10:08:16Z</time></trkpt><trkpt lat="42.28749743804329" lon="13.835635968713937"><ele>915.0</ele><time>2026-04-18T10:08:17Z</time></trkpt><trkpt lat="42.287574585406304" lon="13.835617217048107"><ele>914.5</ele><time>2026-04-18T10:08:18Z</time></trkpt><trkpt lat="42.28765314594432" lon="13.835600194713512"><ele>914.0</ele><time>2026-04-18T10:08:19Z</time></trkpt><trkpt lat="42.28773664003169" lon="13.835576350831829"><ele>913.4999999999999</ele><time>2026-04-18T10:08:20Z</time></trkpt><trkpt lat="42.2878358452926" lon="13.835542646342633"><ele>913.0</ele><time>2026-04-18T10:08:21Z</time></trkpt><trkpt lat="42.28794197459875" lon="13.835510413269335"><ele>913.0</ele><time>2026-04-18T10:08:22Z</time></trkpt><trkpt lat="42.288041298318525" lon="13.835482412800085"><ele>913.0</ele><time>2026-04-18T10:08:23Z</time></trkpt><trkpt lat="42.288140477692444" lon="13.835443159456116"><ele>913.0</ele><time>2026-04-18T10:08:24Z</time></trkpt><trkpt lat="42.28824138771047" lon="13.83541078886053"><ele>913.0</ele><time>2026-04-18T10:08:25Z</time></trkpt><trkpt lat="42.28834265000274" lon="13.835386272666033"><ele>913.0</ele><time>2026-04-18T10:08:26Z</time></trkpt><trkpt lat="42.28844882065526" lon="13.835368476104543"><ele>911.8</ele><time>2026-04-18T10:08:27Z</time></trkpt><trkpt lat="42.28855721026962" lon="13.835364057751455"><ele>910.5999999999999</ele><time>2026-04-18T10:08:28Z</time></trkpt><trkpt lat="42.288666294302296" lon="13.83538488894095"><ele>909.4000000000001</ele><time>2026-04-18T10:08:29Z</time></trkpt><trkpt lat="42.288778300114856" lon="13.835417487276219"><ele>908.2</ele><time>2026-04-18T10:08:30Z</time></trkpt><trkpt lat="42.28888487591748" lon="13.83545148330226"><ele>907.0</ele><time>2026-04-18T10:08:31Z</time></trkpt><trkpt lat="42.28899921405967" lon="13.835474396005628"><ele>907.0</ele><time>2026-04-18T10:08:32Z</time></trkpt><trkpt lat="42.28911326621699" lon="13.83549603698603"><ele>907.0</ele><time>2026-04-18T10:08:33Z</time></trkpt><trkpt lat="42.28922308874594" lon="13.835524322602515"><ele>907.0</ele><time>2026-04-18T10:08:34Z</time></trkpt><trkpt lat="42.28932601424523" lon="13.835552691344306"><ele>907.0</ele><time>2026-04-18T10:08:35Z</time></trkpt><trkpt lat="42.28942458791751" lon="13.835576628155994"><ele>907.0</ele><time>2026-04-18T10:08:36Z</time></trkpt><trkpt lat="42.2895215654453" lon="13.835603202243453"><ele>907.0</ele><time>2026-04-18T10:08:37Z</time></trkpt><trkpt lat="42.28961964453427" lon="13.835634078519284"><ele>907.0</ele><time>2026-04-18T10:08:38Z</time></trkpt><trkpt lat="42.28972382277901" lon="13.835658413692462"><ele>907.0</ele><time>2026-04-18T10:08:39Z</time></trkpt><trkpt lat="42.28983302093539" lon="13.835681632788166"><ele>907.0</ele><time>2026-04-18T10:08:40Z</time></trkpt><trkpt lat="42.289943912352015" lon="13.835709272841575"><ele>907.0</ele><time>2026-04-18T10:08:41Z</time></trkpt><trkpt lat="42.290046020739425" lon="13.83573614730706"><ele>907.6</ele><time>2026-04-18T10:08:42Z</time></trkpt><trkpt lat="42.290141033257385" lon="13.835760014118136"><ele>908.2</ele><time>2026-04-18T10:08:43Z</time></trkpt><trkpt lat="42.290236080840764" lon="13.835796694367605"><ele>908.8</ele><time>2026-04-18T10:08:44Z</time></trkpt><trkpt lat="42.290328538992945" lon="13.835849041148396"><ele>909.4</ele><time>2026-04-18T10:08:45Z</time></trkpt><trkpt lat="42.290416949946696" lon="13.835907923492192"><ele>910.0</ele><time>2026-04-18T10:08:46Z</time></trkpt><trkpt lat="42.29049609931872" lon="13.835970556398545"><ele>908.8</ele><time>2026-04-18T10:08:47Z</time></trkpt><trkpt lat="42.29056962124886" lon="13.836045536220723"><ele>907.6</ele><time>2026-04-18T10:08:48Z</time></trkpt><trkpt lat="42.29063752909616" lon="13.8361069939073"><ele>906.4000000000001</ele><time>2026-04-18T10:08:49Z</time></trkpt><trkpt lat="42.29071615647823" lon="13.836169204927327"><ele>905.2</ele><time>2026-04-18T10:08:50Z</time></trkpt><trkpt lat="42.29079729103958" lon="13.836252771175362"><ele>904.0</ele><time>2026-04-18T10:08:51Z</time></trkpt><trkpt lat="42.29088384674618" lon="13.836347612983296"><ele>904.0</ele><time>2026-04-18T10:08:52Z</time></trkpt><trkpt lat="42.29098800732294" lon="13.83644317117991"><ele>904.0</ele><time>2026-04-18T10:08:53Z</time></trkpt><trkpt lat="42.29109380297817" lon="13.836553863981328"><ele>904.0</ele><time>2026-04-18T10:08:54Z</time></trkpt><trkpt lat="42.291193556357726" lon="13.836667859495687"><ele>904.0</ele><time>2026-04-18T10:08:55Z</time></trkpt><trkpt lat="42.29129459881947" lon="13.836773706623989"><ele>900.5</ele><time>2026-04-18T10:08:56Z</time></trkpt><trkpt lat="42.29139565967035" lon="13.836874064274685"><ele>897.0</ele><time>2026-04-18T10:08:57Z</time></trkpt><trkpt lat="42.29150057669786" lon="13.836967275629236"><ele>893.5</ele><time>2026-04-18T10:08:58Z</time></trkpt><trkpt lat="42.29161058622672" lon="13.837040846388339"><ele>890.0</ele><time>2026-04-18T10:08:59Z</time></trkpt><trkpt lat="42.29173043792956" lon="13.837085840288626"><ele>890.0</ele><time>2026-04-18T10:09:00Z</time></trkpt><trkpt lat="42.29185933871055" lon="13.837108060645173"><ele>890.0</ele><time>2026-04-18T10:09:01Z</time></trkpt><trkpt lat="42.29198529035045" lon="13.837143900073633"><ele>890.0</ele><time>2026-04-18T10:09:02Z</time></trkpt><trkpt lat="42.29210733503636" lon="13.83721349059911"><ele>890.0</ele><time>2026-04-18T10:09:03Z</time></trkpt><trkpt lat="42.292235266516606" lon="13.837311274042252"><ele>888.6666666666667</ele><time>2026-04-18T10:09:04Z</time></trkpt><trkpt lat="42.29235534892156" lon="13.837425538419046"><ele>887.3333333333333</ele><time>2026-04-18T10:09:05Z</time></trkpt><trkpt lat="42.292470256149656" lon="13.83755644502851"><ele>886.0</ele><time>2026-04-18T10:09:06Z</time></trkpt><trkpt lat="42.29258160493749" lon="13.837719010357521"><ele>886.0</ele><time>2026-04-18T10:09:07Z</time></trkpt><trkpt lat="42.29268262419294" lon="13.837918299430582"><ele>886.0</ele><time>2026-04-18T10:09:08Z</time></trkpt><trkpt lat="42.29275890731652" lon="13.83812461527821"><ele>886.0</ele><time>2026-04-18T10:09:09Z</time></trkpt><trkpt lat="42.29281625267039" lon="13.838329682393411"><ele>881.25</ele><time>2026-04-18T10:09:10Z</time></trkpt><trkpt lat="42.2928580400964" lon="13.838517713029406"><ele>876.5</ele><time>2026-04-18T10:09:11Z</time></trkpt><trkpt lat="42.29290215864465" lon="13.838680513547787"><ele>871.75</ele><time>2026-04-18T10:09:12Z</time></trkpt><trkpt lat="42.292975286967575" lon="13.838827037032056"><ele>867.0</ele><time>2026-04-18T10:09:13Z</time></trkpt><trkpt lat="42.293071030959055" lon="13.838956499229743"><ele>874.0</ele><time>2026-04-18T10:09:14Z</time></trkpt><trkpt lat="42.293168702560926" lon="13.839061940554851"><ele>881.0</ele><time>2026-04-18T10:09:15Z</time></trkpt><trkpt lat="42.293284500514176" lon="13.839136280348567"><ele>888.0</ele><time>2026-04-18T10:09:16Z</time></trkpt><trkpt lat="42.2933925279562" lon="13.83919567085884"><ele>895.0</ele><time>2026-04-18T10:09:17Z</time></trkpt><trkpt lat="42.29349568668411" lon="13.83926101470289"><ele>888.75</ele><time>2026-04-18T10:09:18Z</time></trkpt><trkpt lat="42.29359508269898" lon="13.839327731119445"><ele>882.5</ele><time>2026-04-18T10:09:19Z</time></trkpt><trkpt lat="42.29369770982383" lon="13.839400326497868"><ele>876.25</ele><time>2026-04-18T10:09:20Z</time></trkpt><trkpt lat="42.293802821186" lon="13.83946846037161"><ele>870.0</ele><time>2026-04-18T10:09:21Z</time></trkpt><trkpt lat="42.29391362422838" lon="13.83953791240556"><ele>875.25</ele><time>2026-04-18T10:09:22Z</time></trkpt><trkpt lat="42.294023853983205" lon="13.839610963850282"><ele>880.5</ele><time>2026-04-18T10:09:23Z</time></trkpt><trkpt lat="42.2941256005994" lon="13.839678256677951"><ele>885.75</ele><time>2026-04-18T10:09:24Z</time></trkpt><trkpt lat="42.29422656211325" lon="13.839744939405504"><ele>891.0</ele><time>2026-04-18T10:09:25Z</time></trkpt><trkpt lat="42.29432452868876" lon="13.839810960889928"><ele>891.0</ele><time>2026-04-18T10:09:26Z</time></trkpt><trkpt lat="42.29441375303325" lon="13.8398776015327"><ele>890.9999999999999</ele><time>2026-04-18T10:09:27Z</time></trkpt><trkpt lat="42.29450942004951" lon="13.83994432094524"><ele>890.9999999999999</ele><time>2026-04-18T10:09:28Z</time></trkpt><trkpt lat="42.294610228756454" lon="13.840006193662848"><ele>891.0</ele><time>2026-04-18T10:09:29Z</time></trkpt><trkpt lat="42.294705858439066" lon="13.840064165352773"><ele>891.0</ele><time>2026-04-18T10:09:30Z</time></trkpt><trkpt lat="42.29477595913072" lon="13.840107348431614"><ele>888.0</ele><time>2026-04-18T10:09:31Z</time></trkpt><trkpt lat="42.294840388299725" lon="13.840138451476744"><ele>885.0</ele><time>2026-04-18T10:09:33Z</time></trkpt><trkpt lat="42.29482424493897" lon="13.84023320388088"><ele>882.0</ele><time>2026-04-18T10:09:47.999Z</time></trkpt><trkpt lat="42.29478574939193" lon="13.840310680722405"><ele>879.0</ele><time>2026-04-18T10:09:49.999Z</time></trkpt><trkpt lat="42.29474791019418" lon="13.840438165504878"><ele>876.0</ele><time>2026-04-18T10:09:54.999Z</time></trkpt><trkpt lat="42.294766227796366" lon="13.840540738124792"><ele>873.0</ele><time>2026-04-18T10:09:56.999Z</time></trkpt><trkpt lat="42.29481427063329" lon="13.840641860378675"><ele>873.0</ele><time>2026-04-18T10:09:58.999Z</time></trkpt><trkpt lat="42.29487037796415" lon="13.840714857279616"><ele>873.0</ele><time>2026-04-18T10:10:00.999Z</time></trkpt><trkpt lat="42.29494371746333" lon="13.840766301710886"><ele>873.0</ele><time>2026-04-18T10:10:02.999Z</time></trkpt><trkpt lat="42.29502079924099" lon="13.840813559146948"><ele>873.0</ele><time>2026-04-18T10:10:05.999Z</time></trkpt><trkpt lat="42.29509312782662" lon="13.840885413189554"><ele>873.0</ele><time>2026-04-18T10:10:08.999Z</time></trkpt><trkpt lat="42.29513911775324" lon="13.840944350600743"><ele>873.0</ele><time>2026-04-18T10:10:12.999Z</time></trkpt><trkpt lat="42.29515432099645" lon="13.841029792521665"><ele>870.4285714285713</ele><time>2026-04-18T10:10:15.999Z</time></trkpt><trkpt lat="42.295163306159964" lon="13.841123206523905"><ele>867.8571428571429</ele><time>2026-04-18T10:10:33Z</time></trkpt><trkpt lat="42.29517609884587" lon="13.841228350510617"><ele>865.2857142857142</ele><time>2026-04-18T10:10:40Z</time></trkpt><trkpt lat="42.29515349250624" lon="13.841314364627307"><ele>862.7142857142857</ele><time>2026-04-18T10:10:43Z</time></trkpt><trkpt lat="42.29512108517444" lon="13.8413980240661"><ele>860.1428571428571</ele><time>2026-04-18T10:10:46Z</time></trkpt><trkpt lat="42.2950918226006" lon="13.841487285672917"><ele>857.5714285714286</ele><time>2026-04-18T10:11:11Z</time></trkpt><trkpt lat="42.29504513151058" lon="13.841550784710881"><ele>855.0</ele><time>2026-04-18T10:11:14Z</time></trkpt><trkpt lat="42.29497787951766" lon="13.841615829361299"><ele>855.0</ele><time>2026-04-18T10:11:17Z</time></trkpt><trkpt lat="42.29491678110176" lon="13.841664125742465"><ele>855.0</ele><time>2026-04-18T10:11:21Z</time></trkpt><trkpt lat="42.294867506425405" lon="13.841735864184889"><ele>855.0</ele><time>2026-04-18T10:11:24Z</time></trkpt><trkpt lat="42.29486591665921" lon="13.841836834594892"><ele>855.0</ele><time>2026-04-18T10:11:26Z</time></trkpt><trkpt lat="42.29493796872867" lon="13.841918384934035"><ele>855.0</ele><time>2026-04-18T10:11:29Z</time></trkpt><trkpt lat="42.29498467278586" lon="13.841992275404955"><ele>855.0</ele><time>2026-04-18T10:11:31Z</time></trkpt><trkpt lat="42.29495801943701" lon="13.842104822816275"><ele>852.1666666666666</ele><time>2026-04-18T10:11:34Z</time></trkpt><trkpt lat="42.29493345678149" lon="13.842208124330968"><ele>849.3333333333333</ele><time>2026-04-18T10:11:36Z</time></trkpt><trkpt lat="42.2949827714268" lon="13.842297381183542"><ele>846.5</ele><time>2026-04-18T10:11:38Z</time></trkpt><trkpt lat="42.29501889198758" lon="13.842408993256635"><ele>843.6666666666666</ele><time>2026-04-18T10:11:41Z</time></trkpt><trkpt lat="42.29504947019474" lon="13.8425226045472"><ele>840.8333333333333</ele><time>2026-04-18T10:11:43Z</time></trkpt><trkpt lat="42.295072942487025" lon="13.8426190389432"><ele>838.0</ele><time>2026-04-18T10:11:46.999Z</time></trkpt><trkpt lat="42.29507463207964" lon="13.842720034637564"><ele>834.1666666666666</ele><time>2026-04-18T10:11:48.999Z</time></trkpt><trkpt lat="42.29506722099451" lon="13.842818300942822"><ele>830.3333333333333</ele><time>2026-04-18T10:11:50.999Z</time></trkpt><trkpt lat="42.295089741915305" lon="13.842945796918508"><ele>826.5</ele><time>2026-04-18T10:11:53.999Z</time></trkpt><trkpt lat="42.29514811807725" lon="13.843011485171656"><ele>822.6666666666667</ele><time>2026-04-18T10:11:55.999Z</time></trkpt><trkpt lat="42.29519829810422" lon="13.843096309457017"><ele>818.8333333333334</ele><time>2026-04-18T10:11:57.999Z</time></trkpt><trkpt lat="42.295239896135975" lon="13.843210247552161"><ele>815.0</ele><time>2026-04-18T10:11:59.999Z</time></trkpt><trkpt lat="42.295263328551385" lon="13.843297769950626"><ele>815.0</ele><time>2026-04-18T10:12:01.999Z</time></trkpt><trkpt lat="42.295293758063366" lon="13.843386203332418"><ele>815.0</ele><time>2026-04-18T10:12:03.999Z</time></trkpt><trkpt lat="42.29533216584974" lon="13.843463967418154"><ele>815.0</ele><time>2026-04-18T10:12:05.999Z</time></trkpt><trkpt lat="42.295338183315145" lon="13.843555204425334"><ele>815.0</ele><time>2026-04-18T10:12:07.999Z</time></trkpt><trkpt lat="42.29528260844605" lon="13.843624805838106"><ele>815.0</ele><time>2026-04-18T10:12:09.999Z</time></trkpt><trkpt lat="42.295221301435774" lon="13.843647619936359"><ele>815.0</ele><time>2026-04-18T10:12:30Z</time></trkpt><trkpt lat="42.29514768449937" lon="13.843634576874347"><ele>815.0</ele><time>2026-04-18T10:12:34Z</time></trkpt><trkpt lat="42.29508529103276" lon="13.843608993517803"><ele>810.6666666666667</ele><time>2026-04-18T10:12:36Z</time></trkpt><trkpt lat="42.29500429508623" lon="13.843616267065537"><ele>806.3333333333334</ele><time>2026-04-18T10:12:38Z</time></trkpt><trkpt lat="42.294946356772414" lon="13.843664467884265"><ele>802.0</ele><time>2026-04-18T10:12:51Z</time></trkpt><trkpt lat="42.29488839118647" lon="13.843700716826767"><ele>797.6666666666667</ele><time>2026-04-18T10:12:55Z</time></trkpt><trkpt lat="42.29488668326884" lon="13.843812313076636"><ele>793.3333333333334</ele><time>2026-04-18T10:12:58Z</time></trkpt><trkpt lat="42.29495003616958" lon="13.843907359916221"><ele>789.0</ele><time>2026-04-18T10:13:01Z</time></trkpt><trkpt lat="42.29499980012731" lon="13.84401740729965"><ele>789.0</ele><time>2026-04-18T10:13:04Z</time></trkpt><trkpt lat="42.29505381294871" lon="13.844112523642826"><ele>789.0</ele><time>2026-04-18T10:13:06Z</time></trkpt><trkpt lat="42.29510346941935" lon="13.844185621730304"><ele>789.0</ele><time>2026-04-18T10:13:08Z</time></trkpt><trkpt lat="42.29514348879571" lon="13.844264770655764"><ele>789.0</ele><time>2026-04-18T10:13:10Z</time></trkpt><trkpt lat="42.295183147945714" lon="13.844378210660652"><ele>789.0</ele><time>2026-04-18T10:13:12Z</time></trkpt><trkpt lat="42.29519334123814" lon="13.844479819269534"><ele>789.0</ele><time>2026-04-18T10:13:14Z</time></trkpt><trkpt lat="42.29522545246654" lon="13.844573137798509"><ele>786.3333333333334</ele><time>2026-04-18T10:13:16Z</time></trkpt><trkpt lat="42.29526236304822" lon="13.844692273413155"><ele>783.6666666666667</ele><time>2026-04-18T10:13:18Z</time></trkpt><trkpt lat="42.295279164814936" lon="13.844806191943157"><ele>781.0</ele><time>2026-04-18T10:13:20Z</time></trkpt><trkpt lat="42.295268960456404" lon="13.84489812562314"><ele>778.3333333333334</ele><time>2026-04-18T10:13:22Z</time></trkpt><trkpt lat="42.295207668500936" lon="13.844971758517293"><ele>775.6666666666667</ele><time>2026-04-18T10:13:24Z</time></trkpt><trkpt lat="42.295166645530884" lon="13.845073256269206"><ele>773.0</ele><time>2026-04-18T10:13:26Z</time></trkpt><trkpt lat="42.29514456435692" lon="13.845231336673782"><ele>769.4</ele><time>2026-04-18T10:13:28Z</time></trkpt><trkpt lat="42.29511002124859" lon="13.845369040465709"><ele>765.8</ele><time>2026-04-18T10:13:30Z</time></trkpt><trkpt lat="42.29508618367494" lon="13.845484444854023"><ele>762.2</ele><time>2026-04-18T10:13:32Z</time></trkpt><trkpt lat="42.29505314777664" lon="13.845612989702483"><ele>758.6</ele><time>2026-04-18T10:13:34Z</time></trkpt><trkpt lat="42.2950792439584" lon="13.845735085518609"><ele>755.0</ele><time>2026-04-18T10:13:36Z</time></trkpt><trkpt lat="42.2951676925022" lon="13.845838641433007"><ele>755.0</ele><time>2026-04-18T10:13:38Z</time></trkpt><trkpt lat="42.2952503000916" lon="13.845941574480321"><ele>755.0</ele><time>2026-04-18T10:13:40Z</time></trkpt><trkpt lat="42.295293274220626" lon="13.846014854908791"><ele>755.0</ele><time>2026-04-18T10:13:42Z</time></trkpt><trkpt lat="42.29531168616308" lon="13.846115816381237"><ele>755.0</ele><time>2026-04-18T10:13:44Z</time></trkpt><trkpt lat="42.29531596619993" lon="13.846235450410383"><ele>755.0</ele><time>2026-04-18T10:13:46Z</time></trkpt><trkpt lat="42.29531968865166" lon="13.846333492480422"><ele>755.0</ele><time>2026-04-18T10:13:48Z</time></trkpt><trkpt lat="42.29529755407829" lon="13.846460732437778"><ele>752.8571428571428</ele><time>2026-04-18T10:13:52Z</time></trkpt><trkpt lat="42.295251876142494" lon="13.846528645577278"><ele>750.7142857142858</ele><time>2026-04-18T10:13:54Z</time></trkpt><trkpt lat="42.29521017550121" lon="13.846596595277719"><ele>748.5714285714286</ele><time>2026-04-18T10:13:56Z</time></trkpt><trkpt lat="42.29522715162145" lon="13.84673675700613"><ele>746.4285714285713</ele><time>2026-04-18T10:13:57.999Z</time></trkpt><trkpt lat="42.295237335987075" lon="13.846825512326843"><ele>744.2857142857142</ele><time>2026-04-18T10:13:59.999Z</time></trkpt><trkpt lat="42.29524676216571" lon="13.846910534961873"><ele>742.1428571428571</ele><time>2026-04-18T10:14:01.999Z</time></trkpt><trkpt lat="42.2952724720036" lon="13.847010790249469"><ele>740.0</ele><time>2026-04-18T10:14:03.999Z</time></trkpt><trkpt lat="42.295297673764665" lon="13.84711247467444"><ele>736.4</ele><time>2026-04-18T10:14:05.999Z</time></trkpt><trkpt lat="42.29535208935096" lon="13.847178086655386"><ele>732.8</ele><time>2026-04-18T10:14:07.999Z</time></trkpt><trkpt lat="42.29543123717655" lon="13.84725811321256"><ele>729.2</ele><time>2026-04-18T10:14:09.999Z</time></trkpt><trkpt lat="42.29547661761175" lon="13.847371399051902"><ele>725.6</ele><time>2026-04-18T10:14:11.999Z</time></trkpt><trkpt lat="42.29549930280608" lon="13.847502646765928"><ele>722.0</ele><time>2026-04-18T10:14:13.999Z</time></trkpt><trkpt lat="42.29551573926998" lon="13.847643147641561"><ele>718.0</ele><time>2026-04-18T10:14:15.999Z</time></trkpt><trkpt lat="42.29550151992317" lon="13.84779509819293"><ele>714.0</ele><time>2026-04-18T10:14:17.999Z</time></trkpt><trkpt lat="42.29549507791911" lon="13.847943076416831"><ele>710.0</ele><time>2026-04-18T10:14:19.999Z</time></trkpt><trkpt lat="42.29548058430642" lon="13.84808660303935"><ele>706.0</ele><time>2026-04-18T10:14:21.999Z</time></trkpt><trkpt lat="42.295465551575546" lon="13.848232063073677"><ele>702.0</ele><time>2026-04-18T10:14:23.999Z</time></trkpt><trkpt lat="42.295435273114805" lon="13.848381014592944"><ele>698.8</ele><time>2026-04-18T10:14:25.999Z</time></trkpt><trkpt lat="42.29541691174915" lon="13.848538831054007"><ele>695.6</ele><time>2026-04-18T10:14:27.999Z</time></trkpt><trkpt lat="42.29540290317328" lon="13.84864767930085"><ele>692.4</ele><time>2026-04-18T10:14:29.999Z</time></trkpt><trkpt lat="42.295404817480545" lon="13.848765058685897"><ele>689.1999999999999</ele><time>2026-04-18T10:14:31.999Z</time></trkpt><trkpt lat="42.295421790096064" lon="13.848872103855555"><ele>686.0</ele><time>2026-04-18T10:14:34Z</time></trkpt><trkpt lat="42.29547899204019" lon="13.848975931323704"><ele>686.0</ele><time>2026-04-18T10:14:36Z</time></trkpt><trkpt lat="42.29556119868645" lon="13.849075866593909"><ele>686.0</ele><time>2026-04-18T10:14:38Z</time></trkpt><trkpt lat="42.295660254972674" lon="13.84911559986928"><ele>686.0</ele><time>2026-04-18T10:14:40Z</time></trkpt><trkpt lat="42.29577113711895" lon="13.849058071455442"><ele>686.0</ele><time>2026-04-18T10:14:42Z</time></trkpt><trkpt lat="42.29585256165427" lon="13.84894033391298"><ele>686.5</ele><time>2026-04-18T10:14:44Z</time></trkpt><trkpt lat="42.295922132304895" lon="13.848843074031146"><ele>687.0</ele><time>2026-04-18T10:14:46Z</time></trkpt><trkpt lat="42.29597470668864" lon="13.848777091589415"><ele>687.5</ele><time>2026-04-18T10:14:48Z</time></trkpt><trkpt lat="42.29604123008447" lon="13.84881155793771"><ele>688.0</ele><time>2026-04-18T10:14:51Z</time></trkpt><trkpt lat="42.29602742921946" lon="13.848913200541533"><ele>688.5</ele><time>2026-04-18T10:16:04.999Z</time></trkpt><trkpt lat="42.29596467357472" lon="13.84906056163907"><ele>689.0</ele><time>2026-04-18T10:16:06.999Z</time></trkpt><trkpt lat="42.295892223900076" lon="13.84918597027523"><ele>689.0</ele><time>2026-04-18T10:16:08.999Z</time></trkpt><trkpt lat="42.295848942604046" lon="13.84926394770449"><ele>689.0</ele><time>2026-04-18T10:16:09.999Z</time></trkpt><trkpt lat="42.295787194311835" lon="13.849330497599453"><ele>689.0</ele><time>2026-04-18T10:16:10.999Z</time></trkpt><trkpt lat="42.29571206374926" lon="13.849371047372516"><ele>689.0</ele><time>2026-04-18T10:16:11.999Z</time></trkpt><trkpt lat="42.295631688003866" lon="13.84938380742254"><ele>689.0</ele><time>2026-04-18T10:16:12.999Z</time></trkpt><trkpt lat="42.29555039873794" lon="13.849369887138302"><ele>689.0</ele><time>2026-04-18T10:16:13.999Z</time></trkpt><trkpt lat="42.295479611606744" lon="13.849356949069955"><ele>686.3333333333333</ele><time>2026-04-18T10:16:14.999Z</time></trkpt><trkpt lat="42.295406014799056" lon="13.84935129217704"><ele>683.6666666666666</ele><time>2026-04-18T10:16:16.999Z</time></trkpt><trkpt lat="42.29533948109635" lon="13.849386093628347"><ele>681.0</ele><time>2026-04-18T10:16:28.999Z</time></trkpt><trkpt lat="42.295299739280054" lon="13.849452988044142"><ele>678.3333333333334</ele><time>2026-04-18T10:16:47Z</time></trkpt><trkpt lat="42.29531501736567" lon="13.849563336333766"><ele>675.6666666666667</ele><time>2026-04-18T10:16:53Z</time></trkpt><trkpt lat="42.295425765486" lon="13.849584318431647"><ele>673.0</ele><time>2026-04-18T10:18:11.999Z</time></trkpt><trkpt lat="42.29550377261815" lon="13.849574933708393"><ele>673.0</ele><time>2026-04-18T10:18:12.999Z</time></trkpt><trkpt lat="42.295571803258326" lon="13.849567925416203"><ele>673.0</ele><time>2026-04-18T10:18:13.999Z</time></trkpt><trkpt lat="42.29564500928894" lon="13.849559453808721"><ele>673.0</ele><time>2026-04-18T10:18:14.999Z</time></trkpt><trkpt lat="42.29572652500009" lon="13.849539974189181"><ele>673.0</ele><time>2026-04-18T10:18:15.999Z</time></trkpt><trkpt lat="42.29580301972378" lon="13.849509346848569"><ele>673.0</ele><time>2026-04-18T10:18:16.999Z</time></trkpt><trkpt lat="42.29586804460629" lon="13.84946947251341"><ele>673.0</ele><time>2026-04-18T10:18:17.999Z</time></trkpt><trkpt lat="42.295935060543854" lon="13.849416333044763"><ele>673.6666666666667</ele><time>2026-04-18T10:18:18.999Z</time></trkpt><trkpt lat="42.29600792315565" lon="13.849371187876502"><ele>674.3333333333334</ele><time>2026-04-18T10:18:19.999Z</time></trkpt><trkpt lat="42.29607790016689" lon="13.849349553086862"><ele>675.0</ele><time>2026-04-18T10:18:20.999Z</time></trkpt><trkpt lat="42.29618735746167" lon="13.8493920169714"><ele>675.6666666666666</ele><time>2026-04-18T10:18:22.999Z</time></trkpt><trkpt lat="42.29623207670655" lon="13.849459464078876"><ele>676.3333333333333</ele><time>2026-04-18T10:18:23.999Z</time></trkpt><trkpt lat="42.29625316571766" lon="13.849552195054459"><ele>677.0</ele><time>2026-04-18T10:18:24.999Z</time></trkpt><trkpt lat="42.29625155378769" lon="13.849654225455728"><ele>677.0</ele><time>2026-04-18T10:18:25.999Z</time></trkpt><trkpt lat="42.29622026047697" lon="13.849746547357453"><ele>677.0</ele><time>2026-04-18T10:18:26.999Z</time></trkpt><trkpt lat="42.29617082478993" lon="13.849831218364606"><ele>677.0</ele><time>2026-04-18T10:18:27.999Z</time></trkpt><trkpt lat="42.29611010039196" lon="13.849911748734561"><ele>677.0</ele><time>2026-04-18T10:18:28.999Z</time></trkpt><trkpt lat="42.296051665041865" lon="13.84999103047449"><ele>677.0</ele><time>2026-04-18T10:18:29.999Z</time></trkpt><trkpt lat="42.2960081117354" lon="13.850076514235656"><ele>677.0</ele><time>2026-04-18T10:18:30.999Z</time></trkpt><trkpt lat="42.295985757339096" lon="13.850181732710329"><ele>674.6666666666666</ele><time>2026-04-18T10:18:31.999Z</time></trkpt><trkpt lat="42.29598629426681" lon="13.850308733496629"><ele>672.3333333333333</ele><time>2026-04-18T10:18:32.999Z</time></trkpt><trkpt lat="42.295991799902986" lon="13.850438929615972"><ele>670.0</ele><time>2026-04-18T10:18:33.999Z</time></trkpt><trkpt lat="42.295977887991576" lon="13.850553687190025"><ele>667.6666666666666</ele><time>2026-04-18T10:18:34.999Z</time></trkpt><trkpt lat="42.2959468185881" lon="13.850657958903263"><ele>665.3333333333334</ele><time>2026-04-18T10:18:35.999Z</time></trkpt><trkpt lat="42.29591018293025" lon="13.850766941198964"><ele>663.0</ele><time>2026-04-18T10:18:36.999Z</time></trkpt><trkpt lat="42.29586593569927" lon="13.850871195507022"><ele>661.0</ele><time>2026-04-18T10:18:37.999Z</time></trkpt><trkpt lat="42.29581911870998" lon="13.850963580037543"><ele>659.0</ele><time>2026-04-18T10:18:38.999Z</time></trkpt><trkpt lat="42.29577193386233" lon="13.851040885911761"><ele>657.0</ele><time>2026-04-18T10:18:39.999Z</time></trkpt><trkpt lat="42.29571461992417" lon="13.851100506219266"><ele>655.0</ele><time>2026-04-18T10:18:40.999Z</time></trkpt><trkpt lat="42.295653170220604" lon="13.851134096561614"><ele>653.0</ele><time>2026-04-18T10:18:41.999Z</time></trkpt><trkpt lat="42.29558916051581" lon="13.85115745973186"><ele>651.0</ele><time>2026-04-18T10:18:42.999Z</time></trkpt><trkpt lat="42.29546208229586" lon="13.85120478547331"><ele>651.0</ele><time>2026-04-18T10:18:45Z</time></trkpt><trkpt lat="42.29539780169804" lon="13.85123999230922"><ele>651.0</ele><time>2026-04-18T10:18:46Z</time></trkpt><trkpt lat="42.29533819419569" lon="13.851277052182311"><ele>651.0</ele><time>2026-04-18T10:18:47Z</time></trkpt><trkpt lat="42.295240648263395" lon="13.85133961441432"><ele>651.0</ele><time>2026-04-18T10:18:49Z</time></trkpt><trkpt lat="42.2951405854846" lon="13.851345174099547"><ele>651.0</ele><time>2026-04-18T10:18:51Z</time></trkpt><trkpt lat="42.29507656801719" lon="13.851294631863727"><ele>651.0</ele><time>2026-04-18T10:18:53Z</time></trkpt><trkpt lat="42.29504677115002" lon="13.851196706819279"><ele>651.0</ele><time>2026-04-18T10:18:55Z</time></trkpt><trkpt lat="42.294988444906565" lon="13.851231131727012"><ele>651.0</ele><time>2026-04-18T10:19:00Z</time></trkpt><trkpt lat="42.29500934121414" lon="13.851325524533774"><ele>651.0</ele><time>2026-04-18T10:19:06Z</time></trkpt><trkpt lat="42.29504251700413" lon="13.851431946506349"><ele>651.0</ele><time>2026-04-18T10:19:08Z</time></trkpt><trkpt lat="42.29509417789652" lon="13.851532495186976"><ele>651.0</ele><time>2026-04-18T10:19:10Z</time></trkpt><trkpt lat="42.295149163038225" lon="13.851604871481353"><ele>651.0</ele><time>2026-04-18T10:19:12Z</time></trkpt><trkpt lat="42.29522206004347" lon="13.851663395692007"><ele>651.0</ele><time>2026-04-18T10:19:15Z</time></trkpt><trkpt lat="42.29528149540212" lon="13.851729058503256"><ele>651.0</ele><time>2026-04-18T10:19:17Z</time></trkpt><trkpt lat="42.29534818250965" lon="13.851747248645745"><ele>651.0</ele><time>2026-04-18T10:19:20Z</time></trkpt><trkpt lat="42.29541141843529" lon="13.851792348916897"><ele>651.0</ele><time>2026-04-18T10:19:23Z</time></trkpt><trkpt lat="42.295472807307384" lon="13.851821545669576"><ele>651.0</ele><time>2026-04-18T10:19:25Z</time></trkpt><trkpt lat="42.29560526204385" lon="13.851891955494137"><ele>651.0</ele><time>2026-04-18T10:19:27Z</time></trkpt><trkpt lat="42.29563930334041" lon="13.851979983203542"><ele>649.0</ele><time>2026-04-18T10:19:29Z</time></trkpt><trkpt lat="42.29563262144041" lon="13.852099922126708"><ele>647.0</ele><time>2026-04-18T10:19:31Z</time></trkpt><trkpt lat="42.29558877614057" lon="13.852227967850329"><ele>645.0</ele><time>2026-04-18T10:19:33Z</time></trkpt><trkpt lat="42.29555929652397" lon="13.852359004684024"><ele>643.0</ele><time>2026-04-18T10:19:35Z</time></trkpt><trkpt lat="42.295553476737894" lon="13.85249588077984"><ele>641.0</ele><time>2026-04-18T10:19:37Z</time></trkpt><trkpt lat="42.2955448131209" lon="13.852635131291098"><ele>639.5999999999999</ele><time>2026-04-18T10:19:39Z</time></trkpt><trkpt lat="42.295479197477064" lon="13.8527539884139"><ele>638.1999999999999</ele><time>2026-04-18T10:19:41Z</time></trkpt><trkpt lat="42.29545174957699" lon="13.852905431187544"><ele>636.8</ele><time>2026-04-18T10:19:43Z</time></trkpt><trkpt lat="42.29544788240978" lon="13.853061953658345"><ele>635.4</ele><time>2026-04-18T10:19:45Z</time></trkpt><trkpt lat="42.29548191180754" lon="13.853163023546955"><ele>634.0</ele><time>2026-04-18T10:19:47Z</time></trkpt><trkpt lat="42.295444488143424" lon="13.853270730652602"><ele>634.0</ele><time>2026-04-18T10:19:49Z</time></trkpt><trkpt lat="42.29535593293736" lon="13.853382731315174"><ele>634.0</ele><time>2026-04-18T10:19:51Z</time></trkpt><trkpt lat="42.29529981392582" lon="13.853452191525475"><ele>634.0</ele><time>2026-04-18T10:19:52Z</time></trkpt><trkpt lat="42.295236602987984" lon="13.853524938274242"><ele>634.0</ele><time>2026-04-18T10:19:53Z</time></trkpt><trkpt lat="42.295177175599854" lon="13.853589057996828"><ele>634.0</ele><time>2026-04-18T10:19:54Z</time></trkpt><trkpt lat="42.295120212822226" lon="13.853636426600922"><ele>634.0</ele><time>2026-04-18T10:19:55Z</time></trkpt><trkpt lat="42.29503331395584" lon="13.853705341285663"><ele>632.0</ele><time>2026-04-18T10:19:57Z</time></trkpt><trkpt lat="42.29496685813328" lon="13.85375561572609"><ele>630.0</ele><time>2026-04-18T10:19:59Z</time></trkpt><trkpt lat="42.29494685347733" lon="13.853913582822804"><ele>628.0</ele><time>2026-04-18T10:20:01Z</time></trkpt><trkpt lat="42.29491895294763" lon="13.85402270338026"><ele>626.0</ele><time>2026-04-18T10:20:03Z</time></trkpt><trkpt lat="42.294865384918744" lon="13.85413508037514"><ele>624.0</ele><time>2026-04-18T10:20:05Z</time></trkpt><trkpt lat="42.294758571342484" lon="13.854204872011007"><ele>619.8</ele><time>2026-04-18T10:20:07.999Z</time></trkpt><trkpt lat="42.29463038216081" lon="13.854296593007358"><ele>615.5999999999999</ele><time>2026-04-18T10:20:09.999Z</time></trkpt><trkpt lat="42.294635971565064" lon="13.854402066056114"><ele>611.4</ele><time>2026-04-18T10:20:12.999Z</time></trkpt><trkpt lat="42.294728094002814" lon="13.854502137751304"><ele>607.1999999999999</ele><time>2026-04-18T10:20:14.999Z</time></trkpt><trkpt lat="42.29479286847839" lon="13.85455873081258"><ele>603.0</ele><time>2026-04-18T10:20:15.999Z</time></trkpt><trkpt lat="42.29486011788312" lon="13.854609994631094"><ele>603.0</ele><time>2026-04-18T10:20:16.999Z</time></trkpt><trkpt lat="42.29493497229267" lon="13.8546219086467"><ele>603.0</ele><time>2026-04-18T10:20:18.999Z</time></trkpt><trkpt lat="42.29504274389777" lon="13.854562624090729"><ele>603.0</ele><time>2026-04-18T10:20:20.999Z</time></trkpt><trkpt lat="42.29509811946893" lon="13.854511862812789"><ele>603.0</ele><time>2026-04-18T10:20:21.999Z</time></trkpt><trkpt lat="42.29515930260111" lon="13.854463238972167"><ele>603.0</ele><time>2026-04-18T10:20:22.999Z</time></trkpt><trkpt lat="42.29525243858115" lon="13.854368132576802"><ele>603.0</ele><time>2026-04-18T10:20:24.999Z</time></trkpt><trkpt lat="42.29532010129454" lon="13.854299187198343"><ele>601.8333333333334</ele><time>2026-04-18T10:20:26.999Z</time></trkpt><trkpt lat="42.295367265890604" lon="13.854229496267541"><ele>600.6666666666666</ele><time>2026-04-18T10:20:28.999Z</time></trkpt><trkpt lat="42.29538801401224" lon="13.85412938895866"><ele>599.5</ele><time>2026-04-18T10:20:32.999Z</time></trkpt><trkpt lat="42.295430599794614" lon="13.854049137623445"><ele>598.3333333333333</ele><time>2026-04-18T10:20:35.999Z</time></trkpt><trkpt lat="42.29549133545725" lon="13.853950976910037"><ele>597.1666666666666</ele><time>2026-04-18T10:20:42.999Z</time></trkpt><trkpt lat="42.29553479971474" lon="13.853879893883416"><ele>596.0</ele><time>2026-04-18T10:20:44.999Z</time></trkpt><trkpt lat="42.29560961053685" lon="13.853805023610853"><ele>596.0</ele><time>2026-04-18T10:20:47.999Z</time></trkpt><trkpt lat="42.29569334794776" lon="13.85377877715879"><ele>596.0</ele><time>2026-04-18T10:20:49.999Z</time></trkpt><trkpt lat="42.29577459495068" lon="13.853752116449082"><ele>596.0</ele><time>2026-04-18T10:20:52Z</time></trkpt><trkpt lat="42.29585936913696" lon="13.853722631745972"><ele>596.0</ele><time>2026-04-18T10:20:54Z</time></trkpt><trkpt lat="42.29597276672163" lon="13.853739765329808"><ele>596.0</ele><time>2026-04-18T10:20:56Z</time></trkpt><trkpt lat="42.296080046955296" lon="13.853732134698161"><ele>596.0</ele><time>2026-04-18T10:20:58Z</time></trkpt><trkpt lat="42.29616317611009" lon="13.853696835779044"><ele>596.0</ele><time>2026-04-18T10:21:00Z</time></trkpt><trkpt lat="42.296233140772706" lon="13.853710625888246"><ele>596.0</ele><time>2026-04-18T10:21:02Z</time></trkpt><trkpt lat="42.29628213646045" lon="13.853773476661008"><ele>596.0</ele><time>2026-04-18T10:21:04Z</time></trkpt><trkpt lat="42.29630114454527" lon="13.853894196926527"><ele>596.0</ele><time>2026-04-18T10:21:06Z</time></trkpt><trkpt lat="42.296289345222796" lon="13.854000844929311"><ele>596.0</ele><time>2026-04-18T10:21:08Z</time></trkpt><trkpt lat="42.29643336291651" lon="13.854065615560538"><ele>596.0</ele><time>2026-04-18T10:21:09Z</time></trkpt><trkpt lat="42.29639259703338" lon="13.854163849086497"><ele>596.0</ele><time>2026-04-18T10:21:11Z</time></trkpt><trkpt lat="42.29633006337066" lon="13.854248742758953"><ele>596.0</ele><time>2026-04-18T10:21:13Z</time></trkpt><trkpt lat="42.29624908961463" lon="13.854338480020205"><ele>596.0</ele><time>2026-04-18T10:21:15Z</time></trkpt><trkpt lat="42.29620985211861" lon="13.854443508533372"><ele>596.0</ele><time>2026-04-18T10:21:17Z</time></trkpt><trkpt lat="42.29619599216362" lon="13.854581285658949"><ele>593.1666666666666</ele><time>2026-04-18T10:21:19Z</time></trkpt><trkpt lat="42.296202602138244" lon="13.854671953437451"><ele>590.3333333333333</ele><time>2026-04-18T10:21:20Z</time></trkpt><trkpt lat="42.29620098706131" lon="13.854766249204262"><ele>587.5</ele><time>2026-04-18T10:21:21Z</time></trkpt><trkpt lat="42.296220201777274" lon="13.854879366666845"><ele>584.6666666666666</ele><time>2026-04-18T10:21:23Z</time></trkpt><trkpt lat="42.29630297239215" lon="13.854886313507377"><ele>581.8333333333334</ele><time>2026-04-18T10:21:25Z</time></trkpt><trkpt lat="42.2963703266616" lon="13.854814127718237"><ele>579.0</ele><time>2026-04-18T10:21:27Z</time></trkpt><trkpt lat="42.29641942727013" lon="13.854732835552579"><ele>577.1666666666666</ele><time>2026-04-18T10:21:28.999Z</time></trkpt><trkpt lat="42.29648508883908" lon="13.854722755537509"><ele>575.3333333333334</ele><time>2026-04-18T10:21:31.999Z</time></trkpt><trkpt lat="42.29651441791711" lon="13.854826669239266"><ele>573.5</ele><time>2026-04-18T10:21:34.999Z</time></trkpt><trkpt lat="42.29652127186991" lon="13.854941522410634"><ele>571.6666666666667</ele><time>2026-04-18T10:21:36.999Z</time></trkpt><trkpt lat="42.2965051877894" lon="13.85505282329928"><ele>569.8333333333334</ele><time>2026-04-18T10:21:38.999Z</time></trkpt><trkpt lat="42.29648790059209" lon="13.855165565971436"><ele>568.0</ele><time>2026-04-18T10:21:41.999Z</time></trkpt><trkpt lat="42.29649537533346" lon="13.855265724899569"><ele>565.1999999999999</ele><time>2026-04-18T10:21:53.999Z</time></trkpt><trkpt lat="42.29648086824648" lon="13.855370194639733"><ele>562.4</ele><time>2026-04-18T10:21:55.999Z</time></trkpt><trkpt lat="42.29643691837258" lon="13.855483153421801"><ele>559.5999999999999</ele><time>2026-04-18T10:21:57.999Z</time></trkpt><trkpt lat="42.29634565924616" lon="13.855571049549818"><ele>556.8</ele><time>2026-04-18T10:21:59.999Z</time></trkpt><trkpt lat="42.29626629968926" lon="13.85566302557187"><ele>554.0</ele><time>2026-04-18T10:22:01.999Z</time></trkpt><trkpt lat="42.29610643753782" lon="13.855768576464797"><ele>554.0</ele><time>2026-04-18T10:22:02.999Z</time></trkpt><trkpt lat="42.296053266232605" lon="13.855843181480985"><ele>554.0</ele><time>2026-04-18T10:22:03.999Z</time></trkpt><trkpt lat="42.29601361084818" lon="13.855917928456806"><ele>554.0</ele><time>2026-04-18T10:22:04.999Z</time></trkpt><trkpt lat="42.29595661811339" lon="13.856066739303506"><ele>554.0</ele><time>2026-04-18T10:22:06.999Z</time></trkpt><trkpt lat="42.295906693206895" lon="13.85613399698432"><ele>554.0</ele><time>2026-04-18T10:22:07.999Z</time></trkpt><trkpt lat="42.295851023005085" lon="13.856201113854537"><ele>554.0</ele><time>2026-04-18T10:22:08.999Z</time></trkpt><trkpt lat="42.2958019608322" lon="13.856256209004115"><ele>550.6666666666666</ele><time>2026-04-18T10:22:09.999Z</time></trkpt><trkpt lat="42.29576721843587" lon="13.856358611453297"><ele>547.3333333333333</ele><time>2026-04-18T10:22:11.999Z</time></trkpt><trkpt lat="42.295778797512966" lon="13.856456556879868"><ele>544.0</ele><time>2026-04-18T10:22:13.999Z</time></trkpt><trkpt lat="42.29584803355235" lon="13.85649577005482"><ele>540.6666666666666</ele><time>2026-04-18T10:22:15.999Z</time></trkpt><trkpt lat="42.295938403175114" lon="13.856489805016889"><ele>537.3333333333334</ele><time>2026-04-18T10:22:17.999Z</time></trkpt><trkpt lat="42.296007343306215" lon="13.85637888523241"><ele>534.0</ele><time>2026-04-18T10:22:19.999Z</time></trkpt><trkpt lat="42.29604401933213" lon="13.85627713216763"><ele>534.0</ele><time>2026-04-18T10:22:20.999Z</time></trkpt><trkpt lat="42.29613146932756" lon="13.856216679146218"><ele>534.0</ele><time>2026-04-18T10:22:22.999Z</time></trkpt><trkpt lat="42.296190077612636" lon="13.856176068300726"><ele>534.0</ele><time>2026-04-18T10:22:23.999Z</time></trkpt><trkpt lat="42.29625179529172" lon="13.856105346100271"><ele>534.0</ele><time>2026-04-18T10:22:24.999Z</time></trkpt><trkpt lat="42.29631698507824" lon="13.856130850415191"><ele>534.0</ele><time>2026-04-18T10:22:26.999Z</time></trkpt><trkpt lat="42.296403640691715" lon="13.856159566350977"><ele>534.0</ele><time>2026-04-18T10:22:29.999Z</time></trkpt><trkpt lat="42.296471282312396" lon="13.856163985413662"><ele>534.3333333333334</ele><time>2026-04-18T10:22:33.999Z</time></trkpt><trkpt lat="42.29652427953297" lon="13.856219011777105"><ele>534.6666666666666</ele><time>2026-04-18T10:23:52Z</time></trkpt><trkpt lat="42.29661315894849" lon="13.856246744653296"><ele>535.0</ele><time>2026-04-18T10:25:32Z</time></trkpt><trkpt lat="42.296605564709374" lon="13.856353172276751"><ele>535.3333333333333</ele><time>2026-04-18T10:25:35Z</time></trkpt><trkpt lat="42.29666255229302" lon="13.8564402884885"><ele>535.6666666666666</ele><time>2026-04-18T10:25:37Z</time></trkpt><trkpt lat="42.29673082622222" lon="13.856414667477349"><ele>536.0</ele><time>2026-04-18T10:25:40Z</time></trkpt><trkpt lat="42.296778323223556" lon="13.856505612269324"><ele>536.0</ele><time>2026-04-18T10:27:05.999Z</time></trkpt><trkpt lat="42.29680286496874" lon="13.856584378741665"><ele>536.0</ele><time>2026-04-18T10:27:09Z</time></trkpt><trkpt lat="42.29684299129877" lon="13.85667869504784"><ele>536.0</ele><time>2026-04-18T10:27:37Z</time></trkpt><trkpt lat="42.296895196800364" lon="13.856732792983962"><ele>536.0</ele><time>2026-04-18T10:28:20Z</time></trkpt><trkpt lat="42.296924609419136" lon="13.85685581726194"><ele>536.0</ele><time>2026-04-18T10:28:23Z</time></trkpt><trkpt lat="42.29695992903069" lon="13.856953771467884"><ele>536.0</ele><time>2026-04-18T10:28:25Z</time></trkpt><trkpt lat="42.297002237004605" lon="13.857036589465409"><ele>538.5</ele><time>2026-04-18T10:28:30Z</time></trkpt><trkpt lat="42.29700584383797" lon="13.857138151874828"><ele>541.0</ele><time>2026-04-18T10:28:32.999Z</time></trkpt><trkpt lat="42.29693254843192" lon="13.857252719530912"><ele>543.5</ele><time>2026-04-18T10:28:35.999Z</time></trkpt><trkpt lat="42.29688528438365" lon="13.857310226364577"><ele>546.0</ele><time>2026-04-18T10:28:36.999Z</time></trkpt><trkpt lat="42.29684304583272" lon="13.857374786081827"><ele>548.5</ele><time>2026-04-18T10:28:37.999Z</time></trkpt><trkpt lat="42.296783390061485" lon="13.857433352935669"><ele>551.0</ele><time>2026-04-18T10:28:39.999Z</time></trkpt><trkpt lat="42.29671120451155" lon="13.857484442645221"><ele>551.0</ele><time>2026-04-18T10:28:41.999Z</time></trkpt><trkpt lat="42.29670853963947" lon="13.857588676870876"><ele>551.0</ele><time>2026-04-18T10:28:45.999Z</time></trkpt><trkpt lat="42.296703295969586" lon="13.8576929641137"><ele>551.0</ele><time>2026-04-18T10:28:48.999Z</time></trkpt><trkpt lat="42.296647430839656" lon="13.857783721655155"><ele>551.0</ele><time>2026-04-18T10:28:50.999Z</time></trkpt><trkpt lat="42.29658766271726" lon="13.85791168907675"><ele>551.0</ele><time>2026-04-18T10:28:52.999Z</time></trkpt><trkpt lat="42.29655858289103" lon="13.857991407233959"><ele>551.0</ele><time>2026-04-18T10:28:53.999Z</time></trkpt><trkpt lat="42.2965358063771" lon="13.858095085297295"><ele>550.6666666666666</ele><time>2026-04-18T10:28:54.999Z</time></trkpt><trkpt lat="42.296510092112094" lon="13.858175481071818"><ele>550.3333333333333</ele><time>2026-04-18T10:28:55.999Z</time></trkpt><trkpt lat="42.29644428925593" lon="13.858299885828309"><ele>550.0</ele><time>2026-04-18T10:28:57.999Z</time></trkpt><trkpt lat="42.29640706069004" lon="13.858371773818181"><ele>549.6666666666666</ele><time>2026-04-18T10:28:58.999Z</time></trkpt><trkpt lat="42.29632745932795" lon="13.858480287453762"><ele>549.3333333333334</ele><time>2026-04-18T10:29:00.999Z</time></trkpt><trkpt lat="42.29629428832439" lon="13.858555726614869"><ele>549.0</ele><time>2026-04-18T10:29:01.999Z</time></trkpt><trkpt lat="42.296249374782796" lon="13.85862028424662"><ele>549.0</ele><time>2026-04-18T10:29:02.999Z</time></trkpt><trkpt lat="42.29621782292185" lon="13.858727364112852"><ele>549.0</ele><time>2026-04-18T10:29:05.999Z</time></trkpt><trkpt lat="42.2961760559628" lon="13.858848190778025"><ele>549.0</ele><time>2026-04-18T10:29:07.999Z</time></trkpt><trkpt lat="42.296223072368925" lon="13.85894286584654"><ele>549.0</ele><time>2026-04-18T10:29:10.999Z</time></trkpt><trkpt lat="42.29631402608496" lon="13.858935756181749"><ele>549.0</ele><time>2026-04-18T10:29:13.999Z</time></trkpt><trkpt lat="42.29639326631532" lon="13.858943047935213"><ele>549.0</ele><time>2026-04-18T10:29:16Z</time></trkpt><trkpt lat="42.29646688348551" lon="13.858953180939208"><ele>556.5</ele><time>2026-04-18T10:29:19Z</time></trkpt><trkpt lat="42.29653997183855" lon="13.858961413689688"><ele>564.0</ele><time>2026-04-18T10:29:43Z</time></trkpt><trkpt lat="42.29654414172673" lon="13.859076301810418"><ele>571.5</ele><time>2026-04-18T10:29:58Z</time></trkpt><trkpt lat="42.296508755870235" lon="13.859181022589924"><ele>579.0</ele><time>2026-04-18T10:30:00Z</time></trkpt><trkpt lat="42.29648892098273" lon="13.859292180719885"><ele>586.5</ele><time>2026-04-18T10:30:02Z</time></trkpt><trkpt lat="42.296477700697025" lon="13.85939995360401"><ele>594.0</ele><time>2026-04-18T10:30:04Z</time></trkpt><trkpt lat="42.29648155566641" lon="13.859531606004044"><ele>594.3333333333334</ele><time>2026-04-18T10:30:06Z</time></trkpt><trkpt lat="42.29651348692842" lon="13.859607421817708"><ele>594.6666666666666</ele><time>2026-04-18T10:30:08Z</time></trkpt><trkpt lat="42.29656266941961" lon="13.859734394853374"><ele>595.0</ele><time>2026-04-18T10:30:10Z</time></trkpt><trkpt lat="42.296600865799476" lon="13.859840622286173"><ele>595.3333333333333</ele><time>2026-04-18T10:30:12Z</time></trkpt><trkpt lat="42.29668236880983" lon="13.859865417943704"><ele>595.6666666666666</ele><time>2026-04-18T10:30:14Z</time></trkpt><trkpt lat="42.29676649013306" lon="13.859871226708433"><ele>596.0</ele><time>2026-04-18T10:30:16Z</time></trkpt><trkpt lat="42.296848988630984" lon="13.85994630988401"><ele>593.2</ele><time>2026-04-18T10:30:19Z</time></trkpt><trkpt lat="42.29690897813705" lon="13.860117882745858"><ele>590.4000000000001</ele><time>2026-04-18T10:30:21Z</time></trkpt><trkpt lat="42.2969820540475" lon="13.86021569093527"><ele>587.6</ele><time>2026-04-18T10:30:23Z</time></trkpt><trkpt lat="42.2970597461418" lon="13.86028186877712"><ele>584.8000000000001</ele><time>2026-04-18T10:30:24Z</time></trkpt><trkpt lat="42.29712660675188" lon="13.860352146764257"><ele>582.0</ele><time>2026-04-18T10:30:25Z</time></trkpt><trkpt lat="42.29718236003778" lon="13.860408542750434"><ele>582.0</ele><time>2026-04-18T10:30:26Z</time></trkpt><trkpt lat="42.297240300879885" lon="13.86050612236623"><ele>582.0</ele><time>2026-04-18T10:30:28Z</time></trkpt><trkpt lat="42.29730027379764" lon="13.860565022506362"><ele>582.0</ele><time>2026-04-18T10:30:31Z</time></trkpt><trkpt lat="42.297396650427125" lon="13.860622295546532"><ele>582.0</ele><time>2026-04-18T10:30:32.999Z</time></trkpt><trkpt lat="42.2974617000244" lon="13.86068534970528"><ele>582.0</ele><time>2026-04-18T10:30:33.999Z</time></trkpt><trkpt lat="42.29753342359473" lon="13.860782579557123"><ele>586.8000000000001</ele><time>2026-04-18T10:30:34.999Z</time></trkpt><trkpt lat="42.29760309016274" lon="13.86088923503082"><ele>591.6</ele><time>2026-04-18T10:30:35.999Z</time></trkpt><trkpt lat="42.29768441408832" lon="13.86097417027734"><ele>596.4000000000001</ele><time>2026-04-18T10:30:36.999Z</time></trkpt><trkpt lat="42.297773052785104" lon="13.861036205266057"><ele>601.2</ele><time>2026-04-18T10:30:37.999Z</time></trkpt><trkpt lat="42.29784824128095" lon="13.86110121434087"><ele>606.0</ele><time>2026-04-18T10:30:38.999Z</time></trkpt><trkpt lat="42.29792284815459" lon="13.86116497437553"><ele>606.0</ele><time>2026-04-18T10:30:39.999Z</time></trkpt><trkpt lat="42.29798977102858" lon="13.861206094584396"><ele>606.0</ele><time>2026-04-18T10:30:40.999Z</time></trkpt><trkpt lat="42.298064425155765" lon="13.861214848615374"><ele>606.0</ele><time>2026-04-18T10:30:42.999Z</time></trkpt><trkpt lat="42.29823201187988" lon="13.861250756535089"><ele>606.0</ele><time>2026-04-18T10:30:44.999Z</time></trkpt><trkpt lat="42.29829919366774" lon="13.861258982258358"><ele>606.0</ele><time>2026-04-18T10:30:45.999Z</time></trkpt><trkpt lat="42.29838209712651" lon="13.861268294812694"><ele>608.0</ele><time>2026-04-18T10:30:46.999Z</time></trkpt><trkpt lat="42.29845337294084" lon="13.861292258973183"><ele>610.0</ele><time>2026-04-18T10:30:47.999Z</time></trkpt><trkpt lat="42.29851153028862" lon="13.861332760590022"><ele>612.0</ele><time>2026-04-18T10:30:48.999Z</time></trkpt><trkpt lat="42.29858171813371" lon="13.861386297578274"><ele>614.0</ele><time>2026-04-18T10:30:49.999Z</time></trkpt><trkpt lat="42.29866331436101" lon="13.861450165577972"><ele>616.0</ele><time>2026-04-18T10:30:50.999Z</time></trkpt><trkpt lat="42.298755913678" lon="13.86154219695668"><ele>618.0</ele><time>2026-04-18T10:30:51.999Z</time></trkpt><trkpt lat="42.29881582583717" lon="13.86159164999044"><ele>618.3333333333334</ele><time>2026-04-18T10:30:52.999Z</time></trkpt><trkpt lat="42.2989227025973" lon="13.861616169723668"><ele>618.6666666666666</ele><time>2026-04-18T10:30:54.999Z</time></trkpt><trkpt lat="42.298928549231945" lon="13.861713775747964"><ele>619.0</ele><time>2026-04-18T10:31:03.999Z</time></trkpt><trkpt lat="42.29897534772475" lon="13.861777599655515"><ele>619.3333333333333</ele><time>2026-04-18T10:31:17.999Z</time></trkpt><trkpt lat="42.29904915469547" lon="13.861891950758137"><ele>619.6666666666666</ele><time>2026-04-18T10:31:19.999Z</time></trkpt><trkpt lat="42.299072097780375" lon="13.86198541046591"><ele>620.0</ele><time>2026-04-18T10:31:21Z</time></trkpt><trkpt lat="42.299087879636396" lon="13.862086793963673"><ele>620.0</ele><time>2026-04-18T10:31:22Z</time></trkpt><trkpt lat="42.29912909867839" lon="13.862171596217923"><ele>620.0</ele><time>2026-04-18T10:31:23Z</time></trkpt><trkpt lat="42.29918019095139" lon="13.862237220158638"><ele>620.0</ele><time>2026-04-18T10:31:24Z</time></trkpt><trkpt lat="42.29922779174481" lon="13.862293908274177"><ele>620.0</ele><time>2026-04-18T10:31:25Z</time></trkpt><trkpt lat="42.29931199837387" lon="13.8623581883872"><ele>620.0</ele><time>2026-04-18T10:31:27Z</time></trkpt><trkpt lat="42.29934937032003" lon="13.862457870646738"><ele>620.0</ele><time>2026-04-18T10:31:30Z</time></trkpt><trkpt lat="42.29932336874151" lon="13.862560823722225"><ele>620.6666666666666</ele><time>2026-04-18T10:31:32Z</time></trkpt><trkpt lat="42.2993171908115" lon="13.862660334620143"><ele>621.3333333333333</ele><time>2026-04-18T10:31:34Z</time></trkpt><trkpt lat="42.29934780729567" lon="13.86273882469912"><ele>622.0</ele><time>2026-04-18T10:31:47Z</time></trkpt><trkpt lat="42.29942805004681" lon="13.86272799223714"><ele>622.6666666666666</ele><time>2026-04-18T10:31:49Z</time></trkpt><trkpt lat="42.29953634644826" lon="13.862682558246219"><ele>623.3333333333334</ele><time>2026-04-18T10:31:51Z</time></trkpt><trkpt lat="42.29964473016114" lon="13.86263897293218"><ele>624.0</ele><time>2026-04-18T10:31:53Z</time></trkpt><trkpt lat="42.299718757529334" lon="13.862662437327693"><ele>628.1666666666666</ele><time>2026-04-18T10:31:55Z</time></trkpt><trkpt lat="42.29984125007334" lon="13.86271031253864"><ele>632.3333333333334</ele><time>2026-04-18T10:31:57Z</time></trkpt><trkpt lat="42.29991292434142" lon="13.862733852252466"><ele>636.5</ele><time>2026-04-18T10:31:58Z</time></trkpt><trkpt lat="42.299991378047416" lon="13.862749119573905"><ele>640.6666666666667</ele><time>2026-04-18T10:31:59Z</time></trkpt><trkpt lat="42.300071351466705" lon="13.86275871513107"><ele>644.8333333333334</ele><time>2026-04-18T10:32:00Z</time></trkpt><trkpt lat="42.300153511832356" lon="13.862783386937986"><ele>649.0</ele><time>2026-04-18T10:32:01Z</time></trkpt><trkpt lat="42.30023125867898" lon="13.86281279880364"><ele>649.0</ele><time>2026-04-18T10:32:02Z</time></trkpt><trkpt lat="42.300301266306874" lon="13.862876390487544"><ele>649.0</ele><time>2026-04-18T10:32:03Z</time></trkpt><trkpt lat="42.30037617616468" lon="13.862950333193302"><ele>649.0</ele><time>2026-04-18T10:32:04Z</time></trkpt><trkpt lat="42.30046034812878" lon="13.863036621006582"><ele>649.0</ele><time>2026-04-18T10:32:05Z</time></trkpt><trkpt lat="42.30053004106105" lon="13.863101764560442"><ele>649.0</ele><time>2026-04-18T10:32:06Z</time></trkpt><trkpt lat="42.30060440166558" lon="13.86313765504671"><ele>649.0</ele><time>2026-04-18T10:32:07Z</time></trkpt><trkpt lat="42.300677484736646" lon="13.863167965771968"><ele>650.1666666666667</ele><time>2026-04-18T10:32:08Z</time></trkpt><trkpt lat="42.30075321037673" lon="13.863193801274516"><ele>651.3333333333334</ele><time>2026-04-18T10:32:09Z</time></trkpt><trkpt lat="42.30083062309841" lon="13.863238468774991"><ele>652.5</ele><time>2026-04-18T10:32:10Z</time></trkpt><trkpt lat="42.30091052813362" lon="13.863283365353578"><ele>653.6666666666666</ele><time>2026-04-18T10:32:11Z</time></trkpt><trkpt lat="42.30098545433027" lon="13.86331113479519"><ele>654.8333333333333</ele><time>2026-04-18T10:32:12Z</time></trkpt><trkpt lat="42.30105660945274" lon="13.863349589801343"><ele>656.0</ele><time>2026-04-18T10:32:13Z</time></trkpt><trkpt lat="42.30111980067578" lon="13.863401066801346"><ele>656.4</ele><time>2026-04-18T10:32:14Z</time></trkpt><trkpt lat="42.30118188743775" lon="13.863471033203108"><ele>656.8</ele><time>2026-04-18T10:32:15Z</time></trkpt><trkpt lat="42.30125116828203" lon="13.863552916596605"><ele>657.1999999999999</ele><time>2026-04-18T10:32:16Z</time></trkpt><trkpt lat="42.30133243884539" lon="13.863645426667478"><ele>657.5999999999999</ele><time>2026-04-18T10:32:17Z</time></trkpt><trkpt lat="42.30142825757861" lon="13.863726016039376"><ele>658.0</ele><time>2026-04-18T10:32:18Z</time></trkpt><trkpt lat="42.30151346133831" lon="13.86379664026854"><ele>658.0</ele><time>2026-04-18T10:32:19Z</time></trkpt><trkpt lat="42.30158760230374" lon="13.863846153167252"><ele>658.0</ele><time>2026-04-18T10:32:20Z</time></trkpt><trkpt lat="42.301656746318656" lon="13.863881405410023"><ele>658.0</ele><time>2026-04-18T10:32:21Z</time></trkpt><trkpt lat="42.30173474933545" lon="13.863922420668407"><ele>658.0</ele><time>2026-04-18T10:32:24.999Z</time></trkpt><trkpt lat="42.301812144723826" lon="13.86396910408198"><ele>658.0</ele><time>2026-04-18T10:32:27.999Z</time></trkpt><trkpt lat="42.30188892743866" lon="13.863991663772968"><ele>658.0</ele><time>2026-04-18T10:32:29.999Z</time></trkpt><trkpt lat="42.30195486250167" lon="13.863995600721724"><ele>658.0</ele><time>2026-04-18T10:32:31.999Z</time></trkpt><trkpt lat="42.30201072640754" lon="13.864044957759099"><ele>658.0</ele><time>2026-04-18T10:32:34.999Z</time></trkpt><trkpt lat="42.302101338785654" lon="13.864070830753892"><ele>658.0</ele><time>2026-04-18T10:32:37.999Z</time></trkpt><trkpt lat="42.30217096588696" lon="13.864119861479342"><ele>658.0</ele><time>2026-04-18T10:32:40.999Z</time></trkpt><trkpt lat="42.30224052143713" lon="13.864132094952513"><ele>658.0</ele><time>2026-04-18T10:32:42.999Z</time></trkpt><trkpt lat="42.30233854033934" lon="13.864141101795047"><ele>658.0</ele><time>2026-04-18T10:32:45.999Z</time></trkpt><trkpt lat="42.30240056588174" lon="13.864159574734142"><ele>655.2857142857143</ele><time>2026-04-18T10:32:47.999Z</time></trkpt><trkpt lat="42.30247936075488" lon="13.86418211065287"><ele>652.5714285714286</ele><time>2026-04-18T10:32:51.999Z</time></trkpt><trkpt lat="42.30254485232364" lon="13.864185311702524"><ele>649.8571428571429</ele><time>2026-04-18T10:32:54.999Z</time></trkpt><trkpt lat="42.302617301969605" lon="13.864165180706097"><ele>647.1428571428571</ele><time>2026-04-18T10:32:57.999Z</time></trkpt><trkpt lat="42.30268610180066" lon="13.864167799929108"><ele>644.4285714285714</ele><time>2026-04-18T10:33:01.999Z</time></trkpt><trkpt lat="42.302768710129776" lon="13.864193912392343"><ele>641.7142857142858</ele><time>2026-04-18T10:33:04.999Z</time></trkpt><trkpt lat="42.30284067549142" lon="13.864172396453544"><ele>639.0</ele><time>2026-04-18T10:33:08.999Z</time></trkpt><trkpt lat="42.30291592161752" lon="13.864160663341469"><ele>639.0000000000001</ele><time>2026-04-18T10:33:15.999Z</time></trkpt><trkpt lat="42.302986789176195" lon="13.86416859676417"><ele>639.0</ele><time>2026-04-18T10:33:28Z</time></trkpt><trkpt lat="42.30306094671618" lon="13.864134556715456"><ele>639.0</ele><time>2026-04-18T10:33:51Z</time></trkpt><trkpt lat="42.303128119892826" lon="13.8641387214983"><ele>639.0</ele><time>2026-04-18T10:34:06Z</time></trkpt><trkpt lat="42.30319318932343" lon="13.864141316190196"><ele>639.0</ele><time>2026-04-18T10:34:41.999Z</time></trkpt><trkpt lat="42.30326008313527" lon="13.8641500902428"><ele>639.0000000000001</ele><time>2026-04-18T10:34:49.999Z</time></trkpt><trkpt lat="42.30333254248208" lon="13.86417471169285"><ele>639.0</ele><time>2026-04-18T10:35:18.999Z</time></trkpt><trkpt lat="42.30343608181786" lon="13.864100874669685"><ele>635.5</ele><time>2026-04-18T10:35:20.999Z</time></trkpt><trkpt lat="42.30350516934815" lon="13.86405549049916"><ele>632.0</ele><time>2026-04-18T10:35:21.999Z</time></trkpt><trkpt lat="42.30357970520249" lon="13.864020631469321"><ele>628.5</ele><time>2026-04-18T10:35:22.999Z</time></trkpt><trkpt lat="42.303653535230936" lon="13.863986630311215"><ele>625.0</ele><time>2026-04-18T10:35:23.999Z</time></trkpt><trkpt lat="42.30372887622205" lon="13.863953394766279"><ele>621.5</ele><time>2026-04-18T10:35:24.999Z</time></trkpt><trkpt lat="42.30380335996364" lon="13.863956813520602"><ele>618.0</ele><time>2026-04-18T10:35:25.999Z</time></trkpt><trkpt lat="42.303881704177506" lon="13.863997918061187"><ele>618.6</ele><time>2026-04-18T10:35:26.999Z</time></trkpt><trkpt lat="42.303963587073696" lon="13.864047772297614"><ele>619.1999999999999</ele><time>2026-04-18T10:35:27.999Z</time></trkpt><trkpt lat="42.30402370240696" lon="13.864175167153922"><ele>619.8</ele><time>2026-04-18T10:35:28.999Z</time></trkpt><trkpt lat="42.30407591768424" lon="13.864276121663515"><ele>620.4</ele><time>2026-04-18T10:35:29.999Z</time></trkpt><trkpt lat="42.30412175239929" lon="13.86438301415247"><ele>621.0</ele><time>2026-04-18T10:35:30.999Z</time></trkpt><trkpt lat="42.30417186297113" lon="13.864478315431453"><ele>617.8</ele><time>2026-04-18T10:35:31.999Z</time></trkpt><trkpt lat="42.304227399994126" lon="13.864568649471666"><ele>614.6</ele><time>2026-04-18T10:35:33Z</time></trkpt><trkpt lat="42.304281681519775" lon="13.86468270947212"><ele>611.4</ele><time>2026-04-18T10:35:34Z</time></trkpt><trkpt lat="42.30433837625407" lon="13.864798175728462"><ele>608.2</ele><time>2026-04-18T10:35:35Z</time></trkpt><trkpt lat="42.30439042582853" lon="13.864882851883257"><ele>605.0</ele><time>2026-04-18T10:35:36Z</time></trkpt><trkpt lat="42.30445601488801" lon="13.86498046261373"><ele>605.0</ele><time>2026-04-18T10:35:38Z</time></trkpt><trkpt lat="42.30449294076749" lon="13.865079111725471"><ele>605.0</ele><time>2026-04-18T10:35:39Z</time></trkpt><trkpt lat="42.30456479591891" lon="13.865211454133284"><ele>605.0</ele><time>2026-04-18T10:35:41Z</time></trkpt><trkpt lat="42.30463980568144" lon="13.865320159990052"><ele>605.0</ele><time>2026-04-18T10:35:43Z</time></trkpt><trkpt lat="42.30470308504561" lon="13.865437800833417"><ele>605.0</ele><time>2026-04-18T10:35:45Z</time></trkpt><trkpt lat="42.304748991093156" lon="13.865511975446747"><ele>604.5</ele><time>2026-04-18T10:35:47Z</time></trkpt><trkpt lat="42.30480860908588" lon="13.86557795074236"><ele>604.0</ele><time>2026-04-18T10:35:54Z</time></trkpt><trkpt lat="42.3048472853844" lon="13.865508269781376"><ele>603.5</ele><time>2026-04-18T10:36:32Z</time></trkpt><trkpt lat="42.304866446375286" lon="13.865611440144589"><ele>603.0</ele><time>2026-04-18T10:42:49.999Z</time></trkpt><trkpt lat="42.30484844171914" lon="13.86573665524975"><ele>602.5</ele><time>2026-04-18T10:42:50.999Z</time></trkpt><trkpt lat="42.30483225627698" lon="13.865865032523587"><ele>602.0</ele><time>2026-04-18T10:42:51.999Z</time></trkpt><trkpt lat="42.304828940701945" lon="13.865998238823009"><ele>602.0</ele><time>2026-04-18T10:42:52.999Z</time></trkpt><trkpt lat="42.30483860781099" lon="13.866123601441325"><ele>602.0</ele><time>2026-04-18T10:42:53.999Z</time></trkpt><trkpt lat="42.30485402290104" lon="13.86624147555712"><ele>602.0</ele><time>2026-04-18T10:42:54.999Z</time></trkpt><trkpt lat="42.30486600408772" lon="13.866344166362534"><ele>602.0</ele><time>2026-04-18T10:42:55.999Z</time></trkpt><trkpt lat="42.30488035867744" lon="13.866496806400207"><ele>602.0</ele><time>2026-04-18T10:42:57.999Z</time></trkpt><trkpt lat="42.304932246338026" lon="13.866666514757762"><ele>602.0</ele><time>2026-04-18T10:42:59.999Z</time></trkpt><trkpt lat="42.304980313768795" lon="13.86676560771747"><ele>602.0</ele><time>2026-04-18T10:43:00.999Z</time></trkpt><trkpt lat="42.30502467917411" lon="13.866874697693158"><ele>602.0</ele><time>2026-04-18T10:43:01.999Z</time></trkpt><trkpt lat="42.30506301729799" lon="13.86698815143118"><ele>602.0</ele><time>2026-04-18T10:43:02.999Z</time></trkpt><trkpt lat="42.30509963140038" lon="13.867113547833858"><ele>602.0</ele><time>2026-04-18T10:43:03.999Z</time></trkpt><trkpt lat="42.30511274298842" lon="13.867245291478598"><ele>599.5</ele><time>2026-04-18T10:43:04.999Z</time></trkpt><trkpt lat="42.30509946309555" lon="13.867413280248117"><ele>597.0</ele><time>2026-04-18T10:43:05.999Z</time></trkpt><trkpt lat="42.30506176458035" lon="13.867607001158605"><ele>594.5</ele><time>2026-04-18T10:43:06.999Z</time></trkpt><trkpt lat="42.3050345687097" lon="13.867778109099593"><ele>592.0</ele><time>2026-04-18T10:43:07.999Z</time></trkpt><trkpt lat="42.30505172811447" lon="13.867940331622032"><ele>591.0</ele><time>2026-04-18T10:43:08.999Z</time></trkpt><trkpt lat="42.30507980098632" lon="13.868098111719952"><ele>590.0</ele><time>2026-04-18T10:43:09.999Z</time></trkpt><trkpt lat="42.30510064211036" lon="13.868247063933772"><ele>589.0</ele><time>2026-04-18T10:43:10.999Z</time></trkpt><trkpt lat="42.30511920814785" lon="13.868388490769384"><ele>588.0</ele><time>2026-04-18T10:43:11.999Z</time></trkpt><trkpt lat="42.30515445063934" lon="13.868527312133812"><ele>587.0</ele><time>2026-04-18T10:43:12.999Z</time></trkpt><trkpt lat="42.305212745211044" lon="13.86864305636419"><ele>585.0</ele><time>2026-04-18T10:43:13.999Z</time></trkpt><trkpt lat="42.305286324969956" lon="13.868743665166066"><ele>583.0</ele><time>2026-04-18T10:43:14.999Z</time></trkpt><trkpt lat="42.30535108653642" lon="13.868852261092224"><ele>581.0</ele><time>2026-04-18T10:43:15.999Z</time></trkpt><trkpt lat="42.30540676270136" lon="13.868959588428032"><ele>579.0</ele><time>2026-04-18T10:43:16.999Z</time></trkpt><trkpt lat="42.305464348571206" lon="13.86906516704111"><ele>577.0</ele><time>2026-04-18T10:43:17.999Z</time></trkpt><trkpt lat="42.30552048083278" lon="13.869164615805433"><ele>577.0</ele><time>2026-04-18T10:43:18.999Z</time></trkpt><trkpt lat="42.30555697795813" lon="13.8692648062156"><ele>577.0</ele><time>2026-04-18T10:43:19.999Z</time></trkpt><trkpt lat="42.305575869448624" lon="13.869376032628878"><ele>577.0</ele><time>2026-04-18T10:43:20.999Z</time></trkpt><trkpt lat="42.30558175931198" lon="13.869487247918354"><ele>577.0</ele><time>2026-04-18T10:43:21.999Z</time></trkpt><trkpt lat="42.30557126540394" lon="13.869603304146693"><ele>577.0</ele><time>2026-04-18T10:43:22.999Z</time></trkpt><trkpt lat="42.30552636045035" lon="13.86970643871731"><ele>577.0</ele><time>2026-04-18T10:43:23.999Z</time></trkpt><trkpt lat="42.305445239796995" lon="13.869788944111628"><ele>576.6666666666667</ele><time>2026-04-18T10:43:24.999Z</time></trkpt><trkpt lat="42.30536078359108" lon="13.869856206317037"><ele>576.3333333333334</ele><time>2026-04-18T10:43:25.999Z</time></trkpt><trkpt lat="42.30529315816985" lon="13.869919515852821"><ele>576.0</ele><time>2026-04-18T10:43:26.999Z</time></trkpt><trkpt lat="42.30523307894466" lon="13.869987750795438"><ele>575.6666666666666</ele><time>2026-04-18T10:43:27.999Z</time></trkpt><trkpt lat="42.30517054145935" lon="13.87006178678502"><ele>575.3333333333333</ele><time>2026-04-18T10:43:28.999Z</time></trkpt><trkpt lat="42.305108836480095" lon="13.870134776101883"><ele>575.0</ele><time>2026-04-18T10:43:29.999Z</time></trkpt><trkpt lat="42.30505944869671" lon="13.870223242088363"><ele>575.0</ele><time>2026-04-18T10:43:30.999Z</time></trkpt><trkpt lat="42.30501529155355" lon="13.87032679715871"><ele>575.0</ele><time>2026-04-18T10:43:31.999Z</time></trkpt><trkpt lat="42.304971395740566" lon="13.87043474640368"><ele>575.0</ele><time>2026-04-18T10:43:32.999Z</time></trkpt><trkpt lat="42.30493170771412" lon="13.870553379726248"><ele>575.0</ele><time>2026-04-18T10:43:33.999Z</time></trkpt><trkpt lat="42.304895502669744" lon="13.870675640516978"><ele>575.0</ele><time>2026-04-18T10:43:34.999Z</time></trkpt><trkpt lat="42.30486728731666" lon="13.87080086659317"><ele>575.0</ele><time>2026-04-18T10:43:35.999Z</time></trkpt><trkpt lat="42.30486878906498" lon="13.870935697304468"><ele>575.0</ele><time>2026-04-18T10:43:36.999Z</time></trkpt><trkpt lat="42.30489937628175" lon="13.871076068565086"><ele>575.0</ele><time>2026-04-18T10:43:37.999Z</time></trkpt><trkpt lat="42.30493990241587" lon="13.871211288782211"><ele>575.0</ele><time>2026-04-18T10:43:38.999Z</time></trkpt><trkpt lat="42.304979441755215" lon="13.871334847125725"><ele>575.0</ele><time>2026-04-18T10:43:39.999Z</time></trkpt><trkpt lat="42.305013719591805" lon="13.871453827320064"><ele>574.2</ele><time>2026-04-18T10:43:40.999Z</time></trkpt><trkpt lat="42.305038770240856" lon="13.871578911590163"><ele>573.4</ele><time>2026-04-18T10:43:41.999Z</time></trkpt><trkpt lat="42.305057544111115" lon="13.871707365233291"><ele>572.6</ele><time>2026-04-18T10:43:42.999Z</time></trkpt><trkpt lat="42.30506359175686" lon="13.871851304846098"><ele>571.8</ele><time>2026-04-18T10:43:43.999Z</time></trkpt><trkpt lat="42.305038650962146" lon="13.871995757254012"><ele>571.0</ele><time>2026-04-18T10:43:44.999Z</time></trkpt><trkpt lat="42.30497451204147" lon="13.872132836503894"><ele>570.5</ele><time>2026-04-18T10:43:45.999Z</time></trkpt><trkpt lat="42.304886566773234" lon="13.872248611855637"><ele>570.0</ele><time>2026-04-18T10:43:46.999Z</time></trkpt><trkpt lat="42.30478338974771" lon="13.872328798677076"><ele>569.5</ele><time>2026-04-18T10:43:47.999Z</time></trkpt><trkpt lat="42.30467503320728" lon="13.872387349518716"><ele>569.0</ele><time>2026-04-18T10:43:48.999Z</time></trkpt><trkpt lat="42.3045680349319" lon="13.872447136234985"><ele>568.2</ele><time>2026-04-18T10:43:49.999Z</time></trkpt><trkpt lat="42.30446228927644" lon="13.872513668831504"><ele>567.4</ele><time>2026-04-18T10:43:50.999Z</time></trkpt><trkpt lat="42.3043675503511" lon="13.87257048470264"><ele>566.6</ele><time>2026-04-18T10:43:51.999Z</time></trkpt><trkpt lat="42.30427616551674" lon="13.87261925685729"><ele>565.8</ele><time>2026-04-18T10:43:52.999Z</time></trkpt><trkpt lat="42.30417604852283" lon="13.872670886932378"><ele>565.0</ele><time>2026-04-18T10:43:53.999Z</time></trkpt><trkpt lat="42.304083069162935" lon="13.872736324831934"><ele>565.0</ele><time>2026-04-18T10:43:54.999Z</time></trkpt><trkpt lat="42.3039908713452" lon="13.872794429063884"><ele>565.0</ele><time>2026-04-18T10:43:55.999Z</time></trkpt><trkpt lat="42.30389969761276" lon="13.87284351746903"><ele>565.0</ele><time>2026-04-18T10:43:57Z</time></trkpt><trkpt lat="42.303816399291755" lon="13.87290921690539"><ele>565.0</ele><time>2026-04-18T10:43:58Z</time></trkpt><trkpt lat="42.30375507167518" lon="13.87301678526226"><ele>565.0</ele><time>2026-04-18T10:43:59Z</time></trkpt><trkpt lat="42.30370994731077" lon="13.873136757123289"><ele>560.2</ele><time>2026-04-18T10:44:00Z</time></trkpt><trkpt lat="42.30367767926357" lon="13.873264766584068"><ele>555.4</ele><time>2026-04-18T10:44:01Z</time></trkpt><trkpt lat="42.303647528613446" lon="13.873383371846808"><ele>550.6</ele><time>2026-04-18T10:44:02Z</time></trkpt><trkpt lat="42.30363399935168" lon="13.873509345035705"><ele>545.8</ele><time>2026-04-18T10:44:03Z</time></trkpt><trkpt lat="42.30363923956646" lon="13.87364347488883"><ele>541.0</ele><time>2026-04-18T10:44:04Z</time></trkpt><trkpt lat="42.30365785516325" lon="13.873788539436363"><ele>540.6</ele><time>2026-04-18T10:44:05Z</time></trkpt><trkpt lat="42.30369372722398" lon="13.873930845787905"><ele>540.2</ele><time>2026-04-18T10:44:06Z</time></trkpt><trkpt lat="42.303738552704864" lon="13.8740708840271"><ele>539.8</ele><time>2026-04-18T10:44:07Z</time></trkpt><trkpt lat="42.303775004510456" lon="13.87420208979837"><ele>539.4</ele><time>2026-04-18T10:44:08Z</time></trkpt><trkpt lat="42.303799429591706" lon="13.87432572907577"><ele>539.0</ele><time>2026-04-18T10:44:09Z</time></trkpt><trkpt lat="42.303812846436145" lon="13.874427855454982"><ele>539.6666666666666</ele><time>2026-04-18T10:44:10Z</time></trkpt><trkpt lat="42.30384560606113" lon="13.874558182045668"><ele>540.3333333333333</ele><time>2026-04-18T10:44:12Z</time></trkpt><trkpt lat="42.30386573527258" lon="13.874648804789203"><ele>541.0</ele><time>2026-04-18T10:44:14Z</time></trkpt><trkpt lat="42.30380389641393" lon="13.874706551414166"><ele>541.6666666666666</ele><time>2026-04-18T10:44:16Z</time></trkpt><trkpt lat="42.303732968302924" lon="13.87473952795292"><ele>542.3333333333334</ele><time>2026-04-18T10:44:17Z</time></trkpt><trkpt lat="42.3036678537048" lon="13.874775939327137"><ele>543.0</ele><time>2026-04-18T10:44:18Z</time></trkpt><trkpt lat="42.30358128874522" lon="13.87483291214467"><ele>543.0</ele><time>2026-04-18T10:44:19Z</time></trkpt><trkpt lat="42.303516511096404" lon="13.874861872185683"><ele>543.0</ele><time>2026-04-18T10:44:20Z</time></trkpt><trkpt lat="42.30344642513243" lon="13.874871844684321"><ele>543.0</ele><time>2026-04-18T10:44:21Z</time></trkpt><trkpt lat="42.30331042574726" lon="13.874907551913072"><ele>543.0</ele><time>2026-04-18T10:44:23Z</time></trkpt><trkpt lat="42.303235273624395" lon="13.874931138507097"><ele>543.0</ele><time>2026-04-18T10:44:24Z</time></trkpt><trkpt lat="42.303160218461336" lon="13.874959394916997"><ele>543.0</ele><time>2026-04-18T10:44:25Z</time></trkpt><trkpt lat="42.30309906063328" lon="13.874980049528242"><ele>541.6</ele><time>2026-04-18T10:44:26Z</time></trkpt><trkpt lat="42.30296821205078" lon="13.875026880982583"><ele>540.1999999999999</ele><time>2026-04-18T10:44:28Z</time></trkpt><trkpt lat="42.302882167581785" lon="13.875052064322366"><ele>538.8</ele><time>2026-04-18T10:44:29Z</time></trkpt><trkpt lat="42.302809698657725" lon="13.87505957441139"><ele>537.4</ele><time>2026-04-18T10:44:30Z</time></trkpt><trkpt lat="42.30271587825448" lon="13.87507373774353"><ele>536.0</ele><time>2026-04-18T10:44:31Z</time></trkpt><trkpt lat="42.30264062650235" lon="13.87510782411838"><ele>536.0</ele><time>2026-04-18T10:44:32Z</time></trkpt><trkpt lat="42.302561449548016" lon="13.875141392005176"><ele>536.0</ele><time>2026-04-18T10:44:33Z</time></trkpt><trkpt lat="42.30247698458753" lon="13.875179955635943"><ele>536.0</ele><time>2026-04-18T10:44:34Z</time></trkpt><trkpt lat="42.302395060375936" lon="13.875218429650124"><ele>536.0</ele><time>2026-04-18T10:44:35Z</time></trkpt><trkpt lat="42.302311353037" lon="13.87524724162162"><ele>536.0</ele><time>2026-04-18T10:44:36Z</time></trkpt><trkpt lat="42.30222781797574" lon="13.87526943180775"><ele>536.0</ele><time>2026-04-18T10:44:37Z</time></trkpt><trkpt lat="42.30214775337287" lon="13.875326112066402"><ele>531.3333333333333</ele><time>2026-04-18T10:44:39Z</time></trkpt><trkpt lat="42.30212182639814" lon="13.87543107804105"><ele>526.6666666666666</ele><time>2026-04-18T10:44:42Z</time></trkpt><trkpt lat="42.302109327668475" lon="13.875520726732395"><ele>522.0</ele><time>2026-04-18T10:44:45Z</time></trkpt><trkpt lat="42.30209983812613" lon="13.875609591977373"><ele>517.3333333333334</ele><time>2026-04-18T10:44:47Z</time></trkpt><trkpt lat="42.302098243934225" lon="13.875741977001272"><ele>512.6666666666667</ele><time>2026-04-18T10:44:50Z</time></trkpt><trkpt lat="42.30210242323579" lon="13.875873509528953"><ele>508.0</ele><time>2026-04-18T10:44:53Z</time></trkpt><trkpt lat="42.30210858915021" lon="13.876002030158654"><ele>506.83333333333337</ele><time>2026-04-18T10:44:55Z</time></trkpt><trkpt lat="42.30210389959303" lon="13.87613867141501"><ele>505.6666666666667</ele><time>2026-04-18T10:44:57Z</time></trkpt><trkpt lat="42.302101578320304" lon="13.87622479526428"><ele>504.5</ele><time>2026-04-18T10:44:58Z</time></trkpt><trkpt lat="42.3020962813548" lon="13.876313113671143"><ele>503.33333333333337</ele><time>2026-04-18T10:44:59Z</time></trkpt><trkpt lat="42.30208893210603" lon="13.87640116796457"><ele>502.1666666666667</ele><time>2026-04-18T10:45:00Z</time></trkpt><trkpt lat="42.3021009888535" lon="13.876571077170501"><ele>501.0</ele><time>2026-04-18T10:45:02Z</time></trkpt><trkpt lat="42.302098393192416" lon="13.876728224535201"><ele>500.1666666666667</ele><time>2026-04-18T10:45:04Z</time></trkpt><trkpt lat="42.30205540519407" lon="13.876835693563043"><ele>499.33333333333337</ele><time>2026-04-18T10:45:06Z</time></trkpt><trkpt lat="42.30199535755119" lon="13.87694635026174"><ele>498.5</ele><time>2026-04-18T10:45:08Z</time></trkpt><trkpt lat="42.301958181209486" lon="13.877016375273193"><ele>497.6666666666667</ele><time>2026-04-18T10:45:08.999Z</time></trkpt><trkpt lat="42.30189999216316" lon="13.877120335189169"><ele>496.83333333333337</ele><time>2026-04-18T10:45:10.999Z</time></trkpt><trkpt lat="42.30184683652928" lon="13.877168340373828"><ele>496.0</ele><time>2026-04-18T10:45:11.999Z</time></trkpt><trkpt lat="42.30175852208826" lon="13.877229490801287"><ele>496.0</ele><time>2026-04-18T10:45:13.999Z</time></trkpt><trkpt lat="42.301689020022174" lon="13.877285732257874"><ele>496.0</ele><time>2026-04-18T10:45:15.999Z</time></trkpt><trkpt lat="42.30159413036369" lon="13.877341720246617"><ele>496.0</ele><time>2026-04-18T10:45:17.999Z</time></trkpt><trkpt lat="42.30154707770746" lon="13.877441557326033"><ele>496.0</ele><time>2026-04-18T10:45:19.999Z</time></trkpt><trkpt lat="42.301549881213816" lon="13.877563054864272"><ele>496.0</ele><time>2026-04-18T10:45:21.999Z</time></trkpt><trkpt lat="42.301554680552236" lon="13.877714164706225"><ele>493.6666666666667</ele><time>2026-04-18T10:45:23.999Z</time></trkpt><trkpt lat="42.301573047634506" lon="13.877815846712924"><ele>491.33333333333337</ele><time>2026-04-18T10:45:25.999Z</time></trkpt><trkpt lat="42.301558707790434" lon="13.877919937945522"><ele>489.0</ele><time>2026-04-18T10:45:27.999Z</time></trkpt><trkpt lat="42.30154179962687" lon="13.878012059570837"><ele>486.66666666666663</ele><time>2026-04-18T10:45:29.999Z</time></trkpt><trkpt lat="42.30152174807117" lon="13.878164772502886"><ele>484.3333333333333</ele><time>2026-04-18T10:45:31.999Z</time></trkpt><trkpt lat="42.30150703167515" lon="13.8782865024259"><ele>482.0</ele><time>2026-04-18T10:45:33.999Z</time></trkpt><trkpt lat="42.30149507156519" lon="13.878376412344853"><ele>478.16666666666663</ele><time>2026-04-18T10:45:35.999Z</time></trkpt><trkpt lat="42.30146935398283" lon="13.87847364814016"><ele>474.3333333333333</ele><time>2026-04-18T10:45:37.999Z</time></trkpt><trkpt lat="42.301433164638084" lon="13.878564971124664"><ele>470.5</ele><time>2026-04-18T10:45:39.999Z</time></trkpt><trkpt lat="42.30137224033562" lon="13.878672783002656"><ele>466.66666666666663</ele><time>2026-04-18T10:45:42.999Z</time></trkpt><trkpt lat="42.30134860918143" lon="13.878766077548022"><ele>462.8333333333333</ele><time>2026-04-18T10:45:45.999Z</time></trkpt><trkpt lat="42.30133490221826" lon="13.878872639353755"><ele>459.0</ele><time>2026-04-18T10:45:47.999Z</time></trkpt><trkpt lat="42.30136948075961" lon="13.879016747691749"><ele>459.0</ele><time>2026-04-18T10:45:49.999Z</time></trkpt><trkpt lat="42.30141004253929" lon="13.87911474011209"><ele>459.0</ele><time>2026-04-18T10:45:51.999Z</time></trkpt><trkpt lat="42.301448813541995" lon="13.879202959493952"><ele>459.0</ele><time>2026-04-18T10:45:53.999Z</time></trkpt><trkpt lat="42.301528594897505" lon="13.879250446606019"><ele>459.0</ele><time>2026-04-18T10:45:55.999Z</time></trkpt><trkpt lat="42.30163027046915" lon="13.879272211463046"><ele>459.0</ele><time>2026-04-18T10:45:57.999Z</time></trkpt><trkpt lat="42.30169888979396" lon="13.879305473133568"><ele>459.0</ele><time>2026-04-18T10:45:59.999Z</time></trkpt><trkpt lat="42.30176630730207" lon="13.879347225443"><ele>454.4</ele><time>2026-04-18T10:46:01.999Z</time></trkpt><trkpt lat="42.30181344125793" lon="13.879429200379615"><ele>449.79999999999995</ele><time>2026-04-18T10:46:04Z</time></trkpt><trkpt lat="42.30183187108031" lon="13.879564847448075"><ele>445.20000000000005</ele><time>2026-04-18T10:46:06Z</time></trkpt><trkpt lat="42.30182248509685" lon="13.87970022867861"><ele>440.6</ele><time>2026-04-18T10:46:08Z</time></trkpt><trkpt lat="42.30181697599881" lon="13.879833358984605"><ele>436.0</ele><time>2026-04-18T10:46:10Z</time></trkpt><trkpt lat="42.30179535359523" lon="13.879963400519664"><ele>436.00000000000006</ele><time>2026-04-18T10:46:12Z</time></trkpt><trkpt lat="42.30176655090073" lon="13.880078347610965"><ele>436.0</ele><time>2026-04-18T10:46:15Z</time></trkpt><trkpt lat="42.30173949423344" lon="13.880170036975914"><ele>436.0</ele><time>2026-04-18T10:46:17Z</time></trkpt><trkpt lat="42.30170346033668" lon="13.88026448505588"><ele>436.0</ele><time>2026-04-18T10:46:23Z</time></trkpt><trkpt lat="42.301671662659416" lon="13.880344933333143"><ele>436.00000000000006</ele><time>2026-04-18T10:46:24Z</time></trkpt><trkpt lat="42.30164098658359" lon="13.880422995908908"><ele>436.0</ele><time>2026-04-18T10:46:25Z</time></trkpt><trkpt lat="42.30158152378893" lon="13.88054728353883"><ele>433.57142857142856</ele><time>2026-04-18T10:46:27Z</time></trkpt><trkpt lat="42.30155703040342" lon="13.880631617382685"><ele>431.14285714285717</ele><time>2026-04-18T10:46:29Z</time></trkpt><trkpt lat="42.301554525840324" lon="13.880738919594753"><ele>428.71428571428567</ele><time>2026-04-18T10:46:31Z</time></trkpt><trkpt lat="42.301550634895705" lon="13.880833251139892"><ele>426.2857142857143</ele><time>2026-04-18T10:46:33Z</time></trkpt><trkpt lat="42.30153832651375" lon="13.880926710176611"><ele>423.85714285714283</ele><time>2026-04-18T10:46:35Z</time></trkpt><trkpt lat="42.3015118462247" lon="13.881014206545661"><ele>421.4285714285714</ele><time>2026-04-18T10:46:37Z</time></trkpt><trkpt lat="42.30146333820899" lon="13.881104213128976"><ele>419.0</ele><time>2026-04-18T10:46:52Z</time></trkpt><trkpt lat="42.3014142231752" lon="13.881188887846248"><ele>414.99999999999994</ele><time>2026-04-18T10:46:58.999Z</time></trkpt><trkpt lat="42.30136956103604" lon="13.881268456660742"><ele>411.0</ele><time>2026-04-18T10:47:01.999Z</time></trkpt><trkpt lat="42.301325928415835" lon="13.88134045602779"><ele>407.0</ele><time>2026-04-18T10:47:06.999Z</time></trkpt><trkpt lat="42.30128738971159" lon="13.881411233520826"><ele>403.0</ele><time>2026-04-18T10:47:09.999Z</time></trkpt><trkpt lat="42.3012550398313" lon="13.881500042214471"><ele>399.0</ele><time>2026-04-18T10:47:18.999Z</time></trkpt><trkpt lat="42.301216905517826" lon="13.881579056162748"><ele>394.99999999999994</ele><time>2026-04-18T10:47:22.999Z</time></trkpt><trkpt lat="42.30116300455267" lon="13.881665602404812"><ele>391.0</ele><time>2026-04-18T10:47:26.999Z</time></trkpt><trkpt lat="42.301118368848414" lon="13.881735900157564"><ele>388.50000000000006</ele><time>2026-04-18T10:47:29.999Z</time></trkpt><trkpt lat="42.301061366309696" lon="13.881793582419926"><ele>386.0</ele><time>2026-04-18T10:47:34.999Z</time></trkpt><trkpt lat="42.30098706437664" lon="13.88184662383526"><ele>383.5</ele><time>2026-04-18T10:47:40.999Z</time></trkpt><trkpt lat="42.30092260796366" lon="13.881896713965654"><ele>381.0</ele><time>2026-04-18T10:47:44.999Z</time></trkpt><trkpt lat="42.30084987118604" lon="13.881936822926132"><ele>378.5</ele><time>2026-04-18T10:47:48.999Z</time></trkpt><trkpt lat="42.30078894892036" lon="13.881989242806888"><ele>376.0</ele><time>2026-04-18T10:47:54.999Z</time></trkpt><trkpt lat="42.3007323614149" lon="13.882066645497115"><ele>376.0</ele><time>2026-04-18T10:48:04.999Z</time></trkpt><trkpt lat="42.30064713154257" lon="13.882106552250708"><ele>376.0</ele><time>2026-04-18T10:48:10Z</time></trkpt><trkpt lat="42.30057997600683" lon="13.882113043372899"><ele>376.0</ele><time>2026-04-18T10:48:12Z</time></trkpt><trkpt lat="42.300516180316485" lon="13.882127621014439"><ele>376.0</ele><time>2026-04-18T10:48:14Z</time></trkpt><trkpt lat="42.30042280695209" lon="13.882155057921832"><ele>376.0</ele><time>2026-04-18T10:48:17Z</time></trkpt><trkpt lat="42.30035410540492" lon="13.88224463999317"><ele>376.0</ele><time>2026-04-18T10:48:42Z</time></trkpt><trkpt lat="42.30034113065399" lon="13.882376510245884"><ele>376.5</ele><time>2026-04-18T10:48:45Z</time></trkpt><trkpt lat="42.30041175249419" lon="13.882440829536263"><ele>377.0</ele><time>2026-04-18T10:48:47Z</time></trkpt><trkpt lat="42.3003928982866" lon="13.88253892556172"><ele>377.5</ele><time>2026-04-18T10:48:53Z</time></trkpt><trkpt lat="42.30041355582728" lon="13.882627095037286"><ele>378.0</ele><time>2026-04-18T10:48:56Z</time></trkpt><trkpt lat="42.3004707058797" lon="13.882729774225396"><ele>378.5</ele><time>2026-04-18T10:48:58Z</time></trkpt><trkpt lat="42.30043177481088" lon="13.882797498187736"><ele>379.0</ele><time>2026-04-18T10:49:01Z</time></trkpt><trkpt lat="42.30036008812279" lon="13.882815757223048"><ele>379.14285714285717</ele><time>2026-04-18T10:49:05Z</time></trkpt><trkpt lat="42.30030969913237" lon="13.882872160607539"><ele>379.2857142857143</ele><time>2026-04-18T10:49:09Z</time></trkpt><trkpt lat="42.30029396821011" lon="13.882983142665388"><ele>379.42857142857144</ele><time>2026-04-18T10:49:34Z</time></trkpt><trkpt lat="42.30033661008495" lon="13.883057228124008"><ele>379.57142857142856</ele><time>2026-04-18T10:49:35Z</time></trkpt><trkpt lat="42.300366240999786" lon="13.88314788288203"><ele>379.7142857142857</ele><time>2026-04-18T10:49:36Z</time></trkpt><trkpt lat="42.30038055800611" lon="13.883234514981195"><ele>379.8571428571429</ele><time>2026-04-18T10:49:37Z</time></trkpt><trkpt lat="42.3003953973124" lon="13.883317785493325"><ele>380.0</ele><time>2026-04-18T10:49:38Z</time></trkpt><trkpt lat="42.30041301896161" lon="13.883403705874498"><ele>379.5</ele><time>2026-04-18T10:49:39Z</time></trkpt><trkpt lat="42.30045717632665" lon="13.883552335117916"><ele>379.0</ele><time>2026-04-18T10:49:40.999Z</time></trkpt><trkpt lat="42.30054316098412" lon="13.883666210983067"><ele>378.5</ele><time>2026-04-18T10:49:42.999Z</time></trkpt><trkpt lat="42.30063785976151" lon="13.883782734608404"><ele>378.0</ele><time>2026-04-18T10:49:44.999Z</time></trkpt><trkpt lat="42.30069561131056" lon="13.883865686770264"><ele>376.5</ele><time>2026-04-18T10:49:45.999Z</time></trkpt><trkpt lat="42.30074884255433" lon="13.883942639479004"><ele>375.0</ele><time>2026-04-18T10:49:46.999Z</time></trkpt><trkpt lat="42.30079359761852" lon="13.884036290702896"><ele>373.5</ele><time>2026-04-18T10:49:47.999Z</time></trkpt><trkpt lat="42.30082239315967" lon="13.884170975652177"><ele>372.0</ele><time>2026-04-18T10:49:49.999Z</time></trkpt><trkpt lat="42.300787286476535" lon="13.884280929209408"><ele>370.5</ele><time>2026-04-18T10:49:51.999Z</time></trkpt><trkpt lat="42.30075715583735" lon="13.884355949888445"><ele>369.0</ele><time>2026-04-18T10:49:52.999Z</time></trkpt><trkpt lat="42.300728502891275" lon="13.884438691815946"><ele>368.85714285714283</ele><time>2026-04-18T10:49:53.999Z</time></trkpt><trkpt lat="42.30069309701511" lon="13.884516786565905"><ele>368.71428571428567</ele><time>2026-04-18T10:49:54.999Z</time></trkpt><trkpt lat="42.300657436401444" lon="13.884597247393692"><ele>368.57142857142856</ele><time>2026-04-18T10:49:55.999Z</time></trkpt><trkpt lat="42.30062658947479" lon="13.884681713763582"><ele>368.42857142857144</ele><time>2026-04-18T10:49:56.999Z</time></trkpt><trkpt lat="42.30060389619843" lon="13.884779549019669"><ele>368.2857142857143</ele><time>2026-04-18T10:49:57.999Z</time></trkpt><trkpt lat="42.30059878815102" lon="13.884870298650412"><ele>368.14285714285717</ele><time>2026-04-18T10:49:58.999Z</time></trkpt><trkpt lat="42.300606693939464" lon="13.884956682535057"><ele>368.0</ele><time>2026-04-18T10:49:59.999Z</time></trkpt><trkpt lat="42.30060371825769" lon="13.88510529520538"><ele>367.6666666666667</ele><time>2026-04-18T10:50:01.999Z</time></trkpt><trkpt lat="42.30060119481423" lon="13.885208956942053"><ele>367.33333333333337</ele><time>2026-04-18T10:50:02.999Z</time></trkpt><trkpt lat="42.30060147911006" lon="13.88531709523777"><ele>367.0</ele><time>2026-04-18T10:50:03.999Z</time></trkpt><trkpt lat="42.30059666890188" lon="13.885435978135423"><ele>366.6666666666667</ele><time>2026-04-18T10:50:04.999Z</time></trkpt><trkpt lat="42.30059356099608" lon="13.885560812867354"><ele>366.3333333333333</ele><time>2026-04-18T10:50:05.999Z</time></trkpt><trkpt lat="42.30060023871377" lon="13.885687491030676"><ele>366.0</ele><time>2026-04-18T10:50:06.999Z</time></trkpt><trkpt lat="42.30060767864752" lon="13.88577962407884"><ele>366.0</ele><time>2026-04-18T10:50:07.999Z</time></trkpt><trkpt lat="42.30061368206704" lon="13.885909710869408"><ele>366.0</ele><time>2026-04-18T10:50:09.999Z</time></trkpt><trkpt lat="42.300619038707204" lon="13.88600472941745"><ele>366.0</ele><time>2026-04-18T10:50:10.999Z</time></trkpt><trkpt lat="42.30062949912011" lon="13.886110293098263"><ele>366.0</ele><time>2026-04-18T10:50:11.999Z</time></trkpt><trkpt lat="42.300641224976346" lon="13.886212077235957"><ele>366.0</ele><time>2026-04-18T10:50:12.999Z</time></trkpt><trkpt lat="42.300660312445515" lon="13.886306266008164"><ele>366.0</ele><time>2026-04-18T10:50:14Z</time></trkpt><trkpt lat="42.300693625391176" lon="13.886381015049063"><ele>364.4</ele><time>2026-04-18T10:50:15Z</time></trkpt><trkpt lat="42.300760299904915" lon="13.886484868710351"><ele>362.8</ele><time>2026-04-18T10:50:17Z</time></trkpt><trkpt lat="42.300815377365176" lon="13.886582478670428"><ele>361.2</ele><time>2026-04-18T10:50:19Z</time></trkpt><trkpt lat="42.30083519636592" lon="13.88675562471692"><ele>359.59999999999997</ele><time>2026-04-18T10:50:21Z</time></trkpt><trkpt lat="42.300839671778064" lon="13.886863125559236"><ele>358.0</ele><time>2026-04-18T10:50:22Z</time></trkpt><trkpt lat="42.30085919566067" lon="13.886985337361489"><ele>357.4</ele><time>2026-04-18T10:50:24Z</time></trkpt><trkpt lat="42.3008383791746" lon="13.887099382542555"><ele>356.79999999999995</ele><time>2026-04-18T10:50:26Z</time></trkpt><trkpt lat="42.300815906985164" lon="13.88718727429226"><ele>356.2</ele><time>2026-04-18T10:50:27Z</time></trkpt><trkpt lat="42.300805064759004" lon="13.887347731801023"><ele>355.6</ele><time>2026-04-18T10:50:29Z</time></trkpt><trkpt lat="42.30079327926214" lon="13.887490777870877"><ele>355.0</ele><time>2026-04-18T10:50:31Z</time></trkpt><trkpt lat="42.300724881124886" lon="13.887628693796891"><ele>354.0</ele><time>2026-04-18T10:50:33Z</time></trkpt><trkpt lat="42.300730924835875" lon="13.88778039188712"><ele>353.0</ele><time>2026-04-18T10:50:35Z</time></trkpt><trkpt lat="42.300801797728994" lon="13.887909964256725"><ele>352.0</ele><time>2026-04-18T10:50:37Z</time></trkpt><trkpt lat="42.30087274517142" lon="13.888009611958738"><ele>351.0</ele><time>2026-04-18T10:50:39Z</time></trkpt><trkpt lat="42.300905686415966" lon="13.888133359002879"><ele>350.0</ele><time>2026-04-18T10:50:41Z</time></trkpt><trkpt lat="42.30087514853472" lon="13.888308230730647"><ele>350.0</ele><time>2026-04-18T10:50:43Z</time></trkpt><trkpt lat="42.30084596104389" lon="13.888389779806996"><ele>350.0</ele><time>2026-04-18T10:50:44Z</time></trkpt><trkpt lat="42.30085468214706" lon="13.888477872466995"><ele>350.0</ele><time>2026-04-18T10:50:45Z</time></trkpt><trkpt lat="42.30091292527314" lon="13.888595696886583"><ele>350.0</ele><time>2026-04-18T10:50:46Z</time></trkpt><trkpt lat="42.30098385599513" lon="13.888686974402493"><ele>350.0</ele><time>2026-04-18T10:50:47Z</time></trkpt><trkpt lat="42.30104060991491" lon="13.888762072926948"><ele>350.0</ele><time>2026-04-18T10:50:48Z</time></trkpt><trkpt lat="42.30107889410968" lon="13.8889109861051"><ele>349.83333333333337</ele><time>2026-04-18T10:50:50Z</time></trkpt><trkpt lat="42.30108156849282" lon="13.889006507382884"><ele>349.6666666666667</ele><time>2026-04-18T10:50:51Z</time></trkpt><trkpt lat="42.30106878052654" lon="13.889092773377516"><ele>349.5</ele><time>2026-04-18T10:50:52Z</time></trkpt><trkpt lat="42.30104520770846" lon="13.889176741021672"><ele>349.3333333333333</ele><time>2026-04-18T10:50:53Z</time></trkpt><trkpt lat="42.30102871427256" lon="13.889333023954126"><ele>349.16666666666663</ele><time>2026-04-18T10:50:55Z</time></trkpt><trkpt lat="42.30100631722391" lon="13.88942645196969"><ele>349.0</ele><time>2026-04-18T10:50:56Z</time></trkpt><trkpt lat="42.30097087604991" lon="13.889516005017278"><ele>348.79999999999995</ele><time>2026-04-18T10:50:57Z</time></trkpt><trkpt lat="42.30094170129581" lon="13.889615367005788"><ele>348.59999999999997</ele><time>2026-04-18T10:50:58Z</time></trkpt><trkpt lat="42.30091821925931" lon="13.889709211640657"><ele>348.4</ele><time>2026-04-18T10:50:59Z</time></trkpt><trkpt lat="42.30089120377499" lon="13.889857648701721"><ele>348.2</ele><time>2026-04-18T10:51:01Z</time></trkpt><trkpt lat="42.30084415231867" lon="13.889991636967752"><ele>348.0</ele><time>2026-04-18T10:51:03Z</time></trkpt><trkpt lat="42.30080550167364" lon="13.890140730790558"><ele>347.25</ele><time>2026-04-18T10:51:05Z</time></trkpt><trkpt lat="42.300769457550786" lon="13.890292229330564"><ele>346.5</ele><time>2026-04-18T10:51:07Z</time></trkpt><trkpt lat="42.30074121652067" lon="13.890435617601318"><ele>345.75</ele><time>2026-04-18T10:51:09Z</time></trkpt><trkpt lat="42.30073139401094" lon="13.890596415762076"><ele>345.0</ele><time>2026-04-18T10:51:11Z</time></trkpt><trkpt lat="42.30073829894824" lon="13.890766214121966"><ele>345.0</ele><time>2026-04-18T10:51:13Z</time></trkpt><trkpt lat="42.300748499308" lon="13.890859239044971"><ele>345.0</ele><time>2026-04-18T10:51:14Z</time></trkpt><trkpt lat="42.300752853488305" lon="13.890950215799888"><ele>345.0</ele><time>2026-04-18T10:51:15Z</time></trkpt><trkpt lat="42.300760692584205" lon="13.891074182053787"><ele>345.0</ele><time>2026-04-18T10:51:17Z</time></trkpt><trkpt lat="42.30077079742974" lon="13.891160105734189"><ele>345.0</ele><time>2026-04-18T10:51:18.999Z</time></trkpt><trkpt lat="42.30083467988829" lon="13.89113214531533"><ele>345.0</ele><time>2026-04-18T10:51:29.999Z</time></trkpt><trkpt lat="42.300910757174734" lon="13.891078920145345"><ele>345.0</ele><time>2026-04-18T10:51:32.999Z</time></trkpt><trkpt lat="42.301010840885276" lon="13.891098950719861"><ele>345.0</ele><time>2026-04-18T10:51:34.999Z</time></trkpt><trkpt lat="42.301127193675896" lon="13.891057381908235"><ele>345.0</ele><time>2026-04-18T10:51:36.999Z</time></trkpt><trkpt lat="42.30118995009914" lon="13.891039243134143"><ele>345.0</ele><time>2026-04-18T10:51:37.999Z</time></trkpt><trkpt lat="42.30129175684628" lon="13.891032391827292"><ele>345.0</ele><time>2026-04-18T10:51:39.999Z</time></trkpt><trkpt lat="42.30135573319081" lon="13.890951016962745"><ele>345.0</ele><time>2026-04-18T10:51:41.999Z</time></trkpt><trkpt lat="42.301413401416305" lon="13.890831690702257"><ele>348.0</ele><time>2026-04-18T10:51:43.999Z</time></trkpt><trkpt lat="42.30148942666893" lon="13.89074162358253"><ele>351.0</ele><time>2026-04-18T10:51:45.999Z</time></trkpt><trkpt lat="42.30157265637159" lon="13.890737207217635"><ele>354.0</ele><time>2026-04-18T10:51:47.999Z</time></trkpt><trkpt lat="42.30163553613165" lon="13.890720828496928"><ele>357.0</ele><time>2026-04-18T10:51:48.999Z</time></trkpt><trkpt lat="42.30172934189204" lon="13.890691909210732"><ele>360.0</ele><time>2026-04-18T10:51:50.999Z</time></trkpt><trkpt lat="42.30178653487409" lon="13.890640667122298"><ele>363.0</ele><time>2026-04-18T10:51:52.999Z</time></trkpt><trkpt lat="42.30188082444231" lon="13.890700450644934"><ele>363.0</ele><time>2026-04-18T10:51:54.999Z</time></trkpt><trkpt lat="42.3019107769194" lon="13.890555178738458"><ele>363.0</ele><time>2026-04-18T10:51:57.999Z</time></trkpt><trkpt lat="42.30187868274831" lon="13.890477850381773"><ele>363.0</ele><time>2026-04-18T10:51:59.999Z</time></trkpt><trkpt lat="42.301887132453196" lon="13.890362390464597"><ele>363.0</ele><time>2026-04-18T10:52:00.999Z</time></trkpt><trkpt lat="42.30185129015059" lon="13.890254327914189"><ele>363.0</ele><time>2026-04-18T10:52:01.999Z</time></trkpt><trkpt lat="42.301912402275086" lon="13.890131406055454"><ele>365.0</ele><time>2026-04-18T10:52:03.999Z</time></trkpt><trkpt lat="42.30197574952908" lon="13.890072428229127"><ele>367.0</ele><time>2026-04-18T10:52:04.999Z</time></trkpt><trkpt lat="42.302034340480674" lon="13.89002588952734"><ele>369.0</ele><time>2026-04-18T10:52:05.999Z</time></trkpt><trkpt lat="42.302104893506225" lon="13.889954617036857"><ele>371.0</ele><time>2026-04-18T10:52:07.999Z</time></trkpt><trkpt lat="42.30218412653539" lon="13.889855725349266"><ele>373.0</ele><time>2026-04-18T10:52:09.999Z</time></trkpt><trkpt lat="42.302227036867436" lon="13.889787620594422"><ele>375.0</ele><time>2026-04-18T10:52:10.999Z</time></trkpt><trkpt lat="42.302241331691825" lon="13.88969207167529"><ele>375.0</ele><time>2026-04-18T10:52:11.999Z</time></trkpt><trkpt lat="42.302237426831475" lon="13.889588486545307"><ele>375.0</ele><time>2026-04-18T10:52:12.999Z</time></trkpt><trkpt lat="42.30222344825809" lon="13.889479554492363"><ele>375.0</ele><time>2026-04-18T10:52:13.999Z</time></trkpt><trkpt lat="42.30222716611231" lon="13.889354338594147"><ele>375.0</ele><time>2026-04-18T10:52:14.999Z</time></trkpt><trkpt lat="42.30222959171396" lon="13.88925807256415"><ele>375.0</ele><time>2026-04-18T10:52:15.999Z</time></trkpt><trkpt lat="42.30228848244346" lon="13.889174419214344"><ele>375.0</ele><time>2026-04-18T10:52:17.999Z</time></trkpt><trkpt lat="42.30239025724881" lon="13.889142388258826"><ele>382.2</ele><time>2026-04-18T10:52:20Z</time></trkpt><trkpt lat="42.30252596836548" lon="13.889080906448152"><ele>389.4</ele><time>2026-04-18T10:52:22Z</time></trkpt><trkpt lat="42.30260817416455" lon="13.889054565414078"><ele>396.6</ele><time>2026-04-18T10:52:23Z</time></trkpt><trkpt lat="42.30268734352013" lon="13.88902800736956"><ele>403.8</ele><time>2026-04-18T10:52:24Z</time></trkpt><trkpt lat="42.3027837386066" lon="13.888965116485553"><ele>411.0</ele><time>2026-04-18T10:52:26Z</time></trkpt><trkpt lat="42.30288274918267" lon="13.888984057676476"><ele>411.0</ele><time>2026-04-18T10:52:28Z</time></trkpt><trkpt lat="42.3029586771661" lon="13.889006270664664"><ele>411.0</ele><time>2026-04-18T10:52:29Z</time></trkpt><trkpt lat="42.30305349581624" lon="13.889019058255927"><ele>411.0</ele><time>2026-04-18T10:52:30Z</time></trkpt><trkpt lat="42.303132331711666" lon="13.889022835476041"><ele>411.0</ele><time>2026-04-18T10:52:31Z</time></trkpt><trkpt lat="42.30319641256614" lon="13.889015769265901"><ele>411.0</ele><time>2026-04-18T10:52:32Z</time></trkpt><trkpt lat="42.30331640680665" lon="13.888972736499227"><ele>411.0</ele><time>2026-04-18T10:52:34Z</time></trkpt><trkpt lat="42.303379387745444" lon="13.888925703958742"><ele>415.3333333333333</ele><time>2026-04-18T10:52:35Z</time></trkpt><trkpt lat="42.30342968077123" lon="13.888868860586554"><ele>419.66666666666663</ele><time>2026-04-18T10:52:36Z</time></trkpt><trkpt lat="42.30348417060483" lon="13.888813250060476"><ele>424.0</ele><time>2026-04-18T10:52:37Z</time></trkpt><trkpt lat="42.30354539451804" lon="13.888764242321987"><ele>428.3333333333333</ele><time>2026-04-18T10:52:38Z</time></trkpt><trkpt lat="42.303597647137394" lon="13.888697909262387"><ele>432.66666666666663</ele><time>2026-04-18T10:52:39Z</time></trkpt><trkpt lat="42.30362036866907" lon="13.888554263004112"><ele>437.0</ele><time>2026-04-18T10:52:41Z</time></trkpt><trkpt lat="42.3036617309456" lon="13.888484401605389"><ele>437.0</ele><time>2026-04-18T10:52:44Z</time></trkpt><trkpt lat="42.303780120874094" lon="13.888524305312975"><ele>437.00000000000006</ele><time>2026-04-18T10:52:46Z</time></trkpt><trkpt lat="42.30384805262169" lon="13.888537640189549"><ele>437.00000000000006</ele><time>2026-04-18T10:52:47Z</time></trkpt><trkpt lat="42.30394707271858" lon="13.88851189057933"><ele>437.0</ele><time>2026-04-18T10:52:49Z</time></trkpt><trkpt lat="42.304052536034106" lon="13.88842115753762"><ele>437.0</ele><time>2026-04-18T10:52:51Z</time></trkpt><trkpt lat="42.30415392645537" lon="13.888335679794267"><ele>441.8</ele><time>2026-04-18T10:52:53Z</time></trkpt><trkpt lat="42.304277602001186" lon="13.888288019308364"><ele>446.6</ele><time>2026-04-18T10:52:55Z</time></trkpt><trkpt lat="42.30435657666605" lon="13.888251368558254"><ele>451.40000000000003</ele><time>2026-04-18T10:52:56Z</time></trkpt><trkpt lat="42.30443676114288" lon="13.888209415431263"><ele>456.20000000000005</ele><time>2026-04-18T10:52:57Z</time></trkpt><trkpt lat="42.304548220852276" lon="13.88812633889242"><ele>461.0</ele><time>2026-04-18T10:52:59Z</time></trkpt><trkpt lat="42.304611201239034" lon="13.888082853700206"><ele>461.0</ele><time>2026-04-18T10:53:00Z</time></trkpt><trkpt lat="42.30471064210286" lon="13.888031000738179"><ele>461.0</ele><time>2026-04-18T10:53:02Z</time></trkpt><trkpt lat="42.304803999201624" lon="13.888054780057317"><ele>461.0</ele><time>2026-04-18T10:53:04Z</time></trkpt><trkpt lat="42.304839558099516" lon="13.88820309169966"><ele>461.0</ele><time>2026-04-18T10:53:08Z</time></trkpt><trkpt lat="42.30487208565564" lon="13.888328797141527"><ele>461.0</ele><time>2026-04-18T10:53:09Z</time></trkpt><trkpt lat="42.304908754881126" lon="13.88846433803966"><ele>462.0</ele><time>2026-04-18T10:53:10Z</time></trkpt><trkpt lat="42.30495098823899" lon="13.88861184344419"><ele>463.0</ele><time>2026-04-18T10:53:11Z</time></trkpt><trkpt lat="42.30499015189683" lon="13.888709814342608"><ele>464.0</ele><time>2026-04-18T10:53:12Z</time></trkpt><trkpt lat="42.305032742435586" lon="13.888821194020771"><ele>465.0</ele><time>2026-04-18T10:53:14Z</time></trkpt><trkpt lat="42.30512019018958" lon="13.888955496658776"><ele>466.0</ele><time>2026-04-18T10:53:16Z</time></trkpt><trkpt lat="42.30517521550596" lon="13.889078379189598"><ele>466.00000000000006</ele><time>2026-04-18T10:53:18Z</time></trkpt><trkpt lat="42.30521944131705" lon="13.889149573500694"><ele>466.0</ele><time>2026-04-18T10:53:19Z</time></trkpt><trkpt lat="42.30527658185164" lon="13.88921897370797"><ele>466.0</ele><time>2026-04-18T10:53:20Z</time></trkpt><trkpt lat="42.30533537724499" lon="13.889285038590282"><ele>466.0</ele><time>2026-04-18T10:53:21Z</time></trkpt><trkpt lat="42.30541225545808" lon="13.88936577842236"><ele>466.00000000000006</ele><time>2026-04-18T10:53:22Z</time></trkpt><trkpt lat="42.305506084403966" lon="13.889456153240507"><ele>466.0</ele><time>2026-04-18T10:53:23Z</time></trkpt><trkpt lat="42.30558702054732" lon="13.889534978821821"><ele>464.00000000000006</ele><time>2026-04-18T10:53:23.999Z</time></trkpt><trkpt lat="42.30566234439699" lon="13.889598953897883"><ele>462.0</ele><time>2026-04-18T10:53:24.999Z</time></trkpt><trkpt lat="42.305731725306025" lon="13.889658685455663"><ele>460.0</ele><time>2026-04-18T10:53:25.999Z</time></trkpt><trkpt lat="42.305800942475905" lon="13.889724362006257"><ele>458.0</ele><time>2026-04-18T10:53:26.999Z</time></trkpt><trkpt lat="42.30586388472015" lon="13.889801877164254"><ele>456.00000000000006</ele><time>2026-04-18T10:53:27.999Z</time></trkpt><trkpt lat="42.30590951548131" lon="13.889906173847042"><ele>454.0</ele><time>2026-04-18T10:53:28.999Z</time></trkpt><trkpt lat="42.30593766416547" lon="13.890069419605515"><ele>452.25</ele><time>2026-04-18T10:53:29.999Z</time></trkpt><trkpt lat="42.3059680270189" lon="13.890223907913066"><ele>450.5</ele><time>2026-04-18T10:53:30.999Z</time></trkpt><trkpt lat="42.30600090630754" lon="13.890390335959973"><ele>448.75</ele><time>2026-04-18T10:53:31.999Z</time></trkpt><trkpt lat="42.30601739602518" lon="13.890540782611799"><ele>447.0</ele><time>2026-04-18T10:53:32.999Z</time></trkpt><trkpt lat="42.30603548125256" lon="13.89068987209766"><ele>447.0</ele><time>2026-04-18T10:53:33.999Z</time></trkpt><trkpt lat="42.3060588026656" lon="13.8908519645022"><ele>447.0</ele><time>2026-04-18T10:53:34.999Z</time></trkpt><trkpt lat="42.30606721544738" lon="13.891015680006458"><ele>447.0</ele><time>2026-04-18T10:53:35.999Z</time></trkpt><trkpt lat="42.30608887520642" lon="13.891182975844817"><ele>447.0</ele><time>2026-04-18T10:53:36.999Z</time></trkpt><trkpt lat="42.30611065682371" lon="13.891335921948466"><ele>445.8</ele><time>2026-04-18T10:53:37.999Z</time></trkpt><trkpt lat="42.30612073771498" lon="13.89148178955116"><ele>444.6</ele><time>2026-04-18T10:53:38.999Z</time></trkpt><trkpt lat="42.30612938902187" lon="13.891606636447674"><ele>443.40000000000003</ele><time>2026-04-18T10:53:39.999Z</time></trkpt><trkpt lat="42.3061292760124" lon="13.891723631223154"><ele>442.20000000000005</ele><time>2026-04-18T10:53:40.999Z</time></trkpt><trkpt lat="42.30614831866323" lon="13.89183047504728"><ele>441.0</ele><time>2026-04-18T10:53:41.999Z</time></trkpt><trkpt lat="42.306195518445584" lon="13.891950720187447"><ele>438.4</ele><time>2026-04-18T10:53:42.999Z</time></trkpt><trkpt lat="42.306250840997" lon="13.892093480266011"><ele>435.8</ele><time>2026-04-18T10:53:43.999Z</time></trkpt><trkpt lat="42.306299533026156" lon="13.892231293025237"><ele>433.19999999999993</ele><time>2026-04-18T10:53:44.999Z</time></trkpt><trkpt lat="42.30633313556852" lon="13.892360831425984"><ele>430.59999999999997</ele><time>2026-04-18T10:53:45.999Z</time></trkpt><trkpt lat="42.3063612539315" lon="13.89248397246781"><ele>428.0</ele><time>2026-04-18T10:53:46.999Z</time></trkpt><trkpt lat="42.30640221257359" lon="13.892601519771919"><ele>426.16666666666663</ele><time>2026-04-18T10:53:47.999Z</time></trkpt><trkpt lat="42.306456793807264" lon="13.892699404084988"><ele>424.3333333333333</ele><time>2026-04-18T10:53:48.999Z</time></trkpt><trkpt lat="42.30650991479339" lon="13.892756533640187"><ele>422.5</ele><time>2026-04-18T10:53:49.999Z</time></trkpt><trkpt lat="42.306586116781524" lon="13.892802037260811"><ele>420.66666666666663</ele><time>2026-04-18T10:53:50.999Z</time></trkpt><trkpt lat="42.30667035127632" lon="13.89283721363896"><ele>418.8333333333333</ele><time>2026-04-18T10:53:51.999Z</time></trkpt><trkpt lat="42.30675186617446" lon="13.892867132357912"><ele>417.0</ele><time>2026-04-18T10:53:52.999Z</time></trkpt><trkpt lat="42.30682665246594" lon="13.892900298469211"><ele>417.0</ele><time>2026-04-18T10:53:53.999Z</time></trkpt><trkpt lat="42.30689392082778" lon="13.892929947140642"><ele>417.0</ele><time>2026-04-18T10:53:54.999Z</time></trkpt><trkpt lat="42.306952379959235" lon="13.892967548541698"><ele>417.0</ele><time>2026-04-18T10:53:55.999Z</time></trkpt><trkpt lat="42.307020522855545" lon="13.893000840161514"><ele>417.0</ele><time>2026-04-18T10:53:56.999Z</time></trkpt><trkpt lat="42.30708476375944" lon="13.893055870248867"><ele>417.0</ele><time>2026-04-18T10:53:57.999Z</time></trkpt><trkpt lat="42.307148834179024" lon="13.893095643221864"><ele>417.0</ele><time>2026-04-18T10:53:58.999Z</time></trkpt><trkpt lat="42.307215607816715" lon="13.893129456312376"><ele>417.0</ele><time>2026-04-18T10:53:59.999Z</time></trkpt><trkpt lat="42.30727488954481" lon="13.89317069924997"><ele>415.5</ele><time>2026-04-18T10:54:00.999Z</time></trkpt><trkpt lat="42.30736885635695" lon="13.89323654933093"><ele>414.0</ele><time>2026-04-18T10:54:02.999Z</time></trkpt><trkpt lat="42.307422969741886" lon="13.89328743038349"><ele>412.5</ele><time>2026-04-18T10:54:03.999Z</time></trkpt><trkpt lat="42.307469279346044" lon="13.89335437643403"><ele>411.0</ele><time>2026-04-18T10:54:04.999Z</time></trkpt><trkpt lat="42.307506757759974" lon="13.893433827429924"><ele>409.5</ele><time>2026-04-18T10:54:05.999Z</time></trkpt><trkpt lat="42.3075331625866" lon="13.89351400500037"><ele>408.0</ele><time>2026-04-18T10:54:06.999Z</time></trkpt><trkpt lat="42.30761360234221" lon="13.893572174755407"><ele>408.0</ele><time>2026-04-18T10:54:08.999Z</time></trkpt><trkpt lat="42.30769955979768" lon="13.893484932299055"><ele>408.0</ele><time>2026-04-18T10:54:10.999Z</time></trkpt><trkpt lat="42.30773370071778" lon="13.893380966191591"><ele>408.0</ele><time>2026-04-18T10:54:11.999Z</time></trkpt><trkpt lat="42.30776241772651" lon="13.893235516285527"><ele>408.0</ele><time>2026-04-18T10:54:12.999Z</time></trkpt><trkpt lat="42.30780931224024" lon="13.893082477931214"><ele>408.0</ele><time>2026-04-18T10:54:13.999Z</time></trkpt><trkpt lat="42.30787541745156" lon="13.89295913589554"><ele>408.0</ele><time>2026-04-18T10:54:14.999Z</time></trkpt><trkpt lat="42.30793676228971" lon="13.892852860923666"><ele>408.0</ele><time>2026-04-18T10:54:15.999Z</time></trkpt><trkpt lat="42.30797303736055" lon="13.892732336587166"><ele>408.0</ele><time>2026-04-18T10:54:16.999Z</time></trkpt><trkpt lat="42.30799063326838" lon="13.892600887318533"><ele>408.0</ele><time>2026-04-18T10:54:17.999Z</time></trkpt><trkpt lat="42.30800571491772" lon="13.892490271625356"><ele>408.0</ele><time>2026-04-18T10:54:18.999Z</time></trkpt><trkpt lat="42.30804790331511" lon="13.892398937126227"><ele>406.2</ele><time>2026-04-18T10:54:19.999Z</time></trkpt><trkpt lat="42.30812379246759" lon="13.892325040843945"><ele>404.4</ele><time>2026-04-18T10:54:20.999Z</time></trkpt><trkpt lat="42.308216044758986" lon="13.89228607998798"><ele>402.59999999999997</ele><time>2026-04-18T10:54:21.999Z</time></trkpt><trkpt lat="42.30831373877639" lon="13.892331282633329"><ele>400.79999999999995</ele><time>2026-04-18T10:54:22.999Z</time></trkpt><trkpt lat="42.30844787242048" lon="13.892336432136435"><ele>399.0</ele><time>2026-04-18T10:54:23.999Z</time></trkpt><trkpt lat="42.30857280116432" lon="13.892385835882537"><ele>399.0</ele><time>2026-04-18T10:54:24.999Z</time></trkpt><trkpt lat="42.30868325017022" lon="13.892382132438776"><ele>399.0</ele><time>2026-04-18T10:54:26Z</time></trkpt><trkpt lat="42.308790323963414" lon="13.892345769570316"><ele>399.0</ele><time>2026-04-18T10:54:27Z</time></trkpt><trkpt lat="42.30889383006518" lon="13.892280939700584"><ele>399.0</ele><time>2026-04-18T10:54:28Z</time></trkpt><trkpt lat="42.30899002242148" lon="13.89218151070559"><ele>399.0</ele><time>2026-04-18T10:54:29Z</time></trkpt><trkpt lat="42.30906781725363" lon="13.8920536886944"><ele>399.0</ele><time>2026-04-18T10:54:30Z</time></trkpt><trkpt lat="42.3091113617462" lon="13.891953772029014"><ele>399.0</ele><time>2026-04-18T10:54:31Z</time></trkpt><trkpt lat="42.309171754297154" lon="13.891890583539157"><ele>399.0</ele><time>2026-04-18T10:54:32Z</time></trkpt><trkpt lat="42.30926748207527" lon="13.891821619107002"><ele>399.0</ele><time>2026-04-18T10:54:33Z</time></trkpt><trkpt lat="42.30937754251274" lon="13.891770407621213"><ele>402.75</ele><time>2026-04-18T10:54:34Z</time></trkpt><trkpt lat="42.30950224518025" lon="13.891703985369334"><ele>406.5</ele><time>2026-04-18T10:54:35Z</time></trkpt><trkpt lat="42.30961093055372" lon="13.891645017945411"><ele>410.25</ele><time>2026-04-18T10:54:36Z</time></trkpt><trkpt lat="42.30970567928867" lon="13.891589192171423"><ele>414.0</ele><time>2026-04-18T10:54:37Z</time></trkpt><trkpt lat="42.309814260724536" lon="13.891532747239156"><ele>414.3333333333333</ele><time>2026-04-18T10:54:38Z</time></trkpt><trkpt lat="42.309911626674754" lon="13.891483513171751"><ele>414.66666666666663</ele><time>2026-04-18T10:54:39Z</time></trkpt><trkpt lat="42.30998083412247" lon="13.891440242796671"><ele>415.0</ele><time>2026-04-18T10:54:40Z</time></trkpt><trkpt lat="42.31004288278419" lon="13.891415215402647"><ele>415.3333333333333</ele><time>2026-04-18T10:54:41Z</time></trkpt><trkpt lat="42.31012544196979" lon="13.89141599448024"><ele>415.66666666666663</ele><time>2026-04-18T10:54:43Z</time></trkpt><trkpt lat="42.31018482382" lon="13.89152579631742"><ele>416.0</ele><time>2026-04-18T10:54:45Z</time></trkpt><trkpt lat="42.3101774136251" lon="13.891705490125615"><ele>414.66666666666663</ele><time>2026-04-18T10:54:47Z</time></trkpt><trkpt lat="42.31015553749285" lon="13.89184854991035"><ele>413.33333333333337</ele><time>2026-04-18T10:54:48Z</time></trkpt><trkpt lat="42.31008772059709" lon="13.892109913476862"><ele>412.0</ele><time>2026-04-18T10:54:49Z</time></trkpt><trkpt lat="42.31007383512821" lon="13.892344533363108"><ele>412.0</ele><time>2026-04-18T10:54:50Z</time></trkpt><trkpt lat="42.3100669052668" lon="13.89254371664554"><ele>412.0</ele><time>2026-04-18T10:54:51Z</time></trkpt><trkpt lat="42.310084229471904" lon="13.892702710021556"><ele>412.0</ele><time>2026-04-18T10:54:52Z</time></trkpt><trkpt lat="42.310126204545085" lon="13.892853221639326"><ele>412.0</ele><time>2026-04-18T10:54:53Z</time></trkpt><trkpt lat="42.310178900005106" lon="13.893012597515977"><ele>411.8</ele><time>2026-04-18T10:54:54Z</time></trkpt><trkpt lat="42.310218206811804" lon="13.893138422781906"><ele>411.6</ele><time>2026-04-18T10:54:55Z</time></trkpt><trkpt lat="42.31026100936479" lon="13.893244404715233"><ele>411.40000000000003</ele><time>2026-04-18T10:54:56Z</time></trkpt><trkpt lat="42.31037527797434" lon="13.893230782906745"><ele>411.20000000000005</ele><time>2026-04-18T10:54:57Z</time></trkpt><trkpt lat="42.31045285976402" lon="13.89325651972608"><ele>411.0</ele><time>2026-04-18T10:54:58Z</time></trkpt><trkpt lat="42.31056841858551" lon="13.893264962906722"><ele>410.5</ele><time>2026-04-18T10:54:59Z</time></trkpt><trkpt lat="42.31067760281493" lon="13.893275582722623"><ele>410.0</ele><time>2026-04-18T10:55:00Z</time></trkpt><trkpt lat="42.3107794755229" lon="13.89331018810786"><ele>409.5</ele><time>2026-04-18T10:55:01Z</time></trkpt><trkpt lat="42.31088730111362" lon="13.89338577780151"><ele>409.0</ele><time>2026-04-18T10:55:02Z</time></trkpt><trkpt lat="42.31098299322681" lon="13.893497329761095"><ele>409.0</ele><time>2026-04-18T10:55:03Z</time></trkpt><trkpt lat="42.311089660954764" lon="13.89362884992996"><ele>409.0</ele><time>2026-04-18T10:55:04Z</time></trkpt><trkpt lat="42.311192882151374" lon="13.893755482488375"><ele>409.0</ele><time>2026-04-18T10:55:05Z</time></trkpt><trkpt lat="42.311275075305616" lon="13.893897957211975"><ele>409.0</ele><time>2026-04-18T10:55:06Z</time></trkpt><trkpt lat="42.31133581645772" lon="13.894025109274757"><ele>409.0</ele><time>2026-04-18T10:55:07Z</time></trkpt><trkpt lat="42.31137848641162" lon="13.894161515261013"><ele>409.0</ele><time>2026-04-18T10:55:08Z</time></trkpt><trkpt lat="42.311415599455586" lon="13.894292880969418"><ele>409.0</ele><time>2026-04-18T10:55:09Z</time></trkpt><trkpt lat="42.311474531773406" lon="13.894391713647744"><ele>409.0</ele><time>2026-04-18T10:55:10Z</time></trkpt><trkpt lat="42.31155233429322" lon="13.894464298102546"><ele>409.0</ele><time>2026-04-18T10:55:11Z</time></trkpt><trkpt lat="42.311637799349334" lon="13.894515922783357"><ele>410.2</ele><time>2026-04-18T10:55:12Z</time></trkpt><trkpt lat="42.311724676834004" lon="13.89455627714706"><ele>411.4</ele><time>2026-04-18T10:55:13Z</time></trkpt><trkpt lat="42.31182101241778" lon="13.89460344543243"><ele>412.6</ele><time>2026-04-18T10:55:14Z</time></trkpt><trkpt lat="42.31191690790208" lon="13.894670932198078"><ele>413.8</ele><time>2026-04-18T10:55:15Z</time></trkpt><trkpt lat="42.312009257959474" lon="13.894730316552069"><ele>415.0</ele><time>2026-04-18T10:55:16Z</time></trkpt><trkpt lat="42.312099726880696" lon="13.894753912722095"><ele>415.00000000000006</ele><time>2026-04-18T10:55:17Z</time></trkpt><trkpt lat="42.312185748798974" lon="13.894755592064337"><ele>415.0</ele><time>2026-04-18T10:55:18Z</time></trkpt><trkpt lat="42.312269577517334" lon="13.894751305076822"><ele>415.0</ele><time>2026-04-18T10:55:19Z</time></trkpt><trkpt lat="42.312347593557114" lon="13.894804422463162"><ele>415.0</ele><time>2026-04-18T10:55:20Z</time></trkpt><trkpt lat="42.31240249902804" lon="13.894902208163629"><ele>415.00000000000006</ele><time>2026-04-18T10:55:21Z</time></trkpt><trkpt lat="42.31242673055117" lon="13.895013411793132"><ele>415.0</ele><time>2026-04-18T10:55:22Z</time></trkpt><trkpt lat="42.31242831373978" lon="13.895144543643362"><ele>420.0</ele><time>2026-04-18T10:55:23Z</time></trkpt><trkpt lat="42.31242371769576" lon="13.895291974469778"><ele>425.0</ele><time>2026-04-18T10:55:24Z</time></trkpt><trkpt lat="42.312411853555936" lon="13.895468081013634"><ele>430.0</ele><time>2026-04-18T10:55:25Z</time></trkpt><trkpt lat="42.31239778215361" lon="13.89570675879081"><ele>435.0</ele><time>2026-04-18T10:55:26Z</time></trkpt><trkpt lat="42.31239072567214" lon="13.895959689984831"><ele>435.0</ele><time>2026-04-18T10:55:27Z</time></trkpt><trkpt lat="42.312375876996605" lon="13.896146969890129"><ele>435.0</ele><time>2026-04-18T10:55:28Z</time></trkpt><trkpt lat="42.312364514003185" lon="13.896306828260737"><ele>435.0</ele><time>2026-04-18T10:55:29Z</time></trkpt><trkpt lat="42.3123597503128" lon="13.896444609540726"><ele>435.0</ele><time>2026-04-18T10:55:30Z</time></trkpt><trkpt lat="42.31236753768521" lon="13.896555280382763"><ele>435.0</ele><time>2026-04-18T10:55:31Z</time></trkpt><trkpt lat="42.312396978483136" lon="13.896665191603768"><ele>434.0</ele><time>2026-04-18T10:55:32Z</time></trkpt><trkpt lat="42.31243396556572" lon="13.89678362715041"><ele>433.0</ele><time>2026-04-18T10:55:33Z</time></trkpt><trkpt lat="42.31247835391273" lon="13.896917186054912"><ele>432.0</ele><time>2026-04-18T10:55:34Z</time></trkpt><trkpt lat="42.31252866501454" lon="13.897021531020425"><ele>431.0</ele><time>2026-04-18T10:55:35Z</time></trkpt><trkpt lat="42.31257507129837" lon="13.897093016572112"><ele>430.0</ele><time>2026-04-18T10:55:36Z</time></trkpt><trkpt lat="42.31263576244831" lon="13.897222042117722"><ele>430.0</ele><time>2026-04-18T10:55:38Z</time></trkpt><trkpt lat="42.3126184554372" lon="13.897337736643305"><ele>430.0</ele><time>2026-04-18T10:55:39Z</time></trkpt><trkpt lat="42.31258746692892" lon="13.897471581410338"><ele>430.0</ele><time>2026-04-18T10:55:40Z</time></trkpt><trkpt lat="42.312562938988876" lon="13.89760427507386"><ele>430.0</ele><time>2026-04-18T10:55:40.999Z</time></trkpt><trkpt lat="42.312540582186365" lon="13.897731925893918"><ele>430.0</ele><time>2026-04-18T10:55:41.999Z</time></trkpt><trkpt lat="42.312521412434265" lon="13.897858040856107"><ele>429.2</ele><time>2026-04-18T10:55:42.999Z</time></trkpt><trkpt lat="42.31250042822664" lon="13.897980374524034"><ele>428.4</ele><time>2026-04-18T10:55:43.999Z</time></trkpt><trkpt lat="42.31248184108244" lon="13.898072749208048"><ele>427.6</ele><time>2026-04-18T10:55:44.999Z</time></trkpt><trkpt lat="42.31245848668894" lon="13.898201552441252"><ele>426.8</ele><time>2026-04-18T10:55:46.999Z</time></trkpt><trkpt lat="42.31256305177503" lon="13.898293406148984"><ele>426.0</ele><time>2026-04-18T10:55:48.999Z</time></trkpt><trkpt lat="42.31264664496438" lon="13.898275838302192"><ele>426.0</ele><time>2026-04-18T10:55:49.999Z</time></trkpt><trkpt lat="42.31274023181041" lon="13.898230006146713"><ele>426.0</ele><time>2026-04-18T10:55:50.999Z</time></trkpt><trkpt lat="42.3128381705521" lon="13.89817888980835"><ele>426.0</ele><time>2026-04-18T10:55:51.999Z</time></trkpt><trkpt lat="42.31295474456028" lon="13.898123916739252"><ele>426.0</ele><time>2026-04-18T10:55:52.999Z</time></trkpt><trkpt lat="42.3130561892547" lon="13.898077599024242"><ele>426.0</ele><time>2026-04-18T10:55:53.999Z</time></trkpt><trkpt lat="42.313143209713076" lon="13.898041734570434"><ele>427.0</ele><time>2026-04-18T10:55:54.999Z</time></trkpt><trkpt lat="42.313233782294475" lon="13.898007873694802"><ele>428.0</ele><time>2026-04-18T10:55:55.999Z</time></trkpt><trkpt lat="42.313325003858" lon="13.897964290179038"><ele>429.0</ele><time>2026-04-18T10:55:56.999Z</time></trkpt><trkpt lat="42.3134202612441" lon="13.897925463246576"><ele>430.0</ele><time>2026-04-18T10:55:57.999Z</time></trkpt><trkpt lat="42.31352206075187" lon="13.89787694840334"><ele>431.0</ele><time>2026-04-18T10:55:58.999Z</time></trkpt><trkpt lat="42.31361298462253" lon="13.897842091109258"><ele>431.0</ele><time>2026-04-18T10:55:59.999Z</time></trkpt><trkpt lat="42.31370477891483" lon="13.897822135131467"><ele>431.0</ele><time>2026-04-18T10:56:00.999Z</time></trkpt><trkpt lat="42.313800031307416" lon="13.897807278303745"><ele>431.0</ele><time>2026-04-18T10:56:01.999Z</time></trkpt><trkpt lat="42.313900453331286" lon="13.897760480163837"><ele>431.0</ele><time>2026-04-18T10:56:02.999Z</time></trkpt><trkpt lat="42.31399104208285" lon="13.897685971001204"><ele>431.0</ele><time>2026-04-18T10:56:03.999Z</time></trkpt><trkpt lat="42.314068524998014" lon="13.897598623540514"><ele>432.4</ele><time>2026-04-18T10:56:04.999Z</time></trkpt><trkpt lat="42.3141373211307" lon="13.897518142958363"><ele>433.8</ele><time>2026-04-18T10:56:05.999Z</time></trkpt><trkpt lat="42.314210826433545" lon="13.89743346565171"><ele>435.19999999999993</ele><time>2026-04-18T10:56:06.999Z</time></trkpt><trkpt lat="42.31429414403608" lon="13.897343821100606"><ele>436.59999999999997</ele><time>2026-04-18T10:56:07.999Z</time></trkpt><trkpt lat="42.314390857298775" lon="13.897275124643254"><ele>438.0</ele><time>2026-04-18T10:56:08.999Z</time></trkpt><trkpt lat="42.31448391630334" lon="13.897211030624609"><ele>438.0</ele><time>2026-04-18T10:56:09.999Z</time></trkpt><trkpt lat="42.31457180709936" lon="13.897151266873935"><ele>437.99999999999994</ele><time>2026-04-18T10:56:10.999Z</time></trkpt><trkpt lat="42.31466126132607" lon="13.897095453866912"><ele>437.99999999999994</ele><time>2026-04-18T10:56:11.999Z</time></trkpt><trkpt lat="42.31476632708195" lon="13.89703575494069"><ele>438.0</ele><time>2026-04-18T10:56:12.999Z</time></trkpt><trkpt lat="42.31488524309364" lon="13.896989114001602"><ele>438.0</ele><time>2026-04-18T10:56:13.999Z</time></trkpt><trkpt lat="42.314990276739856" lon="13.896969050529027"><ele>437.2</ele><time>2026-04-18T10:56:14.999Z</time></trkpt><trkpt lat="42.31506884479716" lon="13.896930661377773"><ele>436.4</ele><time>2026-04-18T10:56:15.999Z</time></trkpt><trkpt lat="42.3151286942511" lon="13.896849584833737"><ele>435.59999999999997</ele><time>2026-04-18T10:56:16.999Z</time></trkpt><trkpt lat="42.31518517670522" lon="13.896733846474758"><ele>434.79999999999995</ele><time>2026-04-18T10:56:17.999Z</time></trkpt><trkpt lat="42.315245377655216" lon="13.896618950555277"><ele>434.0</ele><time>2026-04-18T10:56:18.999Z</time></trkpt><trkpt lat="42.31531840089419" lon="13.896494576207289"><ele>434.0</ele><time>2026-04-18T10:56:19.999Z</time></trkpt><trkpt lat="42.315400094492105" lon="13.89636554099527"><ele>434.0</ele><time>2026-04-18T10:56:20.999Z</time></trkpt><trkpt lat="42.31548847723778" lon="13.896244941078121"><ele>434.0</ele><time>2026-04-18T10:56:21.999Z</time></trkpt><trkpt lat="42.315565751627354" lon="13.89613195869864"><ele>434.0</ele><time>2026-04-18T10:56:22.999Z</time></trkpt><trkpt lat="42.315618053375985" lon="13.896060234343611"><ele>434.0</ele><time>2026-04-18T10:56:23.999Z</time></trkpt><trkpt lat="42.31566268561029" lon="13.895995166343303"><ele>432.66666666666663</ele><time>2026-04-18T10:56:24.999Z</time></trkpt><trkpt lat="42.31571044447325" lon="13.895920768248612"><ele>431.3333333333333</ele><time>2026-04-18T10:56:25.999Z</time></trkpt><trkpt lat="42.31576147953792" lon="13.895846002872773"><ele>430.0</ele><time>2026-04-18T10:56:26.999Z</time></trkpt><trkpt lat="42.31580716018232" lon="13.895770734415684"><ele>428.66666666666663</ele><time>2026-04-18T10:56:27.999Z</time></trkpt><trkpt lat="42.315887482907065" lon="13.895636903538332"><ele>427.3333333333333</ele><time>2026-04-18T10:56:29.999Z</time></trkpt><trkpt lat="42.315926512267296" lon="13.89556093154615"><ele>426.0</ele><time>2026-04-18T10:56:30.999Z</time></trkpt><trkpt lat="42.31598094665942" lon="13.89543599404466"><ele>426.0</ele><time>2026-04-18T10:56:33Z</time></trkpt><trkpt lat="42.31604985781019" lon="13.895291572200769"><ele>426.0</ele><time>2026-04-18T10:56:35Z</time></trkpt><trkpt lat="42.31608531437353" lon="13.895204803570142"><ele>426.0</ele><time>2026-04-18T10:56:36Z</time></trkpt><trkpt lat="42.316122917543126" lon="13.895110299214009"><ele>426.0</ele><time>2026-04-18T10:56:37Z</time></trkpt><trkpt lat="42.316169756556995" lon="13.895027876388419"><ele>426.0</ele><time>2026-04-18T10:56:38Z</time></trkpt><trkpt lat="42.31621992122428" lon="13.894942181567153"><ele>426.0</ele><time>2026-04-18T10:56:39Z</time></trkpt><trkpt lat="42.3162747154783" lon="13.894853715329122"><ele>427.75</ele><time>2026-04-18T10:56:40Z</time></trkpt><trkpt lat="42.31633204884927" lon="13.894746898535349"><ele>429.5</ele><time>2026-04-18T10:56:41Z</time></trkpt><trkpt lat="42.31638933206075" lon="13.894616398099128"><ele>431.25</ele><time>2026-04-18T10:56:42Z</time></trkpt><trkpt lat="42.3164419635131" lon="13.894468896752189"><ele>433.0</ele><time>2026-04-18T10:56:43Z</time></trkpt><trkpt lat="42.31649438916645" lon="13.89431838748244"><ele>431.2</ele><time>2026-04-18T10:56:44Z</time></trkpt><trkpt lat="42.316549361324256" lon="13.894181756920142"><ele>429.4</ele><time>2026-04-18T10:56:45Z</time></trkpt><trkpt lat="42.31658904598577" lon="13.894061528447759"><ele>427.59999999999997</ele><time>2026-04-18T10:56:46Z</time></trkpt><trkpt lat="42.316616210204614" lon="13.893923083379184"><ele>425.79999999999995</ele><time>2026-04-18T10:56:47Z</time></trkpt><trkpt lat="42.31662522331648" lon="13.893786174993485"><ele>424.0</ele><time>2026-04-18T10:56:48Z</time></trkpt><trkpt lat="42.31661974423371" lon="13.89365894735189"><ele>424.0</ele><time>2026-04-18T10:56:49Z</time></trkpt><trkpt lat="42.31659363964412" lon="13.893519277034802"><ele>424.0</ele><time>2026-04-18T10:56:50Z</time></trkpt><trkpt lat="42.31655682589339" lon="13.893347194881974"><ele>424.0</ele><time>2026-04-18T10:56:51Z</time></trkpt><trkpt lat="42.3165090237592" lon="13.89318454756167"><ele>424.0</ele><time>2026-04-18T10:56:52Z</time></trkpt><trkpt lat="42.316469035924634" lon="13.893036299948823"><ele>425.25</ele><time>2026-04-18T10:56:53Z</time></trkpt><trkpt lat="42.316438080692066" lon="13.892891342929143"><ele>426.5</ele><time>2026-04-18T10:56:54Z</time></trkpt><trkpt lat="42.31641458772183" lon="13.892730086659018"><ele>427.75</ele><time>2026-04-18T10:56:55Z</time></trkpt><trkpt lat="42.31640326363295" lon="13.89252408730904"><ele>429.0</ele><time>2026-04-18T10:56:56Z</time></trkpt><trkpt lat="42.316397506062565" lon="13.892317030102696"><ele>429.79999999999995</ele><time>2026-04-18T10:56:57Z</time></trkpt><trkpt lat="42.3164014277512" lon="13.892165313971384"><ele>430.59999999999997</ele><time>2026-04-18T10:56:58Z</time></trkpt><trkpt lat="42.31640773701511" lon="13.892059431869734"><ele>431.4</ele><time>2026-04-18T10:56:59Z</time></trkpt><trkpt lat="42.31641173102358" lon="13.891955433519517"><ele>432.2</ele><time>2026-04-18T10:57:00Z</time></trkpt><trkpt lat="42.31639511900464" lon="13.891832138659055"><ele>433.0</ele><time>2026-04-18T10:57:01Z</time></trkpt><trkpt lat="42.316375292189946" lon="13.891709949512618"><ele>433.00000000000006</ele><time>2026-04-18T10:57:02Z</time></trkpt><trkpt lat="42.316370653864126" lon="13.891604400578426"><ele>433.0</ele><time>2026-04-18T10:57:03Z</time></trkpt><trkpt lat="42.316356024926186" lon="13.891512326713395"><ele>433.0</ele><time>2026-04-18T10:57:04Z</time></trkpt><trkpt lat="42.3163478972985" lon="13.891417150501525"><ele>433.0</ele><time>2026-04-18T10:57:05Z</time></trkpt><trkpt lat="42.31633692551141" lon="13.891274632921357"><ele>433.00000000000006</ele><time>2026-04-18T10:57:07Z</time></trkpt><trkpt lat="42.31637123367433" lon="13.891141755199738"><ele>433.0</ele><time>2026-04-18T10:57:09Z</time></trkpt><trkpt lat="42.316477880533746" lon="13.891062220715627"><ele>433.0</ele><time>2026-04-18T10:57:11Z</time></trkpt><trkpt lat="42.31660818743416" lon="13.891071509384979"><ele>432.99999999999994</ele><time>2026-04-18T10:57:13Z</time></trkpt><trkpt lat="42.316676742895524" lon="13.891106412106058"><ele>432.99999999999994</ele><time>2026-04-18T10:57:14Z</time></trkpt><trkpt lat="42.31674424286643" lon="13.891119988182092"><ele>433.0</ele><time>2026-04-18T10:57:15Z</time></trkpt><trkpt lat="42.316856279587334" lon="13.891105163111826"><ele>433.0</ele><time>2026-04-18T10:57:17Z</time></trkpt><trkpt lat="42.31694261575385" lon="13.891077646277637"><ele>433.0</ele><time>2026-04-18T10:57:19Z</time></trkpt><trkpt lat="42.31703867997507" lon="13.8910184989078"><ele>433.0</ele><time>2026-04-18T10:57:21Z</time></trkpt><trkpt lat="42.31711911436978" lon="13.89091662171795"><ele>433.0</ele><time>2026-04-18T10:57:23Z</time></trkpt><trkpt lat="42.3171810202488" lon="13.890784120205915"><ele>433.0</ele><time>2026-04-18T10:57:25Z</time></trkpt><trkpt lat="42.31724412766049" lon="13.890644580374499"><ele>431.4</ele><time>2026-04-18T10:57:27Z</time></trkpt><trkpt lat="42.317384057061446" lon="13.890594236787747"><ele>429.79999999999995</ele><time>2026-04-18T10:57:29Z</time></trkpt><trkpt lat="42.3174351462393" lon="13.89051547990268"><ele>428.2</ele><time>2026-04-18T10:57:30Z</time></trkpt><trkpt lat="42.31746299598557" lon="13.890396546316211"><ele>426.6</ele><time>2026-04-18T10:57:31Z</time></trkpt><trkpt lat="42.31752769342472" lon="13.890346633377286"><ele>425.0</ele><time>2026-04-18T10:57:32Z</time></trkpt><trkpt lat="42.31759972158489" lon="13.890312698746767"><ele>425.0</ele><time>2026-04-18T10:57:33Z</time></trkpt><trkpt lat="42.31766938992559" lon="13.890319351952957"><ele>425.0</ele><time>2026-04-18T10:57:34Z</time></trkpt><trkpt lat="42.31776749043249" lon="13.890395916888512"><ele>425.0</ele><time>2026-04-18T10:57:36Z</time></trkpt><trkpt lat="42.317798667670864" lon="13.890559234902417"><ele>425.0</ele><time>2026-04-18T10:57:38Z</time></trkpt><trkpt lat="42.31783784973988" lon="13.890680426071109"><ele>425.0</ele><time>2026-04-18T10:57:39Z</time></trkpt><trkpt lat="42.317876966428955" lon="13.890793561853823"><ele>424.99999999999994</ele><time>2026-04-18T10:57:40Z</time></trkpt><trkpt lat="42.31793965435404" lon="13.890869779850028"><ele>425.0</ele><time>2026-04-18T10:57:41Z</time></trkpt><trkpt lat="42.3180176129159" lon="13.890916726860143"><ele>425.0</ele><time>2026-04-18T10:57:42Z</time></trkpt><trkpt lat="42.318091315553694" lon="13.890934959167058"><ele>425.0</ele><time>2026-04-18T10:57:43Z</time></trkpt><trkpt lat="42.3181678772689" lon="13.890933055020522"><ele>424.99999999999994</ele><time>2026-04-18T10:57:44Z</time></trkpt><trkpt lat="42.31823573905768" lon="13.890896772110336"><ele>425.0</ele><time>2026-04-18T10:57:45Z</time></trkpt><trkpt lat="42.318298288917894" lon="13.890825201210093"><ele>426.4</ele><time>2026-04-18T10:57:46Z</time></trkpt><trkpt lat="42.31835430418129" lon="13.890732035526616"><ele>427.8</ele><time>2026-04-18T10:57:47Z</time></trkpt><trkpt lat="42.318380215931015" lon="13.890624919019025"><ele>429.20000000000005</ele><time>2026-04-18T10:57:47.999Z</time></trkpt><trkpt lat="42.318392654576016" lon="13.890494357454209"><ele>430.6</ele><time>2026-04-18T10:57:48.999Z</time></trkpt><trkpt lat="42.3183979731959" lon="13.890357321727326"><ele>432.0</ele><time>2026-04-18T10:57:49.999Z</time></trkpt><trkpt lat="42.31841806780279" lon="13.890163703593352"><ele>434.33333333333337</ele><time>2026-04-18T10:57:50.999Z</time></trkpt><trkpt lat="42.31845319626802" lon="13.889941007745918"><ele>436.6666666666667</ele><time>2026-04-18T10:57:51.999Z</time></trkpt><trkpt lat="42.31849268477035" lon="13.88969487344304"><ele>439.0</ele><time>2026-04-18T10:57:52.999Z</time></trkpt><trkpt lat="42.31852704355272" lon="13.889494736514246"><ele>439.0</ele><time>2026-04-18T10:57:53.999Z</time></trkpt><trkpt lat="42.31855552472461" lon="13.889386276563199"><ele>439.0</ele><time>2026-04-18T10:57:54.999Z</time></trkpt><trkpt lat="42.31862619802277" lon="13.88925884029891"><ele>439.0</ele><time>2026-04-18T10:57:56.999Z</time></trkpt><trkpt lat="42.318696577738436" lon="13.889214594534378"><ele>439.0</ele><time>2026-04-18T10:57:57.999Z</time></trkpt><trkpt lat="42.318787145748644" lon="13.88918924616756"><ele>439.0</ele><time>2026-04-18T10:57:58.999Z</time></trkpt><trkpt lat="42.31888907151159" lon="13.889199211440058"><ele>444.33333333333337</ele><time>2026-04-18T10:57:59.999Z</time></trkpt><trkpt lat="42.31903251330874" lon="13.889200350835702"><ele>449.66666666666663</ele><time>2026-04-18T10:58:00.999Z</time></trkpt><trkpt lat="42.31921896193842" lon="13.889192956002178"><ele>455.0</ele><time>2026-04-18T10:58:01.999Z</time></trkpt><trkpt lat="42.319425001905074" lon="13.889200326063484"><ele>455.0</ele><time>2026-04-18T10:58:02.999Z</time></trkpt><trkpt lat="42.31960611844104" lon="13.889232508321088"><ele>455.0</ele><time>2026-04-18T10:58:03.999Z</time></trkpt><trkpt lat="42.31974736775493" lon="13.889259449783784"><ele>455.0</ele><time>2026-04-18T10:58:04.999Z</time></trkpt><trkpt lat="42.3198629916047" lon="13.889267586009812"><ele>455.0</ele><time>2026-04-18T10:58:05.999Z</time></trkpt><trkpt lat="42.31997860346725" lon="13.889290302524964"><ele>453.6</ele><time>2026-04-18T10:58:06.999Z</time></trkpt><trkpt lat="42.32008574351779" lon="13.889312667635176"><ele>452.2</ele><time>2026-04-18T10:58:07.999Z</time></trkpt><trkpt lat="42.32018685237726" lon="13.889331992024667"><ele>450.79999999999995</ele><time>2026-04-18T10:58:08.999Z</time></trkpt><trkpt lat="42.320296373258145" lon="13.889339887850886"><ele>449.4</ele><time>2026-04-18T10:58:09.999Z</time></trkpt><trkpt lat="42.320409374947545" lon="13.889337879425852"><ele>448.0</ele><time>2026-04-18T10:58:10.999Z</time></trkpt><trkpt lat="42.32052015610333" lon="13.889331046078084"><ele>451.79999999999995</ele><time>2026-04-18T10:58:11.999Z</time></trkpt><trkpt lat="42.320605801389114" lon="13.889326704136646"><ele>455.59999999999997</ele><time>2026-04-18T10:58:12.999Z</time></trkpt><trkpt lat="42.32072915212949" lon="13.889411166811714"><ele>459.40000000000003</ele><time>2026-04-18T10:58:14.999Z</time></trkpt><trkpt lat="42.32078591549948" lon="13.889514469944302"><ele>463.20000000000005</ele><time>2026-04-18T10:58:15.999Z</time></trkpt><trkpt lat="42.32082255859594" lon="13.889645645609221"><ele>467.0</ele><time>2026-04-18T10:58:16.999Z</time></trkpt><trkpt lat="42.32083819238023" lon="13.889789754437901"><ele>467.0</ele><time>2026-04-18T10:58:17.999Z</time></trkpt><trkpt lat="42.32083650009156" lon="13.889932839664482"><ele>467.00000000000006</ele><time>2026-04-18T10:58:18.999Z</time></trkpt><trkpt lat="42.32081866345867" lon="13.890071374865954"><ele>467.00000000000006</ele><time>2026-04-18T10:58:19.999Z</time></trkpt><trkpt lat="42.320792609820806" lon="13.890197976058943"><ele>467.0</ele><time>2026-04-18T10:58:20.999Z</time></trkpt><trkpt lat="42.320776802283724" lon="13.890315050485375"><ele>467.0</ele><time>2026-04-18T10:58:21.999Z</time></trkpt><trkpt lat="42.32077297848059" lon="13.890421159194048"><ele>467.49999999999994</ele><time>2026-04-18T10:58:22.999Z</time></trkpt><trkpt lat="42.32077621569141" lon="13.890537707312763"><ele>468.0</ele><time>2026-04-18T10:58:23.999Z</time></trkpt><trkpt lat="42.32079380291128" lon="13.890639391612988"><ele>468.5</ele><time>2026-04-18T10:58:24.999Z</time></trkpt><trkpt lat="42.32081775156491" lon="13.890718370094254"><ele>469.0</ele><time>2026-04-18T10:58:25.999Z</time></trkpt><trkpt lat="42.32088993432565" lon="13.890849130793598"><ele>469.49999999999994</ele><time>2026-04-18T10:58:27.999Z</time></trkpt><trkpt lat="42.320903117923656" lon="13.890940557560908"><ele>470.0</ele><time>2026-04-18T10:58:28.999Z</time></trkpt><trkpt lat="42.32091659676862" lon="13.891051193505154"><ele>468.8333333333333</ele><time>2026-04-18T10:58:29.999Z</time></trkpt><trkpt lat="42.32093958587918" lon="13.891158777140255"><ele>467.66666666666663</ele><time>2026-04-18T10:58:30.999Z</time></trkpt><trkpt lat="42.320978119590684" lon="13.89125946490202"><ele>466.5</ele><time>2026-04-18T10:58:31.999Z</time></trkpt><trkpt lat="42.321036037089726" lon="13.891344401060588"><ele>465.33333333333337</ele><time>2026-04-18T10:58:32.999Z</time></trkpt><trkpt lat="42.321110151284024" lon="13.891413033768988"><ele>464.1666666666667</ele><time>2026-04-18T10:58:33.999Z</time></trkpt><trkpt lat="42.321194535148734" lon="13.891467036120636"><ele>463.0</ele><time>2026-04-18T10:58:34.999Z</time></trkpt><trkpt lat="42.32129691450182" lon="13.891506809140203"><ele>463.0</ele><time>2026-04-18T10:58:35.999Z</time></trkpt><trkpt lat="42.32139388229884" lon="13.891537300999195"><ele>462.99999999999994</ele><time>2026-04-18T10:58:36.999Z</time></trkpt><trkpt lat="42.32148988245173" lon="13.891563899010587"><ele>462.99999999999994</ele><time>2026-04-18T10:58:38Z</time></trkpt><trkpt lat="42.321593063945016" lon="13.891593086893835"><ele>463.0</ele><time>2026-04-18T10:58:39Z</time></trkpt><trkpt lat="42.321701256782724" lon="13.89163734227177"><ele>463.0</ele><time>2026-04-18T10:58:40Z</time></trkpt><trkpt lat="42.321811421034546" lon="13.89168419232442"><ele>462.59999999999997</ele><time>2026-04-18T10:58:41Z</time></trkpt><trkpt lat="42.32191241145067" lon="13.891733372538067"><ele>462.19999999999993</ele><time>2026-04-18T10:58:42Z</time></trkpt><trkpt lat="42.32200439585371" lon="13.89179502174996"><ele>461.8</ele><time>2026-04-18T10:58:43Z</time></trkpt><trkpt lat="42.32208875009669" lon="13.89187735631874"><ele>461.4</ele><time>2026-04-18T10:58:44Z</time></trkpt><trkpt lat="42.322159853459105" lon="13.892001714032045"><ele>461.0</ele><time>2026-04-18T10:58:45Z</time></trkpt><trkpt lat="42.32221915840223" lon="13.892146217276654"><ele>461.8</ele><time>2026-04-18T10:58:46Z</time></trkpt><trkpt lat="42.322271939306184" lon="13.892284281401277"><ele>462.6</ele><time>2026-04-18T10:58:47Z</time></trkpt><trkpt lat="42.322316522467595" lon="13.892407938257863"><ele>463.4</ele><time>2026-04-18T10:58:48Z</time></trkpt><trkpt lat="42.3223608595752" lon="13.892524780912147"><ele>464.2</ele><time>2026-04-18T10:58:49Z</time></trkpt><trkpt lat="42.32239663154332" lon="13.892640321004627"><ele>465.0</ele><time>2026-04-18T10:58:50Z</time></trkpt><trkpt lat="42.32241975660887" lon="13.892763167826942"><ele>465.0</ele><time>2026-04-18T10:58:51Z</time></trkpt><trkpt lat="42.32242982196854" lon="13.89289411904168"><ele>465.0</ele><time>2026-04-18T10:58:52Z</time></trkpt><trkpt lat="42.3224339068176" lon="13.893050707593613"><ele>465.0</ele><time>2026-04-18T10:58:53Z</time></trkpt><trkpt lat="42.32243300658069" lon="13.893204327618001"><ele>465.0</ele><time>2026-04-18T10:58:54Z</time></trkpt><trkpt lat="42.32243593018561" lon="13.893358266020881"><ele>465.0</ele><time>2026-04-18T10:58:55Z</time></trkpt><trkpt lat="42.32244333250616" lon="13.893488229456748"><ele>464.3333333333333</ele><time>2026-04-18T10:58:56Z</time></trkpt><trkpt lat="42.32245146710949" lon="13.893595354703056"><ele>463.66666666666663</ele><time>2026-04-18T10:58:58Z</time></trkpt><trkpt lat="42.32248544691887" lon="13.893686602556965"><ele>463.0</ele><time>2026-04-18T10:59:02Z</time></trkpt><trkpt lat="42.32256884032111" lon="13.893731286680934"><ele>462.3333333333333</ele><time>2026-04-18T10:59:05Z</time></trkpt><trkpt lat="42.3226823417495" lon="13.893689898349432"><ele>461.66666666666663</ele><time>2026-04-18T10:59:07Z</time></trkpt><trkpt lat="42.32275326434103" lon="13.893668457978254"><ele>461.0</ele><time>2026-04-18T10:59:08Z</time></trkpt><trkpt lat="42.32283084750355" lon="13.893655484766631"><ele>461.0</ele><time>2026-04-18T10:59:09Z</time></trkpt><trkpt lat="42.322903283619" lon="13.893638689908402"><ele>461.00000000000006</ele><time>2026-04-18T10:59:10Z</time></trkpt><trkpt lat="42.32297488382267" lon="13.893631517710881"><ele>461.0</ele><time>2026-04-18T10:59:11Z</time></trkpt><trkpt lat="42.3230434565269" lon="13.893634563004436"><ele>461.0</ele><time>2026-04-18T10:59:12Z</time></trkpt><trkpt lat="42.323108383115226" lon="13.893630326015858"><ele>461.00000000000006</ele><time>2026-04-18T10:59:13Z</time></trkpt><trkpt lat="42.32317933201636" lon="13.893611564626486"><ele>461.0</ele><time>2026-04-18T10:59:14Z</time></trkpt><trkpt lat="42.3232574254942" lon="13.893570444872111"><ele>461.0</ele><time>2026-04-18T10:59:15Z</time></trkpt><trkpt lat="42.323336816509475" lon="13.893529547077192"><ele>464.0</ele><time>2026-04-18T10:59:17Z</time></trkpt><trkpt lat="42.323400107053445" lon="13.893605215350902"><ele>467.0</ele><time>2026-04-18T10:59:19Z</time></trkpt><trkpt lat="42.323503726598176" lon="13.893707540050931"><ele>470.0</ele><time>2026-04-18T10:59:21Z</time></trkpt><trkpt lat="42.3235767737317" lon="13.893792977014838"><ele>473.0</ele><time>2026-04-18T10:59:23Z</time></trkpt><trkpt lat="42.32366721246822" lon="13.893879601870182"><ele>476.0</ele><time>2026-04-18T10:59:25Z</time></trkpt><trkpt lat="42.323773168298956" lon="13.893967504125062"><ele>475.99999999999994</ele><time>2026-04-18T10:59:27Z</time></trkpt><trkpt lat="42.323834297427176" lon="13.89401137010727"><ele>476.0</ele><time>2026-04-18T10:59:28Z</time></trkpt><trkpt lat="42.32394737368306" lon="13.89406282511928"><ele>476.0</ele><time>2026-04-18T10:59:30Z</time></trkpt><trkpt lat="42.32404226361853" lon="13.894093558045858"><ele>476.0</ele><time>2026-04-18T10:59:32Z</time></trkpt><trkpt lat="42.32410567791079" lon="13.894109634520257"><ele>475.99999999999994</ele><time>2026-04-18T10:59:33Z</time></trkpt><trkpt lat="42.32417749902604" lon="13.894094062813458"><ele>476.0</ele><time>2026-04-18T10:59:35Z</time></trkpt><trkpt lat="42.32426078620233" lon="13.894065825489642"><ele>480.75</ele><time>2026-04-18T10:59:37Z</time></trkpt><trkpt lat="42.32437781700521" lon="13.894081943919447"><ele>485.5</ele><time>2026-04-18T10:59:39Z</time></trkpt><trkpt lat="42.32450022030614" lon="13.894106928138067"><ele>490.25</ele><time>2026-04-18T10:59:41Z</time></trkpt><trkpt lat="42.3245753912918" lon="13.894061872535211"><ele>495.0</ele><time>2026-04-18T10:59:43Z</time></trkpt><trkpt lat="42.32466512372933" lon="13.893922907492154"><ele>498.5</ele><time>2026-04-18T10:59:44.999Z</time></trkpt><trkpt lat="42.32474830039741" lon="13.89384306177287"><ele>502.0</ele><time>2026-04-18T10:59:46.999Z</time></trkpt><trkpt lat="42.32479470517843" lon="13.893779732575004"><ele>505.5</ele><time>2026-04-18T10:59:47.999Z</time></trkpt><trkpt lat="42.32486208925413" lon="13.89370000474765"><ele>509.0</ele><time>2026-04-18T10:59:48.999Z</time></trkpt><trkpt lat="42.32492019569922" lon="13.893632941629397"><ele>512.5</ele><time>2026-04-18T10:59:49.999Z</time></trkpt><trkpt lat="42.32499101302091" lon="13.893541903795926"><ele>516.0</ele><time>2026-04-18T10:59:51.999Z</time></trkpt><trkpt lat="42.325040067049635" lon="13.893460490593474"><ele>516.0</ele><time>2026-04-18T10:59:53.999Z</time></trkpt><trkpt lat="42.32517949700955" lon="13.893438830579413"><ele>516.0</ele><time>2026-04-18T11:00:04.999Z</time></trkpt><trkpt lat="42.32529120656481" lon="13.893474490759859"><ele>516.0</ele><time>2026-04-18T11:00:05.999Z</time></trkpt><trkpt lat="42.325408777111214" lon="13.893494409259807"><ele>516.0</ele><time>2026-04-18T11:00:06.999Z</time></trkpt><trkpt lat="42.325504010150155" lon="13.893480599246523"><ele>519.4</ele><time>2026-04-18T11:00:07.999Z</time></trkpt><trkpt lat="42.32557910350619" lon="13.893455588203718"><ele>522.8</ele><time>2026-04-18T11:00:08.999Z</time></trkpt><trkpt lat="42.32568979089303" lon="13.893448875563923"><ele>526.1999999999999</ele><time>2026-04-18T11:00:10.999Z</time></trkpt><trkpt lat="42.32575911331896" lon="13.893529865817156"><ele>529.6</ele><time>2026-04-18T11:00:12.999Z</time></trkpt><trkpt lat="42.32570534127972" lon="13.89367408959535"><ele>533.0</ele><time>2026-04-18T11:00:14.999Z</time></trkpt><trkpt lat="42.32563994802512" lon="13.893716422407657"><ele>529.6</ele><time>2026-04-18T11:00:15.999Z</time></trkpt><trkpt lat="42.325560199661986" lon="13.893761696541107"><ele>526.1999999999999</ele><time>2026-04-18T11:00:16.999Z</time></trkpt><trkpt lat="42.32547579516804" lon="13.893825227595425"><ele>522.8</ele><time>2026-04-18T11:00:17.999Z</time></trkpt><trkpt lat="42.325392302661164" lon="13.893892893316462"><ele>519.4</ele><time>2026-04-18T11:00:18.999Z</time></trkpt><trkpt lat="42.32531688314918" lon="13.893978078134422"><ele>516.0</ele><time>2026-04-18T11:00:19.999Z</time></trkpt><trkpt lat="42.32525158406637" lon="13.894102566546756"><ele>518.25</ele><time>2026-04-18T11:00:20.999Z</time></trkpt><trkpt lat="42.325216043094855" lon="13.894255068829983"><ele>520.5</ele><time>2026-04-18T11:00:21.999Z</time></trkpt><trkpt lat="42.325195038514295" lon="13.89445014156391"><ele>522.75</ele><time>2026-04-18T11:00:22.999Z</time></trkpt><trkpt lat="42.325168039934276" lon="13.894656218742186"><ele>525.0</ele><time>2026-04-18T11:00:23.999Z</time></trkpt><trkpt lat="42.32514147317778" lon="13.894813168135"><ele>525.0</ele><time>2026-04-18T11:00:24.999Z</time></trkpt><trkpt lat="42.32511423524706" lon="13.894946521513145"><ele>525.0</ele><time>2026-04-18T11:00:25.999Z</time></trkpt><trkpt lat="42.325088739792285" lon="13.895066384303245"><ele>525.0</ele><time>2026-04-18T11:00:26.999Z</time></trkpt><trkpt lat="42.32505729039012" lon="13.895179567721751"><ele>525.0</ele><time>2026-04-18T11:00:27.999Z</time></trkpt><trkpt lat="42.325013885698915" lon="13.895287185065134"><ele>525.0</ele><time>2026-04-18T11:00:28.999Z</time></trkpt><trkpt lat="42.32495836830934" lon="13.895398647778684"><ele>528.2</ele><time>2026-04-18T11:00:29.999Z</time></trkpt><trkpt lat="42.3249022807449" lon="13.895508319106774"><ele>531.4</ele><time>2026-04-18T11:00:30.999Z</time></trkpt><trkpt lat="42.32485626660303" lon="13.89560519972526"><ele>534.6</ele><time>2026-04-18T11:00:31.999Z</time></trkpt><trkpt lat="42.32480749736927" lon="13.895708754579756"><ele>537.8</ele><time>2026-04-18T11:00:32.999Z</time></trkpt><trkpt lat="42.32476739782713" lon="13.895826333157308"><ele>541.0</ele><time>2026-04-18T11:00:33.999Z</time></trkpt><trkpt lat="42.32474879530937" lon="13.895959572453274"><ele>542.2</ele><time>2026-04-18T11:00:34.999Z</time></trkpt><trkpt lat="42.32475568314618" lon="13.896096318828489"><ele>543.4000000000001</ele><time>2026-04-18T11:00:35.999Z</time></trkpt><trkpt lat="42.32477781657055" lon="13.89623007614141"><ele>544.6</ele><time>2026-04-18T11:00:36.999Z</time></trkpt><trkpt lat="42.324807412119036" lon="13.896363418326606"><ele>545.8000000000001</ele><time>2026-04-18T11:00:37.999Z</time></trkpt><trkpt lat="42.32484259468521" lon="13.896498528823024"><ele>547.0</ele><time>2026-04-18T11:00:38.999Z</time></trkpt><trkpt lat="42.32487293768755" lon="13.896644987625555"><ele>548.0</ele><time>2026-04-18T11:00:39.999Z</time></trkpt><trkpt lat="42.324888709394585" lon="13.896796708527289"><ele>549.0</ele><time>2026-04-18T11:00:40.999Z</time></trkpt><trkpt lat="42.324895273832354" lon="13.89694580314016"><ele>550.0</ele><time>2026-04-18T11:00:41.999Z</time></trkpt><trkpt lat="42.324894746899126" lon="13.89708509821528"><ele>551.0</ele><time>2026-04-18T11:00:42.999Z</time></trkpt><trkpt lat="42.32488344964047" lon="13.897216924502622"><ele>552.0</ele><time>2026-04-18T11:00:44Z</time></trkpt><trkpt lat="42.32485796728707" lon="13.897348007629542"><ele>552.0</ele><time>2026-04-18T11:00:45Z</time></trkpt><trkpt lat="42.324831325196044" lon="13.897485902115942"><ele>552.0</ele><time>2026-04-18T11:00:46Z</time></trkpt><trkpt lat="42.324803555299525" lon="13.897629350910089"><ele>552.0</ele><time>2026-04-18T11:00:47Z</time></trkpt><trkpt lat="42.32477028070052" lon="13.897772151183554"><ele>552.0</ele><time>2026-04-18T11:00:48Z</time></trkpt><trkpt lat="42.32472628153748" lon="13.897904308690858"><ele>552.0</ele><time>2026-04-18T11:00:49Z</time></trkpt><trkpt lat="42.32467234782" lon="13.898022866012667"><ele>552.2</ele><time>2026-04-18T11:00:50Z</time></trkpt><trkpt lat="42.324603851303344" lon="13.89812729549045"><ele>552.4000000000001</ele><time>2026-04-18T11:00:51Z</time></trkpt><trkpt lat="42.32451878126821" lon="13.898210670037194"><ele>552.5999999999999</ele><time>2026-04-18T11:00:52Z</time></trkpt><trkpt lat="42.32444043674425" lon="13.898295512124431"><ele>552.8</ele><time>2026-04-18T11:00:53Z</time></trkpt><trkpt lat="42.32437276722878" lon="13.898395569149695"><ele>553.0</ele><time>2026-04-18T11:00:54Z</time></trkpt><trkpt lat="42.32431064813092" lon="13.898503327690792"><ele>553.0</ele><time>2026-04-18T11:00:55Z</time></trkpt><trkpt lat="42.32425569175876" lon="13.898612396070359"><ele>553.0</ele><time>2026-04-18T11:00:56Z</time></trkpt><trkpt lat="42.32420679683032" lon="13.898735799214542"><ele>553.0</ele><time>2026-04-18T11:00:57Z</time></trkpt><trkpt lat="42.32416686563814" lon="13.898867012484368"><ele>553.0</ele><time>2026-04-18T11:00:58Z</time></trkpt><trkpt lat="42.324134684029964" lon="13.89901211108162"><ele>553.0</ele><time>2026-04-18T11:00:59Z</time></trkpt><trkpt lat="42.324106330775" lon="13.899153067865397"><ele>553.8</ele><time>2026-04-18T11:01:00Z</time></trkpt><trkpt lat="42.324077305450885" lon="13.89929487315375"><ele>554.5999999999999</ele><time>2026-04-18T11:01:01Z</time></trkpt><trkpt lat="42.32404963846605" lon="13.899435642007681"><ele>555.4000000000001</ele><time>2026-04-18T11:01:02Z</time></trkpt><trkpt lat="42.32402661546995" lon="13.89958119752487"><ele>556.2</ele><time>2026-04-18T11:01:03Z</time></trkpt><trkpt lat="42.32400882639276" lon="13.899721168775622"><ele>557.0</ele><time>2026-04-18T11:01:04Z</time></trkpt><trkpt lat="42.323993912881626" lon="13.899860802125001"><ele>557.0</ele><time>2026-04-18T11:01:05Z</time></trkpt><trkpt lat="42.3239713413184" lon="13.899989317169016"><ele>557.0</ele><time>2026-04-18T11:01:06Z</time></trkpt><trkpt lat="42.32394315931364" lon="13.900100778595714"><ele>557.0</ele><time>2026-04-18T11:01:07Z</time></trkpt><trkpt lat="42.32392233701741" lon="13.900219146008048"><ele>557.0</ele><time>2026-04-18T11:01:08Z</time></trkpt><trkpt lat="42.3239059758704" lon="13.900363787036014"><ele>557.0</ele><time>2026-04-18T11:01:09Z</time></trkpt><trkpt lat="42.32388695902523" lon="13.900519326434512"><ele>555.5</ele><time>2026-04-18T11:01:10Z</time></trkpt><trkpt lat="42.32387409503902" lon="13.900686587517171"><ele>554.0</ele><time>2026-04-18T11:01:11Z</time></trkpt><trkpt lat="42.32387845373267" lon="13.900847919396648"><ele>552.5</ele><time>2026-04-18T11:01:12Z</time></trkpt><trkpt lat="42.32391020966014" lon="13.9010242875395"><ele>551.0</ele><time>2026-04-18T11:01:13Z</time></trkpt><trkpt lat="42.32395762587234" lon="13.90118307914551"><ele>551.0</ele><time>2026-04-18T11:01:14Z</time></trkpt><trkpt lat="42.32401635234734" lon="13.901321954192813"><ele>551.0</ele><time>2026-04-18T11:01:15Z</time></trkpt><trkpt lat="42.32408651713281" lon="13.90142936959638"><ele>551.0</ele><time>2026-04-18T11:01:16Z</time></trkpt><trkpt lat="42.324168027796446" lon="13.901505406832904"><ele>551.0</ele><time>2026-04-18T11:01:17Z</time></trkpt><trkpt lat="42.324258341068585" lon="13.901565550175683"><ele>551.0</ele><time>2026-04-18T11:01:18Z</time></trkpt><trkpt lat="42.324349700798855" lon="13.901612147683627"><ele>551.0</ele><time>2026-04-18T11:01:19Z</time></trkpt><trkpt lat="42.32443628461429" lon="13.90165900213374"><ele>551.0</ele><time>2026-04-18T11:01:20Z</time></trkpt><trkpt lat="42.324588160296436" lon="13.901787817494238"><ele>551.0</ele><time>2026-04-18T11:01:21Z</time></trkpt><trkpt lat="42.324669585976224" lon="13.901890327181865"><ele>551.0</ele><time>2026-04-18T11:01:22Z</time></trkpt><trkpt lat="42.32471683540281" lon="13.902030332313014"><ele>553.2</ele><time>2026-04-18T11:01:23Z</time></trkpt><trkpt lat="42.32475370289072" lon="13.902181813451595"><ele>555.4000000000001</ele><time>2026-04-18T11:01:24Z</time></trkpt><trkpt lat="42.3247603801477" lon="13.9023243943847"><ele>557.6</ele><time>2026-04-18T11:01:25Z</time></trkpt><trkpt lat="42.324754464253104" lon="13.902447128956144"><ele>559.8000000000001</ele><time>2026-04-18T11:01:26Z</time></trkpt><trkpt lat="42.32475149505034" lon="13.902582625478864"><ele>562.0</ele><time>2026-04-18T11:01:27Z</time></trkpt><trkpt lat="42.32475367928641" lon="13.902712752837116"><ele>562.0</ele><time>2026-04-18T11:01:28Z</time></trkpt><trkpt lat="42.32476506011817" lon="13.902837455055552"><ele>562.0</ele><time>2026-04-18T11:01:29Z</time></trkpt><trkpt lat="42.324819638709634" lon="13.902926439704485"><ele>562.0</ele><time>2026-04-18T11:01:30Z</time></trkpt><trkpt lat="42.32490805315759" lon="13.902975243416861"><ele>562.0</ele><time>2026-04-18T11:01:31Z</time></trkpt><trkpt lat="42.325017346664296" lon="13.902957633451557"><ele>562.0</ele><time>2026-04-18T11:01:32Z</time></trkpt><trkpt lat="42.32510126159745" lon="13.90290286754811"><ele>562.0</ele><time>2026-04-18T11:01:33Z</time></trkpt><trkpt lat="42.32517289923226" lon="13.902844972202416"><ele>562.0</ele><time>2026-04-18T11:01:34Z</time></trkpt><trkpt lat="42.325209929384705" lon="13.902729678110553"><ele>562.0</ele><time>2026-04-18T11:01:35Z</time></trkpt><trkpt lat="42.32525306206267" lon="13.90264583426578"><ele>562.0</ele><time>2026-04-18T11:01:36Z</time></trkpt><trkpt lat="42.32529858045326" lon="13.902571710864665"><ele>562.0</ele><time>2026-04-18T11:01:37Z</time></trkpt><trkpt lat="42.325364800132974" lon="13.902454577979785"><ele>562.0</ele><time>2026-04-18T11:01:39Z</time></trkpt><trkpt lat="42.32540008823135" lon="13.902317054061392"><ele>562.1666666666667</ele><time>2026-04-18T11:01:41.999Z</time></trkpt><trkpt lat="42.3254025428984" lon="13.902218838848253"><ele>562.3333333333334</ele><time>2026-04-18T11:01:42.999Z</time></trkpt><trkpt lat="42.32540032305672" lon="13.90209595420659"><ele>562.5</ele><time>2026-04-18T11:01:43.999Z</time></trkpt><trkpt lat="42.32539814642818" lon="13.90197257579648"><ele>562.6666666666666</ele><time>2026-04-18T11:01:44.999Z</time></trkpt><trkpt lat="42.32538064083523" lon="13.901860390196996"><ele>562.8333333333333</ele><time>2026-04-18T11:01:45.999Z</time></trkpt><trkpt lat="42.32535919126994" lon="13.90175354361904"><ele>563.0</ele><time>2026-04-18T11:01:46.999Z</time></trkpt><trkpt lat="42.32534484272912" lon="13.90165783706018"><ele>563.5</ele><time>2026-04-18T11:01:47.999Z</time></trkpt><trkpt lat="42.3253443315256" lon="13.901559466061851"><ele>564.0</ele><time>2026-04-18T11:01:49.999Z</time></trkpt><trkpt lat="42.32534192120623" lon="13.901463830139479"><ele>564.5</ele><time>2026-04-18T11:01:54.999Z</time></trkpt><trkpt lat="42.32533914244046" lon="13.901376863747357"><ele>565.0</ele><time>2026-04-18T11:01:56.999Z</time></trkpt><trkpt lat="42.32529456149844" lon="13.90127873270813"><ele>565.5</ele><time>2026-04-18T11:01:58.999Z</time></trkpt><trkpt lat="42.32525108947397" lon="13.901216268202893"><ele>566.0</ele><time>2026-04-18T11:02:01.999Z</time></trkpt><trkpt lat="42.32531581145486" lon="13.901416070857112"><ele>566.0</ele><time>2026-04-18T11:12:45.999Z</time></trkpt><trkpt lat="42.325332198936955" lon="13.901576652043731"><ele>566.0</ele><time>2026-04-18T11:12:46.999Z</time></trkpt><trkpt lat="42.32535162005368" lon="13.901750793631471"><ele>566.0</ele><time>2026-04-18T11:12:47.999Z</time></trkpt><trkpt lat="42.325380340577745" lon="13.90198245379627"><ele>566.0</ele><time>2026-04-18T11:12:48.999Z</time></trkpt><trkpt lat="42.32541164220542" lon="13.902234298061638"><ele>565.25</ele><time>2026-04-18T11:12:49.999Z</time></trkpt><trkpt lat="42.325438634866586" lon="13.902458441925772"><ele>564.5</ele><time>2026-04-18T11:12:50.999Z</time></trkpt><trkpt lat="42.325453817782744" lon="13.902637667025752"><ele>563.75</ele><time>2026-04-18T11:12:51.999Z</time></trkpt><trkpt lat="42.32546901899094" lon="13.90280027020168"><ele>563.0</ele><time>2026-04-18T11:12:52.999Z</time></trkpt><trkpt lat="42.32548864224288" lon="13.90295927797276"><ele>562.8</ele><time>2026-04-18T11:12:53.999Z</time></trkpt><trkpt lat="42.325503475524656" lon="13.90311281615714"><ele>562.5999999999999</ele><time>2026-04-18T11:12:54.999Z</time></trkpt><trkpt lat="42.32552151061362" lon="13.903258864439012"><ele>562.4000000000001</ele><time>2026-04-18T11:12:55.999Z</time></trkpt><trkpt lat="42.32553641976981" lon="13.903393011910785"><ele>562.2</ele><time>2026-04-18T11:12:56.999Z</time></trkpt><trkpt lat="42.32554707080511" lon="13.90351858964838"><ele>562.0</ele><time>2026-04-18T11:12:57.999Z</time></trkpt><trkpt lat="42.32555429962111" lon="13.903643056676856"><ele>561.8000000000001</ele><time>2026-04-18T11:12:58.999Z</time></trkpt><trkpt lat="42.32555768944253" lon="13.90376466423434"><ele>561.6</ele><time>2026-04-18T11:12:59.999Z</time></trkpt><trkpt lat="42.32554936846877" lon="13.903897959085958"><ele>561.4000000000001</ele><time>2026-04-18T11:13:00.999Z</time></trkpt><trkpt lat="42.32553349636303" lon="13.904039208730481"><ele>561.2</ele><time>2026-04-18T11:13:01.999Z</time></trkpt><trkpt lat="42.325510900599646" lon="13.904179521194902"><ele>561.0</ele><time>2026-04-18T11:13:02.999Z</time></trkpt><trkpt lat="42.32549362917979" lon="13.904327183200495"><ele>559.5</ele><time>2026-04-18T11:13:03.999Z</time></trkpt><trkpt lat="42.32547628150162" lon="13.904483142840498"><ele>558.0</ele><time>2026-04-18T11:13:04.999Z</time></trkpt><trkpt lat="42.32544882221091" lon="13.904654222372661"><ele>556.5</ele><time>2026-04-18T11:13:05.999Z</time></trkpt><trkpt lat="42.32541298841086" lon="13.904837949842266"><ele>555.0</ele><time>2026-04-18T11:13:06.999Z</time></trkpt><trkpt lat="42.325369895626494" lon="13.905028318800198"><ele>554.0</ele><time>2026-04-18T11:13:07.999Z</time></trkpt><trkpt lat="42.32532782577474" lon="13.90522076647814"><ele>553.0</ele><time>2026-04-18T11:13:08.999Z</time></trkpt><trkpt lat="42.325282503805134" lon="13.905443698472185"><ele>552.0</ele><time>2026-04-18T11:13:09.999Z</time></trkpt><trkpt lat="42.32522367448371" lon="13.90569668764893"><ele>551.3333333333334</ele><time>2026-04-18T11:13:10.999Z</time></trkpt><trkpt lat="42.325157346725284" lon="13.905938118942275"><ele>550.6666666666667</ele><time>2026-04-18T11:13:11.999Z</time></trkpt><trkpt lat="42.32510321452631" lon="13.906158710554818"><ele>550.0</ele><time>2026-04-18T11:13:12.999Z</time></trkpt><trkpt lat="42.325058172514375" lon="13.906386137500938"><ele>550.0</ele><time>2026-04-18T11:13:13.999Z</time></trkpt><trkpt lat="42.32504445728704" lon="13.906597581225576"><ele>550.0</ele><time>2026-04-18T11:13:14.999Z</time></trkpt><trkpt lat="42.32503188013644" lon="13.906806598589084"><ele>550.0</ele><time>2026-04-18T11:13:15.999Z</time></trkpt><trkpt lat="42.325034278661626" lon="13.907017980886422"><ele>548.6666666666667</ele><time>2026-04-18T11:13:16.999Z</time></trkpt><trkpt lat="42.32501503698952" lon="13.907224757662304"><ele>547.3333333333334</ele><time>2026-04-18T11:13:18Z</time></trkpt><trkpt lat="42.325001097839674" lon="13.907431688903225"><ele>546.0</ele><time>2026-04-18T11:13:19Z</time></trkpt><trkpt lat="42.324988654071554" lon="13.907640167038252"><ele>545.0</ele><time>2026-04-18T11:13:20Z</time></trkpt><trkpt lat="42.32496566743492" lon="13.907859319133886"><ele>544.0</ele><time>2026-04-18T11:13:21Z</time></trkpt><trkpt lat="42.32493208639601" lon="13.908086056173177"><ele>543.0</ele><time>2026-04-18T11:13:22Z</time></trkpt><trkpt lat="42.32489513840382" lon="13.908302958367118"><ele>542.0</ele><time>2026-04-18T11:13:23Z</time></trkpt><trkpt lat="42.32486385096846" lon="13.908514188708095"><ele>541.0</ele><time>2026-04-18T11:13:24Z</time></trkpt><trkpt lat="42.32484357524791" lon="13.908735119387751"><ele>540.0</ele><time>2026-04-18T11:13:25Z</time></trkpt><trkpt lat="42.3248328993747" lon="13.908958774688335"><ele>540.0</ele><time>2026-04-18T11:13:26Z</time></trkpt><trkpt lat="42.32483601261892" lon="13.909189117604276"><ele>540.0</ele><time>2026-04-18T11:13:27Z</time></trkpt><trkpt lat="42.324843254499754" lon="13.909418367131499"><ele>540.0</ele><time>2026-04-18T11:13:28Z</time></trkpt><trkpt lat="42.32484875766427" lon="13.909648065791524"><ele>538.0</ele><time>2026-04-18T11:13:29Z</time></trkpt><trkpt lat="42.324858213025514" lon="13.90987921069269"><ele>536.0</ele><time>2026-04-18T11:13:30Z</time></trkpt><trkpt lat="42.32487688099585" lon="13.910119576095402"><ele>534.0</ele><time>2026-04-18T11:13:31Z</time></trkpt><trkpt lat="42.32490092887512" lon="13.910364296633972"><ele>532.0</ele><time>2026-04-18T11:13:32Z</time></trkpt><trkpt lat="42.324929216337885" lon="13.910604755061147"><ele>530.0</ele><time>2026-04-18T11:13:33Z</time></trkpt><trkpt lat="42.32496159863285" lon="13.910833965912742"><ele>528.0</ele><time>2026-04-18T11:13:34Z</time></trkpt><trkpt lat="42.324995177757266" lon="13.911059942371285"><ele>525.3333333333334</ele><time>2026-04-18T11:13:35Z</time></trkpt><trkpt lat="42.32502902787257" lon="13.911280708364318"><ele>522.6666666666667</ele><time>2026-04-18T11:13:36Z</time></trkpt><trkpt lat="42.32506187461568" lon="13.911498688107411"><ele>520.0</ele><time>2026-04-18T11:13:37Z</time></trkpt><trkpt lat="42.32509002601651" lon="13.911712094091527"><ele>517.3333333333334</ele><time>2026-04-18T11:13:38Z</time></trkpt><trkpt lat="42.32508894214458" lon="13.911930352168675"><ele>514.6666666666666</ele><time>2026-04-18T11:13:39Z</time></trkpt><trkpt lat="42.325057827588004" lon="13.912165708211683"><ele>512.0</ele><time>2026-04-18T11:13:40Z</time></trkpt><trkpt lat="42.32500741342267" lon="13.912394829592099"><ele>511.0</ele><time>2026-04-18T11:13:41Z</time></trkpt><trkpt lat="42.32494496766132" lon="13.912609214259383"><ele>510.0</ele><time>2026-04-18T11:13:42Z</time></trkpt><trkpt lat="42.3248814975863" lon="13.912810081660734"><ele>509.0</ele><time>2026-04-18T11:13:43Z</time></trkpt><trkpt lat="42.32482066383082" lon="13.913001795997525"><ele>509.0</ele><time>2026-04-18T11:13:44Z</time></trkpt><trkpt lat="42.32475424828092" lon="13.913194481826354"><ele>509.0</ele><time>2026-04-18T11:13:45Z</time></trkpt><trkpt lat="42.32467912843278" lon="13.913375372777999"><ele>509.0</ele><time>2026-04-18T11:13:46Z</time></trkpt><trkpt lat="42.32460325935454" lon="13.913536675200119"><ele>508.5</ele><time>2026-04-18T11:13:47Z</time></trkpt><trkpt lat="42.32454642793903" lon="13.913659555076178"><ele>508.0</ele><time>2026-04-18T11:13:48Z</time></trkpt><trkpt lat="42.32449868707092" lon="13.913772116631751"><ele>507.5</ele><time>2026-04-18T11:13:49Z</time></trkpt><trkpt lat="42.32444018537109" lon="13.913929969227796"><ele>507.0</ele><time>2026-04-18T11:13:50Z</time></trkpt><trkpt lat="42.324368832087075" lon="13.914088256135665"><ele>507.75</ele><time>2026-04-18T11:13:51Z</time></trkpt><trkpt lat="42.32431046968333" lon="13.914253138973299"><ele>508.5</ele><time>2026-04-18T11:13:52Z</time></trkpt><trkpt lat="42.32426713825386" lon="13.914435281489418"><ele>509.25</ele><time>2026-04-18T11:13:53Z</time></trkpt><trkpt lat="42.32424081438803" lon="13.914610110889683"><ele>510.0</ele><time>2026-04-18T11:13:54Z</time></trkpt><trkpt lat="42.32420910774302" lon="13.914778425049187"><ele>510.0</ele><time>2026-04-18T11:13:55Z</time></trkpt><trkpt lat="42.324169049444876" lon="13.914955921574442"><ele>510.0</ele><time>2026-04-18T11:13:56Z</time></trkpt><trkpt lat="42.32414107788748" lon="13.915125307033078"><ele>510.0</ele><time>2026-04-18T11:13:57Z</time></trkpt><trkpt lat="42.32411140569413" lon="13.915310004362029"><ele>510.0</ele><time>2026-04-18T11:13:58Z</time></trkpt><trkpt lat="42.324074769487375" lon="13.915496223228045"><ele>509.5</ele><time>2026-04-18T11:13:59Z</time></trkpt><trkpt lat="42.32404022620219" lon="13.915688526504976"><ele>509.0</ele><time>2026-04-18T11:14:00Z</time></trkpt><trkpt lat="42.324014958783955" lon="13.915881204739614"><ele>508.5</ele><time>2026-04-18T11:14:01Z</time></trkpt><trkpt lat="42.323992046219765" lon="13.916070850159207"><ele>508.0</ele><time>2026-04-18T11:14:02Z</time></trkpt><trkpt lat="42.32395988547049" lon="13.916238043371235"><ele>507.79999999999995</ele><time>2026-04-18T11:14:03Z</time></trkpt><trkpt lat="42.32393194765807" lon="13.916398071989374"><ele>507.59999999999997</ele><time>2026-04-18T11:14:04Z</time></trkpt><trkpt lat="42.323915619441514" lon="13.916536926901236"><ele>507.40000000000003</ele><time>2026-04-18T11:14:05Z</time></trkpt><trkpt lat="42.32388968543966" lon="13.916660953745527"><ele>507.20000000000005</ele><time>2026-04-18T11:14:06Z</time></trkpt><trkpt lat="42.32385509402152" lon="13.91679403122037"><ele>507.0</ele><time>2026-04-18T11:14:07Z</time></trkpt><trkpt lat="42.32379276423283" lon="13.916947503030462"><ele>505.66666666666663</ele><time>2026-04-18T11:14:07.999Z</time></trkpt><trkpt lat="42.32367701431251" lon="13.917110367757873"><ele>504.3333333333333</ele><time>2026-04-18T11:14:08.999Z</time></trkpt><trkpt lat="42.32353556567499" lon="13.917279409631675"><ele>503.0</ele><time>2026-04-18T11:14:09.999Z</time></trkpt><trkpt lat="42.32339375619143" lon="13.917445033941789"><ele>502.3333333333333</ele><time>2026-04-18T11:14:10.999Z</time></trkpt><trkpt lat="42.323262389305455" lon="13.917597350453454"><ele>501.66666666666663</ele><time>2026-04-18T11:14:11.999Z</time></trkpt><trkpt lat="42.32313608338573" lon="13.917728749540084"><ele>501.0</ele><time>2026-04-18T11:14:12.999Z</time></trkpt><trkpt lat="42.32303129756473" lon="13.917856200194263"><ele>501.0</ele><time>2026-04-18T11:14:13.999Z</time></trkpt><trkpt lat="42.32293422191947" lon="13.917976404793576"><ele>501.0</ele><time>2026-04-18T11:14:14.999Z</time></trkpt><trkpt lat="42.32283949835525" lon="13.918096490561437"><ele>501.0</ele><time>2026-04-18T11:14:15.999Z</time></trkpt><trkpt lat="42.322768802052806" lon="13.918225684283337"><ele>501.0</ele><time>2026-04-18T11:14:16.999Z</time></trkpt><trkpt lat="42.32271938918176" lon="13.918381249269947"><ele>501.33333333333337</ele><time>2026-04-18T11:14:17.999Z</time></trkpt><trkpt lat="42.32268473368765" lon="13.918574732330937"><ele>501.6666666666667</ele><time>2026-04-18T11:14:18.999Z</time></trkpt><trkpt lat="42.322659994107006" lon="13.918779393022643"><ele>502.0</ele><time>2026-04-18T11:14:19.999Z</time></trkpt><trkpt lat="42.32263276772051" lon="13.918983749542184"><ele>502.0</ele><time>2026-04-18T11:14:20.999Z</time></trkpt><trkpt lat="42.3225843394681" lon="13.919180427473313"><ele>502.0</ele><time>2026-04-18T11:14:21.999Z</time></trkpt><trkpt lat="42.32253930324323" lon="13.919371096023475"><ele>502.0</ele><time>2026-04-18T11:14:22.999Z</time></trkpt><trkpt lat="42.322491684915484" lon="13.919548823477477"><ele>502.0</ele><time>2026-04-18T11:14:23.999Z</time></trkpt><trkpt lat="42.32245298185282" lon="13.919720025773188"><ele>501.0</ele><time>2026-04-18T11:14:24.999Z</time></trkpt><trkpt lat="42.322417559687004" lon="13.919880691830869"><ele>500.00000000000006</ele><time>2026-04-18T11:14:25.999Z</time></trkpt><trkpt lat="42.322380248558815" lon="13.920020501807405"><ele>499.00000000000006</ele><time>2026-04-18T11:14:26.999Z</time></trkpt><trkpt lat="42.32234013702389" lon="13.92015481008653"><ele>498.0</ele><time>2026-04-18T11:14:27.999Z</time></trkpt><trkpt lat="42.32230841227819" lon="13.920289585292299"><ele>497.0</ele><time>2026-04-18T11:14:28.999Z</time></trkpt><trkpt lat="42.322278062598485" lon="13.920428674006333"><ele>496.25</ele><time>2026-04-18T11:14:29.999Z</time></trkpt><trkpt lat="42.322246425328615" lon="13.920567460959468"><ele>495.5</ele><time>2026-04-18T11:14:30.999Z</time></trkpt><trkpt lat="42.322195454782985" lon="13.920700660381105"><ele>494.75</ele><time>2026-04-18T11:14:31.999Z</time></trkpt><trkpt lat="42.322121971007775" lon="13.920837946195286"><ele>494.0</ele><time>2026-04-18T11:14:32.999Z</time></trkpt><trkpt lat="42.32204428584101" lon="13.920976126003046"><ele>493.25</ele><time>2026-04-18T11:14:33.999Z</time></trkpt><trkpt lat="42.32197041729394" lon="13.92111149381999"><ele>492.5</ele><time>2026-04-18T11:14:34.999Z</time></trkpt><trkpt lat="42.32190381996746" lon="13.92123973948093"><ele>491.75</ele><time>2026-04-18T11:14:35.999Z</time></trkpt><trkpt lat="42.32183431337259" lon="13.92137058795705"><ele>491.0</ele><time>2026-04-18T11:14:36.999Z</time></trkpt><trkpt lat="42.32176262274031" lon="13.92150368568796"><ele>491.0</ele><time>2026-04-18T11:14:37.999Z</time></trkpt><trkpt lat="42.32168097605537" lon="13.921646868868482"><ele>491.0</ele><time>2026-04-18T11:14:38.999Z</time></trkpt><trkpt lat="42.32159550869062" lon="13.921780524677128"><ele>491.0</ele><time>2026-04-18T11:14:39.999Z</time></trkpt><trkpt lat="42.32150522699568" lon="13.921895205153943"><ele>491.0</ele><time>2026-04-18T11:14:40.999Z</time></trkpt><trkpt lat="42.32142040141541" lon="13.921994724038584"><ele>490.8</ele><time>2026-04-18T11:14:41.999Z</time></trkpt><trkpt lat="42.321339781205275" lon="13.922097471923987"><ele>490.6</ele><time>2026-04-18T11:14:42.999Z</time></trkpt><trkpt lat="42.321260227064286" lon="13.922192625718917"><ele>490.4</ele><time>2026-04-18T11:14:43.999Z</time></trkpt><trkpt lat="42.32118624159395" lon="13.92229378483496"><ele>490.2</ele><time>2026-04-18T11:14:44.999Z</time></trkpt><trkpt lat="42.32111791342681" lon="13.922401678160842"><ele>490.0</ele><time>2026-04-18T11:14:45.999Z</time></trkpt><trkpt lat="42.32104909891064" lon="13.922515984387585"><ele>489.25</ele><time>2026-04-18T11:14:46.999Z</time></trkpt><trkpt lat="42.32097578648462" lon="13.922632094777228"><ele>488.5</ele><time>2026-04-18T11:14:47.999Z</time></trkpt><trkpt lat="42.32089866433076" lon="13.922740002015647"><ele>487.75</ele><time>2026-04-18T11:14:48.999Z</time></trkpt><trkpt lat="42.32081730007594" lon="13.922848082608443"><ele>487.0</ele><time>2026-04-18T11:14:49.999Z</time></trkpt><trkpt lat="42.32073475804574" lon="13.922951949776891"><ele>487.0</ele><time>2026-04-18T11:14:50.999Z</time></trkpt><trkpt lat="42.32064650929403" lon="13.923044729423596"><ele>487.00000000000006</ele><time>2026-04-18T11:14:51.999Z</time></trkpt><trkpt lat="42.32057535226915" lon="13.923116954104382"><ele>487.00000000000006</ele><time>2026-04-18T11:14:52.999Z</time></trkpt><trkpt lat="42.320503321246925" lon="13.923188834285627"><ele>487.0</ele><time>2026-04-18T11:14:53.999Z</time></trkpt><trkpt lat="42.32042094965452" lon="13.923273166810143"><ele>487.0</ele><time>2026-04-18T11:14:54.999Z</time></trkpt><trkpt lat="42.32034391503755" lon="13.92335978736708"><ele>486.6666666666667</ele><time>2026-04-18T11:14:55.999Z</time></trkpt><trkpt lat="42.32027912959381" lon="13.923445625655255"><ele>486.33333333333337</ele><time>2026-04-18T11:14:56.999Z</time></trkpt><trkpt lat="42.32023338753469" lon="13.923531302833984"><ele>486.0</ele><time>2026-04-18T11:14:57.999Z</time></trkpt><trkpt lat="42.32021111600406" lon="13.923621438373015"><ele>485.66666666666663</ele><time>2026-04-18T11:14:58.999Z</time></trkpt><trkpt lat="42.32020660482165" lon="13.923717737832604"><ele>485.3333333333333</ele><time>2026-04-18T11:14:59.999Z</time></trkpt><trkpt lat="42.32020589560337" lon="13.923814262162804"><ele>485.0</ele><time>2026-04-18T11:15:00.999Z</time></trkpt><trkpt lat="42.32021745482093" lon="13.923912801507585"><ele>484.99999999999994</ele><time>2026-04-18T11:15:01.999Z</time></trkpt><trkpt lat="42.320233353608295" lon="13.924036113507535"><ele>485.0</ele><time>2026-04-18T11:15:02.999Z</time></trkpt><trkpt lat="42.320241395876856" lon="13.924157334131458"><ele>485.0</ele><time>2026-04-18T11:15:03.999Z</time></trkpt><trkpt lat="42.32023890415203" lon="13.924253304554867"><ele>485.0</ele><time>2026-04-18T11:15:04.999Z</time></trkpt><trkpt lat="42.32024398441216" lon="13.924338675603574"><ele>484.99999999999994</ele><time>2026-04-18T11:15:05.999Z</time></trkpt><trkpt lat="42.32024612127823" lon="13.92443375549356"><ele>485.0</ele><time>2026-04-18T11:15:06.999Z</time></trkpt><trkpt lat="42.32023755527283" lon="13.92453497627611"><ele>482.6</ele><time>2026-04-18T11:15:07.999Z</time></trkpt><trkpt lat="42.32022099946449" lon="13.924628089340708"><ele>480.2</ele><time>2026-04-18T11:15:08.999Z</time></trkpt><trkpt lat="42.32019945484902" lon="13.924791333077899"><ele>477.79999999999995</ele><time>2026-04-18T11:15:09.999Z</time></trkpt><trkpt lat="42.320176605137334" lon="13.924893462793403"><ele>475.4</ele><time>2026-04-18T11:15:10.999Z</time></trkpt><trkpt lat="42.320134334531296" lon="13.925067327077732"><ele>473.0</ele><time>2026-04-18T11:15:12.999Z</time></trkpt><trkpt lat="42.320099489909424" lon="13.925160221709495"><ele>468.99999999999994</ele><time>2026-04-18T11:15:13.999Z</time></trkpt><trkpt lat="42.32008387631982" lon="13.925265112433262"><ele>465.0</ele><time>2026-04-18T11:15:14.999Z</time></trkpt><trkpt lat="42.320072961668544" lon="13.925354382317497"><ele>461.0</ele><time>2026-04-18T11:15:15.999Z</time></trkpt><trkpt lat="42.32001670341243" lon="13.925505092231178"><ele>457.0</ele><time>2026-04-18T11:15:17.999Z</time></trkpt><trkpt lat="42.31997203487834" lon="13.925571636263829"><ele>452.99999999999994</ele><time>2026-04-18T11:15:18.999Z</time></trkpt><trkpt lat="42.3199316898592" lon="13.92564077264518"><ele>449.0</ele><time>2026-04-18T11:15:19.999Z</time></trkpt><trkpt lat="42.31985538643691" lon="13.925790307778918"><ele>449.0</ele><time>2026-04-18T11:15:21.999Z</time></trkpt><trkpt lat="42.319829452730346" lon="13.92588594682249"><ele>449.0</ele><time>2026-04-18T11:15:22.999Z</time></trkpt><trkpt lat="42.31976044842471" lon="13.92601267608295"><ele>449.0</ele><time>2026-04-18T11:15:25Z</time></trkpt><trkpt lat="42.31971332864201" lon="13.926142189014428"><ele>449.0</ele><time>2026-04-18T11:15:27Z</time></trkpt><trkpt lat="42.31967003876828" lon="13.926282981679082"><ele>449.0</ele><time>2026-04-18T11:15:29Z</time></trkpt><trkpt lat="42.319670656845744" lon="13.926371789310704"><ele>444.0</ele><time>2026-04-18T11:15:30Z</time></trkpt><trkpt lat="42.319670040743716" lon="13.92645834696594"><ele>438.99999999999994</ele><time>2026-04-18T11:15:31Z</time></trkpt><trkpt lat="42.319656831358145" lon="13.926551668972717"><ele>434.0</ele><time>2026-04-18T11:15:32Z</time></trkpt><trkpt lat="42.319633627137236" lon="13.926646834597141"><ele>429.0</ele><time>2026-04-18T11:15:33Z</time></trkpt><trkpt lat="42.31960814279717" lon="13.926729954963125"><ele>424.0</ele><time>2026-04-18T11:15:34Z</time></trkpt><trkpt lat="42.31958457180639" lon="13.926819895881138"><ele>419.0</ele><time>2026-04-18T11:15:35Z</time></trkpt><trkpt lat="42.319560022033286" lon="13.926906172014263"><ele>414.0</ele><time>2026-04-18T11:15:36Z</time></trkpt><trkpt lat="42.31951716788691" lon="13.927040052608243"><ele>410.6</ele><time>2026-04-18T11:15:38Z</time></trkpt><trkpt lat="42.319491513869124" lon="13.927208144259291"><ele>407.2</ele><time>2026-04-18T11:15:40Z</time></trkpt><trkpt lat="42.3194802817911" lon="13.92731169214567"><ele>403.8</ele><time>2026-04-18T11:15:41Z</time></trkpt><trkpt lat="42.319475678728296" lon="13.927401976809335"><ele>400.40000000000003</ele><time>2026-04-18T11:15:42Z</time></trkpt><trkpt lat="42.31947934241766" lon="13.927542675523803"><ele>397.0</ele><time>2026-04-18T11:15:44Z</time></trkpt><trkpt lat="42.319493640864984" lon="13.927711885748698"><ele>394.2857142857143</ele><time>2026-04-18T11:15:46Z</time></trkpt><trkpt lat="42.31949952243289" lon="13.927809239136046"><ele>391.57142857142856</ele><time>2026-04-18T11:15:47Z</time></trkpt><trkpt lat="42.31950265550611" lon="13.927906116597699"><ele>388.8571428571429</ele><time>2026-04-18T11:15:48Z</time></trkpt><trkpt lat="42.31950627372579" lon="13.928001301298128"><ele>386.1428571428571</ele><time>2026-04-18T11:15:49Z</time></trkpt><trkpt lat="42.31951349366607" lon="13.928088766981007"><ele>383.42857142857144</ele><time>2026-04-18T11:15:50Z</time></trkpt><trkpt lat="42.319525521212945" lon="13.928175132034184"><ele>380.7142857142857</ele><time>2026-04-18T11:15:51Z</time></trkpt><trkpt lat="42.319537997309745" lon="13.92826066531952"><ele>378.0</ele><time>2026-04-18T11:15:52Z</time></trkpt><trkpt lat="42.319547548532526" lon="13.928421375091277"><ele>375.1666666666667</ele><time>2026-04-18T11:15:54Z</time></trkpt><trkpt lat="42.31955303558719" lon="13.928507037958504"><ele>372.3333333333333</ele><time>2026-04-18T11:15:55Z</time></trkpt><trkpt lat="42.31956557714259" lon="13.928593640753821"><ele>369.5</ele><time>2026-04-18T11:15:56Z</time></trkpt><trkpt lat="42.31959802519134" lon="13.928763851270338"><ele>366.66666666666663</ele><time>2026-04-18T11:15:58Z</time></trkpt><trkpt lat="42.31960260162847" lon="13.928853052301045"><ele>363.8333333333333</ele><time>2026-04-18T11:15:59Z</time></trkpt><trkpt lat="42.319566934932126" lon="13.929004907407922"><ele>361.0</ele><time>2026-04-18T11:16:01Z</time></trkpt><trkpt lat="42.319527981006" lon="13.929083240904262"><ele>361.0</ele><time>2026-04-18T11:16:02Z</time></trkpt><trkpt lat="42.31949249168027" lon="13.929155488080296"><ele>361.0</ele><time>2026-04-18T11:16:03Z</time></trkpt><trkpt lat="42.31944918350028" lon="13.929304460504284"><ele>361.0</ele><time>2026-04-18T11:16:05Z</time></trkpt><trkpt lat="42.319470638610326" lon="13.929464930960563"><ele>361.0</ele><time>2026-04-18T11:16:06.999Z</time></trkpt><trkpt lat="42.31949919130401" lon="13.929574991473212"><ele>361.0</ele><time>2026-04-18T11:16:08.999Z</time></trkpt><trkpt lat="42.31953430962179" lon="13.92964723400726"><ele>359.20000000000005</ele><time>2026-04-18T11:16:10.999Z</time></trkpt><trkpt lat="42.31957208114066" lon="13.92979553849176"><ele>357.40000000000003</ele><time>2026-04-18T11:16:12.999Z</time></trkpt><trkpt lat="42.31957117702378" lon="13.929952819963287"><ele>355.6</ele><time>2026-04-18T11:16:14.999Z</time></trkpt><trkpt lat="42.319535466551194" lon="13.930076721405172"><ele>353.8</ele><time>2026-04-18T11:16:16.999Z</time></trkpt><trkpt lat="42.31948271043113" lon="13.930197748369462"><ele>352.0</ele><time>2026-04-18T11:16:18.999Z</time></trkpt><trkpt lat="42.319462705502765" lon="13.930282546717406"><ele>349.6</ele><time>2026-04-18T11:16:19.999Z</time></trkpt><trkpt lat="42.319464435973224" lon="13.930391985768715"><ele>347.20000000000005</ele><time>2026-04-18T11:16:20.999Z</time></trkpt><trkpt lat="42.31949032146798" lon="13.930504717213884"><ele>344.8</ele><time>2026-04-18T11:16:21.999Z</time></trkpt><trkpt lat="42.31951843994362" lon="13.93062891817219"><ele>342.4</ele><time>2026-04-18T11:16:22.999Z</time></trkpt><trkpt lat="42.31957233936995" lon="13.9307504576912"><ele>340.0</ele><time>2026-04-18T11:16:23.999Z</time></trkpt><trkpt lat="42.31965073194581" lon="13.930874193011155"><ele>339.75</ele><time>2026-04-18T11:16:24.999Z</time></trkpt><trkpt lat="42.31971346190747" lon="13.931044581314534"><ele>339.5</ele><time>2026-04-18T11:16:25.999Z</time></trkpt><trkpt lat="42.319755070427526" lon="13.931198161910089"><ele>339.25</ele><time>2026-04-18T11:16:26.999Z</time></trkpt><trkpt lat="42.319784237429324" lon="13.931326267519223"><ele>339.0</ele><time>2026-04-18T11:16:27.999Z</time></trkpt><trkpt lat="42.31982312744346" lon="13.93145404797176"><ele>339.0</ele><time>2026-04-18T11:16:28.999Z</time></trkpt><trkpt lat="42.31988217137063" lon="13.931586498349803"><ele>339.0</ele><time>2026-04-18T11:16:29.999Z</time></trkpt><trkpt lat="42.31994116224395" lon="13.931721558754555"><ele>339.0</ele><time>2026-04-18T11:16:30.999Z</time></trkpt><trkpt lat="42.32000551344636" lon="13.931861299232787"><ele>339.0</ele><time>2026-04-18T11:16:31.999Z</time></trkpt><trkpt lat="42.320075112905734" lon="13.931994893354368"><ele>335.5</ele><time>2026-04-18T11:16:32.999Z</time></trkpt><trkpt lat="42.32014091698636" lon="13.932136757850515"><ele>332.0</ele><time>2026-04-18T11:16:33.999Z</time></trkpt><trkpt lat="42.32019234277894" lon="13.932292937656173"><ele>328.5</ele><time>2026-04-18T11:16:34.999Z</time></trkpt><trkpt lat="42.32023064705095" lon="13.932457335846197"><ele>325.0</ele><time>2026-04-18T11:16:35.999Z</time></trkpt><trkpt lat="42.3202632670183" lon="13.932628072674204"><ele>322.5</ele><time>2026-04-18T11:16:36.999Z</time></trkpt><trkpt lat="42.32030216099931" lon="13.932795306270377"><ele>320.0</ele><time>2026-04-18T11:16:37.999Z</time></trkpt><trkpt lat="42.320344710831044" lon="13.932965606647729"><ele>317.5</ele><time>2026-04-18T11:16:38.999Z</time></trkpt><trkpt lat="42.32038712236141" lon="13.933134476135374"><ele>315.0</ele><time>2026-04-18T11:16:39.999Z</time></trkpt><trkpt lat="42.320431357001596" lon="13.933301843241203"><ele>314.75</ele><time>2026-04-18T11:16:40.999Z</time></trkpt><trkpt lat="42.32047747242607" lon="13.933465514720966"><ele>314.5</ele><time>2026-04-18T11:16:41.999Z</time></trkpt><trkpt lat="42.32052237134129" lon="13.933627606878078"><ele>314.25</ele><time>2026-04-18T11:16:42.999Z</time></trkpt><trkpt lat="42.3205604955576" lon="13.93378331814872"><ele>314.0</ele><time>2026-04-18T11:16:43.999Z</time></trkpt><trkpt lat="42.32060299283487" lon="13.933925563375954"><ele>315.0</ele><time>2026-04-18T11:16:44.999Z</time></trkpt><trkpt lat="42.32064786495887" lon="13.934080591797581"><ele>316.0</ele><time>2026-04-18T11:16:45.999Z</time></trkpt><trkpt lat="42.320687113180206" lon="13.934244399278432"><ele>317.0</ele><time>2026-04-18T11:16:46.999Z</time></trkpt><trkpt lat="42.320725550499944" lon="13.934396517180565"><ele>318.0</ele><time>2026-04-18T11:16:47.999Z</time></trkpt><trkpt lat="42.32076313643952" lon="13.934534467651682"><ele>318.25</ele><time>2026-04-18T11:16:48.999Z</time></trkpt><trkpt lat="42.32080610772311" lon="13.934682208135735"><ele>318.5</ele><time>2026-04-18T11:16:49.999Z</time></trkpt><trkpt lat="42.320843683525865" lon="13.934830417631897"><ele>318.75</ele><time>2026-04-18T11:16:50.999Z</time></trkpt><trkpt lat="42.3208844382922" lon="13.934978531052213"><ele>319.0</ele><time>2026-04-18T11:16:51.999Z</time></trkpt><trkpt lat="42.32092333282466" lon="13.935122620951823"><ele>318.0</ele><time>2026-04-18T11:16:52.999Z</time></trkpt><trkpt lat="42.32095528176792" lon="13.93527691986576"><ele>317.0</ele><time>2026-04-18T11:16:53.999Z</time></trkpt><trkpt lat="42.320977219277744" lon="13.93543986844988"><ele>316.0</ele><time>2026-04-18T11:16:54.999Z</time></trkpt><trkpt lat="42.32098162029867" lon="13.935593503879453"><ele>315.0</ele><time>2026-04-18T11:16:55.999Z</time></trkpt><trkpt lat="42.320994693781984" lon="13.935756867685665"><ele>312.75</ele><time>2026-04-18T11:16:56.999Z</time></trkpt><trkpt lat="42.321009471936065" lon="13.935909875116316"><ele>310.5</ele><time>2026-04-18T11:16:57.999Z</time></trkpt><trkpt lat="42.32101922490064" lon="13.936071045085688"><ele>308.25</ele><time>2026-04-18T11:16:58.999Z</time></trkpt><trkpt lat="42.321025170332156" lon="13.936235133730444"><ele>306.0</ele><time>2026-04-18T11:16:59.999Z</time></trkpt><trkpt lat="42.32102742413496" lon="13.936396756935476"><ele>306.0</ele><time>2026-04-18T11:17:00.999Z</time></trkpt><trkpt lat="42.32102619894151" lon="13.93656149496115"><ele>306.0</ele><time>2026-04-18T11:17:01.999Z</time></trkpt><trkpt lat="42.32102003614276" lon="13.936726099969146"><ele>306.0</ele><time>2026-04-18T11:17:02.999Z</time></trkpt><trkpt lat="42.32101319394246" lon="13.936898647532892"><ele>306.0</ele><time>2026-04-18T11:17:03.999Z</time></trkpt><trkpt lat="42.321007892277684" lon="13.937068182009012"><ele>303.0</ele><time>2026-04-18T11:17:04.999Z</time></trkpt><trkpt lat="42.32100072414162" lon="13.937239922252651"><ele>300.0</ele><time>2026-04-18T11:17:05.999Z</time></trkpt><trkpt lat="42.32099814239904" lon="13.937420514038894"><ele>297.0</ele><time>2026-04-18T11:17:06.999Z</time></trkpt><trkpt lat="42.320994636767075" lon="13.937609096723257"><ele>294.0</ele><time>2026-04-18T11:17:07.999Z</time></trkpt><trkpt lat="42.3209908883883" lon="13.937800703896036"><ele>291.75</ele><time>2026-04-18T11:17:08.999Z</time></trkpt><trkpt lat="42.32100813651332" lon="13.937985656243091"><ele>289.5</ele><time>2026-04-18T11:17:09.999Z</time></trkpt><trkpt lat="42.32104646488714" lon="13.93816891844612"><ele>287.25</ele><time>2026-04-18T11:17:10.999Z</time></trkpt><trkpt lat="42.321104056326824" lon="13.938352312564225"><ele>285.0</ele><time>2026-04-18T11:17:11.999Z</time></trkpt><trkpt lat="42.32117734580704" lon="13.938538965310281"><ele>282.6666666666667</ele><time>2026-04-18T11:17:12.999Z</time></trkpt><trkpt lat="42.321255082752465" lon="13.938727852407526"><ele>280.33333333333337</ele><time>2026-04-18T11:17:13.999Z</time></trkpt><trkpt lat="42.32132308139251" lon="13.938913758897636"><ele>278.0</ele><time>2026-04-18T11:17:14.999Z</time></trkpt><trkpt lat="42.321381645231824" lon="13.939111179780442"><ele>276.5</ele><time>2026-04-18T11:17:15.999Z</time></trkpt><trkpt lat="42.321438208005226" lon="13.939294572217374"><ele>275.0</ele><time>2026-04-18T11:17:16.999Z</time></trkpt><trkpt lat="42.32148570780939" lon="13.93945502491458"><ele>273.5</ele><time>2026-04-18T11:17:17.999Z</time></trkpt><trkpt lat="42.32152647767976" lon="13.939606867196394"><ele>272.0</ele><time>2026-04-18T11:17:18.999Z</time></trkpt><trkpt lat="42.321567872527545" lon="13.939756226824578"><ele>272.0</ele><time>2026-04-18T11:17:19.999Z</time></trkpt><trkpt lat="42.321607776331824" lon="13.939910604761957"><ele>272.0</ele><time>2026-04-18T11:17:20.999Z</time></trkpt><trkpt lat="42.32164705737743" lon="13.940089136798143"><ele>272.0</ele><time>2026-04-18T11:17:21.999Z</time></trkpt><trkpt lat="42.32168709697207" lon="13.940281814669211"><ele>272.0</ele><time>2026-04-18T11:17:22.999Z</time></trkpt><trkpt lat="42.32170795513727" lon="13.940486636472507"><ele>271.6666666666667</ele><time>2026-04-18T11:17:23.999Z</time></trkpt><trkpt lat="42.32173135326968" lon="13.940693673553769"><ele>271.3333333333333</ele><time>2026-04-18T11:17:24.999Z</time></trkpt><trkpt lat="42.321757301811665" lon="13.940894756336581"><ele>271.0</ele><time>2026-04-18T11:17:25.999Z</time></trkpt><trkpt lat="42.32178141237015" lon="13.94108864545005"><ele>270.0</ele><time>2026-04-18T11:17:26.999Z</time></trkpt><trkpt lat="42.32180891191047" lon="13.941276949189373"><ele>269.0</ele><time>2026-04-18T11:17:27.999Z</time></trkpt><trkpt lat="42.32183169467449" lon="13.941458645127188"><ele>268.0</ele><time>2026-04-18T11:17:28.999Z</time></trkpt><trkpt lat="42.32185217793509" lon="13.941640679015373"><ele>267.0</ele><time>2026-04-18T11:17:30Z</time></trkpt><trkpt lat="42.321878798797606" lon="13.9418301467524"><ele>265.5</ele><time>2026-04-18T11:17:31Z</time></trkpt><trkpt lat="42.321911326835355" lon="13.94203154336444"><ele>264.0</ele><time>2026-04-18T11:17:32Z</time></trkpt><trkpt lat="42.32194063168285" lon="13.942235281374282"><ele>262.5</ele><time>2026-04-18T11:17:33Z</time></trkpt><trkpt lat="42.32197013263706" lon="13.942423477587935"><ele>261.0</ele><time>2026-04-18T11:17:34Z</time></trkpt><trkpt lat="42.32199677085993" lon="13.942601164973707"><ele>259.75</ele><time>2026-04-18T11:17:35Z</time></trkpt><trkpt lat="42.32201492691979" lon="13.942781026370604"><ele>258.5</ele><time>2026-04-18T11:17:36Z</time></trkpt><trkpt lat="42.32202941714453" lon="13.9429623417047"><ele>257.25</ele><time>2026-04-18T11:17:37Z</time></trkpt><trkpt lat="42.32204861048586" lon="13.943141919892412"><ele>256.0</ele><time>2026-04-18T11:17:38Z</time></trkpt><trkpt lat="42.32207162650867" lon="13.943313906206482"><ele>254.25</ele><time>2026-04-18T11:17:39Z</time></trkpt><trkpt lat="42.322092501492115" lon="13.943478609478293"><ele>252.5</ele><time>2026-04-18T11:17:40Z</time></trkpt><trkpt lat="42.32210716146086" lon="13.943636144918207"><ele>250.75</ele><time>2026-04-18T11:17:41Z</time></trkpt><trkpt lat="42.322119040707484" lon="13.943818258830207"><ele>249.0</ele><time>2026-04-18T11:17:42Z</time></trkpt><trkpt lat="42.322119902049174" lon="13.944028802165542"><ele>248.33333333333331</ele><time>2026-04-18T11:17:43Z</time></trkpt><trkpt lat="42.32212711059896" lon="13.944238706584825"><ele>247.66666666666666</ele><time>2026-04-18T11:17:44Z</time></trkpt><trkpt lat="42.322141535311246" lon="13.944448778453788"><ele>247.0</ele><time>2026-04-18T11:17:45Z</time></trkpt><trkpt lat="42.32215024156316" lon="13.944672469669788"><ele>247.0</ele><time>2026-04-18T11:17:46Z</time></trkpt><trkpt lat="42.32214932476496" lon="13.944878826952904"><ele>247.0</ele><time>2026-04-18T11:17:47Z</time></trkpt><trkpt lat="42.32214362284922" lon="13.9450612778497"><ele>247.0</ele><time>2026-04-18T11:17:48Z</time></trkpt><trkpt lat="42.322143209503665" lon="13.945235332478836"><ele>247.0</ele><time>2026-04-18T11:17:49Z</time></trkpt><trkpt lat="42.322156737544375" lon="13.945393775800467"><ele>245.5</ele><time>2026-04-18T11:17:50Z</time></trkpt><trkpt lat="42.3221715056943" lon="13.945552734834788"><ele>244.0</ele><time>2026-04-18T11:17:51Z</time></trkpt><trkpt lat="42.322179526433494" lon="13.945724161760168"><ele>242.5</ele><time>2026-04-18T11:17:52Z</time></trkpt><trkpt lat="42.32218109700907" lon="13.945895300340196"><ele>241.0</ele><time>2026-04-18T11:17:53Z</time></trkpt><trkpt lat="42.32217103290282" lon="13.946042354058697"><ele>241.20000000000002</ele><time>2026-04-18T11:17:54Z</time></trkpt><trkpt lat="42.322165403354276" lon="13.946165483206086"><ele>241.40000000000003</ele><time>2026-04-18T11:17:55Z</time></trkpt><trkpt lat="42.32218074196912" lon="13.946293293980053"><ele>241.6</ele><time>2026-04-18T11:17:56Z</time></trkpt><trkpt lat="42.32222046319442" lon="13.946430877229993"><ele>241.8</ele><time>2026-04-18T11:17:57Z</time></trkpt><trkpt lat="42.3222813368267" lon="13.946597452559427"><ele>242.0</ele><time>2026-04-18T11:17:58Z</time></trkpt><trkpt lat="42.32233939208853" lon="13.946773745458481"><ele>241.25</ele><time>2026-04-18T11:17:59Z</time></trkpt><trkpt lat="42.32238515140764" lon="13.946960720534316"><ele>240.5</ele><time>2026-04-18T11:18:00Z</time></trkpt><trkpt lat="42.32242879010728" lon="13.947159130307416"><ele>239.75</ele><time>2026-04-18T11:18:01Z</time></trkpt><trkpt lat="42.322470856987195" lon="13.947342467140233"><ele>239.0</ele><time>2026-04-18T11:18:02Z</time></trkpt><trkpt lat="42.322512487692904" lon="13.947524132896215"><ele>238.33333333333334</ele><time>2026-04-18T11:18:03Z</time></trkpt><trkpt lat="42.32255502746666" lon="13.94772688238225"><ele>237.66666666666669</ele><time>2026-04-18T11:18:04Z</time></trkpt><trkpt lat="42.32259371391151" lon="13.947982618719806"><ele>237.0</ele><time>2026-04-18T11:18:05Z</time></trkpt><trkpt lat="42.32261805485437" lon="13.948245327641514"><ele>236.0</ele><time>2026-04-18T11:18:05.999Z</time></trkpt><trkpt lat="42.3226403068659" lon="13.948477739950613"><ele>235.0</ele><time>2026-04-18T11:18:06.999Z</time></trkpt><trkpt lat="42.32267210274715" lon="13.948733355086826"><ele>234.0</ele><time>2026-04-18T11:18:07.999Z</time></trkpt><trkpt lat="42.32270996157747" lon="13.948999612255825"><ele>232.0</ele><time>2026-04-18T11:18:08.999Z</time></trkpt><trkpt lat="42.32274613633192" lon="13.949264107371178"><ele>230.0</ele><time>2026-04-18T11:18:09.999Z</time></trkpt><trkpt lat="42.322787957640074" lon="13.94954993639136"><ele>228.0</ele><time>2026-04-18T11:18:10.999Z</time></trkpt><trkpt lat="42.322827172338734" lon="13.94980233594717"><ele>228.0</ele><time>2026-04-18T11:18:11.999Z</time></trkpt><trkpt lat="42.32285913579847" lon="13.950016263648319"><ele>228.0</ele><time>2026-04-18T11:18:12.999Z</time></trkpt><trkpt lat="42.322888235073535" lon="13.950212051746991"><ele>228.0</ele><time>2026-04-18T11:18:13.999Z</time></trkpt><trkpt lat="42.3229255015827" lon="13.950410479898972"><ele>227.0</ele><time>2026-04-18T11:18:14.999Z</time></trkpt><trkpt lat="42.32297225009935" lon="13.950617732976733"><ele>226.0</ele><time>2026-04-18T11:18:15.999Z</time></trkpt><trkpt lat="42.32303191106049" lon="13.950833294034712"><ele>225.0</ele><time>2026-04-18T11:18:16.999Z</time></trkpt><trkpt lat="42.323111572480336" lon="13.951045930266327"><ele>225.0</ele><time>2026-04-18T11:18:17.999Z</time></trkpt><trkpt lat="42.32321209250038" lon="13.951260435980544"><ele>225.0</ele><time>2026-04-18T11:18:18.999Z</time></trkpt><trkpt lat="42.32331370677024" lon="13.951475225253526"><ele>225.0</ele><time>2026-04-18T11:18:19.999Z</time></trkpt><trkpt lat="42.32340312003089" lon="13.951683249495346"><ele>225.0</ele><time>2026-04-18T11:18:20.999Z</time></trkpt><trkpt lat="42.323483719396805" lon="13.951882754196966"><ele>225.0</ele><time>2026-04-18T11:18:21.999Z</time></trkpt><trkpt lat="42.32354812095643" lon="13.952072870553698"><ele>225.0</ele><time>2026-04-18T11:18:22.999Z</time></trkpt><trkpt lat="42.32360313217041" lon="13.952254917246135"><ele>225.0</ele><time>2026-04-18T11:18:23.999Z</time></trkpt><trkpt lat="42.323666951115925" lon="13.952425385283053"><ele>225.0</ele><time>2026-04-18T11:18:24.999Z</time></trkpt><trkpt lat="42.323737584246736" lon="13.952591139600779"><ele>225.0</ele><time>2026-04-18T11:18:25.999Z</time></trkpt><trkpt lat="42.323795770849316" lon="13.952770840229997"><ele>225.0</ele><time>2026-04-18T11:18:26.999Z</time></trkpt><trkpt lat="42.323837814694556" lon="13.952950086033775"><ele>224.25</ele><time>2026-04-18T11:18:27.999Z</time></trkpt><trkpt lat="42.323861024240216" lon="13.953117212139116"><ele>223.5</ele><time>2026-04-18T11:18:28.999Z</time></trkpt><trkpt lat="42.323867737042434" lon="13.953283051459945"><ele>222.75</ele><time>2026-04-18T11:18:29.999Z</time></trkpt><trkpt lat="42.32385516135975" lon="13.953455433755972"><ele>222.0</ele><time>2026-04-18T11:18:30.999Z</time></trkpt><trkpt lat="42.32382085765005" lon="13.953610591000556"><ele>221.33333333333331</ele><time>2026-04-18T11:18:31.999Z</time></trkpt><trkpt lat="42.323749609957225" lon="13.953759442582177"><ele>220.66666666666666</ele><time>2026-04-18T11:18:32.999Z</time></trkpt><trkpt lat="42.323685953446436" lon="13.953959137467962"><ele>220.0</ele><time>2026-04-18T11:18:33.999Z</time></trkpt><trkpt lat="42.32361613121558" lon="13.954160088313142"><ele>219.66666666666666</ele><time>2026-04-18T11:18:34.999Z</time></trkpt><trkpt lat="42.32357254908505" lon="13.954358529123917"><ele>219.33333333333331</ele><time>2026-04-18T11:18:35.999Z</time></trkpt><trkpt lat="42.32354243927629" lon="13.954573719856437"><ele>219.0</ele><time>2026-04-18T11:18:36.999Z</time></trkpt><trkpt lat="42.323530695045875" lon="13.954780869482043"><ele>219.0</ele><time>2026-04-18T11:18:37.999Z</time></trkpt><trkpt lat="42.32353694117341" lon="13.954997422095499"><ele>219.0</ele><time>2026-04-18T11:18:38.999Z</time></trkpt><trkpt lat="42.323549568622475" lon="13.95521690796908"><ele>219.0</ele><time>2026-04-18T11:18:39.999Z</time></trkpt><trkpt lat="42.32357055045695" lon="13.955417438498907"><ele>217.5</ele><time>2026-04-18T11:18:40.999Z</time></trkpt><trkpt lat="42.32360808894188" lon="13.955604388367322"><ele>216.0</ele><time>2026-04-18T11:18:41.999Z</time></trkpt><trkpt lat="42.323662529012466" lon="13.955784184597162"><ele>214.5</ele><time>2026-04-18T11:18:42.999Z</time></trkpt><trkpt lat="42.32372611997162" lon="13.955963450479112"><ele>213.0</ele><time>2026-04-18T11:18:43.999Z</time></trkpt><trkpt lat="42.32380408960749" lon="13.956125241858658"><ele>213.5</ele><time>2026-04-18T11:18:44.999Z</time></trkpt><trkpt lat="42.32389572977949" lon="13.956245557206609"><ele>214.0</ele><time>2026-04-18T11:18:45.999Z</time></trkpt><trkpt lat="42.323980996128185" lon="13.956353008509724"><ele>214.5</ele><time>2026-04-18T11:18:46.999Z</time></trkpt><trkpt lat="42.32404104526442" lon="13.9564677170989"><ele>215.0</ele><time>2026-04-18T11:18:47.999Z</time></trkpt><trkpt lat="42.32405442261247" lon="13.9566067078969"><ele>213.66666666666669</ele><time>2026-04-18T11:18:48.999Z</time></trkpt><trkpt lat="42.32408957189108" lon="13.956798690562062"><ele>212.33333333333331</ele><time>2026-04-18T11:18:49.999Z</time></trkpt><trkpt lat="42.32414624387943" lon="13.957012638233818"><ele>211.0</ele><time>2026-04-18T11:18:50.999Z</time></trkpt><trkpt lat="42.324192889247435" lon="13.957219231484371"><ele>211.0</ele><time>2026-04-18T11:18:51.999Z</time></trkpt><trkpt lat="42.32423509215368" lon="13.957403915149508"><ele>211.0</ele><time>2026-04-18T11:18:52.999Z</time></trkpt><trkpt lat="42.324289192825155" lon="13.957585999376853"><ele>211.0</ele><time>2026-04-18T11:18:53.999Z</time></trkpt><trkpt lat="42.32435865962757" lon="13.957742948572545"><ele>211.0</ele><time>2026-04-18T11:18:54.999Z</time></trkpt><trkpt lat="42.32442925358948" lon="13.957874923808482"><ele>209.5</ele><time>2026-04-18T11:18:55.999Z</time></trkpt><trkpt lat="42.32449098673159" lon="13.957996512721104"><ele>208.0</ele><time>2026-04-18T11:18:56.999Z</time></trkpt><trkpt lat="42.32452445936935" lon="13.958141976361919"><ele>206.5</ele><time>2026-04-18T11:18:57.999Z</time></trkpt><trkpt lat="42.32453905458916" lon="13.958323435257084"><ele>205.0</ele><time>2026-04-18T11:18:58.999Z</time></trkpt><trkpt lat="42.324565332914915" lon="13.95849385062188"><ele>206.25</ele><time>2026-04-18T11:18:59.999Z</time></trkpt><trkpt lat="42.324621340654474" lon="13.95866222352185"><ele>207.5</ele><time>2026-04-18T11:19:00.999Z</time></trkpt><trkpt lat="42.324684285852285" lon="13.958815358490238"><ele>208.75</ele><time>2026-04-18T11:19:01.999Z</time></trkpt><trkpt lat="42.324745585792066" lon="13.958950812205536"><ele>210.0</ele><time>2026-04-18T11:19:02.999Z</time></trkpt><trkpt lat="42.32479651827219" lon="13.95908911515998"><ele>209.0</ele><time>2026-04-18T11:19:03.999Z</time></trkpt><trkpt lat="42.32482782446567" lon="13.959244188508961"><ele>208.0</ele><time>2026-04-18T11:19:04.999Z</time></trkpt><trkpt lat="42.32484404854377" lon="13.95944357037732"><ele>207.0</ele><time>2026-04-18T11:19:05.999Z</time></trkpt><trkpt lat="42.324855287283306" lon="13.959642477700815"><ele>206.0</ele><time>2026-04-18T11:19:06.999Z</time></trkpt><trkpt lat="42.32486159987764" lon="13.959823540698034"><ele>206.0</ele><time>2026-04-18T11:19:07.999Z</time></trkpt><trkpt lat="42.3248708696889" lon="13.95998377541822"><ele>206.0</ele><time>2026-04-18T11:19:08.999Z</time></trkpt><trkpt lat="42.32488744455358" lon="13.960133386878063"><ele>206.0</ele><time>2026-04-18T11:19:09.999Z</time></trkpt><trkpt lat="42.32491375453038" lon="13.960275738065599"><ele>206.0</ele><time>2026-04-18T11:19:10.999Z</time></trkpt><trkpt lat="42.32495144842995" lon="13.960407870799035"><ele>206.0</ele><time>2026-04-18T11:19:11.999Z</time></trkpt><trkpt lat="42.3250033044578" lon="13.96053917969695"><ele>203.25</ele><time>2026-04-18T11:19:12.999Z</time></trkpt><trkpt lat="42.325076060449454" lon="13.960675154253464"><ele>200.5</ele><time>2026-04-18T11:19:13.999Z</time></trkpt><trkpt lat="42.32516779052257" lon="13.960807964404832"><ele>197.75</ele><time>2026-04-18T11:19:14.999Z</time></trkpt><trkpt lat="42.32526355545766" lon="13.960924612091219"><ele>195.0</ele><time>2026-04-18T11:19:15.999Z</time></trkpt><trkpt lat="42.32534550985729" lon="13.961035413968546"><ele>195.0</ele><time>2026-04-18T11:19:16.999Z</time></trkpt><trkpt lat="42.32541466976254" lon="13.96112676926084"><ele>195.0</ele><time>2026-04-18T11:19:17.999Z</time></trkpt><trkpt lat="42.32546699340696" lon="13.961203278283051"><ele>195.0</ele><time>2026-04-18T11:19:18.999Z</time></trkpt><trkpt lat="42.3255100960716" lon="13.961275874404317"><ele>195.0</ele><time>2026-04-18T11:19:19.999Z</time></trkpt><trkpt lat="42.32555014419621" lon="13.961365250400618"><ele>195.0</ele><time>2026-04-18T11:19:20.999Z</time></trkpt><trkpt lat="42.32559614599063" lon="13.961493996511587"><ele>195.0</ele><time>2026-04-18T11:19:21.999Z</time></trkpt><trkpt lat="42.32564962691406" lon="13.961617937134044"><ele>193.5</ele><time>2026-04-18T11:19:22.999Z</time></trkpt><trkpt lat="42.325706692888716" lon="13.961748815457554"><ele>192.0</ele><time>2026-04-18T11:19:23.999Z</time></trkpt><trkpt lat="42.32574945275538" lon="13.961905199731735"><ele>190.5</ele><time>2026-04-18T11:19:24.999Z</time></trkpt><trkpt lat="42.325779240891485" lon="13.96209652651778"><ele>189.0</ele><time>2026-04-18T11:19:25.999Z</time></trkpt><trkpt lat="42.325803202475726" lon="13.962280683753375"><ele>189.0</ele><time>2026-04-18T11:19:26.999Z</time></trkpt><trkpt lat="42.32583484483804" lon="13.962478508907246"><ele>189.0</ele><time>2026-04-18T11:19:27.999Z</time></trkpt><trkpt lat="42.32586135377943" lon="13.962682276945467"><ele>189.0</ele><time>2026-04-18T11:19:28.999Z</time></trkpt><trkpt lat="42.32587516318899" lon="13.962877458405837"><ele>189.0</ele><time>2026-04-18T11:19:29.999Z</time></trkpt><trkpt lat="42.32587425505869" lon="13.963062462190697"><ele>188.0</ele><time>2026-04-18T11:19:30.999Z</time></trkpt><trkpt lat="42.325871221753985" lon="13.963253175887314"><ele>187.0</ele><time>2026-04-18T11:19:31.999Z</time></trkpt><trkpt lat="42.32587468747188" lon="13.963445606431677"><ele>186.0</ele><time>2026-04-18T11:19:32.999Z</time></trkpt><trkpt lat="42.32589314464308" lon="13.963634318709156"><ele>185.0</ele><time>2026-04-18T11:19:33.999Z</time></trkpt><trkpt lat="42.3259271147472" lon="13.963856285929536"><ele>184.5</ele><time>2026-04-18T11:19:34.999Z</time></trkpt><trkpt lat="42.3259629721584" lon="13.96407019364623"><ele>184.0</ele><time>2026-04-18T11:19:36Z</time></trkpt><trkpt lat="42.32597870063937" lon="13.964232510367388"><ele>183.5</ele><time>2026-04-18T11:19:37Z</time></trkpt><trkpt lat="42.32597504728288" lon="13.964356377258603"><ele>183.0</ele><time>2026-04-18T11:19:38Z</time></trkpt><trkpt lat="42.32596021693701" lon="13.964485433791928"><ele>182.5</ele><time>2026-04-18T11:19:39Z</time></trkpt><trkpt lat="42.325933146529906" lon="13.964628471632555"><ele>182.0</ele><time>2026-04-18T11:19:40Z</time></trkpt><trkpt lat="42.325915320828244" lon="13.964787419884951"><ele>181.5</ele><time>2026-04-18T11:19:41Z</time></trkpt><trkpt lat="42.32592613650573" lon="13.964976745194388"><ele>181.0</ele><time>2026-04-18T11:19:42Z</time></trkpt><trkpt lat="42.32595711708404" lon="13.965180449298796"><ele>179.0</ele><time>2026-04-18T11:19:43Z</time></trkpt><trkpt lat="42.325996451097595" lon="13.965403765309144"><ele>177.0</ele><time>2026-04-18T11:19:44Z</time></trkpt><trkpt lat="42.32602909150914" lon="13.965602891763917"><ele>175.0</ele><time>2026-04-18T11:19:45Z</time></trkpt><trkpt lat="42.32605301745886" lon="13.965774503001416"><ele>174.25</ele><time>2026-04-18T11:19:46Z</time></trkpt><trkpt lat="42.32608082772968" lon="13.965938658974446"><ele>173.5</ele><time>2026-04-18T11:19:47Z</time></trkpt><trkpt lat="42.326109525182204" lon="13.966099806308806"><ele>172.75</ele><time>2026-04-18T11:19:48Z</time></trkpt><trkpt lat="42.32614054627031" lon="13.966265692630493"><ele>172.0</ele><time>2026-04-18T11:19:49Z</time></trkpt><trkpt lat="42.32616247813067" lon="13.966435745862162"><ele>172.0</ele><time>2026-04-18T11:19:50Z</time></trkpt><trkpt lat="42.326171450425285" lon="13.966598485004022"><ele>172.0</ele><time>2026-04-18T11:19:51Z</time></trkpt><trkpt lat="42.32617161925104" lon="13.966755689759161"><ele>172.0</ele><time>2026-04-18T11:19:52Z</time></trkpt><trkpt lat="42.32617701334056" lon="13.966886421241126"><ele>172.0</ele><time>2026-04-18T11:19:53Z</time></trkpt><trkpt lat="42.3261855274655" lon="13.9670216416474"><ele>172.0</ele><time>2026-04-18T11:19:54Z</time></trkpt><trkpt lat="42.32625403240413" lon="13.96718818938717"><ele>169.66666666666669</ele><time>2026-04-18T11:19:55Z</time></trkpt><trkpt lat="42.3263173959232" lon="13.967409064012525"><ele>167.33333333333334</ele><time>2026-04-18T11:19:56Z</time></trkpt><trkpt lat="42.32637274423867" lon="13.96764001147546"><ele>165.0</ele><time>2026-04-18T11:19:57Z</time></trkpt><trkpt lat="42.3264168139115" lon="13.967840546394502"><ele>165.0</ele><time>2026-04-18T11:19:58Z</time></trkpt><trkpt lat="42.3264633859457" lon="13.968030798210783"><ele>165.0</ele><time>2026-04-18T11:19:59Z</time></trkpt><trkpt lat="42.32650104115239" lon="13.968226947409212"><ele>165.0</ele><time>2026-04-18T11:20:00Z</time></trkpt><trkpt lat="42.32653449869484" lon="13.968418074923154"><ele>165.0</ele><time>2026-04-18T11:20:01Z</time></trkpt><trkpt lat="42.32657252460983" lon="13.968592809361157"><ele>164.5</ele><time>2026-04-18T11:20:02Z</time></trkpt><trkpt lat="42.32661601141201" lon="13.968737986731007"><ele>164.0</ele><time>2026-04-18T11:20:03Z</time></trkpt><trkpt lat="42.32667980705574" lon="13.968865612406272"><ele>163.5</ele><time>2026-04-18T11:20:04Z</time></trkpt><trkpt lat="42.326766475701184" lon="13.968969627408873"><ele>163.0</ele><time>2026-04-18T11:20:04.999Z</time></trkpt><trkpt lat="42.32685547314379" lon="13.96905684347608"><ele>163.0</ele><time>2026-04-18T11:20:05.999Z</time></trkpt><trkpt lat="42.32692256768273" lon="13.969133425939173"><ele>163.0</ele><time>2026-04-18T11:20:06.999Z</time></trkpt><trkpt lat="42.32697314475448" lon="13.969222963815474"><ele>163.0</ele><time>2026-04-18T11:20:07.999Z</time></trkpt><trkpt lat="42.3269724732544" lon="13.969336075568743"><ele>163.0</ele><time>2026-04-18T11:20:08.999Z</time></trkpt><trkpt lat="42.326967045720615" lon="13.969462161466758"><ele>163.0</ele><time>2026-04-18T11:20:09.999Z</time></trkpt><trkpt lat="42.32694393011265" lon="13.969614545112778"><ele>163.0</ele><time>2026-04-18T11:20:10.999Z</time></trkpt><trkpt lat="42.32693074710186" lon="13.969818011245025"><ele>163.0</ele><time>2026-04-18T11:20:11.999Z</time></trkpt><trkpt lat="42.32689952901189" lon="13.97006668967662"><ele>163.0</ele><time>2026-04-18T11:20:12.999Z</time></trkpt><trkpt lat="42.32687472178546" lon="13.970317930010246"><ele>163.5</ele><time>2026-04-18T11:20:13.999Z</time></trkpt><trkpt lat="42.32686243639109" lon="13.970515266019635"><ele>164.0</ele><time>2026-04-18T11:20:14.999Z</time></trkpt><trkpt lat="42.326875053967974" lon="13.970684470551863"><ele>164.5</ele><time>2026-04-18T11:20:15.999Z</time></trkpt><trkpt lat="42.326899256295015" lon="13.97086074598934"><ele>165.0</ele><time>2026-04-18T11:20:16.999Z</time></trkpt><trkpt lat="42.3269362668064" lon="13.97103981004033"><ele>165.0</ele><time>2026-04-18T11:20:17.999Z</time></trkpt><trkpt lat="42.326983220314226" lon="13.971234859945675"><ele>165.0</ele><time>2026-04-18T11:20:18.999Z</time></trkpt><trkpt lat="42.32702923186839" lon="13.971428738264105"><ele>165.0</ele><time>2026-04-18T11:20:19.999Z</time></trkpt><trkpt lat="42.32706761795962" lon="13.971594548729197"><ele>165.0</ele><time>2026-04-18T11:20:20.999Z</time></trkpt><trkpt lat="42.32709797818551" lon="13.971735664092341"><ele>165.4</ele><time>2026-04-18T11:20:21.999Z</time></trkpt><trkpt lat="42.32714379834163" lon="13.97188442508941"><ele>165.8</ele><time>2026-04-18T11:20:22.999Z</time></trkpt><trkpt lat="42.32717836132313" lon="13.972015982615176"><ele>166.2</ele><time>2026-04-18T11:20:23.999Z</time></trkpt><trkpt lat="42.32721098088763" lon="13.972127844601427"><ele>166.6</ele><time>2026-04-18T11:20:24.999Z</time></trkpt><trkpt lat="42.32724272144953" lon="13.97222562340276"><ele>167.0</ele><time>2026-04-18T11:20:25.999Z</time></trkpt><trkpt lat="42.32728760875205" lon="13.972363132117962"><ele>168.0</ele><time>2026-04-18T11:20:27.999Z</time></trkpt><trkpt lat="42.327338226287104" lon="13.972447434019466"><ele>169.0</ele><time>2026-04-18T11:21:07.999Z</time></trkpt><trkpt lat="42.32741432354859" lon="13.972586040955042"><ele>170.0</ele><time>2026-04-18T11:21:09.999Z</time></trkpt><trkpt lat="42.327457349374235" lon="13.972676073531026"><ele>171.0</ele><time>2026-04-18T11:21:10.999Z</time></trkpt><trkpt lat="42.32750674755809" lon="13.972776605384686"><ele>172.0</ele><time>2026-04-18T11:21:11.999Z</time></trkpt><trkpt lat="42.32756023329023" lon="13.972887004905402"><ele>172.0</ele><time>2026-04-18T11:21:12.999Z</time></trkpt><trkpt lat="42.327620184144706" lon="13.973006762418589"><ele>172.0</ele><time>2026-04-18T11:21:13.999Z</time></trkpt><trkpt lat="42.32768354186498" lon="13.973128071082554"><ele>172.0</ele><time>2026-04-18T11:21:14.999Z</time></trkpt><trkpt lat="42.32774359433713" lon="13.973264793122066"><ele>172.0</ele><time>2026-04-18T11:21:15.999Z</time></trkpt><trkpt lat="42.327802134300526" lon="13.973431331760914"><ele>173.5</ele><time>2026-04-18T11:21:16.999Z</time></trkpt><trkpt lat="42.32786185151178" lon="13.973604749852905"><ele>175.0</ele><time>2026-04-18T11:21:17.999Z</time></trkpt><trkpt lat="42.32792578390431" lon="13.973756735222256"><ele>176.5</ele><time>2026-04-18T11:21:18.999Z</time></trkpt><trkpt lat="42.32800799228187" lon="13.973890369766242"><ele>178.0</ele><time>2026-04-18T11:21:19.999Z</time></trkpt><trkpt lat="42.32810568786067" lon="13.974018393724652"><ele>179.75</ele><time>2026-04-18T11:21:20.999Z</time></trkpt><trkpt lat="42.32819215305546" lon="13.974154628616994"><ele>181.5</ele><time>2026-04-18T11:21:21.999Z</time></trkpt><trkpt lat="42.328253657051036" lon="13.974301875433522"><ele>183.25</ele><time>2026-04-18T11:21:22.999Z</time></trkpt><trkpt lat="42.32830252675616" lon="13.974461992028344"><ele>185.0</ele><time>2026-04-18T11:21:23.999Z</time></trkpt><trkpt lat="42.32834107152397" lon="13.974614967640983"><ele>186.16666666666666</ele><time>2026-04-18T11:21:24.999Z</time></trkpt><trkpt lat="42.3283737252168" lon="13.974754453873102"><ele>187.33333333333331</ele><time>2026-04-18T11:21:25.999Z</time></trkpt><trkpt lat="42.32838281739552" lon="13.974849682905527"><ele>188.5</ele><time>2026-04-18T11:21:26.999Z</time></trkpt><trkpt lat="42.32841139772306" lon="13.974996158958122"><ele>189.66666666666666</ele><time>2026-04-18T11:21:28.999Z</time></trkpt><trkpt lat="42.32843415787442" lon="13.975076690753223"><ele>190.83333333333334</ele><time>2026-04-18T11:21:29.999Z</time></trkpt><trkpt lat="42.328453158952435" lon="13.975160219112144"><ele>192.0</ele><time>2026-04-18T11:21:30.999Z</time></trkpt><trkpt lat="42.328477300910016" lon="13.975266817734466"><ele>192.6</ele><time>2026-04-18T11:21:31.999Z</time></trkpt><trkpt lat="42.32850936174331" lon="13.975407185559652"><ele>193.2</ele><time>2026-04-18T11:21:32.999Z</time></trkpt><trkpt lat="42.32853517187581" lon="13.975561083604203"><ele>193.8</ele><time>2026-04-18T11:21:33.999Z</time></trkpt><trkpt lat="42.3285601892656" lon="13.975709448693474"><ele>194.4</ele><time>2026-04-18T11:21:34.999Z</time></trkpt><trkpt lat="42.32858935647209" lon="13.975850329854568"><ele>195.0</ele><time>2026-04-18T11:21:35.999Z</time></trkpt><trkpt lat="42.32862467302159" lon="13.97598352540485"><ele>195.25</ele><time>2026-04-18T11:21:36.999Z</time></trkpt><trkpt lat="42.32866672349208" lon="13.976116370969393"><ele>195.5</ele><time>2026-04-18T11:21:37.998Z</time></trkpt><trkpt lat="42.328721451011354" lon="13.976251306650754"><ele>195.75</ele><time>2026-04-18T11:21:38.998Z</time></trkpt><trkpt lat="42.328802299796756" lon="13.976402429237758"><ele>196.0</ele><time>2026-04-18T11:21:39.998Z</time></trkpt><trkpt lat="42.328909243489456" lon="13.976556385771895"><ele>197.4</ele><time>2026-04-18T11:21:40.998Z</time></trkpt><trkpt lat="42.32899189376005" lon="13.97666350980943"><ele>198.8</ele><time>2026-04-18T11:21:42Z</time></trkpt><trkpt lat="42.32904246979571" lon="13.976740725596533"><ele>200.20000000000002</ele><time>2026-04-18T11:21:43Z</time></trkpt><trkpt lat="42.32909168750063" lon="13.976852751676711"><ele>201.60000000000002</ele><time>2026-04-18T11:21:45Z</time></trkpt><trkpt lat="42.32900799381082" lon="13.976971646730531"><ele>203.0</ele><time>2026-04-18T11:22:13.999Z</time></trkpt><trkpt lat="42.328902025464664" lon="13.977054964538894"><ele>201.75</ele><time>2026-04-18T11:22:14.999Z</time></trkpt><trkpt lat="42.328773168615555" lon="13.977135362850847"><ele>200.5</ele><time>2026-04-18T11:22:15.999Z</time></trkpt><trkpt lat="42.32863628733565" lon="13.977212107326162"><ele>199.25</ele><time>2026-04-18T11:22:16.999Z</time></trkpt><trkpt lat="42.32849821135328" lon="13.977281747088032"><ele>198.0</ele><time>2026-04-18T11:22:17.999Z</time></trkpt><trkpt lat="42.32835788222248" lon="13.977359490790771"><ele>198.0</ele><time>2026-04-18T11:22:18.999Z</time></trkpt><trkpt lat="42.328207410930766" lon="13.977449046907246"><ele>198.0</ele><time>2026-04-18T11:22:19.999Z</time></trkpt><trkpt lat="42.328052130519666" lon="13.977540375058183"><ele>198.0</ele><time>2026-04-18T11:22:20.999Z</time></trkpt><trkpt lat="42.32791006119206" lon="13.977622059334127"><ele>199.25</ele><time>2026-04-18T11:22:21.999Z</time></trkpt><trkpt lat="42.32777715225007" lon="13.977709901829183"><ele>200.5</ele><time>2026-04-18T11:22:22.999Z</time></trkpt><trkpt lat="42.327645145293786" lon="13.977791498384311"><ele>201.75</ele><time>2026-04-18T11:22:23.999Z</time></trkpt><trkpt lat="42.327516985829945" lon="13.977875426396723"><ele>203.0</ele><time>2026-04-18T11:22:24.999Z</time></trkpt><trkpt lat="42.327394280525326" lon="13.977948657963642"><ele>203.0</ele><time>2026-04-18T11:22:25.999Z</time></trkpt><trkpt lat="42.32726697069874" lon="13.978011246669583"><ele>203.0</ele><time>2026-04-18T11:22:26.999Z</time></trkpt><trkpt lat="42.327140615992235" lon="13.978052950861361"><ele>203.0</ele><time>2026-04-18T11:22:27.999Z</time></trkpt><trkpt lat="42.32701715100665" lon="13.97808844045351"><ele>203.0</ele><time>2026-04-18T11:22:28.999Z</time></trkpt><trkpt lat="42.3269056547414" lon="13.978122647393146"><ele>203.00000000000003</ele><time>2026-04-18T11:22:29.999Z</time></trkpt><trkpt lat="42.326809633678245" lon="13.978153801370286"><ele>203.0</ele><time>2026-04-18T11:22:30.999Z</time></trkpt><trkpt lat="42.326748567637246" lon="13.97819160495115"><ele>203.0</ele><time>2026-04-18T11:22:31.999Z</time></trkpt><trkpt lat="42.326728031450855" lon="13.978333673343752"><ele>203.0</ele><time>2026-04-18T11:22:33.999Z</time></trkpt><trkpt lat="42.32674853633148" lon="13.97841562950388"><ele>203.00000000000003</ele><time>2026-04-18T11:22:34.999Z</time></trkpt><trkpt lat="42.32679442733643" lon="13.978516136892697"><ele>203.0</ele><time>2026-04-18T11:22:35.999Z</time></trkpt><trkpt lat="42.32684947674866" lon="13.978631473522942"><ele>203.0</ele><time>2026-04-18T11:22:36.999Z</time></trkpt><trkpt lat="42.32690690376805" lon="13.978766737957828"><ele>203.0</ele><time>2026-04-18T11:22:37.999Z</time></trkpt><trkpt lat="42.326963401716434" lon="13.978912827308095"><ele>203.0</ele><time>2026-04-18T11:22:38.999Z</time></trkpt><trkpt lat="42.3270185217155" lon="13.979063728706226"><ele>203.0</ele><time>2026-04-18T11:22:39.999Z</time></trkpt><trkpt lat="42.327070584456145" lon="13.97921308528738"><ele>202.5</ele><time>2026-04-18T11:22:40.999Z</time></trkpt><trkpt lat="42.327117158749694" lon="13.979373734746138"><ele>202.0</ele><time>2026-04-18T11:22:41.999Z</time></trkpt><trkpt lat="42.327149086456224" lon="13.979539702283324"><ele>201.5</ele><time>2026-04-18T11:22:42.999Z</time></trkpt><trkpt lat="42.327160194742504" lon="13.97970284890259"><ele>201.0</ele><time>2026-04-18T11:22:43.999Z</time></trkpt><trkpt lat="42.327169304567995" lon="13.979860872939584"><ele>202.0</ele><time>2026-04-18T11:22:44.999Z</time></trkpt><trkpt lat="42.32717989872201" lon="13.980024101625075"><ele>203.0</ele><time>2026-04-18T11:22:45.999Z</time></trkpt><trkpt lat="42.327192859739604" lon="13.980190971527621"><ele>204.0</ele><time>2026-04-18T11:22:46.999Z</time></trkpt><trkpt lat="42.32720958619021" lon="13.980353434351386"><ele>205.0</ele><time>2026-04-18T11:22:47.999Z</time></trkpt><trkpt lat="42.327223085317854" lon="13.980500713263595"><ele>207.4</ele><time>2026-04-18T11:22:48.999Z</time></trkpt><trkpt lat="42.3272364697516" lon="13.980639817957307"><ele>209.8</ele><time>2026-04-18T11:22:49.999Z</time></trkpt><trkpt lat="42.32725148252986" lon="13.980769602340366"><ele>212.2</ele><time>2026-04-18T11:22:50.999Z</time></trkpt><trkpt lat="42.32726577472167" lon="13.980891925818979"><ele>214.6</ele><time>2026-04-18T11:22:51.999Z</time></trkpt><trkpt lat="42.327282575076055" lon="13.981004872250475"><ele>217.0</ele><time>2026-04-18T11:22:52.999Z</time></trkpt><trkpt lat="42.32731899693298" lon="13.981134016738132"><ele>218.5</ele><time>2026-04-18T11:22:53.999Z</time></trkpt><trkpt lat="42.327367796714775" lon="13.981292295586462"><ele>220.0</ele><time>2026-04-18T11:22:54.999Z</time></trkpt><trkpt lat="42.32742696831155" lon="13.981461664570054"><ele>221.5</ele><time>2026-04-18T11:22:55.999Z</time></trkpt><trkpt lat="42.327480136214724" lon="13.98162362786448"><ele>223.0</ele><time>2026-04-18T11:22:56.999Z</time></trkpt><trkpt lat="42.32752069005451" lon="13.981792525343225"><ele>224.75</ele><time>2026-04-18T11:22:57.999Z</time></trkpt><trkpt lat="42.327550741710844" lon="13.98197946994747"><ele>226.5</ele><time>2026-04-18T11:22:58.999Z</time></trkpt><trkpt lat="42.327584048736405" lon="13.982157011319343"><ele>228.25</ele><time>2026-04-18T11:22:59.999Z</time></trkpt><trkpt lat="42.327614433350675" lon="13.982331153248833"><ele>230.0</ele><time>2026-04-18T11:23:00.999Z</time></trkpt><trkpt lat="42.327639561488205" lon="13.982478893247288"><ele>231.83333333333334</ele><time>2026-04-18T11:23:01.999Z</time></trkpt><trkpt lat="42.32766922149799" lon="13.982605438074735"><ele>233.66666666666669</ele><time>2026-04-18T11:23:02.999Z</time></trkpt><trkpt lat="42.3276835144555" lon="13.982712318671942"><ele>235.5</ele><time>2026-04-18T11:23:03.999Z</time></trkpt><trkpt lat="42.32768118381297" lon="13.98281046379532"><ele>237.33333333333331</ele><time>2026-04-18T11:23:04.999Z</time></trkpt><trkpt lat="42.327630565232155" lon="13.982902565593958"><ele>239.16666666666666</ele><time>2026-04-18T11:23:09.999Z</time></trkpt><trkpt lat="42.327596554920504" lon="13.983015212645611"><ele>241.0</ele><time>2026-04-18T11:23:11.999Z</time></trkpt><trkpt lat="42.32755490197736" lon="13.983098246777972"><ele>241.0</ele><time>2026-04-18T11:23:19.999Z</time></trkpt><trkpt lat="42.327523438341466" lon="13.983189027725453"><ele>241.00000000000003</ele><time>2026-04-18T11:23:20.999Z</time></trkpt><trkpt lat="42.327502179344364" lon="13.983301574215844"><ele>241.00000000000003</ele><time>2026-04-18T11:23:21.999Z</time></trkpt><trkpt lat="42.32747932750514" lon="13.983432883309646"><ele>241.0</ele><time>2026-04-18T11:23:22.999Z</time></trkpt><trkpt lat="42.32745750706391" lon="13.983576422114059"><ele>241.0</ele><time>2026-04-18T11:23:23.999Z</time></trkpt><trkpt lat="42.32742738345676" lon="13.983719805006697"><ele>243.5</ele><time>2026-04-18T11:23:24.999Z</time></trkpt><trkpt lat="42.32739822124868" lon="13.983878305586837"><ele>246.0</ele><time>2026-04-18T11:23:25.999Z</time></trkpt><trkpt lat="42.32736531802276" lon="13.984042105658121"><ele>248.5</ele><time>2026-04-18T11:23:26.999Z</time></trkpt><trkpt lat="42.3273266648878" lon="13.984204965457703"><ele>251.0</ele><time>2026-04-18T11:23:27.999Z</time></trkpt><trkpt lat="42.32728867751204" lon="13.984355227030825"><ele>251.0</ele><time>2026-04-18T11:23:28.999Z</time></trkpt><trkpt lat="42.32726727100801" lon="13.984449275096612"><ele>251.00000000000003</ele><time>2026-04-18T11:23:29.999Z</time></trkpt><trkpt lat="42.32725366663331" lon="13.984603961958067"><ele>251.00000000000003</ele><time>2026-04-18T11:23:31.999Z</time></trkpt><trkpt lat="42.32727244084862" lon="13.984711374979906"><ele>251.0</ele><time>2026-04-18T11:23:32.999Z</time></trkpt><trkpt lat="42.327282707176465" lon="13.984843465698365"><ele>251.0</ele><time>2026-04-18T11:23:33.999Z</time></trkpt><trkpt lat="42.327293216298706" lon="13.984973582570554"><ele>249.33333333333334</ele><time>2026-04-18T11:23:34.999Z</time></trkpt><trkpt lat="42.327305466756556" lon="13.985097856029624"><ele>247.66666666666669</ele><time>2026-04-18T11:23:35.999Z</time></trkpt><trkpt lat="42.32732008486269" lon="13.985222169547365"><ele>246.0</ele><time>2026-04-18T11:23:36.999Z</time></trkpt><trkpt lat="42.32733801498096" lon="13.985335803434685"><ele>244.33333333333331</ele><time>2026-04-18T11:23:37.999Z</time></trkpt><trkpt lat="42.32735830750643" lon="13.985418536030123"><ele>242.66666666666666</ele><time>2026-04-18T11:23:38.998Z</time></trkpt><trkpt lat="42.32739162919928" lon="13.985507864028712"><ele>241.0</ele><time>2026-04-18T11:23:39.998Z</time></trkpt><trkpt lat="42.32743511152458" lon="13.985600535968628"><ele>240.99999999999997</ele><time>2026-04-18T11:23:40.998Z</time></trkpt><trkpt lat="42.327476731534475" lon="13.985694454908367"><ele>241.0</ele><time>2026-04-18T11:23:41.998Z</time></trkpt><trkpt lat="42.32750364160721" lon="13.985792817554515"><ele>241.0</ele><time>2026-04-18T11:23:42.998Z</time></trkpt><trkpt lat="42.32754287532849" lon="13.985898982472605"><ele>241.0</ele><time>2026-04-18T11:23:43.998Z</time></trkpt><trkpt lat="42.327589272530716" lon="13.985999477011276"><ele>240.99999999999997</ele><time>2026-04-18T11:23:44.998Z</time></trkpt><trkpt lat="42.32763077396512" lon="13.986098562490254"><ele>241.0</ele><time>2026-04-18T11:23:45.998Z</time></trkpt><trkpt lat="42.32767016770885" lon="13.986197554213646"><ele>239.49999999999997</ele><time>2026-04-18T11:23:47Z</time></trkpt><trkpt lat="42.3277158341926" lon="13.986287886524291"><ele>238.0</ele><time>2026-04-18T11:23:48Z</time></trkpt><trkpt lat="42.327771748120334" lon="13.986383717233904"><ele>236.5</ele><time>2026-04-18T11:23:49Z</time></trkpt><trkpt lat="42.327838916765096" lon="13.986482602002873"><ele>235.0</ele><time>2026-04-18T11:23:50Z</time></trkpt><trkpt lat="42.327899231840625" lon="13.986578137229026"><ele>233.49999999999997</ele><time>2026-04-18T11:23:51Z</time></trkpt><trkpt lat="42.32795014313478" lon="13.986671141747731"><ele>232.0</ele><time>2026-04-18T11:23:52Z</time></trkpt><trkpt lat="42.32798459271892" lon="13.986769762553507"><ele>232.49999999999997</ele><time>2026-04-18T11:23:53Z</time></trkpt><trkpt lat="42.32801381258556" lon="13.98685925561804"><ele>233.0</ele><time>2026-04-18T11:23:54Z</time></trkpt><trkpt lat="42.32806082473267" lon="13.986953828366513"><ele>233.5</ele><time>2026-04-18T11:23:55Z</time></trkpt><trkpt lat="42.328116998473824" lon="13.98702840484758"><ele>234.0</ele><time>2026-04-18T11:23:56Z</time></trkpt><trkpt lat="42.32818192713196" lon="13.987104713343024"><ele>234.49999999999997</ele><time>2026-04-18T11:23:57Z</time></trkpt><trkpt lat="42.328257032312216" lon="13.987185242401416"><ele>235.0</ele><time>2026-04-18T11:23:58Z</time></trkpt><trkpt lat="42.32833072991893" lon="13.987275017180135"><ele>234.99999999999997</ele><time>2026-04-18T11:23:59Z</time></trkpt><trkpt lat="42.32839525088562" lon="13.987337867934047"><ele>235.0</ele><time>2026-04-18T11:24:00Z</time></trkpt><trkpt lat="42.3284521377711" lon="13.987403095605663"><ele>235.0</ele><time>2026-04-18T11:24:01Z</time></trkpt><trkpt lat="42.32848566625792" lon="13.987481316760745"><ele>235.0</ele><time>2026-04-18T11:24:02Z</time></trkpt><trkpt lat="42.32851391201345" lon="13.98763216514628"><ele>234.99999999999997</ele><time>2026-04-18T11:24:04Z</time></trkpt><trkpt lat="42.32853076076202" lon="13.987741701080987"><ele>235.0</ele><time>2026-04-18T11:24:05Z</time></trkpt><trkpt lat="42.328550325268395" lon="13.987838771000485"><ele>234.0</ele><time>2026-04-18T11:24:06Z</time></trkpt><trkpt lat="42.32858289408343" lon="13.987942072706991"><ele>232.99999999999997</ele><time>2026-04-18T11:24:07Z</time></trkpt><trkpt lat="42.32861866506577" lon="13.988035664710779"><ele>232.0</ele><time>2026-04-18T11:24:07.999Z</time></trkpt><trkpt lat="42.328648106758436" lon="13.988111576530653"><ele>231.0</ele><time>2026-04-18T11:24:08.999Z</time></trkpt><trkpt lat="42.328685438145335" lon="13.988185983980241"><ele>229.99999999999997</ele><time>2026-04-18T11:24:09.999Z</time></trkpt><trkpt lat="42.32873146682926" lon="13.988258468575008"><ele>229.0</ele><time>2026-04-18T11:24:10.999Z</time></trkpt><trkpt lat="42.32879515986257" lon="13.988337178656277"><ele>228.0</ele><time>2026-04-18T11:24:11.999Z</time></trkpt><trkpt lat="42.32884883049828" lon="13.988435191780935"><ele>229.5</ele><time>2026-04-18T11:24:12.999Z</time></trkpt><trkpt lat="42.32889882234867" lon="13.988559970836121"><ele>231.0</ele><time>2026-04-18T11:24:13.999Z</time></trkpt><trkpt lat="42.328951161240546" lon="13.988707558791264"><ele>232.5</ele><time>2026-04-18T11:24:14.999Z</time></trkpt><trkpt lat="42.329007497194596" lon="13.988861095491837"><ele>234.0</ele><time>2026-04-18T11:24:15.999Z</time></trkpt><trkpt lat="42.32905710573306" lon="13.988997404273809"><ele>234.0</ele><time>2026-04-18T11:24:16.999Z</time></trkpt><trkpt lat="42.32910702374348" lon="13.98913862328735"><ele>234.0</ele><time>2026-04-18T11:24:17.999Z</time></trkpt><trkpt lat="42.32916277055102" lon="13.989278328720093"><ele>234.0</ele><time>2026-04-18T11:24:18.999Z</time></trkpt><trkpt lat="42.32922418409814" lon="13.98941773873134"><ele>234.0</ele><time>2026-04-18T11:24:19.999Z</time></trkpt><trkpt lat="42.3292954132846" lon="13.98955694086625"><ele>232.5</ele><time>2026-04-18T11:24:20.999Z</time></trkpt><trkpt lat="42.329360183806635" lon="13.989715884446314"><ele>231.0</ele><time>2026-04-18T11:24:21.999Z</time></trkpt><trkpt lat="42.329428325138245" lon="13.989916732057708"><ele>229.5</ele><time>2026-04-18T11:24:22.999Z</time></trkpt><trkpt lat="42.32948781224177" lon="13.990077437300783"><ele>228.0</ele><time>2026-04-18T11:24:23.999Z</time></trkpt><trkpt lat="42.32955494282507" lon="13.99021905134183"><ele>226.5</ele><time>2026-04-18T11:24:24.999Z</time></trkpt><trkpt lat="42.329615573808596" lon="13.990366408241131"><ele>225.0</ele><time>2026-04-18T11:24:25.999Z</time></trkpt><trkpt lat="42.32968213065661" lon="13.99053968454052"><ele>223.5</ele><time>2026-04-18T11:24:26.999Z</time></trkpt><trkpt lat="42.32973094788972" lon="13.990691022654747"><ele>222.0</ele><time>2026-04-18T11:24:27.999Z</time></trkpt><trkpt lat="42.329774810817575" lon="13.99081365932072"><ele>224.16666666666666</ele><time>2026-04-18T11:24:28.999Z</time></trkpt><trkpt lat="42.329812774128115" lon="13.99090266498673"><ele>226.33333333333331</ele><time>2026-04-18T11:24:29.999Z</time></trkpt><trkpt lat="42.32983748583076" lon="13.99098666021233"><ele>228.5</ele><time>2026-04-18T11:24:30.999Z</time></trkpt><trkpt lat="42.32988052126374" lon="13.991058960068147"><ele>230.66666666666666</ele><time>2026-04-18T11:24:31.999Z</time></trkpt><trkpt lat="42.329942265665345" lon="13.991132075278022"><ele>232.83333333333331</ele><time>2026-04-18T11:24:32.999Z</time></trkpt><trkpt lat="42.33002176697979" lon="13.991219657844601"><ele>235.0</ele><time>2026-04-18T11:24:33.999Z</time></trkpt><trkpt lat="42.330106916102444" lon="13.991363265476613"><ele>235.0</ele><time>2026-04-18T11:24:34.999Z</time></trkpt><trkpt lat="42.3301977491856" lon="13.991552732276867"><ele>235.0</ele><time>2026-04-18T11:24:35.999Z</time></trkpt><trkpt lat="42.33028111586763" lon="13.991736352681551"><ele>235.0</ele><time>2026-04-18T11:24:36.999Z</time></trkpt><trkpt lat="42.3303551634495" lon="13.991882306230995"><ele>234.25</ele><time>2026-04-18T11:24:37.999Z</time></trkpt><trkpt lat="42.33042811976627" lon="13.991987483586497"><ele>233.5</ele><time>2026-04-18T11:24:38.999Z</time></trkpt><trkpt lat="42.33051756987815" lon="13.992075283296233"><ele>232.75</ele><time>2026-04-18T11:24:39.999Z</time></trkpt><trkpt lat="42.33062224827898" lon="13.992149857136805"><ele>232.0</ele><time>2026-04-18T11:24:40.999Z</time></trkpt><trkpt lat="42.33073060587088" lon="13.992215239991248"><ele>233.66666666666666</ele><time>2026-04-18T11:24:41.999Z</time></trkpt><trkpt lat="42.33081943949582" lon="13.992271499684298"><ele>235.33333333333331</ele><time>2026-04-18T11:24:42.999Z</time></trkpt><trkpt lat="42.33089116733767" lon="13.992314590903753"><ele>237.0</ele><time>2026-04-18T11:24:43.999Z</time></trkpt><trkpt lat="42.33097116670597" lon="13.992378292431338"><ele>238.66666666666669</ele><time>2026-04-18T11:24:45.999Z</time></trkpt><trkpt lat="42.33100477626429" lon="13.992459988664397"><ele>240.33333333333334</ele><time>2026-04-18T11:24:50.999Z</time></trkpt><trkpt lat="42.331030397708886" lon="13.992566723099939"><ele>242.0</ele><time>2026-04-18T11:24:51.999Z</time></trkpt><trkpt lat="42.33104222245748" lon="13.99270420623921"><ele>242.0</ele><time>2026-04-18T11:24:52.999Z</time></trkpt><trkpt lat="42.33106267581109" lon="13.992845224398607"><ele>242.0</ele><time>2026-04-18T11:24:53.999Z</time></trkpt><trkpt lat="42.33109163362191" lon="13.992949985067476"><ele>242.0</ele><time>2026-04-18T11:24:54.999Z</time></trkpt><trkpt lat="42.331175144105515" lon="13.993031813321231"><ele>242.0</ele><time>2026-04-18T11:24:56.999Z</time></trkpt><trkpt lat="42.331253831603995" lon="13.993018104068048"><ele>242.0</ele><time>2026-04-18T11:24:57.999Z</time></trkpt><trkpt lat="42.33135812928066" lon="13.992952899135844"><ele>242.0</ele><time>2026-04-18T11:24:58.999Z</time></trkpt><trkpt lat="42.331487019104465" lon="13.992882589860166"><ele>242.0</ele><time>2026-04-18T11:24:59.999Z</time></trkpt><trkpt lat="42.331643465741706" lon="13.992831099590846"><ele>242.0</ele><time>2026-04-18T11:25:00.999Z</time></trkpt><trkpt lat="42.331809025242215" lon="13.992820149656385"><ele>242.0</ele><time>2026-04-18T11:25:01.999Z</time></trkpt><trkpt lat="42.33196805840595" lon="13.992820188150825"><ele>242.0</ele><time>2026-04-18T11:25:02.999Z</time></trkpt><trkpt lat="42.33210062139252" lon="13.992865685233147"><ele>242.0</ele><time>2026-04-18T11:25:03.999Z</time></trkpt><trkpt lat="42.332304634320295" lon="13.992894263440407"><ele>239.33333333333334</ele><time>2026-04-18T11:25:04.999Z</time></trkpt><trkpt lat="42.33249834308569" lon="13.992934145231397"><ele>236.66666666666669</ele><time>2026-04-18T11:25:05.999Z</time></trkpt><trkpt lat="42.33268281977758" lon="13.992925903446206"><ele>234.0</ele><time>2026-04-18T11:25:06.999Z</time></trkpt><trkpt lat="42.33285023053215" lon="13.99289285504771"><ele>234.0</ele><time>2026-04-18T11:25:07.999Z</time></trkpt><trkpt lat="42.33301289530657" lon="13.992835730201692"><ele>234.0</ele><time>2026-04-18T11:25:08.999Z</time></trkpt><trkpt lat="42.33316471303206" lon="13.992784251487949"><ele>234.0</ele><time>2026-04-18T11:25:09.999Z</time></trkpt><trkpt lat="42.33330885566622" lon="13.992744695845087"><ele>233.33333333333331</ele><time>2026-04-18T11:25:10.999Z</time></trkpt><trkpt lat="42.33346447611657" lon="13.992729883123546"><ele>232.66666666666666</ele><time>2026-04-18T11:25:11.999Z</time></trkpt><trkpt lat="42.333615737311774" lon="13.992739270111834"><ele>232.0</ele><time>2026-04-18T11:25:12.999Z</time></trkpt><trkpt lat="42.33376732273806" lon="13.992774743443174"><ele>232.5</ele><time>2026-04-18T11:25:13.999Z</time></trkpt><trkpt lat="42.3339120527091" lon="13.992827416608085"><ele>233.0</ele><time>2026-04-18T11:25:14.999Z</time></trkpt><trkpt lat="42.3340494980868" lon="13.992872703421067"><ele>233.5</ele><time>2026-04-18T11:25:15.999Z</time></trkpt><trkpt lat="42.334185469223705" lon="13.992907123407116"><ele>234.0</ele><time>2026-04-18T11:25:16.999Z</time></trkpt><trkpt lat="42.334297909341" lon="13.992925148246623"><ele>234.0</ele><time>2026-04-18T11:25:17.999Z</time></trkpt><trkpt lat="42.334393866763136" lon="13.992943625890883"><ele>234.0</ele><time>2026-04-18T11:25:18.999Z</time></trkpt><trkpt lat="42.33447691996024" lon="13.992991366509564"><ele>234.0</ele><time>2026-04-18T11:25:19.999Z</time></trkpt><trkpt lat="42.334531322682" lon="13.99307910726461"><ele>234.0</ele><time>2026-04-18T11:25:20.999Z</time></trkpt><trkpt lat="42.33458480274036" lon="13.993179608411083"><ele>234.0</ele><time>2026-04-18T11:25:21.999Z</time></trkpt><trkpt lat="42.33465473643559" lon="13.993228021547058"><ele>234.0</ele><time>2026-04-18T11:25:22.999Z</time></trkpt><trkpt lat="42.33472459477215" lon="13.993262224492677"><ele>235.0</ele><time>2026-04-18T11:25:23.999Z</time></trkpt><trkpt lat="42.334788821371305" lon="13.993223727772355"><ele>236.0</ele><time>2026-04-18T11:25:24.999Z</time></trkpt><trkpt lat="42.33486412952202" lon="13.99313426425513"><ele>237.0</ele><time>2026-04-18T11:25:25.999Z</time></trkpt><trkpt lat="42.33494577298789" lon="13.993083265442225"><ele>238.0</ele><time>2026-04-18T11:25:26.999Z</time></trkpt><trkpt lat="42.33502967628143" lon="13.993070195117067"><ele>239.0</ele><time>2026-04-18T11:25:27.999Z</time></trkpt><trkpt lat="42.33511722349079" lon="13.993067320911567"><ele>240.0</ele><time>2026-04-18T11:25:28.999Z</time></trkpt><trkpt lat="42.33521555903731" lon="13.9930711209013"><ele>240.0</ele><time>2026-04-18T11:25:29.999Z</time></trkpt><trkpt lat="42.3353510938988" lon="13.993079005315359"><ele>240.0</ele><time>2026-04-18T11:25:30.999Z</time></trkpt><trkpt lat="42.335484000037326" lon="13.993092099309617"><ele>240.0</ele><time>2026-04-18T11:25:31.999Z</time></trkpt><trkpt lat="42.33560856307859" lon="13.993111808357684"><ele>240.0</ele><time>2026-04-18T11:25:32.999Z</time></trkpt><trkpt lat="42.335728326034186" lon="13.993139296283239"><ele>242.0</ele><time>2026-04-18T11:25:33.999Z</time></trkpt><trkpt lat="42.33584706307808" lon="13.993148859817625"><ele>244.0</ele><time>2026-04-18T11:25:34.999Z</time></trkpt><trkpt lat="42.335973029302885" lon="13.993168151755365"><ele>246.0</ele><time>2026-04-18T11:25:35.999Z</time></trkpt><trkpt lat="42.336102992221136" lon="13.993192309023438"><ele>248.0</ele><time>2026-04-18T11:25:36.999Z</time></trkpt><trkpt lat="42.336235028437414" lon="13.993216836533604"><ele>248.0</ele><time>2026-04-18T11:25:37.999Z</time></trkpt><trkpt lat="42.33637535179947" lon="13.99324723425104"><ele>248.0</ele><time>2026-04-18T11:25:38.999Z</time></trkpt><trkpt lat="42.336521076163365" lon="13.993288303406864"><ele>248.0</ele><time>2026-04-18T11:25:39.999Z</time></trkpt><trkpt lat="42.33666257612833" lon="13.993326258987544"><ele>248.0</ele><time>2026-04-18T11:25:40.999Z</time></trkpt><trkpt lat="42.336797056388" lon="13.993360412418001"><ele>248.25</ele><time>2026-04-18T11:25:41.999Z</time></trkpt><trkpt lat="42.33692259430933" lon="13.99339339192099"><ele>248.5</ele><time>2026-04-18T11:25:42.999Z</time></trkpt><trkpt lat="42.337075494056464" lon="13.993415671390819"><ele>248.75</ele><time>2026-04-18T11:25:43.999Z</time></trkpt><trkpt lat="42.337200778250704" lon="13.993445279987"><ele>249.0</ele><time>2026-04-18T11:25:44.998Z</time></trkpt><trkpt lat="42.337330649803" lon="13.993476836241973"><ele>250.5</ele><time>2026-04-18T11:25:45.998Z</time></trkpt><trkpt lat="42.33745905228318" lon="13.993510921827799"><ele>252.0</ele><time>2026-04-18T11:25:46.998Z</time></trkpt><trkpt lat="42.337589469220255" lon="13.99353984017494"><ele>253.5</ele><time>2026-04-18T11:25:47.998Z</time></trkpt><trkpt lat="42.33771917429237" lon="13.993573435412854"><ele>255.0</ele><time>2026-04-18T11:25:48.998Z</time></trkpt><trkpt lat="42.3378331891778" lon="13.993609316897459"><ele>255.0</ele><time>2026-04-18T11:25:49.998Z</time></trkpt><trkpt lat="42.33795155351498" lon="13.993625429107414"><ele>255.0</ele><time>2026-04-18T11:25:50.998Z</time></trkpt><trkpt lat="42.33805331476479" lon="13.993640410111903"><ele>255.0</ele><time>2026-04-18T11:25:51.998Z</time></trkpt><trkpt lat="42.3381649571359" lon="13.99366693326409"><ele>255.0</ele><time>2026-04-18T11:25:53Z</time></trkpt><trkpt lat="42.33827882024031" lon="13.993715161486255"><ele>255.66666666666669</ele><time>2026-04-18T11:25:54Z</time></trkpt><trkpt lat="42.338404483451924" lon="13.993789523174296"><ele>256.33333333333337</ele><time>2026-04-18T11:25:55Z</time></trkpt><trkpt lat="42.338557064274156" lon="13.993872371096938"><ele>257.0</ele><time>2026-04-18T11:25:56Z</time></trkpt><trkpt lat="42.33870433261823" lon="13.993936890648998"><ele>257.0</ele><time>2026-04-18T11:25:57Z</time></trkpt><trkpt lat="42.338847138916634" lon="13.993999028056471"><ele>257.0</ele><time>2026-04-18T11:25:58Z</time></trkpt><trkpt lat="42.338975702909146" lon="13.994066299170335"><ele>257.0</ele><time>2026-04-18T11:25:59Z</time></trkpt><trkpt lat="42.33909550371289" lon="13.994129545913403"><ele>257.0</ele><time>2026-04-18T11:26:00Z</time></trkpt><trkpt lat="42.33921093110959" lon="13.99419058854978"><ele>257.0</ele><time>2026-04-18T11:26:01Z</time></trkpt><trkpt lat="42.339328548242136" lon="13.994264336487527"><ele>257.0</ele><time>2026-04-18T11:26:02Z</time></trkpt><trkpt lat="42.33944473399246" lon="13.99437663960594"><ele>257.0</ele><time>2026-04-18T11:26:03Z</time></trkpt><trkpt lat="42.339549430755355" lon="13.994523670187816"><ele>257.0</ele><time>2026-04-18T11:26:04Z</time></trkpt><trkpt lat="42.33964096974076" lon="13.99468660409727"><ele>256.25</ele><time>2026-04-18T11:26:05Z</time></trkpt><trkpt lat="42.33972251376434" lon="13.994849999847986"><ele>255.5</ele><time>2026-04-18T11:26:06Z</time></trkpt><trkpt lat="42.339811435828544" lon="13.995005145493668"><ele>254.75</ele><time>2026-04-18T11:26:07Z</time></trkpt><trkpt lat="42.33990550877164" lon="13.995154530031469"><ele>254.0</ele><time>2026-04-18T11:26:08Z</time></trkpt><trkpt lat="42.3399917734451" lon="13.99530007655909"><ele>254.0</ele><time>2026-04-18T11:26:09Z</time></trkpt><trkpt lat="42.34007560347523" lon="13.995434327907159"><ele>254.0</ele><time>2026-04-18T11:26:10Z</time></trkpt><trkpt lat="42.34015321287356" lon="13.995568340289703"><ele>254.0</ele><time>2026-04-18T11:26:11Z</time></trkpt><trkpt lat="42.34022157651356" lon="13.995690424465279"><ele>254.0</ele><time>2026-04-18T11:26:12Z</time></trkpt><trkpt lat="42.340290531397166" lon="13.995807077071264"><ele>253.79999999999998</ele><time>2026-04-18T11:26:13Z</time></trkpt><trkpt lat="42.3403582400289" lon="13.995919654045506"><ele>253.59999999999997</ele><time>2026-04-18T11:26:13.999Z</time></trkpt><trkpt lat="42.340422506589086" lon="13.996031165575042"><ele>253.4</ele><time>2026-04-18T11:26:14.999Z</time></trkpt><trkpt lat="42.34048514134346" lon="13.996133927038969"><ele>253.2</ele><time>2026-04-18T11:26:15.999Z</time></trkpt><trkpt lat="42.340544401488216" lon="13.996230146296769"><ele>253.0</ele><time>2026-04-18T11:26:16.999Z</time></trkpt><trkpt lat="42.34059490526578" lon="13.996321141039314"><ele>252.49999999999997</ele><time>2026-04-18T11:26:17.999Z</time></trkpt><trkpt lat="42.34064667889905" lon="13.996412850132335"><ele>252.0</ele><time>2026-04-18T11:26:18.999Z</time></trkpt><trkpt lat="42.340695745906146" lon="13.996502227608508"><ele>251.5</ele><time>2026-04-18T11:26:19.999Z</time></trkpt><trkpt lat="42.340742757989" lon="13.996585915747476"><ele>251.0</ele><time>2026-04-18T11:26:20.999Z</time></trkpt><trkpt lat="42.34078657860266" lon="13.996660475498286"><ele>250.49999999999997</ele><time>2026-04-18T11:26:21.999Z</time></trkpt><trkpt lat="42.3408637318709" lon="13.996790501504147"><ele>250.0</ele><time>2026-04-18T11:26:23.999Z</time></trkpt><trkpt lat="42.34090569744016" lon="13.996862238645475"><ele>249.75</ele><time>2026-04-18T11:26:24.999Z</time></trkpt><trkpt lat="42.34095954032732" lon="13.996956077446363"><ele>249.5</ele><time>2026-04-18T11:26:25.999Z</time></trkpt><trkpt lat="42.341026368348196" lon="13.997067150926075"><ele>249.25</ele><time>2026-04-18T11:26:26.999Z</time></trkpt><trkpt lat="42.34110679333807" lon="13.997200514795448"><ele>249.0</ele><time>2026-04-18T11:26:27.999Z</time></trkpt><trkpt lat="42.34119260169212" lon="13.99734195218595"><ele>249.0</ele><time>2026-04-18T11:26:28.999Z</time></trkpt><trkpt lat="42.341287675404075" lon="13.997497677110848"><ele>249.0</ele><time>2026-04-18T11:26:29.999Z</time></trkpt><trkpt lat="42.34138213894409" lon="13.99765553371639"><ele>249.0</ele><time>2026-04-18T11:26:30.999Z</time></trkpt><trkpt lat="42.34147896858909" lon="13.997817250820885"><ele>246.66666666666669</ele><time>2026-04-18T11:26:31.999Z</time></trkpt><trkpt lat="42.34157889684621" lon="13.997990284158348"><ele>244.33333333333334</ele><time>2026-04-18T11:26:32.999Z</time></trkpt><trkpt lat="42.34168609118999" lon="13.99817034554099"><ele>242.0</ele><time>2026-04-18T11:26:33.999Z</time></trkpt><trkpt lat="42.34179328849057" lon="13.998349661103298"><ele>241.66666666666669</ele><time>2026-04-18T11:26:34.999Z</time></trkpt><trkpt lat="42.34191090358876" lon="13.998535737340033"><ele>241.33333333333331</ele><time>2026-04-18T11:26:35.999Z</time></trkpt><trkpt lat="42.342037272311885" lon="13.998748097556618"><ele>241.0</ele><time>2026-04-18T11:26:36.999Z</time></trkpt><trkpt lat="42.342185411908844" lon="13.998995637411593"><ele>240.5</ele><time>2026-04-18T11:26:37.999Z</time></trkpt><trkpt lat="42.34234155068789" lon="13.999249652482622"><ele>240.0</ele><time>2026-04-18T11:26:38.999Z</time></trkpt><trkpt lat="42.34250020019761" lon="13.999511523041882"><ele>240.0</ele><time>2026-04-18T11:26:39.999Z</time></trkpt><trkpt lat="42.34264822461253" lon="13.99976147482299"><ele>240.0</ele><time>2026-04-18T11:26:40.999Z</time></trkpt><trkpt lat="42.34279065922079" lon="14.000006588023407"><ele>240.0</ele><time>2026-04-18T11:26:41.999Z</time></trkpt><trkpt lat="42.34293630942269" lon="14.000256153711627"><ele>240.0</ele><time>2026-04-18T11:26:42.999Z</time></trkpt><trkpt lat="42.34307771345884" lon="14.000497632412443"><ele>240.66666666666669</ele><time>2026-04-18T11:26:43.999Z</time></trkpt><trkpt lat="42.34321384448265" lon="14.000726684943851"><ele>241.33333333333334</ele><time>2026-04-18T11:26:44.999Z</time></trkpt><trkpt lat="42.34334666949349" lon="14.000946716171322"><ele>242.0</ele><time>2026-04-18T11:26:45.999Z</time></trkpt><trkpt lat="42.34347780714249" lon="14.001159553206953"><ele>240.66666666666669</ele><time>2026-04-18T11:26:46.999Z</time></trkpt><trkpt lat="42.34360403724982" lon="14.001363634538116"><ele>239.33333333333331</ele><time>2026-04-18T11:26:47.999Z</time></trkpt><trkpt lat="42.34372514610496" lon="14.001568983926234"><ele>238.0</ele><time>2026-04-18T11:26:48.999Z</time></trkpt><trkpt lat="42.343844097668615" lon="14.001772488451627"><ele>237.66666666666666</ele><time>2026-04-18T11:26:49.999Z</time></trkpt><trkpt lat="42.34396330781066" lon="14.001967862993714"><ele>237.33333333333331</ele><time>2026-04-18T11:26:50.999Z</time></trkpt><trkpt lat="42.34407958839819" lon="14.00216621371826"><ele>237.0</ele><time>2026-04-18T11:26:51.999Z</time></trkpt><trkpt lat="42.34419385410201" lon="14.002364654734572"><ele>235.33333333333331</ele><time>2026-04-18T11:26:52.999Z</time></trkpt><trkpt lat="42.34431274959848" lon="14.002563584837352"><ele>233.66666666666666</ele><time>2026-04-18T11:26:53.999Z</time></trkpt><trkpt lat="42.344435430628" lon="14.002763923523236"><ele>232.0</ele><time>2026-04-18T11:26:54.999Z</time></trkpt><trkpt lat="42.344541458146516" lon="14.002973984833377"><ele>232.0</ele><time>2026-04-18T11:26:55.999Z</time></trkpt><trkpt lat="42.34465730305658" lon="14.003170922586436"><ele>232.0</ele><time>2026-04-18T11:26:56.999Z</time></trkpt><trkpt lat="42.34477928941792" lon="14.003374419822846"><ele>232.0</ele><time>2026-04-18T11:26:57.999Z</time></trkpt><trkpt lat="42.344897900364856" lon="14.003571653858828"><ele>231.33333333333331</ele><time>2026-04-18T11:26:58.999Z</time></trkpt><trkpt lat="42.34501781825077" lon="14.00377106964334"><ele>230.66666666666669</ele><time>2026-04-18T11:26:59.999Z</time></trkpt><trkpt lat="42.34513551623427" lon="14.003970121266118"><ele>230.0</ele><time>2026-04-18T11:27:00.999Z</time></trkpt><trkpt lat="42.345260441089025" lon="14.004181394926686"><ele>229.66666666666669</ele><time>2026-04-18T11:27:01.999Z</time></trkpt><trkpt lat="42.34538701886066" lon="14.004393338464672"><ele>229.33333333333331</ele><time>2026-04-18T11:27:02.999Z</time></trkpt><trkpt lat="42.345514968069466" lon="14.004606151270075"><ele>229.0</ele><time>2026-04-18T11:27:03.999Z</time></trkpt><trkpt lat="42.34564693340164" lon="14.004825643909598"><ele>228.0</ele><time>2026-04-18T11:27:04.999Z</time></trkpt><trkpt lat="42.34579070462628" lon="14.005067940089813"><ele>227.0</ele><time>2026-04-18T11:27:05.999Z</time></trkpt><trkpt lat="42.34594773708241" lon="14.00533373164884"><ele>227.0</ele><time>2026-04-18T11:27:06.999Z</time></trkpt><trkpt lat="42.34610769798239" lon="14.005604824889598"><ele>227.0</ele><time>2026-04-18T11:27:07.999Z</time></trkpt><trkpt lat="42.34625040263863" lon="14.005846688376622"><ele>226.0</ele><time>2026-04-18T11:27:08.999Z</time></trkpt><trkpt lat="42.346381468172765" lon="14.006068825256186"><ele>225.0</ele><time>2026-04-18T11:27:09.999Z</time></trkpt><trkpt lat="42.34650511936317" lon="14.006278395923921"><ele>224.0</ele><time>2026-04-18T11:27:10.999Z</time></trkpt><trkpt lat="42.346625140263434" lon="14.006481814059514"><ele>223.66666666666669</ele><time>2026-04-18T11:27:11.999Z</time></trkpt><trkpt lat="42.346741680690066" lon="14.006671543514953"><ele>223.33333333333331</ele><time>2026-04-18T11:27:12.999Z</time></trkpt><trkpt lat="42.346865412189764" lon="14.006840097899781"><ele>223.0</ele><time>2026-04-18T11:27:13.999Z</time></trkpt><trkpt lat="42.346956234302716" lon="14.007028111579123"><ele>223.0</ele><time>2026-04-18T11:27:14.999Z</time></trkpt><trkpt lat="42.347054515838344" lon="14.007193018274307"><ele>223.0</ele><time>2026-04-18T11:27:15.999Z</time></trkpt><trkpt lat="42.347150187132584" lon="14.007353545210275"><ele>223.0</ele><time>2026-04-18T11:27:16.999Z</time></trkpt><trkpt lat="42.3472475594362" lon="14.007495124657817"><ele>222.0</ele><time>2026-04-18T11:27:17.999Z</time></trkpt><trkpt lat="42.34733439135261" lon="14.00764501837212"><ele>221.0</ele><time>2026-04-18T11:27:18.999Z</time></trkpt><trkpt lat="42.347431105557646" lon="14.007798848800418"><ele>220.0</ele><time>2026-04-18T11:27:19.999Z</time></trkpt><trkpt lat="42.347528083999606" lon="14.007953891915816"><ele>219.0</ele><time>2026-04-18T11:27:20.999Z</time></trkpt><trkpt lat="42.34762827278436" lon="14.008114761767263"><ele>219.0</ele><time>2026-04-18T11:27:21.999Z</time></trkpt><trkpt lat="42.34773150454388" lon="14.008290287155598"><ele>219.0</ele><time>2026-04-18T11:27:22.999Z</time></trkpt><trkpt lat="42.34784094326663" lon="14.00848278489345"><ele>219.0</ele><time>2026-04-18T11:27:23.999Z</time></trkpt><trkpt lat="42.347958431365484" lon="14.008677126041782"><ele>218.66666666666669</ele><time>2026-04-18T11:27:24.999Z</time></trkpt><trkpt lat="42.34808060573751" lon="14.008878079127395"><ele>218.33333333333334</ele><time>2026-04-18T11:27:25.999Z</time></trkpt><trkpt lat="42.34820007324017" lon="14.009081291541602"><ele>218.0</ele><time>2026-04-18T11:27:26.999Z</time></trkpt><trkpt lat="42.34832161402165" lon="14.009283990707178"><ele>217.0</ele><time>2026-04-18T11:27:27.999Z</time></trkpt><trkpt lat="42.34846088513251" lon="14.009512960089099"><ele>216.0</ele><time>2026-04-18T11:27:28.999Z</time></trkpt><trkpt lat="42.34861684674963" lon="14.009767812092859"><ele>215.0</ele><time>2026-04-18T11:27:29.999Z</time></trkpt><trkpt lat="42.34877920381084" lon="14.010037976539014"><ele>214.0</ele><time>2026-04-18T11:27:30.999Z</time></trkpt><trkpt lat="42.34891997456485" lon="14.010280005115842"><ele>214.0</ele><time>2026-04-18T11:27:31.999Z</time></trkpt><trkpt lat="42.34904450754799" lon="14.010504892079435"><ele>214.0</ele><time>2026-04-18T11:27:32.999Z</time></trkpt><trkpt lat="42.34917545295047" lon="14.010720317534195"><ele>214.0</ele><time>2026-04-18T11:27:33.999Z</time></trkpt><trkpt lat="42.349308213223104" lon="14.010927956807494"><ele>214.0</ele><time>2026-04-18T11:27:34.999Z</time></trkpt><trkpt lat="42.34942778016416" lon="14.011123940764683"><ele>214.0</ele><time>2026-04-18T11:27:35.999Z</time></trkpt><trkpt lat="42.349539999291004" lon="14.011312381615634"><ele>214.0</ele><time>2026-04-18T11:27:36.999Z</time></trkpt><trkpt lat="42.349645137961176" lon="14.01148928279237"><ele>212.33333333333331</ele><time>2026-04-18T11:27:37.999Z</time></trkpt><trkpt lat="42.34974252964056" lon="14.011657645072413"><ele>210.66666666666669</ele><time>2026-04-18T11:27:38.999Z</time></trkpt><trkpt lat="42.34983707893916" lon="14.011824343658242"><ele>209.0</ele><time>2026-04-18T11:27:39.999Z</time></trkpt><trkpt lat="42.34993936365303" lon="14.012004040223145"><ele>209.0</ele><time>2026-04-18T11:27:40.999Z</time></trkpt><trkpt lat="42.350050680152215" lon="14.012196556003488"><ele>209.0</ele><time>2026-04-18T11:27:41.999Z</time></trkpt><trkpt lat="42.35016365702854" lon="14.012384140453594"><ele>209.0</ele><time>2026-04-18T11:27:42.999Z</time></trkpt><trkpt lat="42.35028000390129" lon="14.012572395869766"><ele>209.33333333333334</ele><time>2026-04-18T11:27:43.999Z</time></trkpt><trkpt lat="42.350393137690986" lon="14.012763690897124"><ele>209.66666666666669</ele><time>2026-04-18T11:27:44.999Z</time></trkpt><trkpt lat="42.35050676666064" lon="14.012954794081892"><ele>210.0</ele><time>2026-04-18T11:27:45.999Z</time></trkpt><trkpt lat="42.350628812097995" lon="14.013160938638118"><ele>209.0</ele><time>2026-04-18T11:27:46.999Z</time></trkpt><trkpt lat="42.35075865089386" lon="14.013385988420845"><ele>208.0</ele><time>2026-04-18T11:27:47.998Z</time></trkpt><trkpt lat="42.35088000529319" lon="14.013598532019707"><ele>207.0</ele><time>2026-04-18T11:27:48.998Z</time></trkpt><trkpt lat="42.3509943365326" lon="14.013788582927095"><ele>207.0</ele><time>2026-04-18T11:27:49.998Z</time></trkpt><trkpt lat="42.35110267805174" lon="14.013968833099575"><ele>207.0</ele><time>2026-04-18T11:27:50.998Z</time></trkpt><trkpt lat="42.351204381023244" lon="14.014148633132153"><ele>207.0</ele><time>2026-04-18T11:27:51.998Z</time></trkpt><trkpt lat="42.35130027303086" lon="14.01430388062869"><ele>205.0</ele><time>2026-04-18T11:27:52.998Z</time></trkpt><trkpt lat="42.351404413099736" lon="14.014423100497787"><ele>203.0</ele><time>2026-04-18T11:27:53.998Z</time></trkpt><trkpt lat="42.35153458882969" lon="14.014494363984081"><ele>201.0</ele><time>2026-04-18T11:27:54.998Z</time></trkpt><trkpt lat="42.351686631791125" lon="14.014515239580158"><ele>199.0</ele><time>2026-04-18T11:27:55.998Z</time></trkpt><trkpt lat="42.35185921479554" lon="14.014493942582291"><ele>199.0</ele><time>2026-04-18T11:27:56.998Z</time></trkpt><trkpt lat="42.35205545311564" lon="14.014453379453089"><ele>199.0</ele><time>2026-04-18T11:27:57.998Z</time></trkpt><trkpt lat="42.352251010880344" lon="14.014427782189697"><ele>199.0</ele><time>2026-04-18T11:27:58.999Z</time></trkpt><trkpt lat="42.35242320470205" lon="14.014416900670891"><ele>197.0</ele><time>2026-04-18T11:27:59.999Z</time></trkpt><trkpt lat="42.352568960559374" lon="14.014403410385626"><ele>195.0</ele><time>2026-04-18T11:28:00.999Z</time></trkpt><trkpt lat="42.35270147732267" lon="14.014406736575392"><ele>193.0</ele><time>2026-04-18T11:28:01.999Z</time></trkpt><trkpt lat="42.352840766759385" lon="14.01442214972237"><ele>191.0</ele><time>2026-04-18T11:28:02.999Z</time></trkpt><trkpt lat="42.35297281091558" lon="14.014513315657629"><ele>189.0</ele><time>2026-04-18T11:28:03.999Z</time></trkpt><trkpt lat="42.35307892675136" lon="14.014640540644717"><ele>187.0</ele><time>2026-04-18T11:28:04.999Z</time></trkpt><trkpt lat="42.3531679117576" lon="14.014830845010014"><ele>185.0</ele><time>2026-04-18T11:28:05.999Z</time></trkpt><trkpt lat="42.35327341295683" lon="14.015054692902677"><ele>183.66666666666666</ele><time>2026-04-18T11:28:06.999Z</time></trkpt><trkpt lat="42.35335558004232" lon="14.015243712341547"><ele>182.33333333333334</ele><time>2026-04-18T11:28:07.999Z</time></trkpt><trkpt lat="42.353437965194885" lon="14.015426255247405"><ele>181.0</ele><time>2026-04-18T11:28:08.999Z</time></trkpt><trkpt lat="42.3535185025642" lon="14.015607514178603"><ele>181.0</ele><time>2026-04-18T11:28:09.999Z</time></trkpt><trkpt lat="42.3536073265595" lon="14.015787711361938"><ele>181.0</ele><time>2026-04-18T11:28:10.999Z</time></trkpt><trkpt lat="42.35369154935999" lon="14.015975491025559"><ele>181.0</ele><time>2026-04-18T11:28:11.999Z</time></trkpt><trkpt lat="42.35377399337444" lon="14.01616126702908"><ele>180.0</ele><time>2026-04-18T11:28:12.999Z</time></trkpt><trkpt lat="42.353859314261044" lon="14.016341901202198"><ele>179.0</ele><time>2026-04-18T11:28:13.999Z</time></trkpt><trkpt lat="42.353936220074615" lon="14.01652435740765"><ele>178.0</ele><time>2026-04-18T11:28:14.999Z</time></trkpt><trkpt lat="42.35401381199896" lon="14.01670551263149"><ele>175.66666666666669</ele><time>2026-04-18T11:28:15.999Z</time></trkpt><trkpt lat="42.35409867328956" lon="14.016884382362775"><ele>173.33333333333334</ele><time>2026-04-18T11:28:16.999Z</time></trkpt><trkpt lat="42.35418661782325" lon="14.017063900438668"><ele>171.0</ele><time>2026-04-18T11:28:17.999Z</time></trkpt><trkpt lat="42.35427661948735" lon="14.017236494297014"><ele>171.0</ele><time>2026-04-18T11:28:18.999Z</time></trkpt><trkpt lat="42.35437331786148" lon="14.017384642039916"><ele>171.0</ele><time>2026-04-18T11:28:19.999Z</time></trkpt><trkpt lat="42.35448059885364" lon="14.01749287384897"><ele>171.0</ele><time>2026-04-18T11:28:20.999Z</time></trkpt><trkpt lat="42.35460830972385" lon="14.017582745727488"><ele>171.0</ele><time>2026-04-18T11:28:21.999Z</time></trkpt><trkpt lat="42.35471809126731" lon="14.017677323330512"><ele>169.5</ele><time>2026-04-18T11:28:22.999Z</time></trkpt><trkpt lat="42.35483185909634" lon="14.017746086806088"><ele>168.0</ele><time>2026-04-18T11:28:23.999Z</time></trkpt><trkpt lat="42.35494184044739" lon="14.017818077897664"><ele>166.5</ele><time>2026-04-18T11:28:24.999Z</time></trkpt><trkpt lat="42.355045395828974" lon="14.017849833482025"><ele>165.0</ele><time>2026-04-18T11:28:25.999Z</time></trkpt><trkpt lat="42.35513356390827" lon="14.01790466231719"><ele>165.0</ele><time>2026-04-18T11:28:26.999Z</time></trkpt><trkpt lat="42.35520342239022" lon="14.017979431917144"><ele>165.0</ele><time>2026-04-18T11:28:27.999Z</time></trkpt><trkpt lat="42.355251067931555" lon="14.01807889041008"><ele>165.0</ele><time>2026-04-18T11:28:28.999Z</time></trkpt><trkpt lat="42.35527850116356" lon="14.018210890052567"><ele>165.0</ele><time>2026-04-18T11:28:29.999Z</time></trkpt><trkpt lat="42.35527291436666" lon="14.018388235357014"><ele>165.0</ele><time>2026-04-18T11:28:30.999Z</time></trkpt><trkpt lat="42.355251307172914" lon="14.018601313828801"><ele>164.0</ele><time>2026-04-18T11:28:31.999Z</time></trkpt><trkpt lat="42.3552295764455" lon="14.018821529065926"><ele>163.0</ele><time>2026-04-18T11:28:32.999Z</time></trkpt><trkpt lat="42.35521060806471" lon="14.019033447811008"><ele>162.0</ele><time>2026-04-18T11:28:33.999Z</time></trkpt><trkpt lat="42.355194396970084" lon="14.019248112581446"><ele>161.0</ele><time>2026-04-18T11:28:34.999Z</time></trkpt><trkpt lat="42.35517462453867" lon="14.019477656669011"><ele>160.0</ele><time>2026-04-18T11:28:35.999Z</time></trkpt><trkpt lat="42.35515146795817" lon="14.019719270387284"><ele>159.0</ele><time>2026-04-18T11:28:36.999Z</time></trkpt><trkpt lat="42.355136638918204" lon="14.019959080568361"><ele>158.25</ele><time>2026-04-18T11:28:37.999Z</time></trkpt><trkpt lat="42.35512687770961" lon="14.020172016241606"><ele>157.5</ele><time>2026-04-18T11:28:38.999Z</time></trkpt><trkpt lat="42.355111395997774" lon="14.020370242955025"><ele>156.75</ele><time>2026-04-18T11:28:39.999Z</time></trkpt><trkpt lat="42.35509819673869" lon="14.020551724470872"><ele>156.0</ele><time>2026-04-18T11:28:40.999Z</time></trkpt><trkpt lat="42.35508637401223" lon="14.02073019377075"><ele>156.0</ele><time>2026-04-18T11:28:41.999Z</time></trkpt><trkpt lat="42.355074446182584" lon="14.0208976802986"><ele>156.0</ele><time>2026-04-18T11:28:42.999Z</time></trkpt><trkpt lat="42.355065690352305" lon="14.021057761026091"><ele>156.0</ele><time>2026-04-18T11:28:43.999Z</time></trkpt><trkpt lat="42.35505620923545" lon="14.021198625152467"><ele>156.0</ele><time>2026-04-18T11:28:44.999Z</time></trkpt><trkpt lat="42.355050169186136" lon="14.021307122946963"><ele>156.0</ele><time>2026-04-18T11:28:45.999Z</time></trkpt><trkpt lat="42.3550448835552" lon="14.021407069674463"><ele>156.0</ele><time>2026-04-18T11:28:46.999Z</time></trkpt><trkpt lat="42.35503175505568" lon="14.021555016809767"><ele>156.0</ele><time>2026-04-18T11:28:48.999Z</time></trkpt><trkpt lat="42.35500208088282" lon="14.021689875061766"><ele>156.0</ele><time>2026-04-18T11:28:50.999Z</time></trkpt><trkpt lat="42.35499499442101" lon="14.021787779049143"><ele>156.0</ele><time>2026-04-18T11:28:51.999Z</time></trkpt><trkpt lat="42.354989919679625" lon="14.021910414686634"><ele>156.0</ele><time>2026-04-18T11:28:52.999Z</time></trkpt><trkpt lat="42.354986552746745" lon="14.022064644071067"><ele>155.5</ele><time>2026-04-18T11:28:53.999Z</time></trkpt><trkpt lat="42.35497475096849" lon="14.022236521143254"><ele>155.0</ele><time>2026-04-18T11:28:54.999Z</time></trkpt><trkpt lat="42.35495819958965" lon="14.022421494039065"><ele>154.5</ele><time>2026-04-18T11:28:55.999Z</time></trkpt><trkpt lat="42.354944724535414" lon="14.022611252245635"><ele>154.0</ele><time>2026-04-18T11:28:56.999Z</time></trkpt><trkpt lat="42.354930833866945" lon="14.022801775255841"><ele>153.75</ele><time>2026-04-18T11:28:57.999Z</time></trkpt><trkpt lat="42.354912858174565" lon="14.02299929914503"><ele>153.5</ele><time>2026-04-18T11:28:58.999Z</time></trkpt><trkpt lat="42.35489484521039" lon="14.02319941117685"><ele>153.25</ele><time>2026-04-18T11:28:59.999Z</time></trkpt><trkpt lat="42.354879445603586" lon="14.023396311273517"><ele>153.0</ele><time>2026-04-18T11:29:00.999Z</time></trkpt><trkpt lat="42.35486673463987" lon="14.023589266478748"><ele>152.66666666666666</ele><time>2026-04-18T11:29:01.999Z</time></trkpt><trkpt lat="42.354855510359734" lon="14.023777700415835"><ele>152.33333333333331</ele><time>2026-04-18T11:29:02.999Z</time></trkpt><trkpt lat="42.354838598218485" lon="14.023980761092295"><ele>152.0</ele><time>2026-04-18T11:29:03.999Z</time></trkpt><trkpt lat="42.35482311798652" lon="14.024197577393315"><ele>151.33333333333331</ele><time>2026-04-18T11:29:04.999Z</time></trkpt><trkpt lat="42.354804587653454" lon="14.02443702968836"><ele>150.66666666666666</ele><time>2026-04-18T11:29:05.999Z</time></trkpt><trkpt lat="42.35478860000983" lon="14.024668835617595"><ele>150.0</ele><time>2026-04-18T11:29:06.999Z</time></trkpt><trkpt lat="42.3547726806435" lon="14.02489384328074"><ele>149.66666666666666</ele><time>2026-04-18T11:29:07.999Z</time></trkpt><trkpt lat="42.3547592396904" lon="14.025115020861543"><ele>149.33333333333331</ele><time>2026-04-18T11:29:08.999Z</time></trkpt><trkpt lat="42.35475738343557" lon="14.025335598604425"><ele>149.0</ele><time>2026-04-18T11:29:09.999Z</time></trkpt><trkpt lat="42.35475742380104" lon="14.025555314889463"><ele>149.0</ele><time>2026-04-18T11:29:10.999Z</time></trkpt><trkpt lat="42.35476048002221" lon="14.025773501300968"><ele>149.0</ele><time>2026-04-18T11:29:11.999Z</time></trkpt><trkpt lat="42.354767545664956" lon="14.025990760035787"><ele>149.0</ele><time>2026-04-18T11:29:12.999Z</time></trkpt><trkpt lat="42.35477098512412" lon="14.026206241130451"><ele>148.5</ele><time>2026-04-18T11:29:13.999Z</time></trkpt><trkpt lat="42.35477313809468" lon="14.026414825908555"><ele>148.0</ele><time>2026-04-18T11:29:14.999Z</time></trkpt><trkpt lat="42.35477617209007" lon="14.026606560210029"><ele>147.5</ele><time>2026-04-18T11:29:15.999Z</time></trkpt><trkpt lat="42.35477707321964" lon="14.026785389125983"><ele>147.0</ele><time>2026-04-18T11:29:16.999Z</time></trkpt><trkpt lat="42.35477649766289" lon="14.026942035821177"><ele>147.0</ele><time>2026-04-18T11:29:17.999Z</time></trkpt><trkpt lat="42.35477877368278" lon="14.027069812123383"><ele>147.0</ele><time>2026-04-18T11:29:18.999Z</time></trkpt><trkpt lat="42.354780412800295" lon="14.027222077275022"><ele>147.0</ele><time>2026-04-18T11:29:20.999Z</time></trkpt><trkpt lat="42.354770346733346" lon="14.02732847116586"><ele>147.0</ele><time>2026-04-18T11:29:22.999Z</time></trkpt><trkpt lat="42.35480820227348" lon="14.027228544881662"><ele>147.0</ele><time>2026-04-18T11:29:27.999Z</time></trkpt><trkpt lat="42.3547957263778" lon="14.02712902183669"><ele>147.0</ele><time>2026-04-18T11:29:28.999Z</time></trkpt><trkpt lat="42.35480911310788" lon="14.026989946109158"><ele>147.0</ele><time>2026-04-18T11:29:30.999Z</time></trkpt><trkpt lat="42.35489937612474" lon="14.026963957053894"><ele>147.0</ele><time>2026-04-18T11:29:32.999Z</time></trkpt><trkpt lat="42.35504161751271" lon="14.02699337879049"><ele>147.0</ele><time>2026-04-18T11:29:34.999Z</time></trkpt><trkpt lat="42.355126251384526" lon="14.027008801477983"><ele>147.0</ele><time>2026-04-18T11:29:35.999Z</time></trkpt><trkpt lat="42.355225529638204" lon="14.027002569274902"><ele>147.0</ele><time>2026-04-18T11:29:36.999Z</time></trkpt><trkpt lat="42.35531949960265" lon="14.026978794069509"><ele>147.0</ele><time>2026-04-18T11:29:37.999Z</time></trkpt><trkpt lat="42.35540522102961" lon="14.026965187475804"><ele>147.0</ele><time>2026-04-18T11:29:38.999Z</time></trkpt><trkpt lat="42.35549349153183" lon="14.026966005695726"><ele>147.0</ele><time>2026-04-18T11:29:39.999Z</time></trkpt><trkpt lat="42.3555846938609" lon="14.026960567132821"><ele>147.0</ele><time>2026-04-18T11:29:40.999Z</time></trkpt><trkpt lat="42.355681310114925" lon="14.026965105712994"><ele>147.0</ele><time>2026-04-18T11:29:41.999Z</time></trkpt><trkpt lat="42.355786241113655" lon="14.026974646574148"><ele>146.83333333333334</ele><time>2026-04-18T11:29:42.998Z</time></trkpt><trkpt lat="42.35588206974543" lon="14.026981446493501"><ele>146.66666666666666</ele><time>2026-04-18T11:29:43.998Z</time></trkpt><trkpt lat="42.35596185269743" lon="14.026987268241964"><ele>146.5</ele><time>2026-04-18T11:29:44.998Z</time></trkpt><trkpt lat="42.356042846487505" lon="14.026992845629609"><ele>146.33333333333331</ele><time>2026-04-18T11:29:45.998Z</time></trkpt><trkpt lat="42.35612766458794" lon="14.026998565508329"><ele>146.16666666666666</ele><time>2026-04-18T11:29:46.998Z</time></trkpt><trkpt lat="42.35622574211089" lon="14.026998510009976"><ele>146.0</ele><time>2026-04-18T11:29:47.998Z</time></trkpt><trkpt lat="42.356347491598555" lon="14.026999327144198"><ele>147.0</ele><time>2026-04-18T11:29:48.998Z</time></trkpt><trkpt lat="42.35649014270087" lon="14.027002882889482"><ele>148.0</ele><time>2026-04-18T11:29:49.998Z</time></trkpt><trkpt lat="42.35662547942717" lon="14.027007938438947"><ele>149.0</ele><time>2026-04-18T11:29:50.998Z</time></trkpt><trkpt lat="42.35674788245184" lon="14.027016420966255"><ele>150.0</ele><time>2026-04-18T11:29:51.998Z</time></trkpt><trkpt lat="42.35685821080224" lon="14.027024079363837"><ele>150.0</ele><time>2026-04-18T11:29:52.998Z</time></trkpt><trkpt lat="42.35695936288134" lon="14.027029608117944"><ele>150.0</ele><time>2026-04-18T11:29:53.998Z</time></trkpt><trkpt lat="42.357050766208374" lon="14.027042864419942"><ele>150.0</ele><time>2026-04-18T11:29:54.998Z</time></trkpt><trkpt lat="42.35713975710885" lon="14.027058599449596"><ele>150.0</ele><time>2026-04-18T11:29:55.998Z</time></trkpt><trkpt lat="42.357216374493355" lon="14.027067988421763"><ele>150.0</ele><time>2026-04-18T11:29:56.998Z</time></trkpt><trkpt lat="42.35728498158521" lon="14.027064992678833"><ele>150.0</ele><time>2026-04-18T11:29:57.998Z</time></trkpt><trkpt lat="42.3574067840236" lon="14.027061465888973"><ele>147.6</ele><time>2026-04-18T11:29:59.998Z</time></trkpt><trkpt lat="42.35747199610464" lon="14.02711515585426"><ele>145.2</ele><time>2026-04-18T11:30:01.998Z</time></trkpt><trkpt lat="42.35746513174064" lon="14.027250591825048"><ele>142.8</ele><time>2026-04-18T11:30:03.998Z</time></trkpt><trkpt lat="42.35746270289284" lon="14.027405631682239"><ele>140.4</ele><time>2026-04-18T11:30:05.999Z</time></trkpt><trkpt lat="42.357415822165315" lon="14.027475893995238"><ele>138.0</ele><time>2026-04-18T11:30:07.999Z</time></trkpt><trkpt lat="42.35735064997725" lon="14.027588820469353"><ele>138.0</ele><time>2026-04-18T11:30:10.999Z</time></trkpt><trkpt lat="42.357342334341304" lon="14.027687772609424"><ele>138.0</ele><time>2026-04-18T11:30:13.999Z</time></trkpt><trkpt lat="42.35743083257465" lon="14.02767131177843"><ele>138.0</ele><time>2026-04-18T11:30:16.999Z</time></trkpt><trkpt lat="42.35750483374617" lon="14.027648225141796"><ele>138.0</ele><time>2026-04-18T11:30:17.999Z</time></trkpt><trkpt lat="42.357566381566656" lon="14.027619192832631"><ele>138.0</ele><time>2026-04-18T11:30:18.999Z</time></trkpt><trkpt lat="42.35762798668492" lon="14.027572320647037"><ele>138.0</ele><time>2026-04-18T11:30:19.999Z</time></trkpt><trkpt lat="42.35768802204836" lon="14.027524844311827"><ele>138.0</ele><time>2026-04-18T11:30:20.999Z</time></trkpt><trkpt lat="42.35778975749421" lon="14.027465305541025"><ele>138.0</ele><time>2026-04-18T11:30:22.999Z</time></trkpt><trkpt lat="42.35786869613021" lon="14.027469526701417"><ele>138.0</ele><time>2026-04-18T11:30:26.999Z</time></trkpt><trkpt lat="42.35797250222125" lon="14.027567035184259"><ele>138.0</ele><time>2026-04-18T11:30:29.999Z</time></trkpt><trkpt lat="42.35803484397738" lon="14.027609552619808"><ele>138.0</ele><time>2026-04-18T11:30:31.999Z</time></trkpt><trkpt lat="42.35810444389295" lon="14.027629136519831"><ele>138.0</ele><time>2026-04-18T11:30:34Z</time></trkpt><trkpt lat="42.35815466998214" lon="14.027685432328095"><ele>138.0</ele><time>2026-04-18T11:30:41Z</time></trkpt><trkpt lat="42.35821440664634" lon="14.027769574079985"><ele>135.0</ele><time>2026-04-18T11:30:43Z</time></trkpt><trkpt lat="42.35826423789335" lon="14.02782807700075"><ele>132.0</ele><time>2026-04-18T11:30:45Z</time></trkpt><trkpt lat="42.358323583558665" lon="14.027883557006854"><ele>129.0</ele><time>2026-04-18T11:30:49Z</time></trkpt><trkpt lat="42.35836120552513" lon="14.027976440868395"><ele>126.0</ele><time>2026-04-18T11:30:53Z</time></trkpt><trkpt lat="42.35841214320849" lon="14.028039728897037"><ele>123.0</ele><time>2026-04-18T11:31:01Z</time></trkpt><trkpt lat="42.35845399538861" lon="14.02812824575277"><ele>120.0</ele><time>2026-04-18T11:31:05Z</time></trkpt><trkpt lat="42.35847338111245" lon="14.028275804066244"><ele>119.83333333333333</ele><time>2026-04-18T11:31:07Z</time></trkpt><trkpt lat="42.35846096634476" lon="14.02837408509456"><ele>119.66666666666666</ele><time>2026-04-18T11:31:09Z</time></trkpt><trkpt lat="42.358529537542594" lon="14.028530161195485"><ele>119.5</ele><time>2026-04-18T11:31:15Z</time></trkpt><trkpt lat="42.35858575649356" lon="14.028572055186801"><ele>119.33333333333333</ele><time>2026-04-18T11:31:33Z</time></trkpt><trkpt lat="42.35865379591624" lon="14.028568812914505"><ele>119.16666666666666</ele><time>2026-04-18T11:31:44Z</time></trkpt><trkpt lat="42.35868899607365" lon="14.028491152103506"><ele>119.0</ele><time>2026-04-18T11:32:07.999Z</time></trkpt><trkpt lat="42.358691886308385" lon="14.028404301159123"><ele>118.99999999999999</ele><time>2026-04-18T11:32:11Z</time></trkpt><trkpt lat="42.35870492907145" lon="14.02831906651446"><ele>119.0</ele><time>2026-04-18T11:32:34Z</time></trkpt><trkpt lat="42.35868058005846" lon="14.028228397950361"><ele>119.0</ele><time>2026-04-18T11:35:10Z</time></trkpt><trkpt lat="42.35877982818783" lon="14.028180525949743"><ele>119.0</ele><time>2026-04-18T11:35:20Z</time></trkpt><trkpt lat="42.35876712420012" lon="14.028059313061425"><ele>118.99999999999999</ele><time>2026-04-18T11:35:32Z</time></trkpt><trkpt lat="42.35878320986617" lon="14.027909499086888"><ele>119.0</ele><time>2026-04-18T11:35:34Z</time></trkpt><trkpt lat="42.35882769522003" lon="14.027842589783798"><ele>118.75</ele><time>2026-04-18T11:35:37Z</time></trkpt><trkpt lat="42.35896451025647" lon="14.027968804214387"><ele>118.5</ele><time>2026-04-18T11:35:42Z</time></trkpt><trkpt lat="42.35900053707982" lon="14.028072968033833"><ele>118.25</ele><time>2026-04-18T11:35:43Z</time></trkpt><trkpt lat="42.359044876006436" lon="14.02820742944334"><ele>118.0</ele><time>2026-04-18T11:35:44Z</time></trkpt><trkpt lat="42.3590986548192" lon="14.028347355633278"><ele>118.0</ele><time>2026-04-18T11:35:45Z</time></trkpt><trkpt lat="42.359157383435296" lon="14.02848254534772"><ele>118.00000000000001</ele><time>2026-04-18T11:35:46Z</time></trkpt><trkpt lat="42.359227981235996" lon="14.028609846781494"><ele>118.00000000000001</ele><time>2026-04-18T11:35:47Z</time></trkpt><trkpt lat="42.35930138155579" lon="14.028723509724317"><ele>118.0</ele><time>2026-04-18T11:35:48Z</time></trkpt><trkpt lat="42.35936901961143" lon="14.028830152190174"><ele>118.0</ele><time>2026-04-18T11:35:49Z</time></trkpt><trkpt lat="42.35943006828166" lon="14.02893465998447"><ele>118.0</ele><time>2026-04-18T11:35:50Z</time></trkpt><trkpt lat="42.35948811556056" lon="14.029030017146775"><ele>118.00000000000001</ele><time>2026-04-18T11:35:51Z</time></trkpt><trkpt lat="42.359536646025425" lon="14.029127404779706"><ele>118.00000000000001</ele><time>2026-04-18T11:35:52Z</time></trkpt><trkpt lat="42.359587445719384" lon="14.029229890803357"><ele>118.0</ele><time>2026-04-18T11:35:53Z</time></trkpt><trkpt lat="42.35965020337199" lon="14.029324018568348"><ele>118.0</ele><time>2026-04-18T11:35:54Z</time></trkpt><trkpt lat="42.35971654965397" lon="14.029424692909975"><ele>118.4</ele><time>2026-04-18T11:35:55Z</time></trkpt><trkpt lat="42.35978183889083" lon="14.029520761084939"><ele>118.80000000000001</ele><time>2026-04-18T11:35:56Z</time></trkpt><trkpt lat="42.359847328718345" lon="14.029605060038001"><ele>119.2</ele><time>2026-04-18T11:35:57Z</time></trkpt><trkpt lat="42.359900177143366" lon="14.029689657071085"><ele>119.6</ele><time>2026-04-18T11:35:58Z</time></trkpt><trkpt lat="42.3599463809244" lon="14.0297636110166"><ele>120.0</ele><time>2026-04-18T11:35:59Z</time></trkpt><trkpt lat="42.36002977773702" lon="14.029882945619352"><ele>120.0</ele><time>2026-04-18T11:36:00.999Z</time></trkpt><trkpt lat="42.360118302835076" lon="14.029952815160057"><ele>120.0</ele><time>2026-04-18T11:36:02.999Z</time></trkpt><trkpt lat="42.360170090439034" lon="14.030001265894203"><ele>120.0</ele><time>2026-04-18T11:36:03.999Z</time></trkpt><trkpt lat="42.36022526947269" lon="14.030093190710652"><ele>120.0</ele><time>2026-04-18T11:36:04.999Z</time></trkpt><trkpt lat="42.36030014668636" lon="14.030209765961414"><ele>120.0</ele><time>2026-04-18T11:36:05.999Z</time></trkpt><trkpt lat="42.3603806265054" lon="14.030341672118809"><ele>119.8</ele><time>2026-04-18T11:36:06.999Z</time></trkpt><trkpt lat="42.3604571152338" lon="14.030465397847196"><ele>119.6</ele><time>2026-04-18T11:36:07.999Z</time></trkpt><trkpt lat="42.36053698314919" lon="14.030593369581984"><ele>119.4</ele><time>2026-04-18T11:36:08.999Z</time></trkpt><trkpt lat="42.360603156526025" lon="14.030711237791785"><ele>119.2</ele><time>2026-04-18T11:36:09.999Z</time></trkpt><trkpt lat="42.36064456868577" lon="14.030813407981329"><ele>119.0</ele><time>2026-04-18T11:36:10.999Z</time></trkpt><trkpt lat="42.36067162924872" lon="14.030919448952094"><ele>119.99999999999999</ele><time>2026-04-18T11:36:11.999Z</time></trkpt><trkpt lat="42.36069091004184" lon="14.03102054419217"><ele>121.0</ele><time>2026-04-18T11:36:12.999Z</time></trkpt><trkpt lat="42.360709275542156" lon="14.031158771717957"><ele>122.0</ele><time>2026-04-18T11:36:14.999Z</time></trkpt><trkpt lat="42.36072662380408" lon="14.031245664123349"><ele>123.0</ele><time>2026-04-18T11:36:17.999Z</time></trkpt><trkpt lat="42.360750676673725" lon="14.031381378368424"><ele>123.99999999999999</ele><time>2026-04-18T11:36:20.999Z</time></trkpt><trkpt lat="42.36078041059446" lon="14.031483542679341"><ele>125.0</ele><time>2026-04-18T11:36:22Z</time></trkpt><trkpt lat="42.36078891208168" lon="14.031572781134557"><ele>123.33333333333333</ele><time>2026-04-18T11:36:23Z</time></trkpt><trkpt lat="42.36078949886292" lon="14.031674683172557"><ele>121.66666666666666</ele><time>2026-04-18T11:36:24Z</time></trkpt><trkpt lat="42.360790656079644" lon="14.03176404404702"><ele>120.0</ele><time>2026-04-18T11:36:25Z</time></trkpt><trkpt lat="42.36079763888573" lon="14.031863658652268"><ele>118.33333333333334</ele><time>2026-04-18T11:36:26Z</time></trkpt><trkpt lat="42.36081218506257" lon="14.031985825285348"><ele>116.66666666666667</ele><time>2026-04-18T11:36:27Z</time></trkpt><trkpt lat="42.36082319209187" lon="14.032100074495617"><ele>115.0</ele><time>2026-04-18T11:36:28Z</time></trkpt><trkpt lat="42.36083752582374" lon="14.03221034101596"><ele>115.0</ele><time>2026-04-18T11:36:29Z</time></trkpt><trkpt lat="42.3608528408737" lon="14.032315809861498"><ele>115.0</ele><time>2026-04-18T11:36:30Z</time></trkpt><trkpt lat="42.36087410917028" lon="14.032406435430937"><ele>115.0</ele><time>2026-04-18T11:36:31Z</time></trkpt><trkpt lat="42.360889410306015" lon="14.032501382645288"><ele>115.0</ele><time>2026-04-18T11:36:32Z</time></trkpt><trkpt lat="42.36090177402198" lon="14.032660381151981"><ele>115.0</ele><time>2026-04-18T11:36:34Z</time></trkpt><trkpt lat="42.36087718484937" lon="14.032822918441365"><ele>114.8</ele><time>2026-04-18T11:36:36Z</time></trkpt><trkpt lat="42.36085176041019" lon="14.032917875390101"><ele>114.6</ele><time>2026-04-18T11:36:37Z</time></trkpt><trkpt lat="42.36084606873764" lon="14.033017332419806"><ele>114.4</ele><time>2026-04-18T11:36:38Z</time></trkpt><trkpt lat="42.360860932643426" lon="14.033123673728063"><ele>114.2</ele><time>2026-04-18T11:36:39Z</time></trkpt><trkpt lat="42.3608784846234" lon="14.033247712686938"><ele>114.0</ele><time>2026-04-18T11:36:40Z</time></trkpt><trkpt lat="42.36089101834781" lon="14.033428843984968"><ele>114.0</ele><time>2026-04-18T11:36:41Z</time></trkpt><trkpt lat="42.36089039079469" lon="14.033572102883477"><ele>114.0</ele><time>2026-04-18T11:36:42Z</time></trkpt><trkpt lat="42.36088971418911" lon="14.033711961297877"><ele>114.0</ele><time>2026-04-18T11:36:43Z</time></trkpt><trkpt lat="42.36088539510025" lon="14.033853764077508"><ele>114.0</ele><time>2026-04-18T11:36:44Z</time></trkpt><trkpt lat="42.36087909200024" lon="14.033993750829143"><ele>114.0</ele><time>2026-04-18T11:36:45Z</time></trkpt><trkpt lat="42.360867568817895" lon="14.03414014540241"><ele>114.0</ele><time>2026-04-18T11:36:46Z</time></trkpt><trkpt lat="42.36085470367441" lon="14.034278316338886"><ele>114.0</ele><time>2026-04-18T11:36:47Z</time></trkpt><trkpt lat="42.36084173014776" lon="14.034405689880844"><ele>114.0</ele><time>2026-04-18T11:36:48Z</time></trkpt><trkpt lat="42.36083407388675" lon="14.034529994644219"><ele>114.0</ele><time>2026-04-18T11:36:49Z</time></trkpt><trkpt lat="42.360827771661796" lon="14.034647519025535"><ele>114.0</ele><time>2026-04-18T11:36:50Z</time></trkpt><trkpt lat="42.36079788107183" lon="14.034801499696297"><ele>114.0</ele><time>2026-04-18T11:36:52Z</time></trkpt><trkpt lat="42.36076797337268" lon="14.034880735770727"><ele>114.0</ele><time>2026-04-18T11:36:53Z</time></trkpt><trkpt lat="42.360745780388264" lon="14.034977452992434"><ele>114.0</ele><time>2026-04-18T11:36:54Z</time></trkpt><trkpt lat="42.36073560369476" lon="14.035072572397459"><ele>114.0</ele><time>2026-04-18T11:36:55Z</time></trkpt><trkpt lat="42.36076512507896" lon="14.035241499475589"><ele>114.0</ele><time>2026-04-18T11:36:57Z</time></trkpt><trkpt lat="42.360804372806" lon="14.035325439501623"><ele>114.0</ele><time>2026-04-18T11:36:58Z</time></trkpt><trkpt lat="42.36084101919879" lon="14.035423589601349"><ele>113.80000000000001</ele><time>2026-04-18T11:36:59Z</time></trkpt><trkpt lat="42.36089931825683" lon="14.035562339244656"><ele>113.60000000000001</ele><time>2026-04-18T11:37:00Z</time></trkpt><trkpt lat="42.36095780984989" lon="14.035701905717678"><ele>113.4</ele><time>2026-04-18T11:37:01Z</time></trkpt><trkpt lat="42.36101158868411" lon="14.03582439862843"><ele>113.2</ele><time>2026-04-18T11:37:02Z</time></trkpt><trkpt lat="42.36106088630517" lon="14.035941268440729"><ele>113.0</ele><time>2026-04-18T11:37:03Z</time></trkpt><trkpt lat="42.361109613443354" lon="14.036051280093869"><ele>112.83333333333333</ele><time>2026-04-18T11:37:04Z</time></trkpt><trkpt lat="42.361159355169015" lon="14.036157923275093"><ele>112.66666666666666</ele><time>2026-04-18T11:37:05Z</time></trkpt><trkpt lat="42.3612142805296" lon="14.036261623338719"><ele>112.5</ele><time>2026-04-18T11:37:06Z</time></trkpt><trkpt lat="42.361268907468535" lon="14.036359996679442"><ele>112.33333333333334</ele><time>2026-04-18T11:37:07Z</time></trkpt><trkpt lat="42.36132265953881" lon="14.036444389625261"><ele>112.16666666666667</ele><time>2026-04-18T11:37:08Z</time></trkpt><trkpt lat="42.361373076010594" lon="14.036537572321981"><ele>112.0</ele><time>2026-04-18T11:37:09Z</time></trkpt><trkpt lat="42.361425265409274" lon="14.036636613835585"><ele>113.66666666666667</ele><time>2026-04-18T11:37:10Z</time></trkpt><trkpt lat="42.36146256513146" lon="14.03674179936776"><ele>115.33333333333334</ele><time>2026-04-18T11:37:11Z</time></trkpt><trkpt lat="42.361488348612795" lon="14.036846607822428"><ele>117.0</ele><time>2026-04-18T11:37:12Z</time></trkpt><trkpt lat="42.36153016034982" lon="14.036994755687228"><ele>118.66666666666666</ele><time>2026-04-18T11:37:14Z</time></trkpt><trkpt lat="42.36155103518434" lon="14.037078612847768"><ele>120.33333333333333</ele><time>2026-04-18T11:37:15Z</time></trkpt><trkpt lat="42.36154256408176" lon="14.037176651126316"><ele>122.0</ele><time>2026-04-18T11:37:30Z</time></trkpt><trkpt lat="42.36151350073415" lon="14.037273886222367"><ele>121.99999999999999</ele><time>2026-04-18T11:37:32Z</time></trkpt><trkpt lat="42.36149593523138" lon="14.037366336138836"><ele>122.0</ele><time>2026-04-18T11:37:33Z</time></trkpt><trkpt lat="42.36148127475841" lon="14.037455130598508"><ele>122.0</ele><time>2026-04-18T11:37:34Z</time></trkpt><trkpt lat="42.36146607127124" lon="14.037562925637635"><ele>122.0</ele><time>2026-04-18T11:37:35Z</time></trkpt><trkpt lat="42.361455400503786" lon="14.0376711495263"><ele>121.99999999999999</ele><time>2026-04-18T11:37:36Z</time></trkpt><trkpt lat="42.36145445672671" lon="14.037777675512174"><ele>122.0</ele><time>2026-04-18T11:37:37Z</time></trkpt><trkpt lat="42.36145240280605" lon="14.0378969947758"><ele>119.8</ele><time>2026-04-18T11:37:38Z</time></trkpt><trkpt lat="42.361453730825396" lon="14.038022361493779"><ele>117.6</ele><time>2026-04-18T11:37:39Z</time></trkpt><trkpt lat="42.36145478392246" lon="14.03814001267142"><ele>115.39999999999999</ele><time>2026-04-18T11:37:40Z</time></trkpt><trkpt lat="42.36144829721689" lon="14.038262659759873"><ele>113.19999999999999</ele><time>2026-04-18T11:37:41Z</time></trkpt><trkpt lat="42.36143296547978" lon="14.03838850315433"><ele>111.0</ele><time>2026-04-18T11:37:42Z</time></trkpt><trkpt lat="42.36141898451523" lon="14.038513799344974"><ele>110.66666666666667</ele><time>2026-04-18T11:37:43Z</time></trkpt><trkpt lat="42.36140884663761" lon="14.03863920574287"><ele>110.33333333333334</ele><time>2026-04-18T11:37:44Z</time></trkpt><trkpt lat="42.361410478245254" lon="14.038762139631219"><ele>110.0</ele><time>2026-04-18T11:37:45Z</time></trkpt><trkpt lat="42.36143058947799" lon="14.038864200391153"><ele>109.66666666666667</ele><time>2026-04-18T11:37:46Z</time></trkpt><trkpt lat="42.36144049382123" lon="14.038972888873598"><ele>109.33333333333334</ele><time>2026-04-18T11:37:47Z</time></trkpt><trkpt lat="42.36144819619498" lon="14.039068615129231"><ele>109.0</ele><time>2026-04-18T11:37:48Z</time></trkpt><trkpt lat="42.3614734779525" lon="14.039221521873337"><ele>109.00000000000001</ele><time>2026-04-18T11:37:50Z</time></trkpt><trkpt lat="42.36149453724113" lon="14.039357057257206"><ele>109.0</ele><time>2026-04-18T11:37:52Z</time></trkpt><trkpt lat="42.3615179811387" lon="14.039499323521039"><ele>109.0</ele><time>2026-04-18T11:37:54Z</time></trkpt><trkpt lat="42.36153318726587" lon="14.03959406739576"><ele>109.0</ele><time>2026-04-18T11:37:55Z</time></trkpt><trkpt lat="42.361549502040766" lon="14.039695392428301"><ele>109.00000000000001</ele><time>2026-04-18T11:37:56Z</time></trkpt><trkpt lat="42.36156237006762" lon="14.039780663081697"><ele>109.0</ele><time>2026-04-18T11:37:57Z</time></trkpt><trkpt lat="42.36158261074105" lon="14.039906460150817"><ele>109.0</ele><time>2026-04-18T11:37:59Z</time></trkpt><trkpt lat="42.36159227363776" lon="14.040025952196894"><ele>109.0</ele><time>2026-04-18T11:38:01Z</time></trkpt><trkpt lat="42.36159319808604" lon="14.040152850347384"><ele>109.0</ele><time>2026-04-18T11:38:03Z</time></trkpt><trkpt lat="42.36159067505465" lon="14.040250132854453"><ele>109.0</ele><time>2026-04-18T11:38:04Z</time></trkpt><trkpt lat="42.361574114377476" lon="14.04036895438166"><ele>109.0</ele><time>2026-04-18T11:38:05Z</time></trkpt><trkpt lat="42.361533029892406" lon="14.040505725289757"><ele>109.0</ele><time>2026-04-18T11:38:06Z</time></trkpt><trkpt lat="42.3614786776962" lon="14.040668101926068"><ele>109.0</ele><time>2026-04-18T11:38:07Z</time></trkpt><trkpt lat="42.36144338822714" lon="14.040821892654392"><ele>109.0</ele><time>2026-04-18T11:38:08Z</time></trkpt><trkpt lat="42.36143221279898" lon="14.040992963760619"><ele>109.0</ele><time>2026-04-18T11:38:09Z</time></trkpt><trkpt lat="42.361422675249244" lon="14.041165508258274"><ele>109.0</ele><time>2026-04-18T11:38:10Z</time></trkpt><trkpt lat="42.36141005024658" lon="14.04133003016981"><ele>109.0</ele><time>2026-04-18T11:38:11Z</time></trkpt><trkpt lat="42.36139619482411" lon="14.04149354789629"><ele>109.0</ele><time>2026-04-18T11:38:12Z</time></trkpt><trkpt lat="42.36137626506709" lon="14.041652403649977"><ele>109.0</ele><time>2026-04-18T11:38:13Z</time></trkpt><trkpt lat="42.36135111494846" lon="14.041811061289394"><ele>108.75</ele><time>2026-04-18T11:38:14Z</time></trkpt><trkpt lat="42.361315917172504" lon="14.041967986740701"><ele>108.5</ele><time>2026-04-18T11:38:15Z</time></trkpt><trkpt lat="42.3612771631184" lon="14.042126835274235"><ele>108.25</ele><time>2026-04-18T11:38:16Z</time></trkpt><trkpt lat="42.36123602778158" lon="14.042291409406678"><ele>108.0</ele><time>2026-04-18T11:38:17Z</time></trkpt><trkpt lat="42.36119482475072" lon="14.042453254192425"><ele>108.0</ele><time>2026-04-18T11:38:17.999Z</time></trkpt><trkpt lat="42.36114648105904" lon="14.042624664111521"><ele>108.0</ele><time>2026-04-18T11:38:18.999Z</time></trkpt><trkpt lat="42.36109870803315" lon="14.042796223173756"><ele>108.0</ele><time>2026-04-18T11:38:19.999Z</time></trkpt><trkpt lat="42.36105723750362" lon="14.04295129737806"><ele>108.0</ele><time>2026-04-18T11:38:20.999Z</time></trkpt><trkpt lat="42.36101849819393" lon="14.043104587582832"><ele>108.0</ele><time>2026-04-18T11:38:21.999Z</time></trkpt><trkpt lat="42.3609958841833" lon="14.043247201377383"><ele>108.00000000000001</ele><time>2026-04-18T11:38:22.999Z</time></trkpt><trkpt lat="42.360970034643536" lon="14.043392667160543"><ele>108.00000000000001</ele><time>2026-04-18T11:38:23.999Z</time></trkpt><trkpt lat="42.36094016613595" lon="14.043526901632532"><ele>108.0</ele><time>2026-04-18T11:38:24.999Z</time></trkpt><trkpt lat="42.36088613748508" lon="14.043642924858608"><ele>108.0</ele><time>2026-04-18T11:38:25.999Z</time></trkpt><trkpt lat="42.360784991902094" lon="14.043633681468497"><ele>108.0</ele><time>2026-04-18T11:38:26.999Z</time></trkpt><trkpt lat="42.360691908767066" lon="14.043673844479223"><ele>108.00000000000001</ele><time>2026-04-18T11:38:28Z</time></trkpt><trkpt lat="42.36061627118841" lon="14.043767660026615"><ele>108.00000000000001</ele><time>2026-04-18T11:38:29Z</time></trkpt><trkpt lat="42.36055585624685" lon="14.043898242606637"><ele>108.0</ele><time>2026-04-18T11:38:30Z</time></trkpt><trkpt lat="42.360512111643274" lon="14.044050225587348"><ele>108.0</ele><time>2026-04-18T11:38:31Z</time></trkpt><trkpt lat="42.36048416552247" lon="14.04421534112123"><ele>107.5</ele><time>2026-04-18T11:38:32Z</time></trkpt><trkpt lat="42.36044396394882" lon="14.044370844207554"><ele>107.0</ele><time>2026-04-18T11:38:33Z</time></trkpt><trkpt lat="42.36039376339807" lon="14.044530692642654"><ele>106.5</ele><time>2026-04-18T11:38:34Z</time></trkpt><trkpt lat="42.360332541033365" lon="14.044700234685045"><ele>106.0</ele><time>2026-04-18T11:38:35Z</time></trkpt><trkpt lat="42.36027254531327" lon="14.044875545380732"><ele>105.33333333333334</ele><time>2026-04-18T11:38:36Z</time></trkpt><trkpt lat="42.36021020033076" lon="14.04505107441197"><ele>104.66666666666666</ele><time>2026-04-18T11:38:37Z</time></trkpt><trkpt lat="42.36014158789076" lon="14.045234788825425"><ele>104.0</ele><time>2026-04-18T11:38:38Z</time></trkpt><trkpt lat="42.36006539735276" lon="14.045423194462483"><ele>104.0</ele><time>2026-04-18T11:38:39Z</time></trkpt><trkpt lat="42.35998871945604" lon="14.045613855148257"><ele>104.0</ele><time>2026-04-18T11:38:40Z</time></trkpt><trkpt lat="42.359914657061175" lon="14.045801882500356"><ele>104.0</ele><time>2026-04-18T11:38:41Z</time></trkpt><trkpt lat="42.35984367553391" lon="14.045991062765259"><ele>103.66666666666666</ele><time>2026-04-18T11:38:42Z</time></trkpt><trkpt lat="42.35976826849722" lon="14.046176103420704"><ele>103.33333333333334</ele><time>2026-04-18T11:38:43Z</time></trkpt><trkpt lat="42.35969415009354" lon="14.046354101486733"><ele>103.0</ele><time>2026-04-18T11:38:44Z</time></trkpt><trkpt lat="42.35962196509743" lon="14.046543175913769"><ele>103.0</ele><time>2026-04-18T11:38:45Z</time></trkpt><trkpt lat="42.3595447960776" lon="14.046748507634474"><ele>103.0</ele><time>2026-04-18T11:38:46Z</time></trkpt><trkpt lat="42.35946106139184" lon="14.046956270528288"><ele>103.0</ele><time>2026-04-18T11:38:47Z</time></trkpt><trkpt lat="42.35937737944674" lon="14.047141824784887"><ele>103.0</ele><time>2026-04-18T11:38:48Z</time></trkpt><trkpt lat="42.359301368613366" lon="14.04731241557702"><ele>103.0</ele><time>2026-04-18T11:38:49Z</time></trkpt><trkpt lat="42.359230157399644" lon="14.047478595535551"><ele>103.0</ele><time>2026-04-18T11:38:50Z</time></trkpt><trkpt lat="42.35916078390803" lon="14.04764811799427"><ele>103.0</ele><time>2026-04-18T11:38:51Z</time></trkpt><trkpt lat="42.35909048781472" lon="14.047809746437373"><ele>102.75</ele><time>2026-04-18T11:38:52Z</time></trkpt><trkpt lat="42.359024244956565" lon="14.047960398973226"><ele>102.5</ele><time>2026-04-18T11:38:53Z</time></trkpt><trkpt lat="42.35896629880748" lon="14.048093278860673"><ele>102.25</ele><time>2026-04-18T11:38:54Z</time></trkpt><trkpt lat="42.35891444231739" lon="14.04821902855424"><ele>102.0</ele><time>2026-04-18T11:38:55Z</time></trkpt><trkpt lat="42.35886484235264" lon="14.0483535590051"><ele>101.75</ele><time>2026-04-18T11:38:56Z</time></trkpt><trkpt lat="42.35880694460414" lon="14.048499032991684"><ele>101.5</ele><time>2026-04-18T11:38:57Z</time></trkpt><trkpt lat="42.35874827431851" lon="14.048661304462138"><ele>101.25</ele><time>2026-04-18T11:38:58Z</time></trkpt><trkpt lat="42.35867608933105" lon="14.048841663987927"><ele>101.0</ele><time>2026-04-18T11:38:59Z</time></trkpt><trkpt lat="42.35859308442156" lon="14.049041882769673"><ele>100.33333333333333</ele><time>2026-04-18T11:39:00Z</time></trkpt><trkpt lat="42.3585116703908" lon="14.04923538821227"><ele>99.66666666666666</ele><time>2026-04-18T11:39:01Z</time></trkpt><trkpt lat="42.35844285370842" lon="14.049414186726366"><ele>99.0</ele><time>2026-04-18T11:39:02Z</time></trkpt><trkpt lat="42.35837569053302" lon="14.049591970971713"><ele>99.0</ele><time>2026-04-18T11:39:03Z</time></trkpt><trkpt lat="42.35830811577701" lon="14.049770511096103"><ele>99.0</ele><time>2026-04-18T11:39:04Z</time></trkpt><trkpt lat="42.35823965101304" lon="14.04993515810879"><ele>99.0</ele><time>2026-04-18T11:39:05Z</time></trkpt><trkpt lat="42.358184003743084" lon="14.050079723390505"><ele>99.0</ele><time>2026-04-18T11:39:06Z</time></trkpt><trkpt lat="42.35813179145555" lon="14.050215258510281"><ele>99.0</ele><time>2026-04-18T11:39:07Z</time></trkpt><trkpt lat="42.35808632823583" lon="14.050324657465804"><ele>99.0</ele><time>2026-04-18T11:39:08Z</time></trkpt><trkpt lat="42.358051888670545" lon="14.050414220005258"><ele>99.0</ele><time>2026-04-18T11:39:09Z</time></trkpt><trkpt lat="42.35802609091604" lon="14.05050416386995"><ele>99.0</ele><time>2026-04-18T11:39:10Z</time></trkpt><trkpt lat="42.35800397891862" lon="14.050624974912536"><ele>99.0</ele><time>2026-04-18T11:39:11Z</time></trkpt><trkpt lat="42.357990004316704" lon="14.050765485942767"><ele>99.0</ele><time>2026-04-18T11:39:12Z</time></trkpt><trkpt lat="42.35797603174442" lon="14.05091301536812"><ele>98.5</ele><time>2026-04-18T11:39:13Z</time></trkpt><trkpt lat="42.35796120485641" lon="14.051062476388694"><ele>98.0</ele><time>2026-04-18T11:39:14Z</time></trkpt><trkpt lat="42.35794449942166" lon="14.051210491045824"><ele>97.5</ele><time>2026-04-18T11:39:15Z</time></trkpt><trkpt lat="42.357942798088295" lon="14.051365193837407"><ele>97.0</ele><time>2026-04-18T11:39:16Z</time></trkpt><trkpt lat="42.35796052910156" lon="14.051522715916823"><ele>97.0</ele><time>2026-04-18T11:39:17Z</time></trkpt><trkpt lat="42.35800587663631" lon="14.05168601012418"><ele>97.0</ele><time>2026-04-18T11:39:18Z</time></trkpt><trkpt lat="42.35807151369417" lon="14.051845915195656"><ele>97.0</ele><time>2026-04-18T11:39:19Z</time></trkpt><trkpt lat="42.35814014602072" lon="14.052002576740596"><ele>97.0</ele><time>2026-04-18T11:39:20Z</time></trkpt><trkpt lat="42.35820736619582" lon="14.052156253458426"><ele>97.19999999999999</ele><time>2026-04-18T11:39:21Z</time></trkpt><trkpt lat="42.35828413597787" lon="14.052293354171123"><ele>97.4</ele><time>2026-04-18T11:39:22Z</time></trkpt><trkpt lat="42.35836836701398" lon="14.05237592059435"><ele>97.6</ele><time>2026-04-18T11:39:23Z</time></trkpt><trkpt lat="42.35844307600933" lon="14.052418604039392"><ele>97.80000000000001</ele><time>2026-04-18T11:39:24Z</time></trkpt><trkpt lat="42.3585121739766" lon="14.05247934297925"><ele>98.0</ele><time>2026-04-18T11:39:26Z</time></trkpt><trkpt lat="42.3585017609022" lon="14.052601306079785"><ele>98.0</ele><time>2026-04-18T11:39:28Z</time></trkpt><trkpt lat="42.35847622059875" lon="14.05270869541063"><ele>98.0</ele><time>2026-04-18T11:39:29Z</time></trkpt><trkpt lat="42.35843983214884" lon="14.052834780032654"><ele>98.0</ele><time>2026-04-18T11:39:30Z</time></trkpt><trkpt lat="42.35839802319201" lon="14.052955435751162"><ele>98.0</ele><time>2026-04-18T11:39:31Z</time></trkpt><trkpt lat="42.358362823758085" lon="14.053109588075682"><ele>98.0</ele><time>2026-04-18T11:39:32Z</time></trkpt><trkpt lat="42.35832300535825" lon="14.053262161835166"><ele>97.25</ele><time>2026-04-18T11:39:33Z</time></trkpt><trkpt lat="42.35828713831854" lon="14.053424965662463"><ele>96.5</ele><time>2026-04-18T11:39:34Z</time></trkpt><trkpt lat="42.35828600554796" lon="14.05361473428888"><ele>95.75</ele><time>2026-04-18T11:39:35Z</time></trkpt><trkpt lat="42.35830337622331" lon="14.053796848352263"><ele>95.0</ele><time>2026-04-18T11:39:36Z</time></trkpt><trkpt lat="42.358343830254256" lon="14.053978188016272"><ele>95.25</ele><time>2026-04-18T11:39:37Z</time></trkpt><trkpt lat="42.35838900858683" lon="14.054154986075199"><ele>95.5</ele><time>2026-04-18T11:39:38Z</time></trkpt><trkpt lat="42.35844982106057" lon="14.05434482185861"><ele>95.75</ele><time>2026-04-18T11:39:39Z</time></trkpt><trkpt lat="42.35850229300671" lon="14.054527182034331"><ele>96.0</ele><time>2026-04-18T11:39:40Z</time></trkpt><trkpt lat="42.35854199731843" lon="14.05470701037907"><ele>96.0</ele><time>2026-04-18T11:39:41Z</time></trkpt><trkpt lat="42.35855879510345" lon="14.05490177537669"><ele>96.0</ele><time>2026-04-18T11:39:42Z</time></trkpt><trkpt lat="42.35856954174955" lon="14.055123409668921"><ele>96.0</ele><time>2026-04-18T11:39:43Z</time></trkpt><trkpt lat="42.35858569015802" lon="14.055334253014273"><ele>96.5</ele><time>2026-04-18T11:39:44Z</time></trkpt><trkpt lat="42.35861998824685" lon="14.055519513454716"><ele>97.0</ele><time>2026-04-18T11:39:45Z</time></trkpt><trkpt lat="42.3586556973987" lon="14.05565688833137"><ele>97.5</ele><time>2026-04-18T11:39:46Z</time></trkpt><trkpt lat="42.35869869457681" lon="14.055809785743108"><ele>98.0</ele><time>2026-04-18T11:39:47Z</time></trkpt><trkpt lat="42.3587549726041" lon="14.055948567900666"><ele>99.4</ele><time>2026-04-18T11:39:48Z</time></trkpt><trkpt lat="42.3588145162715" lon="14.056091852706285"><ele>100.80000000000001</ele><time>2026-04-18T11:39:49Z</time></trkpt><trkpt lat="42.35886621089703" lon="14.056219731799365"><ele>102.2</ele><time>2026-04-18T11:39:50Z</time></trkpt><trkpt lat="42.35890810782294" lon="14.05634627613798"><ele>103.6</ele><time>2026-04-18T11:39:51Z</time></trkpt><trkpt lat="42.358944534338626" lon="14.05648189535618"><ele>105.0</ele><time>2026-04-18T11:39:52Z</time></trkpt><trkpt lat="42.3589783726406" lon="14.056628019558914"><ele>108.0</ele><time>2026-04-18T11:39:53Z</time></trkpt><trkpt lat="42.35900897044539" lon="14.056779451605067"><ele>111.0</ele><time>2026-04-18T11:39:54Z</time></trkpt><trkpt lat="42.359042776465024" lon="14.056929641009168"><ele>114.0</ele><time>2026-04-18T11:39:55Z</time></trkpt><trkpt lat="42.35907317885628" lon="14.057086250866089"><ele>117.0</ele><time>2026-04-18T11:39:56Z</time></trkpt><trkpt lat="42.359083793674664" lon="14.05721589912292"><ele>120.0</ele><time>2026-04-18T11:39:57Z</time></trkpt><trkpt lat="42.359103392685945" lon="14.057373155888278"><ele>120.25</ele><time>2026-04-18T11:39:58Z</time></trkpt><trkpt lat="42.35911493263826" lon="14.057538288196136"><ele>120.5</ele><time>2026-04-18T11:39:59Z</time></trkpt><trkpt lat="42.359126027675025" lon="14.057705081273319"><ele>120.75</ele><time>2026-04-18T11:40:00Z</time></trkpt><trkpt lat="42.35914323707388" lon="14.057869652101022"><ele>121.0</ele><time>2026-04-18T11:40:01Z</time></trkpt><trkpt lat="42.359150668537104" lon="14.058027676665114"><ele>121.00000000000001</ele><time>2026-04-18T11:40:02Z</time></trkpt><trkpt lat="42.35914457902401" lon="14.058174715360316"><ele>121.0</ele><time>2026-04-18T11:40:03Z</time></trkpt><trkpt lat="42.359131526360436" lon="14.058288471440031"><ele>121.0</ele><time>2026-04-18T11:40:04Z</time></trkpt><trkpt lat="42.3591188541897" lon="14.058383959701585"><ele>121.0</ele><time>2026-04-18T11:40:05Z</time></trkpt><trkpt lat="42.359094987218405" lon="14.058490946873079"><ele>121.00000000000001</ele><time>2026-04-18T11:40:07Z</time></trkpt><trkpt lat="42.35914010871321" lon="14.05858619045308"><ele>121.0</ele><time>2026-04-18T11:40:11Z</time></trkpt><trkpt lat="42.359224352718805" lon="14.058513052903116"><ele>121.00000000000001</ele><time>2026-04-18T11:40:13Z</time></trkpt><trkpt lat="42.35926775332271" lon="14.058441823672904"><ele>121.0</ele><time>2026-04-18T11:40:14Z</time></trkpt><trkpt lat="42.35932217627214" lon="14.058372227698563"><ele>121.0</ele><time>2026-04-18T11:40:15Z</time></trkpt><trkpt lat="42.359384078441835" lon="14.058314097221128"><ele>121.0</ele><time>2026-04-18T11:40:16Z</time></trkpt><trkpt lat="42.359449092529296" lon="14.058254736449584"><ele>121.00000000000001</ele><time>2026-04-18T11:40:17Z</time></trkpt><trkpt lat="42.35952221735083" lon="14.058263717352501"><ele>121.0</ele><time>2026-04-18T11:40:18.999Z</time></trkpt><trkpt lat="42.35960621959207" lon="14.058403393208264"><ele>121.4</ele><time>2026-04-18T11:40:20.999Z</time></trkpt><trkpt lat="42.359582588252096" lon="14.058497412324932"><ele>121.8</ele><time>2026-04-18T11:40:21.999Z</time></trkpt><trkpt lat="42.35954332163414" lon="14.058653231725597"><ele>122.20000000000002</ele><time>2026-04-18T11:40:22.999Z</time></trkpt><trkpt lat="42.35950526497131" lon="14.058793239477447"><ele>122.60000000000001</ele><time>2026-04-18T11:40:23.999Z</time></trkpt><trkpt lat="42.35947562365326" lon="14.058917935224109"><ele>123.0</ele><time>2026-04-18T11:40:24.999Z</time></trkpt><trkpt lat="42.35944264287527" lon="14.059034971676036"><ele>124.60000000000001</ele><time>2026-04-18T11:40:25.999Z</time></trkpt><trkpt lat="42.359429617076636" lon="14.059143388639704"><ele>126.20000000000002</ele><time>2026-04-18T11:40:26.999Z</time></trkpt><trkpt lat="42.35948356018134" lon="14.059325035320818"><ele>127.8</ele><time>2026-04-18T11:40:28.999Z</time></trkpt><trkpt lat="42.359541457342104" lon="14.059397442259801"><ele>129.4</ele><time>2026-04-18T11:40:29.999Z</time></trkpt><trkpt lat="42.35961839754034" lon="14.059435627700557"><ele>131.0</ele><time>2026-04-18T11:40:30.999Z</time></trkpt><trkpt lat="42.35969238201561" lon="14.059470005733527"><ele>134.2</ele><time>2026-04-18T11:40:31.999Z</time></trkpt><trkpt lat="42.35976965706404" lon="14.05951581377481"><ele>137.39999999999998</ele><time>2026-04-18T11:40:33Z</time></trkpt><trkpt lat="42.35984966521729" lon="14.059497587539978"><ele>140.6</ele><time>2026-04-18T11:40:34Z</time></trkpt><trkpt lat="42.359907914560694" lon="14.0594609696641"><ele>143.79999999999998</ele><time>2026-04-18T11:40:36Z</time></trkpt><trkpt lat="42.35995440153052" lon="14.059377659484822"><ele>147.0</ele><time>2026-04-18T11:40:50Z</time></trkpt><trkpt lat="42.36006372326035" lon="14.059244316868982"><ele>145.79999999999998</ele><time>2026-04-18T11:40:51Z</time></trkpt><trkpt lat="42.36012927599952" lon="14.059083165131138"><ele>144.6</ele><time>2026-04-18T11:40:52Z</time></trkpt><trkpt lat="42.360213571985454" lon="14.058980638197045"><ele>143.39999999999998</ele><time>2026-04-18T11:40:54Z</time></trkpt><trkpt lat="42.36029493548189" lon="14.058893301546565"><ele>142.2</ele><time>2026-04-18T11:40:56Z</time></trkpt><trkpt lat="42.36034887814543" lon="14.058839854246994"><ele>141.0</ele><time>2026-04-18T11:40:57Z</time></trkpt><trkpt lat="42.36043548521658" lon="14.058758529965715"><ele>141.8</ele><time>2026-04-18T11:40:59Z</time></trkpt><trkpt lat="42.360571825165955" lon="14.058952178426582"><ele>142.6</ele><time>2026-04-18T11:41:02Z</time></trkpt><trkpt lat="42.360593074677446" lon="14.059041256052955"><ele>143.4</ele><time>2026-04-18T11:41:03Z</time></trkpt><trkpt lat="42.36062762845737" lon="14.059135401030243"><ele>144.2</ele><time>2026-04-18T11:41:04Z</time></trkpt><trkpt lat="42.36064210622577" lon="14.059231853967084"><ele>145.0</ele><time>2026-04-18T11:41:05Z</time></trkpt><trkpt lat="42.36071277456131" lon="14.059295629348764"><ele>145.0</ele><time>2026-04-18T11:41:06Z</time></trkpt><trkpt lat="42.36074814719" lon="14.059379230231054"><ele>145.0</ele><time>2026-04-18T11:41:07Z</time></trkpt><trkpt lat="42.360811924272234" lon="14.05944555137643"><ele>145.0</ele><time>2026-04-18T11:41:08Z</time></trkpt><trkpt lat="42.36087855852338" lon="14.059517120278093"><ele>145.0</ele><time>2026-04-18T11:41:09Z</time></trkpt><trkpt lat="42.360942533149895" lon="14.059582575480807"><ele>145.0</ele><time>2026-04-18T11:41:10Z</time></trkpt><trkpt lat="42.361008173517554" lon="14.059650760338963"><ele>145.0</ele><time>2026-04-18T11:41:11Z</time></trkpt><trkpt lat="42.36106667011971" lon="14.059733446747584"><ele>145.0</ele><time>2026-04-18T11:41:12Z</time></trkpt><trkpt lat="42.361108149355815" lon="14.059811129652907"><ele>145.0</ele><time>2026-04-18T11:41:13Z</time></trkpt><trkpt lat="42.36114459455316" lon="14.059883861965416"><ele>145.0</ele><time>2026-04-18T11:41:14Z</time></trkpt><trkpt lat="42.36117283374011" lon="14.059960785202545"><ele>145.0</ele><time>2026-04-18T11:41:15Z</time></trkpt><trkpt lat="42.36119735675972" lon="14.060042743229722"><ele>145.0</ele><time>2026-04-18T11:41:16Z</time></trkpt><trkpt lat="42.36122315956226" lon="14.060129412855632"><ele>145.0</ele><time>2026-04-18T11:41:17Z</time></trkpt><trkpt lat="42.36125409944697" lon="14.060218524636086"><ele>145.0</ele><time>2026-04-18T11:41:18Z</time></trkpt><trkpt lat="42.36127428194427" lon="14.060316545188025"><ele>143.66666666666669</ele><time>2026-04-18T11:41:19Z</time></trkpt><trkpt lat="42.36129297829196" lon="14.06041786201352"><ele>142.33333333333334</ele><time>2026-04-18T11:41:20Z</time></trkpt><trkpt lat="42.36132061182437" lon="14.060511889798422"><ele>141.0</ele><time>2026-04-18T11:41:21Z</time></trkpt><trkpt lat="42.36136636332995" lon="14.060598977284622"><ele>139.66666666666666</ele><time>2026-04-18T11:41:22Z</time></trkpt><trkpt lat="42.36142889368758" lon="14.060667690425477"><ele>138.33333333333331</ele><time>2026-04-18T11:41:23Z</time></trkpt><trkpt lat="42.36150349592124" lon="14.06070910852509"><ele>137.0</ele><time>2026-04-18T11:41:24Z</time></trkpt><trkpt lat="42.36158883675408" lon="14.060721728377263"><ele>137.0</ele><time>2026-04-18T11:41:25Z</time></trkpt><trkpt lat="42.36167253195561" lon="14.060721803161933"><ele>137.0</ele><time>2026-04-18T11:41:26Z</time></trkpt><trkpt lat="42.36175235591843" lon="14.060728383092501"><ele>137.0</ele><time>2026-04-18T11:41:27Z</time></trkpt><trkpt lat="42.361818436857895" lon="14.060738007002088"><ele>137.0</ele><time>2026-04-18T11:41:28Z</time></trkpt><trkpt lat="42.36193280439667" lon="14.06079941035994"><ele>137.0</ele><time>2026-04-18T11:41:30Z</time></trkpt><trkpt lat="42.361981912634576" lon="14.060869503824852"><ele>137.0</ele><time>2026-04-18T11:41:31Z</time></trkpt><trkpt lat="42.362020787321775" lon="14.06093805558235"><ele>135.0</ele><time>2026-04-18T11:41:32Z</time></trkpt><trkpt lat="42.36205719333456" lon="14.061059989663116"><ele>133.0</ele><time>2026-04-18T11:41:34Z</time></trkpt><trkpt lat="42.362040746449715" lon="14.061198574051465"><ele>131.0</ele><time>2026-04-18T11:41:36Z</time></trkpt><trkpt lat="42.362061517841646" lon="14.061335287523463"><ele>129.0</ele><time>2026-04-18T11:41:38Z</time></trkpt><trkpt lat="42.36202453556616" lon="14.061415218590328"><ele>127.0</ele><time>2026-04-18T11:41:39Z</time></trkpt><trkpt lat="42.36201248366778" lon="14.061551085585908"><ele>125.19999999999999</ele><time>2026-04-18T11:41:40Z</time></trkpt><trkpt lat="42.36201136897038" lon="14.061691276618118"><ele>123.39999999999999</ele><time>2026-04-18T11:41:41Z</time></trkpt><trkpt lat="42.36202865766084" lon="14.061832832207145"><ele>121.60000000000001</ele><time>2026-04-18T11:41:42Z</time></trkpt><trkpt lat="42.36206501921893" lon="14.061977013494014"><ele>119.80000000000001</ele><time>2026-04-18T11:41:43Z</time></trkpt><trkpt lat="42.36211510863522" lon="14.062120316379273"><ele>118.0</ele><time>2026-04-18T11:41:44Z</time></trkpt><trkpt lat="42.362150930843846" lon="14.062273278870249"><ele>118.0</ele><time>2026-04-18T11:41:45Z</time></trkpt><trkpt lat="42.36216843181421" lon="14.06243183062764"><ele>118.00000000000001</ele><time>2026-04-18T11:41:46Z</time></trkpt><trkpt lat="42.36216894592646" lon="14.062584186777462"><ele>118.00000000000001</ele><time>2026-04-18T11:41:47Z</time></trkpt><trkpt lat="42.36215137681871" lon="14.062727653739456"><ele>118.0</ele><time>2026-04-18T11:41:48Z</time></trkpt><trkpt lat="42.36215407139724" lon="14.062857795442982"><ele>118.0</ele><time>2026-04-18T11:41:49Z</time></trkpt><trkpt lat="42.36218742854799" lon="14.062992925568782"><ele>118.0</ele><time>2026-04-18T11:41:50Z</time></trkpt><trkpt lat="42.36223765280475" lon="14.063113880473304"><ele>118.00000000000001</ele><time>2026-04-18T11:41:51Z</time></trkpt><trkpt lat="42.362295637151895" lon="14.063231942659742"><ele>118.00000000000001</ele><time>2026-04-18T11:41:52Z</time></trkpt><trkpt lat="42.36234868857191" lon="14.063359976866398"><ele>118.0</ele><time>2026-04-18T11:41:53Z</time></trkpt><trkpt lat="42.36235940976064" lon="14.063509144060573"><ele>118.0</ele><time>2026-04-18T11:41:54Z</time></trkpt><trkpt lat="42.362336415838776" lon="14.063678343537955"><ele>118.0</ele><time>2026-04-18T11:41:55Z</time></trkpt><trkpt lat="42.362295149577925" lon="14.063838723098293"><ele>118.0</ele><time>2026-04-18T11:41:56Z</time></trkpt><trkpt lat="42.362301220721434" lon="14.063993852032542"><ele>118.0</ele><time>2026-04-18T11:41:57Z</time></trkpt><trkpt lat="42.36233742173739" lon="14.064140308683706"><ele>118.0</ele><time>2026-04-18T11:41:58Z</time></trkpt><trkpt lat="42.362390477089136" lon="14.064263909873409"><ele>117.2</ele><time>2026-04-18T11:41:59Z</time></trkpt><trkpt lat="42.3624207493785" lon="14.064373928653167"><ele>116.4</ele><time>2026-04-18T11:42:00Z</time></trkpt><trkpt lat="42.36242954547308" lon="14.06453217026824"><ele>115.60000000000001</ele><time>2026-04-18T11:42:02Z</time></trkpt><trkpt lat="42.362341275157654" lon="14.064691983236807"><ele>114.80000000000001</ele><time>2026-04-18T11:42:04Z</time></trkpt><trkpt lat="42.3622819642232" lon="14.064792940473527"><ele>114.0</ele><time>2026-04-18T11:42:05Z</time></trkpt><trkpt lat="42.36222517434897" lon="14.06487405357217"><ele>116.0</ele><time>2026-04-18T11:42:06Z</time></trkpt><trkpt lat="42.3621685319127" lon="14.064980969817702"><ele>118.0</ele><time>2026-04-18T11:42:07Z</time></trkpt><trkpt lat="42.36212157362339" lon="14.065095429418873"><ele>120.0</ele><time>2026-04-18T11:42:08Z</time></trkpt><trkpt lat="42.36209642414475" lon="14.065215260387912"><ele>122.0</ele><time>2026-04-18T11:42:09Z</time></trkpt><trkpt lat="42.36209605020855" lon="14.065356525577563"><ele>124.0</ele><time>2026-04-18T11:42:10Z</time></trkpt><trkpt lat="42.36212612858961" lon="14.06552618935665"><ele>124.0</ele><time>2026-04-18T11:42:11Z</time></trkpt><trkpt lat="42.36215563819352" lon="14.065718675293711"><ele>124.0</ele><time>2026-04-18T11:42:12Z</time></trkpt><trkpt lat="42.36217640351851" lon="14.065909210028742"><ele>124.0</ele><time>2026-04-18T11:42:13Z</time></trkpt><trkpt lat="42.36218329632474" lon="14.066095736033752"><ele>124.0</ele><time>2026-04-18T11:42:14Z</time></trkpt><trkpt lat="42.36219285449452" lon="14.066279113485525"><ele>124.75</ele><time>2026-04-18T11:42:15Z</time></trkpt><trkpt lat="42.3621962746596" lon="14.06646769713476"><ele>125.5</ele><time>2026-04-18T11:42:16Z</time></trkpt><trkpt lat="42.36222041348057" lon="14.066667899160375"><ele>126.25</ele><time>2026-04-18T11:42:17Z</time></trkpt><trkpt lat="42.36224022415263" lon="14.066863424486458"><ele>127.0</ele><time>2026-04-18T11:42:18Z</time></trkpt><trkpt lat="42.362260938625056" lon="14.067064315328572"><ele>127.0</ele><time>2026-04-18T11:42:19Z</time></trkpt><trkpt lat="42.36227756343431" lon="14.067269058839837"><ele>127.0</ele><time>2026-04-18T11:42:20Z</time></trkpt><trkpt lat="42.36231492821406" lon="14.067467731392147"><ele>127.0</ele><time>2026-04-18T11:42:21Z</time></trkpt><trkpt lat="42.362370919629825" lon="14.06765807061108"><ele>129.5</ele><time>2026-04-18T11:42:22Z</time></trkpt><trkpt lat="42.36244345607726" lon="14.067819611148758"><ele>132.0</ele><time>2026-04-18T11:42:23Z</time></trkpt><trkpt lat="42.362515164945684" lon="14.06795688691426"><ele>134.5</ele><time>2026-04-18T11:42:24Z</time></trkpt><trkpt lat="42.36257322457913" lon="14.068076719886742"><ele>137.0</ele><time>2026-04-18T11:42:25Z</time></trkpt><trkpt lat="42.3626160592874" lon="14.068185563821089"><ele>138.2857142857143</ele><time>2026-04-18T11:42:25.999Z</time></trkpt><trkpt lat="42.3626632796071" lon="14.068277270893706"><ele>139.57142857142858</ele><time>2026-04-18T11:42:26.999Z</time></trkpt><trkpt lat="42.36269104206423" lon="14.068371124802745"><ele>140.85714285714286</ele><time>2026-04-18T11:42:27.999Z</time></trkpt><trkpt lat="42.36272400228659" lon="14.068463146720168"><ele>142.14285714285717</ele><time>2026-04-18T11:42:28.999Z</time></trkpt><trkpt lat="42.36275718107735" lon="14.068557042498913"><ele>143.42857142857144</ele><time>2026-04-18T11:42:29.999Z</time></trkpt><trkpt lat="42.36278900106539" lon="14.068648307958414"><ele>144.71428571428572</ele><time>2026-04-18T11:42:30.999Z</time></trkpt><trkpt lat="42.36281553492635" lon="14.068727427086676"><ele>146.0</ele><time>2026-04-18T11:42:31.999Z</time></trkpt><trkpt lat="42.3628586414401" lon="14.068859237649024"><ele>146.0</ele><time>2026-04-18T11:42:33.999Z</time></trkpt><trkpt lat="42.36288633915842" lon="14.068956469925263"><ele>146.0</ele><time>2026-04-18T11:42:35.999Z</time></trkpt><trkpt lat="42.36292375060949" lon="14.069053806085412"><ele>146.0</ele><time>2026-04-18T11:42:36.999Z</time></trkpt><trkpt lat="42.36295911551034" lon="14.069153710154579"><ele>146.0</ele><time>2026-04-18T11:42:40Z</time></trkpt><trkpt lat="42.36288462730124" lon="14.069085421390877"><ele>146.0</ele><time>2026-04-18T11:44:29Z</time></trkpt><trkpt lat="42.36280687278145" lon="14.069109796554221"><ele>146.0</ele><time>2026-04-18T11:44:34Z</time></trkpt><trkpt lat="42.36271741481904" lon="14.06914670961252"><ele>147.0</ele><time>2026-04-18T11:44:41.999Z</time></trkpt><trkpt lat="42.36260954408753" lon="14.069214010383126"><ele>148.0</ele><time>2026-04-18T11:44:46Z</time></trkpt><trkpt lat="42.36248567724819" lon="14.069280132033485"><ele>149.0</ele><time>2026-04-18T11:44:47Z</time></trkpt><trkpt lat="42.36239618519379" lon="14.06937368752392"><ele>150.0</ele><time>2026-04-18T11:44:48Z</time></trkpt><trkpt lat="42.36232337767891" lon="14.06948856823211"><ele>150.0</ele><time>2026-04-18T11:44:49Z</time></trkpt><trkpt lat="42.362296715943884" lon="14.069575187437591"><ele>150.0</ele><time>2026-04-18T11:44:50Z</time></trkpt><trkpt lat="42.36225683356178" lon="14.069643149549636"><ele>150.0</ele><time>2026-04-18T11:44:51Z</time></trkpt><trkpt lat="42.36230986599199" lon="14.069729140726157"><ele>150.0</ele><time>2026-04-18T11:44:52Z</time></trkpt><trkpt lat="42.36228138509183" lon="14.069813139147763"><ele>150.0</ele><time>2026-04-18T11:44:56Z</time></trkpt><trkpt lat="42.362258723801204" lon="14.069910177810433"><ele>150.0</ele><time>2026-04-18T11:45:00Z</time></trkpt><trkpt lat="42.362207084999625" lon="14.070011781965835"><ele>150.0</ele><time>2026-04-18T11:45:04Z</time></trkpt><trkpt lat="42.36236913158838" lon="14.070040159511882"><ele>150.0</ele><time>2026-04-18T11:45:24Z</time></trkpt><trkpt lat="42.36241651907126" lon="14.069939077411071"><ele>150.0</ele><time>2026-04-18T11:52:22Z</time></trkpt><trkpt lat="42.36235579407638" lon="14.070034281611417"><ele>150.0</ele><time>2026-04-18T11:52:43.999Z</time></trkpt><trkpt lat="42.362287334720264" lon="14.069985269036382"><ele>150.0</ele><time>2026-04-18T11:53:13Z</time></trkpt><trkpt lat="42.36222516031593" lon="14.069874510130067"><ele>150.0</ele><time>2026-04-18T11:53:15Z</time></trkpt><trkpt lat="42.36221423731756" lon="14.06977791731315"><ele>150.0</ele><time>2026-04-18T11:53:17Z</time></trkpt><trkpt lat="42.362260427583124" lon="14.069712552786537"><ele>150.0</ele><time>2026-04-18T11:53:18Z</time></trkpt><trkpt lat="42.36231706403359" lon="14.069647306820956"><ele>150.0</ele><time>2026-04-18T11:53:19Z</time></trkpt><trkpt lat="42.36239134434909" lon="14.069565314738828"><ele>150.0</ele><time>2026-04-18T11:53:21Z</time></trkpt><trkpt lat="42.36247505682426" lon="14.069472238391924"><ele>150.0</ele><time>2026-04-18T11:53:23Z</time></trkpt><trkpt lat="42.36253192023743" lon="14.069390139475912"><ele>150.0</ele><time>2026-04-18T11:53:24Z</time></trkpt><trkpt lat="42.36259196732833" lon="14.069313798708666"><ele>150.0</ele><time>2026-04-18T11:53:25Z</time></trkpt><trkpt lat="42.36264778229525" lon="14.06923250349261"><ele>150.0</ele><time>2026-04-18T11:53:26Z</time></trkpt><trkpt lat="42.362701870595004" lon="14.069156029439196"><ele>150.0</ele><time>2026-04-18T11:53:27Z</time></trkpt><trkpt lat="42.36275011516627" lon="14.069086529558641"><ele>150.0</ele><time>2026-04-18T11:53:28Z</time></trkpt><trkpt lat="42.36279954019859" lon="14.069015381026915"><ele>150.0</ele><time>2026-04-18T11:53:30Z</time></trkpt><trkpt lat="42.36294297977255" lon="14.069152608801101"><ele>150.0</ele><time>2026-04-18T11:53:35Z</time></trkpt><trkpt lat="42.36302618176604" lon="14.069260162869227"><ele>150.0</ele><time>2026-04-18T11:53:36Z</time></trkpt><trkpt lat="42.363116130435536" lon="14.069396275030975"><ele>150.0</ele><time>2026-04-18T11:53:37Z</time></trkpt><trkpt lat="42.36320642023809" lon="14.069537379124759"><ele>150.0</ele><time>2026-04-18T11:53:38Z</time></trkpt><trkpt lat="42.36329580012282" lon="14.069676649937616"><ele>150.33333333333334</ele><time>2026-04-18T11:53:39Z</time></trkpt><trkpt lat="42.363385812661974" lon="14.069822470861501"><ele>150.66666666666669</ele><time>2026-04-18T11:53:40Z</time></trkpt><trkpt lat="42.36350702849271" lon="14.069974331147376"><ele>151.0</ele><time>2026-04-18T11:53:41Z</time></trkpt><trkpt lat="42.36362547840525" lon="14.070138805100468"><ele>151.0</ele><time>2026-04-18T11:53:42Z</time></trkpt><trkpt lat="42.36374247821706" lon="14.070301376663334"><ele>151.0</ele><time>2026-04-18T11:53:43Z</time></trkpt><trkpt lat="42.363858582642024" lon="14.070456902782704"><ele>151.0</ele><time>2026-04-18T11:53:44Z</time></trkpt><trkpt lat="42.36396940144304" lon="14.07061181199535"><ele>151.75</ele><time>2026-04-18T11:53:45Z</time></trkpt><trkpt lat="42.36407672267224" lon="14.070763786220628"><ele>152.5</ele><time>2026-04-18T11:53:46Z</time></trkpt><trkpt lat="42.36417324346243" lon="14.070889861249212"><ele>153.25</ele><time>2026-04-18T11:53:47Z</time></trkpt><trkpt lat="42.3642677258927" lon="14.071018162310958"><ele>154.0</ele><time>2026-04-18T11:53:48Z</time></trkpt><trkpt lat="42.364346122585495" lon="14.07112666726661"><ele>154.0</ele><time>2026-04-18T11:53:49Z</time></trkpt><trkpt lat="42.3644108641965" lon="14.071275595388865"><ele>154.0</ele><time>2026-04-18T11:53:50Z</time></trkpt><trkpt lat="42.364455222737945" lon="14.071399334520878"><ele>154.0</ele><time>2026-04-18T11:53:51Z</time></trkpt><trkpt lat="42.36447356027361" lon="14.071509809849003"><ele>154.0</ele><time>2026-04-18T11:53:52Z</time></trkpt><trkpt lat="42.36445649834287" lon="14.071623548811218"><ele>154.0</ele><time>2026-04-18T11:53:53Z</time></trkpt><trkpt lat="42.364449044293636" lon="14.071726645352332"><ele>154.0</ele><time>2026-04-18T11:53:54Z</time></trkpt><trkpt lat="42.36448045317083" lon="14.071801838374926"><ele>154.0</ele><time>2026-04-18T11:53:55Z</time></trkpt><trkpt lat="42.364546891929876" lon="14.071867476777504"><ele>154.0</ele><time>2026-04-18T11:53:56Z</time></trkpt><trkpt lat="42.36464254465125" lon="14.07192464861806"><ele>154.0</ele><time>2026-04-18T11:53:57Z</time></trkpt><trkpt lat="42.36475977035461" lon="14.071984624990362"><ele>154.0</ele><time>2026-04-18T11:53:58Z</time></trkpt><trkpt lat="42.364893216556766" lon="14.072052229558693"><ele>153.66666666666669</ele><time>2026-04-18T11:53:59Z</time></trkpt><trkpt lat="42.3650361255544" lon="14.072130168466016"><ele>153.33333333333334</ele><time>2026-04-18T11:54:00Z</time></trkpt><trkpt lat="42.36516748940519" lon="14.072229617699055"><ele>153.0</ele><time>2026-04-18T11:54:01Z</time></trkpt><trkpt lat="42.365306939113715" lon="14.072314420824027"><ele>153.0</ele><time>2026-04-18T11:54:02Z</time></trkpt><trkpt lat="42.36545099915995" lon="14.072394594838162"><ele>153.0</ele><time>2026-04-18T11:54:03Z</time></trkpt><trkpt lat="42.36559654578589" lon="14.072466778732545"><ele>153.0</ele><time>2026-04-18T11:54:04Z</time></trkpt><trkpt lat="42.36574737958094" lon="14.072578772552708"><ele>152.66666666666666</ele><time>2026-04-18T11:54:05Z</time></trkpt><trkpt lat="42.365890592791764" lon="14.072698049968695"><ele>152.33333333333331</ele><time>2026-04-18T11:54:06Z</time></trkpt><trkpt lat="42.36602505571911" lon="14.07281834168251"><ele>152.0</ele><time>2026-04-18T11:54:07Z</time></trkpt><trkpt lat="42.36614460273418" lon="14.072954145269552"><ele>152.0</ele><time>2026-04-18T11:54:08Z</time></trkpt><trkpt lat="42.366250633459295" lon="14.07306008683775"><ele>152.0</ele><time>2026-04-18T11:54:09Z</time></trkpt><trkpt lat="42.366339585781176" lon="14.073173323132206"><ele>152.0</ele><time>2026-04-18T11:54:10Z</time></trkpt><trkpt lat="42.3664104982047" lon="14.073301150750023"><ele>152.0</ele><time>2026-04-18T11:54:11Z</time></trkpt><trkpt lat="42.36644936266278" lon="14.073444704919272"><ele>152.0</ele><time>2026-04-18T11:54:12Z</time></trkpt><trkpt lat="42.36645873128135" lon="14.07360255015622"><ele>152.0</ele><time>2026-04-18T11:54:13Z</time></trkpt><trkpt lat="42.36644912753873" lon="14.073769572561273"><ele>152.0</ele><time>2026-04-18T11:54:14Z</time></trkpt><trkpt lat="42.36643673391978" lon="14.073962720968042"><ele>152.0</ele><time>2026-04-18T11:54:15Z</time></trkpt><trkpt lat="42.36642316312421" lon="14.074174215106481"><ele>151.33333333333331</ele><time>2026-04-18T11:54:16Z</time></trkpt><trkpt lat="42.36643466158653" lon="14.074389269887135"><ele>150.66666666666666</ele><time>2026-04-18T11:54:17Z</time></trkpt><trkpt lat="42.36640988683883" lon="14.074606346466751"><ele>150.0</ele><time>2026-04-18T11:54:18Z</time></trkpt><trkpt lat="42.3663812334249" lon="14.074814103675365"><ele>149.33333333333334</ele><time>2026-04-18T11:54:19Z</time></trkpt><trkpt lat="42.36637268646379" lon="14.075030033271887"><ele>148.66666666666669</ele><time>2026-04-18T11:54:20Z</time></trkpt><trkpt lat="42.36635858855276" lon="14.075267275488342"><ele>148.0</ele><time>2026-04-18T11:54:21Z</time></trkpt><trkpt lat="42.366335892692604" lon="14.075502885480597"><ele>147.25</ele><time>2026-04-18T11:54:22Z</time></trkpt><trkpt lat="42.36631969984355" lon="14.075713347131602"><ele>146.5</ele><time>2026-04-18T11:54:23Z</time></trkpt><trkpt lat="42.366299333967056" lon="14.075914917035657"><ele>145.75</ele><time>2026-04-18T11:54:24Z</time></trkpt><trkpt lat="42.36628266880265" lon="14.076101382202344"><ele>145.0</ele><time>2026-04-18T11:54:25Z</time></trkpt><trkpt lat="42.36627493466789" lon="14.076280938449685"><ele>144.66666666666669</ele><time>2026-04-18T11:54:26Z</time></trkpt><trkpt lat="42.36626505774804" lon="14.076471114883649"><ele>144.33333333333334</ele><time>2026-04-18T11:54:27Z</time></trkpt><trkpt lat="42.366254779666214" lon="14.07668169766555"><ele>144.0</ele><time>2026-04-18T11:54:28Z</time></trkpt><trkpt lat="42.36623823451648" lon="14.076887346726483"><ele>143.75</ele><time>2026-04-18T11:54:29Z</time></trkpt><trkpt lat="42.36622377588601" lon="14.07707490284508"><ele>143.5</ele><time>2026-04-18T11:54:30Z</time></trkpt><trkpt lat="42.36620655168406" lon="14.077258123117696"><ele>143.25</ele><time>2026-04-18T11:54:31Z</time></trkpt><trkpt lat="42.36618807060612" lon="14.077441801642236"><ele>143.0</ele><time>2026-04-18T11:54:32Z</time></trkpt><trkpt lat="42.36617358876378" lon="14.077600208585894"><ele>141.5</ele><time>2026-04-18T11:54:33Z</time></trkpt><trkpt lat="42.36616662292876" lon="14.07776437877242"><ele>140.0</ele><time>2026-04-18T11:54:34Z</time></trkpt><trkpt lat="42.36615793983104" lon="14.077951042741251"><ele>138.5</ele><time>2026-04-18T11:54:35Z</time></trkpt><trkpt lat="42.366140778590534" lon="14.078136799312993"><ele>137.0</ele><time>2026-04-18T11:54:36Z</time></trkpt><trkpt lat="42.366127201139534" lon="14.078340540527213"><ele>136.0</ele><time>2026-04-18T11:54:37Z</time></trkpt><trkpt lat="42.36611449904283" lon="14.078573600215051"><ele>135.0</ele><time>2026-04-18T11:54:38Z</time></trkpt><trkpt lat="42.36609525789328" lon="14.078846363991548"><ele>134.0</ele><time>2026-04-18T11:54:39Z</time></trkpt><trkpt lat="42.36607560665226" lon="14.07914287406586"><ele>134.0</ele><time>2026-04-18T11:54:40Z</time></trkpt><trkpt lat="42.366056402544274" lon="14.079461393070417"><ele>134.0</ele><time>2026-04-18T11:54:41Z</time></trkpt><trkpt lat="42.36603556015095" lon="14.079776348242168"><ele>133.0</ele><time>2026-04-18T11:54:42Z</time></trkpt><trkpt lat="42.36601716098417" lon="14.080056443231998"><ele>132.0</ele><time>2026-04-18T11:54:43Z</time></trkpt><trkpt lat="42.36599887222256" lon="14.080319947726023"><ele>131.0</ele><time>2026-04-18T11:54:44Z</time></trkpt><trkpt lat="42.3659771687313" lon="14.080573335112126"><ele>130.0</ele><time>2026-04-18T11:54:45Z</time></trkpt><trkpt lat="42.36596097335829" lon="14.080818316381649"><ele>129.0</ele><time>2026-04-18T11:54:46Z</time></trkpt><trkpt lat="42.36595151841729" lon="14.081053124513314"><ele>128.0</ele><time>2026-04-18T11:54:46.999Z</time></trkpt><trkpt lat="42.36594056424106" lon="14.081274350949517"><ele>128.0</ele><time>2026-04-18T11:54:47.999Z</time></trkpt><trkpt lat="42.36592717693902" lon="14.0814973405518"><ele>128.0</ele><time>2026-04-18T11:54:48.999Z</time></trkpt><trkpt lat="42.36591032717741" lon="14.081710972050365"><ele>128.0</ele><time>2026-04-18T11:54:49.999Z</time></trkpt><trkpt lat="42.365891815751795" lon="14.081925495258913"><ele>127.0</ele><time>2026-04-18T11:54:50.999Z</time></trkpt><trkpt lat="42.36587618340146" lon="14.082142712542389"><ele>126.0</ele><time>2026-04-18T11:54:51.999Z</time></trkpt><trkpt lat="42.36586535653949" lon="14.082359889510377"><ele>125.0</ele><time>2026-04-18T11:54:52.999Z</time></trkpt><trkpt lat="42.36584869970759" lon="14.082576479379895"><ele>124.66666666666666</ele><time>2026-04-18T11:54:53.999Z</time></trkpt><trkpt lat="42.36583223598166" lon="14.082790900826513"><ele>124.33333333333334</ele><time>2026-04-18T11:54:54.999Z</time></trkpt><trkpt lat="42.36581961795514" lon="14.083012427300083"><ele>124.0</ele><time>2026-04-18T11:54:55.999Z</time></trkpt><trkpt lat="42.36580767327024" lon="14.083228948679915"><ele>123.0</ele><time>2026-04-18T11:54:56.999Z</time></trkpt><trkpt lat="42.36579524359265" lon="14.083434156133707"><ele>122.0</ele><time>2026-04-18T11:54:57.999Z</time></trkpt><trkpt lat="42.36577900309278" lon="14.083627891586328"><ele>121.0</ele><time>2026-04-18T11:54:58.999Z</time></trkpt><trkpt lat="42.36576311404413" lon="14.083819266830025"><ele>120.0</ele><time>2026-04-18T11:54:59.999Z</time></trkpt><trkpt lat="42.36575023251917" lon="14.084013728163484"><ele>119.25</ele><time>2026-04-18T11:55:00.999Z</time></trkpt><trkpt lat="42.36573757795361" lon="14.084204615913833"><ele>118.5</ele><time>2026-04-18T11:55:01.999Z</time></trkpt><trkpt lat="42.36572342065331" lon="14.084390957159691"><ele>117.75</ele><time>2026-04-18T11:55:02.999Z</time></trkpt><trkpt lat="42.365706039348986" lon="14.084568458199069"><ele>117.0</ele><time>2026-04-18T11:55:03.999Z</time></trkpt><trkpt lat="42.365702552338696" lon="14.08474131239425"><ele>117.0</ele><time>2026-04-18T11:55:04.999Z</time></trkpt><trkpt lat="42.36569206513264" lon="14.084903500188187"><ele>117.0</ele><time>2026-04-18T11:55:05.999Z</time></trkpt><trkpt lat="42.36568052817595" lon="14.085062172287001"><ele>117.0</ele><time>2026-04-18T11:55:06.999Z</time></trkpt><trkpt lat="42.365670746711785" lon="14.085216477483478"><ele>117.0</ele><time>2026-04-18T11:55:07.999Z</time></trkpt><trkpt lat="42.36566042167194" lon="14.085365852786474"><ele>116.75</ele><time>2026-04-18T11:55:08.999Z</time></trkpt><trkpt lat="42.3656476313918" lon="14.08552678292055"><ele>116.5</ele><time>2026-04-18T11:55:09.999Z</time></trkpt><trkpt lat="42.365637491198704" lon="14.085688831799127"><ele>116.25</ele><time>2026-04-18T11:55:10.999Z</time></trkpt><trkpt lat="42.36562799170576" lon="14.085852358736808"><ele>116.0</ele><time>2026-04-18T11:55:11.999Z</time></trkpt><trkpt lat="42.36561680012362" lon="14.086009096136982"><ele>115.75</ele><time>2026-04-18T11:55:13Z</time></trkpt><trkpt lat="42.365607437114654" lon="14.086166992760436"><ele>115.5</ele><time>2026-04-18T11:55:14Z</time></trkpt><trkpt lat="42.36559976386471" lon="14.08632062612963"><ele>115.25</ele><time>2026-04-18T11:55:15Z</time></trkpt><trkpt lat="42.36558890746292" lon="14.086479795092862"><ele>115.0</ele><time>2026-04-18T11:55:16Z</time></trkpt><trkpt lat="42.365577431234996" lon="14.08666687365997"><ele>114.33333333333334</ele><time>2026-04-18T11:55:17Z</time></trkpt><trkpt lat="42.365563518059986" lon="14.086878552892937"><ele>113.66666666666666</ele><time>2026-04-18T11:55:18Z</time></trkpt><trkpt lat="42.36554036913535" lon="14.087147733242109"><ele>113.0</ele><time>2026-04-18T11:55:19Z</time></trkpt><trkpt lat="42.36551560700016" lon="14.08745177089131"><ele>112.0</ele><time>2026-04-18T11:55:20Z</time></trkpt><trkpt lat="42.36549630925707" lon="14.087759872699126"><ele>111.0</ele><time>2026-04-18T11:55:21Z</time></trkpt><trkpt lat="42.36547507667773" lon="14.08804933933226"><ele>110.0</ele><time>2026-04-18T11:55:22Z</time></trkpt><trkpt lat="42.36545175349297" lon="14.088349460400822"><ele>109.66666666666666</ele><time>2026-04-18T11:55:23Z</time></trkpt><trkpt lat="42.36543159276344" lon="14.088640990604103"><ele>109.33333333333334</ele><time>2026-04-18T11:55:24Z</time></trkpt><trkpt lat="42.36541022952737" lon="14.08891437231858"><ele>109.0</ele><time>2026-04-18T11:55:25Z</time></trkpt><trkpt lat="42.36538867246732" lon="14.089185111286715"><ele>108.66666666666667</ele><time>2026-04-18T11:55:26Z</time></trkpt><trkpt lat="42.36536757049187" lon="14.089451488905578"><ele>108.33333333333334</ele><time>2026-04-18T11:55:27Z</time></trkpt><trkpt lat="42.365350730045186" lon="14.089716556133963"><ele>108.0</ele><time>2026-04-18T11:55:28Z</time></trkpt><trkpt lat="42.365336272012115" lon="14.08996533380487"><ele>107.66666666666666</ele><time>2026-04-18T11:55:29Z</time></trkpt><trkpt lat="42.36532277452977" lon="14.090194937801767"><ele>107.33333333333333</ele><time>2026-04-18T11:55:30Z</time></trkpt><trkpt lat="42.3653077654141" lon="14.090403313446867"><ele>107.0</ele><time>2026-04-18T11:55:31Z</time></trkpt><trkpt lat="42.365295282102146" lon="14.090596315474196"><ele>106.25</ele><time>2026-04-18T11:55:32Z</time></trkpt><trkpt lat="42.36528918002084" lon="14.090771189784984"><ele>105.5</ele><time>2026-04-18T11:55:33Z</time></trkpt><trkpt lat="42.365282796723776" lon="14.090938890386521"><ele>104.75</ele><time>2026-04-18T11:55:34Z</time></trkpt><trkpt lat="42.365272829571076" lon="14.091093769628243"><ele>104.0</ele><time>2026-04-18T11:55:35Z</time></trkpt><trkpt lat="42.36526201747885" lon="14.091231817652504"><ele>104.0</ele><time>2026-04-18T11:55:36Z</time></trkpt><trkpt lat="42.365253471281164" lon="14.091358630625843"><ele>104.0</ele><time>2026-04-18T11:55:37Z</time></trkpt><trkpt lat="42.3652544089528" lon="14.09145794706999"><ele>104.0</ele><time>2026-04-18T11:55:38Z</time></trkpt><trkpt lat="42.365311797972716" lon="14.091577879877715"><ele>104.0</ele><time>2026-04-18T11:55:40Z</time></trkpt><trkpt lat="42.365413500275686" lon="14.091624755580897"><ele>104.0</ele><time>2026-04-18T11:55:42Z</time></trkpt><trkpt lat="42.36550042153222" lon="14.091620446045432"><ele>103.99999999999999</ele><time>2026-04-18T11:55:44Z</time></trkpt><trkpt lat="42.36559637873734" lon="14.09164160991268"><ele>104.0</ele><time>2026-04-18T11:55:47Z</time></trkpt><trkpt lat="42.36564759114581" lon="14.091584903833404"><ele>104.0</ele><time>2026-04-18T11:55:50Z</time></trkpt><trkpt lat="42.365556716814204" lon="14.091589588929397"><ele>104.0</ele><time>2026-04-18T12:05:16.999Z</time></trkpt><trkpt lat="42.365471901656036" lon="14.091582786047484"><ele>103.99999999999999</ele><time>2026-04-18T12:05:19.999Z</time></trkpt><trkpt lat="42.36543462639646" lon="14.091506092387217"><ele>104.0</ele><time>2026-04-18T12:05:22.999Z</time></trkpt><trkpt lat="42.36536042060889" lon="14.09128613520586"><ele>104.0</ele><time>2026-04-18T12:05:44Z</time></trkpt><trkpt lat="42.36537028695853" lon="14.091192490795887"><ele>104.0</ele><time>2026-04-18T12:05:45Z</time></trkpt><trkpt lat="42.36533763688934" lon="14.091015756597809"><ele>104.0</ele><time>2026-04-18T12:05:47Z</time></trkpt><trkpt lat="42.365308220703255" lon="14.090915098370209"><ele>104.0</ele><time>2026-04-18T12:05:48Z</time></trkpt><trkpt lat="42.365302965833294" lon="14.090778470784661"><ele>104.0</ele><time>2026-04-18T12:05:49Z</time></trkpt><trkpt lat="42.36532311369836" lon="14.090621545226522"><ele>104.75</ele><time>2026-04-18T12:05:50Z</time></trkpt><trkpt lat="42.3653387632709" lon="14.090454076985852"><ele>105.5</ele><time>2026-04-18T12:05:51Z</time></trkpt><trkpt lat="42.365350046016005" lon="14.090279965723752"><ele>106.25</ele><time>2026-04-18T12:05:52Z</time></trkpt><trkpt lat="42.365361503357306" lon="14.090083274747776"><ele>107.0</ele><time>2026-04-18T12:05:53Z</time></trkpt><trkpt lat="42.36537222608682" lon="14.089889416688827"><ele>107.25</ele><time>2026-04-18T12:05:54Z</time></trkpt><trkpt lat="42.36538750704817" lon="14.089706825372748"><ele>107.5</ele><time>2026-04-18T12:05:55Z</time></trkpt><trkpt lat="42.36539687623138" lon="14.089542357980982"><ele>107.75</ele><time>2026-04-18T12:05:56Z</time></trkpt><trkpt lat="42.365406677291695" lon="14.089400155999419"><ele>108.0</ele><time>2026-04-18T12:05:57Z</time></trkpt><trkpt lat="42.36541577561023" lon="14.089276016335813"><ele>108.0</ele><time>2026-04-18T12:05:58Z</time></trkpt><trkpt lat="42.36542001757865" lon="14.089166569780964"><ele>108.0</ele><time>2026-04-18T12:05:59Z</time></trkpt><trkpt lat="42.36542514974975" lon="14.089061138721709"><ele>108.0</ele><time>2026-04-18T12:06:00Z</time></trkpt><trkpt lat="42.36544043438844" lon="14.088950858271152"><ele>108.0</ele><time>2026-04-18T12:06:01Z</time></trkpt><trkpt lat="42.365453817880386" lon="14.088839525204397"><ele>108.0</ele><time>2026-04-18T12:06:02Z</time></trkpt><trkpt lat="42.365458806938136" lon="14.088719607590644"><ele>108.0</ele><time>2026-04-18T12:06:03Z</time></trkpt><trkpt lat="42.365463630799724" lon="14.088606209868871"><ele>108.2</ele><time>2026-04-18T12:06:04Z</time></trkpt><trkpt lat="42.36547197305118" lon="14.088488927643118"><ele>108.4</ele><time>2026-04-18T12:06:05Z</time></trkpt><trkpt lat="42.365481074076484" lon="14.08836161408452"><ele>108.60000000000001</ele><time>2026-04-18T12:06:06Z</time></trkpt><trkpt lat="42.365487144055635" lon="14.08822937556705"><ele>108.80000000000001</ele><time>2026-04-18T12:06:07Z</time></trkpt><trkpt lat="42.36549464611896" lon="14.088086057748676"><ele>109.0</ele><time>2026-04-18T12:06:08Z</time></trkpt><trkpt lat="42.36550622778181" lon="14.08794433072599"><ele>109.2</ele><time>2026-04-18T12:06:09Z</time></trkpt><trkpt lat="42.365517866008325" lon="14.08779981132777"><ele>109.4</ele><time>2026-04-18T12:06:10Z</time></trkpt><trkpt lat="42.36552837835317" lon="14.087652929610798"><ele>109.6</ele><time>2026-04-18T12:06:11Z</time></trkpt><trkpt lat="42.365536876901466" lon="14.087519692869272"><ele>109.8</ele><time>2026-04-18T12:06:12Z</time></trkpt><trkpt lat="42.36554987322105" lon="14.08736139894606"><ele>110.0</ele><time>2026-04-18T12:06:13Z</time></trkpt><trkpt lat="42.365566833797814" lon="14.087142984357452"><ele>111.0</ele><time>2026-04-18T12:06:14Z</time></trkpt><trkpt lat="42.36558166402273" lon="14.086884208443461"><ele>112.0</ele><time>2026-04-18T12:06:15Z</time></trkpt><trkpt lat="42.365601095619084" lon="14.08658391175843"><ele>113.0</ele><time>2026-04-18T12:06:16Z</time></trkpt><trkpt lat="42.36561788742619" lon="14.08626599765358"><ele>113.66666666666666</ele><time>2026-04-18T12:06:17Z</time></trkpt><trkpt lat="42.3656359207881" lon="14.08595943116444"><ele>114.33333333333334</ele><time>2026-04-18T12:06:18Z</time></trkpt><trkpt lat="42.36565654740175" lon="14.085677231011516"><ele>115.0</ele><time>2026-04-18T12:06:19Z</time></trkpt><trkpt lat="42.365678802183254" lon="14.085392378107015"><ele>115.33333333333334</ele><time>2026-04-18T12:06:20Z</time></trkpt><trkpt lat="42.365700302065896" lon="14.085102045915564"><ele>115.66666666666666</ele><time>2026-04-18T12:06:21Z</time></trkpt><trkpt lat="42.365717377347856" lon="14.084807788598733"><ele>116.0</ele><time>2026-04-18T12:06:22Z</time></trkpt><trkpt lat="42.3657357668364" lon="14.084507259919675"><ele>116.33333333333333</ele><time>2026-04-18T12:06:23Z</time></trkpt><trkpt lat="42.36575314343383" lon="14.084221256662104"><ele>116.66666666666666</ele><time>2026-04-18T12:06:24Z</time></trkpt><trkpt lat="42.365768103865484" lon="14.083941118528452"><ele>117.0</ele><time>2026-04-18T12:06:25Z</time></trkpt><trkpt lat="42.36578731383807" lon="14.083663229765648"><ele>118.5</ele><time>2026-04-18T12:06:26Z</time></trkpt><trkpt lat="42.365800069424736" lon="14.083368158259605"><ele>120.0</ele><time>2026-04-18T12:06:27Z</time></trkpt><trkpt lat="42.365847112807934" lon="14.083061093935981"><ele>122.0</ele><time>2026-04-18T12:06:28Z</time></trkpt><trkpt lat="42.36586975141278" lon="14.082731444302341"><ele>124.0</ele><time>2026-04-18T12:06:29Z</time></trkpt><trkpt lat="42.365893498920414" lon="14.082392288053576"><ele>124.5</ele><time>2026-04-18T12:06:30Z</time></trkpt><trkpt lat="42.36590930219224" lon="14.082016939363909"><ele>125.0</ele><time>2026-04-18T12:06:31Z</time></trkpt><trkpt lat="42.365939000164424" lon="14.081649745873332"><ele>126.5</ele><time>2026-04-18T12:06:32Z</time></trkpt><trkpt lat="42.365962165374114" lon="14.081324314814417"><ele>128.0</ele><time>2026-04-18T12:06:33Z</time></trkpt><trkpt lat="42.365984547780506" lon="14.081011341614744"><ele>129.0</ele><time>2026-04-18T12:06:34Z</time></trkpt><trkpt lat="42.36600793339333" lon="14.080706434068075"><ele>130.0</ele><time>2026-04-18T12:06:35Z</time></trkpt><trkpt lat="42.366029829702256" lon="14.08040804245651"><ele>131.0</ele><time>2026-04-18T12:06:36Z</time></trkpt><trkpt lat="42.36605070417576" lon="14.080108490506513"><ele>132.0</ele><time>2026-04-18T12:06:37Z</time></trkpt><trkpt lat="42.36607077247392" lon="14.079811241672171"><ele>133.0</ele><time>2026-04-18T12:06:38Z</time></trkpt><trkpt lat="42.36609484203951" lon="14.079513966544736"><ele>134.0</ele><time>2026-04-18T12:06:39Z</time></trkpt><trkpt lat="42.36611598534608" lon="14.079202528268054"><ele>134.0</ele><time>2026-04-18T12:06:40Z</time></trkpt><trkpt lat="42.36613599233045" lon="14.078876626375196"><ele>134.0</ele><time>2026-04-18T12:06:41Z</time></trkpt><trkpt lat="42.36615839485407" lon="14.078544856505198"><ele>135.0</ele><time>2026-04-18T12:06:42Z</time></trkpt><trkpt lat="42.36617901752289" lon="14.078234712562786"><ele>136.0</ele><time>2026-04-18T12:06:43Z</time></trkpt><trkpt lat="42.3661965649326" lon="14.077952968680012"><ele>137.0</ele><time>2026-04-18T12:06:44Z</time></trkpt><trkpt lat="42.36621696582378" lon="14.077651209966842"><ele>139.0</ele><time>2026-04-18T12:06:45Z</time></trkpt><trkpt lat="42.36623747949893" lon="14.077362401664757"><ele>141.0</ele><time>2026-04-18T12:06:46Z</time></trkpt><trkpt lat="42.36625813018218" lon="14.077079391837042"><ele>143.0</ele><time>2026-04-18T12:06:47Z</time></trkpt><trkpt lat="42.366278544541245" lon="14.076795041291076"><ele>143.33333333333331</ele><time>2026-04-18T12:06:48Z</time></trkpt><trkpt lat="42.36629822655895" lon="14.076514346857067"><ele>143.66666666666666</ele><time>2026-04-18T12:06:49Z</time></trkpt><trkpt lat="42.366313284207365" lon="14.076252919198648"><ele>144.0</ele><time>2026-04-18T12:06:50Z</time></trkpt><trkpt lat="42.36633191741349" lon="14.07598500367676"><ele>144.33333333333334</ele><time>2026-04-18T12:06:51Z</time></trkpt><trkpt lat="42.366347362256285" lon="14.075721330660281"><ele>144.66666666666669</ele><time>2026-04-18T12:06:52Z</time></trkpt><trkpt lat="42.36636361565477" lon="14.075464369525198"><ele>145.0</ele><time>2026-04-18T12:06:53Z</time></trkpt><trkpt lat="42.36638197166753" lon="14.075219782435719"><ele>146.0</ele><time>2026-04-18T12:06:54Z</time></trkpt><trkpt lat="42.36639552445193" lon="14.074996953134558"><ele>147.0</ele><time>2026-04-18T12:06:55Z</time></trkpt><trkpt lat="42.36641053931297" lon="14.074774054241734"><ele>148.0</ele><time>2026-04-18T12:06:56Z</time></trkpt><trkpt lat="42.36642606315261" lon="14.074546082195456"><ele>148.66666666666669</ele><time>2026-04-18T12:06:57Z</time></trkpt><trkpt lat="42.3664423575524" lon="14.074329124519094"><ele>149.33333333333334</ele><time>2026-04-18T12:06:58Z</time></trkpt><trkpt lat="42.36646275049563" lon="14.074110282784854"><ele>150.0</ele><time>2026-04-18T12:06:59Z</time></trkpt><trkpt lat="42.36647959686991" lon="14.073905403739785"><ele>150.5</ele><time>2026-04-18T12:06:59.999Z</time></trkpt><trkpt lat="42.36649408879169" lon="14.073717165497019"><ele>151.0</ele><time>2026-04-18T12:07:00.999Z</time></trkpt><trkpt lat="42.36649604476535" lon="14.073542080270736"><ele>151.5</ele><time>2026-04-18T12:07:01.999Z</time></trkpt><trkpt lat="42.36647037111504" lon="14.073370550503093"><ele>152.0</ele><time>2026-04-18T12:07:02.999Z</time></trkpt><trkpt lat="42.36641199521741" lon="14.073215909320222"><ele>152.0</ele><time>2026-04-18T12:07:03.999Z</time></trkpt><trkpt lat="42.36632894014742" lon="14.073073934261666"><ele>152.0</ele><time>2026-04-18T12:07:04.999Z</time></trkpt><trkpt lat="42.36621708635804" lon="14.07294989244285"><ele>152.0</ele><time>2026-04-18T12:07:05.999Z</time></trkpt><trkpt lat="42.36608926125296" lon="14.072836090256239"><ele>152.0</ele><time>2026-04-18T12:07:06.999Z</time></trkpt><trkpt lat="42.36597638937097" lon="14.072743275721775"><ele>152.0</ele><time>2026-04-18T12:07:07.999Z</time></trkpt><trkpt lat="42.36588023467622" lon="14.072657322291105"><ele>152.0</ele><time>2026-04-18T12:07:08.999Z</time></trkpt><trkpt lat="42.3657927487393" lon="14.072579082269149"><ele>152.0</ele><time>2026-04-18T12:07:09.999Z</time></trkpt><trkpt lat="42.36570946250207" lon="14.072510428432407"><ele>152.0</ele><time>2026-04-18T12:07:10.999Z</time></trkpt><trkpt lat="42.365628170180855" lon="14.072455441537228"><ele>152.0</ele><time>2026-04-18T12:07:11.999Z</time></trkpt><trkpt lat="42.365548130139054" lon="14.072406455811826"><ele>152.2</ele><time>2026-04-18T12:07:12.999Z</time></trkpt><trkpt lat="42.36547551722374" lon="14.072370017614373"><ele>152.39999999999998</ele><time>2026-04-18T12:07:13.999Z</time></trkpt><trkpt lat="42.36540826290643" lon="14.072331982403098"><ele>152.60000000000002</ele><time>2026-04-18T12:07:14.999Z</time></trkpt><trkpt lat="42.36533378619914" lon="14.072282462471103"><ele>152.8</ele><time>2026-04-18T12:07:15.999Z</time></trkpt><trkpt lat="42.365244126140325" lon="14.072233334887535"><ele>153.0</ele><time>2026-04-18T12:07:16.999Z</time></trkpt><trkpt lat="42.365126441187485" lon="14.072169343365625"><ele>153.0</ele><time>2026-04-18T12:07:17.999Z</time></trkpt><trkpt lat="42.365047794091495" lon="14.072083933947674"><ele>153.0</ele><time>2026-04-18T12:07:18.999Z</time></trkpt><trkpt lat="42.36490488187056" lon="14.071991821230467"><ele>153.0</ele><time>2026-04-18T12:07:19.999Z</time></trkpt><trkpt lat="42.3647807231327" lon="14.071909174787748"><ele>153.0</ele><time>2026-04-18T12:07:20.999Z</time></trkpt><trkpt lat="42.364677451076595" lon="14.071824756603332"><ele>153.20000000000002</ele><time>2026-04-18T12:07:21.999Z</time></trkpt><trkpt lat="42.364580726043634" lon="14.071768515153316"><ele>153.4</ele><time>2026-04-18T12:07:22.999Z</time></trkpt><trkpt lat="42.36452731313203" lon="14.07170424128724"><ele>153.60000000000002</ele><time>2026-04-18T12:07:23.999Z</time></trkpt><trkpt lat="42.36446790278288" lon="14.07159224457242"><ele>153.8</ele><time>2026-04-18T12:07:24.999Z</time></trkpt><trkpt lat="42.3644375421051" lon="14.071439159904294"><ele>154.0</ele><time>2026-04-18T12:07:25.999Z</time></trkpt><trkpt lat="42.3643765392054" lon="14.071242798262567"><ele>154.0</ele><time>2026-04-18T12:07:26.999Z</time></trkpt><trkpt lat="42.364351463210106" lon="14.07103574031221"><ele>154.0</ele><time>2026-04-18T12:07:27.999Z</time></trkpt><trkpt lat="42.36425748195611" lon="14.0709044625388"><ele>154.0</ele><time>2026-04-18T12:07:28.999Z</time></trkpt><trkpt lat="42.36411078530572" lon="14.070731982275476"><ele>153.0</ele><time>2026-04-18T12:07:29.999Z</time></trkpt><trkpt lat="42.36392188283694" lon="14.07054220137812"><ele>152.0</ele><time>2026-04-18T12:07:30.999Z</time></trkpt><trkpt lat="42.363771640816836" lon="14.070354734270174"><ele>151.0</ele><time>2026-04-18T12:07:31.999Z</time></trkpt><trkpt lat="42.36364852431875" lon="14.070161371245332"><ele>151.0</ele><time>2026-04-18T12:07:32.999Z</time></trkpt><trkpt lat="42.363540022506385" lon="14.070006972473536"><ele>151.0</ele><time>2026-04-18T12:07:33.999Z</time></trkpt><trkpt lat="42.36342936293115" lon="14.06986298252574"><ele>151.0</ele><time>2026-04-18T12:07:34.999Z</time></trkpt><trkpt lat="42.36333591746213" lon="14.069730034507137"><ele>151.0</ele><time>2026-04-18T12:07:35.999Z</time></trkpt><trkpt lat="42.36326213998433" lon="14.069621604218694"><ele>150.8</ele><time>2026-04-18T12:07:36.999Z</time></trkpt><trkpt lat="42.363170000813064" lon="14.069498952645695"><ele>150.6</ele><time>2026-04-18T12:07:37.999Z</time></trkpt><trkpt lat="42.3630939676773" lon="14.069412715200926"><ele>150.4</ele><time>2026-04-18T12:07:38.999Z</time></trkpt><trkpt lat="42.36302617138274" lon="14.0693030596334"><ele>150.2</ele><time>2026-04-18T12:07:39.999Z</time></trkpt><trkpt lat="42.36295805309577" lon="14.06922000504069"><ele>150.0</ele><time>2026-04-18T12:07:40.999Z</time></trkpt><trkpt lat="42.36290043433851" lon="14.06913912485158"><ele>150.0</ele><time>2026-04-18T12:07:41.999Z</time></trkpt><trkpt lat="42.362846987000026" lon="14.06906014626311"><ele>150.0</ele><time>2026-04-18T12:07:42.999Z</time></trkpt><trkpt lat="42.362773494212576" lon="14.06905370931302"><ele>150.0</ele><time>2026-04-18T12:07:44.999Z</time></trkpt><trkpt lat="42.362709132070364" lon="14.06907150658028"><ele>150.0</ele><time>2026-04-18T12:07:47Z</time></trkpt><trkpt lat="42.36265289636376" lon="14.069165584080267"><ele>150.0</ele><time>2026-04-18T12:07:48Z</time></trkpt><trkpt lat="42.36258527586113" lon="14.069292112117864"><ele>150.0</ele><time>2026-04-18T12:07:49Z</time></trkpt><trkpt lat="42.36249823105014" lon="14.069409925877414"><ele>150.0</ele><time>2026-04-18T12:07:50Z</time></trkpt><trkpt lat="42.36241382570935" lon="14.069494790452774"><ele>150.0</ele><time>2026-04-18T12:07:51Z</time></trkpt><trkpt lat="42.36233742123652" lon="14.069608750135144"><ele>150.0</ele><time>2026-04-18T12:07:52Z</time></trkpt><trkpt lat="42.36226227086521" lon="14.069695060651195"><ele>150.0</ele><time>2026-04-18T12:07:53Z</time></trkpt><trkpt lat="42.36220274537667" lon="14.069747060789192"><ele>150.0</ele><time>2026-04-18T12:07:54Z</time></trkpt><trkpt lat="42.3621322510486" lon="14.069849483804973"><ele>150.0</ele><time>2026-04-18T12:07:56Z</time></trkpt><trkpt lat="42.36218420372813" lon="14.069976852762709"><ele>150.0</ele><time>2026-04-18T12:07:58Z</time></trkpt><trkpt lat="42.362247111523104" lon="14.07002358920775"><ele>150.0</ele><time>2026-04-18T12:08:00Z</time></trkpt><trkpt lat="42.362371815848014" lon="14.070021636260174"><ele>150.0</ele><time>2026-04-18T12:08:26Z</time></trkpt><trkpt lat="42.36230634376697" lon="14.069994515723796"><ele>150.0</ele><time>2026-04-18T12:14:53Z</time></trkpt><trkpt lat="42.3622563116098" lon="14.069938568959481"><ele>150.0</ele><time>2026-04-18T12:14:56.999Z</time></trkpt><trkpt lat="42.36220907601997" lon="14.069876641401674"><ele>149.99999999999997</ele><time>2026-04-18T12:15:01.999Z</time></trkpt><trkpt lat="42.3621616152867" lon="14.069808029310387"><ele>150.0</ele><time>2026-04-18T12:15:06.999Z</time></trkpt><trkpt lat="42.362216998490815" lon="14.069870313702436"><ele>150.0</ele><time>2026-04-18T12:16:00.999Z</time></trkpt><trkpt lat="42.36226184577339" lon="14.069939144143884"><ele>150.0</ele><time>2026-04-18T12:16:06.999Z</time></trkpt><trkpt lat="42.36230535644174" lon="14.070005885313531"><ele>150.0</ele><time>2026-04-18T12:16:13Z</time></trkpt><trkpt lat="42.362358819312284" lon="14.070063965815015"><ele>149.99999999999997</ele><time>2026-04-18T12:16:18Z</time></trkpt><trkpt lat="42.36238691975725" lon="14.069982934725823"><ele>150.0</ele><time>2026-04-18T12:16:24Z</time></trkpt><trkpt lat="42.36241634259766" lon="14.069904468884443"><ele>150.0</ele><time>2026-04-18T12:16:34Z</time></trkpt><trkpt lat="42.36235514539902" lon="14.069963721788918"><ele>150.0</ele><time>2026-04-18T12:18:14.999Z</time></trkpt><trkpt lat="42.36231141058132" lon="14.070045241753267"><ele>150.0</ele><time>2026-04-18T12:18:30Z</time></trkpt><trkpt lat="42.36223970746445" lon="14.069961213654246"><ele>150.0</ele><time>2026-04-18T12:19:05.999Z</time></trkpt><trkpt lat="42.36220241090343" lon="14.069873063799294"><ele>150.0</ele><time>2026-04-18T12:19:07.999Z</time></trkpt><trkpt lat="42.36224200542196" lon="14.069743082292176"><ele>150.0</ele><time>2026-04-18T12:19:09.999Z</time></trkpt><trkpt lat="42.36228980821524" lon="14.06967204914025"><ele>149.99999999999997</ele><time>2026-04-18T12:19:10.999Z</time></trkpt><trkpt lat="42.36234284856857" lon="14.069617681758048"><ele>150.0</ele><time>2026-04-18T12:19:11.999Z</time></trkpt><trkpt lat="42.36239599499496" lon="14.069561266005532"><ele>150.0</ele><time>2026-04-18T12:19:12.999Z</time></trkpt><trkpt lat="42.36243687409523" lon="14.069490298528915"><ele>150.0</ele><time>2026-04-18T12:19:13.999Z</time></trkpt><trkpt lat="42.362490996632104" lon="14.069421672336318"><ele>150.0</ele><time>2026-04-18T12:19:14.999Z</time></trkpt><trkpt lat="42.36253838194997" lon="14.06936322563276"><ele>149.99999999999997</ele><time>2026-04-18T12:19:15.999Z</time></trkpt><trkpt lat="42.3625881904504" lon="14.069297437254738"><ele>150.0</ele><time>2026-04-18T12:19:16.999Z</time></trkpt><trkpt lat="42.36267193399479" lon="14.06917955042656"><ele>150.0</ele><time>2026-04-18T12:19:18.999Z</time></trkpt><trkpt lat="42.3627368974482" lon="14.069092716630042"><ele>150.0</ele><time>2026-04-18T12:19:20.999Z</time></trkpt><trkpt lat="42.36288691735954" lon="14.069136103362245"><ele>150.0</ele><time>2026-04-18T12:19:28.999Z</time></trkpt><trkpt lat="42.36296634870561" lon="14.06927434004303"><ele>150.0</ele><time>2026-04-18T12:19:29.999Z</time></trkpt><trkpt lat="42.3630345674645" lon="14.069357649690543"><ele>149.16666666666666</ele><time>2026-04-18T12:19:30.999Z</time></trkpt><trkpt lat="42.36310077895482" lon="14.069436523212532"><ele>148.33333333333334</ele><time>2026-04-18T12:19:31.999Z</time></trkpt><trkpt lat="42.36316378184329" lon="14.069537953305272"><ele>147.5</ele><time>2026-04-18T12:19:33.999Z</time></trkpt><trkpt lat="42.363119977496645" lon="14.069618053267634"><ele>146.66666666666669</ele><time>2026-04-18T12:22:00.036Z</time></trkpt><trkpt lat="42.3630977745455" lon="14.069742310583397"><ele>145.83333333333334</ele><time>2026-04-18T12:22:00.999Z</time></trkpt><trkpt lat="42.36317494457328" lon="14.069699979593578"><ele>145.0</ele><time>2026-04-18T12:22:01.999Z</time></trkpt><trkpt lat="42.363119304013814" lon="14.069641345580399"><ele>145.0</ele><time>2026-04-18T12:22:23.999Z</time></trkpt><trkpt lat="42.3630646131045" lon="14.069581757351038"><ele>145.0</ele><time>2026-04-18T12:22:25.999Z</time></trkpt><trkpt lat="42.36302042493945" lon="14.069511229169693"><ele>145.0</ele><time>2026-04-18T12:22:29Z</time></trkpt><trkpt lat="42.36296553958752" lon="14.069404638624912"><ele>145.0</ele><time>2026-04-18T12:22:32Z</time></trkpt><trkpt lat="42.36290818698247" lon="14.069314575677415"><ele>145.0</ele><time>2026-04-18T12:22:34Z</time></trkpt><trkpt lat="42.36287392203328" lon="14.069229337785822"><ele>145.0</ele><time>2026-04-18T12:22:35Z</time></trkpt><trkpt lat="42.36282192797568" lon="14.069167831949473"><ele>145.16666666666669</ele><time>2026-04-18T12:22:36Z</time></trkpt><trkpt lat="42.3627697853027" lon="14.069100982800427"><ele>145.33333333333334</ele><time>2026-04-18T12:22:38Z</time></trkpt><trkpt lat="42.36265460294314" lon="14.069133486879517"><ele>145.5</ele><time>2026-04-18T12:22:41Z</time></trkpt><trkpt lat="42.36259992843932" lon="14.069203123108133"><ele>145.66666666666666</ele><time>2026-04-18T12:22:42Z</time></trkpt><trkpt lat="42.3625411373406" lon="14.069278002444555"><ele>145.83333333333331</ele><time>2026-04-18T12:22:43Z</time></trkpt><trkpt lat="42.362477002782356" lon="14.069359943259188"><ele>146.0</ele><time>2026-04-18T12:22:44Z</time></trkpt><trkpt lat="42.36241036727104" lon="14.069446729843737"><ele>146.33333333333331</ele><time>2026-04-18T12:22:45Z</time></trkpt><trkpt lat="42.362344176872696" lon="14.06953293670474"><ele>146.66666666666666</ele><time>2026-04-18T12:22:46Z</time></trkpt><trkpt lat="42.36229187573712" lon="14.069601054100247"><ele>147.0</ele><time>2026-04-18T12:22:47Z</time></trkpt><trkpt lat="42.36224060623271" lon="14.069667827861759"><ele>147.33333333333334</ele><time>2026-04-18T12:22:48Z</time></trkpt><trkpt lat="42.362174582750235" lon="14.069773037629787"><ele>147.66666666666669</ele><time>2026-04-18T12:22:50Z</time></trkpt><trkpt lat="42.3621199732165" lon="14.069824941181201"><ele>148.0</ele><time>2026-04-18T12:22:53Z</time></trkpt><trkpt lat="42.362077674015644" lon="14.069747170844144"><ele>148.0</ele><time>2026-04-18T12:23:30.999Z</time></trkpt><trkpt lat="42.3620911657578" lon="14.069850440815236"><ele>148.0</ele><time>2026-04-18T12:23:39.999Z</time></trkpt><trkpt lat="42.36216170845745" lon="14.06978036237437"><ele>148.0</ele><time>2026-04-18T12:23:44.999Z</time></trkpt><trkpt lat="42.36223059482555" lon="14.069710907775594"><ele>148.0</ele><time>2026-04-18T12:23:47.999Z</time></trkpt><trkpt lat="42.36232043973214" lon="14.06962547716755"><ele>148.0</ele><time>2026-04-18T12:23:49.999Z</time></trkpt><trkpt lat="42.36239794506635" lon="14.069526079037239"><ele>148.33333333333334</ele><time>2026-04-18T12:23:51.999Z</time></trkpt><trkpt lat="42.36245492103353" lon="14.069437800041136"><ele>148.66666666666669</ele><time>2026-04-18T12:23:53.999Z</time></trkpt><trkpt lat="42.362527351531945" lon="14.069340668600688"><ele>149.0</ele><time>2026-04-18T12:23:55.999Z</time></trkpt><trkpt lat="42.362593404370145" lon="14.069249478689692"><ele>149.33333333333334</ele><time>2026-04-18T12:23:57.999Z</time></trkpt><trkpt lat="42.36264311381107" lon="14.069181470892875"><ele>149.66666666666666</ele><time>2026-04-18T12:23:59.999Z</time></trkpt><trkpt lat="42.36271074603027" lon="14.069107029286194"><ele>150.0</ele><time>2026-04-18T12:24:01.999Z</time></trkpt><trkpt lat="42.36275262878646" lon="14.069035490025064"><ele>150.0</ele><time>2026-04-18T12:24:03.999Z</time></trkpt><trkpt lat="42.362823248859826" lon="14.069002831405333"><ele>150.0</ele><time>2026-04-18T12:24:13.999Z</time></trkpt><trkpt lat="42.362881863765075" lon="14.069038989004792"><ele>150.0</ele><time>2026-04-18T12:24:15.999Z</time></trkpt><trkpt lat="42.36293717696485" lon="14.069130721322525"><ele>150.0</ele><time>2026-04-18T12:24:16.999Z</time></trkpt><trkpt lat="42.36298941084118" lon="14.069231583131545"><ele>150.0</ele><time>2026-04-18T12:24:17.999Z</time></trkpt><trkpt lat="42.36301220869202" lon="14.069348921904615"><ele>150.0</ele><time>2026-04-18T12:24:18.999Z</time></trkpt><trkpt lat="42.3630696401277" lon="14.069428326505747"><ele>149.16666666666666</ele><time>2026-04-18T12:24:19.999Z</time></trkpt><trkpt lat="42.363124350920955" lon="14.069503716425054"><ele>148.33333333333334</ele><time>2026-04-18T12:24:20.999Z</time></trkpt><trkpt lat="42.36317909198874" lon="14.069579148052522"><ele>147.5</ele><time>2026-04-18T12:24:21.999Z</time></trkpt><trkpt lat="42.363234188088974" lon="14.069655068907416"><ele>146.66666666666669</ele><time>2026-04-18T12:24:22.999Z</time></trkpt><trkpt lat="42.363291584008266" lon="14.06973415884605"><ele>145.83333333333334</ele><time>2026-04-18T12:24:23.999Z</time></trkpt><trkpt lat="42.363348063843254" lon="14.069811986615443"><ele>145.0</ele><time>2026-04-18T12:24:24.999Z</time></trkpt><trkpt lat="42.363406120513716" lon="14.069892629505613"><ele>146.0</ele><time>2026-04-18T12:24:25.999Z</time></trkpt><trkpt lat="42.36346540885619" lon="14.069972111266779"><ele>147.0</ele><time>2026-04-18T12:24:26.999Z</time></trkpt><trkpt lat="42.36352732885448" lon="14.070055121029242"><ele>148.0</ele><time>2026-04-18T12:24:27.999Z</time></trkpt><trkpt lat="42.36359150172811" lon="14.070141150977841"><ele>149.0</ele><time>2026-04-18T12:24:28.999Z</time></trkpt><trkpt lat="42.36364941456349" lon="14.070221266908492"><ele>150.0</ele><time>2026-04-18T12:24:29.999Z</time></trkpt><trkpt lat="42.363707642874196" lon="14.070303437800463"><ele>151.0</ele><time>2026-04-18T12:24:30.999Z</time></trkpt><trkpt lat="42.36376725612761" lon="14.070386340807035"><ele>151.0</ele><time>2026-04-18T12:24:31.999Z</time></trkpt><trkpt lat="42.36382934378059" lon="14.070471356604529"><ele>151.0</ele><time>2026-04-18T12:24:32.999Z</time></trkpt><trkpt lat="42.36388790789025" lon="14.070551282556245"><ele>151.0</ele><time>2026-04-18T12:24:33.999Z</time></trkpt><trkpt lat="42.36394488584154" lon="14.070629043783706"><ele>151.0</ele><time>2026-04-18T12:24:34.999Z</time></trkpt><trkpt lat="42.36400758862224" lon="14.070714618033577"><ele>151.0</ele><time>2026-04-18T12:24:35.999Z</time></trkpt><trkpt lat="42.36405598870485" lon="14.070780672528707"><ele>151.0</ele><time>2026-04-18T12:24:36.999Z</time></trkpt><trkpt lat="42.36410400366988" lon="14.070846201430545"><ele>151.42857142857144</ele><time>2026-04-18T12:24:37.999Z</time></trkpt><trkpt lat="42.36415668480801" lon="14.070918098751646"><ele>151.85714285714286</ele><time>2026-04-18T12:24:38.999Z</time></trkpt><trkpt lat="42.36420650913936" lon="14.070987728992577"><ele>152.28571428571428</ele><time>2026-04-18T12:24:39.999Z</time></trkpt><trkpt lat="42.36425385802142" lon="14.071057330713215"><ele>152.71428571428572</ele><time>2026-04-18T12:24:40.999Z</time></trkpt><trkpt lat="42.36430009884286" lon="14.07113115790558"><ele>153.14285714285714</ele><time>2026-04-18T12:24:41.999Z</time></trkpt><trkpt lat="42.36434130828863" lon="14.071211635872846"><ele>153.57142857142858</ele><time>2026-04-18T12:24:42.999Z</time></trkpt><trkpt lat="42.36437402876323" lon="14.071296031134684"><ele>154.0</ele><time>2026-04-18T12:24:43.999Z</time></trkpt><trkpt lat="42.364394462466436" lon="14.071379959492697"><ele>154.0</ele><time>2026-04-18T12:24:44.999Z</time></trkpt><trkpt lat="42.36441704422445" lon="14.071539139005862"><ele>154.0</ele><time>2026-04-18T12:24:46.999Z</time></trkpt><trkpt lat="42.36443772706329" lon="14.0717016775808"><ele>154.0</ele><time>2026-04-18T12:24:48.999Z</time></trkpt><trkpt lat="42.364493660996146" lon="14.071772888284512"><ele>154.0</ele><time>2026-04-18T12:24:49.999Z</time></trkpt><trkpt lat="42.364507835995305" lon="14.07185849028406"><ele>154.0</ele><time>2026-04-18T12:24:50.999Z</time></trkpt><trkpt lat="42.36464770752534" lon="14.07186266326978"><ele>153.8</ele><time>2026-04-18T12:24:51.999Z</time></trkpt><trkpt lat="42.364726315449225" lon="14.071937243953816"><ele>153.60000000000002</ele><time>2026-04-18T12:24:52.999Z</time></trkpt><trkpt lat="42.364803931117834" lon="14.071990552521264"><ele>153.4</ele><time>2026-04-18T12:24:53.999Z</time></trkpt><trkpt lat="42.364880497244705" lon="14.072043140434486"><ele>153.20000000000002</ele><time>2026-04-18T12:24:54.999Z</time></trkpt><trkpt lat="42.36495595177386" lon="14.072093710038493"><ele>153.0</ele><time>2026-04-18T12:24:55.999Z</time></trkpt><trkpt lat="42.36504382223022" lon="14.072151354381463"><ele>153.0</ele><time>2026-04-18T12:24:56.999Z</time></trkpt><trkpt lat="42.36512827955033" lon="14.072205340671744"><ele>153.0</ele><time>2026-04-18T12:24:57.999Z</time></trkpt><trkpt lat="42.365212811994624" lon="14.072257679462046"><ele>153.0</ele><time>2026-04-18T12:24:58.999Z</time></trkpt><trkpt lat="42.36529657786582" lon="14.072308390383924"><ele>153.0</ele><time>2026-04-18T12:24:59.999Z</time></trkpt><trkpt lat="42.36538272948318" lon="14.072358532256906"><ele>153.0</ele><time>2026-04-18T12:25:00.999Z</time></trkpt><trkpt lat="42.36547514823297" lon="14.072407126357975"><ele>152.8</ele><time>2026-04-18T12:25:01.999Z</time></trkpt><trkpt lat="42.365576880213204" lon="14.072459917622238"><ele>152.60000000000002</ele><time>2026-04-18T12:25:02.999Z</time></trkpt><trkpt lat="42.365659721728164" lon="14.072522164774885"><ele>152.39999999999998</ele><time>2026-04-18T12:25:03.999Z</time></trkpt><trkpt lat="42.3657483542307" lon="14.072595754965926"><ele>152.2</ele><time>2026-04-18T12:25:04.999Z</time></trkpt><trkpt lat="42.36583858820021" lon="14.072674212998164"><ele>152.0</ele><time>2026-04-18T12:25:05.999Z</time></trkpt><trkpt lat="42.365930328432746" lon="14.07275676968322"><ele>152.0</ele><time>2026-04-18T12:25:06.999Z</time></trkpt><trkpt lat="42.366021721764106" lon="14.072839607921257"><ele>152.0</ele><time>2026-04-18T12:25:07.999Z</time></trkpt><trkpt lat="42.36611034475972" lon="14.07292157305674"><ele>152.0</ele><time>2026-04-18T12:25:08.999Z</time></trkpt><trkpt lat="42.36620221654728" lon="14.073008924082153"><ele>152.0</ele><time>2026-04-18T12:25:09.999Z</time></trkpt><trkpt lat="42.366287676196315" lon="14.073107655208883"><ele>152.0</ele><time>2026-04-18T12:25:10.999Z</time></trkpt><trkpt lat="42.36635780038585" lon="14.073196365453464"><ele>152.0</ele><time>2026-04-18T12:25:11.999Z</time></trkpt><trkpt lat="42.36641480741615" lon="14.073308919792835"><ele>152.0</ele><time>2026-04-18T12:25:12.999Z</time></trkpt><trkpt lat="42.36644358728022" lon="14.073424289537794"><ele>152.0</ele><time>2026-04-18T12:25:13.999Z</time></trkpt><trkpt lat="42.366458037307325" lon="14.073553181681616"><ele>152.0</ele><time>2026-04-18T12:25:14.999Z</time></trkpt><trkpt lat="42.36645510034287" lon="14.073681890919199"><ele>152.0</ele><time>2026-04-18T12:25:15.999Z</time></trkpt><trkpt lat="42.366445565811716" lon="14.073825080287996"><ele>152.0</ele><time>2026-04-18T12:25:16.999Z</time></trkpt><trkpt lat="42.36643664241512" lon="14.073964147017852"><ele>152.0</ele><time>2026-04-18T12:25:17.999Z</time></trkpt><trkpt lat="42.36642721179117" lon="14.0741111186043"><ele>152.0</ele><time>2026-04-18T12:25:18.999Z</time></trkpt><trkpt lat="42.36641802020204" lon="14.074254364973987"><ele>152.0</ele><time>2026-04-18T12:25:19.999Z</time></trkpt><trkpt lat="42.3664088218394" lon="14.074397717148459"><ele>152.0</ele><time>2026-04-18T12:25:20.999Z</time></trkpt><trkpt lat="42.36639876611192" lon="14.07453422150595"><ele>151.6</ele><time>2026-04-18T12:25:21.999Z</time></trkpt><trkpt lat="42.36638904983335" lon="14.074669346114229"><ele>151.2</ele><time>2026-04-18T12:25:22.999Z</time></trkpt><trkpt lat="42.36637927829715" lon="14.074811096286567"><ele>150.8</ele><time>2026-04-18T12:25:23.999Z</time></trkpt><trkpt lat="42.36636944573697" lon="14.074953731668106"><ele>150.4</ele><time>2026-04-18T12:25:24.999Z</time></trkpt><trkpt lat="42.366358753045" lon="14.07510884453827"><ele>150.0</ele><time>2026-04-18T12:25:25.999Z</time></trkpt><trkpt lat="42.366349725770384" lon="14.075239798089498"><ele>149.0</ele><time>2026-04-18T12:25:26.999Z</time></trkpt><trkpt lat="42.36634025004982" lon="14.075378942994462"><ele>148.0</ele><time>2026-04-18T12:25:27.999Z</time></trkpt><trkpt lat="42.36633061420264" lon="14.07552044096786"><ele>147.0</ele><time>2026-04-18T12:25:28.999Z</time></trkpt><trkpt lat="42.366321026094404" lon="14.075661237958743"><ele>146.0</ele><time>2026-04-18T12:25:29.999Z</time></trkpt><trkpt lat="42.366311703777065" lon="14.075798111995931"><ele>145.0</ele><time>2026-04-18T12:25:30.999Z</time></trkpt><trkpt lat="42.36630187772664" lon="14.07594237201522"><ele>144.8</ele><time>2026-04-18T12:25:31.999Z</time></trkpt><trkpt lat="42.36629267242552" lon="14.076077518636497"><ele>144.6</ele><time>2026-04-18T12:25:32.999Z</time></trkpt><trkpt lat="42.36628332504115" lon="14.076217422257455"><ele>144.4</ele><time>2026-04-18T12:25:33.999Z</time></trkpt><trkpt lat="42.366274538146676" lon="14.076354284956883"><ele>144.2</ele><time>2026-04-18T12:25:34.999Z</time></trkpt><trkpt lat="42.366265409037595" lon="14.07648613177499"><ele>144.0</ele><time>2026-04-18T12:25:35.999Z</time></trkpt><trkpt lat="42.36625628147465" lon="14.076619717882451"><ele>143.8</ele><time>2026-04-18T12:25:36.999Z</time></trkpt><trkpt lat="42.36624700887879" lon="14.076755426659126"><ele>143.60000000000002</ele><time>2026-04-18T12:25:37.999Z</time></trkpt><trkpt lat="42.366238002831615" lon="14.076887234388717"><ele>143.4</ele><time>2026-04-18T12:25:38.999Z</time></trkpt><trkpt lat="42.36622936560626" lon="14.07701425033854"><ele>143.20000000000002</ele><time>2026-04-18T12:25:39.999Z</time></trkpt><trkpt lat="42.36622035112749" lon="14.077147028575855"><ele>143.0</ele><time>2026-04-18T12:25:40.999Z</time></trkpt><trkpt lat="42.36621157832983" lon="14.077276246974595"><ele>143.0</ele><time>2026-04-18T12:25:41.999Z</time></trkpt><trkpt lat="42.36620281534922" lon="14.077405320752717"><ele>143.0</ele><time>2026-04-18T12:25:42.999Z</time></trkpt><trkpt lat="42.3661939498193" lon="14.077533260171002"><ele>143.0</ele><time>2026-04-18T12:25:43.999Z</time></trkpt><trkpt lat="42.366184826730596" lon="14.0776618495286"><ele>143.0</ele><time>2026-04-18T12:25:44.999Z</time></trkpt><trkpt lat="42.36617568848378" lon="14.077794995348688"><ele>143.0</ele><time>2026-04-18T12:25:45.999Z</time></trkpt><trkpt lat="42.36616682054503" lon="14.077925797446307"><ele>141.8</ele><time>2026-04-18T12:25:46.999Z</time></trkpt><trkpt lat="42.36615669289434" lon="14.078075180308739"><ele>140.60000000000002</ele><time>2026-04-18T12:25:47.999Z</time></trkpt><trkpt lat="42.36614790007099" lon="14.078204874393565"><ele>139.39999999999998</ele><time>2026-04-18T12:25:48.999Z</time></trkpt><trkpt lat="42.36613892312872" lon="14.078337284265816"><ele>138.2</ele><time>2026-04-18T12:25:49.999Z</time></trkpt><trkpt lat="42.36612969361318" lon="14.078473419596278"><ele>137.0</ele><time>2026-04-18T12:25:50.999Z</time></trkpt><trkpt lat="42.366120662208935" lon="14.078606632792543"><ele>136.4</ele><time>2026-04-18T12:25:51.999Z</time></trkpt><trkpt lat="42.36611224016783" lon="14.07873085787644"><ele>135.79999999999998</ele><time>2026-04-18T12:25:52.999Z</time></trkpt><trkpt lat="42.366104192663414" lon="14.078849558559105"><ele>135.2</ele><time>2026-04-18T12:25:53.999Z</time></trkpt><trkpt lat="42.36609493917909" lon="14.078986047488343"><ele>134.6</ele><time>2026-04-18T12:25:54.999Z</time></trkpt><trkpt lat="42.366086237317056" lon="14.079116119082608"><ele>134.0</ele><time>2026-04-18T12:25:55.999Z</time></trkpt><trkpt lat="42.3660780923691" lon="14.079238293266728"><ele>134.0</ele><time>2026-04-18T12:25:56.999Z</time></trkpt><trkpt lat="42.36606939290474" lon="14.079368785644501"><ele>134.0</ele><time>2026-04-18T12:25:57.999Z</time></trkpt><trkpt lat="42.36606029517968" lon="14.079490776753588"><ele>134.0</ele><time>2026-04-18T12:25:58.999Z</time></trkpt><trkpt lat="42.36605133222167" lon="14.079620180654468"><ele>134.0</ele><time>2026-04-18T12:25:59.999Z</time></trkpt><trkpt lat="42.36604291581917" lon="14.0797439179245"><ele>134.0</ele><time>2026-04-18T12:26:00.999Z</time></trkpt><trkpt lat="42.36603437530121" lon="14.079869479921816"><ele>133.4</ele><time>2026-04-18T12:26:01.999Z</time></trkpt><trkpt lat="42.366025717607684" lon="14.07999676465449"><ele>132.8</ele><time>2026-04-18T12:26:02.999Z</time></trkpt><trkpt lat="42.36601704403601" lon="14.080124282830127"><ele>132.2</ele><time>2026-04-18T12:26:03.999Z</time></trkpt><trkpt lat="42.36600803555489" lon="14.080255047344998"><ele>131.6</ele><time>2026-04-18T12:26:04.999Z</time></trkpt><trkpt lat="42.36599917312909" lon="14.080383149664124"><ele>131.0</ele><time>2026-04-18T12:26:05.999Z</time></trkpt><trkpt lat="42.36598984747981" lon="14.080517947639814"><ele>131.0</ele><time>2026-04-18T12:26:06.999Z</time></trkpt><trkpt lat="42.3659814159072" lon="14.080639822182906"><ele>131.0</ele><time>2026-04-18T12:26:07.999Z</time></trkpt><trkpt lat="42.3659726405179" lon="14.080766666428918"><ele>131.0</ele><time>2026-04-18T12:26:08.999Z</time></trkpt><trkpt lat="42.36596339927783" lon="14.080900244344694"><ele>131.0</ele><time>2026-04-18T12:26:09.999Z</time></trkpt><trkpt lat="42.36595408204007" lon="14.081034920783697"><ele>131.0</ele><time>2026-04-18T12:26:10.999Z</time></trkpt><trkpt lat="42.365944665998434" lon="14.08117336156703"><ele>130.4</ele><time>2026-04-18T12:26:11.999Z</time></trkpt><trkpt lat="42.365935234610625" lon="14.081311971250196"><ele>129.8</ele><time>2026-04-18T12:26:12.999Z</time></trkpt><trkpt lat="42.36592519155689" lon="14.081455526888186"><ele>129.20000000000002</ele><time>2026-04-18T12:26:13.999Z</time></trkpt><trkpt lat="42.365915759066816" lon="14.081590785530466"><ele>128.6</ele><time>2026-04-18T12:26:14.999Z</time></trkpt><trkpt lat="42.36590626846636" lon="14.081728246205552"><ele>128.0</ele><time>2026-04-18T12:26:15.999Z</time></trkpt><trkpt lat="42.365896483700055" lon="14.081869489811151"><ele>127.4</ele><time>2026-04-18T12:26:16.999Z</time></trkpt><trkpt lat="42.36588697694622" lon="14.082006720271252"><ele>126.80000000000001</ele><time>2026-04-18T12:26:17.999Z</time></trkpt><trkpt lat="42.36587697268955" lon="14.082151132242114"><ele>126.2</ele><time>2026-04-18T12:26:18.999Z</time></trkpt><trkpt lat="42.36586728120305" lon="14.08228971880983"><ele>125.6</ele><time>2026-04-18T12:26:19.999Z</time></trkpt><trkpt lat="42.3658576863213" lon="14.08242562242301"><ele>125.0</ele><time>2026-04-18T12:26:20.999Z</time></trkpt><trkpt lat="42.36584804300667" lon="14.082562212045925"><ele>124.8</ele><time>2026-04-18T12:26:21.999Z</time></trkpt><trkpt lat="42.365838367423365" lon="14.082701482303435"><ele>124.6</ele><time>2026-04-18T12:26:22.999Z</time></trkpt><trkpt lat="42.36582913187543" lon="14.082835250347715"><ele>124.4</ele><time>2026-04-18T12:26:23.999Z</time></trkpt><trkpt lat="42.365819792897575" lon="14.082971453121212"><ele>124.2</ele><time>2026-04-18T12:26:24.999Z</time></trkpt><trkpt lat="42.36581035993129" lon="14.083109394613784"><ele>124.0</ele><time>2026-04-18T12:26:25.999Z</time></trkpt><trkpt lat="42.36580073891337" lon="14.083250086037713"><ele>123.2</ele><time>2026-04-18T12:26:26.999Z</time></trkpt><trkpt lat="42.36579122112973" lon="14.08338926783855"><ele>122.4</ele><time>2026-04-18T12:26:27.999Z</time></trkpt><trkpt lat="42.36578156706851" lon="14.083528001182316"><ele>121.6</ele><time>2026-04-18T12:26:28.999Z</time></trkpt><trkpt lat="42.365771338114605" lon="14.083674138598699"><ele>120.8</ele><time>2026-04-18T12:26:29.999Z</time></trkpt><trkpt lat="42.36576172416613" lon="14.083811489638828"><ele>120.0</ele><time>2026-04-18T12:26:30.999Z</time></trkpt><trkpt lat="42.3657517233369" lon="14.083956408569426"><ele>120.0</ele><time>2026-04-18T12:26:31.999Z</time></trkpt><trkpt lat="42.36574217372922" lon="14.084095887904422"><ele>120.0</ele><time>2026-04-18T12:26:32.999Z</time></trkpt><trkpt lat="42.36573242242504" lon="14.08423831319626"><ele>120.0</ele><time>2026-04-18T12:26:33.999Z</time></trkpt><trkpt lat="42.36572210229235" lon="14.084389046678686"><ele>120.0</ele><time>2026-04-18T12:26:34.999Z</time></trkpt><trkpt lat="42.36571115102937" lon="14.084549977284102"><ele>120.0</ele><time>2026-04-18T12:26:35.999Z</time></trkpt><trkpt lat="42.36570034890156" lon="14.084709722095198"><ele>119.25</ele><time>2026-04-18T12:26:36.999Z</time></trkpt><trkpt lat="42.36568976164573" lon="14.084866289308748"><ele>118.5</ele><time>2026-04-18T12:26:37.999Z</time></trkpt><trkpt lat="42.36567913597604" lon="14.085023424622266"><ele>117.75</ele><time>2026-04-18T12:26:38.999Z</time></trkpt><trkpt lat="42.365668423712194" lon="14.085181840500105"><ele>117.0</ele><time>2026-04-18T12:26:39.999Z</time></trkpt><trkpt lat="42.36565795022555" lon="14.0853367252788"><ele>116.8</ele><time>2026-04-18T12:26:40.999Z</time></trkpt><trkpt lat="42.365647480625334" lon="14.085491553078757"><ele>116.6</ele><time>2026-04-18T12:26:41.999Z</time></trkpt><trkpt lat="42.36563682577095" lon="14.085642521789437"><ele>116.39999999999999</ele><time>2026-04-18T12:26:42.999Z</time></trkpt><trkpt lat="42.365626988998365" lon="14.085791771485198"><ele>116.19999999999999</ele><time>2026-04-18T12:26:43.999Z</time></trkpt><trkpt lat="42.36561672511051" lon="14.085941014719419"><ele>116.0</ele><time>2026-04-18T12:26:44.999Z</time></trkpt><trkpt lat="42.365606976523054" lon="14.086083469469248"><ele>115.8</ele><time>2026-04-18T12:26:45.999Z</time></trkpt><trkpt lat="42.36559712768388" lon="14.086227389199065"><ele>115.6</ele><time>2026-04-18T12:26:46.999Z</time></trkpt><trkpt lat="42.365587396172664" lon="14.086369594423685"><ele>115.4</ele><time>2026-04-18T12:26:47.999Z</time></trkpt><trkpt lat="42.36557757160564" lon="14.08651315946928"><ele>115.2</ele><time>2026-04-18T12:26:48.999Z</time></trkpt><trkpt lat="42.36556786540785" lon="14.086654994806386"><ele>115.0</ele><time>2026-04-18T12:26:49.999Z</time></trkpt><trkpt lat="42.365558136381985" lon="14.086797163718689"><ele>114.6</ele><time>2026-04-18T12:26:50.999Z</time></trkpt><trkpt lat="42.36554842698835" lon="14.086939045794594"><ele>114.2</ele><time>2026-04-18T12:26:51.999Z</time></trkpt><trkpt lat="42.36557132241453" lon="14.087081462747053"><ele>113.80000000000001</ele><time>2026-04-18T12:26:52.999Z</time></trkpt><trkpt lat="42.36556088793632" lon="14.087216244825372"><ele>113.4</ele><time>2026-04-18T12:26:53.999Z</time></trkpt><trkpt lat="42.36555291430247" lon="14.087349669854119"><ele>113.0</ele><time>2026-04-18T12:26:54.999Z</time></trkpt><trkpt lat="42.36554182572816" lon="14.087479956268089"><ele>112.4</ele><time>2026-04-18T12:26:55.999Z</time></trkpt><trkpt lat="42.365531109405325" lon="14.087613328534342"><ele>111.80000000000001</ele><time>2026-04-18T12:26:56.999Z</time></trkpt><trkpt lat="42.36552033527612" lon="14.08774965137758"><ele>111.2</ele><time>2026-04-18T12:26:57.999Z</time></trkpt><trkpt lat="42.36548429050861" lon="14.087880315486105"><ele>110.6</ele><time>2026-04-18T12:26:58.999Z</time></trkpt><trkpt lat="42.36547497271878" lon="14.088016748442579"><ele>110.0</ele><time>2026-04-18T12:26:59.999Z</time></trkpt><trkpt lat="42.36546545119545" lon="14.088156164509885"><ele>109.8</ele><time>2026-04-18T12:27:00.999Z</time></trkpt><trkpt lat="42.365455961452575" lon="14.088295115296313"><ele>109.6</ele><time>2026-04-18T12:27:01.999Z</time></trkpt><trkpt lat="42.36544654900032" lon="14.088431926090788"><ele>109.4</ele><time>2026-04-18T12:27:02.999Z</time></trkpt><trkpt lat="42.365436834696666" lon="14.08857322023537"><ele>109.2</ele><time>2026-04-18T12:27:03.999Z</time></trkpt><trkpt lat="42.3654265655903" lon="14.08872258395025"><ele>109.0</ele><time>2026-04-18T12:27:04.999Z</time></trkpt><trkpt lat="42.365433375521995" lon="14.088859805888443"><ele>109.0</ele><time>2026-04-18T12:27:05.999Z</time></trkpt><trkpt lat="42.36542303095259" lon="14.08899760490775"><ele>109.0</ele><time>2026-04-18T12:27:06.999Z</time></trkpt><trkpt lat="42.36541106672416" lon="14.089128911332427"><ele>108.0</ele><time>2026-04-18T12:27:07.999Z</time></trkpt></trkseg></trk></gpx>